<?xml version="1.0" encoding="UTF-8" standalone="no" ?>
<gpx xmlns="http://www.topografix.com/GPX/1/1" xmlns:xsi="http://www.w3.org/2001/XMLSchema-instance" xsi:schemaLocation="http://www.topografix.com/GPX/1/1 http://www.topografix.com/GPX/1/1/gpx.xsd" version="1.1" creator="VisuGPX - https://www.visugpx.com">
  <metadata>
    <name>2017-06-24 Bike ride-Amberieux en Dombes O via Toussieux</name>
    <desc><![CDATA[2017-06-24 Bike ride-Amberieux en Dombes O via Toussieux]]></desc>
  </metadata>
  <wpt lat="45.92467" lon="4.73718">
    <ele>174</ele>
    <name><![CDATA[2017-06-24 10:33 (Start)]]></name>
  </wpt>
  <wpt lat="45.92458" lon="4.73707">
    <ele>174</ele>
    <name><![CDATA[2017-06-24 10:33 (End)]]></name>
    <desc><![CDATA[Created by Google My Tracks on Android  Name: 2017-06-24 10:33 Activity type: biking Description: - Total distance: 40.70 km (25.3 mi) Total time: 2:10:56 Moving time: 2:03:31 Average speed: 18.65 km/h (11.6 mi/h) Average moving speed: 19.77 km/h (12.3 mi/h) Max speed: 46.79 km/h (29.1 mi/h) Average pace: 3:13 min/km (5:11 min/mi) Average moving pace: 3:02 min/km (4:53 min/mi) Fastest pace: 1:17 min/km (2:04 min/mi) Max elevation: 296 m (972 ft) Min elevation: 167 m (549 ft) Elevation gain: 584 m (1915 ft) Max grade: 11 % Min grade: -26 % Recorded: 24/06/2017 10:33]]></desc>
  </wpt>
  <trk>
    <name><![CDATA[2017-06-24 10:33]]></name>
    <trkseg>
      <trkpt lat="45.92467" lon="4.73718">
        <ele>174</ele>
        <time>2017-06-24T08:33:32.026Z</time>
      </trkpt>
      <trkpt lat="45.92464" lon="4.73719">
        <ele>174</ele>
        <time>2017-06-24T08:33:52Z</time>
      </trkpt>
      <trkpt lat="45.92459" lon="4.73726">
        <ele>174</ele>
        <time>2017-06-24T08:34:02Z</time>
      </trkpt>
      <trkpt lat="45.92457" lon="4.73718">
        <ele>174</ele>
        <time>2017-06-24T08:34:03Z</time>
      </trkpt>
      <trkpt lat="45.92461" lon="4.73708">
        <ele>174</ele>
        <time>2017-06-24T08:34:27Z</time>
      </trkpt>
      <trkpt lat="45.92463" lon="4.73706">
        <ele>174</ele>
        <time>2017-06-24T08:34:28Z</time>
      </trkpt>
      <trkpt lat="45.92466" lon="4.73697">
        <ele>174</ele>
        <time>2017-06-24T08:34:32Z</time>
      </trkpt>
      <trkpt lat="45.92466" lon="4.73693">
        <ele>174</ele>
        <time>2017-06-24T08:34:33Z</time>
      </trkpt>
      <trkpt lat="45.92468" lon="4.73681">
        <ele>174</ele>
        <time>2017-06-24T08:34:36Z</time>
      </trkpt>
      <trkpt lat="45.92468" lon="4.73677">
        <ele>174</ele>
        <time>2017-06-24T08:34:37Z</time>
      </trkpt>
      <trkpt lat="45.9247" lon="4.73668">
        <ele>174</ele>
        <time>2017-06-24T08:34:39Z</time>
      </trkpt>
      <trkpt lat="45.92471" lon="4.73663">
        <ele>174</ele>
        <time>2017-06-24T08:34:40Z</time>
      </trkpt>
      <trkpt lat="45.92474" lon="4.73653">
        <ele>174</ele>
        <time>2017-06-24T08:34:42Z</time>
      </trkpt>
      <trkpt lat="45.92476" lon="4.73649">
        <ele>174</ele>
        <time>2017-06-24T08:34:43Z</time>
      </trkpt>
      <trkpt lat="45.92482" lon="4.73644">
        <ele>174</ele>
        <time>2017-06-24T08:34:45Z</time>
      </trkpt>
      <trkpt lat="45.92486" lon="4.73644">
        <ele>174</ele>
        <time>2017-06-24T08:34:46Z</time>
      </trkpt>
      <trkpt lat="45.92494" lon="4.73644">
        <ele>174</ele>
        <time>2017-06-24T08:34:48Z</time>
      </trkpt>
      <trkpt lat="45.92498" lon="4.73643">
        <ele>174</ele>
        <time>2017-06-24T08:34:49Z</time>
      </trkpt>
      <trkpt lat="45.92507" lon="4.73643">
        <ele>174</ele>
        <time>2017-06-24T08:34:51Z</time>
      </trkpt>
      <trkpt lat="45.92511" lon="4.73642">
        <ele>174</ele>
        <time>2017-06-24T08:34:52Z</time>
      </trkpt>
      <trkpt lat="45.92519" lon="4.73642">
        <ele>173</ele>
        <time>2017-06-24T08:34:54Z</time>
      </trkpt>
      <trkpt lat="45.92523" lon="4.73642">
        <ele>173</ele>
        <time>2017-06-24T08:34:55Z</time>
      </trkpt>
      <trkpt lat="45.92528" lon="4.73642">
        <ele>173</ele>
        <time>2017-06-24T08:34:56Z</time>
      </trkpt>
      <trkpt lat="45.92532" lon="4.7364">
        <ele>173</ele>
        <time>2017-06-24T08:34:57Z</time>
      </trkpt>
      <trkpt lat="45.92541" lon="4.73637">
        <ele>173</ele>
        <time>2017-06-24T08:34:59Z</time>
      </trkpt>
      <trkpt lat="45.92546" lon="4.73636">
        <ele>173</ele>
        <time>2017-06-24T08:35:00Z</time>
      </trkpt>
      <trkpt lat="45.9255" lon="4.73635">
        <ele>173</ele>
        <time>2017-06-24T08:35:01Z</time>
      </trkpt>
      <trkpt lat="45.92555" lon="4.73634">
        <ele>173</ele>
        <time>2017-06-24T08:35:02Z</time>
      </trkpt>
      <trkpt lat="45.92559" lon="4.73632">
        <ele>173</ele>
        <time>2017-06-24T08:35:03Z</time>
      </trkpt>
      <trkpt lat="45.92564" lon="4.73631">
        <ele>173</ele>
        <time>2017-06-24T08:35:04Z</time>
      </trkpt>
      <trkpt lat="45.92568" lon="4.73631">
        <ele>173</ele>
        <time>2017-06-24T08:35:05Z</time>
      </trkpt>
      <trkpt lat="45.92573" lon="4.73629">
        <ele>173</ele>
        <time>2017-06-24T08:35:06Z</time>
      </trkpt>
      <trkpt lat="45.9258" lon="4.73626">
        <ele>173</ele>
        <time>2017-06-24T08:35:08Z</time>
      </trkpt>
      <trkpt lat="45.92585" lon="4.73626">
        <ele>172</ele>
        <time>2017-06-24T08:35:09Z</time>
      </trkpt>
      <trkpt lat="45.92592" lon="4.73625">
        <ele>173</ele>
        <time>2017-06-24T08:35:11Z</time>
      </trkpt>
      <trkpt lat="45.92596" lon="4.73624">
        <ele>173</ele>
        <time>2017-06-24T08:35:12Z</time>
      </trkpt>
      <trkpt lat="45.92602" lon="4.73625">
        <ele>173</ele>
        <time>2017-06-24T08:35:14Z</time>
      </trkpt>
      <trkpt lat="45.92606" lon="4.73626">
        <ele>173</ele>
        <time>2017-06-24T08:35:15Z</time>
      </trkpt>
      <trkpt lat="45.92612" lon="4.73632">
        <ele>173</ele>
        <time>2017-06-24T08:35:17Z</time>
      </trkpt>
      <trkpt lat="45.92616" lon="4.73636">
        <ele>173</ele>
        <time>2017-06-24T08:35:18Z</time>
      </trkpt>
      <trkpt lat="45.92622" lon="4.73646">
        <ele>173</ele>
        <time>2017-06-24T08:35:20Z</time>
      </trkpt>
      <trkpt lat="45.92625" lon="4.73652">
        <ele>173</ele>
        <time>2017-06-24T08:35:21Z</time>
      </trkpt>
      <trkpt lat="45.92629" lon="4.73658">
        <ele>173</ele>
        <time>2017-06-24T08:35:22Z</time>
      </trkpt>
      <trkpt lat="45.92632" lon="4.73665">
        <ele>173</ele>
        <time>2017-06-24T08:35:23Z</time>
      </trkpt>
      <trkpt lat="45.92635" lon="4.73671">
        <ele>173</ele>
        <time>2017-06-24T08:35:24Z</time>
      </trkpt>
      <trkpt lat="45.92638" lon="4.73677">
        <ele>173</ele>
        <time>2017-06-24T08:35:25Z</time>
      </trkpt>
      <trkpt lat="45.92641" lon="4.73683">
        <ele>173</ele>
        <time>2017-06-24T08:35:26Z</time>
      </trkpt>
      <trkpt lat="45.92645" lon="4.73687">
        <ele>173</ele>
        <time>2017-06-24T08:35:27Z</time>
      </trkpt>
      <trkpt lat="45.92649" lon="4.73692">
        <ele>173</ele>
        <time>2017-06-24T08:35:28Z</time>
      </trkpt>
      <trkpt lat="45.92653" lon="4.73696">
        <ele>173</ele>
        <time>2017-06-24T08:35:29Z</time>
      </trkpt>
      <trkpt lat="45.92658" lon="4.73699">
        <ele>173</ele>
        <time>2017-06-24T08:35:30Z</time>
      </trkpt>
      <trkpt lat="45.92663" lon="4.73702">
        <ele>173</ele>
        <time>2017-06-24T08:35:31Z</time>
      </trkpt>
      <trkpt lat="45.92668" lon="4.73704">
        <ele>174</ele>
        <time>2017-06-24T08:35:32Z</time>
      </trkpt>
      <trkpt lat="45.92672" lon="4.73707">
        <ele>174</ele>
        <time>2017-06-24T08:35:33Z</time>
      </trkpt>
      <trkpt lat="45.92677" lon="4.73709">
        <ele>173</ele>
        <time>2017-06-24T08:35:34Z</time>
      </trkpt>
      <trkpt lat="45.92683" lon="4.7371">
        <ele>173</ele>
        <time>2017-06-24T08:35:35Z</time>
      </trkpt>
      <trkpt lat="45.92688" lon="4.73711">
        <ele>173</ele>
        <time>2017-06-24T08:35:36Z</time>
      </trkpt>
      <trkpt lat="45.92694" lon="4.73712">
        <ele>173</ele>
        <time>2017-06-24T08:35:37Z</time>
      </trkpt>
      <trkpt lat="45.92699" lon="4.73713">
        <ele>173</ele>
        <time>2017-06-24T08:35:38Z</time>
      </trkpt>
      <trkpt lat="45.92705" lon="4.73715">
        <ele>173</ele>
        <time>2017-06-24T08:35:39Z</time>
      </trkpt>
      <trkpt lat="45.92711" lon="4.73716">
        <ele>173</ele>
        <time>2017-06-24T08:35:40Z</time>
      </trkpt>
      <trkpt lat="45.92717" lon="4.73717">
        <ele>173</ele>
        <time>2017-06-24T08:35:41Z</time>
      </trkpt>
      <trkpt lat="45.92722" lon="4.73718">
        <ele>173</ele>
        <time>2017-06-24T08:35:42Z</time>
      </trkpt>
      <trkpt lat="45.92727" lon="4.73719">
        <ele>173</ele>
        <time>2017-06-24T08:35:43Z</time>
      </trkpt>
      <trkpt lat="45.92732" lon="4.73721">
        <ele>173</ele>
        <time>2017-06-24T08:35:44Z</time>
      </trkpt>
      <trkpt lat="45.92737" lon="4.73723">
        <ele>173</ele>
        <time>2017-06-24T08:35:45Z</time>
      </trkpt>
      <trkpt lat="45.92741" lon="4.73725">
        <ele>173</ele>
        <time>2017-06-24T08:35:46Z</time>
      </trkpt>
      <trkpt lat="45.92746" lon="4.73726">
        <ele>173</ele>
        <time>2017-06-24T08:35:47Z</time>
      </trkpt>
      <trkpt lat="45.92751" lon="4.73728">
        <ele>172</ele>
        <time>2017-06-24T08:35:48Z</time>
      </trkpt>
      <trkpt lat="45.92756" lon="4.73729">
        <ele>172</ele>
        <time>2017-06-24T08:35:49Z</time>
      </trkpt>
      <trkpt lat="45.9276" lon="4.73731">
        <ele>172</ele>
        <time>2017-06-24T08:35:50Z</time>
      </trkpt>
      <trkpt lat="45.92765" lon="4.73733">
        <ele>172</ele>
        <time>2017-06-24T08:35:51Z</time>
      </trkpt>
      <trkpt lat="45.92772" lon="4.73737">
        <ele>172</ele>
        <time>2017-06-24T08:35:53Z</time>
      </trkpt>
      <trkpt lat="45.92774" lon="4.73738">
        <ele>172</ele>
        <time>2017-06-24T08:35:54Z</time>
      </trkpt>
      <trkpt lat="45.92783" lon="4.73739">
        <ele>172</ele>
        <time>2017-06-24T08:35:58Z</time>
      </trkpt>
      <trkpt lat="45.92785" lon="4.73735">
        <ele>172</ele>
        <time>2017-06-24T08:35:59Z</time>
      </trkpt>
      <trkpt lat="45.92787" lon="4.73723">
        <ele>172</ele>
        <time>2017-06-24T08:36:01Z</time>
      </trkpt>
      <trkpt lat="45.92787" lon="4.73717">
        <ele>172</ele>
        <time>2017-06-24T08:36:02Z</time>
      </trkpt>
      <trkpt lat="45.92788" lon="4.73711">
        <ele>172</ele>
        <time>2017-06-24T08:36:03Z</time>
      </trkpt>
      <trkpt lat="45.92789" lon="4.73704">
        <ele>172</ele>
        <time>2017-06-24T08:36:04Z</time>
      </trkpt>
      <trkpt lat="45.92791" lon="4.73697">
        <ele>172</ele>
        <time>2017-06-24T08:36:05Z</time>
      </trkpt>
      <trkpt lat="45.92792" lon="4.7369">
        <ele>172</ele>
        <time>2017-06-24T08:36:06Z</time>
      </trkpt>
      <trkpt lat="45.92794" lon="4.73684">
        <ele>172</ele>
        <time>2017-06-24T08:36:07Z</time>
      </trkpt>
      <trkpt lat="45.92796" lon="4.73678">
        <ele>172</ele>
        <time>2017-06-24T08:36:08Z</time>
      </trkpt>
      <trkpt lat="45.92797" lon="4.73671">
        <ele>172</ele>
        <time>2017-06-24T08:36:09Z</time>
      </trkpt>
      <trkpt lat="45.92799" lon="4.73665">
        <ele>172</ele>
        <time>2017-06-24T08:36:10Z</time>
      </trkpt>
      <trkpt lat="45.92801" lon="4.73659">
        <ele>172</ele>
        <time>2017-06-24T08:36:11Z</time>
      </trkpt>
      <trkpt lat="45.92802" lon="4.73653">
        <ele>172</ele>
        <time>2017-06-24T08:36:12Z</time>
      </trkpt>
      <trkpt lat="45.92807" lon="4.73643">
        <ele>172</ele>
        <time>2017-06-24T08:36:14Z</time>
      </trkpt>
      <trkpt lat="45.9281" lon="4.73639">
        <ele>172</ele>
        <time>2017-06-24T08:36:15Z</time>
      </trkpt>
      <trkpt lat="45.92815" lon="4.73632">
        <ele>172</ele>
        <time>2017-06-24T08:36:17Z</time>
      </trkpt>
      <trkpt lat="45.92817" lon="4.73627">
        <ele>172</ele>
        <time>2017-06-24T08:36:18Z</time>
      </trkpt>
      <trkpt lat="45.92818" lon="4.73621">
        <ele>172</ele>
        <time>2017-06-24T08:36:19Z</time>
      </trkpt>
      <trkpt lat="45.92818" lon="4.73613">
        <ele>172</ele>
        <time>2017-06-24T08:36:20Z</time>
      </trkpt>
      <trkpt lat="45.92818" lon="4.73606">
        <ele>172</ele>
        <time>2017-06-24T08:36:21Z</time>
      </trkpt>
      <trkpt lat="45.92819" lon="4.73599">
        <ele>171</ele>
        <time>2017-06-24T08:36:22Z</time>
      </trkpt>
      <trkpt lat="45.92819" lon="4.73591">
        <ele>171</ele>
        <time>2017-06-24T08:36:23Z</time>
      </trkpt>
      <trkpt lat="45.92819" lon="4.73583">
        <ele>171</ele>
        <time>2017-06-24T08:36:24Z</time>
      </trkpt>
      <trkpt lat="45.92819" lon="4.73575">
        <ele>171</ele>
        <time>2017-06-24T08:36:25Z</time>
      </trkpt>
      <trkpt lat="45.92819" lon="4.73567">
        <ele>171</ele>
        <time>2017-06-24T08:36:26Z</time>
      </trkpt>
      <trkpt lat="45.9282" lon="4.73559">
        <ele>171</ele>
        <time>2017-06-24T08:36:27Z</time>
      </trkpt>
      <trkpt lat="45.9282" lon="4.73551">
        <ele>171</ele>
        <time>2017-06-24T08:36:28Z</time>
      </trkpt>
      <trkpt lat="45.92821" lon="4.73543">
        <ele>171</ele>
        <time>2017-06-24T08:36:29Z</time>
      </trkpt>
      <trkpt lat="45.92822" lon="4.73536">
        <ele>172</ele>
        <time>2017-06-24T08:36:30Z</time>
      </trkpt>
      <trkpt lat="45.92822" lon="4.73529">
        <ele>172</ele>
        <time>2017-06-24T08:36:31Z</time>
      </trkpt>
      <trkpt lat="45.92823" lon="4.73522">
        <ele>172</ele>
        <time>2017-06-24T08:36:32Z</time>
      </trkpt>
      <trkpt lat="45.92824" lon="4.73515">
        <ele>172</ele>
        <time>2017-06-24T08:36:33Z</time>
      </trkpt>
      <trkpt lat="45.92825" lon="4.73509">
        <ele>172</ele>
        <time>2017-06-24T08:36:34Z</time>
      </trkpt>
      <trkpt lat="45.92826" lon="4.73502">
        <ele>172</ele>
        <time>2017-06-24T08:36:35Z</time>
      </trkpt>
      <trkpt lat="45.92827" lon="4.73494">
        <ele>172</ele>
        <time>2017-06-24T08:36:36Z</time>
      </trkpt>
      <trkpt lat="45.92828" lon="4.73487">
        <ele>172</ele>
        <time>2017-06-24T08:36:37Z</time>
      </trkpt>
      <trkpt lat="45.92829" lon="4.7348">
        <ele>172</ele>
        <time>2017-06-24T08:36:38Z</time>
      </trkpt>
      <trkpt lat="45.9283" lon="4.73472">
        <ele>172</ele>
        <time>2017-06-24T08:36:39Z</time>
      </trkpt>
      <trkpt lat="45.92831" lon="4.73464">
        <ele>172</ele>
        <time>2017-06-24T08:36:40Z</time>
      </trkpt>
      <trkpt lat="45.92832" lon="4.73457">
        <ele>172</ele>
        <time>2017-06-24T08:36:41Z</time>
      </trkpt>
      <trkpt lat="45.92833" lon="4.73449">
        <ele>172</ele>
        <time>2017-06-24T08:36:42Z</time>
      </trkpt>
      <trkpt lat="45.92834" lon="4.73441">
        <ele>172</ele>
        <time>2017-06-24T08:36:43Z</time>
      </trkpt>
      <trkpt lat="45.92835" lon="4.73433">
        <ele>172</ele>
        <time>2017-06-24T08:36:44Z</time>
      </trkpt>
      <trkpt lat="45.92836" lon="4.73426">
        <ele>172</ele>
        <time>2017-06-24T08:36:45Z</time>
      </trkpt>
      <trkpt lat="45.92837" lon="4.73418">
        <ele>172</ele>
        <time>2017-06-24T08:36:46Z</time>
      </trkpt>
      <trkpt lat="45.92838" lon="4.7341">
        <ele>172</ele>
        <time>2017-06-24T08:36:47Z</time>
      </trkpt>
      <trkpt lat="45.92839" lon="4.73402">
        <ele>172</ele>
        <time>2017-06-24T08:36:48Z</time>
      </trkpt>
      <trkpt lat="45.9284" lon="4.73394">
        <ele>172</ele>
        <time>2017-06-24T08:36:49Z</time>
      </trkpt>
      <trkpt lat="45.92841" lon="4.73386">
        <ele>172</ele>
        <time>2017-06-24T08:36:50Z</time>
      </trkpt>
      <trkpt lat="45.92842" lon="4.73377">
        <ele>172</ele>
        <time>2017-06-24T08:36:51Z</time>
      </trkpt>
      <trkpt lat="45.92843" lon="4.73369">
        <ele>171</ele>
        <time>2017-06-24T08:36:52Z</time>
      </trkpt>
      <trkpt lat="45.92844" lon="4.7336">
        <ele>171</ele>
        <time>2017-06-24T08:36:53Z</time>
      </trkpt>
      <trkpt lat="45.92846" lon="4.73351">
        <ele>171</ele>
        <time>2017-06-24T08:36:54Z</time>
      </trkpt>
      <trkpt lat="45.92847" lon="4.73343">
        <ele>171</ele>
        <time>2017-06-24T08:36:55Z</time>
      </trkpt>
      <trkpt lat="45.92848" lon="4.73334">
        <ele>171</ele>
        <time>2017-06-24T08:36:56Z</time>
      </trkpt>
      <trkpt lat="45.92849" lon="4.73325">
        <ele>171</ele>
        <time>2017-06-24T08:36:57Z</time>
      </trkpt>
      <trkpt lat="45.9285" lon="4.73316">
        <ele>171</ele>
        <time>2017-06-24T08:36:58Z</time>
      </trkpt>
      <trkpt lat="45.92851" lon="4.73307">
        <ele>171</ele>
        <time>2017-06-24T08:36:59Z</time>
      </trkpt>
      <trkpt lat="45.92852" lon="4.73298">
        <ele>171</ele>
        <time>2017-06-24T08:37:00Z</time>
      </trkpt>
      <trkpt lat="45.92853" lon="4.73288">
        <ele>171</ele>
        <time>2017-06-24T08:37:01Z</time>
      </trkpt>
      <trkpt lat="45.92854" lon="4.7328">
        <ele>171</ele>
        <time>2017-06-24T08:37:02Z</time>
      </trkpt>
      <trkpt lat="45.92856" lon="4.73271">
        <ele>171</ele>
        <time>2017-06-24T08:37:03Z</time>
      </trkpt>
      <trkpt lat="45.92857" lon="4.73263">
        <ele>171</ele>
        <time>2017-06-24T08:37:04Z</time>
      </trkpt>
      <trkpt lat="45.92858" lon="4.73255">
        <ele>171</ele>
        <time>2017-06-24T08:37:05Z</time>
      </trkpt>
      <trkpt lat="45.92859" lon="4.73247">
        <ele>171</ele>
        <time>2017-06-24T08:37:06Z</time>
      </trkpt>
      <trkpt lat="45.9286" lon="4.73239">
        <ele>171</ele>
        <time>2017-06-24T08:37:07Z</time>
      </trkpt>
      <trkpt lat="45.92861" lon="4.73231">
        <ele>171</ele>
        <time>2017-06-24T08:37:08Z</time>
      </trkpt>
      <trkpt lat="45.92862" lon="4.73224">
        <ele>171</ele>
        <time>2017-06-24T08:37:09Z</time>
      </trkpt>
      <trkpt lat="45.92863" lon="4.73216">
        <ele>171</ele>
        <time>2017-06-24T08:37:10Z</time>
      </trkpt>
      <trkpt lat="45.92864" lon="4.73208">
        <ele>171</ele>
        <time>2017-06-24T08:37:11Z</time>
      </trkpt>
      <trkpt lat="45.92865" lon="4.73199">
        <ele>171</ele>
        <time>2017-06-24T08:37:12Z</time>
      </trkpt>
      <trkpt lat="45.92866" lon="4.73191">
        <ele>171</ele>
        <time>2017-06-24T08:37:13Z</time>
      </trkpt>
      <trkpt lat="45.92867" lon="4.73182">
        <ele>171</ele>
        <time>2017-06-24T08:37:14Z</time>
      </trkpt>
      <trkpt lat="45.92868" lon="4.73174">
        <ele>171</ele>
        <time>2017-06-24T08:37:15Z</time>
      </trkpt>
      <trkpt lat="45.92868" lon="4.73166">
        <ele>171</ele>
        <time>2017-06-24T08:37:16Z</time>
      </trkpt>
      <trkpt lat="45.92869" lon="4.73157">
        <ele>171</ele>
        <time>2017-06-24T08:37:17Z</time>
      </trkpt>
      <trkpt lat="45.92871" lon="4.73148">
        <ele>171</ele>
        <time>2017-06-24T08:37:18Z</time>
      </trkpt>
      <trkpt lat="45.92872" lon="4.7314">
        <ele>171</ele>
        <time>2017-06-24T08:37:19Z</time>
      </trkpt>
      <trkpt lat="45.92873" lon="4.73131">
        <ele>171</ele>
        <time>2017-06-24T08:37:20Z</time>
      </trkpt>
      <trkpt lat="45.92875" lon="4.73123">
        <ele>172</ele>
        <time>2017-06-24T08:37:21Z</time>
      </trkpt>
      <trkpt lat="45.92877" lon="4.73114">
        <ele>172</ele>
        <time>2017-06-24T08:37:22Z</time>
      </trkpt>
      <trkpt lat="45.92879" lon="4.73106">
        <ele>172</ele>
        <time>2017-06-24T08:37:23Z</time>
      </trkpt>
      <trkpt lat="45.92882" lon="4.73098">
        <ele>172</ele>
        <time>2017-06-24T08:37:24Z</time>
      </trkpt>
      <trkpt lat="45.92884" lon="4.7309">
        <ele>172</ele>
        <time>2017-06-24T08:37:25Z</time>
      </trkpt>
      <trkpt lat="45.92887" lon="4.73083">
        <ele>172</ele>
        <time>2017-06-24T08:37:26Z</time>
      </trkpt>
      <trkpt lat="45.9289" lon="4.73076">
        <ele>172</ele>
        <time>2017-06-24T08:37:27Z</time>
      </trkpt>
      <trkpt lat="45.92893" lon="4.7307">
        <ele>172</ele>
        <time>2017-06-24T08:37:28Z</time>
      </trkpt>
      <trkpt lat="45.92896" lon="4.73064">
        <ele>172</ele>
        <time>2017-06-24T08:37:29Z</time>
      </trkpt>
      <trkpt lat="45.92899" lon="4.73058">
        <ele>172</ele>
        <time>2017-06-24T08:37:30Z</time>
      </trkpt>
      <trkpt lat="45.92902" lon="4.73053">
        <ele>172</ele>
        <time>2017-06-24T08:37:31Z</time>
      </trkpt>
      <trkpt lat="45.92906" lon="4.73048">
        <ele>172</ele>
        <time>2017-06-24T08:37:32Z</time>
      </trkpt>
      <trkpt lat="45.9291" lon="4.73042">
        <ele>172</ele>
        <time>2017-06-24T08:37:33Z</time>
      </trkpt>
      <trkpt lat="45.92914" lon="4.73036">
        <ele>172</ele>
        <time>2017-06-24T08:37:34Z</time>
      </trkpt>
      <trkpt lat="45.92918" lon="4.7303">
        <ele>172</ele>
        <time>2017-06-24T08:37:35Z</time>
      </trkpt>
      <trkpt lat="45.92922" lon="4.73025">
        <ele>171</ele>
        <time>2017-06-24T08:37:36Z</time>
      </trkpt>
      <trkpt lat="45.92926" lon="4.73019">
        <ele>171</ele>
        <time>2017-06-24T08:37:37Z</time>
      </trkpt>
      <trkpt lat="45.92931" lon="4.73014">
        <ele>171</ele>
        <time>2017-06-24T08:37:38Z</time>
      </trkpt>
      <trkpt lat="45.92935" lon="4.73009">
        <ele>171</ele>
        <time>2017-06-24T08:37:39Z</time>
      </trkpt>
      <trkpt lat="45.9294" lon="4.73003">
        <ele>171</ele>
        <time>2017-06-24T08:37:40Z</time>
      </trkpt>
      <trkpt lat="45.92944" lon="4.72998">
        <ele>171</ele>
        <time>2017-06-24T08:37:41Z</time>
      </trkpt>
      <trkpt lat="45.92949" lon="4.72993">
        <ele>171</ele>
        <time>2017-06-24T08:37:42Z</time>
      </trkpt>
      <trkpt lat="45.92953" lon="4.72987">
        <ele>171</ele>
        <time>2017-06-24T08:37:43Z</time>
      </trkpt>
      <trkpt lat="45.92957" lon="4.72982">
        <ele>171</ele>
        <time>2017-06-24T08:37:44Z</time>
      </trkpt>
      <trkpt lat="45.92961" lon="4.72978">
        <ele>171</ele>
        <time>2017-06-24T08:37:45Z</time>
      </trkpt>
      <trkpt lat="45.92965" lon="4.72973">
        <ele>171</ele>
        <time>2017-06-24T08:37:46Z</time>
      </trkpt>
      <trkpt lat="45.92969" lon="4.72968">
        <ele>171</ele>
        <time>2017-06-24T08:37:47Z</time>
      </trkpt>
      <trkpt lat="45.92974" lon="4.72963">
        <ele>171</ele>
        <time>2017-06-24T08:37:48Z</time>
      </trkpt>
      <trkpt lat="45.92978" lon="4.72958">
        <ele>171</ele>
        <time>2017-06-24T08:37:49Z</time>
      </trkpt>
      <trkpt lat="45.92982" lon="4.72953">
        <ele>171</ele>
        <time>2017-06-24T08:37:50Z</time>
      </trkpt>
      <trkpt lat="45.92987" lon="4.72947">
        <ele>171</ele>
        <time>2017-06-24T08:37:51Z</time>
      </trkpt>
      <trkpt lat="45.92992" lon="4.72941">
        <ele>171</ele>
        <time>2017-06-24T08:37:52Z</time>
      </trkpt>
      <trkpt lat="45.92997" lon="4.72935">
        <ele>171</ele>
        <time>2017-06-24T08:37:53Z</time>
      </trkpt>
      <trkpt lat="45.93002" lon="4.72929">
        <ele>170</ele>
        <time>2017-06-24T08:37:54Z</time>
      </trkpt>
      <trkpt lat="45.93007" lon="4.72924">
        <ele>170</ele>
        <time>2017-06-24T08:37:55Z</time>
      </trkpt>
      <trkpt lat="45.93012" lon="4.72918">
        <ele>170</ele>
        <time>2017-06-24T08:37:56Z</time>
      </trkpt>
      <trkpt lat="45.93017" lon="4.72912">
        <ele>171</ele>
        <time>2017-06-24T08:37:57Z</time>
      </trkpt>
      <trkpt lat="45.93022" lon="4.72906">
        <ele>172</ele>
        <time>2017-06-24T08:37:58Z</time>
      </trkpt>
      <trkpt lat="45.93027" lon="4.729">
        <ele>172</ele>
        <time>2017-06-24T08:37:59Z</time>
      </trkpt>
      <trkpt lat="45.93031" lon="4.72895">
        <ele>172</ele>
        <time>2017-06-24T08:38:00Z</time>
      </trkpt>
      <trkpt lat="45.93036" lon="4.72889">
        <ele>172</ele>
        <time>2017-06-24T08:38:01Z</time>
      </trkpt>
      <trkpt lat="45.9304" lon="4.72883">
        <ele>172</ele>
        <time>2017-06-24T08:38:02Z</time>
      </trkpt>
      <trkpt lat="45.93044" lon="4.72878">
        <ele>172</ele>
        <time>2017-06-24T08:38:03Z</time>
      </trkpt>
      <trkpt lat="45.93049" lon="4.72873">
        <ele>172</ele>
        <time>2017-06-24T08:38:04Z</time>
      </trkpt>
      <trkpt lat="45.93054" lon="4.72867">
        <ele>172</ele>
        <time>2017-06-24T08:38:05Z</time>
      </trkpt>
      <trkpt lat="45.93058" lon="4.72861">
        <ele>172</ele>
        <time>2017-06-24T08:38:06Z</time>
      </trkpt>
      <trkpt lat="45.93063" lon="4.72856">
        <ele>172</ele>
        <time>2017-06-24T08:38:07Z</time>
      </trkpt>
      <trkpt lat="45.93067" lon="4.7285">
        <ele>172</ele>
        <time>2017-06-24T08:38:08Z</time>
      </trkpt>
      <trkpt lat="45.93071" lon="4.72844">
        <ele>173</ele>
        <time>2017-06-24T08:38:09Z</time>
      </trkpt>
      <trkpt lat="45.93075" lon="4.72838">
        <ele>173</ele>
        <time>2017-06-24T08:38:10Z</time>
      </trkpt>
      <trkpt lat="45.93079" lon="4.72833">
        <ele>173</ele>
        <time>2017-06-24T08:38:11Z</time>
      </trkpt>
      <trkpt lat="45.93083" lon="4.72828">
        <ele>173</ele>
        <time>2017-06-24T08:38:12Z</time>
      </trkpt>
      <trkpt lat="45.93086" lon="4.72823">
        <ele>172</ele>
        <time>2017-06-24T08:38:13Z</time>
      </trkpt>
      <trkpt lat="45.93091" lon="4.72817">
        <ele>172</ele>
        <time>2017-06-24T08:38:14Z</time>
      </trkpt>
      <trkpt lat="45.93095" lon="4.72811">
        <ele>172</ele>
        <time>2017-06-24T08:38:15Z</time>
      </trkpt>
      <trkpt lat="45.93098" lon="4.72808">
        <ele>172</ele>
        <time>2017-06-24T08:38:16Z</time>
      </trkpt>
      <trkpt lat="45.93104" lon="4.72805">
        <ele>171</ele>
        <time>2017-06-24T08:38:17Z</time>
      </trkpt>
      <trkpt lat="45.9311" lon="4.72801">
        <ele>171</ele>
        <time>2017-06-24T08:38:18Z</time>
      </trkpt>
      <trkpt lat="45.93115" lon="4.72797">
        <ele>171</ele>
        <time>2017-06-24T08:38:19Z</time>
      </trkpt>
      <trkpt lat="45.93119" lon="4.72792">
        <ele>171</ele>
        <time>2017-06-24T08:38:20Z</time>
      </trkpt>
      <trkpt lat="45.93124" lon="4.72787">
        <ele>171</ele>
        <time>2017-06-24T08:38:21Z</time>
      </trkpt>
      <trkpt lat="45.93127" lon="4.72783">
        <ele>171</ele>
        <time>2017-06-24T08:38:22Z</time>
      </trkpt>
      <trkpt lat="45.93131" lon="4.72778">
        <ele>171</ele>
        <time>2017-06-24T08:38:23Z</time>
      </trkpt>
      <trkpt lat="45.93135" lon="4.72773">
        <ele>171</ele>
        <time>2017-06-24T08:38:24Z</time>
      </trkpt>
      <trkpt lat="45.9314" lon="4.72768">
        <ele>171</ele>
        <time>2017-06-24T08:38:25Z</time>
      </trkpt>
      <trkpt lat="45.93144" lon="4.72763">
        <ele>171</ele>
        <time>2017-06-24T08:38:26Z</time>
      </trkpt>
      <trkpt lat="45.93148" lon="4.72758">
        <ele>170</ele>
        <time>2017-06-24T08:38:27Z</time>
      </trkpt>
      <trkpt lat="45.93152" lon="4.72753">
        <ele>170</ele>
        <time>2017-06-24T08:38:28Z</time>
      </trkpt>
      <trkpt lat="45.93158" lon="4.72746">
        <ele>170</ele>
        <time>2017-06-24T08:38:29Z</time>
      </trkpt>
      <trkpt lat="45.93163" lon="4.72741">
        <ele>170</ele>
        <time>2017-06-24T08:38:30Z</time>
      </trkpt>
      <trkpt lat="45.93168" lon="4.72735">
        <ele>170</ele>
        <time>2017-06-24T08:38:31Z</time>
      </trkpt>
      <trkpt lat="45.93172" lon="4.7273">
        <ele>170</ele>
        <time>2017-06-24T08:38:32Z</time>
      </trkpt>
      <trkpt lat="45.93177" lon="4.72724">
        <ele>170</ele>
        <time>2017-06-24T08:38:33Z</time>
      </trkpt>
      <trkpt lat="45.93182" lon="4.72718">
        <ele>169</ele>
        <time>2017-06-24T08:38:34Z</time>
      </trkpt>
      <trkpt lat="45.93187" lon="4.72713">
        <ele>169</ele>
        <time>2017-06-24T08:38:35Z</time>
      </trkpt>
      <trkpt lat="45.93191" lon="4.72707">
        <ele>169</ele>
        <time>2017-06-24T08:38:36Z</time>
      </trkpt>
      <trkpt lat="45.93196" lon="4.72702">
        <ele>169</ele>
        <time>2017-06-24T08:38:37Z</time>
      </trkpt>
      <trkpt lat="45.932" lon="4.72697">
        <ele>169</ele>
        <time>2017-06-24T08:38:38Z</time>
      </trkpt>
      <trkpt lat="45.93204" lon="4.72692">
        <ele>169</ele>
        <time>2017-06-24T08:38:39Z</time>
      </trkpt>
      <trkpt lat="45.93209" lon="4.72687">
        <ele>169</ele>
        <time>2017-06-24T08:38:40Z</time>
      </trkpt>
      <trkpt lat="45.93213" lon="4.72682">
        <ele>169</ele>
        <time>2017-06-24T08:38:41Z</time>
      </trkpt>
      <trkpt lat="45.93217" lon="4.72677">
        <ele>169</ele>
        <time>2017-06-24T08:38:42Z</time>
      </trkpt>
      <trkpt lat="45.93221" lon="4.72672">
        <ele>169</ele>
        <time>2017-06-24T08:38:43Z</time>
      </trkpt>
      <trkpt lat="45.93225" lon="4.72667">
        <ele>169</ele>
        <time>2017-06-24T08:38:44Z</time>
      </trkpt>
      <trkpt lat="45.93229" lon="4.72662">
        <ele>169</ele>
        <time>2017-06-24T08:38:45Z</time>
      </trkpt>
      <trkpt lat="45.93233" lon="4.72657">
        <ele>169</ele>
        <time>2017-06-24T08:38:46Z</time>
      </trkpt>
      <trkpt lat="45.93238" lon="4.72652">
        <ele>169</ele>
        <time>2017-06-24T08:38:47Z</time>
      </trkpt>
      <trkpt lat="45.93242" lon="4.72647">
        <ele>170</ele>
        <time>2017-06-24T08:38:48Z</time>
      </trkpt>
      <trkpt lat="45.93247" lon="4.72642">
        <ele>170</ele>
        <time>2017-06-24T08:38:49Z</time>
      </trkpt>
      <trkpt lat="45.93251" lon="4.72637">
        <ele>169</ele>
        <time>2017-06-24T08:38:50Z</time>
      </trkpt>
      <trkpt lat="45.93256" lon="4.72632">
        <ele>170</ele>
        <time>2017-06-24T08:38:51Z</time>
      </trkpt>
      <trkpt lat="45.9326" lon="4.72626">
        <ele>170</ele>
        <time>2017-06-24T08:38:52Z</time>
      </trkpt>
      <trkpt lat="45.93265" lon="4.72621">
        <ele>170</ele>
        <time>2017-06-24T08:38:53Z</time>
      </trkpt>
      <trkpt lat="45.9327" lon="4.72615">
        <ele>170</ele>
        <time>2017-06-24T08:38:54Z</time>
      </trkpt>
      <trkpt lat="45.93274" lon="4.7261">
        <ele>170</ele>
        <time>2017-06-24T08:38:55Z</time>
      </trkpt>
      <trkpt lat="45.93279" lon="4.72604">
        <ele>170</ele>
        <time>2017-06-24T08:38:56Z</time>
      </trkpt>
      <trkpt lat="45.93284" lon="4.72599">
        <ele>170</ele>
        <time>2017-06-24T08:38:57Z</time>
      </trkpt>
      <trkpt lat="45.93289" lon="4.72593">
        <ele>170</ele>
        <time>2017-06-24T08:38:58Z</time>
      </trkpt>
      <trkpt lat="45.93293" lon="4.72588">
        <ele>170</ele>
        <time>2017-06-24T08:38:59Z</time>
      </trkpt>
      <trkpt lat="45.93297" lon="4.72583">
        <ele>171</ele>
        <time>2017-06-24T08:39:00Z</time>
      </trkpt>
      <trkpt lat="45.93303" lon="4.72578">
        <ele>171</ele>
        <time>2017-06-24T08:39:01Z</time>
      </trkpt>
      <trkpt lat="45.93307" lon="4.72573">
        <ele>171</ele>
        <time>2017-06-24T08:39:02Z</time>
      </trkpt>
      <trkpt lat="45.93311" lon="4.72568">
        <ele>171</ele>
        <time>2017-06-24T08:39:03Z</time>
      </trkpt>
      <trkpt lat="45.93315" lon="4.72563">
        <ele>171</ele>
        <time>2017-06-24T08:39:04Z</time>
      </trkpt>
      <trkpt lat="45.93319" lon="4.72558">
        <ele>171</ele>
        <time>2017-06-24T08:39:05Z</time>
      </trkpt>
      <trkpt lat="45.93323" lon="4.72553">
        <ele>172</ele>
        <time>2017-06-24T08:39:06Z</time>
      </trkpt>
      <trkpt lat="45.93327" lon="4.72549">
        <ele>172</ele>
        <time>2017-06-24T08:39:07Z</time>
      </trkpt>
      <trkpt lat="45.93331" lon="4.72544">
        <ele>172</ele>
        <time>2017-06-24T08:39:08Z</time>
      </trkpt>
      <trkpt lat="45.93335" lon="4.72539">
        <ele>171</ele>
        <time>2017-06-24T08:39:09Z</time>
      </trkpt>
      <trkpt lat="45.93339" lon="4.72534">
        <ele>172</ele>
        <time>2017-06-24T08:39:10Z</time>
      </trkpt>
      <trkpt lat="45.93343" lon="4.72529">
        <ele>172</ele>
        <time>2017-06-24T08:39:11Z</time>
      </trkpt>
      <trkpt lat="45.93347" lon="4.72525">
        <ele>172</ele>
        <time>2017-06-24T08:39:12Z</time>
      </trkpt>
      <trkpt lat="45.93352" lon="4.7252">
        <ele>172</ele>
        <time>2017-06-24T08:39:13Z</time>
      </trkpt>
      <trkpt lat="45.93356" lon="4.72515">
        <ele>172</ele>
        <time>2017-06-24T08:39:14Z</time>
      </trkpt>
      <trkpt lat="45.9336" lon="4.7251">
        <ele>172</ele>
        <time>2017-06-24T08:39:15Z</time>
      </trkpt>
      <trkpt lat="45.93364" lon="4.72505">
        <ele>172</ele>
        <time>2017-06-24T08:39:16Z</time>
      </trkpt>
      <trkpt lat="45.93368" lon="4.72501">
        <ele>172</ele>
        <time>2017-06-24T08:39:17Z</time>
      </trkpt>
      <trkpt lat="45.93372" lon="4.72496">
        <ele>173</ele>
        <time>2017-06-24T08:39:18Z</time>
      </trkpt>
      <trkpt lat="45.93376" lon="4.72492">
        <ele>173</ele>
        <time>2017-06-24T08:39:19Z</time>
      </trkpt>
      <trkpt lat="45.93379" lon="4.72487">
        <ele>173</ele>
        <time>2017-06-24T08:39:20Z</time>
      </trkpt>
      <trkpt lat="45.93383" lon="4.72483">
        <ele>173</ele>
        <time>2017-06-24T08:39:21Z</time>
      </trkpt>
      <trkpt lat="45.93386" lon="4.72479">
        <ele>173</ele>
        <time>2017-06-24T08:39:22Z</time>
      </trkpt>
      <trkpt lat="45.93392" lon="4.7247">
        <ele>173</ele>
        <time>2017-06-24T08:39:24Z</time>
      </trkpt>
      <trkpt lat="45.93394" lon="4.72465">
        <ele>173</ele>
        <time>2017-06-24T08:39:25Z</time>
      </trkpt>
      <trkpt lat="45.93396" lon="4.7246">
        <ele>173</ele>
        <time>2017-06-24T08:39:26Z</time>
      </trkpt>
      <trkpt lat="45.93398" lon="4.72453">
        <ele>173</ele>
        <time>2017-06-24T08:39:27Z</time>
      </trkpt>
      <trkpt lat="45.93399" lon="4.72446">
        <ele>173</ele>
        <time>2017-06-24T08:39:28Z</time>
      </trkpt>
      <trkpt lat="45.93402" lon="4.7244">
        <ele>173</ele>
        <time>2017-06-24T08:39:29Z</time>
      </trkpt>
      <trkpt lat="45.93406" lon="4.72433">
        <ele>173</ele>
        <time>2017-06-24T08:39:30Z</time>
      </trkpt>
      <trkpt lat="45.9341" lon="4.72428">
        <ele>174</ele>
        <time>2017-06-24T08:39:31Z</time>
      </trkpt>
      <trkpt lat="45.93414" lon="4.72424">
        <ele>174</ele>
        <time>2017-06-24T08:39:32Z</time>
      </trkpt>
      <trkpt lat="45.93419" lon="4.7242">
        <ele>174</ele>
        <time>2017-06-24T08:39:33Z</time>
      </trkpt>
      <trkpt lat="45.93424" lon="4.72417">
        <ele>174</ele>
        <time>2017-06-24T08:39:34Z</time>
      </trkpt>
      <trkpt lat="45.93429" lon="4.72415">
        <ele>174</ele>
        <time>2017-06-24T08:39:35Z</time>
      </trkpt>
      <trkpt lat="45.93434" lon="4.72412">
        <ele>174</ele>
        <time>2017-06-24T08:39:36Z</time>
      </trkpt>
      <trkpt lat="45.93439" lon="4.72409">
        <ele>174</ele>
        <time>2017-06-24T08:39:37Z</time>
      </trkpt>
      <trkpt lat="45.93443" lon="4.72407">
        <ele>173</ele>
        <time>2017-06-24T08:39:38Z</time>
      </trkpt>
      <trkpt lat="45.93448" lon="4.72403">
        <ele>173</ele>
        <time>2017-06-24T08:39:39Z</time>
      </trkpt>
      <trkpt lat="45.93452" lon="4.72399">
        <ele>173</ele>
        <time>2017-06-24T08:39:40Z</time>
      </trkpt>
      <trkpt lat="45.93457" lon="4.72395">
        <ele>173</ele>
        <time>2017-06-24T08:39:41Z</time>
      </trkpt>
      <trkpt lat="45.93461" lon="4.7239">
        <ele>173</ele>
        <time>2017-06-24T08:39:42Z</time>
      </trkpt>
      <trkpt lat="45.93465" lon="4.72385">
        <ele>173</ele>
        <time>2017-06-24T08:39:43Z</time>
      </trkpt>
      <trkpt lat="45.93469" lon="4.72379">
        <ele>173</ele>
        <time>2017-06-24T08:39:44Z</time>
      </trkpt>
      <trkpt lat="45.93474" lon="4.72374">
        <ele>173</ele>
        <time>2017-06-24T08:39:45Z</time>
      </trkpt>
      <trkpt lat="45.93477" lon="4.72367">
        <ele>173</ele>
        <time>2017-06-24T08:39:46Z</time>
      </trkpt>
      <trkpt lat="45.93482" lon="4.72361">
        <ele>173</ele>
        <time>2017-06-24T08:39:47Z</time>
      </trkpt>
      <trkpt lat="45.93486" lon="4.72356">
        <ele>173</ele>
        <time>2017-06-24T08:39:48Z</time>
      </trkpt>
      <trkpt lat="45.93489" lon="4.7235">
        <ele>173</ele>
        <time>2017-06-24T08:39:49Z</time>
      </trkpt>
      <trkpt lat="45.93493" lon="4.72345">
        <ele>173</ele>
        <time>2017-06-24T08:39:50Z</time>
      </trkpt>
      <trkpt lat="45.93497" lon="4.7234">
        <ele>173</ele>
        <time>2017-06-24T08:39:51Z</time>
      </trkpt>
      <trkpt lat="45.93501" lon="4.72335">
        <ele>173</ele>
        <time>2017-06-24T08:39:52Z</time>
      </trkpt>
      <trkpt lat="45.93505" lon="4.72329">
        <ele>173</ele>
        <time>2017-06-24T08:39:53Z</time>
      </trkpt>
      <trkpt lat="45.93509" lon="4.72323">
        <ele>173</ele>
        <time>2017-06-24T08:39:54Z</time>
      </trkpt>
      <trkpt lat="45.93513" lon="4.72317">
        <ele>173</ele>
        <time>2017-06-24T08:39:55Z</time>
      </trkpt>
      <trkpt lat="45.93517" lon="4.72311">
        <ele>173</ele>
        <time>2017-06-24T08:39:56Z</time>
      </trkpt>
      <trkpt lat="45.93521" lon="4.72305">
        <ele>173</ele>
        <time>2017-06-24T08:39:57Z</time>
      </trkpt>
      <trkpt lat="45.93524" lon="4.72297">
        <ele>172</ele>
        <time>2017-06-24T08:39:58Z</time>
      </trkpt>
      <trkpt lat="45.93526" lon="4.7229">
        <ele>172</ele>
        <time>2017-06-24T08:39:59Z</time>
      </trkpt>
      <trkpt lat="45.93529" lon="4.72282">
        <ele>172</ele>
        <time>2017-06-24T08:40:00Z</time>
      </trkpt>
      <trkpt lat="45.93533" lon="4.72275">
        <ele>172</ele>
        <time>2017-06-24T08:40:01Z</time>
      </trkpt>
      <trkpt lat="45.93535" lon="4.72269">
        <ele>172</ele>
        <time>2017-06-24T08:40:02Z</time>
      </trkpt>
      <trkpt lat="45.93538" lon="4.72262">
        <ele>172</ele>
        <time>2017-06-24T08:40:03Z</time>
      </trkpt>
      <trkpt lat="45.93541" lon="4.72255">
        <ele>172</ele>
        <time>2017-06-24T08:40:04Z</time>
      </trkpt>
      <trkpt lat="45.93544" lon="4.72249">
        <ele>172</ele>
        <time>2017-06-24T08:40:05Z</time>
      </trkpt>
      <trkpt lat="45.93547" lon="4.72242">
        <ele>172</ele>
        <time>2017-06-24T08:40:06Z</time>
      </trkpt>
      <trkpt lat="45.93549" lon="4.72236">
        <ele>172</ele>
        <time>2017-06-24T08:40:07Z</time>
      </trkpt>
      <trkpt lat="45.93552" lon="4.7223">
        <ele>172</ele>
        <time>2017-06-24T08:40:08Z</time>
      </trkpt>
      <trkpt lat="45.93556" lon="4.72226">
        <ele>173</ele>
        <time>2017-06-24T08:40:09Z</time>
      </trkpt>
      <trkpt lat="45.9356" lon="4.72224">
        <ele>173</ele>
        <time>2017-06-24T08:40:10Z</time>
      </trkpt>
      <trkpt lat="45.93565" lon="4.72227">
        <ele>173</ele>
        <time>2017-06-24T08:40:11Z</time>
      </trkpt>
      <trkpt lat="45.9357" lon="4.72232">
        <ele>173</ele>
        <time>2017-06-24T08:40:12Z</time>
      </trkpt>
      <trkpt lat="45.93574" lon="4.72237">
        <ele>173</ele>
        <time>2017-06-24T08:40:13Z</time>
      </trkpt>
      <trkpt lat="45.93578" lon="4.72242">
        <ele>173</ele>
        <time>2017-06-24T08:40:14Z</time>
      </trkpt>
      <trkpt lat="45.93582" lon="4.72247">
        <ele>173</ele>
        <time>2017-06-24T08:40:15Z</time>
      </trkpt>
      <trkpt lat="45.93586" lon="4.72251">
        <ele>173</ele>
        <time>2017-06-24T08:40:16Z</time>
      </trkpt>
      <trkpt lat="45.9359" lon="4.72255">
        <ele>173</ele>
        <time>2017-06-24T08:40:17Z</time>
      </trkpt>
      <trkpt lat="45.93594" lon="4.7226">
        <ele>173</ele>
        <time>2017-06-24T08:40:18Z</time>
      </trkpt>
      <trkpt lat="45.93599" lon="4.72264">
        <ele>173</ele>
        <time>2017-06-24T08:40:19Z</time>
      </trkpt>
      <trkpt lat="45.93603" lon="4.72268">
        <ele>173</ele>
        <time>2017-06-24T08:40:20Z</time>
      </trkpt>
      <trkpt lat="45.93607" lon="4.72272">
        <ele>172</ele>
        <time>2017-06-24T08:40:21Z</time>
      </trkpt>
      <trkpt lat="45.93611" lon="4.72276">
        <ele>172</ele>
        <time>2017-06-24T08:40:22Z</time>
      </trkpt>
      <trkpt lat="45.93615" lon="4.72281">
        <ele>172</ele>
        <time>2017-06-24T08:40:23Z</time>
      </trkpt>
      <trkpt lat="45.93619" lon="4.72285">
        <ele>172</ele>
        <time>2017-06-24T08:40:24Z</time>
      </trkpt>
      <trkpt lat="45.93623" lon="4.72289">
        <ele>172</ele>
        <time>2017-06-24T08:40:25Z</time>
      </trkpt>
      <trkpt lat="45.93628" lon="4.72293">
        <ele>172</ele>
        <time>2017-06-24T08:40:26Z</time>
      </trkpt>
      <trkpt lat="45.93632" lon="4.72297">
        <ele>172</ele>
        <time>2017-06-24T08:40:27Z</time>
      </trkpt>
      <trkpt lat="45.93636" lon="4.72301">
        <ele>172</ele>
        <time>2017-06-24T08:40:28Z</time>
      </trkpt>
      <trkpt lat="45.9364" lon="4.72306">
        <ele>172</ele>
        <time>2017-06-24T08:40:29Z</time>
      </trkpt>
      <trkpt lat="45.93646" lon="4.72311">
        <ele>172</ele>
        <time>2017-06-24T08:40:30Z</time>
      </trkpt>
      <trkpt lat="45.93651" lon="4.72316">
        <ele>172</ele>
        <time>2017-06-24T08:40:31Z</time>
      </trkpt>
      <trkpt lat="45.93657" lon="4.7232">
        <ele>172</ele>
        <time>2017-06-24T08:40:32Z</time>
      </trkpt>
      <trkpt lat="45.93662" lon="4.72325">
        <ele>171</ele>
        <time>2017-06-24T08:40:33Z</time>
      </trkpt>
      <trkpt lat="45.93666" lon="4.72329">
        <ele>171</ele>
        <time>2017-06-24T08:40:34Z</time>
      </trkpt>
      <trkpt lat="45.9367" lon="4.72334">
        <ele>171</ele>
        <time>2017-06-24T08:40:35Z</time>
      </trkpt>
      <trkpt lat="45.93675" lon="4.72339">
        <ele>171</ele>
        <time>2017-06-24T08:40:36Z</time>
      </trkpt>
      <trkpt lat="45.93679" lon="4.72343">
        <ele>171</ele>
        <time>2017-06-24T08:40:37Z</time>
      </trkpt>
      <trkpt lat="45.93686" lon="4.7235">
        <ele>171</ele>
        <time>2017-06-24T08:40:39Z</time>
      </trkpt>
      <trkpt lat="45.93689" lon="4.72353">
        <ele>171</ele>
        <time>2017-06-24T08:40:40Z</time>
      </trkpt>
      <trkpt lat="45.93693" lon="4.72357">
        <ele>171</ele>
        <time>2017-06-24T08:40:41Z</time>
      </trkpt>
      <trkpt lat="45.93698" lon="4.72362">
        <ele>171</ele>
        <time>2017-06-24T08:40:42Z</time>
      </trkpt>
      <trkpt lat="45.93704" lon="4.72367">
        <ele>171</ele>
        <time>2017-06-24T08:40:43Z</time>
      </trkpt>
      <trkpt lat="45.93709" lon="4.72373">
        <ele>172</ele>
        <time>2017-06-24T08:40:44Z</time>
      </trkpt>
      <trkpt lat="45.93714" lon="4.72378">
        <ele>171</ele>
        <time>2017-06-24T08:40:45Z</time>
      </trkpt>
      <trkpt lat="45.93719" lon="4.72383">
        <ele>171</ele>
        <time>2017-06-24T08:40:46Z</time>
      </trkpt>
      <trkpt lat="45.93724" lon="4.72387">
        <ele>171</ele>
        <time>2017-06-24T08:40:47Z</time>
      </trkpt>
      <trkpt lat="45.93728" lon="4.72392">
        <ele>171</ele>
        <time>2017-06-24T08:40:48Z</time>
      </trkpt>
      <trkpt lat="45.93733" lon="4.72396">
        <ele>171</ele>
        <time>2017-06-24T08:40:49Z</time>
      </trkpt>
      <trkpt lat="45.93738" lon="4.72401">
        <ele>171</ele>
        <time>2017-06-24T08:40:50Z</time>
      </trkpt>
      <trkpt lat="45.93743" lon="4.72406">
        <ele>171</ele>
        <time>2017-06-24T08:40:51Z</time>
      </trkpt>
      <trkpt lat="45.93748" lon="4.7241">
        <ele>171</ele>
        <time>2017-06-24T08:40:52Z</time>
      </trkpt>
      <trkpt lat="45.93754" lon="4.72415">
        <ele>171</ele>
        <time>2017-06-24T08:40:53Z</time>
      </trkpt>
      <trkpt lat="45.93759" lon="4.7242">
        <ele>171</ele>
        <time>2017-06-24T08:40:54Z</time>
      </trkpt>
      <trkpt lat="45.93764" lon="4.72424">
        <ele>171</ele>
        <time>2017-06-24T08:40:55Z</time>
      </trkpt>
      <trkpt lat="45.93768" lon="4.72429">
        <ele>171</ele>
        <time>2017-06-24T08:40:56Z</time>
      </trkpt>
      <trkpt lat="45.93773" lon="4.72433">
        <ele>171</ele>
        <time>2017-06-24T08:40:57Z</time>
      </trkpt>
      <trkpt lat="45.93777" lon="4.72437">
        <ele>172</ele>
        <time>2017-06-24T08:40:58Z</time>
      </trkpt>
      <trkpt lat="45.93782" lon="4.72442">
        <ele>172</ele>
        <time>2017-06-24T08:40:59Z</time>
      </trkpt>
      <trkpt lat="45.93786" lon="4.72446">
        <ele>172</ele>
        <time>2017-06-24T08:41:00Z</time>
      </trkpt>
      <trkpt lat="45.93791" lon="4.72451">
        <ele>172</ele>
        <time>2017-06-24T08:41:01Z</time>
      </trkpt>
      <trkpt lat="45.93795" lon="4.72455">
        <ele>172</ele>
        <time>2017-06-24T08:41:02Z</time>
      </trkpt>
      <trkpt lat="45.93799" lon="4.72459">
        <ele>172</ele>
        <time>2017-06-24T08:41:03Z</time>
      </trkpt>
      <trkpt lat="45.93803" lon="4.72462">
        <ele>172</ele>
        <time>2017-06-24T08:41:04Z</time>
      </trkpt>
      <trkpt lat="45.93807" lon="4.72465">
        <ele>172</ele>
        <time>2017-06-24T08:41:05Z</time>
      </trkpt>
      <trkpt lat="45.93812" lon="4.7247">
        <ele>172</ele>
        <time>2017-06-24T08:41:06Z</time>
      </trkpt>
      <trkpt lat="45.93816" lon="4.72475">
        <ele>172</ele>
        <time>2017-06-24T08:41:07Z</time>
      </trkpt>
      <trkpt lat="45.93821" lon="4.72479">
        <ele>173</ele>
        <time>2017-06-24T08:41:08Z</time>
      </trkpt>
      <trkpt lat="45.93825" lon="4.72482">
        <ele>173</ele>
        <time>2017-06-24T08:41:09Z</time>
      </trkpt>
      <trkpt lat="45.9383" lon="4.72485">
        <ele>173</ele>
        <time>2017-06-24T08:41:10Z</time>
      </trkpt>
      <trkpt lat="45.93835" lon="4.72488">
        <ele>173</ele>
        <time>2017-06-24T08:41:11Z</time>
      </trkpt>
      <trkpt lat="45.93841" lon="4.72492">
        <ele>173</ele>
        <time>2017-06-24T08:41:12Z</time>
      </trkpt>
      <trkpt lat="45.93847" lon="4.72497">
        <ele>173</ele>
        <time>2017-06-24T08:41:13Z</time>
      </trkpt>
      <trkpt lat="45.93852" lon="4.725">
        <ele>173</ele>
        <time>2017-06-24T08:41:14Z</time>
      </trkpt>
      <trkpt lat="45.93858" lon="4.72513">
        <ele>173</ele>
        <time>2017-06-24T08:41:15Z</time>
      </trkpt>
      <trkpt lat="45.93862" lon="4.72517">
        <ele>173</ele>
        <time>2017-06-24T08:41:16Z</time>
      </trkpt>
      <trkpt lat="45.93869" lon="4.72523">
        <ele>173</ele>
        <time>2017-06-24T08:41:17Z</time>
      </trkpt>
      <trkpt lat="45.93876" lon="4.72524">
        <ele>173</ele>
        <time>2017-06-24T08:41:18Z</time>
      </trkpt>
      <trkpt lat="45.9388" lon="4.72522">
        <ele>173</ele>
        <time>2017-06-24T08:41:19Z</time>
      </trkpt>
      <trkpt lat="45.93884" lon="4.72518">
        <ele>173</ele>
        <time>2017-06-24T08:41:20Z</time>
      </trkpt>
      <trkpt lat="45.93888" lon="4.72513">
        <ele>173</ele>
        <time>2017-06-24T08:41:21Z</time>
      </trkpt>
      <trkpt lat="45.93892" lon="4.72508">
        <ele>173</ele>
        <time>2017-06-24T08:41:22Z</time>
      </trkpt>
      <trkpt lat="45.93896" lon="4.72503">
        <ele>172</ele>
        <time>2017-06-24T08:41:23Z</time>
      </trkpt>
      <trkpt lat="45.93899" lon="4.72498">
        <ele>172</ele>
        <time>2017-06-24T08:41:24Z</time>
      </trkpt>
      <trkpt lat="45.93904" lon="4.72493">
        <ele>172</ele>
        <time>2017-06-24T08:41:25Z</time>
      </trkpt>
      <trkpt lat="45.93908" lon="4.72488">
        <ele>172</ele>
        <time>2017-06-24T08:41:26Z</time>
      </trkpt>
      <trkpt lat="45.93912" lon="4.72483">
        <ele>172</ele>
        <time>2017-06-24T08:41:27Z</time>
      </trkpt>
      <trkpt lat="45.93916" lon="4.72477">
        <ele>172</ele>
        <time>2017-06-24T08:41:28Z</time>
      </trkpt>
      <trkpt lat="45.9392" lon="4.72472">
        <ele>171</ele>
        <time>2017-06-24T08:41:29Z</time>
      </trkpt>
      <trkpt lat="45.93924" lon="4.72466">
        <ele>171</ele>
        <time>2017-06-24T08:41:30Z</time>
      </trkpt>
      <trkpt lat="45.93928" lon="4.72461">
        <ele>171</ele>
        <time>2017-06-24T08:41:31Z</time>
      </trkpt>
      <trkpt lat="45.93932" lon="4.72456">
        <ele>171</ele>
        <time>2017-06-24T08:41:32Z</time>
      </trkpt>
      <trkpt lat="45.93935" lon="4.72452">
        <ele>171</ele>
        <time>2017-06-24T08:41:33Z</time>
      </trkpt>
      <trkpt lat="45.93939" lon="4.72447">
        <ele>171</ele>
        <time>2017-06-24T08:41:34Z</time>
      </trkpt>
      <trkpt lat="45.93943" lon="4.72442">
        <ele>171</ele>
        <time>2017-06-24T08:41:35Z</time>
      </trkpt>
      <trkpt lat="45.93947" lon="4.72437">
        <ele>171</ele>
        <time>2017-06-24T08:41:36Z</time>
      </trkpt>
      <trkpt lat="45.93951" lon="4.72431">
        <ele>171</ele>
        <time>2017-06-24T08:41:37Z</time>
      </trkpt>
      <trkpt lat="45.93955" lon="4.72426">
        <ele>171</ele>
        <time>2017-06-24T08:41:38Z</time>
      </trkpt>
      <trkpt lat="45.93959" lon="4.72421">
        <ele>171</ele>
        <time>2017-06-24T08:41:39Z</time>
      </trkpt>
      <trkpt lat="45.93963" lon="4.72416">
        <ele>171</ele>
        <time>2017-06-24T08:41:40Z</time>
      </trkpt>
      <trkpt lat="45.93968" lon="4.72411">
        <ele>171</ele>
        <time>2017-06-24T08:41:41Z</time>
      </trkpt>
      <trkpt lat="45.93973" lon="4.72405">
        <ele>171</ele>
        <time>2017-06-24T08:41:42Z</time>
      </trkpt>
      <trkpt lat="45.93978" lon="4.724">
        <ele>171</ele>
        <time>2017-06-24T08:41:43Z</time>
      </trkpt>
      <trkpt lat="45.93982" lon="4.72394">
        <ele>171</ele>
        <time>2017-06-24T08:41:44Z</time>
      </trkpt>
      <trkpt lat="45.93987" lon="4.72388">
        <ele>171</ele>
        <time>2017-06-24T08:41:45Z</time>
      </trkpt>
      <trkpt lat="45.93992" lon="4.72382">
        <ele>171</ele>
        <time>2017-06-24T08:41:46Z</time>
      </trkpt>
      <trkpt lat="45.93997" lon="4.72376">
        <ele>171</ele>
        <time>2017-06-24T08:41:47Z</time>
      </trkpt>
      <trkpt lat="45.94002" lon="4.72371">
        <ele>171</ele>
        <time>2017-06-24T08:41:48Z</time>
      </trkpt>
      <trkpt lat="45.94006" lon="4.72365">
        <ele>171</ele>
        <time>2017-06-24T08:41:49Z</time>
      </trkpt>
      <trkpt lat="45.94011" lon="4.7236">
        <ele>171</ele>
        <time>2017-06-24T08:41:50Z</time>
      </trkpt>
      <trkpt lat="45.94014" lon="4.72354">
        <ele>171</ele>
        <time>2017-06-24T08:41:51Z</time>
      </trkpt>
      <trkpt lat="45.94018" lon="4.72348">
        <ele>171</ele>
        <time>2017-06-24T08:41:52Z</time>
      </trkpt>
      <trkpt lat="45.94022" lon="4.72343">
        <ele>171</ele>
        <time>2017-06-24T08:41:53Z</time>
      </trkpt>
      <trkpt lat="45.94026" lon="4.72338">
        <ele>171</ele>
        <time>2017-06-24T08:41:54Z</time>
      </trkpt>
      <trkpt lat="45.94031" lon="4.72333">
        <ele>171</ele>
        <time>2017-06-24T08:41:55Z</time>
      </trkpt>
      <trkpt lat="45.94034" lon="4.72328">
        <ele>171</ele>
        <time>2017-06-24T08:41:56Z</time>
      </trkpt>
      <trkpt lat="45.94038" lon="4.72322">
        <ele>171</ele>
        <time>2017-06-24T08:41:57Z</time>
      </trkpt>
      <trkpt lat="45.94043" lon="4.72317">
        <ele>171</ele>
        <time>2017-06-24T08:41:58Z</time>
      </trkpt>
      <trkpt lat="45.94047" lon="4.72311">
        <ele>171</ele>
        <time>2017-06-24T08:41:59Z</time>
      </trkpt>
      <trkpt lat="45.94051" lon="4.72306">
        <ele>171</ele>
        <time>2017-06-24T08:42:00Z</time>
      </trkpt>
      <trkpt lat="45.94055" lon="4.72301">
        <ele>171</ele>
        <time>2017-06-24T08:42:01Z</time>
      </trkpt>
      <trkpt lat="45.94059" lon="4.72295">
        <ele>171</ele>
        <time>2017-06-24T08:42:02Z</time>
      </trkpt>
      <trkpt lat="45.94063" lon="4.72291">
        <ele>171</ele>
        <time>2017-06-24T08:42:03Z</time>
      </trkpt>
      <trkpt lat="45.94067" lon="4.72286">
        <ele>171</ele>
        <time>2017-06-24T08:42:04Z</time>
      </trkpt>
      <trkpt lat="45.94071" lon="4.72282">
        <ele>171</ele>
        <time>2017-06-24T08:42:05Z</time>
      </trkpt>
      <trkpt lat="45.94075" lon="4.72277">
        <ele>171</ele>
        <time>2017-06-24T08:42:06Z</time>
      </trkpt>
      <trkpt lat="45.94079" lon="4.72273">
        <ele>171</ele>
        <time>2017-06-24T08:42:07Z</time>
      </trkpt>
      <trkpt lat="45.94084" lon="4.7227">
        <ele>171</ele>
        <time>2017-06-24T08:42:08Z</time>
      </trkpt>
      <trkpt lat="45.94089" lon="4.72267">
        <ele>171</ele>
        <time>2017-06-24T08:42:09Z</time>
      </trkpt>
      <trkpt lat="45.94095" lon="4.72267">
        <ele>171</ele>
        <time>2017-06-24T08:42:10Z</time>
      </trkpt>
      <trkpt lat="45.94101" lon="4.72267">
        <ele>171</ele>
        <time>2017-06-24T08:42:11Z</time>
      </trkpt>
      <trkpt lat="45.94107" lon="4.72267">
        <ele>171</ele>
        <time>2017-06-24T08:42:12Z</time>
      </trkpt>
      <trkpt lat="45.94112" lon="4.7227">
        <ele>171</ele>
        <time>2017-06-24T08:42:13Z</time>
      </trkpt>
      <trkpt lat="45.94118" lon="4.72272">
        <ele>171</ele>
        <time>2017-06-24T08:42:14Z</time>
      </trkpt>
      <trkpt lat="45.94123" lon="4.72274">
        <ele>171</ele>
        <time>2017-06-24T08:42:15Z</time>
      </trkpt>
      <trkpt lat="45.94128" lon="4.72278">
        <ele>171</ele>
        <time>2017-06-24T08:42:16Z</time>
      </trkpt>
      <trkpt lat="45.94133" lon="4.72281">
        <ele>171</ele>
        <time>2017-06-24T08:42:17Z</time>
      </trkpt>
      <trkpt lat="45.94139" lon="4.72284">
        <ele>171</ele>
        <time>2017-06-24T08:42:18Z</time>
      </trkpt>
      <trkpt lat="45.94144" lon="4.72286">
        <ele>171</ele>
        <time>2017-06-24T08:42:19Z</time>
      </trkpt>
      <trkpt lat="45.9415" lon="4.72288">
        <ele>171</ele>
        <time>2017-06-24T08:42:20Z</time>
      </trkpt>
      <trkpt lat="45.94155" lon="4.7229">
        <ele>171</ele>
        <time>2017-06-24T08:42:21Z</time>
      </trkpt>
      <trkpt lat="45.94161" lon="4.7229">
        <ele>171</ele>
        <time>2017-06-24T08:42:22Z</time>
      </trkpt>
      <trkpt lat="45.94166" lon="4.72291">
        <ele>171</ele>
        <time>2017-06-24T08:42:23Z</time>
      </trkpt>
      <trkpt lat="45.94171" lon="4.72291">
        <ele>171</ele>
        <time>2017-06-24T08:42:24Z</time>
      </trkpt>
      <trkpt lat="45.94175" lon="4.72292">
        <ele>171</ele>
        <time>2017-06-24T08:42:25Z</time>
      </trkpt>
      <trkpt lat="45.9418" lon="4.72292">
        <ele>171</ele>
        <time>2017-06-24T08:42:26Z</time>
      </trkpt>
      <trkpt lat="45.94185" lon="4.72292">
        <ele>171</ele>
        <time>2017-06-24T08:42:27Z</time>
      </trkpt>
      <trkpt lat="45.9419" lon="4.72292">
        <ele>171</ele>
        <time>2017-06-24T08:42:28Z</time>
      </trkpt>
      <trkpt lat="45.94195" lon="4.72292">
        <ele>171</ele>
        <time>2017-06-24T08:42:29Z</time>
      </trkpt>
      <trkpt lat="45.942" lon="4.72292">
        <ele>171</ele>
        <time>2017-06-24T08:42:30Z</time>
      </trkpt>
      <trkpt lat="45.94205" lon="4.72292">
        <ele>171</ele>
        <time>2017-06-24T08:42:31Z</time>
      </trkpt>
      <trkpt lat="45.9421" lon="4.72292">
        <ele>171</ele>
        <time>2017-06-24T08:42:32Z</time>
      </trkpt>
      <trkpt lat="45.94215" lon="4.72291">
        <ele>171</ele>
        <time>2017-06-24T08:42:33Z</time>
      </trkpt>
      <trkpt lat="45.9422" lon="4.7229">
        <ele>171</ele>
        <time>2017-06-24T08:42:34Z</time>
      </trkpt>
      <trkpt lat="45.94225" lon="4.7229">
        <ele>171</ele>
        <time>2017-06-24T08:42:35Z</time>
      </trkpt>
      <trkpt lat="45.94231" lon="4.72289">
        <ele>171</ele>
        <time>2017-06-24T08:42:36Z</time>
      </trkpt>
      <trkpt lat="45.94236" lon="4.72288">
        <ele>171</ele>
        <time>2017-06-24T08:42:37Z</time>
      </trkpt>
      <trkpt lat="45.94244" lon="4.72285">
        <ele>171</ele>
        <time>2017-06-24T08:42:39Z</time>
      </trkpt>
      <trkpt lat="45.94248" lon="4.72284">
        <ele>171</ele>
        <time>2017-06-24T08:42:40Z</time>
      </trkpt>
      <trkpt lat="45.94256" lon="4.72281">
        <ele>171</ele>
        <time>2017-06-24T08:42:42Z</time>
      </trkpt>
      <trkpt lat="45.9426" lon="4.72279">
        <ele>171</ele>
        <time>2017-06-24T08:42:43Z</time>
      </trkpt>
      <trkpt lat="45.94268" lon="4.72277">
        <ele>171</ele>
        <time>2017-06-24T08:42:45Z</time>
      </trkpt>
      <trkpt lat="45.94271" lon="4.72277">
        <ele>171</ele>
        <time>2017-06-24T08:42:46Z</time>
      </trkpt>
      <trkpt lat="45.94277" lon="4.72282">
        <ele>171</ele>
        <time>2017-06-24T08:42:48Z</time>
      </trkpt>
      <trkpt lat="45.94279" lon="4.72288">
        <ele>171</ele>
        <time>2017-06-24T08:42:49Z</time>
      </trkpt>
      <trkpt lat="45.94281" lon="4.72294">
        <ele>171</ele>
        <time>2017-06-24T08:42:50Z</time>
      </trkpt>
      <trkpt lat="45.94284" lon="4.723">
        <ele>171</ele>
        <time>2017-06-24T08:42:51Z</time>
      </trkpt>
      <trkpt lat="45.94287" lon="4.72307">
        <ele>171</ele>
        <time>2017-06-24T08:42:52Z</time>
      </trkpt>
      <trkpt lat="45.9429" lon="4.72314">
        <ele>171</ele>
        <time>2017-06-24T08:42:53Z</time>
      </trkpt>
      <trkpt lat="45.94293" lon="4.7232">
        <ele>171</ele>
        <time>2017-06-24T08:42:54Z</time>
      </trkpt>
      <trkpt lat="45.94296" lon="4.72327">
        <ele>171</ele>
        <time>2017-06-24T08:42:55Z</time>
      </trkpt>
      <trkpt lat="45.94299" lon="4.72333">
        <ele>171</ele>
        <time>2017-06-24T08:42:56Z</time>
      </trkpt>
      <trkpt lat="45.94302" lon="4.7234">
        <ele>172</ele>
        <time>2017-06-24T08:42:57Z</time>
      </trkpt>
      <trkpt lat="45.94305" lon="4.72346">
        <ele>172</ele>
        <time>2017-06-24T08:42:58Z</time>
      </trkpt>
      <trkpt lat="45.94308" lon="4.72352">
        <ele>172</ele>
        <time>2017-06-24T08:42:59Z</time>
      </trkpt>
      <trkpt lat="45.9431" lon="4.72358">
        <ele>172</ele>
        <time>2017-06-24T08:43:00Z</time>
      </trkpt>
      <trkpt lat="45.94313" lon="4.72363">
        <ele>172</ele>
        <time>2017-06-24T08:43:01Z</time>
      </trkpt>
      <trkpt lat="45.94315" lon="4.72369">
        <ele>172</ele>
        <time>2017-06-24T08:43:02Z</time>
      </trkpt>
      <trkpt lat="45.94318" lon="4.72375">
        <ele>172</ele>
        <time>2017-06-24T08:43:03Z</time>
      </trkpt>
      <trkpt lat="45.9432" lon="4.72381">
        <ele>172</ele>
        <time>2017-06-24T08:43:04Z</time>
      </trkpt>
      <trkpt lat="45.94323" lon="4.72387">
        <ele>172</ele>
        <time>2017-06-24T08:43:05Z</time>
      </trkpt>
      <trkpt lat="45.94326" lon="4.72394">
        <ele>172</ele>
        <time>2017-06-24T08:43:06Z</time>
      </trkpt>
      <trkpt lat="45.9433" lon="4.72402">
        <ele>173</ele>
        <time>2017-06-24T08:43:07Z</time>
      </trkpt>
      <trkpt lat="45.94334" lon="4.72409">
        <ele>173</ele>
        <time>2017-06-24T08:43:08Z</time>
      </trkpt>
      <trkpt lat="45.94337" lon="4.72416">
        <ele>173</ele>
        <time>2017-06-24T08:43:09Z</time>
      </trkpt>
      <trkpt lat="45.9434" lon="4.72423">
        <ele>173</ele>
        <time>2017-06-24T08:43:10Z</time>
      </trkpt>
      <trkpt lat="45.94342" lon="4.72429">
        <ele>173</ele>
        <time>2017-06-24T08:43:11Z</time>
      </trkpt>
      <trkpt lat="45.94345" lon="4.72435">
        <ele>173</ele>
        <time>2017-06-24T08:43:12Z</time>
      </trkpt>
      <trkpt lat="45.94348" lon="4.72442">
        <ele>173</ele>
        <time>2017-06-24T08:43:13Z</time>
      </trkpt>
      <trkpt lat="45.94351" lon="4.72448">
        <ele>173</ele>
        <time>2017-06-24T08:43:14Z</time>
      </trkpt>
      <trkpt lat="45.94353" lon="4.72454">
        <ele>173</ele>
        <time>2017-06-24T08:43:15Z</time>
      </trkpt>
      <trkpt lat="45.94356" lon="4.7246">
        <ele>173</ele>
        <time>2017-06-24T08:43:16Z</time>
      </trkpt>
      <trkpt lat="45.94358" lon="4.72466">
        <ele>173</ele>
        <time>2017-06-24T08:43:17Z</time>
      </trkpt>
      <trkpt lat="45.9436" lon="4.72472">
        <ele>173</ele>
        <time>2017-06-24T08:43:18Z</time>
      </trkpt>
      <trkpt lat="45.94363" lon="4.72478">
        <ele>173</ele>
        <time>2017-06-24T08:43:19Z</time>
      </trkpt>
      <trkpt lat="45.94365" lon="4.72484">
        <ele>173</ele>
        <time>2017-06-24T08:43:20Z</time>
      </trkpt>
      <trkpt lat="45.94368" lon="4.7249">
        <ele>173</ele>
        <time>2017-06-24T08:43:21Z</time>
      </trkpt>
      <trkpt lat="45.94371" lon="4.72497">
        <ele>173</ele>
        <time>2017-06-24T08:43:22Z</time>
      </trkpt>
      <trkpt lat="45.94373" lon="4.72505">
        <ele>173</ele>
        <time>2017-06-24T08:43:23Z</time>
      </trkpt>
      <trkpt lat="45.94375" lon="4.72512">
        <ele>173</ele>
        <time>2017-06-24T08:43:24Z</time>
      </trkpt>
      <trkpt lat="45.94377" lon="4.72519">
        <ele>174</ele>
        <time>2017-06-24T08:43:25Z</time>
      </trkpt>
      <trkpt lat="45.94379" lon="4.72527">
        <ele>174</ele>
        <time>2017-06-24T08:43:26Z</time>
      </trkpt>
      <trkpt lat="45.94381" lon="4.72535">
        <ele>174</ele>
        <time>2017-06-24T08:43:27Z</time>
      </trkpt>
      <trkpt lat="45.94383" lon="4.72542">
        <ele>173</ele>
        <time>2017-06-24T08:43:28Z</time>
      </trkpt>
      <trkpt lat="45.94385" lon="4.7255">
        <ele>173</ele>
        <time>2017-06-24T08:43:29Z</time>
      </trkpt>
      <trkpt lat="45.94386" lon="4.72557">
        <ele>173</ele>
        <time>2017-06-24T08:43:30Z</time>
      </trkpt>
      <trkpt lat="45.94387" lon="4.72565">
        <ele>173</ele>
        <time>2017-06-24T08:43:31Z</time>
      </trkpt>
      <trkpt lat="45.94389" lon="4.72572">
        <ele>173</ele>
        <time>2017-06-24T08:43:32Z</time>
      </trkpt>
      <trkpt lat="45.9439" lon="4.72579">
        <ele>173</ele>
        <time>2017-06-24T08:43:33Z</time>
      </trkpt>
      <trkpt lat="45.94391" lon="4.72586">
        <ele>173</ele>
        <time>2017-06-24T08:43:34Z</time>
      </trkpt>
      <trkpt lat="45.94392" lon="4.72593">
        <ele>173</ele>
        <time>2017-06-24T08:43:35Z</time>
      </trkpt>
      <trkpt lat="45.94393" lon="4.72601">
        <ele>173</ele>
        <time>2017-06-24T08:43:36Z</time>
      </trkpt>
      <trkpt lat="45.94394" lon="4.72608">
        <ele>173</ele>
        <time>2017-06-24T08:43:37Z</time>
      </trkpt>
      <trkpt lat="45.94396" lon="4.72617">
        <ele>173</ele>
        <time>2017-06-24T08:43:38Z</time>
      </trkpt>
      <trkpt lat="45.94397" lon="4.72625">
        <ele>174</ele>
        <time>2017-06-24T08:43:39Z</time>
      </trkpt>
      <trkpt lat="45.94398" lon="4.72634">
        <ele>174</ele>
        <time>2017-06-24T08:43:40Z</time>
      </trkpt>
      <trkpt lat="45.944" lon="4.72642">
        <ele>174</ele>
        <time>2017-06-24T08:43:41Z</time>
      </trkpt>
      <trkpt lat="45.94401" lon="4.7265">
        <ele>174</ele>
        <time>2017-06-24T08:43:42Z</time>
      </trkpt>
      <trkpt lat="45.94402" lon="4.72658">
        <ele>174</ele>
        <time>2017-06-24T08:43:43Z</time>
      </trkpt>
      <trkpt lat="45.94403" lon="4.72666">
        <ele>174</ele>
        <time>2017-06-24T08:43:44Z</time>
      </trkpt>
      <trkpt lat="45.94404" lon="4.72673">
        <ele>173</ele>
        <time>2017-06-24T08:43:45Z</time>
      </trkpt>
      <trkpt lat="45.94405" lon="4.7268">
        <ele>173</ele>
        <time>2017-06-24T08:43:46Z</time>
      </trkpt>
      <trkpt lat="45.94407" lon="4.72688">
        <ele>173</ele>
        <time>2017-06-24T08:43:47Z</time>
      </trkpt>
      <trkpt lat="45.94408" lon="4.72695">
        <ele>173</ele>
        <time>2017-06-24T08:43:48Z</time>
      </trkpt>
      <trkpt lat="45.94409" lon="4.72703">
        <ele>172</ele>
        <time>2017-06-24T08:43:49Z</time>
      </trkpt>
      <trkpt lat="45.9441" lon="4.72711">
        <ele>172</ele>
        <time>2017-06-24T08:43:50Z</time>
      </trkpt>
      <trkpt lat="45.94411" lon="4.72719">
        <ele>172</ele>
        <time>2017-06-24T08:43:51Z</time>
      </trkpt>
      <trkpt lat="45.94412" lon="4.72727">
        <ele>172</ele>
        <time>2017-06-24T08:43:52Z</time>
      </trkpt>
      <trkpt lat="45.94412" lon="4.72734">
        <ele>172</ele>
        <time>2017-06-24T08:43:53Z</time>
      </trkpt>
      <trkpt lat="45.94413" lon="4.72742">
        <ele>171</ele>
        <time>2017-06-24T08:43:54Z</time>
      </trkpt>
      <trkpt lat="45.94414" lon="4.72749">
        <ele>171</ele>
        <time>2017-06-24T08:43:55Z</time>
      </trkpt>
      <trkpt lat="45.94415" lon="4.72755">
        <ele>170</ele>
        <time>2017-06-24T08:43:56Z</time>
      </trkpt>
      <trkpt lat="45.94416" lon="4.72762">
        <ele>170</ele>
        <time>2017-06-24T08:43:57Z</time>
      </trkpt>
      <trkpt lat="45.94417" lon="4.72768">
        <ele>169</ele>
        <time>2017-06-24T08:43:58Z</time>
      </trkpt>
      <trkpt lat="45.94419" lon="4.72775">
        <ele>169</ele>
        <time>2017-06-24T08:43:59Z</time>
      </trkpt>
      <trkpt lat="45.9442" lon="4.72781">
        <ele>168</ele>
        <time>2017-06-24T08:44:00Z</time>
      </trkpt>
      <trkpt lat="45.94421" lon="4.72788">
        <ele>168</ele>
        <time>2017-06-24T08:44:01Z</time>
      </trkpt>
      <trkpt lat="45.94422" lon="4.72795">
        <ele>168</ele>
        <time>2017-06-24T08:44:02Z</time>
      </trkpt>
      <trkpt lat="45.94423" lon="4.72801">
        <ele>167</ele>
        <time>2017-06-24T08:44:03Z</time>
      </trkpt>
      <trkpt lat="45.94424" lon="4.72808">
        <ele>167</ele>
        <time>2017-06-24T08:44:04Z</time>
      </trkpt>
      <trkpt lat="45.94425" lon="4.72815">
        <ele>167</ele>
        <time>2017-06-24T08:44:05Z</time>
      </trkpt>
      <trkpt lat="45.94425" lon="4.72821">
        <ele>167</ele>
        <time>2017-06-24T08:44:06Z</time>
      </trkpt>
      <trkpt lat="45.94426" lon="4.72827">
        <ele>167</ele>
        <time>2017-06-24T08:44:07Z</time>
      </trkpt>
      <trkpt lat="45.94427" lon="4.72834">
        <ele>166</ele>
        <time>2017-06-24T08:44:08Z</time>
      </trkpt>
      <trkpt lat="45.94428" lon="4.72841">
        <ele>166</ele>
        <time>2017-06-24T08:44:09Z</time>
      </trkpt>
      <trkpt lat="45.94428" lon="4.72848">
        <ele>166</ele>
        <time>2017-06-24T08:44:10Z</time>
      </trkpt>
      <trkpt lat="45.94429" lon="4.72854">
        <ele>166</ele>
        <time>2017-06-24T08:44:11Z</time>
      </trkpt>
      <trkpt lat="45.9443" lon="4.72861">
        <ele>166</ele>
        <time>2017-06-24T08:44:12Z</time>
      </trkpt>
      <trkpt lat="45.94431" lon="4.72867">
        <ele>166</ele>
        <time>2017-06-24T08:44:13Z</time>
      </trkpt>
      <trkpt lat="45.94433" lon="4.72879">
        <ele>166</ele>
        <time>2017-06-24T08:44:15Z</time>
      </trkpt>
      <trkpt lat="45.94434" lon="4.72885">
        <ele>166</ele>
        <time>2017-06-24T08:44:16Z</time>
      </trkpt>
      <trkpt lat="45.94435" lon="4.72895">
        <ele>166</ele>
        <time>2017-06-24T08:44:18Z</time>
      </trkpt>
      <trkpt lat="45.94435" lon="4.72901">
        <ele>166</ele>
        <time>2017-06-24T08:44:19Z</time>
      </trkpt>
      <trkpt lat="45.94437" lon="4.72913">
        <ele>166</ele>
        <time>2017-06-24T08:44:21Z</time>
      </trkpt>
      <trkpt lat="45.94438" lon="4.72919">
        <ele>167</ele>
        <time>2017-06-24T08:44:22Z</time>
      </trkpt>
      <trkpt lat="45.9444" lon="4.7293">
        <ele>167</ele>
        <time>2017-06-24T08:44:24Z</time>
      </trkpt>
      <trkpt lat="45.94441" lon="4.72936">
        <ele>167</ele>
        <time>2017-06-24T08:44:25Z</time>
      </trkpt>
      <trkpt lat="45.94442" lon="4.72949">
        <ele>167</ele>
        <time>2017-06-24T08:44:27Z</time>
      </trkpt>
      <trkpt lat="45.94443" lon="4.72955">
        <ele>167</ele>
        <time>2017-06-24T08:44:28Z</time>
      </trkpt>
      <trkpt lat="45.94444" lon="4.72962">
        <ele>167</ele>
        <time>2017-06-24T08:44:29Z</time>
      </trkpt>
      <trkpt lat="45.94444" lon="4.72969">
        <ele>167</ele>
        <time>2017-06-24T08:44:30Z</time>
      </trkpt>
      <trkpt lat="45.94445" lon="4.72976">
        <ele>167</ele>
        <time>2017-06-24T08:44:31Z</time>
      </trkpt>
      <trkpt lat="45.94446" lon="4.72984">
        <ele>167</ele>
        <time>2017-06-24T08:44:32Z</time>
      </trkpt>
      <trkpt lat="45.94447" lon="4.72992">
        <ele>167</ele>
        <time>2017-06-24T08:44:33Z</time>
      </trkpt>
      <trkpt lat="45.94448" lon="4.73">
        <ele>167</ele>
        <time>2017-06-24T08:44:34Z</time>
      </trkpt>
      <trkpt lat="45.9445" lon="4.73008">
        <ele>169</ele>
        <time>2017-06-24T08:44:35Z</time>
      </trkpt>
      <trkpt lat="45.94451" lon="4.73016">
        <ele>169</ele>
        <time>2017-06-24T08:44:36Z</time>
      </trkpt>
      <trkpt lat="45.94452" lon="4.73024">
        <ele>169</ele>
        <time>2017-06-24T08:44:37Z</time>
      </trkpt>
      <trkpt lat="45.94453" lon="4.73033">
        <ele>169</ele>
        <time>2017-06-24T08:44:38Z</time>
      </trkpt>
      <trkpt lat="45.94454" lon="4.73042">
        <ele>169</ele>
        <time>2017-06-24T08:44:39Z</time>
      </trkpt>
      <trkpt lat="45.94456" lon="4.73052">
        <ele>170</ele>
        <time>2017-06-24T08:44:40Z</time>
      </trkpt>
      <trkpt lat="45.94457" lon="4.73061">
        <ele>170</ele>
        <time>2017-06-24T08:44:41Z</time>
      </trkpt>
      <trkpt lat="45.94458" lon="4.7307">
        <ele>170</ele>
        <time>2017-06-24T08:44:42Z</time>
      </trkpt>
      <trkpt lat="45.94459" lon="4.73079">
        <ele>170</ele>
        <time>2017-06-24T08:44:43Z</time>
      </trkpt>
      <trkpt lat="45.94461" lon="4.73088">
        <ele>171</ele>
        <time>2017-06-24T08:44:44Z</time>
      </trkpt>
      <trkpt lat="45.94461" lon="4.73097">
        <ele>171</ele>
        <time>2017-06-24T08:44:45Z</time>
      </trkpt>
      <trkpt lat="45.94462" lon="4.73106">
        <ele>172</ele>
        <time>2017-06-24T08:44:46Z</time>
      </trkpt>
      <trkpt lat="45.94463" lon="4.73114">
        <ele>172</ele>
        <time>2017-06-24T08:44:47Z</time>
      </trkpt>
      <trkpt lat="45.94464" lon="4.73121">
        <ele>172</ele>
        <time>2017-06-24T08:44:48Z</time>
      </trkpt>
      <trkpt lat="45.94464" lon="4.73129">
        <ele>172</ele>
        <time>2017-06-24T08:44:49Z</time>
      </trkpt>
      <trkpt lat="45.94466" lon="4.73137">
        <ele>172</ele>
        <time>2017-06-24T08:44:50Z</time>
      </trkpt>
      <trkpt lat="45.94467" lon="4.73143">
        <ele>172</ele>
        <time>2017-06-24T08:44:51Z</time>
      </trkpt>
      <trkpt lat="45.94468" lon="4.7315">
        <ele>172</ele>
        <time>2017-06-24T08:44:52Z</time>
      </trkpt>
      <trkpt lat="45.94469" lon="4.73158">
        <ele>172</ele>
        <time>2017-06-24T08:44:53Z</time>
      </trkpt>
      <trkpt lat="45.94471" lon="4.73165">
        <ele>172</ele>
        <time>2017-06-24T08:44:54Z</time>
      </trkpt>
      <trkpt lat="45.94472" lon="4.73171">
        <ele>174</ele>
        <time>2017-06-24T08:44:55Z</time>
      </trkpt>
      <trkpt lat="45.94472" lon="4.73178">
        <ele>174</ele>
        <time>2017-06-24T08:44:56Z</time>
      </trkpt>
      <trkpt lat="45.94473" lon="4.73186">
        <ele>174</ele>
        <time>2017-06-24T08:44:57Z</time>
      </trkpt>
      <trkpt lat="45.94474" lon="4.73194">
        <ele>174</ele>
        <time>2017-06-24T08:44:58Z</time>
      </trkpt>
      <trkpt lat="45.94475" lon="4.732">
        <ele>174</ele>
        <time>2017-06-24T08:44:59Z</time>
      </trkpt>
      <trkpt lat="45.94476" lon="4.73207">
        <ele>175</ele>
        <time>2017-06-24T08:45:00Z</time>
      </trkpt>
      <trkpt lat="45.94477" lon="4.73213">
        <ele>175</ele>
        <time>2017-06-24T08:45:01Z</time>
      </trkpt>
      <trkpt lat="45.94478" lon="4.7322">
        <ele>175</ele>
        <time>2017-06-24T08:45:02Z</time>
      </trkpt>
      <trkpt lat="45.9448" lon="4.73232">
        <ele>175</ele>
        <time>2017-06-24T08:45:04Z</time>
      </trkpt>
      <trkpt lat="45.9448" lon="4.73238">
        <ele>175</ele>
        <time>2017-06-24T08:45:05Z</time>
      </trkpt>
      <trkpt lat="45.94482" lon="4.73249">
        <ele>175</ele>
        <time>2017-06-24T08:45:07Z</time>
      </trkpt>
      <trkpt lat="45.94483" lon="4.73255">
        <ele>176</ele>
        <time>2017-06-24T08:45:08Z</time>
      </trkpt>
      <trkpt lat="45.94484" lon="4.73261">
        <ele>176</ele>
        <time>2017-06-24T08:45:09Z</time>
      </trkpt>
      <trkpt lat="45.94486" lon="4.73268">
        <ele>177</ele>
        <time>2017-06-24T08:45:10Z</time>
      </trkpt>
      <trkpt lat="45.94488" lon="4.7328">
        <ele>177</ele>
        <time>2017-06-24T08:45:12Z</time>
      </trkpt>
      <trkpt lat="45.94489" lon="4.73285">
        <ele>177</ele>
        <time>2017-06-24T08:45:13Z</time>
      </trkpt>
      <trkpt lat="45.9449" lon="4.73297">
        <ele>177</ele>
        <time>2017-06-24T08:45:15Z</time>
      </trkpt>
      <trkpt lat="45.9449" lon="4.73303">
        <ele>177</ele>
        <time>2017-06-24T08:45:16Z</time>
      </trkpt>
      <trkpt lat="45.94491" lon="4.73316">
        <ele>177</ele>
        <time>2017-06-24T08:45:18Z</time>
      </trkpt>
      <trkpt lat="45.94491" lon="4.73322">
        <ele>177</ele>
        <time>2017-06-24T08:45:19Z</time>
      </trkpt>
      <trkpt lat="45.94491" lon="4.73334">
        <ele>178</ele>
        <time>2017-06-24T08:45:21Z</time>
      </trkpt>
      <trkpt lat="45.94491" lon="4.7334">
        <ele>178</ele>
        <time>2017-06-24T08:45:22Z</time>
      </trkpt>
      <trkpt lat="45.94491" lon="4.73347">
        <ele>178</ele>
        <time>2017-06-24T08:45:23Z</time>
      </trkpt>
      <trkpt lat="45.94492" lon="4.73354">
        <ele>178</ele>
        <time>2017-06-24T08:45:24Z</time>
      </trkpt>
      <trkpt lat="45.94493" lon="4.7336">
        <ele>179</ele>
        <time>2017-06-24T08:45:25Z</time>
      </trkpt>
      <trkpt lat="45.94494" lon="4.73367">
        <ele>179</ele>
        <time>2017-06-24T08:45:26Z</time>
      </trkpt>
      <trkpt lat="45.94495" lon="4.73374">
        <ele>179</ele>
        <time>2017-06-24T08:45:27Z</time>
      </trkpt>
      <trkpt lat="45.94495" lon="4.7338">
        <ele>179</ele>
        <time>2017-06-24T08:45:28Z</time>
      </trkpt>
      <trkpt lat="45.94496" lon="4.73392">
        <ele>179</ele>
        <time>2017-06-24T08:45:30Z</time>
      </trkpt>
      <trkpt lat="45.94497" lon="4.73398">
        <ele>180</ele>
        <time>2017-06-24T08:45:31Z</time>
      </trkpt>
      <trkpt lat="45.94498" lon="4.73411">
        <ele>180</ele>
        <time>2017-06-24T08:45:33Z</time>
      </trkpt>
      <trkpt lat="45.94498" lon="4.73417">
        <ele>180</ele>
        <time>2017-06-24T08:45:34Z</time>
      </trkpt>
      <trkpt lat="45.94498" lon="4.7343">
        <ele>181</ele>
        <time>2017-06-24T08:45:36Z</time>
      </trkpt>
      <trkpt lat="45.94499" lon="4.73436">
        <ele>181</ele>
        <time>2017-06-24T08:45:37Z</time>
      </trkpt>
      <trkpt lat="45.94499" lon="4.73449">
        <ele>182</ele>
        <time>2017-06-24T08:45:39Z</time>
      </trkpt>
      <trkpt lat="45.94499" lon="4.73454">
        <ele>182</ele>
        <time>2017-06-24T08:45:40Z</time>
      </trkpt>
      <trkpt lat="45.945" lon="4.73466">
        <ele>181</ele>
        <time>2017-06-24T08:45:42Z</time>
      </trkpt>
      <trkpt lat="45.94501" lon="4.73472">
        <ele>182</ele>
        <time>2017-06-24T08:45:43Z</time>
      </trkpt>
      <trkpt lat="45.94503" lon="4.73484">
        <ele>182</ele>
        <time>2017-06-24T08:45:45Z</time>
      </trkpt>
      <trkpt lat="45.94503" lon="4.7349">
        <ele>182</ele>
        <time>2017-06-24T08:45:46Z</time>
      </trkpt>
      <trkpt lat="45.94503" lon="4.73497">
        <ele>183</ele>
        <time>2017-06-24T08:45:47Z</time>
      </trkpt>
      <trkpt lat="45.94502" lon="4.73504">
        <ele>183</ele>
        <time>2017-06-24T08:45:48Z</time>
      </trkpt>
      <trkpt lat="45.94502" lon="4.73516">
        <ele>183</ele>
        <time>2017-06-24T08:45:50Z</time>
      </trkpt>
      <trkpt lat="45.94501" lon="4.73521">
        <ele>183</ele>
        <time>2017-06-24T08:45:51Z</time>
      </trkpt>
      <trkpt lat="45.94501" lon="4.73533">
        <ele>183</ele>
        <time>2017-06-24T08:45:53Z</time>
      </trkpt>
      <trkpt lat="45.94501" lon="4.73539">
        <ele>183</ele>
        <time>2017-06-24T08:45:54Z</time>
      </trkpt>
      <trkpt lat="45.94501" lon="4.73551">
        <ele>183</ele>
        <time>2017-06-24T08:45:56Z</time>
      </trkpt>
      <trkpt lat="45.94501" lon="4.73557">
        <ele>184</ele>
        <time>2017-06-24T08:45:57Z</time>
      </trkpt>
      <trkpt lat="45.94499" lon="4.7357">
        <ele>185</ele>
        <time>2017-06-24T08:45:59Z</time>
      </trkpt>
      <trkpt lat="45.94499" lon="4.73576">
        <ele>185</ele>
        <time>2017-06-24T08:46:00Z</time>
      </trkpt>
      <trkpt lat="45.94499" lon="4.73582">
        <ele>185</ele>
        <time>2017-06-24T08:46:01Z</time>
      </trkpt>
      <trkpt lat="45.94499" lon="4.73589">
        <ele>185</ele>
        <time>2017-06-24T08:46:02Z</time>
      </trkpt>
      <trkpt lat="45.94498" lon="4.73601">
        <ele>185</ele>
        <time>2017-06-24T08:46:04Z</time>
      </trkpt>
      <trkpt lat="45.94498" lon="4.73608">
        <ele>186</ele>
        <time>2017-06-24T08:46:05Z</time>
      </trkpt>
      <trkpt lat="45.94498" lon="4.73615">
        <ele>186</ele>
        <time>2017-06-24T08:46:06Z</time>
      </trkpt>
      <trkpt lat="45.94497" lon="4.73621">
        <ele>186</ele>
        <time>2017-06-24T08:46:07Z</time>
      </trkpt>
      <trkpt lat="45.94496" lon="4.73634">
        <ele>186</ele>
        <time>2017-06-24T08:46:09Z</time>
      </trkpt>
      <trkpt lat="45.94495" lon="4.7364">
        <ele>186</ele>
        <time>2017-06-24T08:46:10Z</time>
      </trkpt>
      <trkpt lat="45.94494" lon="4.73647">
        <ele>186</ele>
        <time>2017-06-24T08:46:11Z</time>
      </trkpt>
      <trkpt lat="45.94494" lon="4.73653">
        <ele>185</ele>
        <time>2017-06-24T08:46:12Z</time>
      </trkpt>
      <trkpt lat="45.94492" lon="4.73661">
        <ele>185</ele>
        <time>2017-06-24T08:46:13Z</time>
      </trkpt>
      <trkpt lat="45.94491" lon="4.73668">
        <ele>185</ele>
        <time>2017-06-24T08:46:14Z</time>
      </trkpt>
      <trkpt lat="45.9449" lon="4.73675">
        <ele>185</ele>
        <time>2017-06-24T08:46:15Z</time>
      </trkpt>
      <trkpt lat="45.94489" lon="4.73682">
        <ele>186</ele>
        <time>2017-06-24T08:46:16Z</time>
      </trkpt>
      <trkpt lat="45.94489" lon="4.73689">
        <ele>186</ele>
        <time>2017-06-24T08:46:17Z</time>
      </trkpt>
      <trkpt lat="45.94488" lon="4.73696">
        <ele>186</ele>
        <time>2017-06-24T08:46:18Z</time>
      </trkpt>
      <trkpt lat="45.94488" lon="4.73703">
        <ele>186</ele>
        <time>2017-06-24T08:46:19Z</time>
      </trkpt>
      <trkpt lat="45.94487" lon="4.73711">
        <ele>186</ele>
        <time>2017-06-24T08:46:20Z</time>
      </trkpt>
      <trkpt lat="45.94486" lon="4.73718">
        <ele>186</ele>
        <time>2017-06-24T08:46:21Z</time>
      </trkpt>
      <trkpt lat="45.94485" lon="4.73725">
        <ele>186</ele>
        <time>2017-06-24T08:46:22Z</time>
      </trkpt>
      <trkpt lat="45.94484" lon="4.73732">
        <ele>186</ele>
        <time>2017-06-24T08:46:23Z</time>
      </trkpt>
      <trkpt lat="45.94483" lon="4.73738">
        <ele>186</ele>
        <time>2017-06-24T08:46:24Z</time>
      </trkpt>
      <trkpt lat="45.94482" lon="4.73745">
        <ele>186</ele>
        <time>2017-06-24T08:46:25Z</time>
      </trkpt>
      <trkpt lat="45.9448" lon="4.7375">
        <ele>186</ele>
        <time>2017-06-24T08:46:26Z</time>
      </trkpt>
      <trkpt lat="45.94477" lon="4.73761">
        <ele>186</ele>
        <time>2017-06-24T08:46:28Z</time>
      </trkpt>
      <trkpt lat="45.94476" lon="4.73767">
        <ele>186</ele>
        <time>2017-06-24T08:46:29Z</time>
      </trkpt>
      <trkpt lat="45.94481" lon="4.73777">
        <ele>186</ele>
        <time>2017-06-24T08:46:31Z</time>
      </trkpt>
      <trkpt lat="45.94485" lon="4.7378">
        <ele>186</ele>
        <time>2017-06-24T08:46:32Z</time>
      </trkpt>
      <trkpt lat="45.94489" lon="4.73783">
        <ele>186</ele>
        <time>2017-06-24T08:46:33Z</time>
      </trkpt>
      <trkpt lat="45.94493" lon="4.73786">
        <ele>186</ele>
        <time>2017-06-24T08:46:34Z</time>
      </trkpt>
      <trkpt lat="45.94497" lon="4.7379">
        <ele>186</ele>
        <time>2017-06-24T08:46:35Z</time>
      </trkpt>
      <trkpt lat="45.94501" lon="4.73793">
        <ele>186</ele>
        <time>2017-06-24T08:46:36Z</time>
      </trkpt>
      <trkpt lat="45.94505" lon="4.73797">
        <ele>186</ele>
        <time>2017-06-24T08:46:37Z</time>
      </trkpt>
      <trkpt lat="45.9451" lon="4.73801">
        <ele>186</ele>
        <time>2017-06-24T08:46:38Z</time>
      </trkpt>
      <trkpt lat="45.94514" lon="4.73805">
        <ele>186</ele>
        <time>2017-06-24T08:46:39Z</time>
      </trkpt>
      <trkpt lat="45.94518" lon="4.73809">
        <ele>186</ele>
        <time>2017-06-24T08:46:40Z</time>
      </trkpt>
      <trkpt lat="45.94522" lon="4.73813">
        <ele>186</ele>
        <time>2017-06-24T08:46:41Z</time>
      </trkpt>
      <trkpt lat="45.94526" lon="4.73817">
        <ele>186</ele>
        <time>2017-06-24T08:46:42Z</time>
      </trkpt>
      <trkpt lat="45.9453" lon="4.73821">
        <ele>186</ele>
        <time>2017-06-24T08:46:43Z</time>
      </trkpt>
      <trkpt lat="45.94534" lon="4.73825">
        <ele>186</ele>
        <time>2017-06-24T08:46:44Z</time>
      </trkpt>
      <trkpt lat="45.9454" lon="4.73831">
        <ele>186</ele>
        <time>2017-06-24T08:46:46Z</time>
      </trkpt>
      <trkpt lat="45.94543" lon="4.73834">
        <ele>186</ele>
        <time>2017-06-24T08:46:47Z</time>
      </trkpt>
      <trkpt lat="45.9455" lon="4.73842">
        <ele>186</ele>
        <time>2017-06-24T08:46:49Z</time>
      </trkpt>
      <trkpt lat="45.94554" lon="4.73845">
        <ele>186</ele>
        <time>2017-06-24T08:46:50Z</time>
      </trkpt>
      <trkpt lat="45.94561" lon="4.73853">
        <ele>186</ele>
        <time>2017-06-24T08:46:52Z</time>
      </trkpt>
      <trkpt lat="45.94565" lon="4.73857">
        <ele>186</ele>
        <time>2017-06-24T08:46:53Z</time>
      </trkpt>
      <trkpt lat="45.94569" lon="4.73861">
        <ele>186</ele>
        <time>2017-06-24T08:46:54Z</time>
      </trkpt>
      <trkpt lat="45.94573" lon="4.73865">
        <ele>186</ele>
        <time>2017-06-24T08:46:55Z</time>
      </trkpt>
      <trkpt lat="45.9458" lon="4.73872">
        <ele>186</ele>
        <time>2017-06-24T08:46:57Z</time>
      </trkpt>
      <trkpt lat="45.94583" lon="4.73876">
        <ele>186</ele>
        <time>2017-06-24T08:46:58Z</time>
      </trkpt>
      <trkpt lat="45.9459" lon="4.73884">
        <ele>187</ele>
        <time>2017-06-24T08:47:00Z</time>
      </trkpt>
      <trkpt lat="45.94594" lon="4.73888">
        <ele>187</ele>
        <time>2017-06-24T08:47:01Z</time>
      </trkpt>
      <trkpt lat="45.94597" lon="4.73892">
        <ele>187</ele>
        <time>2017-06-24T08:47:02Z</time>
      </trkpt>
      <trkpt lat="45.94601" lon="4.73896">
        <ele>187</ele>
        <time>2017-06-24T08:47:03Z</time>
      </trkpt>
      <trkpt lat="45.94605" lon="4.73901">
        <ele>187</ele>
        <time>2017-06-24T08:47:04Z</time>
      </trkpt>
      <trkpt lat="45.94608" lon="4.73905">
        <ele>187</ele>
        <time>2017-06-24T08:47:05Z</time>
      </trkpt>
      <trkpt lat="45.94612" lon="4.73909">
        <ele>187</ele>
        <time>2017-06-24T08:47:06Z</time>
      </trkpt>
      <trkpt lat="45.94615" lon="4.73913">
        <ele>187</ele>
        <time>2017-06-24T08:47:07Z</time>
      </trkpt>
      <trkpt lat="45.94621" lon="4.73922">
        <ele>187</ele>
        <time>2017-06-24T08:47:09Z</time>
      </trkpt>
      <trkpt lat="45.94625" lon="4.73926">
        <ele>187</ele>
        <time>2017-06-24T08:47:10Z</time>
      </trkpt>
      <trkpt lat="45.94631" lon="4.73934">
        <ele>187</ele>
        <time>2017-06-24T08:47:12Z</time>
      </trkpt>
      <trkpt lat="45.94634" lon="4.73938">
        <ele>187</ele>
        <time>2017-06-24T08:47:13Z</time>
      </trkpt>
      <trkpt lat="45.94641" lon="4.73947">
        <ele>187</ele>
        <time>2017-06-24T08:47:15Z</time>
      </trkpt>
      <trkpt lat="45.94645" lon="4.73951">
        <ele>187</ele>
        <time>2017-06-24T08:47:16Z</time>
      </trkpt>
      <trkpt lat="45.94648" lon="4.73956">
        <ele>187</ele>
        <time>2017-06-24T08:47:17Z</time>
      </trkpt>
      <trkpt lat="45.94652" lon="4.7396">
        <ele>187</ele>
        <time>2017-06-24T08:47:18Z</time>
      </trkpt>
      <trkpt lat="45.94655" lon="4.73965">
        <ele>187</ele>
        <time>2017-06-24T08:47:19Z</time>
      </trkpt>
      <trkpt lat="45.94659" lon="4.7397">
        <ele>187</ele>
        <time>2017-06-24T08:47:20Z</time>
      </trkpt>
      <trkpt lat="45.94665" lon="4.73978">
        <ele>187</ele>
        <time>2017-06-24T08:47:22Z</time>
      </trkpt>
      <trkpt lat="45.94668" lon="4.73982">
        <ele>187</ele>
        <time>2017-06-24T08:47:23Z</time>
      </trkpt>
      <trkpt lat="45.94674" lon="4.73991">
        <ele>187</ele>
        <time>2017-06-24T08:47:25Z</time>
      </trkpt>
      <trkpt lat="45.94677" lon="4.73995">
        <ele>187</ele>
        <time>2017-06-24T08:47:26Z</time>
      </trkpt>
      <trkpt lat="45.94683" lon="4.74004">
        <ele>187</ele>
        <time>2017-06-24T08:47:28Z</time>
      </trkpt>
      <trkpt lat="45.94687" lon="4.74008">
        <ele>187</ele>
        <time>2017-06-24T08:47:29Z</time>
      </trkpt>
      <trkpt lat="45.9469" lon="4.74013">
        <ele>187</ele>
        <time>2017-06-24T08:47:30Z</time>
      </trkpt>
      <trkpt lat="45.94693" lon="4.74017">
        <ele>187</ele>
        <time>2017-06-24T08:47:31Z</time>
      </trkpt>
      <trkpt lat="45.94697" lon="4.74022">
        <ele>187</ele>
        <time>2017-06-24T08:47:32Z</time>
      </trkpt>
      <trkpt lat="45.947" lon="4.74026">
        <ele>187</ele>
        <time>2017-06-24T08:47:33Z</time>
      </trkpt>
      <trkpt lat="45.94707" lon="4.74035">
        <ele>187</ele>
        <time>2017-06-24T08:47:35Z</time>
      </trkpt>
      <trkpt lat="45.9471" lon="4.74039">
        <ele>187</ele>
        <time>2017-06-24T08:47:36Z</time>
      </trkpt>
      <trkpt lat="45.94713" lon="4.74044">
        <ele>187</ele>
        <time>2017-06-24T08:47:37Z</time>
      </trkpt>
      <trkpt lat="45.94717" lon="4.74048">
        <ele>187</ele>
        <time>2017-06-24T08:47:38Z</time>
      </trkpt>
      <trkpt lat="45.9472" lon="4.74053">
        <ele>187</ele>
        <time>2017-06-24T08:47:39Z</time>
      </trkpt>
      <trkpt lat="45.94724" lon="4.74057">
        <ele>188</ele>
        <time>2017-06-24T08:47:40Z</time>
      </trkpt>
      <trkpt lat="45.94727" lon="4.74062">
        <ele>188</ele>
        <time>2017-06-24T08:47:41Z</time>
      </trkpt>
      <trkpt lat="45.94731" lon="4.74066">
        <ele>188</ele>
        <time>2017-06-24T08:47:42Z</time>
      </trkpt>
      <trkpt lat="45.94734" lon="4.74071">
        <ele>188</ele>
        <time>2017-06-24T08:47:43Z</time>
      </trkpt>
      <trkpt lat="45.94738" lon="4.74076">
        <ele>188</ele>
        <time>2017-06-24T08:47:44Z</time>
      </trkpt>
      <trkpt lat="45.94741" lon="4.74081">
        <ele>188</ele>
        <time>2017-06-24T08:47:45Z</time>
      </trkpt>
      <trkpt lat="45.94745" lon="4.74086">
        <ele>188</ele>
        <time>2017-06-24T08:47:46Z</time>
      </trkpt>
      <trkpt lat="45.94749" lon="4.74091">
        <ele>188</ele>
        <time>2017-06-24T08:47:47Z</time>
      </trkpt>
      <trkpt lat="45.94752" lon="4.74095">
        <ele>189</ele>
        <time>2017-06-24T08:47:48Z</time>
      </trkpt>
      <trkpt lat="45.94755" lon="4.741">
        <ele>189</ele>
        <time>2017-06-24T08:47:49Z</time>
      </trkpt>
      <trkpt lat="45.94759" lon="4.74104">
        <ele>189</ele>
        <time>2017-06-24T08:47:50Z</time>
      </trkpt>
      <trkpt lat="45.94762" lon="4.74108">
        <ele>189</ele>
        <time>2017-06-24T08:47:51Z</time>
      </trkpt>
      <trkpt lat="45.94766" lon="4.74113">
        <ele>189</ele>
        <time>2017-06-24T08:47:52Z</time>
      </trkpt>
      <trkpt lat="45.94769" lon="4.74118">
        <ele>189</ele>
        <time>2017-06-24T08:47:53Z</time>
      </trkpt>
      <trkpt lat="45.94773" lon="4.74123">
        <ele>189</ele>
        <time>2017-06-24T08:47:54Z</time>
      </trkpt>
      <trkpt lat="45.94776" lon="4.74128">
        <ele>189</ele>
        <time>2017-06-24T08:47:55Z</time>
      </trkpt>
      <trkpt lat="45.94779" lon="4.74133">
        <ele>189</ele>
        <time>2017-06-24T08:47:56Z</time>
      </trkpt>
      <trkpt lat="45.94782" lon="4.74138">
        <ele>189</ele>
        <time>2017-06-24T08:47:57Z</time>
      </trkpt>
      <trkpt lat="45.94785" lon="4.74143">
        <ele>189</ele>
        <time>2017-06-24T08:47:58Z</time>
      </trkpt>
      <trkpt lat="45.94788" lon="4.74148">
        <ele>189</ele>
        <time>2017-06-24T08:47:59Z</time>
      </trkpt>
      <trkpt lat="45.94791" lon="4.74153">
        <ele>189</ele>
        <time>2017-06-24T08:48:00Z</time>
      </trkpt>
      <trkpt lat="45.94795" lon="4.74159">
        <ele>189</ele>
        <time>2017-06-24T08:48:01Z</time>
      </trkpt>
      <trkpt lat="45.94798" lon="4.74164">
        <ele>189</ele>
        <time>2017-06-24T08:48:02Z</time>
      </trkpt>
      <trkpt lat="45.94801" lon="4.74168">
        <ele>189</ele>
        <time>2017-06-24T08:48:03Z</time>
      </trkpt>
      <trkpt lat="45.94805" lon="4.74173">
        <ele>189</ele>
        <time>2017-06-24T08:48:04Z</time>
      </trkpt>
      <trkpt lat="45.94808" lon="4.74178">
        <ele>189</ele>
        <time>2017-06-24T08:48:05Z</time>
      </trkpt>
      <trkpt lat="45.94811" lon="4.74183">
        <ele>189</ele>
        <time>2017-06-24T08:48:06Z</time>
      </trkpt>
      <trkpt lat="45.94814" lon="4.74189">
        <ele>189</ele>
        <time>2017-06-24T08:48:07Z</time>
      </trkpt>
      <trkpt lat="45.94817" lon="4.74194">
        <ele>189</ele>
        <time>2017-06-24T08:48:08Z</time>
      </trkpt>
      <trkpt lat="45.9482" lon="4.742">
        <ele>189</ele>
        <time>2017-06-24T08:48:09Z</time>
      </trkpt>
      <trkpt lat="45.94823" lon="4.74206">
        <ele>189</ele>
        <time>2017-06-24T08:48:10Z</time>
      </trkpt>
      <trkpt lat="45.94826" lon="4.74212">
        <ele>188</ele>
        <time>2017-06-24T08:48:11Z</time>
      </trkpt>
      <trkpt lat="45.94829" lon="4.74219">
        <ele>188</ele>
        <time>2017-06-24T08:48:12Z</time>
      </trkpt>
      <trkpt lat="45.94832" lon="4.74226">
        <ele>189</ele>
        <time>2017-06-24T08:48:13Z</time>
      </trkpt>
      <trkpt lat="45.94835" lon="4.74232">
        <ele>190</ele>
        <time>2017-06-24T08:48:14Z</time>
      </trkpt>
      <trkpt lat="45.94838" lon="4.74238">
        <ele>190</ele>
        <time>2017-06-24T08:48:15Z</time>
      </trkpt>
      <trkpt lat="45.94842" lon="4.74243">
        <ele>189</ele>
        <time>2017-06-24T08:48:16Z</time>
      </trkpt>
      <trkpt lat="45.94846" lon="4.74248">
        <ele>190</ele>
        <time>2017-06-24T08:48:17Z</time>
      </trkpt>
      <trkpt lat="45.94849" lon="4.74253">
        <ele>190</ele>
        <time>2017-06-24T08:48:18Z</time>
      </trkpt>
      <trkpt lat="45.94853" lon="4.74259">
        <ele>190</ele>
        <time>2017-06-24T08:48:19Z</time>
      </trkpt>
      <trkpt lat="45.94856" lon="4.74264">
        <ele>190</ele>
        <time>2017-06-24T08:48:20Z</time>
      </trkpt>
      <trkpt lat="45.94859" lon="4.74269">
        <ele>190</ele>
        <time>2017-06-24T08:48:21Z</time>
      </trkpt>
      <trkpt lat="45.94862" lon="4.74275">
        <ele>190</ele>
        <time>2017-06-24T08:48:22Z</time>
      </trkpt>
      <trkpt lat="45.94865" lon="4.7428">
        <ele>191</ele>
        <time>2017-06-24T08:48:23Z</time>
      </trkpt>
      <trkpt lat="45.94867" lon="4.74286">
        <ele>191</ele>
        <time>2017-06-24T08:48:24Z</time>
      </trkpt>
      <trkpt lat="45.9487" lon="4.74292">
        <ele>191</ele>
        <time>2017-06-24T08:48:25Z</time>
      </trkpt>
      <trkpt lat="45.94872" lon="4.74298">
        <ele>191</ele>
        <time>2017-06-24T08:48:26Z</time>
      </trkpt>
      <trkpt lat="45.94875" lon="4.74304">
        <ele>191</ele>
        <time>2017-06-24T08:48:27Z</time>
      </trkpt>
      <trkpt lat="45.94878" lon="4.7431">
        <ele>191</ele>
        <time>2017-06-24T08:48:28Z</time>
      </trkpt>
      <trkpt lat="45.94881" lon="4.74316">
        <ele>191</ele>
        <time>2017-06-24T08:48:29Z</time>
      </trkpt>
      <trkpt lat="45.94884" lon="4.74322">
        <ele>191</ele>
        <time>2017-06-24T08:48:30Z</time>
      </trkpt>
      <trkpt lat="45.94887" lon="4.74328">
        <ele>191</ele>
        <time>2017-06-24T08:48:31Z</time>
      </trkpt>
      <trkpt lat="45.9489" lon="4.74333">
        <ele>191</ele>
        <time>2017-06-24T08:48:32Z</time>
      </trkpt>
      <trkpt lat="45.94892" lon="4.74339">
        <ele>191</ele>
        <time>2017-06-24T08:48:33Z</time>
      </trkpt>
      <trkpt lat="45.94895" lon="4.74344">
        <ele>191</ele>
        <time>2017-06-24T08:48:34Z</time>
      </trkpt>
      <trkpt lat="45.949" lon="4.74354">
        <ele>191</ele>
        <time>2017-06-24T08:48:36Z</time>
      </trkpt>
      <trkpt lat="45.94903" lon="4.7436">
        <ele>191</ele>
        <time>2017-06-24T08:48:37Z</time>
      </trkpt>
      <trkpt lat="45.94906" lon="4.74366">
        <ele>191</ele>
        <time>2017-06-24T08:48:38Z</time>
      </trkpt>
      <trkpt lat="45.9491" lon="4.74372">
        <ele>191</ele>
        <time>2017-06-24T08:48:39Z</time>
      </trkpt>
      <trkpt lat="45.94913" lon="4.74378">
        <ele>191</ele>
        <time>2017-06-24T08:48:40Z</time>
      </trkpt>
      <trkpt lat="45.94916" lon="4.74385">
        <ele>191</ele>
        <time>2017-06-24T08:48:41Z</time>
      </trkpt>
      <trkpt lat="45.94919" lon="4.74391">
        <ele>192</ele>
        <time>2017-06-24T08:48:42Z</time>
      </trkpt>
      <trkpt lat="45.94922" lon="4.74396">
        <ele>192</ele>
        <time>2017-06-24T08:48:43Z</time>
      </trkpt>
      <trkpt lat="45.94925" lon="4.74402">
        <ele>192</ele>
        <time>2017-06-24T08:48:44Z</time>
      </trkpt>
      <trkpt lat="45.94927" lon="4.74407">
        <ele>192</ele>
        <time>2017-06-24T08:48:45Z</time>
      </trkpt>
      <trkpt lat="45.94932" lon="4.74418">
        <ele>192</ele>
        <time>2017-06-24T08:48:47Z</time>
      </trkpt>
      <trkpt lat="45.94934" lon="4.74423">
        <ele>192</ele>
        <time>2017-06-24T08:48:48Z</time>
      </trkpt>
      <trkpt lat="45.94939" lon="4.74433">
        <ele>192</ele>
        <time>2017-06-24T08:48:50Z</time>
      </trkpt>
      <trkpt lat="45.94942" lon="4.74438">
        <ele>192</ele>
        <time>2017-06-24T08:48:51Z</time>
      </trkpt>
      <trkpt lat="45.94947" lon="4.74447">
        <ele>192</ele>
        <time>2017-06-24T08:48:53Z</time>
      </trkpt>
      <trkpt lat="45.9495" lon="4.74454">
        <ele>192</ele>
        <time>2017-06-24T08:48:54Z</time>
      </trkpt>
      <trkpt lat="45.94953" lon="4.74459">
        <ele>193</ele>
        <time>2017-06-24T08:48:55Z</time>
      </trkpt>
      <trkpt lat="45.94955" lon="4.74464">
        <ele>193</ele>
        <time>2017-06-24T08:48:56Z</time>
      </trkpt>
      <trkpt lat="45.94958" lon="4.7447">
        <ele>193</ele>
        <time>2017-06-24T08:48:57Z</time>
      </trkpt>
      <trkpt lat="45.94961" lon="4.74476">
        <ele>193</ele>
        <time>2017-06-24T08:48:58Z</time>
      </trkpt>
      <trkpt lat="45.94964" lon="4.74481">
        <ele>193</ele>
        <time>2017-06-24T08:48:59Z</time>
      </trkpt>
      <trkpt lat="45.94966" lon="4.74486">
        <ele>193</ele>
        <time>2017-06-24T08:49:00Z</time>
      </trkpt>
      <trkpt lat="45.94972" lon="4.74496">
        <ele>193</ele>
        <time>2017-06-24T08:49:02Z</time>
      </trkpt>
      <trkpt lat="45.94974" lon="4.74501">
        <ele>193</ele>
        <time>2017-06-24T08:49:03Z</time>
      </trkpt>
      <trkpt lat="45.94977" lon="4.74506">
        <ele>193</ele>
        <time>2017-06-24T08:49:04Z</time>
      </trkpt>
      <trkpt lat="45.94979" lon="4.74511">
        <ele>193</ele>
        <time>2017-06-24T08:49:05Z</time>
      </trkpt>
      <trkpt lat="45.94982" lon="4.74516">
        <ele>193</ele>
        <time>2017-06-24T08:49:06Z</time>
      </trkpt>
      <trkpt lat="45.94985" lon="4.74522">
        <ele>193</ele>
        <time>2017-06-24T08:49:07Z</time>
      </trkpt>
      <trkpt lat="45.94988" lon="4.74527">
        <ele>193</ele>
        <time>2017-06-24T08:49:08Z</time>
      </trkpt>
      <trkpt lat="45.94991" lon="4.74533">
        <ele>193</ele>
        <time>2017-06-24T08:49:09Z</time>
      </trkpt>
      <trkpt lat="45.94993" lon="4.74538">
        <ele>193</ele>
        <time>2017-06-24T08:49:10Z</time>
      </trkpt>
      <trkpt lat="45.94996" lon="4.74543">
        <ele>193</ele>
        <time>2017-06-24T08:49:11Z</time>
      </trkpt>
      <trkpt lat="45.95001" lon="4.74554">
        <ele>194</ele>
        <time>2017-06-24T08:49:13Z</time>
      </trkpt>
      <trkpt lat="45.95004" lon="4.74559">
        <ele>194</ele>
        <time>2017-06-24T08:49:14Z</time>
      </trkpt>
      <trkpt lat="45.95007" lon="4.74564">
        <ele>194</ele>
        <time>2017-06-24T08:49:15Z</time>
      </trkpt>
      <trkpt lat="45.9501" lon="4.74569">
        <ele>194</ele>
        <time>2017-06-24T08:49:16Z</time>
      </trkpt>
      <trkpt lat="45.95015" lon="4.74579">
        <ele>194</ele>
        <time>2017-06-24T08:49:18Z</time>
      </trkpt>
      <trkpt lat="45.95018" lon="4.74584">
        <ele>194</ele>
        <time>2017-06-24T08:49:19Z</time>
      </trkpt>
      <trkpt lat="45.95023" lon="4.74592">
        <ele>194</ele>
        <time>2017-06-24T08:49:21Z</time>
      </trkpt>
      <trkpt lat="45.95025" lon="4.74597">
        <ele>194</ele>
        <time>2017-06-24T08:49:22Z</time>
      </trkpt>
      <trkpt lat="45.9503" lon="4.74606">
        <ele>194</ele>
        <time>2017-06-24T08:49:24Z</time>
      </trkpt>
      <trkpt lat="45.95033" lon="4.74611">
        <ele>194</ele>
        <time>2017-06-24T08:49:25Z</time>
      </trkpt>
      <trkpt lat="45.95036" lon="4.74616">
        <ele>194</ele>
        <time>2017-06-24T08:49:26Z</time>
      </trkpt>
      <trkpt lat="45.95039" lon="4.74621">
        <ele>194</ele>
        <time>2017-06-24T08:49:27Z</time>
      </trkpt>
      <trkpt lat="45.95042" lon="4.74626">
        <ele>194</ele>
        <time>2017-06-24T08:49:28Z</time>
      </trkpt>
      <trkpt lat="45.95044" lon="4.74632">
        <ele>194</ele>
        <time>2017-06-24T08:49:29Z</time>
      </trkpt>
      <trkpt lat="45.95049" lon="4.74641">
        <ele>194</ele>
        <time>2017-06-24T08:49:31Z</time>
      </trkpt>
      <trkpt lat="45.95052" lon="4.74645">
        <ele>194</ele>
        <time>2017-06-24T08:49:32Z</time>
      </trkpt>
      <trkpt lat="45.95057" lon="4.74655">
        <ele>194</ele>
        <time>2017-06-24T08:49:34Z</time>
      </trkpt>
      <trkpt lat="45.95059" lon="4.74659">
        <ele>194</ele>
        <time>2017-06-24T08:49:35Z</time>
      </trkpt>
      <trkpt lat="45.95062" lon="4.74664">
        <ele>195</ele>
        <time>2017-06-24T08:49:36Z</time>
      </trkpt>
      <trkpt lat="45.95065" lon="4.74669">
        <ele>194</ele>
        <time>2017-06-24T08:49:37Z</time>
      </trkpt>
      <trkpt lat="45.95068" lon="4.74675">
        <ele>194</ele>
        <time>2017-06-24T08:49:38Z</time>
      </trkpt>
      <trkpt lat="45.95071" lon="4.74681">
        <ele>194</ele>
        <time>2017-06-24T08:49:39Z</time>
      </trkpt>
      <trkpt lat="45.95075" lon="4.74687">
        <ele>194</ele>
        <time>2017-06-24T08:49:40Z</time>
      </trkpt>
      <trkpt lat="45.95078" lon="4.74693">
        <ele>194</ele>
        <time>2017-06-24T08:49:41Z</time>
      </trkpt>
      <trkpt lat="45.95081" lon="4.74698">
        <ele>194</ele>
        <time>2017-06-24T08:49:42Z</time>
      </trkpt>
      <trkpt lat="45.95084" lon="4.74704">
        <ele>194</ele>
        <time>2017-06-24T08:49:43Z</time>
      </trkpt>
      <trkpt lat="45.95087" lon="4.74709">
        <ele>194</ele>
        <time>2017-06-24T08:49:44Z</time>
      </trkpt>
      <trkpt lat="45.95089" lon="4.74714">
        <ele>194</ele>
        <time>2017-06-24T08:49:45Z</time>
      </trkpt>
      <trkpt lat="45.95095" lon="4.74723">
        <ele>194</ele>
        <time>2017-06-24T08:49:47Z</time>
      </trkpt>
      <trkpt lat="45.95098" lon="4.74728">
        <ele>194</ele>
        <time>2017-06-24T08:49:48Z</time>
      </trkpt>
      <trkpt lat="45.95101" lon="4.74733">
        <ele>194</ele>
        <time>2017-06-24T08:49:49Z</time>
      </trkpt>
      <trkpt lat="45.95104" lon="4.74739">
        <ele>194</ele>
        <time>2017-06-24T08:49:50Z</time>
      </trkpt>
      <trkpt lat="45.95107" lon="4.74744">
        <ele>194</ele>
        <time>2017-06-24T08:49:51Z</time>
      </trkpt>
      <trkpt lat="45.9511" lon="4.7475">
        <ele>194</ele>
        <time>2017-06-24T08:49:52Z</time>
      </trkpt>
      <trkpt lat="45.95114" lon="4.74755">
        <ele>194</ele>
        <time>2017-06-24T08:49:53Z</time>
      </trkpt>
      <trkpt lat="45.95117" lon="4.74761">
        <ele>194</ele>
        <time>2017-06-24T08:49:54Z</time>
      </trkpt>
      <trkpt lat="45.9512" lon="4.74766">
        <ele>194</ele>
        <time>2017-06-24T08:49:55Z</time>
      </trkpt>
      <trkpt lat="45.95124" lon="4.74772">
        <ele>194</ele>
        <time>2017-06-24T08:49:56Z</time>
      </trkpt>
      <trkpt lat="45.95127" lon="4.74777">
        <ele>194</ele>
        <time>2017-06-24T08:49:57Z</time>
      </trkpt>
      <trkpt lat="45.9513" lon="4.74782">
        <ele>194</ele>
        <time>2017-06-24T08:49:58Z</time>
      </trkpt>
      <trkpt lat="45.95136" lon="4.74791">
        <ele>194</ele>
        <time>2017-06-24T08:50:00Z</time>
      </trkpt>
      <trkpt lat="45.95139" lon="4.74796">
        <ele>194</ele>
        <time>2017-06-24T08:50:01Z</time>
      </trkpt>
      <trkpt lat="45.95142" lon="4.74801">
        <ele>194</ele>
        <time>2017-06-24T08:50:02Z</time>
      </trkpt>
      <trkpt lat="45.95145" lon="4.74805">
        <ele>194</ele>
        <time>2017-06-24T08:50:03Z</time>
      </trkpt>
      <trkpt lat="45.95149" lon="4.7481">
        <ele>194</ele>
        <time>2017-06-24T08:50:04Z</time>
      </trkpt>
      <trkpt lat="45.95152" lon="4.74816">
        <ele>194</ele>
        <time>2017-06-24T08:50:05Z</time>
      </trkpt>
      <trkpt lat="45.95155" lon="4.74821">
        <ele>194</ele>
        <time>2017-06-24T08:50:06Z</time>
      </trkpt>
      <trkpt lat="45.95159" lon="4.74827">
        <ele>194</ele>
        <time>2017-06-24T08:50:07Z</time>
      </trkpt>
      <trkpt lat="45.95162" lon="4.74832">
        <ele>194</ele>
        <time>2017-06-24T08:50:08Z</time>
      </trkpt>
      <trkpt lat="45.95165" lon="4.74837">
        <ele>194</ele>
        <time>2017-06-24T08:50:09Z</time>
      </trkpt>
      <trkpt lat="45.95169" lon="4.74842">
        <ele>194</ele>
        <time>2017-06-24T08:50:10Z</time>
      </trkpt>
      <trkpt lat="45.95172" lon="4.74848">
        <ele>194</ele>
        <time>2017-06-24T08:50:11Z</time>
      </trkpt>
      <trkpt lat="45.95175" lon="4.74853">
        <ele>194</ele>
        <time>2017-06-24T08:50:12Z</time>
      </trkpt>
      <trkpt lat="45.95178" lon="4.74858">
        <ele>194</ele>
        <time>2017-06-24T08:50:13Z</time>
      </trkpt>
      <trkpt lat="45.95182" lon="4.74864">
        <ele>194</ele>
        <time>2017-06-24T08:50:14Z</time>
      </trkpt>
      <trkpt lat="45.95185" lon="4.74868">
        <ele>194</ele>
        <time>2017-06-24T08:50:15Z</time>
      </trkpt>
      <trkpt lat="45.95188" lon="4.74874">
        <ele>194</ele>
        <time>2017-06-24T08:50:16Z</time>
      </trkpt>
      <trkpt lat="45.95191" lon="4.74879">
        <ele>194</ele>
        <time>2017-06-24T08:50:17Z</time>
      </trkpt>
      <trkpt lat="45.95193" lon="4.74884">
        <ele>194</ele>
        <time>2017-06-24T08:50:18Z</time>
      </trkpt>
      <trkpt lat="45.95196" lon="4.74889">
        <ele>194</ele>
        <time>2017-06-24T08:50:19Z</time>
      </trkpt>
      <trkpt lat="45.952" lon="4.74894">
        <ele>194</ele>
        <time>2017-06-24T08:50:20Z</time>
      </trkpt>
      <trkpt lat="45.95203" lon="4.749">
        <ele>194</ele>
        <time>2017-06-24T08:50:21Z</time>
      </trkpt>
      <trkpt lat="45.95206" lon="4.74905">
        <ele>194</ele>
        <time>2017-06-24T08:50:22Z</time>
      </trkpt>
      <trkpt lat="45.9521" lon="4.74911">
        <ele>193</ele>
        <time>2017-06-24T08:50:23Z</time>
      </trkpt>
      <trkpt lat="45.95213" lon="4.74916">
        <ele>193</ele>
        <time>2017-06-24T08:50:24Z</time>
      </trkpt>
      <trkpt lat="45.95216" lon="4.74921">
        <ele>192</ele>
        <time>2017-06-24T08:50:25Z</time>
      </trkpt>
      <trkpt lat="45.95219" lon="4.74926">
        <ele>192</ele>
        <time>2017-06-24T08:50:26Z</time>
      </trkpt>
      <trkpt lat="45.95222" lon="4.74931">
        <ele>192</ele>
        <time>2017-06-24T08:50:27Z</time>
      </trkpt>
      <trkpt lat="45.95225" lon="4.74935">
        <ele>192</ele>
        <time>2017-06-24T08:50:28Z</time>
      </trkpt>
      <trkpt lat="45.95229" lon="4.7494">
        <ele>192</ele>
        <time>2017-06-24T08:50:29Z</time>
      </trkpt>
      <trkpt lat="45.95232" lon="4.74946">
        <ele>192</ele>
        <time>2017-06-24T08:50:30Z</time>
      </trkpt>
      <trkpt lat="45.95236" lon="4.74951">
        <ele>192</ele>
        <time>2017-06-24T08:50:31Z</time>
      </trkpt>
      <trkpt lat="45.95239" lon="4.74956">
        <ele>192</ele>
        <time>2017-06-24T08:50:32Z</time>
      </trkpt>
      <trkpt lat="45.95243" lon="4.74961">
        <ele>191</ele>
        <time>2017-06-24T08:50:33Z</time>
      </trkpt>
      <trkpt lat="45.95247" lon="4.74966">
        <ele>191</ele>
        <time>2017-06-24T08:50:34Z</time>
      </trkpt>
      <trkpt lat="45.9525" lon="4.74971">
        <ele>192</ele>
        <time>2017-06-24T08:50:35Z</time>
      </trkpt>
      <trkpt lat="45.95254" lon="4.74976">
        <ele>192</ele>
        <time>2017-06-24T08:50:36Z</time>
      </trkpt>
      <trkpt lat="45.95257" lon="4.74981">
        <ele>192</ele>
        <time>2017-06-24T08:50:37Z</time>
      </trkpt>
      <trkpt lat="45.9526" lon="4.74986">
        <ele>192</ele>
        <time>2017-06-24T08:50:38Z</time>
      </trkpt>
      <trkpt lat="45.95263" lon="4.74991">
        <ele>192</ele>
        <time>2017-06-24T08:50:39Z</time>
      </trkpt>
      <trkpt lat="45.95266" lon="4.74997">
        <ele>192</ele>
        <time>2017-06-24T08:50:40Z</time>
      </trkpt>
      <trkpt lat="45.95269" lon="4.75002">
        <ele>191</ele>
        <time>2017-06-24T08:50:41Z</time>
      </trkpt>
      <trkpt lat="45.95273" lon="4.75007">
        <ele>191</ele>
        <time>2017-06-24T08:50:42Z</time>
      </trkpt>
      <trkpt lat="45.95276" lon="4.75012">
        <ele>191</ele>
        <time>2017-06-24T08:50:43Z</time>
      </trkpt>
      <trkpt lat="45.9528" lon="4.75018">
        <ele>191</ele>
        <time>2017-06-24T08:50:44Z</time>
      </trkpt>
      <trkpt lat="45.95283" lon="4.75023">
        <ele>191</ele>
        <time>2017-06-24T08:50:45Z</time>
      </trkpt>
      <trkpt lat="45.95287" lon="4.75029">
        <ele>191</ele>
        <time>2017-06-24T08:50:46Z</time>
      </trkpt>
      <trkpt lat="45.95291" lon="4.75035">
        <ele>191</ele>
        <time>2017-06-24T08:50:47Z</time>
      </trkpt>
      <trkpt lat="45.95295" lon="4.75041">
        <ele>191</ele>
        <time>2017-06-24T08:50:48Z</time>
      </trkpt>
      <trkpt lat="45.95299" lon="4.75047">
        <ele>191</ele>
        <time>2017-06-24T08:50:49Z</time>
      </trkpt>
      <trkpt lat="45.95303" lon="4.75052">
        <ele>191</ele>
        <time>2017-06-24T08:50:50Z</time>
      </trkpt>
      <trkpt lat="45.95306" lon="4.75058">
        <ele>192</ele>
        <time>2017-06-24T08:50:51Z</time>
      </trkpt>
      <trkpt lat="45.95309" lon="4.75064">
        <ele>192</ele>
        <time>2017-06-24T08:50:52Z</time>
      </trkpt>
      <trkpt lat="45.95313" lon="4.7507">
        <ele>192</ele>
        <time>2017-06-24T08:50:53Z</time>
      </trkpt>
      <trkpt lat="45.95316" lon="4.75076">
        <ele>192</ele>
        <time>2017-06-24T08:50:54Z</time>
      </trkpt>
      <trkpt lat="45.9532" lon="4.75082">
        <ele>192</ele>
        <time>2017-06-24T08:50:55Z</time>
      </trkpt>
      <trkpt lat="45.95323" lon="4.75088">
        <ele>191</ele>
        <time>2017-06-24T08:50:56Z</time>
      </trkpt>
      <trkpt lat="45.95327" lon="4.75094">
        <ele>191</ele>
        <time>2017-06-24T08:50:57Z</time>
      </trkpt>
      <trkpt lat="45.95331" lon="4.75099">
        <ele>191</ele>
        <time>2017-06-24T08:50:58Z</time>
      </trkpt>
      <trkpt lat="45.95334" lon="4.75104">
        <ele>192</ele>
        <time>2017-06-24T08:50:59Z</time>
      </trkpt>
      <trkpt lat="45.95338" lon="4.75109">
        <ele>192</ele>
        <time>2017-06-24T08:51:00Z</time>
      </trkpt>
      <trkpt lat="45.95341" lon="4.75115">
        <ele>192</ele>
        <time>2017-06-24T08:51:01Z</time>
      </trkpt>
      <trkpt lat="45.95345" lon="4.75121">
        <ele>191</ele>
        <time>2017-06-24T08:51:02Z</time>
      </trkpt>
      <trkpt lat="45.95348" lon="4.75127">
        <ele>191</ele>
        <time>2017-06-24T08:51:03Z</time>
      </trkpt>
      <trkpt lat="45.95352" lon="4.75133">
        <ele>191</ele>
        <time>2017-06-24T08:51:04Z</time>
      </trkpt>
      <trkpt lat="45.95356" lon="4.75139">
        <ele>191</ele>
        <time>2017-06-24T08:51:05Z</time>
      </trkpt>
      <trkpt lat="45.9536" lon="4.75146">
        <ele>191</ele>
        <time>2017-06-24T08:51:06Z</time>
      </trkpt>
      <trkpt lat="45.95364" lon="4.75152">
        <ele>191</ele>
        <time>2017-06-24T08:51:07Z</time>
      </trkpt>
      <trkpt lat="45.95369" lon="4.75159">
        <ele>191</ele>
        <time>2017-06-24T08:51:08Z</time>
      </trkpt>
      <trkpt lat="45.95373" lon="4.75165">
        <ele>191</ele>
        <time>2017-06-24T08:51:09Z</time>
      </trkpt>
      <trkpt lat="45.95377" lon="4.75172">
        <ele>189</ele>
        <time>2017-06-24T08:51:10Z</time>
      </trkpt>
      <trkpt lat="45.95381" lon="4.75178">
        <ele>189</ele>
        <time>2017-06-24T08:51:11Z</time>
      </trkpt>
      <trkpt lat="45.95385" lon="4.75184">
        <ele>189</ele>
        <time>2017-06-24T08:51:12Z</time>
      </trkpt>
      <trkpt lat="45.95389" lon="4.75191">
        <ele>189</ele>
        <time>2017-06-24T08:51:13Z</time>
      </trkpt>
      <trkpt lat="45.95392" lon="4.75198">
        <ele>189</ele>
        <time>2017-06-24T08:51:14Z</time>
      </trkpt>
      <trkpt lat="45.95396" lon="4.75204">
        <ele>189</ele>
        <time>2017-06-24T08:51:15Z</time>
      </trkpt>
      <trkpt lat="45.954" lon="4.75211">
        <ele>189</ele>
        <time>2017-06-24T08:51:16Z</time>
      </trkpt>
      <trkpt lat="45.95403" lon="4.75217">
        <ele>188</ele>
        <time>2017-06-24T08:51:17Z</time>
      </trkpt>
      <trkpt lat="45.95407" lon="4.75223">
        <ele>188</ele>
        <time>2017-06-24T08:51:18Z</time>
      </trkpt>
      <trkpt lat="45.9541" lon="4.75229">
        <ele>189</ele>
        <time>2017-06-24T08:51:19Z</time>
      </trkpt>
      <trkpt lat="45.95413" lon="4.75235">
        <ele>189</ele>
        <time>2017-06-24T08:51:20Z</time>
      </trkpt>
      <trkpt lat="45.95417" lon="4.75241">
        <ele>190</ele>
        <time>2017-06-24T08:51:21Z</time>
      </trkpt>
      <trkpt lat="45.9542" lon="4.75248">
        <ele>189</ele>
        <time>2017-06-24T08:51:22Z</time>
      </trkpt>
      <trkpt lat="45.95423" lon="4.75254">
        <ele>189</ele>
        <time>2017-06-24T08:51:23Z</time>
      </trkpt>
      <trkpt lat="45.95427" lon="4.7526">
        <ele>189</ele>
        <time>2017-06-24T08:51:24Z</time>
      </trkpt>
      <trkpt lat="45.9543" lon="4.75266">
        <ele>189</ele>
        <time>2017-06-24T08:51:25Z</time>
      </trkpt>
      <trkpt lat="45.95433" lon="4.75272">
        <ele>189</ele>
        <time>2017-06-24T08:51:26Z</time>
      </trkpt>
      <trkpt lat="45.95437" lon="4.75278">
        <ele>188</ele>
        <time>2017-06-24T08:51:27Z</time>
      </trkpt>
      <trkpt lat="45.9544" lon="4.75284">
        <ele>188</ele>
        <time>2017-06-24T08:51:28Z</time>
      </trkpt>
      <trkpt lat="45.95443" lon="4.75291">
        <ele>188</ele>
        <time>2017-06-24T08:51:29Z</time>
      </trkpt>
      <trkpt lat="45.95447" lon="4.75297">
        <ele>188</ele>
        <time>2017-06-24T08:51:30Z</time>
      </trkpt>
      <trkpt lat="45.9545" lon="4.75303">
        <ele>188</ele>
        <time>2017-06-24T08:51:31Z</time>
      </trkpt>
      <trkpt lat="45.95454" lon="4.7531">
        <ele>188</ele>
        <time>2017-06-24T08:51:32Z</time>
      </trkpt>
      <trkpt lat="45.95458" lon="4.75316">
        <ele>188</ele>
        <time>2017-06-24T08:51:33Z</time>
      </trkpt>
      <trkpt lat="45.95462" lon="4.75322">
        <ele>188</ele>
        <time>2017-06-24T08:51:34Z</time>
      </trkpt>
      <trkpt lat="45.95465" lon="4.75329">
        <ele>188</ele>
        <time>2017-06-24T08:51:35Z</time>
      </trkpt>
      <trkpt lat="45.95469" lon="4.75336">
        <ele>186</ele>
        <time>2017-06-24T08:51:36Z</time>
      </trkpt>
      <trkpt lat="45.95473" lon="4.75344">
        <ele>186</ele>
        <time>2017-06-24T08:51:37Z</time>
      </trkpt>
      <trkpt lat="45.95477" lon="4.75351">
        <ele>186</ele>
        <time>2017-06-24T08:51:38Z</time>
      </trkpt>
      <trkpt lat="45.9548" lon="4.75358">
        <ele>186</ele>
        <time>2017-06-24T08:51:39Z</time>
      </trkpt>
      <trkpt lat="45.95484" lon="4.75365">
        <ele>186</ele>
        <time>2017-06-24T08:51:40Z</time>
      </trkpt>
      <trkpt lat="45.95487" lon="4.75372">
        <ele>185</ele>
        <time>2017-06-24T08:51:41Z</time>
      </trkpt>
      <trkpt lat="45.9549" lon="4.75379">
        <ele>185</ele>
        <time>2017-06-24T08:51:42Z</time>
      </trkpt>
      <trkpt lat="45.95493" lon="4.75386">
        <ele>185</ele>
        <time>2017-06-24T08:51:43Z</time>
      </trkpt>
      <trkpt lat="45.95496" lon="4.75393">
        <ele>185</ele>
        <time>2017-06-24T08:51:44Z</time>
      </trkpt>
      <trkpt lat="45.95498" lon="4.754">
        <ele>185</ele>
        <time>2017-06-24T08:51:45Z</time>
      </trkpt>
      <trkpt lat="45.95501" lon="4.75408">
        <ele>186</ele>
        <time>2017-06-24T08:51:46Z</time>
      </trkpt>
      <trkpt lat="45.95503" lon="4.75415">
        <ele>186</ele>
        <time>2017-06-24T08:51:47Z</time>
      </trkpt>
      <trkpt lat="45.95505" lon="4.75423">
        <ele>186</ele>
        <time>2017-06-24T08:51:48Z</time>
      </trkpt>
      <trkpt lat="45.95506" lon="4.75431">
        <ele>186</ele>
        <time>2017-06-24T08:51:49Z</time>
      </trkpt>
      <trkpt lat="45.95508" lon="4.75437">
        <ele>186</ele>
        <time>2017-06-24T08:51:50Z</time>
      </trkpt>
      <trkpt lat="45.95509" lon="4.75443">
        <ele>186</ele>
        <time>2017-06-24T08:51:51Z</time>
      </trkpt>
      <trkpt lat="45.9551" lon="4.75455">
        <ele>187</ele>
        <time>2017-06-24T08:51:53Z</time>
      </trkpt>
      <trkpt lat="45.9551" lon="4.75461">
        <ele>186</ele>
        <time>2017-06-24T08:51:54Z</time>
      </trkpt>
      <trkpt lat="45.95508" lon="4.75467">
        <ele>186</ele>
        <time>2017-06-24T08:51:55Z</time>
      </trkpt>
      <trkpt lat="45.95507" lon="4.75473">
        <ele>186</ele>
        <time>2017-06-24T08:51:56Z</time>
      </trkpt>
      <trkpt lat="45.95507" lon="4.7548">
        <ele>186</ele>
        <time>2017-06-24T08:51:57Z</time>
      </trkpt>
      <trkpt lat="45.95508" lon="4.75487">
        <ele>186</ele>
        <time>2017-06-24T08:51:58Z</time>
      </trkpt>
      <trkpt lat="45.9551" lon="4.75493">
        <ele>185</ele>
        <time>2017-06-24T08:51:59Z</time>
      </trkpt>
      <trkpt lat="45.95513" lon="4.75498">
        <ele>185</ele>
        <time>2017-06-24T08:52:00Z</time>
      </trkpt>
      <trkpt lat="45.95518" lon="4.75501">
        <ele>185</ele>
        <time>2017-06-24T08:52:01Z</time>
      </trkpt>
      <trkpt lat="45.95522" lon="4.75505">
        <ele>185</ele>
        <time>2017-06-24T08:52:02Z</time>
      </trkpt>
      <trkpt lat="45.95527" lon="4.75508">
        <ele>185</ele>
        <time>2017-06-24T08:52:03Z</time>
      </trkpt>
      <trkpt lat="45.95531" lon="4.75512">
        <ele>185</ele>
        <time>2017-06-24T08:52:04Z</time>
      </trkpt>
      <trkpt lat="45.95535" lon="4.75517">
        <ele>186</ele>
        <time>2017-06-24T08:52:05Z</time>
      </trkpt>
      <trkpt lat="45.95539" lon="4.75521">
        <ele>186</ele>
        <time>2017-06-24T08:52:06Z</time>
      </trkpt>
      <trkpt lat="45.95543" lon="4.75525">
        <ele>186</ele>
        <time>2017-06-24T08:52:07Z</time>
      </trkpt>
      <trkpt lat="45.95548" lon="4.75529">
        <ele>186</ele>
        <time>2017-06-24T08:52:08Z</time>
      </trkpt>
      <trkpt lat="45.95552" lon="4.75533">
        <ele>186</ele>
        <time>2017-06-24T08:52:09Z</time>
      </trkpt>
      <trkpt lat="45.95556" lon="4.75537">
        <ele>186</ele>
        <time>2017-06-24T08:52:10Z</time>
      </trkpt>
      <trkpt lat="45.95561" lon="4.75541">
        <ele>186</ele>
        <time>2017-06-24T08:52:11Z</time>
      </trkpt>
      <trkpt lat="45.95565" lon="4.75544">
        <ele>186</ele>
        <time>2017-06-24T08:52:12Z</time>
      </trkpt>
      <trkpt lat="45.95569" lon="4.75548">
        <ele>186</ele>
        <time>2017-06-24T08:52:13Z</time>
      </trkpt>
      <trkpt lat="45.95573" lon="4.75553">
        <ele>186</ele>
        <time>2017-06-24T08:52:14Z</time>
      </trkpt>
      <trkpt lat="45.95577" lon="4.75558">
        <ele>186</ele>
        <time>2017-06-24T08:52:15Z</time>
      </trkpt>
      <trkpt lat="45.95581" lon="4.75563">
        <ele>186</ele>
        <time>2017-06-24T08:52:16Z</time>
      </trkpt>
      <trkpt lat="45.95584" lon="4.75568">
        <ele>188</ele>
        <time>2017-06-24T08:52:17Z</time>
      </trkpt>
      <trkpt lat="45.95588" lon="4.75574">
        <ele>187</ele>
        <time>2017-06-24T08:52:18Z</time>
      </trkpt>
      <trkpt lat="45.95591" lon="4.75581">
        <ele>187</ele>
        <time>2017-06-24T08:52:19Z</time>
      </trkpt>
      <trkpt lat="45.95594" lon="4.75587">
        <ele>187</ele>
        <time>2017-06-24T08:52:20Z</time>
      </trkpt>
      <trkpt lat="45.95597" lon="4.75595">
        <ele>187</ele>
        <time>2017-06-24T08:52:21Z</time>
      </trkpt>
      <trkpt lat="45.95599" lon="4.75602">
        <ele>187</ele>
        <time>2017-06-24T08:52:22Z</time>
      </trkpt>
      <trkpt lat="45.95603" lon="4.75609">
        <ele>187</ele>
        <time>2017-06-24T08:52:23Z</time>
      </trkpt>
      <trkpt lat="45.95605" lon="4.75617">
        <ele>188</ele>
        <time>2017-06-24T08:52:24Z</time>
      </trkpt>
      <trkpt lat="45.95608" lon="4.75625">
        <ele>188</ele>
        <time>2017-06-24T08:52:25Z</time>
      </trkpt>
      <trkpt lat="45.9561" lon="4.75632">
        <ele>188</ele>
        <time>2017-06-24T08:52:26Z</time>
      </trkpt>
      <trkpt lat="45.95612" lon="4.75639">
        <ele>188</ele>
        <time>2017-06-24T08:52:27Z</time>
      </trkpt>
      <trkpt lat="45.95614" lon="4.75646">
        <ele>188</ele>
        <time>2017-06-24T08:52:28Z</time>
      </trkpt>
      <trkpt lat="45.95615" lon="4.75652">
        <ele>188</ele>
        <time>2017-06-24T08:52:29Z</time>
      </trkpt>
      <trkpt lat="45.95616" lon="4.75659">
        <ele>188</ele>
        <time>2017-06-24T08:52:30Z</time>
      </trkpt>
      <trkpt lat="45.95618" lon="4.75666">
        <ele>188</ele>
        <time>2017-06-24T08:52:31Z</time>
      </trkpt>
      <trkpt lat="45.95619" lon="4.75673">
        <ele>187</ele>
        <time>2017-06-24T08:52:32Z</time>
      </trkpt>
      <trkpt lat="45.9562" lon="4.7568">
        <ele>187</ele>
        <time>2017-06-24T08:52:33Z</time>
      </trkpt>
      <trkpt lat="45.95621" lon="4.75688">
        <ele>187</ele>
        <time>2017-06-24T08:52:34Z</time>
      </trkpt>
      <trkpt lat="45.95622" lon="4.75695">
        <ele>187</ele>
        <time>2017-06-24T08:52:35Z</time>
      </trkpt>
      <trkpt lat="45.95623" lon="4.75701">
        <ele>187</ele>
        <time>2017-06-24T08:52:36Z</time>
      </trkpt>
      <trkpt lat="45.95624" lon="4.75708">
        <ele>187</ele>
        <time>2017-06-24T08:52:37Z</time>
      </trkpt>
      <trkpt lat="45.95625" lon="4.75715">
        <ele>187</ele>
        <time>2017-06-24T08:52:38Z</time>
      </trkpt>
      <trkpt lat="45.95627" lon="4.75727">
        <ele>187</ele>
        <time>2017-06-24T08:52:40Z</time>
      </trkpt>
      <trkpt lat="45.95628" lon="4.75733">
        <ele>187</ele>
        <time>2017-06-24T08:52:41Z</time>
      </trkpt>
      <trkpt lat="45.9563" lon="4.75746">
        <ele>187</ele>
        <time>2017-06-24T08:52:43Z</time>
      </trkpt>
      <trkpt lat="45.9563" lon="4.75752">
        <ele>186</ele>
        <time>2017-06-24T08:52:44Z</time>
      </trkpt>
      <trkpt lat="45.95632" lon="4.75764">
        <ele>186</ele>
        <time>2017-06-24T08:52:46Z</time>
      </trkpt>
      <trkpt lat="45.95633" lon="4.7577">
        <ele>185</ele>
        <time>2017-06-24T08:52:47Z</time>
      </trkpt>
      <trkpt lat="45.95634" lon="4.75776">
        <ele>185</ele>
        <time>2017-06-24T08:52:48Z</time>
      </trkpt>
      <trkpt lat="45.95635" lon="4.75783">
        <ele>185</ele>
        <time>2017-06-24T08:52:49Z</time>
      </trkpt>
      <trkpt lat="45.95636" lon="4.7579">
        <ele>185</ele>
        <time>2017-06-24T08:52:50Z</time>
      </trkpt>
      <trkpt lat="45.95638" lon="4.75797">
        <ele>185</ele>
        <time>2017-06-24T08:52:51Z</time>
      </trkpt>
      <trkpt lat="45.95639" lon="4.75805">
        <ele>185</ele>
        <time>2017-06-24T08:52:52Z</time>
      </trkpt>
      <trkpt lat="45.9564" lon="4.75813">
        <ele>185</ele>
        <time>2017-06-24T08:52:53Z</time>
      </trkpt>
      <trkpt lat="45.95642" lon="4.75821">
        <ele>185</ele>
        <time>2017-06-24T08:52:54Z</time>
      </trkpt>
      <trkpt lat="45.95643" lon="4.75829">
        <ele>185</ele>
        <time>2017-06-24T08:52:55Z</time>
      </trkpt>
      <trkpt lat="45.95645" lon="4.75837">
        <ele>184</ele>
        <time>2017-06-24T08:52:56Z</time>
      </trkpt>
      <trkpt lat="45.95647" lon="4.75844">
        <ele>184</ele>
        <time>2017-06-24T08:52:57Z</time>
      </trkpt>
      <trkpt lat="45.95649" lon="4.75851">
        <ele>184</ele>
        <time>2017-06-24T08:52:58Z</time>
      </trkpt>
      <trkpt lat="45.95651" lon="4.75858">
        <ele>184</ele>
        <time>2017-06-24T08:52:59Z</time>
      </trkpt>
      <trkpt lat="45.95653" lon="4.75865">
        <ele>184</ele>
        <time>2017-06-24T08:53:00Z</time>
      </trkpt>
      <trkpt lat="45.95655" lon="4.75872">
        <ele>184</ele>
        <time>2017-06-24T08:53:01Z</time>
      </trkpt>
      <trkpt lat="45.95657" lon="4.75879">
        <ele>184</ele>
        <time>2017-06-24T08:53:02Z</time>
      </trkpt>
      <trkpt lat="45.9566" lon="4.75886">
        <ele>184</ele>
        <time>2017-06-24T08:53:03Z</time>
      </trkpt>
      <trkpt lat="45.95662" lon="4.75893">
        <ele>184</ele>
        <time>2017-06-24T08:53:04Z</time>
      </trkpt>
      <trkpt lat="45.95664" lon="4.759">
        <ele>184</ele>
        <time>2017-06-24T08:53:05Z</time>
      </trkpt>
      <trkpt lat="45.95667" lon="4.75907">
        <ele>185</ele>
        <time>2017-06-24T08:53:06Z</time>
      </trkpt>
      <trkpt lat="45.9567" lon="4.75914">
        <ele>184</ele>
        <time>2017-06-24T08:53:07Z</time>
      </trkpt>
      <trkpt lat="45.95673" lon="4.75921">
        <ele>184</ele>
        <time>2017-06-24T08:53:08Z</time>
      </trkpt>
      <trkpt lat="45.95676" lon="4.75927">
        <ele>185</ele>
        <time>2017-06-24T08:53:09Z</time>
      </trkpt>
      <trkpt lat="45.95678" lon="4.75933">
        <ele>185</ele>
        <time>2017-06-24T08:53:10Z</time>
      </trkpt>
      <trkpt lat="45.95681" lon="4.75939">
        <ele>185</ele>
        <time>2017-06-24T08:53:11Z</time>
      </trkpt>
      <trkpt lat="45.95684" lon="4.75945">
        <ele>185</ele>
        <time>2017-06-24T08:53:12Z</time>
      </trkpt>
      <trkpt lat="45.95687" lon="4.75951">
        <ele>185</ele>
        <time>2017-06-24T08:53:13Z</time>
      </trkpt>
      <trkpt lat="45.95689" lon="4.75957">
        <ele>185</ele>
        <time>2017-06-24T08:53:14Z</time>
      </trkpt>
      <trkpt lat="45.95692" lon="4.75963">
        <ele>185</ele>
        <time>2017-06-24T08:53:15Z</time>
      </trkpt>
      <trkpt lat="45.95695" lon="4.75969">
        <ele>185</ele>
        <time>2017-06-24T08:53:16Z</time>
      </trkpt>
      <trkpt lat="45.95698" lon="4.75974">
        <ele>185</ele>
        <time>2017-06-24T08:53:17Z</time>
      </trkpt>
      <trkpt lat="45.957" lon="4.7598">
        <ele>185</ele>
        <time>2017-06-24T08:53:18Z</time>
      </trkpt>
      <trkpt lat="45.95703" lon="4.75986">
        <ele>185</ele>
        <time>2017-06-24T08:53:19Z</time>
      </trkpt>
      <trkpt lat="45.95706" lon="4.75992">
        <ele>185</ele>
        <time>2017-06-24T08:53:20Z</time>
      </trkpt>
      <trkpt lat="45.95709" lon="4.75999">
        <ele>185</ele>
        <time>2017-06-24T08:53:21Z</time>
      </trkpt>
      <trkpt lat="45.95712" lon="4.76006">
        <ele>184</ele>
        <time>2017-06-24T08:53:22Z</time>
      </trkpt>
      <trkpt lat="45.95715" lon="4.76013">
        <ele>184</ele>
        <time>2017-06-24T08:53:23Z</time>
      </trkpt>
      <trkpt lat="45.95718" lon="4.7602">
        <ele>184</ele>
        <time>2017-06-24T08:53:24Z</time>
      </trkpt>
      <trkpt lat="45.95721" lon="4.76027">
        <ele>184</ele>
        <time>2017-06-24T08:53:25Z</time>
      </trkpt>
      <trkpt lat="45.95724" lon="4.76033">
        <ele>184</ele>
        <time>2017-06-24T08:53:26Z</time>
      </trkpt>
      <trkpt lat="45.95727" lon="4.76039">
        <ele>184</ele>
        <time>2017-06-24T08:53:27Z</time>
      </trkpt>
      <trkpt lat="45.95729" lon="4.76045">
        <ele>184</ele>
        <time>2017-06-24T08:53:28Z</time>
      </trkpt>
      <trkpt lat="45.95732" lon="4.7605">
        <ele>184</ele>
        <time>2017-06-24T08:53:29Z</time>
      </trkpt>
      <trkpt lat="45.95737" lon="4.7606">
        <ele>184</ele>
        <time>2017-06-24T08:53:31Z</time>
      </trkpt>
      <trkpt lat="45.95739" lon="4.76065">
        <ele>184</ele>
        <time>2017-06-24T08:53:32Z</time>
      </trkpt>
      <trkpt lat="45.95741" lon="4.76071">
        <ele>185</ele>
        <time>2017-06-24T08:53:33Z</time>
      </trkpt>
      <trkpt lat="45.95744" lon="4.76077">
        <ele>185</ele>
        <time>2017-06-24T08:53:34Z</time>
      </trkpt>
      <trkpt lat="45.95746" lon="4.76083">
        <ele>185</ele>
        <time>2017-06-24T08:53:35Z</time>
      </trkpt>
      <trkpt lat="45.95748" lon="4.76088">
        <ele>185</ele>
        <time>2017-06-24T08:53:36Z</time>
      </trkpt>
      <trkpt lat="45.9575" lon="4.76094">
        <ele>186</ele>
        <time>2017-06-24T08:53:37Z</time>
      </trkpt>
      <trkpt lat="45.95752" lon="4.76101">
        <ele>186</ele>
        <time>2017-06-24T08:53:38Z</time>
      </trkpt>
      <trkpt lat="45.95754" lon="4.76107">
        <ele>186</ele>
        <time>2017-06-24T08:53:39Z</time>
      </trkpt>
      <trkpt lat="45.95756" lon="4.76114">
        <ele>186</ele>
        <time>2017-06-24T08:53:40Z</time>
      </trkpt>
      <trkpt lat="45.95757" lon="4.76121">
        <ele>186</ele>
        <time>2017-06-24T08:53:41Z</time>
      </trkpt>
      <trkpt lat="45.95758" lon="4.76128">
        <ele>186</ele>
        <time>2017-06-24T08:53:42Z</time>
      </trkpt>
      <trkpt lat="45.95759" lon="4.76135">
        <ele>186</ele>
        <time>2017-06-24T08:53:43Z</time>
      </trkpt>
      <trkpt lat="45.95759" lon="4.76142">
        <ele>186</ele>
        <time>2017-06-24T08:53:44Z</time>
      </trkpt>
      <trkpt lat="45.9576" lon="4.76149">
        <ele>186</ele>
        <time>2017-06-24T08:53:45Z</time>
      </trkpt>
      <trkpt lat="45.95761" lon="4.76155">
        <ele>186</ele>
        <time>2017-06-24T08:53:46Z</time>
      </trkpt>
      <trkpt lat="45.95761" lon="4.76162">
        <ele>186</ele>
        <time>2017-06-24T08:53:47Z</time>
      </trkpt>
      <trkpt lat="45.95762" lon="4.76169">
        <ele>185</ele>
        <time>2017-06-24T08:53:48Z</time>
      </trkpt>
      <trkpt lat="45.95762" lon="4.76176">
        <ele>185</ele>
        <time>2017-06-24T08:53:49Z</time>
      </trkpt>
      <trkpt lat="45.95762" lon="4.76182">
        <ele>186</ele>
        <time>2017-06-24T08:53:50Z</time>
      </trkpt>
      <trkpt lat="45.95762" lon="4.76189">
        <ele>186</ele>
        <time>2017-06-24T08:53:51Z</time>
      </trkpt>
      <trkpt lat="45.95763" lon="4.76196">
        <ele>186</ele>
        <time>2017-06-24T08:53:52Z</time>
      </trkpt>
      <trkpt lat="45.95763" lon="4.76203">
        <ele>186</ele>
        <time>2017-06-24T08:53:53Z</time>
      </trkpt>
      <trkpt lat="45.95764" lon="4.76209">
        <ele>186</ele>
        <time>2017-06-24T08:53:54Z</time>
      </trkpt>
      <trkpt lat="45.95764" lon="4.76217">
        <ele>186</ele>
        <time>2017-06-24T08:53:55Z</time>
      </trkpt>
      <trkpt lat="45.95764" lon="4.76224">
        <ele>186</ele>
        <time>2017-06-24T08:53:56Z</time>
      </trkpt>
      <trkpt lat="45.95765" lon="4.76231">
        <ele>186</ele>
        <time>2017-06-24T08:53:57Z</time>
      </trkpt>
      <trkpt lat="45.95765" lon="4.76238">
        <ele>186</ele>
        <time>2017-06-24T08:53:58Z</time>
      </trkpt>
      <trkpt lat="45.95765" lon="4.76245">
        <ele>185</ele>
        <time>2017-06-24T08:53:59Z</time>
      </trkpt>
      <trkpt lat="45.95765" lon="4.76251">
        <ele>185</ele>
        <time>2017-06-24T08:54:00Z</time>
      </trkpt>
      <trkpt lat="45.95766" lon="4.76258">
        <ele>185</ele>
        <time>2017-06-24T08:54:01Z</time>
      </trkpt>
      <trkpt lat="45.95766" lon="4.76265">
        <ele>185</ele>
        <time>2017-06-24T08:54:02Z</time>
      </trkpt>
      <trkpt lat="45.95766" lon="4.76272">
        <ele>186</ele>
        <time>2017-06-24T08:54:03Z</time>
      </trkpt>
      <trkpt lat="45.95767" lon="4.76279">
        <ele>186</ele>
        <time>2017-06-24T08:54:04Z</time>
      </trkpt>
      <trkpt lat="45.95767" lon="4.76287">
        <ele>186</ele>
        <time>2017-06-24T08:54:05Z</time>
      </trkpt>
      <trkpt lat="45.95768" lon="4.76294">
        <ele>186</ele>
        <time>2017-06-24T08:54:06Z</time>
      </trkpt>
      <trkpt lat="45.95768" lon="4.763">
        <ele>186</ele>
        <time>2017-06-24T08:54:07Z</time>
      </trkpt>
      <trkpt lat="45.95768" lon="4.76307">
        <ele>186</ele>
        <time>2017-06-24T08:54:08Z</time>
      </trkpt>
      <trkpt lat="45.95769" lon="4.76319">
        <ele>185</ele>
        <time>2017-06-24T08:54:10Z</time>
      </trkpt>
      <trkpt lat="45.95769" lon="4.76325">
        <ele>185</ele>
        <time>2017-06-24T08:54:11Z</time>
      </trkpt>
      <trkpt lat="45.9577" lon="4.76332">
        <ele>185</ele>
        <time>2017-06-24T08:54:12Z</time>
      </trkpt>
      <trkpt lat="45.9577" lon="4.76338">
        <ele>186</ele>
        <time>2017-06-24T08:54:13Z</time>
      </trkpt>
      <trkpt lat="45.9577" lon="4.76345">
        <ele>186</ele>
        <time>2017-06-24T08:54:14Z</time>
      </trkpt>
      <trkpt lat="45.9577" lon="4.76353">
        <ele>186</ele>
        <time>2017-06-24T08:54:15Z</time>
      </trkpt>
      <trkpt lat="45.95771" lon="4.7636">
        <ele>186</ele>
        <time>2017-06-24T08:54:16Z</time>
      </trkpt>
      <trkpt lat="45.95771" lon="4.76367">
        <ele>186</ele>
        <time>2017-06-24T08:54:17Z</time>
      </trkpt>
      <trkpt lat="45.95772" lon="4.76375">
        <ele>186</ele>
        <time>2017-06-24T08:54:18Z</time>
      </trkpt>
      <trkpt lat="45.95772" lon="4.76382">
        <ele>186</ele>
        <time>2017-06-24T08:54:19Z</time>
      </trkpt>
      <trkpt lat="45.95773" lon="4.76389">
        <ele>186</ele>
        <time>2017-06-24T08:54:20Z</time>
      </trkpt>
      <trkpt lat="45.95773" lon="4.76396">
        <ele>186</ele>
        <time>2017-06-24T08:54:21Z</time>
      </trkpt>
      <trkpt lat="45.95774" lon="4.76402">
        <ele>186</ele>
        <time>2017-06-24T08:54:22Z</time>
      </trkpt>
      <trkpt lat="45.95775" lon="4.76409">
        <ele>186</ele>
        <time>2017-06-24T08:54:23Z</time>
      </trkpt>
      <trkpt lat="45.95775" lon="4.76415">
        <ele>186</ele>
        <time>2017-06-24T08:54:24Z</time>
      </trkpt>
      <trkpt lat="45.95776" lon="4.76422">
        <ele>186</ele>
        <time>2017-06-24T08:54:25Z</time>
      </trkpt>
      <trkpt lat="45.95777" lon="4.76429">
        <ele>186</ele>
        <time>2017-06-24T08:54:26Z</time>
      </trkpt>
      <trkpt lat="45.95778" lon="4.76435">
        <ele>186</ele>
        <time>2017-06-24T08:54:27Z</time>
      </trkpt>
      <trkpt lat="45.95779" lon="4.76442">
        <ele>186</ele>
        <time>2017-06-24T08:54:28Z</time>
      </trkpt>
      <trkpt lat="45.9578" lon="4.76448">
        <ele>186</ele>
        <time>2017-06-24T08:54:29Z</time>
      </trkpt>
      <trkpt lat="45.95782" lon="4.7646">
        <ele>186</ele>
        <time>2017-06-24T08:54:31Z</time>
      </trkpt>
      <trkpt lat="45.95782" lon="4.76466">
        <ele>186</ele>
        <time>2017-06-24T08:54:32Z</time>
      </trkpt>
      <trkpt lat="45.95784" lon="4.76478">
        <ele>186</ele>
        <time>2017-06-24T08:54:34Z</time>
      </trkpt>
      <trkpt lat="45.95785" lon="4.76485">
        <ele>186</ele>
        <time>2017-06-24T08:54:35Z</time>
      </trkpt>
      <trkpt lat="45.95786" lon="4.76492">
        <ele>186</ele>
        <time>2017-06-24T08:54:36Z</time>
      </trkpt>
      <trkpt lat="45.95787" lon="4.76498">
        <ele>186</ele>
        <time>2017-06-24T08:54:37Z</time>
      </trkpt>
      <trkpt lat="45.95788" lon="4.76505">
        <ele>187</ele>
        <time>2017-06-24T08:54:38Z</time>
      </trkpt>
      <trkpt lat="45.95789" lon="4.76512">
        <ele>187</ele>
        <time>2017-06-24T08:54:39Z</time>
      </trkpt>
      <trkpt lat="45.9579" lon="4.76518">
        <ele>187</ele>
        <time>2017-06-24T08:54:40Z</time>
      </trkpt>
      <trkpt lat="45.95791" lon="4.76524">
        <ele>187</ele>
        <time>2017-06-24T08:54:41Z</time>
      </trkpt>
      <trkpt lat="45.95792" lon="4.76537">
        <ele>187</ele>
        <time>2017-06-24T08:54:43Z</time>
      </trkpt>
      <trkpt lat="45.95793" lon="4.76543">
        <ele>187</ele>
        <time>2017-06-24T08:54:44Z</time>
      </trkpt>
      <trkpt lat="45.95794" lon="4.7655">
        <ele>187</ele>
        <time>2017-06-24T08:54:45Z</time>
      </trkpt>
      <trkpt lat="45.95795" lon="4.76556">
        <ele>187</ele>
        <time>2017-06-24T08:54:46Z</time>
      </trkpt>
      <trkpt lat="45.95796" lon="4.76562">
        <ele>187</ele>
        <time>2017-06-24T08:54:47Z</time>
      </trkpt>
      <trkpt lat="45.95797" lon="4.76569">
        <ele>187</ele>
        <time>2017-06-24T08:54:48Z</time>
      </trkpt>
      <trkpt lat="45.95799" lon="4.76575">
        <ele>187</ele>
        <time>2017-06-24T08:54:49Z</time>
      </trkpt>
      <trkpt lat="45.958" lon="4.76582">
        <ele>187</ele>
        <time>2017-06-24T08:54:50Z</time>
      </trkpt>
      <trkpt lat="45.95801" lon="4.7659">
        <ele>187</ele>
        <time>2017-06-24T08:54:51Z</time>
      </trkpt>
      <trkpt lat="45.95802" lon="4.76598">
        <ele>187</ele>
        <time>2017-06-24T08:54:52Z</time>
      </trkpt>
      <trkpt lat="45.95803" lon="4.76606">
        <ele>188</ele>
        <time>2017-06-24T08:54:53Z</time>
      </trkpt>
      <trkpt lat="45.95804" lon="4.76613">
        <ele>188</ele>
        <time>2017-06-24T08:54:54Z</time>
      </trkpt>
      <trkpt lat="45.95805" lon="4.76621">
        <ele>188</ele>
        <time>2017-06-24T08:54:55Z</time>
      </trkpt>
      <trkpt lat="45.95806" lon="4.76628">
        <ele>188</ele>
        <time>2017-06-24T08:54:56Z</time>
      </trkpt>
      <trkpt lat="45.95807" lon="4.76634">
        <ele>188</ele>
        <time>2017-06-24T08:54:57Z</time>
      </trkpt>
      <trkpt lat="45.95808" lon="4.76641">
        <ele>188</ele>
        <time>2017-06-24T08:54:58Z</time>
      </trkpt>
      <trkpt lat="45.95809" lon="4.76647">
        <ele>188</ele>
        <time>2017-06-24T08:54:59Z</time>
      </trkpt>
      <trkpt lat="45.9581" lon="4.76654">
        <ele>188</ele>
        <time>2017-06-24T08:55:00Z</time>
      </trkpt>
      <trkpt lat="45.95811" lon="4.76661">
        <ele>188</ele>
        <time>2017-06-24T08:55:01Z</time>
      </trkpt>
      <trkpt lat="45.95812" lon="4.76668">
        <ele>189</ele>
        <time>2017-06-24T08:55:02Z</time>
      </trkpt>
      <trkpt lat="45.95813" lon="4.76675">
        <ele>189</ele>
        <time>2017-06-24T08:55:03Z</time>
      </trkpt>
      <trkpt lat="45.95813" lon="4.76681">
        <ele>189</ele>
        <time>2017-06-24T08:55:04Z</time>
      </trkpt>
      <trkpt lat="45.95815" lon="4.76693">
        <ele>189</ele>
        <time>2017-06-24T08:55:06Z</time>
      </trkpt>
      <trkpt lat="45.95816" lon="4.76699">
        <ele>189</ele>
        <time>2017-06-24T08:55:07Z</time>
      </trkpt>
      <trkpt lat="45.95816" lon="4.76706">
        <ele>189</ele>
        <time>2017-06-24T08:55:08Z</time>
      </trkpt>
      <trkpt lat="45.95818" lon="4.76713">
        <ele>189</ele>
        <time>2017-06-24T08:55:09Z</time>
      </trkpt>
      <trkpt lat="45.95819" lon="4.76719">
        <ele>189</ele>
        <time>2017-06-24T08:55:10Z</time>
      </trkpt>
      <trkpt lat="45.95819" lon="4.76726">
        <ele>190</ele>
        <time>2017-06-24T08:55:11Z</time>
      </trkpt>
      <trkpt lat="45.95821" lon="4.76738">
        <ele>190</ele>
        <time>2017-06-24T08:55:13Z</time>
      </trkpt>
      <trkpt lat="45.95823" lon="4.76744">
        <ele>190</ele>
        <time>2017-06-24T08:55:14Z</time>
      </trkpt>
      <trkpt lat="45.95824" lon="4.7675">
        <ele>190</ele>
        <time>2017-06-24T08:55:15Z</time>
      </trkpt>
      <trkpt lat="45.95825" lon="4.76757">
        <ele>191</ele>
        <time>2017-06-24T08:55:16Z</time>
      </trkpt>
      <trkpt lat="45.95826" lon="4.76764">
        <ele>190</ele>
        <time>2017-06-24T08:55:17Z</time>
      </trkpt>
      <trkpt lat="45.95827" lon="4.76771">
        <ele>190</ele>
        <time>2017-06-24T08:55:18Z</time>
      </trkpt>
      <trkpt lat="45.95829" lon="4.76778">
        <ele>190</ele>
        <time>2017-06-24T08:55:19Z</time>
      </trkpt>
      <trkpt lat="45.9583" lon="4.76785">
        <ele>190</ele>
        <time>2017-06-24T08:55:20Z</time>
      </trkpt>
      <trkpt lat="45.9583" lon="4.76791">
        <ele>190</ele>
        <time>2017-06-24T08:55:21Z</time>
      </trkpt>
      <trkpt lat="45.95831" lon="4.76797">
        <ele>190</ele>
        <time>2017-06-24T08:55:22Z</time>
      </trkpt>
      <trkpt lat="45.95831" lon="4.76804">
        <ele>190</ele>
        <time>2017-06-24T08:55:23Z</time>
      </trkpt>
      <trkpt lat="45.95831" lon="4.76811">
        <ele>190</ele>
        <time>2017-06-24T08:55:24Z</time>
      </trkpt>
      <trkpt lat="45.95831" lon="4.76818">
        <ele>190</ele>
        <time>2017-06-24T08:55:25Z</time>
      </trkpt>
      <trkpt lat="45.9583" lon="4.76825">
        <ele>190</ele>
        <time>2017-06-24T08:55:26Z</time>
      </trkpt>
      <trkpt lat="45.95829" lon="4.76832">
        <ele>190</ele>
        <time>2017-06-24T08:55:27Z</time>
      </trkpt>
      <trkpt lat="45.95828" lon="4.76839">
        <ele>190</ele>
        <time>2017-06-24T08:55:28Z</time>
      </trkpt>
      <trkpt lat="45.95827" lon="4.76846">
        <ele>190</ele>
        <time>2017-06-24T08:55:29Z</time>
      </trkpt>
      <trkpt lat="45.95826" lon="4.76853">
        <ele>190</ele>
        <time>2017-06-24T08:55:30Z</time>
      </trkpt>
      <trkpt lat="45.95824" lon="4.76859">
        <ele>189</ele>
        <time>2017-06-24T08:55:31Z</time>
      </trkpt>
      <trkpt lat="45.95822" lon="4.76865">
        <ele>189</ele>
        <time>2017-06-24T08:55:32Z</time>
      </trkpt>
      <trkpt lat="45.9582" lon="4.76872">
        <ele>189</ele>
        <time>2017-06-24T08:55:33Z</time>
      </trkpt>
      <trkpt lat="45.95819" lon="4.76879">
        <ele>189</ele>
        <time>2017-06-24T08:55:34Z</time>
      </trkpt>
      <trkpt lat="45.95817" lon="4.76886">
        <ele>189</ele>
        <time>2017-06-24T08:55:35Z</time>
      </trkpt>
      <trkpt lat="45.95816" lon="4.76893">
        <ele>189</ele>
        <time>2017-06-24T08:55:36Z</time>
      </trkpt>
      <trkpt lat="45.95815" lon="4.76899">
        <ele>189</ele>
        <time>2017-06-24T08:55:37Z</time>
      </trkpt>
      <trkpt lat="45.95814" lon="4.76906">
        <ele>189</ele>
        <time>2017-06-24T08:55:38Z</time>
      </trkpt>
      <trkpt lat="45.95812" lon="4.76913">
        <ele>189</ele>
        <time>2017-06-24T08:55:39Z</time>
      </trkpt>
      <trkpt lat="45.95811" lon="4.76919">
        <ele>189</ele>
        <time>2017-06-24T08:55:40Z</time>
      </trkpt>
      <trkpt lat="45.95808" lon="4.76931">
        <ele>189</ele>
        <time>2017-06-24T08:55:42Z</time>
      </trkpt>
      <trkpt lat="45.95807" lon="4.76937">
        <ele>189</ele>
        <time>2017-06-24T08:55:43Z</time>
      </trkpt>
      <trkpt lat="45.95805" lon="4.76943">
        <ele>189</ele>
        <time>2017-06-24T08:55:44Z</time>
      </trkpt>
      <trkpt lat="45.95804" lon="4.7695">
        <ele>189</ele>
        <time>2017-06-24T08:55:45Z</time>
      </trkpt>
      <trkpt lat="45.95803" lon="4.76957">
        <ele>189</ele>
        <time>2017-06-24T08:55:46Z</time>
      </trkpt>
      <trkpt lat="45.95802" lon="4.76964">
        <ele>189</ele>
        <time>2017-06-24T08:55:47Z</time>
      </trkpt>
      <trkpt lat="45.95801" lon="4.76971">
        <ele>189</ele>
        <time>2017-06-24T08:55:48Z</time>
      </trkpt>
      <trkpt lat="45.958" lon="4.76978">
        <ele>189</ele>
        <time>2017-06-24T08:55:49Z</time>
      </trkpt>
      <trkpt lat="45.958" lon="4.76984">
        <ele>189</ele>
        <time>2017-06-24T08:55:50Z</time>
      </trkpt>
      <trkpt lat="45.958" lon="4.76991">
        <ele>189</ele>
        <time>2017-06-24T08:55:51Z</time>
      </trkpt>
      <trkpt lat="45.958" lon="4.76997">
        <ele>189</ele>
        <time>2017-06-24T08:55:52Z</time>
      </trkpt>
      <trkpt lat="45.95801" lon="4.77004">
        <ele>190</ele>
        <time>2017-06-24T08:55:53Z</time>
      </trkpt>
      <trkpt lat="45.95802" lon="4.77011">
        <ele>190</ele>
        <time>2017-06-24T08:55:54Z</time>
      </trkpt>
      <trkpt lat="45.95804" lon="4.77018">
        <ele>190</ele>
        <time>2017-06-24T08:55:55Z</time>
      </trkpt>
      <trkpt lat="45.95806" lon="4.77025">
        <ele>190</ele>
        <time>2017-06-24T08:55:56Z</time>
      </trkpt>
      <trkpt lat="45.95808" lon="4.77032">
        <ele>190</ele>
        <time>2017-06-24T08:55:57Z</time>
      </trkpt>
      <trkpt lat="45.95811" lon="4.77039">
        <ele>190</ele>
        <time>2017-06-24T08:55:58Z</time>
      </trkpt>
      <trkpt lat="45.95814" lon="4.77045">
        <ele>190</ele>
        <time>2017-06-24T08:55:59Z</time>
      </trkpt>
      <trkpt lat="45.95817" lon="4.77052">
        <ele>190</ele>
        <time>2017-06-24T08:56:00Z</time>
      </trkpt>
      <trkpt lat="45.9582" lon="4.77057">
        <ele>190</ele>
        <time>2017-06-24T08:56:01Z</time>
      </trkpt>
      <trkpt lat="45.95822" lon="4.77063">
        <ele>190</ele>
        <time>2017-06-24T08:56:02Z</time>
      </trkpt>
      <trkpt lat="45.95824" lon="4.77069">
        <ele>191</ele>
        <time>2017-06-24T08:56:03Z</time>
      </trkpt>
      <trkpt lat="45.95826" lon="4.77075">
        <ele>191</ele>
        <time>2017-06-24T08:56:04Z</time>
      </trkpt>
      <trkpt lat="45.95829" lon="4.7708">
        <ele>191</ele>
        <time>2017-06-24T08:56:05Z</time>
      </trkpt>
      <trkpt lat="45.95831" lon="4.77086">
        <ele>192</ele>
        <time>2017-06-24T08:56:06Z</time>
      </trkpt>
      <trkpt lat="45.95834" lon="4.77092">
        <ele>192</ele>
        <time>2017-06-24T08:56:07Z</time>
      </trkpt>
      <trkpt lat="45.95836" lon="4.77099">
        <ele>193</ele>
        <time>2017-06-24T08:56:08Z</time>
      </trkpt>
      <trkpt lat="45.95838" lon="4.77105">
        <ele>193</ele>
        <time>2017-06-24T08:56:09Z</time>
      </trkpt>
      <trkpt lat="45.95841" lon="4.77117">
        <ele>193</ele>
        <time>2017-06-24T08:56:11Z</time>
      </trkpt>
      <trkpt lat="45.95844" lon="4.77123">
        <ele>193</ele>
        <time>2017-06-24T08:56:12Z</time>
      </trkpt>
      <trkpt lat="45.95846" lon="4.77129">
        <ele>193</ele>
        <time>2017-06-24T08:56:13Z</time>
      </trkpt>
      <trkpt lat="45.95848" lon="4.77136">
        <ele>193</ele>
        <time>2017-06-24T08:56:14Z</time>
      </trkpt>
      <trkpt lat="45.9585" lon="4.77143">
        <ele>193</ele>
        <time>2017-06-24T08:56:15Z</time>
      </trkpt>
      <trkpt lat="45.95852" lon="4.77149">
        <ele>192</ele>
        <time>2017-06-24T08:56:16Z</time>
      </trkpt>
      <trkpt lat="45.95855" lon="4.77161">
        <ele>192</ele>
        <time>2017-06-24T08:56:18Z</time>
      </trkpt>
      <trkpt lat="45.95856" lon="4.77167">
        <ele>192</ele>
        <time>2017-06-24T08:56:19Z</time>
      </trkpt>
      <trkpt lat="45.95859" lon="4.77179">
        <ele>192</ele>
        <time>2017-06-24T08:56:21Z</time>
      </trkpt>
      <trkpt lat="45.95861" lon="4.77186">
        <ele>192</ele>
        <time>2017-06-24T08:56:22Z</time>
      </trkpt>
      <trkpt lat="45.95862" lon="4.77193">
        <ele>192</ele>
        <time>2017-06-24T08:56:23Z</time>
      </trkpt>
      <trkpt lat="45.95864" lon="4.772">
        <ele>193</ele>
        <time>2017-06-24T08:56:24Z</time>
      </trkpt>
      <trkpt lat="45.95866" lon="4.77206">
        <ele>193</ele>
        <time>2017-06-24T08:56:25Z</time>
      </trkpt>
      <trkpt lat="45.95867" lon="4.77213">
        <ele>193</ele>
        <time>2017-06-24T08:56:26Z</time>
      </trkpt>
      <trkpt lat="45.95868" lon="4.77219">
        <ele>193</ele>
        <time>2017-06-24T08:56:27Z</time>
      </trkpt>
      <trkpt lat="45.95869" lon="4.77225">
        <ele>193</ele>
        <time>2017-06-24T08:56:28Z</time>
      </trkpt>
      <trkpt lat="45.95872" lon="4.77236">
        <ele>193</ele>
        <time>2017-06-24T08:56:30Z</time>
      </trkpt>
      <trkpt lat="45.95873" lon="4.77242">
        <ele>193</ele>
        <time>2017-06-24T08:56:31Z</time>
      </trkpt>
      <trkpt lat="45.95876" lon="4.77254">
        <ele>193</ele>
        <time>2017-06-24T08:56:33Z</time>
      </trkpt>
      <trkpt lat="45.95877" lon="4.7726">
        <ele>193</ele>
        <time>2017-06-24T08:56:34Z</time>
      </trkpt>
      <trkpt lat="45.95879" lon="4.77266">
        <ele>193</ele>
        <time>2017-06-24T08:56:35Z</time>
      </trkpt>
      <trkpt lat="45.9588" lon="4.77273">
        <ele>193</ele>
        <time>2017-06-24T08:56:36Z</time>
      </trkpt>
      <trkpt lat="45.95882" lon="4.77279">
        <ele>193</ele>
        <time>2017-06-24T08:56:37Z</time>
      </trkpt>
      <trkpt lat="45.95883" lon="4.77286">
        <ele>193</ele>
        <time>2017-06-24T08:56:38Z</time>
      </trkpt>
      <trkpt lat="45.95886" lon="4.77297">
        <ele>193</ele>
        <time>2017-06-24T08:56:40Z</time>
      </trkpt>
      <trkpt lat="45.95888" lon="4.77302">
        <ele>193</ele>
        <time>2017-06-24T08:56:41Z</time>
      </trkpt>
      <trkpt lat="45.95891" lon="4.77314">
        <ele>193</ele>
        <time>2017-06-24T08:56:43Z</time>
      </trkpt>
      <trkpt lat="45.95893" lon="4.7732">
        <ele>193</ele>
        <time>2017-06-24T08:56:44Z</time>
      </trkpt>
      <trkpt lat="45.95896" lon="4.77331">
        <ele>193</ele>
        <time>2017-06-24T08:56:46Z</time>
      </trkpt>
      <trkpt lat="45.95898" lon="4.77336">
        <ele>193</ele>
        <time>2017-06-24T08:56:47Z</time>
      </trkpt>
      <trkpt lat="45.95901" lon="4.77346">
        <ele>193</ele>
        <time>2017-06-24T08:56:49Z</time>
      </trkpt>
      <trkpt lat="45.95902" lon="4.77351">
        <ele>193</ele>
        <time>2017-06-24T08:56:50Z</time>
      </trkpt>
      <trkpt lat="45.95905" lon="4.77362">
        <ele>193</ele>
        <time>2017-06-24T08:56:52Z</time>
      </trkpt>
      <trkpt lat="45.95907" lon="4.77367">
        <ele>193</ele>
        <time>2017-06-24T08:56:53Z</time>
      </trkpt>
      <trkpt lat="45.95911" lon="4.77378">
        <ele>193</ele>
        <time>2017-06-24T08:56:55Z</time>
      </trkpt>
      <trkpt lat="45.95913" lon="4.77384">
        <ele>193</ele>
        <time>2017-06-24T08:56:56Z</time>
      </trkpt>
      <trkpt lat="45.95916" lon="4.77394">
        <ele>193</ele>
        <time>2017-06-24T08:56:58Z</time>
      </trkpt>
      <trkpt lat="45.95918" lon="4.774">
        <ele>196</ele>
        <time>2017-06-24T08:56:59Z</time>
      </trkpt>
      <trkpt lat="45.95922" lon="4.77411">
        <ele>195</ele>
        <time>2017-06-24T08:57:01Z</time>
      </trkpt>
      <trkpt lat="45.95924" lon="4.77416">
        <ele>195</ele>
        <time>2017-06-24T08:57:02Z</time>
      </trkpt>
      <trkpt lat="45.95928" lon="4.77427">
        <ele>195</ele>
        <time>2017-06-24T08:57:04Z</time>
      </trkpt>
      <trkpt lat="45.9593" lon="4.77432">
        <ele>195</ele>
        <time>2017-06-24T08:57:05Z</time>
      </trkpt>
      <trkpt lat="45.95933" lon="4.77443">
        <ele>195</ele>
        <time>2017-06-24T08:57:07Z</time>
      </trkpt>
      <trkpt lat="45.95935" lon="4.77448">
        <ele>195</ele>
        <time>2017-06-24T08:57:08Z</time>
      </trkpt>
      <trkpt lat="45.95938" lon="4.77459">
        <ele>195</ele>
        <time>2017-06-24T08:57:10Z</time>
      </trkpt>
      <trkpt lat="45.9594" lon="4.77464">
        <ele>195</ele>
        <time>2017-06-24T08:57:11Z</time>
      </trkpt>
      <trkpt lat="45.95942" lon="4.7747">
        <ele>195</ele>
        <time>2017-06-24T08:57:12Z</time>
      </trkpt>
      <trkpt lat="45.95944" lon="4.77476">
        <ele>195</ele>
        <time>2017-06-24T08:57:13Z</time>
      </trkpt>
      <trkpt lat="45.95946" lon="4.77482">
        <ele>195</ele>
        <time>2017-06-24T08:57:14Z</time>
      </trkpt>
      <trkpt lat="45.95948" lon="4.77489">
        <ele>195</ele>
        <time>2017-06-24T08:57:15Z</time>
      </trkpt>
      <trkpt lat="45.95951" lon="4.77495">
        <ele>195</ele>
        <time>2017-06-24T08:57:16Z</time>
      </trkpt>
      <trkpt lat="45.95954" lon="4.77501">
        <ele>195</ele>
        <time>2017-06-24T08:57:17Z</time>
      </trkpt>
      <trkpt lat="45.95956" lon="4.77507">
        <ele>195</ele>
        <time>2017-06-24T08:57:18Z</time>
      </trkpt>
      <trkpt lat="45.95959" lon="4.77513">
        <ele>195</ele>
        <time>2017-06-24T08:57:19Z</time>
      </trkpt>
      <trkpt lat="45.95962" lon="4.7752">
        <ele>195</ele>
        <time>2017-06-24T08:57:20Z</time>
      </trkpt>
      <trkpt lat="45.95964" lon="4.77526">
        <ele>195</ele>
        <time>2017-06-24T08:57:21Z</time>
      </trkpt>
      <trkpt lat="45.95969" lon="4.77536">
        <ele>195</ele>
        <time>2017-06-24T08:57:23Z</time>
      </trkpt>
      <trkpt lat="45.95971" lon="4.77541">
        <ele>195</ele>
        <time>2017-06-24T08:57:24Z</time>
      </trkpt>
      <trkpt lat="45.95974" lon="4.7755">
        <ele>195</ele>
        <time>2017-06-24T08:57:26Z</time>
      </trkpt>
      <trkpt lat="45.95976" lon="4.77554">
        <ele>195</ele>
        <time>2017-06-24T08:57:27Z</time>
      </trkpt>
      <trkpt lat="45.9598" lon="4.77564">
        <ele>196</ele>
        <time>2017-06-24T08:57:29Z</time>
      </trkpt>
      <trkpt lat="45.95982" lon="4.77569">
        <ele>196</ele>
        <time>2017-06-24T08:57:30Z</time>
      </trkpt>
      <trkpt lat="45.95984" lon="4.77575">
        <ele>196</ele>
        <time>2017-06-24T08:57:31Z</time>
      </trkpt>
      <trkpt lat="45.95986" lon="4.77582">
        <ele>196</ele>
        <time>2017-06-24T08:57:32Z</time>
      </trkpt>
      <trkpt lat="45.9599" lon="4.77588">
        <ele>196</ele>
        <time>2017-06-24T08:57:33Z</time>
      </trkpt>
      <trkpt lat="45.95993" lon="4.77595">
        <ele>196</ele>
        <time>2017-06-24T08:57:34Z</time>
      </trkpt>
      <trkpt lat="45.95997" lon="4.77601">
        <ele>195</ele>
        <time>2017-06-24T08:57:35Z</time>
      </trkpt>
      <trkpt lat="45.96001" lon="4.77604">
        <ele>198</ele>
        <time>2017-06-24T08:57:36Z</time>
      </trkpt>
      <trkpt lat="45.96008" lon="4.7761">
        <ele>199</ele>
        <time>2017-06-24T08:57:38Z</time>
      </trkpt>
      <trkpt lat="45.96012" lon="4.77614">
        <ele>199</ele>
        <time>2017-06-24T08:57:39Z</time>
      </trkpt>
      <trkpt lat="45.96015" lon="4.77618">
        <ele>199</ele>
        <time>2017-06-24T08:57:40Z</time>
      </trkpt>
      <trkpt lat="45.96019" lon="4.77622">
        <ele>199</ele>
        <time>2017-06-24T08:57:41Z</time>
      </trkpt>
      <trkpt lat="45.96023" lon="4.77626">
        <ele>199</ele>
        <time>2017-06-24T08:57:42Z</time>
      </trkpt>
      <trkpt lat="45.96026" lon="4.7763">
        <ele>199</ele>
        <time>2017-06-24T08:57:43Z</time>
      </trkpt>
      <trkpt lat="45.96033" lon="4.77637">
        <ele>199</ele>
        <time>2017-06-24T08:57:45Z</time>
      </trkpt>
      <trkpt lat="45.96036" lon="4.77641">
        <ele>199</ele>
        <time>2017-06-24T08:57:46Z</time>
      </trkpt>
      <trkpt lat="45.96042" lon="4.77649">
        <ele>199</ele>
        <time>2017-06-24T08:57:48Z</time>
      </trkpt>
      <trkpt lat="45.96045" lon="4.77653">
        <ele>199</ele>
        <time>2017-06-24T08:57:49Z</time>
      </trkpt>
      <trkpt lat="45.96052" lon="4.77661">
        <ele>200</ele>
        <time>2017-06-24T08:57:51Z</time>
      </trkpt>
      <trkpt lat="45.96055" lon="4.77666">
        <ele>200</ele>
        <time>2017-06-24T08:57:52Z</time>
      </trkpt>
      <trkpt lat="45.96061" lon="4.77675">
        <ele>198</ele>
        <time>2017-06-24T08:57:54Z</time>
      </trkpt>
      <trkpt lat="45.96065" lon="4.7768">
        <ele>198</ele>
        <time>2017-06-24T08:57:55Z</time>
      </trkpt>
      <trkpt lat="45.96068" lon="4.77685">
        <ele>198</ele>
        <time>2017-06-24T08:57:56Z</time>
      </trkpt>
      <trkpt lat="45.96073" lon="4.77691">
        <ele>197</ele>
        <time>2017-06-24T08:57:57Z</time>
      </trkpt>
      <trkpt lat="45.96076" lon="4.77697">
        <ele>197</ele>
        <time>2017-06-24T08:57:58Z</time>
      </trkpt>
      <trkpt lat="45.9608" lon="4.77703">
        <ele>197</ele>
        <time>2017-06-24T08:57:59Z</time>
      </trkpt>
      <trkpt lat="45.96083" lon="4.7771">
        <ele>197</ele>
        <time>2017-06-24T08:58:00Z</time>
      </trkpt>
      <trkpt lat="45.96087" lon="4.77716">
        <ele>199</ele>
        <time>2017-06-24T08:58:01Z</time>
      </trkpt>
      <trkpt lat="45.9609" lon="4.77721">
        <ele>199</ele>
        <time>2017-06-24T08:58:02Z</time>
      </trkpt>
      <trkpt lat="45.96093" lon="4.77727">
        <ele>199</ele>
        <time>2017-06-24T08:58:03Z</time>
      </trkpt>
      <trkpt lat="45.96096" lon="4.77732">
        <ele>198</ele>
        <time>2017-06-24T08:58:04Z</time>
      </trkpt>
      <trkpt lat="45.96099" lon="4.77737">
        <ele>198</ele>
        <time>2017-06-24T08:58:05Z</time>
      </trkpt>
      <trkpt lat="45.96102" lon="4.77742">
        <ele>198</ele>
        <time>2017-06-24T08:58:06Z</time>
      </trkpt>
      <trkpt lat="45.96105" lon="4.77747">
        <ele>198</ele>
        <time>2017-06-24T08:58:07Z</time>
      </trkpt>
      <trkpt lat="45.96111" lon="4.77756">
        <ele>197</ele>
        <time>2017-06-24T08:58:09Z</time>
      </trkpt>
      <trkpt lat="45.96113" lon="4.77761">
        <ele>197</ele>
        <time>2017-06-24T08:58:10Z</time>
      </trkpt>
      <trkpt lat="45.96119" lon="4.7777">
        <ele>197</ele>
        <time>2017-06-24T08:58:12Z</time>
      </trkpt>
      <trkpt lat="45.96122" lon="4.77775">
        <ele>197</ele>
        <time>2017-06-24T08:58:13Z</time>
      </trkpt>
      <trkpt lat="45.96126" lon="4.77784">
        <ele>197</ele>
        <time>2017-06-24T08:58:15Z</time>
      </trkpt>
      <trkpt lat="45.96128" lon="4.77788">
        <ele>197</ele>
        <time>2017-06-24T08:58:16Z</time>
      </trkpt>
      <trkpt lat="45.96134" lon="4.77796">
        <ele>198</ele>
        <time>2017-06-24T08:58:18Z</time>
      </trkpt>
      <trkpt lat="45.96136" lon="4.778">
        <ele>198</ele>
        <time>2017-06-24T08:58:19Z</time>
      </trkpt>
      <trkpt lat="45.96141" lon="4.77809">
        <ele>198</ele>
        <time>2017-06-24T08:58:21Z</time>
      </trkpt>
      <trkpt lat="45.96144" lon="4.77813">
        <ele>198</ele>
        <time>2017-06-24T08:58:22Z</time>
      </trkpt>
      <trkpt lat="45.96147" lon="4.7782">
        <ele>198</ele>
        <time>2017-06-24T08:58:24Z</time>
      </trkpt>
      <trkpt lat="45.9615" lon="4.77824">
        <ele>198</ele>
        <time>2017-06-24T08:58:25Z</time>
      </trkpt>
      <trkpt lat="45.96152" lon="4.77829">
        <ele>198</ele>
        <time>2017-06-24T08:58:26Z</time>
      </trkpt>
      <trkpt lat="45.96155" lon="4.77834">
        <ele>197</ele>
        <time>2017-06-24T08:58:27Z</time>
      </trkpt>
      <trkpt lat="45.96159" lon="4.7784">
        <ele>197</ele>
        <time>2017-06-24T08:58:28Z</time>
      </trkpt>
      <trkpt lat="45.96162" lon="4.77846">
        <ele>197</ele>
        <time>2017-06-24T08:58:29Z</time>
      </trkpt>
      <trkpt lat="45.96166" lon="4.77852">
        <ele>196</ele>
        <time>2017-06-24T08:58:30Z</time>
      </trkpt>
      <trkpt lat="45.9617" lon="4.77859">
        <ele>201</ele>
        <time>2017-06-24T08:58:31Z</time>
      </trkpt>
      <trkpt lat="45.96174" lon="4.77865">
        <ele>201</ele>
        <time>2017-06-24T08:58:32Z</time>
      </trkpt>
      <trkpt lat="45.96178" lon="4.77871">
        <ele>201</ele>
        <time>2017-06-24T08:58:33Z</time>
      </trkpt>
      <trkpt lat="45.96182" lon="4.77876">
        <ele>201</ele>
        <time>2017-06-24T08:58:34Z</time>
      </trkpt>
      <trkpt lat="45.96186" lon="4.77882">
        <ele>201</ele>
        <time>2017-06-24T08:58:35Z</time>
      </trkpt>
      <trkpt lat="45.96189" lon="4.77887">
        <ele>201</ele>
        <time>2017-06-24T08:58:36Z</time>
      </trkpt>
      <trkpt lat="45.96193" lon="4.77892">
        <ele>201</ele>
        <time>2017-06-24T08:58:37Z</time>
      </trkpt>
      <trkpt lat="45.96198" lon="4.77901">
        <ele>201</ele>
        <time>2017-06-24T08:58:39Z</time>
      </trkpt>
      <trkpt lat="45.96201" lon="4.77906">
        <ele>201</ele>
        <time>2017-06-24T08:58:40Z</time>
      </trkpt>
      <trkpt lat="45.96204" lon="4.77912">
        <ele>202</ele>
        <time>2017-06-24T08:58:41Z</time>
      </trkpt>
      <trkpt lat="45.96207" lon="4.77918">
        <ele>199</ele>
        <time>2017-06-24T08:58:42Z</time>
      </trkpt>
      <trkpt lat="45.96211" lon="4.77924">
        <ele>199</ele>
        <time>2017-06-24T08:58:43Z</time>
      </trkpt>
      <trkpt lat="45.96215" lon="4.77929">
        <ele>199</ele>
        <time>2017-06-24T08:58:44Z</time>
      </trkpt>
      <trkpt lat="45.96219" lon="4.77935">
        <ele>200</ele>
        <time>2017-06-24T08:58:45Z</time>
      </trkpt>
      <trkpt lat="45.96223" lon="4.77939">
        <ele>200</ele>
        <time>2017-06-24T08:58:46Z</time>
      </trkpt>
      <trkpt lat="45.96226" lon="4.77944">
        <ele>200</ele>
        <time>2017-06-24T08:58:47Z</time>
      </trkpt>
      <trkpt lat="45.9623" lon="4.77948">
        <ele>200</ele>
        <time>2017-06-24T08:58:48Z</time>
      </trkpt>
      <trkpt lat="45.96234" lon="4.77952">
        <ele>199</ele>
        <time>2017-06-24T08:58:49Z</time>
      </trkpt>
      <trkpt lat="45.96238" lon="4.77957">
        <ele>199</ele>
        <time>2017-06-24T08:58:50Z</time>
      </trkpt>
      <trkpt lat="45.96241" lon="4.77961">
        <ele>199</ele>
        <time>2017-06-24T08:58:51Z</time>
      </trkpt>
      <trkpt lat="45.96245" lon="4.77965">
        <ele>199</ele>
        <time>2017-06-24T08:58:52Z</time>
      </trkpt>
      <trkpt lat="45.9625" lon="4.7797">
        <ele>198</ele>
        <time>2017-06-24T08:58:53Z</time>
      </trkpt>
      <trkpt lat="45.96254" lon="4.77973">
        <ele>203</ele>
        <time>2017-06-24T08:58:54Z</time>
      </trkpt>
      <trkpt lat="45.96258" lon="4.77977">
        <ele>202</ele>
        <time>2017-06-24T08:58:55Z</time>
      </trkpt>
      <trkpt lat="45.96262" lon="4.77981">
        <ele>202</ele>
        <time>2017-06-24T08:58:56Z</time>
      </trkpt>
      <trkpt lat="45.96268" lon="4.77987">
        <ele>202</ele>
        <time>2017-06-24T08:58:58Z</time>
      </trkpt>
      <trkpt lat="45.96271" lon="4.77989">
        <ele>202</ele>
        <time>2017-06-24T08:58:59Z</time>
      </trkpt>
      <trkpt lat="45.96275" lon="4.77993">
        <ele>203</ele>
        <time>2017-06-24T08:59:00Z</time>
      </trkpt>
      <trkpt lat="45.96279" lon="4.77996">
        <ele>203</ele>
        <time>2017-06-24T08:59:01Z</time>
      </trkpt>
      <trkpt lat="45.96283" lon="4.78001">
        <ele>198</ele>
        <time>2017-06-24T08:59:02Z</time>
      </trkpt>
      <trkpt lat="45.96288" lon="4.78006">
        <ele>199</ele>
        <time>2017-06-24T08:59:03Z</time>
      </trkpt>
      <trkpt lat="45.96292" lon="4.78011">
        <ele>199</ele>
        <time>2017-06-24T08:59:04Z</time>
      </trkpt>
      <trkpt lat="45.96297" lon="4.78016">
        <ele>199</ele>
        <time>2017-06-24T08:59:05Z</time>
      </trkpt>
      <trkpt lat="45.96301" lon="4.7802">
        <ele>199</ele>
        <time>2017-06-24T08:59:06Z</time>
      </trkpt>
      <trkpt lat="45.96305" lon="4.78025">
        <ele>199</ele>
        <time>2017-06-24T08:59:07Z</time>
      </trkpt>
      <trkpt lat="45.96311" lon="4.78031">
        <ele>199</ele>
        <time>2017-06-24T08:59:08Z</time>
      </trkpt>
      <trkpt lat="45.96315" lon="4.78036">
        <ele>199</ele>
        <time>2017-06-24T08:59:09Z</time>
      </trkpt>
      <trkpt lat="45.96321" lon="4.78044">
        <ele>199</ele>
        <time>2017-06-24T08:59:11Z</time>
      </trkpt>
      <trkpt lat="45.96324" lon="4.78048">
        <ele>199</ele>
        <time>2017-06-24T08:59:12Z</time>
      </trkpt>
      <trkpt lat="45.96328" lon="4.78052">
        <ele>199</ele>
        <time>2017-06-24T08:59:13Z</time>
      </trkpt>
      <trkpt lat="45.96332" lon="4.78057">
        <ele>199</ele>
        <time>2017-06-24T08:59:14Z</time>
      </trkpt>
      <trkpt lat="45.96335" lon="4.78061">
        <ele>202</ele>
        <time>2017-06-24T08:59:15Z</time>
      </trkpt>
      <trkpt lat="45.96339" lon="4.78066">
        <ele>201</ele>
        <time>2017-06-24T08:59:16Z</time>
      </trkpt>
      <trkpt lat="45.96344" lon="4.78071">
        <ele>201</ele>
        <time>2017-06-24T08:59:17Z</time>
      </trkpt>
      <trkpt lat="45.96348" lon="4.78076">
        <ele>201</ele>
        <time>2017-06-24T08:59:18Z</time>
      </trkpt>
      <trkpt lat="45.96353" lon="4.78081">
        <ele>201</ele>
        <time>2017-06-24T08:59:19Z</time>
      </trkpt>
      <trkpt lat="45.96357" lon="4.78086">
        <ele>199</ele>
        <time>2017-06-24T08:59:20Z</time>
      </trkpt>
      <trkpt lat="45.96361" lon="4.7809">
        <ele>199</ele>
        <time>2017-06-24T08:59:21Z</time>
      </trkpt>
      <trkpt lat="45.96365" lon="4.78093">
        <ele>199</ele>
        <time>2017-06-24T08:59:22Z</time>
      </trkpt>
      <trkpt lat="45.96372" lon="4.78101">
        <ele>199</ele>
        <time>2017-06-24T08:59:24Z</time>
      </trkpt>
      <trkpt lat="45.96376" lon="4.78104">
        <ele>199</ele>
        <time>2017-06-24T08:59:25Z</time>
      </trkpt>
      <trkpt lat="45.96383" lon="4.78111">
        <ele>200</ele>
        <time>2017-06-24T08:59:27Z</time>
      </trkpt>
      <trkpt lat="45.96386" lon="4.78115">
        <ele>200</ele>
        <time>2017-06-24T08:59:28Z</time>
      </trkpt>
      <trkpt lat="45.96393" lon="4.78122">
        <ele>200</ele>
        <time>2017-06-24T08:59:30Z</time>
      </trkpt>
      <trkpt lat="45.96396" lon="4.78126">
        <ele>199</ele>
        <time>2017-06-24T08:59:31Z</time>
      </trkpt>
      <trkpt lat="45.964" lon="4.78129">
        <ele>199</ele>
        <time>2017-06-24T08:59:32Z</time>
      </trkpt>
      <trkpt lat="45.96404" lon="4.78133">
        <ele>199</ele>
        <time>2017-06-24T08:59:33Z</time>
      </trkpt>
      <trkpt lat="45.96408" lon="4.78137">
        <ele>199</ele>
        <time>2017-06-24T08:59:34Z</time>
      </trkpt>
      <trkpt lat="45.96412" lon="4.7814">
        <ele>199</ele>
        <time>2017-06-24T08:59:35Z</time>
      </trkpt>
      <trkpt lat="45.96417" lon="4.78143">
        <ele>199</ele>
        <time>2017-06-24T08:59:36Z</time>
      </trkpt>
      <trkpt lat="45.96421" lon="4.78147">
        <ele>202</ele>
        <time>2017-06-24T08:59:37Z</time>
      </trkpt>
      <trkpt lat="45.96425" lon="4.78152">
        <ele>202</ele>
        <time>2017-06-24T08:59:38Z</time>
      </trkpt>
      <trkpt lat="45.96431" lon="4.78156">
        <ele>202</ele>
        <time>2017-06-24T08:59:39Z</time>
      </trkpt>
      <trkpt lat="45.96435" lon="4.78161">
        <ele>202</ele>
        <time>2017-06-24T08:59:40Z</time>
      </trkpt>
      <trkpt lat="45.9644" lon="4.78164">
        <ele>202</ele>
        <time>2017-06-24T08:59:41Z</time>
      </trkpt>
      <trkpt lat="45.96447" lon="4.78172">
        <ele>199</ele>
        <time>2017-06-24T08:59:43Z</time>
      </trkpt>
      <trkpt lat="45.96451" lon="4.78176">
        <ele>199</ele>
        <time>2017-06-24T08:59:44Z</time>
      </trkpt>
      <trkpt lat="45.96458" lon="4.78183">
        <ele>200</ele>
        <time>2017-06-24T08:59:46Z</time>
      </trkpt>
      <trkpt lat="45.96462" lon="4.78187">
        <ele>200</ele>
        <time>2017-06-24T08:59:47Z</time>
      </trkpt>
      <trkpt lat="45.96466" lon="4.7819">
        <ele>200</ele>
        <time>2017-06-24T08:59:48Z</time>
      </trkpt>
      <trkpt lat="45.9647" lon="4.78192">
        <ele>200</ele>
        <time>2017-06-24T08:59:49Z</time>
      </trkpt>
      <trkpt lat="45.96475" lon="4.78194">
        <ele>200</ele>
        <time>2017-06-24T08:59:50Z</time>
      </trkpt>
      <trkpt lat="45.9648" lon="4.78197">
        <ele>200</ele>
        <time>2017-06-24T08:59:51Z</time>
      </trkpt>
      <trkpt lat="45.96484" lon="4.782">
        <ele>200</ele>
        <time>2017-06-24T08:59:52Z</time>
      </trkpt>
      <trkpt lat="45.96489" lon="4.78202">
        <ele>200</ele>
        <time>2017-06-24T08:59:53Z</time>
      </trkpt>
      <trkpt lat="45.96497" lon="4.78207">
        <ele>200</ele>
        <time>2017-06-24T08:59:55Z</time>
      </trkpt>
      <trkpt lat="45.965" lon="4.78211">
        <ele>200</ele>
        <time>2017-06-24T08:59:56Z</time>
      </trkpt>
      <trkpt lat="45.96506" lon="4.7822">
        <ele>204</ele>
        <time>2017-06-24T08:59:58Z</time>
      </trkpt>
      <trkpt lat="45.96509" lon="4.78225">
        <ele>204</ele>
        <time>2017-06-24T08:59:59Z</time>
      </trkpt>
      <trkpt lat="45.96515" lon="4.78233">
        <ele>203</ele>
        <time>2017-06-24T09:00:01Z</time>
      </trkpt>
      <trkpt lat="45.96518" lon="4.78238">
        <ele>203</ele>
        <time>2017-06-24T09:00:02Z</time>
      </trkpt>
      <trkpt lat="45.96524" lon="4.78247">
        <ele>203</ele>
        <time>2017-06-24T09:00:04Z</time>
      </trkpt>
      <trkpt lat="45.96526" lon="4.78252">
        <ele>200</ele>
        <time>2017-06-24T09:00:05Z</time>
      </trkpt>
      <trkpt lat="45.96532" lon="4.78261">
        <ele>200</ele>
        <time>2017-06-24T09:00:07Z</time>
      </trkpt>
      <trkpt lat="45.96535" lon="4.78266">
        <ele>200</ele>
        <time>2017-06-24T09:00:08Z</time>
      </trkpt>
      <trkpt lat="45.96541" lon="4.78274">
        <ele>200</ele>
        <time>2017-06-24T09:00:10Z</time>
      </trkpt>
      <trkpt lat="45.96543" lon="4.78277">
        <ele>200</ele>
        <time>2017-06-24T09:00:11Z</time>
      </trkpt>
      <trkpt lat="45.96546" lon="4.78282">
        <ele>200</ele>
        <time>2017-06-24T09:00:12Z</time>
      </trkpt>
      <trkpt lat="45.9655" lon="4.78286">
        <ele>200</ele>
        <time>2017-06-24T09:00:13Z</time>
      </trkpt>
      <trkpt lat="45.96554" lon="4.7829">
        <ele>200</ele>
        <time>2017-06-24T09:00:14Z</time>
      </trkpt>
      <trkpt lat="45.96558" lon="4.78294">
        <ele>200</ele>
        <time>2017-06-24T09:00:15Z</time>
      </trkpt>
      <trkpt lat="45.96562" lon="4.78298">
        <ele>200</ele>
        <time>2017-06-24T09:00:16Z</time>
      </trkpt>
      <trkpt lat="45.96566" lon="4.78302">
        <ele>200</ele>
        <time>2017-06-24T09:00:17Z</time>
      </trkpt>
      <trkpt lat="45.96572" lon="4.78309">
        <ele>200</ele>
        <time>2017-06-24T09:00:19Z</time>
      </trkpt>
      <trkpt lat="45.96575" lon="4.78312">
        <ele>199</ele>
        <time>2017-06-24T09:00:20Z</time>
      </trkpt>
      <trkpt lat="45.96582" lon="4.7832">
        <ele>199</ele>
        <time>2017-06-24T09:00:22Z</time>
      </trkpt>
      <trkpt lat="45.96586" lon="4.78325">
        <ele>201</ele>
        <time>2017-06-24T09:00:23Z</time>
      </trkpt>
      <trkpt lat="45.9659" lon="4.78328">
        <ele>200</ele>
        <time>2017-06-24T09:00:24Z</time>
      </trkpt>
      <trkpt lat="45.96594" lon="4.78333">
        <ele>201</ele>
        <time>2017-06-24T09:00:25Z</time>
      </trkpt>
      <trkpt lat="45.96599" lon="4.78337">
        <ele>199</ele>
        <time>2017-06-24T09:00:26Z</time>
      </trkpt>
      <trkpt lat="45.96604" lon="4.78342">
        <ele>200</ele>
        <time>2017-06-24T09:00:27Z</time>
      </trkpt>
      <trkpt lat="45.96608" lon="4.78346">
        <ele>200</ele>
        <time>2017-06-24T09:00:28Z</time>
      </trkpt>
      <trkpt lat="45.96612" lon="4.7835">
        <ele>200</ele>
        <time>2017-06-24T09:00:29Z</time>
      </trkpt>
      <trkpt lat="45.96616" lon="4.78354">
        <ele>201</ele>
        <time>2017-06-24T09:00:30Z</time>
      </trkpt>
      <trkpt lat="45.9662" lon="4.78357">
        <ele>201</ele>
        <time>2017-06-24T09:00:31Z</time>
      </trkpt>
      <trkpt lat="45.96627" lon="4.78364">
        <ele>201</ele>
        <time>2017-06-24T09:00:33Z</time>
      </trkpt>
      <trkpt lat="45.9663" lon="4.78368">
        <ele>201</ele>
        <time>2017-06-24T09:00:34Z</time>
      </trkpt>
      <trkpt lat="45.96637" lon="4.78374">
        <ele>201</ele>
        <time>2017-06-24T09:00:36Z</time>
      </trkpt>
      <trkpt lat="45.9664" lon="4.78377">
        <ele>201</ele>
        <time>2017-06-24T09:00:37Z</time>
      </trkpt>
      <trkpt lat="45.96647" lon="4.78383">
        <ele>201</ele>
        <time>2017-06-24T09:00:39Z</time>
      </trkpt>
      <trkpt lat="45.96651" lon="4.78386">
        <ele>201</ele>
        <time>2017-06-24T09:00:40Z</time>
      </trkpt>
      <trkpt lat="45.96658" lon="4.78392">
        <ele>201</ele>
        <time>2017-06-24T09:00:42Z</time>
      </trkpt>
      <trkpt lat="45.96661" lon="4.78395">
        <ele>201</ele>
        <time>2017-06-24T09:00:43Z</time>
      </trkpt>
      <trkpt lat="45.96667" lon="4.78403">
        <ele>203</ele>
        <time>2017-06-24T09:00:45Z</time>
      </trkpt>
      <trkpt lat="45.9667" lon="4.78406">
        <ele>203</ele>
        <time>2017-06-24T09:00:46Z</time>
      </trkpt>
      <trkpt lat="45.96677" lon="4.78412">
        <ele>203</ele>
        <time>2017-06-24T09:00:48Z</time>
      </trkpt>
      <trkpt lat="45.9668" lon="4.78415">
        <ele>203</ele>
        <time>2017-06-24T09:00:49Z</time>
      </trkpt>
      <trkpt lat="45.96687" lon="4.7842">
        <ele>202</ele>
        <time>2017-06-24T09:00:51Z</time>
      </trkpt>
      <trkpt lat="45.9669" lon="4.78423">
        <ele>202</ele>
        <time>2017-06-24T09:00:52Z</time>
      </trkpt>
      <trkpt lat="45.96695" lon="4.78429">
        <ele>202</ele>
        <time>2017-06-24T09:00:54Z</time>
      </trkpt>
      <trkpt lat="45.96697" lon="4.78432">
        <ele>203</ele>
        <time>2017-06-24T09:00:55Z</time>
      </trkpt>
      <trkpt lat="45.96702" lon="4.78438">
        <ele>203</ele>
        <time>2017-06-24T09:00:57Z</time>
      </trkpt>
      <trkpt lat="45.96704" lon="4.78442">
        <ele>203</ele>
        <time>2017-06-24T09:00:58Z</time>
      </trkpt>
      <trkpt lat="45.96711" lon="4.78448">
        <ele>203</ele>
        <time>2017-06-24T09:01:00Z</time>
      </trkpt>
      <trkpt lat="45.96714" lon="4.78451">
        <ele>203</ele>
        <time>2017-06-24T09:01:01Z</time>
      </trkpt>
      <trkpt lat="45.96721" lon="4.78458">
        <ele>203</ele>
        <time>2017-06-24T09:01:03Z</time>
      </trkpt>
      <trkpt lat="45.96725" lon="4.78463">
        <ele>203</ele>
        <time>2017-06-24T09:01:04Z</time>
      </trkpt>
      <trkpt lat="45.96729" lon="4.78467">
        <ele>203</ele>
        <time>2017-06-24T09:01:05Z</time>
      </trkpt>
      <trkpt lat="45.96733" lon="4.78471">
        <ele>203</ele>
        <time>2017-06-24T09:01:06Z</time>
      </trkpt>
      <trkpt lat="45.96737" lon="4.78475">
        <ele>203</ele>
        <time>2017-06-24T09:01:07Z</time>
      </trkpt>
      <trkpt lat="45.96741" lon="4.78478">
        <ele>203</ele>
        <time>2017-06-24T09:01:08Z</time>
      </trkpt>
      <trkpt lat="45.96745" lon="4.78481">
        <ele>203</ele>
        <time>2017-06-24T09:01:09Z</time>
      </trkpt>
      <trkpt lat="45.96748" lon="4.78484">
        <ele>203</ele>
        <time>2017-06-24T09:01:10Z</time>
      </trkpt>
      <trkpt lat="45.96755" lon="4.78491">
        <ele>204</ele>
        <time>2017-06-24T09:01:12Z</time>
      </trkpt>
      <trkpt lat="45.96758" lon="4.78495">
        <ele>204</ele>
        <time>2017-06-24T09:01:13Z</time>
      </trkpt>
      <trkpt lat="45.96764" lon="4.78502">
        <ele>203</ele>
        <time>2017-06-24T09:01:15Z</time>
      </trkpt>
      <trkpt lat="45.96767" lon="4.78506">
        <ele>203</ele>
        <time>2017-06-24T09:01:16Z</time>
      </trkpt>
      <trkpt lat="45.96771" lon="4.78511">
        <ele>203</ele>
        <time>2017-06-24T09:01:17Z</time>
      </trkpt>
      <trkpt lat="45.96774" lon="4.78516">
        <ele>203</ele>
        <time>2017-06-24T09:01:18Z</time>
      </trkpt>
      <trkpt lat="45.96779" lon="4.78524">
        <ele>203</ele>
        <time>2017-06-24T09:01:20Z</time>
      </trkpt>
      <trkpt lat="45.96782" lon="4.78528">
        <ele>203</ele>
        <time>2017-06-24T09:01:21Z</time>
      </trkpt>
      <trkpt lat="45.96784" lon="4.78533">
        <ele>203</ele>
        <time>2017-06-24T09:01:22Z</time>
      </trkpt>
      <trkpt lat="45.96787" lon="4.78538">
        <ele>203</ele>
        <time>2017-06-24T09:01:23Z</time>
      </trkpt>
      <trkpt lat="45.96791" lon="4.78544">
        <ele>203</ele>
        <time>2017-06-24T09:01:24Z</time>
      </trkpt>
      <trkpt lat="45.96795" lon="4.78548">
        <ele>203</ele>
        <time>2017-06-24T09:01:25Z</time>
      </trkpt>
      <trkpt lat="45.96798" lon="4.78554">
        <ele>203</ele>
        <time>2017-06-24T09:01:26Z</time>
      </trkpt>
      <trkpt lat="45.96801" lon="4.78559">
        <ele>203</ele>
        <time>2017-06-24T09:01:27Z</time>
      </trkpt>
      <trkpt lat="45.96805" lon="4.78565">
        <ele>203</ele>
        <time>2017-06-24T09:01:28Z</time>
      </trkpt>
      <trkpt lat="45.96809" lon="4.7857">
        <ele>203</ele>
        <time>2017-06-24T09:01:29Z</time>
      </trkpt>
      <trkpt lat="45.96812" lon="4.78576">
        <ele>203</ele>
        <time>2017-06-24T09:01:30Z</time>
      </trkpt>
      <trkpt lat="45.96815" lon="4.7858">
        <ele>203</ele>
        <time>2017-06-24T09:01:31Z</time>
      </trkpt>
      <trkpt lat="45.96818" lon="4.78586">
        <ele>202</ele>
        <time>2017-06-24T09:01:32Z</time>
      </trkpt>
      <trkpt lat="45.9682" lon="4.78592">
        <ele>202</ele>
        <time>2017-06-24T09:01:33Z</time>
      </trkpt>
      <trkpt lat="45.96822" lon="4.78598">
        <ele>202</ele>
        <time>2017-06-24T09:01:34Z</time>
      </trkpt>
      <trkpt lat="45.96824" lon="4.78605">
        <ele>202</ele>
        <time>2017-06-24T09:01:35Z</time>
      </trkpt>
      <trkpt lat="45.96826" lon="4.78611">
        <ele>202</ele>
        <time>2017-06-24T09:01:36Z</time>
      </trkpt>
      <trkpt lat="45.96829" lon="4.78617">
        <ele>202</ele>
        <time>2017-06-24T09:01:37Z</time>
      </trkpt>
      <trkpt lat="45.96831" lon="4.78623">
        <ele>201</ele>
        <time>2017-06-24T09:01:38Z</time>
      </trkpt>
      <trkpt lat="45.96833" lon="4.78629">
        <ele>201</ele>
        <time>2017-06-24T09:01:39Z</time>
      </trkpt>
      <trkpt lat="45.96836" lon="4.78635">
        <ele>203</ele>
        <time>2017-06-24T09:01:40Z</time>
      </trkpt>
      <trkpt lat="45.96839" lon="4.7864">
        <ele>203</ele>
        <time>2017-06-24T09:01:41Z</time>
      </trkpt>
      <trkpt lat="45.96841" lon="4.78645">
        <ele>203</ele>
        <time>2017-06-24T09:01:42Z</time>
      </trkpt>
      <trkpt lat="45.96844" lon="4.78651">
        <ele>203</ele>
        <time>2017-06-24T09:01:43Z</time>
      </trkpt>
      <trkpt lat="45.96847" lon="4.78656">
        <ele>202</ele>
        <time>2017-06-24T09:01:44Z</time>
      </trkpt>
      <trkpt lat="45.96849" lon="4.78662">
        <ele>202</ele>
        <time>2017-06-24T09:01:45Z</time>
      </trkpt>
      <trkpt lat="45.96852" lon="4.78667">
        <ele>202</ele>
        <time>2017-06-24T09:01:46Z</time>
      </trkpt>
      <trkpt lat="45.96855" lon="4.78674">
        <ele>202</ele>
        <time>2017-06-24T09:01:47Z</time>
      </trkpt>
      <trkpt lat="45.96859" lon="4.7868">
        <ele>202</ele>
        <time>2017-06-24T09:01:48Z</time>
      </trkpt>
      <trkpt lat="45.96861" lon="4.78685">
        <ele>202</ele>
        <time>2017-06-24T09:01:49Z</time>
      </trkpt>
      <trkpt lat="45.96865" lon="4.78695">
        <ele>202</ele>
        <time>2017-06-24T09:01:51Z</time>
      </trkpt>
      <trkpt lat="45.96868" lon="4.787">
        <ele>202</ele>
        <time>2017-06-24T09:01:52Z</time>
      </trkpt>
      <trkpt lat="45.96872" lon="4.7871">
        <ele>202</ele>
        <time>2017-06-24T09:01:54Z</time>
      </trkpt>
      <trkpt lat="45.96875" lon="4.78716">
        <ele>202</ele>
        <time>2017-06-24T09:01:55Z</time>
      </trkpt>
      <trkpt lat="45.96879" lon="4.78726">
        <ele>202</ele>
        <time>2017-06-24T09:01:57Z</time>
      </trkpt>
      <trkpt lat="45.96881" lon="4.78731">
        <ele>202</ele>
        <time>2017-06-24T09:01:58Z</time>
      </trkpt>
      <trkpt lat="45.96887" lon="4.78742">
        <ele>202</ele>
        <time>2017-06-24T09:02:00Z</time>
      </trkpt>
      <trkpt lat="45.96889" lon="4.78747">
        <ele>202</ele>
        <time>2017-06-24T09:02:01Z</time>
      </trkpt>
      <trkpt lat="45.96892" lon="4.78756">
        <ele>201</ele>
        <time>2017-06-24T09:02:03Z</time>
      </trkpt>
      <trkpt lat="45.96895" lon="4.78761">
        <ele>201</ele>
        <time>2017-06-24T09:02:04Z</time>
      </trkpt>
      <trkpt lat="45.96897" lon="4.78766">
        <ele>201</ele>
        <time>2017-06-24T09:02:05Z</time>
      </trkpt>
      <trkpt lat="45.969" lon="4.78772">
        <ele>201</ele>
        <time>2017-06-24T09:02:06Z</time>
      </trkpt>
      <trkpt lat="45.96905" lon="4.78781">
        <ele>201</ele>
        <time>2017-06-24T09:02:08Z</time>
      </trkpt>
      <trkpt lat="45.96908" lon="4.78786">
        <ele>201</ele>
        <time>2017-06-24T09:02:09Z</time>
      </trkpt>
      <trkpt lat="45.96913" lon="4.78796">
        <ele>201</ele>
        <time>2017-06-24T09:02:11Z</time>
      </trkpt>
      <trkpt lat="45.96916" lon="4.78801">
        <ele>201</ele>
        <time>2017-06-24T09:02:12Z</time>
      </trkpt>
      <trkpt lat="45.96919" lon="4.78806">
        <ele>203</ele>
        <time>2017-06-24T09:02:13Z</time>
      </trkpt>
      <trkpt lat="45.96923" lon="4.78811">
        <ele>202</ele>
        <time>2017-06-24T09:02:14Z</time>
      </trkpt>
      <trkpt lat="45.96926" lon="4.78816">
        <ele>202</ele>
        <time>2017-06-24T09:02:15Z</time>
      </trkpt>
      <trkpt lat="45.96929" lon="4.7882">
        <ele>202</ele>
        <time>2017-06-24T09:02:16Z</time>
      </trkpt>
      <trkpt lat="45.96935" lon="4.78829">
        <ele>202</ele>
        <time>2017-06-24T09:02:18Z</time>
      </trkpt>
      <trkpt lat="45.96938" lon="4.78833">
        <ele>202</ele>
        <time>2017-06-24T09:02:19Z</time>
      </trkpt>
      <trkpt lat="45.96944" lon="4.78841">
        <ele>202</ele>
        <time>2017-06-24T09:02:21Z</time>
      </trkpt>
      <trkpt lat="45.96948" lon="4.78845">
        <ele>202</ele>
        <time>2017-06-24T09:02:22Z</time>
      </trkpt>
      <trkpt lat="45.96954" lon="4.78853">
        <ele>203</ele>
        <time>2017-06-24T09:02:24Z</time>
      </trkpt>
      <trkpt lat="45.96957" lon="4.78857">
        <ele>203</ele>
        <time>2017-06-24T09:02:25Z</time>
      </trkpt>
      <trkpt lat="45.96963" lon="4.78865">
        <ele>203</ele>
        <time>2017-06-24T09:02:27Z</time>
      </trkpt>
      <trkpt lat="45.96966" lon="4.78869">
        <ele>203</ele>
        <time>2017-06-24T09:02:28Z</time>
      </trkpt>
      <trkpt lat="45.96972" lon="4.78876">
        <ele>203</ele>
        <time>2017-06-24T09:02:30Z</time>
      </trkpt>
      <trkpt lat="45.96975" lon="4.7888">
        <ele>203</ele>
        <time>2017-06-24T09:02:31Z</time>
      </trkpt>
      <trkpt lat="45.96981" lon="4.78887">
        <ele>203</ele>
        <time>2017-06-24T09:02:33Z</time>
      </trkpt>
      <trkpt lat="45.96984" lon="4.78891">
        <ele>203</ele>
        <time>2017-06-24T09:02:34Z</time>
      </trkpt>
      <trkpt lat="45.9699" lon="4.78899">
        <ele>203</ele>
        <time>2017-06-24T09:02:36Z</time>
      </trkpt>
      <trkpt lat="45.96993" lon="4.78903">
        <ele>204</ele>
        <time>2017-06-24T09:02:37Z</time>
      </trkpt>
      <trkpt lat="45.96997" lon="4.78908">
        <ele>204</ele>
        <time>2017-06-24T09:02:38Z</time>
      </trkpt>
      <trkpt lat="45.97" lon="4.78912">
        <ele>205</ele>
        <time>2017-06-24T09:02:39Z</time>
      </trkpt>
      <trkpt lat="45.97004" lon="4.78917">
        <ele>204</ele>
        <time>2017-06-24T09:02:40Z</time>
      </trkpt>
      <trkpt lat="45.97008" lon="4.78922">
        <ele>204</ele>
        <time>2017-06-24T09:02:41Z</time>
      </trkpt>
      <trkpt lat="45.97012" lon="4.78927">
        <ele>205</ele>
        <time>2017-06-24T09:02:42Z</time>
      </trkpt>
      <trkpt lat="45.97016" lon="4.78932">
        <ele>205</ele>
        <time>2017-06-24T09:02:43Z</time>
      </trkpt>
      <trkpt lat="45.97022" lon="4.78941">
        <ele>205</ele>
        <time>2017-06-24T09:02:45Z</time>
      </trkpt>
      <trkpt lat="45.97024" lon="4.78945">
        <ele>205</ele>
        <time>2017-06-24T09:02:46Z</time>
      </trkpt>
      <trkpt lat="45.97029" lon="4.78954">
        <ele>205</ele>
        <time>2017-06-24T09:02:48Z</time>
      </trkpt>
      <trkpt lat="45.97032" lon="4.78958">
        <ele>205</ele>
        <time>2017-06-24T09:02:49Z</time>
      </trkpt>
      <trkpt lat="45.97035" lon="4.78966">
        <ele>205</ele>
        <time>2017-06-24T09:02:51Z</time>
      </trkpt>
      <trkpt lat="45.97038" lon="4.7897">
        <ele>205</ele>
        <time>2017-06-24T09:02:52Z</time>
      </trkpt>
      <trkpt lat="45.97042" lon="4.78979">
        <ele>205</ele>
        <time>2017-06-24T09:02:54Z</time>
      </trkpt>
      <trkpt lat="45.97044" lon="4.78983">
        <ele>205</ele>
        <time>2017-06-24T09:02:55Z</time>
      </trkpt>
      <trkpt lat="45.97048" lon="4.78993">
        <ele>205</ele>
        <time>2017-06-24T09:02:57Z</time>
      </trkpt>
      <trkpt lat="45.9705" lon="4.78998">
        <ele>205</ele>
        <time>2017-06-24T09:02:58Z</time>
      </trkpt>
      <trkpt lat="45.97053" lon="4.79007">
        <ele>203</ele>
        <time>2017-06-24T09:03:00Z</time>
      </trkpt>
      <trkpt lat="45.97054" lon="4.79012">
        <ele>203</ele>
        <time>2017-06-24T09:03:01Z</time>
      </trkpt>
      <trkpt lat="45.97058" lon="4.79023">
        <ele>203</ele>
        <time>2017-06-24T09:03:03Z</time>
      </trkpt>
      <trkpt lat="45.97061" lon="4.79029">
        <ele>203</ele>
        <time>2017-06-24T09:03:04Z</time>
      </trkpt>
      <trkpt lat="45.97064" lon="4.7904">
        <ele>203</ele>
        <time>2017-06-24T09:03:06Z</time>
      </trkpt>
      <trkpt lat="45.97066" lon="4.79047">
        <ele>203</ele>
        <time>2017-06-24T09:03:07Z</time>
      </trkpt>
      <trkpt lat="45.97067" lon="4.79053">
        <ele>203</ele>
        <time>2017-06-24T09:03:08Z</time>
      </trkpt>
      <trkpt lat="45.97068" lon="4.7906">
        <ele>203</ele>
        <time>2017-06-24T09:03:09Z</time>
      </trkpt>
      <trkpt lat="45.97069" lon="4.79067">
        <ele>203</ele>
        <time>2017-06-24T09:03:10Z</time>
      </trkpt>
      <trkpt lat="45.97071" lon="4.79073">
        <ele>204</ele>
        <time>2017-06-24T09:03:11Z</time>
      </trkpt>
      <trkpt lat="45.97073" lon="4.7908">
        <ele>204</ele>
        <time>2017-06-24T09:03:12Z</time>
      </trkpt>
      <trkpt lat="45.97074" lon="4.79087">
        <ele>204</ele>
        <time>2017-06-24T09:03:13Z</time>
      </trkpt>
      <trkpt lat="45.97076" lon="4.79093">
        <ele>204</ele>
        <time>2017-06-24T09:03:14Z</time>
      </trkpt>
      <trkpt lat="45.97077" lon="4.79099">
        <ele>204</ele>
        <time>2017-06-24T09:03:15Z</time>
      </trkpt>
      <trkpt lat="45.97079" lon="4.79106">
        <ele>204</ele>
        <time>2017-06-24T09:03:16Z</time>
      </trkpt>
      <trkpt lat="45.97081" lon="4.79112">
        <ele>204</ele>
        <time>2017-06-24T09:03:17Z</time>
      </trkpt>
      <trkpt lat="45.97085" lon="4.79123">
        <ele>206</ele>
        <time>2017-06-24T09:03:19Z</time>
      </trkpt>
      <trkpt lat="45.97087" lon="4.79128">
        <ele>206</ele>
        <time>2017-06-24T09:03:20Z</time>
      </trkpt>
      <trkpt lat="45.9709" lon="4.79134">
        <ele>206</ele>
        <time>2017-06-24T09:03:21Z</time>
      </trkpt>
      <trkpt lat="45.97093" lon="4.79139">
        <ele>206</ele>
        <time>2017-06-24T09:03:22Z</time>
      </trkpt>
      <trkpt lat="45.97099" lon="4.79148">
        <ele>206</ele>
        <time>2017-06-24T09:03:24Z</time>
      </trkpt>
      <trkpt lat="45.97102" lon="4.79152">
        <ele>206</ele>
        <time>2017-06-24T09:03:25Z</time>
      </trkpt>
      <trkpt lat="45.97107" lon="4.79161">
        <ele>206</ele>
        <time>2017-06-24T09:03:27Z</time>
      </trkpt>
      <trkpt lat="45.97109" lon="4.79165">
        <ele>206</ele>
        <time>2017-06-24T09:03:28Z</time>
      </trkpt>
      <trkpt lat="45.97114" lon="4.79175">
        <ele>205</ele>
        <time>2017-06-24T09:03:30Z</time>
      </trkpt>
      <trkpt lat="45.97116" lon="4.79181">
        <ele>206</ele>
        <time>2017-06-24T09:03:31Z</time>
      </trkpt>
      <trkpt lat="45.9712" lon="4.79189">
        <ele>206</ele>
        <time>2017-06-24T09:03:33Z</time>
      </trkpt>
      <trkpt lat="45.97122" lon="4.79194">
        <ele>206</ele>
        <time>2017-06-24T09:03:34Z</time>
      </trkpt>
      <trkpt lat="45.97126" lon="4.79204">
        <ele>206</ele>
        <time>2017-06-24T09:03:36Z</time>
      </trkpt>
      <trkpt lat="45.97128" lon="4.7921">
        <ele>206</ele>
        <time>2017-06-24T09:03:37Z</time>
      </trkpt>
      <trkpt lat="45.97133" lon="4.79221">
        <ele>205</ele>
        <time>2017-06-24T09:03:39Z</time>
      </trkpt>
      <trkpt lat="45.97135" lon="4.79225">
        <ele>205</ele>
        <time>2017-06-24T09:03:40Z</time>
      </trkpt>
      <trkpt lat="45.9714" lon="4.79236">
        <ele>205</ele>
        <time>2017-06-24T09:03:42Z</time>
      </trkpt>
      <trkpt lat="45.97142" lon="4.79241">
        <ele>205</ele>
        <time>2017-06-24T09:03:43Z</time>
      </trkpt>
      <trkpt lat="45.97146" lon="4.79251">
        <ele>204</ele>
        <time>2017-06-24T09:03:45Z</time>
      </trkpt>
      <trkpt lat="45.97148" lon="4.79256">
        <ele>204</ele>
        <time>2017-06-24T09:03:46Z</time>
      </trkpt>
      <trkpt lat="45.97153" lon="4.79266">
        <ele>204</ele>
        <time>2017-06-24T09:03:48Z</time>
      </trkpt>
      <trkpt lat="45.97156" lon="4.79272">
        <ele>204</ele>
        <time>2017-06-24T09:03:49Z</time>
      </trkpt>
      <trkpt lat="45.97158" lon="4.79277">
        <ele>204</ele>
        <time>2017-06-24T09:03:50Z</time>
      </trkpt>
      <trkpt lat="45.9716" lon="4.79283">
        <ele>204</ele>
        <time>2017-06-24T09:03:51Z</time>
      </trkpt>
      <trkpt lat="45.97162" lon="4.7929">
        <ele>204</ele>
        <time>2017-06-24T09:03:52Z</time>
      </trkpt>
      <trkpt lat="45.97164" lon="4.79296">
        <ele>204</ele>
        <time>2017-06-24T09:03:53Z</time>
      </trkpt>
      <trkpt lat="45.97166" lon="4.79302">
        <ele>204</ele>
        <time>2017-06-24T09:03:54Z</time>
      </trkpt>
      <trkpt lat="45.97168" lon="4.79309">
        <ele>207</ele>
        <time>2017-06-24T09:03:55Z</time>
      </trkpt>
      <trkpt lat="45.9717" lon="4.79315">
        <ele>207</ele>
        <time>2017-06-24T09:03:56Z</time>
      </trkpt>
      <trkpt lat="45.97173" lon="4.7932">
        <ele>206</ele>
        <time>2017-06-24T09:03:57Z</time>
      </trkpt>
      <trkpt lat="45.97178" lon="4.7933">
        <ele>206</ele>
        <time>2017-06-24T09:03:59Z</time>
      </trkpt>
      <trkpt lat="45.9718" lon="4.79335">
        <ele>206</ele>
        <time>2017-06-24T09:04:00Z</time>
      </trkpt>
      <trkpt lat="45.97185" lon="4.79345">
        <ele>207</ele>
        <time>2017-06-24T09:04:02Z</time>
      </trkpt>
      <trkpt lat="45.97187" lon="4.79351">
        <ele>207</ele>
        <time>2017-06-24T09:04:03Z</time>
      </trkpt>
      <trkpt lat="45.9719" lon="4.79357">
        <ele>207</ele>
        <time>2017-06-24T09:04:04Z</time>
      </trkpt>
      <trkpt lat="45.97193" lon="4.79363">
        <ele>207</ele>
        <time>2017-06-24T09:04:05Z</time>
      </trkpt>
      <trkpt lat="45.97196" lon="4.7937">
        <ele>207</ele>
        <time>2017-06-24T09:04:06Z</time>
      </trkpt>
      <trkpt lat="45.97198" lon="4.79376">
        <ele>207</ele>
        <time>2017-06-24T09:04:07Z</time>
      </trkpt>
      <trkpt lat="45.972" lon="4.79382">
        <ele>207</ele>
        <time>2017-06-24T09:04:08Z</time>
      </trkpt>
      <trkpt lat="45.97203" lon="4.79388">
        <ele>208</ele>
        <time>2017-06-24T09:04:09Z</time>
      </trkpt>
      <trkpt lat="45.97207" lon="4.79399">
        <ele>208</ele>
        <time>2017-06-24T09:04:11Z</time>
      </trkpt>
      <trkpt lat="45.97209" lon="4.79403">
        <ele>208</ele>
        <time>2017-06-24T09:04:12Z</time>
      </trkpt>
      <trkpt lat="45.97213" lon="4.79412">
        <ele>208</ele>
        <time>2017-06-24T09:04:14Z</time>
      </trkpt>
      <trkpt lat="45.97215" lon="4.79416">
        <ele>208</ele>
        <time>2017-06-24T09:04:15Z</time>
      </trkpt>
      <trkpt lat="45.97219" lon="4.79425">
        <ele>208</ele>
        <time>2017-06-24T09:04:17Z</time>
      </trkpt>
      <trkpt lat="45.9722" lon="4.79432">
        <ele>208</ele>
        <time>2017-06-24T09:04:18Z</time>
      </trkpt>
      <trkpt lat="45.97222" lon="4.79438">
        <ele>209</ele>
        <time>2017-06-24T09:04:19Z</time>
      </trkpt>
      <trkpt lat="45.97225" lon="4.79443">
        <ele>209</ele>
        <time>2017-06-24T09:04:20Z</time>
      </trkpt>
      <trkpt lat="45.97229" lon="4.79454">
        <ele>209</ele>
        <time>2017-06-24T09:04:22Z</time>
      </trkpt>
      <trkpt lat="45.9723" lon="4.79459">
        <ele>209</ele>
        <time>2017-06-24T09:04:23Z</time>
      </trkpt>
      <trkpt lat="45.97234" lon="4.79469">
        <ele>209</ele>
        <time>2017-06-24T09:04:25Z</time>
      </trkpt>
      <trkpt lat="45.97235" lon="4.79474">
        <ele>209</ele>
        <time>2017-06-24T09:04:26Z</time>
      </trkpt>
      <trkpt lat="45.97237" lon="4.79486">
        <ele>210</ele>
        <time>2017-06-24T09:04:28Z</time>
      </trkpt>
      <trkpt lat="45.97238" lon="4.79491">
        <ele>210</ele>
        <time>2017-06-24T09:04:29Z</time>
      </trkpt>
      <trkpt lat="45.9724" lon="4.79502">
        <ele>210</ele>
        <time>2017-06-24T09:04:31Z</time>
      </trkpt>
      <trkpt lat="45.97242" lon="4.79507">
        <ele>210</ele>
        <time>2017-06-24T09:04:32Z</time>
      </trkpt>
      <trkpt lat="45.97244" lon="4.79517">
        <ele>210</ele>
        <time>2017-06-24T09:04:34Z</time>
      </trkpt>
      <trkpt lat="45.97246" lon="4.79522">
        <ele>210</ele>
        <time>2017-06-24T09:04:35Z</time>
      </trkpt>
      <trkpt lat="45.97249" lon="4.79533">
        <ele>210</ele>
        <time>2017-06-24T09:04:37Z</time>
      </trkpt>
      <trkpt lat="45.97249" lon="4.79539">
        <ele>210</ele>
        <time>2017-06-24T09:04:38Z</time>
      </trkpt>
      <trkpt lat="45.97251" lon="4.7955">
        <ele>214</ele>
        <time>2017-06-24T09:04:40Z</time>
      </trkpt>
      <trkpt lat="45.97251" lon="4.79555">
        <ele>213</ele>
        <time>2017-06-24T09:04:41Z</time>
      </trkpt>
      <trkpt lat="45.97252" lon="4.79565">
        <ele>213</ele>
        <time>2017-06-24T09:04:43Z</time>
      </trkpt>
      <trkpt lat="45.97252" lon="4.7957">
        <ele>212</ele>
        <time>2017-06-24T09:04:44Z</time>
      </trkpt>
      <trkpt lat="45.97252" lon="4.79581">
        <ele>211</ele>
        <time>2017-06-24T09:04:46Z</time>
      </trkpt>
      <trkpt lat="45.97253" lon="4.79587">
        <ele>211</ele>
        <time>2017-06-24T09:04:47Z</time>
      </trkpt>
      <trkpt lat="45.97252" lon="4.796">
        <ele>212</ele>
        <time>2017-06-24T09:04:49Z</time>
      </trkpt>
      <trkpt lat="45.97252" lon="4.79606">
        <ele>213</ele>
        <time>2017-06-24T09:04:50Z</time>
      </trkpt>
      <trkpt lat="45.97251" lon="4.79613">
        <ele>213</ele>
        <time>2017-06-24T09:04:51Z</time>
      </trkpt>
      <trkpt lat="45.9725" lon="4.79619">
        <ele>209</ele>
        <time>2017-06-24T09:04:52Z</time>
      </trkpt>
      <trkpt lat="45.97251" lon="4.79625">
        <ele>213</ele>
        <time>2017-06-24T09:04:53Z</time>
      </trkpt>
      <trkpt lat="45.97252" lon="4.79632">
        <ele>213</ele>
        <time>2017-06-24T09:04:54Z</time>
      </trkpt>
      <trkpt lat="45.97254" lon="4.79638">
        <ele>212</ele>
        <time>2017-06-24T09:04:55Z</time>
      </trkpt>
      <trkpt lat="45.97255" lon="4.79644">
        <ele>212</ele>
        <time>2017-06-24T09:04:56Z</time>
      </trkpt>
      <trkpt lat="45.97254" lon="4.79654">
        <ele>211</ele>
        <time>2017-06-24T09:04:58Z</time>
      </trkpt>
      <trkpt lat="45.97252" lon="4.7966">
        <ele>210</ele>
        <time>2017-06-24T09:04:59Z</time>
      </trkpt>
      <trkpt lat="45.97251" lon="4.79666">
        <ele>208</ele>
        <time>2017-06-24T09:05:00Z</time>
      </trkpt>
      <trkpt lat="45.9725" lon="4.79672">
        <ele>208</ele>
        <time>2017-06-24T09:05:01Z</time>
      </trkpt>
      <trkpt lat="45.97249" lon="4.79679">
        <ele>208</ele>
        <time>2017-06-24T09:05:02Z</time>
      </trkpt>
      <trkpt lat="45.97248" lon="4.79686">
        <ele>208</ele>
        <time>2017-06-24T09:05:03Z</time>
      </trkpt>
      <trkpt lat="45.97247" lon="4.79693">
        <ele>208</ele>
        <time>2017-06-24T09:05:04Z</time>
      </trkpt>
      <trkpt lat="45.97246" lon="4.797">
        <ele>208</ele>
        <time>2017-06-24T09:05:05Z</time>
      </trkpt>
      <trkpt lat="45.97245" lon="4.79707">
        <ele>208</ele>
        <time>2017-06-24T09:05:06Z</time>
      </trkpt>
      <trkpt lat="45.97244" lon="4.79713">
        <ele>209</ele>
        <time>2017-06-24T09:05:07Z</time>
      </trkpt>
      <trkpt lat="45.97244" lon="4.79721">
        <ele>209</ele>
        <time>2017-06-24T09:05:08Z</time>
      </trkpt>
      <trkpt lat="45.97243" lon="4.79728">
        <ele>209</ele>
        <time>2017-06-24T09:05:09Z</time>
      </trkpt>
      <trkpt lat="45.97242" lon="4.79735">
        <ele>209</ele>
        <time>2017-06-24T09:05:10Z</time>
      </trkpt>
      <trkpt lat="45.97241" lon="4.79741">
        <ele>209</ele>
        <time>2017-06-24T09:05:11Z</time>
      </trkpt>
      <trkpt lat="45.97238" lon="4.79754">
        <ele>209</ele>
        <time>2017-06-24T09:05:13Z</time>
      </trkpt>
      <trkpt lat="45.97238" lon="4.7976">
        <ele>209</ele>
        <time>2017-06-24T09:05:14Z</time>
      </trkpt>
      <trkpt lat="45.97237" lon="4.79772">
        <ele>210</ele>
        <time>2017-06-24T09:05:16Z</time>
      </trkpt>
      <trkpt lat="45.97237" lon="4.79778">
        <ele>210</ele>
        <time>2017-06-24T09:05:17Z</time>
      </trkpt>
      <trkpt lat="45.97236" lon="4.7979">
        <ele>210</ele>
        <time>2017-06-24T09:05:19Z</time>
      </trkpt>
      <trkpt lat="45.97235" lon="4.79796">
        <ele>210</ele>
        <time>2017-06-24T09:05:20Z</time>
      </trkpt>
      <trkpt lat="45.97235" lon="4.79803">
        <ele>210</ele>
        <time>2017-06-24T09:05:21Z</time>
      </trkpt>
      <trkpt lat="45.97235" lon="4.79809">
        <ele>210</ele>
        <time>2017-06-24T09:05:22Z</time>
      </trkpt>
      <trkpt lat="45.97234" lon="4.79816">
        <ele>211</ele>
        <time>2017-06-24T09:05:23Z</time>
      </trkpt>
      <trkpt lat="45.97234" lon="4.79822">
        <ele>211</ele>
        <time>2017-06-24T09:05:24Z</time>
      </trkpt>
      <trkpt lat="45.97234" lon="4.79829">
        <ele>211</ele>
        <time>2017-06-24T09:05:25Z</time>
      </trkpt>
      <trkpt lat="45.97234" lon="4.79836">
        <ele>211</ele>
        <time>2017-06-24T09:05:26Z</time>
      </trkpt>
      <trkpt lat="45.97234" lon="4.79843">
        <ele>211</ele>
        <time>2017-06-24T09:05:27Z</time>
      </trkpt>
      <trkpt lat="45.97235" lon="4.79851">
        <ele>211</ele>
        <time>2017-06-24T09:05:28Z</time>
      </trkpt>
      <trkpt lat="45.97237" lon="4.79859">
        <ele>211</ele>
        <time>2017-06-24T09:05:29Z</time>
      </trkpt>
      <trkpt lat="45.97239" lon="4.79866">
        <ele>211</ele>
        <time>2017-06-24T09:05:30Z</time>
      </trkpt>
      <trkpt lat="45.97241" lon="4.79872">
        <ele>211</ele>
        <time>2017-06-24T09:05:31Z</time>
      </trkpt>
      <trkpt lat="45.97242" lon="4.79878">
        <ele>211</ele>
        <time>2017-06-24T09:05:32Z</time>
      </trkpt>
      <trkpt lat="45.97245" lon="4.79888">
        <ele>211</ele>
        <time>2017-06-24T09:05:34Z</time>
      </trkpt>
      <trkpt lat="45.97246" lon="4.79892">
        <ele>211</ele>
        <time>2017-06-24T09:05:35Z</time>
      </trkpt>
      <trkpt lat="45.97249" lon="4.79904">
        <ele>212</ele>
        <time>2017-06-24T09:05:39Z</time>
      </trkpt>
      <trkpt lat="45.9725" lon="4.79907">
        <ele>212</ele>
        <time>2017-06-24T09:05:40Z</time>
      </trkpt>
      <trkpt lat="45.97254" lon="4.79916">
        <ele>212</ele>
        <time>2017-06-24T09:05:44Z</time>
      </trkpt>
      <trkpt lat="45.97257" lon="4.79918">
        <ele>212</ele>
        <time>2017-06-24T09:05:45Z</time>
      </trkpt>
      <trkpt lat="45.97264" lon="4.79918">
        <ele>212</ele>
        <time>2017-06-24T09:05:47Z</time>
      </trkpt>
      <trkpt lat="45.97268" lon="4.79918">
        <ele>212</ele>
        <time>2017-06-24T09:05:48Z</time>
      </trkpt>
      <trkpt lat="45.97276" lon="4.79916">
        <ele>213</ele>
        <time>2017-06-24T09:05:50Z</time>
      </trkpt>
      <trkpt lat="45.97281" lon="4.79916">
        <ele>213</ele>
        <time>2017-06-24T09:05:51Z</time>
      </trkpt>
      <trkpt lat="45.97289" lon="4.79914">
        <ele>213</ele>
        <time>2017-06-24T09:05:53Z</time>
      </trkpt>
      <trkpt lat="45.97292" lon="4.79914">
        <ele>213</ele>
        <time>2017-06-24T09:05:54Z</time>
      </trkpt>
      <trkpt lat="45.97301" lon="4.79914">
        <ele>213</ele>
        <time>2017-06-24T09:05:56Z</time>
      </trkpt>
      <trkpt lat="45.97305" lon="4.79914">
        <ele>213</ele>
        <time>2017-06-24T09:05:57Z</time>
      </trkpt>
      <trkpt lat="45.97313" lon="4.79913">
        <ele>213</ele>
        <time>2017-06-24T09:05:59Z</time>
      </trkpt>
      <trkpt lat="45.97318" lon="4.79912">
        <ele>213</ele>
        <time>2017-06-24T09:06:00Z</time>
      </trkpt>
      <trkpt lat="45.97326" lon="4.79911">
        <ele>213</ele>
        <time>2017-06-24T09:06:02Z</time>
      </trkpt>
      <trkpt lat="45.9733" lon="4.7991">
        <ele>213</ele>
        <time>2017-06-24T09:06:03Z</time>
      </trkpt>
      <trkpt lat="45.97337" lon="4.7991">
        <ele>214</ele>
        <time>2017-06-24T09:06:05Z</time>
      </trkpt>
      <trkpt lat="45.97341" lon="4.79909">
        <ele>215</ele>
        <time>2017-06-24T09:06:06Z</time>
      </trkpt>
      <trkpt lat="45.97348" lon="4.79908">
        <ele>215</ele>
        <time>2017-06-24T09:06:08Z</time>
      </trkpt>
      <trkpt lat="45.97351" lon="4.79907">
        <ele>216</ele>
        <time>2017-06-24T09:06:09Z</time>
      </trkpt>
      <trkpt lat="45.97358" lon="4.79906">
        <ele>216</ele>
        <time>2017-06-24T09:06:11Z</time>
      </trkpt>
      <trkpt lat="45.97362" lon="4.79905">
        <ele>216</ele>
        <time>2017-06-24T09:06:12Z</time>
      </trkpt>
      <trkpt lat="45.97369" lon="4.79905">
        <ele>217</ele>
        <time>2017-06-24T09:06:14Z</time>
      </trkpt>
      <trkpt lat="45.97373" lon="4.79905">
        <ele>217</ele>
        <time>2017-06-24T09:06:15Z</time>
      </trkpt>
      <trkpt lat="45.97379" lon="4.79904">
        <ele>217</ele>
        <time>2017-06-24T09:06:17Z</time>
      </trkpt>
      <trkpt lat="45.97383" lon="4.79903">
        <ele>217</ele>
        <time>2017-06-24T09:06:18Z</time>
      </trkpt>
      <trkpt lat="45.97391" lon="4.79902">
        <ele>217</ele>
        <time>2017-06-24T09:06:20Z</time>
      </trkpt>
      <trkpt lat="45.97395" lon="4.79901">
        <ele>217</ele>
        <time>2017-06-24T09:06:21Z</time>
      </trkpt>
      <trkpt lat="45.97403" lon="4.79901">
        <ele>217</ele>
        <time>2017-06-24T09:06:23Z</time>
      </trkpt>
      <trkpt lat="45.97408" lon="4.799">
        <ele>217</ele>
        <time>2017-06-24T09:06:24Z</time>
      </trkpt>
      <trkpt lat="45.97414" lon="4.79899">
        <ele>217</ele>
        <time>2017-06-24T09:06:26Z</time>
      </trkpt>
      <trkpt lat="45.97418" lon="4.79899">
        <ele>219</ele>
        <time>2017-06-24T09:06:27Z</time>
      </trkpt>
      <trkpt lat="45.97426" lon="4.79897">
        <ele>219</ele>
        <time>2017-06-24T09:06:29Z</time>
      </trkpt>
      <trkpt lat="45.9743" lon="4.79897">
        <ele>219</ele>
        <time>2017-06-24T09:06:30Z</time>
      </trkpt>
      <trkpt lat="45.97435" lon="4.79897">
        <ele>219</ele>
        <time>2017-06-24T09:06:31Z</time>
      </trkpt>
      <trkpt lat="45.97439" lon="4.79897">
        <ele>220</ele>
        <time>2017-06-24T09:06:32Z</time>
      </trkpt>
      <trkpt lat="45.97447" lon="4.79897">
        <ele>220</ele>
        <time>2017-06-24T09:06:34Z</time>
      </trkpt>
      <trkpt lat="45.97451" lon="4.79896">
        <ele>220</ele>
        <time>2017-06-24T09:06:35Z</time>
      </trkpt>
      <trkpt lat="45.9746" lon="4.79895">
        <ele>220</ele>
        <time>2017-06-24T09:06:37Z</time>
      </trkpt>
      <trkpt lat="45.97464" lon="4.79894">
        <ele>221</ele>
        <time>2017-06-24T09:06:38Z</time>
      </trkpt>
      <trkpt lat="45.97472" lon="4.79893">
        <ele>221</ele>
        <time>2017-06-24T09:06:40Z</time>
      </trkpt>
      <trkpt lat="45.97476" lon="4.79893">
        <ele>221</ele>
        <time>2017-06-24T09:06:41Z</time>
      </trkpt>
      <trkpt lat="45.97484" lon="4.79892">
        <ele>221</ele>
        <time>2017-06-24T09:06:43Z</time>
      </trkpt>
      <trkpt lat="45.97487" lon="4.79892">
        <ele>221</ele>
        <time>2017-06-24T09:06:44Z</time>
      </trkpt>
      <trkpt lat="45.97494" lon="4.79891">
        <ele>221</ele>
        <time>2017-06-24T09:06:46Z</time>
      </trkpt>
      <trkpt lat="45.97498" lon="4.7989">
        <ele>221</ele>
        <time>2017-06-24T09:06:47Z</time>
      </trkpt>
      <trkpt lat="45.97505" lon="4.7989">
        <ele>221</ele>
        <time>2017-06-24T09:06:49Z</time>
      </trkpt>
      <trkpt lat="45.97509" lon="4.7989">
        <ele>221</ele>
        <time>2017-06-24T09:06:50Z</time>
      </trkpt>
      <trkpt lat="45.97516" lon="4.79889">
        <ele>221</ele>
        <time>2017-06-24T09:06:52Z</time>
      </trkpt>
      <trkpt lat="45.97519" lon="4.79889">
        <ele>221</ele>
        <time>2017-06-24T09:06:53Z</time>
      </trkpt>
      <trkpt lat="45.97526" lon="4.79889">
        <ele>221</ele>
        <time>2017-06-24T09:06:55Z</time>
      </trkpt>
      <trkpt lat="45.9753" lon="4.79888">
        <ele>221</ele>
        <time>2017-06-24T09:06:56Z</time>
      </trkpt>
      <trkpt lat="45.97537" lon="4.79887">
        <ele>221</ele>
        <time>2017-06-24T09:06:58Z</time>
      </trkpt>
      <trkpt lat="45.9754" lon="4.79886">
        <ele>221</ele>
        <time>2017-06-24T09:06:59Z</time>
      </trkpt>
      <trkpt lat="45.97547" lon="4.79885">
        <ele>221</ele>
        <time>2017-06-24T09:07:01Z</time>
      </trkpt>
      <trkpt lat="45.97551" lon="4.79884">
        <ele>221</ele>
        <time>2017-06-24T09:07:02Z</time>
      </trkpt>
      <trkpt lat="45.97559" lon="4.79882">
        <ele>221</ele>
        <time>2017-06-24T09:07:04Z</time>
      </trkpt>
      <trkpt lat="45.97563" lon="4.79881">
        <ele>221</ele>
        <time>2017-06-24T09:07:05Z</time>
      </trkpt>
      <trkpt lat="45.97571" lon="4.79878">
        <ele>221</ele>
        <time>2017-06-24T09:07:07Z</time>
      </trkpt>
      <trkpt lat="45.97575" lon="4.79877">
        <ele>221</ele>
        <time>2017-06-24T09:07:08Z</time>
      </trkpt>
      <trkpt lat="45.97582" lon="4.79874">
        <ele>222</ele>
        <time>2017-06-24T09:07:10Z</time>
      </trkpt>
      <trkpt lat="45.97586" lon="4.79873">
        <ele>221</ele>
        <time>2017-06-24T09:07:11Z</time>
      </trkpt>
      <trkpt lat="45.97593" lon="4.79871">
        <ele>221</ele>
        <time>2017-06-24T09:07:13Z</time>
      </trkpt>
      <trkpt lat="45.97596" lon="4.7987">
        <ele>221</ele>
        <time>2017-06-24T09:07:14Z</time>
      </trkpt>
      <trkpt lat="45.97603" lon="4.79867">
        <ele>221</ele>
        <time>2017-06-24T09:07:16Z</time>
      </trkpt>
      <trkpt lat="45.97607" lon="4.79866">
        <ele>221</ele>
        <time>2017-06-24T09:07:17Z</time>
      </trkpt>
      <trkpt lat="45.97614" lon="4.79864">
        <ele>221</ele>
        <time>2017-06-24T09:07:19Z</time>
      </trkpt>
      <trkpt lat="45.97618" lon="4.79863">
        <ele>221</ele>
        <time>2017-06-24T09:07:20Z</time>
      </trkpt>
      <trkpt lat="45.97624" lon="4.7986">
        <ele>221</ele>
        <time>2017-06-24T09:07:22Z</time>
      </trkpt>
      <trkpt lat="45.97627" lon="4.79858">
        <ele>221</ele>
        <time>2017-06-24T09:07:23Z</time>
      </trkpt>
      <trkpt lat="45.97634" lon="4.79855">
        <ele>221</ele>
        <time>2017-06-24T09:07:25Z</time>
      </trkpt>
      <trkpt lat="45.97637" lon="4.79853">
        <ele>221</ele>
        <time>2017-06-24T09:07:26Z</time>
      </trkpt>
      <trkpt lat="45.97645" lon="4.79851">
        <ele>221</ele>
        <time>2017-06-24T09:07:28Z</time>
      </trkpt>
      <trkpt lat="45.97648" lon="4.79851">
        <ele>221</ele>
        <time>2017-06-24T09:07:29Z</time>
      </trkpt>
      <trkpt lat="45.97655" lon="4.79848">
        <ele>221</ele>
        <time>2017-06-24T09:07:31Z</time>
      </trkpt>
      <trkpt lat="45.97658" lon="4.79847">
        <ele>221</ele>
        <time>2017-06-24T09:07:32Z</time>
      </trkpt>
      <trkpt lat="45.97666" lon="4.79844">
        <ele>221</ele>
        <time>2017-06-24T09:07:34Z</time>
      </trkpt>
      <trkpt lat="45.97669" lon="4.79843">
        <ele>221</ele>
        <time>2017-06-24T09:07:35Z</time>
      </trkpt>
      <trkpt lat="45.97677" lon="4.79841">
        <ele>221</ele>
        <time>2017-06-24T09:07:37Z</time>
      </trkpt>
      <trkpt lat="45.9768" lon="4.7984">
        <ele>221</ele>
        <time>2017-06-24T09:07:38Z</time>
      </trkpt>
      <trkpt lat="45.97687" lon="4.79838">
        <ele>221</ele>
        <time>2017-06-24T09:07:40Z</time>
      </trkpt>
      <trkpt lat="45.9769" lon="4.79837">
        <ele>221</ele>
        <time>2017-06-24T09:07:41Z</time>
      </trkpt>
      <trkpt lat="45.97697" lon="4.79836">
        <ele>220</ele>
        <time>2017-06-24T09:07:43Z</time>
      </trkpt>
      <trkpt lat="45.97701" lon="4.79835">
        <ele>220</ele>
        <time>2017-06-24T09:07:44Z</time>
      </trkpt>
      <trkpt lat="45.97709" lon="4.79833">
        <ele>223</ele>
        <time>2017-06-24T09:07:46Z</time>
      </trkpt>
      <trkpt lat="45.97713" lon="4.79832">
        <ele>223</ele>
        <time>2017-06-24T09:07:47Z</time>
      </trkpt>
      <trkpt lat="45.97721" lon="4.79831">
        <ele>223</ele>
        <time>2017-06-24T09:07:49Z</time>
      </trkpt>
      <trkpt lat="45.97725" lon="4.7983">
        <ele>223</ele>
        <time>2017-06-24T09:07:50Z</time>
      </trkpt>
      <trkpt lat="45.97732" lon="4.79828">
        <ele>223</ele>
        <time>2017-06-24T09:07:52Z</time>
      </trkpt>
      <trkpt lat="45.97736" lon="4.79828">
        <ele>223</ele>
        <time>2017-06-24T09:07:53Z</time>
      </trkpt>
      <trkpt lat="45.97743" lon="4.79827">
        <ele>222</ele>
        <time>2017-06-24T09:07:55Z</time>
      </trkpt>
      <trkpt lat="45.97747" lon="4.79827">
        <ele>222</ele>
        <time>2017-06-24T09:07:56Z</time>
      </trkpt>
      <trkpt lat="45.97753" lon="4.79826">
        <ele>222</ele>
        <time>2017-06-24T09:07:58Z</time>
      </trkpt>
      <trkpt lat="45.97757" lon="4.79825">
        <ele>222</ele>
        <time>2017-06-24T09:07:59Z</time>
      </trkpt>
      <trkpt lat="45.97765" lon="4.79823">
        <ele>223</ele>
        <time>2017-06-24T09:08:01Z</time>
      </trkpt>
      <trkpt lat="45.97769" lon="4.79822">
        <ele>223</ele>
        <time>2017-06-24T09:08:02Z</time>
      </trkpt>
      <trkpt lat="45.97774" lon="4.79821">
        <ele>223</ele>
        <time>2017-06-24T09:08:03Z</time>
      </trkpt>
      <trkpt lat="45.97778" lon="4.7982">
        <ele>223</ele>
        <time>2017-06-24T09:08:04Z</time>
      </trkpt>
      <trkpt lat="45.97783" lon="4.79819">
        <ele>223</ele>
        <time>2017-06-24T09:08:05Z</time>
      </trkpt>
      <trkpt lat="45.97788" lon="4.79819">
        <ele>223</ele>
        <time>2017-06-24T09:08:06Z</time>
      </trkpt>
      <trkpt lat="45.97793" lon="4.79818">
        <ele>223</ele>
        <time>2017-06-24T09:08:07Z</time>
      </trkpt>
      <trkpt lat="45.97797" lon="4.79818">
        <ele>223</ele>
        <time>2017-06-24T09:08:08Z</time>
      </trkpt>
      <trkpt lat="45.97806" lon="4.79816">
        <ele>223</ele>
        <time>2017-06-24T09:08:10Z</time>
      </trkpt>
      <trkpt lat="45.9781" lon="4.79815">
        <ele>223</ele>
        <time>2017-06-24T09:08:11Z</time>
      </trkpt>
      <trkpt lat="45.97819" lon="4.79813">
        <ele>223</ele>
        <time>2017-06-24T09:08:13Z</time>
      </trkpt>
      <trkpt lat="45.97824" lon="4.79813">
        <ele>223</ele>
        <time>2017-06-24T09:08:14Z</time>
      </trkpt>
      <trkpt lat="45.97832" lon="4.79811">
        <ele>223</ele>
        <time>2017-06-24T09:08:16Z</time>
      </trkpt>
      <trkpt lat="45.97836" lon="4.7981">
        <ele>224</ele>
        <time>2017-06-24T09:08:17Z</time>
      </trkpt>
      <trkpt lat="45.97844" lon="4.79809">
        <ele>224</ele>
        <time>2017-06-24T09:08:19Z</time>
      </trkpt>
      <trkpt lat="45.97848" lon="4.79808">
        <ele>224</ele>
        <time>2017-06-24T09:08:20Z</time>
      </trkpt>
      <trkpt lat="45.97853" lon="4.79807">
        <ele>224</ele>
        <time>2017-06-24T09:08:21Z</time>
      </trkpt>
      <trkpt lat="45.97858" lon="4.79806">
        <ele>224</ele>
        <time>2017-06-24T09:08:22Z</time>
      </trkpt>
      <trkpt lat="45.97862" lon="4.79805">
        <ele>224</ele>
        <time>2017-06-24T09:08:23Z</time>
      </trkpt>
      <trkpt lat="45.97867" lon="4.79804">
        <ele>224</ele>
        <time>2017-06-24T09:08:24Z</time>
      </trkpt>
      <trkpt lat="45.97872" lon="4.79804">
        <ele>224</ele>
        <time>2017-06-24T09:08:25Z</time>
      </trkpt>
      <trkpt lat="45.97877" lon="4.79802">
        <ele>224</ele>
        <time>2017-06-24T09:08:26Z</time>
      </trkpt>
      <trkpt lat="45.97881" lon="4.79802">
        <ele>224</ele>
        <time>2017-06-24T09:08:27Z</time>
      </trkpt>
      <trkpt lat="45.97886" lon="4.79801">
        <ele>224</ele>
        <time>2017-06-24T09:08:28Z</time>
      </trkpt>
      <trkpt lat="45.9789" lon="4.798">
        <ele>224</ele>
        <time>2017-06-24T09:08:29Z</time>
      </trkpt>
      <trkpt lat="45.97895" lon="4.79799">
        <ele>224</ele>
        <time>2017-06-24T09:08:30Z</time>
      </trkpt>
      <trkpt lat="45.97903" lon="4.79798">
        <ele>224</ele>
        <time>2017-06-24T09:08:32Z</time>
      </trkpt>
      <trkpt lat="45.97908" lon="4.79798">
        <ele>224</ele>
        <time>2017-06-24T09:08:33Z</time>
      </trkpt>
      <trkpt lat="45.97917" lon="4.79797">
        <ele>224</ele>
        <time>2017-06-24T09:08:35Z</time>
      </trkpt>
      <trkpt lat="45.97921" lon="4.79796">
        <ele>224</ele>
        <time>2017-06-24T09:08:36Z</time>
      </trkpt>
      <trkpt lat="45.97926" lon="4.79795">
        <ele>224</ele>
        <time>2017-06-24T09:08:37Z</time>
      </trkpt>
      <trkpt lat="45.97931" lon="4.79794">
        <ele>224</ele>
        <time>2017-06-24T09:08:38Z</time>
      </trkpt>
      <trkpt lat="45.97936" lon="4.79794">
        <ele>224</ele>
        <time>2017-06-24T09:08:39Z</time>
      </trkpt>
      <trkpt lat="45.97941" lon="4.79793">
        <ele>224</ele>
        <time>2017-06-24T09:08:40Z</time>
      </trkpt>
      <trkpt lat="45.97946" lon="4.79793">
        <ele>224</ele>
        <time>2017-06-24T09:08:41Z</time>
      </trkpt>
      <trkpt lat="45.97951" lon="4.79792">
        <ele>224</ele>
        <time>2017-06-24T09:08:42Z</time>
      </trkpt>
      <trkpt lat="45.97956" lon="4.79791">
        <ele>224</ele>
        <time>2017-06-24T09:08:43Z</time>
      </trkpt>
      <trkpt lat="45.9796" lon="4.79791">
        <ele>224</ele>
        <time>2017-06-24T09:08:44Z</time>
      </trkpt>
      <trkpt lat="45.97965" lon="4.79791">
        <ele>224</ele>
        <time>2017-06-24T09:08:45Z</time>
      </trkpt>
      <trkpt lat="45.9797" lon="4.79791">
        <ele>224</ele>
        <time>2017-06-24T09:08:46Z</time>
      </trkpt>
      <trkpt lat="45.97975" lon="4.7979">
        <ele>224</ele>
        <time>2017-06-24T09:08:47Z</time>
      </trkpt>
      <trkpt lat="45.97979" lon="4.79789">
        <ele>224</ele>
        <time>2017-06-24T09:08:48Z</time>
      </trkpt>
      <trkpt lat="45.97984" lon="4.79789">
        <ele>224</ele>
        <time>2017-06-24T09:08:49Z</time>
      </trkpt>
      <trkpt lat="45.97989" lon="4.79788">
        <ele>224</ele>
        <time>2017-06-24T09:08:50Z</time>
      </trkpt>
      <trkpt lat="45.97993" lon="4.79788">
        <ele>224</ele>
        <time>2017-06-24T09:08:51Z</time>
      </trkpt>
      <trkpt lat="45.97998" lon="4.79787">
        <ele>224</ele>
        <time>2017-06-24T09:08:52Z</time>
      </trkpt>
      <trkpt lat="45.98007" lon="4.79785">
        <ele>223</ele>
        <time>2017-06-24T09:08:54Z</time>
      </trkpt>
      <trkpt lat="45.98011" lon="4.79784">
        <ele>223</ele>
        <time>2017-06-24T09:08:55Z</time>
      </trkpt>
      <trkpt lat="45.98019" lon="4.79782">
        <ele>223</ele>
        <time>2017-06-24T09:08:57Z</time>
      </trkpt>
      <trkpt lat="45.98024" lon="4.79781">
        <ele>223</ele>
        <time>2017-06-24T09:08:58Z</time>
      </trkpt>
      <trkpt lat="45.98029" lon="4.79781">
        <ele>223</ele>
        <time>2017-06-24T09:08:59Z</time>
      </trkpt>
      <trkpt lat="45.98034" lon="4.7978">
        <ele>223</ele>
        <time>2017-06-24T09:09:00Z</time>
      </trkpt>
      <trkpt lat="45.98039" lon="4.79779">
        <ele>223</ele>
        <time>2017-06-24T09:09:01Z</time>
      </trkpt>
      <trkpt lat="45.98044" lon="4.79779">
        <ele>223</ele>
        <time>2017-06-24T09:09:02Z</time>
      </trkpt>
      <trkpt lat="45.98049" lon="4.79778">
        <ele>223</ele>
        <time>2017-06-24T09:09:03Z</time>
      </trkpt>
      <trkpt lat="45.98053" lon="4.79777">
        <ele>223</ele>
        <time>2017-06-24T09:09:04Z</time>
      </trkpt>
      <trkpt lat="45.98061" lon="4.79776">
        <ele>223</ele>
        <time>2017-06-24T09:09:06Z</time>
      </trkpt>
      <trkpt lat="45.98066" lon="4.79776">
        <ele>223</ele>
        <time>2017-06-24T09:09:07Z</time>
      </trkpt>
      <trkpt lat="45.98074" lon="4.79775">
        <ele>223</ele>
        <time>2017-06-24T09:09:09Z</time>
      </trkpt>
      <trkpt lat="45.98078" lon="4.79774">
        <ele>223</ele>
        <time>2017-06-24T09:09:10Z</time>
      </trkpt>
      <trkpt lat="45.98083" lon="4.79773">
        <ele>223</ele>
        <time>2017-06-24T09:09:11Z</time>
      </trkpt>
      <trkpt lat="45.98087" lon="4.79772">
        <ele>223</ele>
        <time>2017-06-24T09:09:12Z</time>
      </trkpt>
      <trkpt lat="45.98092" lon="4.79772">
        <ele>223</ele>
        <time>2017-06-24T09:09:13Z</time>
      </trkpt>
      <trkpt lat="45.98097" lon="4.79771">
        <ele>223</ele>
        <time>2017-06-24T09:09:14Z</time>
      </trkpt>
      <trkpt lat="45.98105" lon="4.7977">
        <ele>224</ele>
        <time>2017-06-24T09:09:16Z</time>
      </trkpt>
      <trkpt lat="45.98109" lon="4.79769">
        <ele>224</ele>
        <time>2017-06-24T09:09:17Z</time>
      </trkpt>
      <trkpt lat="45.98114" lon="4.79768">
        <ele>224</ele>
        <time>2017-06-24T09:09:18Z</time>
      </trkpt>
      <trkpt lat="45.98119" lon="4.79768">
        <ele>224</ele>
        <time>2017-06-24T09:09:19Z</time>
      </trkpt>
      <trkpt lat="45.98123" lon="4.79767">
        <ele>224</ele>
        <time>2017-06-24T09:09:20Z</time>
      </trkpt>
      <trkpt lat="45.98128" lon="4.79767">
        <ele>224</ele>
        <time>2017-06-24T09:09:21Z</time>
      </trkpt>
      <trkpt lat="45.98133" lon="4.79767">
        <ele>224</ele>
        <time>2017-06-24T09:09:22Z</time>
      </trkpt>
      <trkpt lat="45.98138" lon="4.79766">
        <ele>224</ele>
        <time>2017-06-24T09:09:23Z</time>
      </trkpt>
      <trkpt lat="45.98142" lon="4.79766">
        <ele>224</ele>
        <time>2017-06-24T09:09:24Z</time>
      </trkpt>
      <trkpt lat="45.98147" lon="4.79766">
        <ele>225</ele>
        <time>2017-06-24T09:09:25Z</time>
      </trkpt>
      <trkpt lat="45.98154" lon="4.79766">
        <ele>225</ele>
        <time>2017-06-24T09:09:27Z</time>
      </trkpt>
      <trkpt lat="45.98158" lon="4.79767">
        <ele>225</ele>
        <time>2017-06-24T09:09:28Z</time>
      </trkpt>
      <trkpt lat="45.98164" lon="4.79772">
        <ele>225</ele>
        <time>2017-06-24T09:09:30Z</time>
      </trkpt>
      <trkpt lat="45.98167" lon="4.79775">
        <ele>226</ele>
        <time>2017-06-24T09:09:31Z</time>
      </trkpt>
      <trkpt lat="45.98172" lon="4.79782">
        <ele>226</ele>
        <time>2017-06-24T09:09:33Z</time>
      </trkpt>
      <trkpt lat="45.98174" lon="4.79785">
        <ele>226</ele>
        <time>2017-06-24T09:09:34Z</time>
      </trkpt>
      <trkpt lat="45.98177" lon="4.79794">
        <ele>226</ele>
        <time>2017-06-24T09:09:36Z</time>
      </trkpt>
      <trkpt lat="45.98179" lon="4.79798">
        <ele>226</ele>
        <time>2017-06-24T09:09:37Z</time>
      </trkpt>
      <trkpt lat="45.98182" lon="4.79808">
        <ele>225</ele>
        <time>2017-06-24T09:09:39Z</time>
      </trkpt>
      <trkpt lat="45.98184" lon="4.79813">
        <ele>225</ele>
        <time>2017-06-24T09:09:40Z</time>
      </trkpt>
      <trkpt lat="45.98187" lon="4.79823">
        <ele>225</ele>
        <time>2017-06-24T09:09:42Z</time>
      </trkpt>
      <trkpt lat="45.98189" lon="4.7983">
        <ele>225</ele>
        <time>2017-06-24T09:09:43Z</time>
      </trkpt>
      <trkpt lat="45.98192" lon="4.79837">
        <ele>225</ele>
        <time>2017-06-24T09:09:44Z</time>
      </trkpt>
      <trkpt lat="45.98194" lon="4.79844">
        <ele>225</ele>
        <time>2017-06-24T09:09:45Z</time>
      </trkpt>
      <trkpt lat="45.98197" lon="4.79852">
        <ele>225</ele>
        <time>2017-06-24T09:09:46Z</time>
      </trkpt>
      <trkpt lat="45.982" lon="4.7986">
        <ele>225</ele>
        <time>2017-06-24T09:09:47Z</time>
      </trkpt>
      <trkpt lat="45.98203" lon="4.79868">
        <ele>225</ele>
        <time>2017-06-24T09:09:48Z</time>
      </trkpt>
      <trkpt lat="45.98206" lon="4.79876">
        <ele>225</ele>
        <time>2017-06-24T09:09:49Z</time>
      </trkpt>
      <trkpt lat="45.98209" lon="4.79884">
        <ele>225</ele>
        <time>2017-06-24T09:09:50Z</time>
      </trkpt>
      <trkpt lat="45.98212" lon="4.79891">
        <ele>225</ele>
        <time>2017-06-24T09:09:51Z</time>
      </trkpt>
      <trkpt lat="45.98215" lon="4.79899">
        <ele>225</ele>
        <time>2017-06-24T09:09:52Z</time>
      </trkpt>
      <trkpt lat="45.98217" lon="4.79907">
        <ele>225</ele>
        <time>2017-06-24T09:09:53Z</time>
      </trkpt>
      <trkpt lat="45.9822" lon="4.79914">
        <ele>225</ele>
        <time>2017-06-24T09:09:54Z</time>
      </trkpt>
      <trkpt lat="45.98222" lon="4.79921">
        <ele>225</ele>
        <time>2017-06-24T09:09:55Z</time>
      </trkpt>
      <trkpt lat="45.98224" lon="4.79928">
        <ele>225</ele>
        <time>2017-06-24T09:09:56Z</time>
      </trkpt>
      <trkpt lat="45.98227" lon="4.79934">
        <ele>225</ele>
        <time>2017-06-24T09:09:57Z</time>
      </trkpt>
      <trkpt lat="45.98229" lon="4.7994">
        <ele>225</ele>
        <time>2017-06-24T09:09:58Z</time>
      </trkpt>
      <trkpt lat="45.98231" lon="4.79947">
        <ele>225</ele>
        <time>2017-06-24T09:09:59Z</time>
      </trkpt>
      <trkpt lat="45.98233" lon="4.79953">
        <ele>225</ele>
        <time>2017-06-24T09:10:00Z</time>
      </trkpt>
      <trkpt lat="45.98235" lon="4.79958">
        <ele>225</ele>
        <time>2017-06-24T09:10:01Z</time>
      </trkpt>
      <trkpt lat="45.98237" lon="4.79964">
        <ele>225</ele>
        <time>2017-06-24T09:10:02Z</time>
      </trkpt>
      <trkpt lat="45.98239" lon="4.7997">
        <ele>225</ele>
        <time>2017-06-24T09:10:03Z</time>
      </trkpt>
      <trkpt lat="45.98241" lon="4.79976">
        <ele>225</ele>
        <time>2017-06-24T09:10:04Z</time>
      </trkpt>
      <trkpt lat="45.98243" lon="4.79982">
        <ele>225</ele>
        <time>2017-06-24T09:10:05Z</time>
      </trkpt>
      <trkpt lat="45.98245" lon="4.79988">
        <ele>226</ele>
        <time>2017-06-24T09:10:06Z</time>
      </trkpt>
      <trkpt lat="45.98248" lon="4.79995">
        <ele>226</ele>
        <time>2017-06-24T09:10:07Z</time>
      </trkpt>
      <trkpt lat="45.9825" lon="4.80002">
        <ele>226</ele>
        <time>2017-06-24T09:10:08Z</time>
      </trkpt>
      <trkpt lat="45.98253" lon="4.80009">
        <ele>227</ele>
        <time>2017-06-24T09:10:09Z</time>
      </trkpt>
      <trkpt lat="45.98255" lon="4.80015">
        <ele>228</ele>
        <time>2017-06-24T09:10:10Z</time>
      </trkpt>
      <trkpt lat="45.98257" lon="4.80022">
        <ele>228</ele>
        <time>2017-06-24T09:10:11Z</time>
      </trkpt>
      <trkpt lat="45.98259" lon="4.80028">
        <ele>228</ele>
        <time>2017-06-24T09:10:12Z</time>
      </trkpt>
      <trkpt lat="45.98261" lon="4.80034">
        <ele>228</ele>
        <time>2017-06-24T09:10:13Z</time>
      </trkpt>
      <trkpt lat="45.98263" lon="4.8004">
        <ele>228</ele>
        <time>2017-06-24T09:10:14Z</time>
      </trkpt>
      <trkpt lat="45.98266" lon="4.80045">
        <ele>228</ele>
        <time>2017-06-24T09:10:15Z</time>
      </trkpt>
      <trkpt lat="45.98268" lon="4.80051">
        <ele>229</ele>
        <time>2017-06-24T09:10:16Z</time>
      </trkpt>
      <trkpt lat="45.9827" lon="4.80058">
        <ele>228</ele>
        <time>2017-06-24T09:10:17Z</time>
      </trkpt>
      <trkpt lat="45.98273" lon="4.80064">
        <ele>228</ele>
        <time>2017-06-24T09:10:18Z</time>
      </trkpt>
      <trkpt lat="45.98275" lon="4.8007">
        <ele>228</ele>
        <time>2017-06-24T09:10:19Z</time>
      </trkpt>
      <trkpt lat="45.98277" lon="4.80076">
        <ele>229</ele>
        <time>2017-06-24T09:10:20Z</time>
      </trkpt>
      <trkpt lat="45.9828" lon="4.80082">
        <ele>229</ele>
        <time>2017-06-24T09:10:21Z</time>
      </trkpt>
      <trkpt lat="45.98282" lon="4.80088">
        <ele>228</ele>
        <time>2017-06-24T09:10:22Z</time>
      </trkpt>
      <trkpt lat="45.98284" lon="4.80094">
        <ele>228</ele>
        <time>2017-06-24T09:10:23Z</time>
      </trkpt>
      <trkpt lat="45.98285" lon="4.801">
        <ele>228</ele>
        <time>2017-06-24T09:10:24Z</time>
      </trkpt>
      <trkpt lat="45.98288" lon="4.80106">
        <ele>228</ele>
        <time>2017-06-24T09:10:25Z</time>
      </trkpt>
      <trkpt lat="45.9829" lon="4.80112">
        <ele>228</ele>
        <time>2017-06-24T09:10:26Z</time>
      </trkpt>
      <trkpt lat="45.98292" lon="4.80118">
        <ele>228</ele>
        <time>2017-06-24T09:10:27Z</time>
      </trkpt>
      <trkpt lat="45.98297" lon="4.80128">
        <ele>228</ele>
        <time>2017-06-24T09:10:29Z</time>
      </trkpt>
      <trkpt lat="45.98299" lon="4.80133">
        <ele>228</ele>
        <time>2017-06-24T09:10:30Z</time>
      </trkpt>
      <trkpt lat="45.98303" lon="4.80145">
        <ele>228</ele>
        <time>2017-06-24T09:10:32Z</time>
      </trkpt>
      <trkpt lat="45.98305" lon="4.80151">
        <ele>228</ele>
        <time>2017-06-24T09:10:33Z</time>
      </trkpt>
      <trkpt lat="45.98308" lon="4.80158">
        <ele>228</ele>
        <time>2017-06-24T09:10:34Z</time>
      </trkpt>
      <trkpt lat="45.9831" lon="4.80166">
        <ele>228</ele>
        <time>2017-06-24T09:10:35Z</time>
      </trkpt>
      <trkpt lat="45.98313" lon="4.80174">
        <ele>227</ele>
        <time>2017-06-24T09:10:36Z</time>
      </trkpt>
      <trkpt lat="45.98315" lon="4.80181">
        <ele>227</ele>
        <time>2017-06-24T09:10:37Z</time>
      </trkpt>
      <trkpt lat="45.98318" lon="4.80188">
        <ele>227</ele>
        <time>2017-06-24T09:10:38Z</time>
      </trkpt>
      <trkpt lat="45.9832" lon="4.80195">
        <ele>227</ele>
        <time>2017-06-24T09:10:39Z</time>
      </trkpt>
      <trkpt lat="45.98322" lon="4.80201">
        <ele>227</ele>
        <time>2017-06-24T09:10:40Z</time>
      </trkpt>
      <trkpt lat="45.98325" lon="4.80207">
        <ele>227</ele>
        <time>2017-06-24T09:10:41Z</time>
      </trkpt>
      <trkpt lat="45.98329" lon="4.80218">
        <ele>227</ele>
        <time>2017-06-24T09:10:43Z</time>
      </trkpt>
      <trkpt lat="45.98329" lon="4.80225">
        <ele>228</ele>
        <time>2017-06-24T09:10:44Z</time>
      </trkpt>
      <trkpt lat="45.98328" lon="4.80231">
        <ele>228</ele>
        <time>2017-06-24T09:10:45Z</time>
      </trkpt>
      <trkpt lat="45.98327" lon="4.80237">
        <ele>228</ele>
        <time>2017-06-24T09:10:46Z</time>
      </trkpt>
      <trkpt lat="45.98325" lon="4.80244">
        <ele>229</ele>
        <time>2017-06-24T09:10:47Z</time>
      </trkpt>
      <trkpt lat="45.98323" lon="4.80251">
        <ele>228</ele>
        <time>2017-06-24T09:10:48Z</time>
      </trkpt>
      <trkpt lat="45.98322" lon="4.80258">
        <ele>228</ele>
        <time>2017-06-24T09:10:49Z</time>
      </trkpt>
      <trkpt lat="45.9832" lon="4.80265">
        <ele>227</ele>
        <time>2017-06-24T09:10:50Z</time>
      </trkpt>
      <trkpt lat="45.98318" lon="4.80273">
        <ele>227</ele>
        <time>2017-06-24T09:10:51Z</time>
      </trkpt>
      <trkpt lat="45.98317" lon="4.80281">
        <ele>227</ele>
        <time>2017-06-24T09:10:52Z</time>
      </trkpt>
      <trkpt lat="45.98316" lon="4.80289">
        <ele>226</ele>
        <time>2017-06-24T09:10:53Z</time>
      </trkpt>
      <trkpt lat="45.98314" lon="4.80298">
        <ele>226</ele>
        <time>2017-06-24T09:10:54Z</time>
      </trkpt>
      <trkpt lat="45.98312" lon="4.80306">
        <ele>226</ele>
        <time>2017-06-24T09:10:55Z</time>
      </trkpt>
      <trkpt lat="45.9831" lon="4.80315">
        <ele>226</ele>
        <time>2017-06-24T09:10:56Z</time>
      </trkpt>
      <trkpt lat="45.98308" lon="4.80324">
        <ele>226</ele>
        <time>2017-06-24T09:10:57Z</time>
      </trkpt>
      <trkpt lat="45.98306" lon="4.80333">
        <ele>226</ele>
        <time>2017-06-24T09:10:58Z</time>
      </trkpt>
      <trkpt lat="45.98305" lon="4.80342">
        <ele>226</ele>
        <time>2017-06-24T09:10:59Z</time>
      </trkpt>
      <trkpt lat="45.98303" lon="4.80352">
        <ele>225</ele>
        <time>2017-06-24T09:11:00Z</time>
      </trkpt>
      <trkpt lat="45.98301" lon="4.8036">
        <ele>225</ele>
        <time>2017-06-24T09:11:01Z</time>
      </trkpt>
      <trkpt lat="45.98299" lon="4.80369">
        <ele>225</ele>
        <time>2017-06-24T09:11:02Z</time>
      </trkpt>
      <trkpt lat="45.98297" lon="4.80378">
        <ele>225</ele>
        <time>2017-06-24T09:11:03Z</time>
      </trkpt>
      <trkpt lat="45.98295" lon="4.80388">
        <ele>224</ele>
        <time>2017-06-24T09:11:04Z</time>
      </trkpt>
      <trkpt lat="45.98293" lon="4.80397">
        <ele>224</ele>
        <time>2017-06-24T09:11:05Z</time>
      </trkpt>
      <trkpt lat="45.98291" lon="4.80407">
        <ele>224</ele>
        <time>2017-06-24T09:11:06Z</time>
      </trkpt>
      <trkpt lat="45.98289" lon="4.80417">
        <ele>224</ele>
        <time>2017-06-24T09:11:07Z</time>
      </trkpt>
      <trkpt lat="45.98287" lon="4.80426">
        <ele>224</ele>
        <time>2017-06-24T09:11:08Z</time>
      </trkpt>
      <trkpt lat="45.98284" lon="4.80436">
        <ele>223</ele>
        <time>2017-06-24T09:11:09Z</time>
      </trkpt>
      <trkpt lat="45.98282" lon="4.80446">
        <ele>223</ele>
        <time>2017-06-24T09:11:10Z</time>
      </trkpt>
      <trkpt lat="45.9828" lon="4.80456">
        <ele>223</ele>
        <time>2017-06-24T09:11:11Z</time>
      </trkpt>
      <trkpt lat="45.98278" lon="4.80465">
        <ele>223</ele>
        <time>2017-06-24T09:11:12Z</time>
      </trkpt>
      <trkpt lat="45.98276" lon="4.80474">
        <ele>223</ele>
        <time>2017-06-24T09:11:13Z</time>
      </trkpt>
      <trkpt lat="45.98274" lon="4.80483">
        <ele>223</ele>
        <time>2017-06-24T09:11:14Z</time>
      </trkpt>
      <trkpt lat="45.98272" lon="4.80491">
        <ele>223</ele>
        <time>2017-06-24T09:11:15Z</time>
      </trkpt>
      <trkpt lat="45.9827" lon="4.805">
        <ele>223</ele>
        <time>2017-06-24T09:11:16Z</time>
      </trkpt>
      <trkpt lat="45.98268" lon="4.80509">
        <ele>223</ele>
        <time>2017-06-24T09:11:17Z</time>
      </trkpt>
      <trkpt lat="45.98266" lon="4.80517">
        <ele>223</ele>
        <time>2017-06-24T09:11:18Z</time>
      </trkpt>
      <trkpt lat="45.98264" lon="4.80526">
        <ele>224</ele>
        <time>2017-06-24T09:11:19Z</time>
      </trkpt>
      <trkpt lat="45.98262" lon="4.80533">
        <ele>224</ele>
        <time>2017-06-24T09:11:20Z</time>
      </trkpt>
      <trkpt lat="45.9826" lon="4.8054">
        <ele>224</ele>
        <time>2017-06-24T09:11:21Z</time>
      </trkpt>
      <trkpt lat="45.98258" lon="4.80547">
        <ele>224</ele>
        <time>2017-06-24T09:11:22Z</time>
      </trkpt>
      <trkpt lat="45.98256" lon="4.80554">
        <ele>224</ele>
        <time>2017-06-24T09:11:23Z</time>
      </trkpt>
      <trkpt lat="45.98254" lon="4.8056">
        <ele>224</ele>
        <time>2017-06-24T09:11:24Z</time>
      </trkpt>
      <trkpt lat="45.98252" lon="4.80567">
        <ele>224</ele>
        <time>2017-06-24T09:11:25Z</time>
      </trkpt>
      <trkpt lat="45.9825" lon="4.80574">
        <ele>224</ele>
        <time>2017-06-24T09:11:26Z</time>
      </trkpt>
      <trkpt lat="45.98248" lon="4.8058">
        <ele>224</ele>
        <time>2017-06-24T09:11:27Z</time>
      </trkpt>
      <trkpt lat="45.98246" lon="4.80586">
        <ele>224</ele>
        <time>2017-06-24T09:11:28Z</time>
      </trkpt>
      <trkpt lat="45.98244" lon="4.80592">
        <ele>224</ele>
        <time>2017-06-24T09:11:29Z</time>
      </trkpt>
      <trkpt lat="45.98242" lon="4.80598">
        <ele>224</ele>
        <time>2017-06-24T09:11:30Z</time>
      </trkpt>
      <trkpt lat="45.9824" lon="4.80605">
        <ele>224</ele>
        <time>2017-06-24T09:11:31Z</time>
      </trkpt>
      <trkpt lat="45.98237" lon="4.80613">
        <ele>224</ele>
        <time>2017-06-24T09:11:32Z</time>
      </trkpt>
      <trkpt lat="45.98235" lon="4.8062">
        <ele>224</ele>
        <time>2017-06-24T09:11:33Z</time>
      </trkpt>
      <trkpt lat="45.98232" lon="4.80628">
        <ele>224</ele>
        <time>2017-06-24T09:11:34Z</time>
      </trkpt>
      <trkpt lat="45.9823" lon="4.80635">
        <ele>224</ele>
        <time>2017-06-24T09:11:35Z</time>
      </trkpt>
      <trkpt lat="45.98228" lon="4.80641">
        <ele>224</ele>
        <time>2017-06-24T09:11:36Z</time>
      </trkpt>
      <trkpt lat="45.98225" lon="4.80653">
        <ele>224</ele>
        <time>2017-06-24T09:11:38Z</time>
      </trkpt>
      <trkpt lat="45.98223" lon="4.80657">
        <ele>224</ele>
        <time>2017-06-24T09:11:39Z</time>
      </trkpt>
      <trkpt lat="45.98219" lon="4.80666">
        <ele>224</ele>
        <time>2017-06-24T09:11:41Z</time>
      </trkpt>
      <trkpt lat="45.98216" lon="4.80669">
        <ele>224</ele>
        <time>2017-06-24T09:11:42Z</time>
      </trkpt>
      <trkpt lat="45.98208" lon="4.80673">
        <ele>224</ele>
        <time>2017-06-24T09:11:44Z</time>
      </trkpt>
      <trkpt lat="45.98205" lon="4.80675">
        <ele>224</ele>
        <time>2017-06-24T09:11:45Z</time>
      </trkpt>
      <trkpt lat="45.98196" lon="4.80679">
        <ele>225</ele>
        <time>2017-06-24T09:11:47Z</time>
      </trkpt>
      <trkpt lat="45.98192" lon="4.80681">
        <ele>225</ele>
        <time>2017-06-24T09:11:48Z</time>
      </trkpt>
      <trkpt lat="45.98188" lon="4.80683">
        <ele>225</ele>
        <time>2017-06-24T09:11:49Z</time>
      </trkpt>
      <trkpt lat="45.98183" lon="4.80684">
        <ele>225</ele>
        <time>2017-06-24T09:11:50Z</time>
      </trkpt>
      <trkpt lat="45.98179" lon="4.80685">
        <ele>225</ele>
        <time>2017-06-24T09:11:51Z</time>
      </trkpt>
      <trkpt lat="45.98174" lon="4.80685">
        <ele>225</ele>
        <time>2017-06-24T09:11:52Z</time>
      </trkpt>
      <trkpt lat="45.98168" lon="4.80685">
        <ele>225</ele>
        <time>2017-06-24T09:11:53Z</time>
      </trkpt>
      <trkpt lat="45.98163" lon="4.80686">
        <ele>227</ele>
        <time>2017-06-24T09:11:54Z</time>
      </trkpt>
      <trkpt lat="45.98158" lon="4.80687">
        <ele>227</ele>
        <time>2017-06-24T09:11:55Z</time>
      </trkpt>
      <trkpt lat="45.98153" lon="4.80687">
        <ele>227</ele>
        <time>2017-06-24T09:11:56Z</time>
      </trkpt>
      <trkpt lat="45.98149" lon="4.80688">
        <ele>227</ele>
        <time>2017-06-24T09:11:57Z</time>
      </trkpt>
      <trkpt lat="45.98144" lon="4.80688">
        <ele>228</ele>
        <time>2017-06-24T09:11:58Z</time>
      </trkpt>
      <trkpt lat="45.9814" lon="4.80688">
        <ele>228</ele>
        <time>2017-06-24T09:11:59Z</time>
      </trkpt>
      <trkpt lat="45.98135" lon="4.80688">
        <ele>228</ele>
        <time>2017-06-24T09:12:00Z</time>
      </trkpt>
      <trkpt lat="45.9813" lon="4.80688">
        <ele>228</ele>
        <time>2017-06-24T09:12:01Z</time>
      </trkpt>
      <trkpt lat="45.98126" lon="4.80689">
        <ele>228</ele>
        <time>2017-06-24T09:12:02Z</time>
      </trkpt>
      <trkpt lat="45.98118" lon="4.80689">
        <ele>228</ele>
        <time>2017-06-24T09:12:04Z</time>
      </trkpt>
      <trkpt lat="45.98115" lon="4.80689">
        <ele>228</ele>
        <time>2017-06-24T09:12:05Z</time>
      </trkpt>
      <trkpt lat="45.98107" lon="4.8069">
        <ele>228</ele>
        <time>2017-06-24T09:12:07Z</time>
      </trkpt>
      <trkpt lat="45.98103" lon="4.8069">
        <ele>228</ele>
        <time>2017-06-24T09:12:08Z</time>
      </trkpt>
      <trkpt lat="45.98094" lon="4.80691">
        <ele>228</ele>
        <time>2017-06-24T09:12:10Z</time>
      </trkpt>
      <trkpt lat="45.98089" lon="4.80691">
        <ele>228</ele>
        <time>2017-06-24T09:12:11Z</time>
      </trkpt>
      <trkpt lat="45.98081" lon="4.8069">
        <ele>230</ele>
        <time>2017-06-24T09:12:13Z</time>
      </trkpt>
      <trkpt lat="45.98077" lon="4.8069">
        <ele>230</ele>
        <time>2017-06-24T09:12:14Z</time>
      </trkpt>
      <trkpt lat="45.9807" lon="4.80691">
        <ele>230</ele>
        <time>2017-06-24T09:12:16Z</time>
      </trkpt>
      <trkpt lat="45.98067" lon="4.80692">
        <ele>230</ele>
        <time>2017-06-24T09:12:17Z</time>
      </trkpt>
      <trkpt lat="45.9806" lon="4.80694">
        <ele>230</ele>
        <time>2017-06-24T09:12:19Z</time>
      </trkpt>
      <trkpt lat="45.98057" lon="4.80695">
        <ele>230</ele>
        <time>2017-06-24T09:12:20Z</time>
      </trkpt>
      <trkpt lat="45.98049" lon="4.80696">
        <ele>230</ele>
        <time>2017-06-24T09:12:22Z</time>
      </trkpt>
      <trkpt lat="45.98045" lon="4.80697">
        <ele>230</ele>
        <time>2017-06-24T09:12:23Z</time>
      </trkpt>
      <trkpt lat="45.98038" lon="4.80698">
        <ele>230</ele>
        <time>2017-06-24T09:12:25Z</time>
      </trkpt>
      <trkpt lat="45.98035" lon="4.80699">
        <ele>230</ele>
        <time>2017-06-24T09:12:26Z</time>
      </trkpt>
      <trkpt lat="45.98029" lon="4.80707">
        <ele>231</ele>
        <time>2017-06-24T09:12:29Z</time>
      </trkpt>
      <trkpt lat="45.98028" lon="4.80711">
        <ele>231</ele>
        <time>2017-06-24T09:12:30Z</time>
      </trkpt>
      <trkpt lat="45.98031" lon="4.80723">
        <ele>231</ele>
        <time>2017-06-24T09:12:33Z</time>
      </trkpt>
      <trkpt lat="45.98032" lon="4.80728">
        <ele>231</ele>
        <time>2017-06-24T09:12:34Z</time>
      </trkpt>
      <trkpt lat="45.98034" lon="4.80737">
        <ele>231</ele>
        <time>2017-06-24T09:12:36Z</time>
      </trkpt>
      <trkpt lat="45.98035" lon="4.80742">
        <ele>231</ele>
        <time>2017-06-24T09:12:37Z</time>
      </trkpt>
      <trkpt lat="45.98037" lon="4.80752">
        <ele>233</ele>
        <time>2017-06-24T09:12:40Z</time>
      </trkpt>
      <trkpt lat="45.98038" lon="4.80755">
        <ele>233</ele>
        <time>2017-06-24T09:12:41Z</time>
      </trkpt>
      <trkpt lat="45.98041" lon="4.80765">
        <ele>233</ele>
        <time>2017-06-24T09:12:44Z</time>
      </trkpt>
      <trkpt lat="45.98041" lon="4.80768">
        <ele>233</ele>
        <time>2017-06-24T09:12:45Z</time>
      </trkpt>
      <trkpt lat="45.98043" lon="4.80777">
        <ele>233</ele>
        <time>2017-06-24T09:12:48Z</time>
      </trkpt>
      <trkpt lat="45.98044" lon="4.8078">
        <ele>233</ele>
        <time>2017-06-24T09:12:49Z</time>
      </trkpt>
      <trkpt lat="45.98047" lon="4.8079">
        <ele>233</ele>
        <time>2017-06-24T09:12:52Z</time>
      </trkpt>
      <trkpt lat="45.98049" lon="4.80793">
        <ele>233</ele>
        <time>2017-06-24T09:12:53Z</time>
      </trkpt>
      <trkpt lat="45.98051" lon="4.80803">
        <ele>234</ele>
        <time>2017-06-24T09:12:56Z</time>
      </trkpt>
      <trkpt lat="45.98052" lon="4.80806">
        <ele>234</ele>
        <time>2017-06-24T09:12:57Z</time>
      </trkpt>
      <trkpt lat="45.98055" lon="4.80815">
        <ele>234</ele>
        <time>2017-06-24T09:13:00Z</time>
      </trkpt>
      <trkpt lat="45.98055" lon="4.80819">
        <ele>234</ele>
        <time>2017-06-24T09:13:01Z</time>
      </trkpt>
      <trkpt lat="45.98056" lon="4.80829">
        <ele>234</ele>
        <time>2017-06-24T09:13:04Z</time>
      </trkpt>
      <trkpt lat="45.98057" lon="4.80832">
        <ele>234</ele>
        <time>2017-06-24T09:13:05Z</time>
      </trkpt>
      <trkpt lat="45.98059" lon="4.80842">
        <ele>236</ele>
        <time>2017-06-24T09:13:08Z</time>
      </trkpt>
      <trkpt lat="45.9806" lon="4.80845">
        <ele>236</ele>
        <time>2017-06-24T09:13:09Z</time>
      </trkpt>
      <trkpt lat="45.98063" lon="4.80857">
        <ele>236</ele>
        <time>2017-06-24T09:13:13Z</time>
      </trkpt>
      <trkpt lat="45.98064" lon="4.8086">
        <ele>236</ele>
        <time>2017-06-24T09:13:14Z</time>
      </trkpt>
      <trkpt lat="45.98067" lon="4.80872">
        <ele>237</ele>
        <time>2017-06-24T09:13:18Z</time>
      </trkpt>
      <trkpt lat="45.98068" lon="4.80875">
        <ele>237</ele>
        <time>2017-06-24T09:13:19Z</time>
      </trkpt>
      <trkpt lat="45.9807" lon="4.80883">
        <ele>237</ele>
        <time>2017-06-24T09:13:21Z</time>
      </trkpt>
      <trkpt lat="45.98071" lon="4.80887">
        <ele>237</ele>
        <time>2017-06-24T09:13:22Z</time>
      </trkpt>
      <trkpt lat="45.98074" lon="4.80898">
        <ele>238</ele>
        <time>2017-06-24T09:13:25Z</time>
      </trkpt>
      <trkpt lat="45.98075" lon="4.80902">
        <ele>238</ele>
        <time>2017-06-24T09:13:26Z</time>
      </trkpt>
      <trkpt lat="45.98076" lon="4.8091">
        <ele>238</ele>
        <time>2017-06-24T09:13:28Z</time>
      </trkpt>
      <trkpt lat="45.98077" lon="4.80914">
        <ele>239</ele>
        <time>2017-06-24T09:13:29Z</time>
      </trkpt>
      <trkpt lat="45.98079" lon="4.80923">
        <ele>240</ele>
        <time>2017-06-24T09:13:31Z</time>
      </trkpt>
      <trkpt lat="45.98081" lon="4.80928">
        <ele>240</ele>
        <time>2017-06-24T09:13:32Z</time>
      </trkpt>
      <trkpt lat="45.98083" lon="4.80938">
        <ele>240</ele>
        <time>2017-06-24T09:13:34Z</time>
      </trkpt>
      <trkpt lat="45.98084" lon="4.80943">
        <ele>238</ele>
        <time>2017-06-24T09:13:35Z</time>
      </trkpt>
      <trkpt lat="45.98087" lon="4.80952">
        <ele>238</ele>
        <time>2017-06-24T09:13:37Z</time>
      </trkpt>
      <trkpt lat="45.98088" lon="4.80955">
        <ele>238</ele>
        <time>2017-06-24T09:13:38Z</time>
      </trkpt>
      <trkpt lat="45.9809" lon="4.80966">
        <ele>239</ele>
        <time>2017-06-24T09:13:41Z</time>
      </trkpt>
      <trkpt lat="45.9809" lon="4.8097">
        <ele>239</ele>
        <time>2017-06-24T09:13:42Z</time>
      </trkpt>
      <trkpt lat="45.98092" lon="4.80978">
        <ele>239</ele>
        <time>2017-06-24T09:13:44Z</time>
      </trkpt>
      <trkpt lat="45.98093" lon="4.80982">
        <ele>240</ele>
        <time>2017-06-24T09:13:45Z</time>
      </trkpt>
      <trkpt lat="45.98097" lon="4.80993">
        <ele>240</ele>
        <time>2017-06-24T09:13:48Z</time>
      </trkpt>
      <trkpt lat="45.98098" lon="4.80997">
        <ele>240</ele>
        <time>2017-06-24T09:13:49Z</time>
      </trkpt>
      <trkpt lat="45.98101" lon="4.81005">
        <ele>242</ele>
        <time>2017-06-24T09:13:51Z</time>
      </trkpt>
      <trkpt lat="45.98103" lon="4.81009">
        <ele>242</ele>
        <time>2017-06-24T09:13:52Z</time>
      </trkpt>
      <trkpt lat="45.98106" lon="4.81017">
        <ele>242</ele>
        <time>2017-06-24T09:13:54Z</time>
      </trkpt>
      <trkpt lat="45.98107" lon="4.81021">
        <ele>242</ele>
        <time>2017-06-24T09:13:55Z</time>
      </trkpt>
      <trkpt lat="45.98109" lon="4.81029">
        <ele>242</ele>
        <time>2017-06-24T09:13:57Z</time>
      </trkpt>
      <trkpt lat="45.98111" lon="4.81034">
        <ele>242</ele>
        <time>2017-06-24T09:13:58Z</time>
      </trkpt>
      <trkpt lat="45.98113" lon="4.81042">
        <ele>242</ele>
        <time>2017-06-24T09:14:00Z</time>
      </trkpt>
      <trkpt lat="45.98114" lon="4.81046">
        <ele>243</ele>
        <time>2017-06-24T09:14:01Z</time>
      </trkpt>
      <trkpt lat="45.98116" lon="4.81054">
        <ele>243</ele>
        <time>2017-06-24T09:14:03Z</time>
      </trkpt>
      <trkpt lat="45.98118" lon="4.81058">
        <ele>243</ele>
        <time>2017-06-24T09:14:04Z</time>
      </trkpt>
      <trkpt lat="45.98121" lon="4.81066">
        <ele>243</ele>
        <time>2017-06-24T09:14:06Z</time>
      </trkpt>
      <trkpt lat="45.98123" lon="4.81071">
        <ele>243</ele>
        <time>2017-06-24T09:14:07Z</time>
      </trkpt>
      <trkpt lat="45.98127" lon="4.81081">
        <ele>243</ele>
        <time>2017-06-24T09:14:09Z</time>
      </trkpt>
      <trkpt lat="45.98129" lon="4.81085">
        <ele>245</ele>
        <time>2017-06-24T09:14:10Z</time>
      </trkpt>
      <trkpt lat="45.98133" lon="4.81095">
        <ele>245</ele>
        <time>2017-06-24T09:14:13Z</time>
      </trkpt>
      <trkpt lat="45.98134" lon="4.81099">
        <ele>245</ele>
        <time>2017-06-24T09:14:14Z</time>
      </trkpt>
      <trkpt lat="45.98138" lon="4.8111">
        <ele>245</ele>
        <time>2017-06-24T09:14:17Z</time>
      </trkpt>
      <trkpt lat="45.98139" lon="4.81114">
        <ele>245</ele>
        <time>2017-06-24T09:14:18Z</time>
      </trkpt>
      <trkpt lat="45.98143" lon="4.81123">
        <ele>245</ele>
        <time>2017-06-24T09:14:20Z</time>
      </trkpt>
      <trkpt lat="45.98144" lon="4.81127">
        <ele>245</ele>
        <time>2017-06-24T09:14:21Z</time>
      </trkpt>
      <trkpt lat="45.98148" lon="4.81136">
        <ele>245</ele>
        <time>2017-06-24T09:14:23Z</time>
      </trkpt>
      <trkpt lat="45.9815" lon="4.81141">
        <ele>245</ele>
        <time>2017-06-24T09:14:24Z</time>
      </trkpt>
      <trkpt lat="45.98153" lon="4.8115">
        <ele>245</ele>
        <time>2017-06-24T09:14:26Z</time>
      </trkpt>
      <trkpt lat="45.98155" lon="4.81154">
        <ele>245</ele>
        <time>2017-06-24T09:14:27Z</time>
      </trkpt>
      <trkpt lat="45.98158" lon="4.81163">
        <ele>245</ele>
        <time>2017-06-24T09:14:29Z</time>
      </trkpt>
      <trkpt lat="45.98159" lon="4.81168">
        <ele>245</ele>
        <time>2017-06-24T09:14:30Z</time>
      </trkpt>
      <trkpt lat="45.98161" lon="4.81177">
        <ele>246</ele>
        <time>2017-06-24T09:14:32Z</time>
      </trkpt>
      <trkpt lat="45.98163" lon="4.81182">
        <ele>246</ele>
        <time>2017-06-24T09:14:33Z</time>
      </trkpt>
      <trkpt lat="45.98165" lon="4.81192">
        <ele>246</ele>
        <time>2017-06-24T09:14:35Z</time>
      </trkpt>
      <trkpt lat="45.98166" lon="4.81197">
        <ele>246</ele>
        <time>2017-06-24T09:14:36Z</time>
      </trkpt>
      <trkpt lat="45.98168" lon="4.81205">
        <ele>245</ele>
        <time>2017-06-24T09:14:38Z</time>
      </trkpt>
      <trkpt lat="45.98169" lon="4.81211">
        <ele>246</ele>
        <time>2017-06-24T09:14:39Z</time>
      </trkpt>
      <trkpt lat="45.9817" lon="4.81221">
        <ele>246</ele>
        <time>2017-06-24T09:14:41Z</time>
      </trkpt>
      <trkpt lat="45.9817" lon="4.81225">
        <ele>246</ele>
        <time>2017-06-24T09:14:42Z</time>
      </trkpt>
      <trkpt lat="45.98171" lon="4.81235">
        <ele>247</ele>
        <time>2017-06-24T09:14:44Z</time>
      </trkpt>
      <trkpt lat="45.98173" lon="4.81239">
        <ele>247</ele>
        <time>2017-06-24T09:14:45Z</time>
      </trkpt>
      <trkpt lat="45.98175" lon="4.81249">
        <ele>247</ele>
        <time>2017-06-24T09:14:47Z</time>
      </trkpt>
      <trkpt lat="45.98177" lon="4.81254">
        <ele>247</ele>
        <time>2017-06-24T09:14:48Z</time>
      </trkpt>
      <trkpt lat="45.98178" lon="4.81263">
        <ele>247</ele>
        <time>2017-06-24T09:14:50Z</time>
      </trkpt>
      <trkpt lat="45.98179" lon="4.81268">
        <ele>247</ele>
        <time>2017-06-24T09:14:51Z</time>
      </trkpt>
      <trkpt lat="45.9818" lon="4.81279">
        <ele>247</ele>
        <time>2017-06-24T09:14:53Z</time>
      </trkpt>
      <trkpt lat="45.9818" lon="4.81284">
        <ele>247</ele>
        <time>2017-06-24T09:14:54Z</time>
      </trkpt>
      <trkpt lat="45.9818" lon="4.81292">
        <ele>247</ele>
        <time>2017-06-24T09:14:56Z</time>
      </trkpt>
      <trkpt lat="45.98181" lon="4.81297">
        <ele>247</ele>
        <time>2017-06-24T09:14:57Z</time>
      </trkpt>
      <trkpt lat="45.98184" lon="4.81308">
        <ele>247</ele>
        <time>2017-06-24T09:14:59Z</time>
      </trkpt>
      <trkpt lat="45.98185" lon="4.81313">
        <ele>247</ele>
        <time>2017-06-24T09:15:00Z</time>
      </trkpt>
      <trkpt lat="45.98186" lon="4.81323">
        <ele>247</ele>
        <time>2017-06-24T09:15:02Z</time>
      </trkpt>
      <trkpt lat="45.98187" lon="4.81327">
        <ele>247</ele>
        <time>2017-06-24T09:15:03Z</time>
      </trkpt>
      <trkpt lat="45.9819" lon="4.81338">
        <ele>248</ele>
        <time>2017-06-24T09:15:05Z</time>
      </trkpt>
      <trkpt lat="45.98191" lon="4.81345">
        <ele>248</ele>
        <time>2017-06-24T09:15:06Z</time>
      </trkpt>
      <trkpt lat="45.98193" lon="4.81351">
        <ele>248</ele>
        <time>2017-06-24T09:15:07Z</time>
      </trkpt>
      <trkpt lat="45.98195" lon="4.81358">
        <ele>248</ele>
        <time>2017-06-24T09:15:08Z</time>
      </trkpt>
      <trkpt lat="45.98196" lon="4.81364">
        <ele>248</ele>
        <time>2017-06-24T09:15:09Z</time>
      </trkpt>
      <trkpt lat="45.98198" lon="4.81371">
        <ele>248</ele>
        <time>2017-06-24T09:15:10Z</time>
      </trkpt>
      <trkpt lat="45.982" lon="4.81381">
        <ele>248</ele>
        <time>2017-06-24T09:15:12Z</time>
      </trkpt>
      <trkpt lat="45.98201" lon="4.81386">
        <ele>248</ele>
        <time>2017-06-24T09:15:13Z</time>
      </trkpt>
      <trkpt lat="45.98204" lon="4.81395">
        <ele>248</ele>
        <time>2017-06-24T09:15:15Z</time>
      </trkpt>
      <trkpt lat="45.98206" lon="4.81398">
        <ele>248</ele>
        <time>2017-06-24T09:15:16Z</time>
      </trkpt>
      <trkpt lat="45.98209" lon="4.81407">
        <ele>248</ele>
        <time>2017-06-24T09:15:18Z</time>
      </trkpt>
      <trkpt lat="45.98211" lon="4.81411">
        <ele>248</ele>
        <time>2017-06-24T09:15:19Z</time>
      </trkpt>
      <trkpt lat="45.98213" lon="4.8142">
        <ele>249</ele>
        <time>2017-06-24T09:15:21Z</time>
      </trkpt>
      <trkpt lat="45.98214" lon="4.81424">
        <ele>249</ele>
        <time>2017-06-24T09:15:22Z</time>
      </trkpt>
      <trkpt lat="45.98217" lon="4.81434">
        <ele>249</ele>
        <time>2017-06-24T09:15:24Z</time>
      </trkpt>
      <trkpt lat="45.98219" lon="4.81439">
        <ele>249</ele>
        <time>2017-06-24T09:15:25Z</time>
      </trkpt>
      <trkpt lat="45.98222" lon="4.81449">
        <ele>249</ele>
        <time>2017-06-24T09:15:27Z</time>
      </trkpt>
      <trkpt lat="45.98224" lon="4.81453">
        <ele>249</ele>
        <time>2017-06-24T09:15:28Z</time>
      </trkpt>
      <trkpt lat="45.98226" lon="4.81464">
        <ele>249</ele>
        <time>2017-06-24T09:15:30Z</time>
      </trkpt>
      <trkpt lat="45.98228" lon="4.81468">
        <ele>249</ele>
        <time>2017-06-24T09:15:31Z</time>
      </trkpt>
      <trkpt lat="45.98231" lon="4.81478">
        <ele>249</ele>
        <time>2017-06-24T09:15:33Z</time>
      </trkpt>
      <trkpt lat="45.98233" lon="4.81483">
        <ele>249</ele>
        <time>2017-06-24T09:15:34Z</time>
      </trkpt>
      <trkpt lat="45.98237" lon="4.81493">
        <ele>249</ele>
        <time>2017-06-24T09:15:36Z</time>
      </trkpt>
      <trkpt lat="45.98239" lon="4.81498">
        <ele>249</ele>
        <time>2017-06-24T09:15:37Z</time>
      </trkpt>
      <trkpt lat="45.98243" lon="4.81509">
        <ele>249</ele>
        <time>2017-06-24T09:15:39Z</time>
      </trkpt>
      <trkpt lat="45.98245" lon="4.81515">
        <ele>249</ele>
        <time>2017-06-24T09:15:40Z</time>
      </trkpt>
      <trkpt lat="45.98247" lon="4.81521">
        <ele>249</ele>
        <time>2017-06-24T09:15:41Z</time>
      </trkpt>
      <trkpt lat="45.98249" lon="4.81527">
        <ele>249</ele>
        <time>2017-06-24T09:15:42Z</time>
      </trkpt>
      <trkpt lat="45.98252" lon="4.81538">
        <ele>247</ele>
        <time>2017-06-24T09:15:44Z</time>
      </trkpt>
      <trkpt lat="45.98253" lon="4.81544">
        <ele>247</ele>
        <time>2017-06-24T09:15:45Z</time>
      </trkpt>
      <trkpt lat="45.98257" lon="4.81555">
        <ele>247</ele>
        <time>2017-06-24T09:15:47Z</time>
      </trkpt>
      <trkpt lat="45.98259" lon="4.81561">
        <ele>247</ele>
        <time>2017-06-24T09:15:48Z</time>
      </trkpt>
      <trkpt lat="45.98261" lon="4.81568">
        <ele>247</ele>
        <time>2017-06-24T09:15:49Z</time>
      </trkpt>
      <trkpt lat="45.98264" lon="4.81574">
        <ele>247</ele>
        <time>2017-06-24T09:15:50Z</time>
      </trkpt>
      <trkpt lat="45.98266" lon="4.81579">
        <ele>247</ele>
        <time>2017-06-24T09:15:51Z</time>
      </trkpt>
      <trkpt lat="45.98268" lon="4.81585">
        <ele>247</ele>
        <time>2017-06-24T09:15:52Z</time>
      </trkpt>
      <trkpt lat="45.98271" lon="4.81592">
        <ele>247</ele>
        <time>2017-06-24T09:15:53Z</time>
      </trkpt>
      <trkpt lat="45.98273" lon="4.81599">
        <ele>247</ele>
        <time>2017-06-24T09:15:54Z</time>
      </trkpt>
      <trkpt lat="45.98276" lon="4.81606">
        <ele>247</ele>
        <time>2017-06-24T09:15:55Z</time>
      </trkpt>
      <trkpt lat="45.98279" lon="4.81612">
        <ele>247</ele>
        <time>2017-06-24T09:15:56Z</time>
      </trkpt>
      <trkpt lat="45.98282" lon="4.81619">
        <ele>247</ele>
        <time>2017-06-24T09:15:57Z</time>
      </trkpt>
      <trkpt lat="45.98285" lon="4.81624">
        <ele>247</ele>
        <time>2017-06-24T09:15:58Z</time>
      </trkpt>
      <trkpt lat="45.98288" lon="4.81629">
        <ele>247</ele>
        <time>2017-06-24T09:15:59Z</time>
      </trkpt>
      <trkpt lat="45.98292" lon="4.81634">
        <ele>247</ele>
        <time>2017-06-24T09:16:00Z</time>
      </trkpt>
      <trkpt lat="45.98296" lon="4.81639">
        <ele>247</ele>
        <time>2017-06-24T09:16:01Z</time>
      </trkpt>
      <trkpt lat="45.98299" lon="4.81643">
        <ele>247</ele>
        <time>2017-06-24T09:16:02Z</time>
      </trkpt>
      <trkpt lat="45.98307" lon="4.8165">
        <ele>246</ele>
        <time>2017-06-24T09:16:04Z</time>
      </trkpt>
      <trkpt lat="45.9831" lon="4.81653">
        <ele>246</ele>
        <time>2017-06-24T09:16:05Z</time>
      </trkpt>
      <trkpt lat="45.98317" lon="4.8166">
        <ele>246</ele>
        <time>2017-06-24T09:16:07Z</time>
      </trkpt>
      <trkpt lat="45.98321" lon="4.81663">
        <ele>246</ele>
        <time>2017-06-24T09:16:08Z</time>
      </trkpt>
      <trkpt lat="45.98325" lon="4.81667">
        <ele>246</ele>
        <time>2017-06-24T09:16:09Z</time>
      </trkpt>
      <trkpt lat="45.9833" lon="4.81671">
        <ele>246</ele>
        <time>2017-06-24T09:16:10Z</time>
      </trkpt>
      <trkpt lat="45.98335" lon="4.81674">
        <ele>245</ele>
        <time>2017-06-24T09:16:11Z</time>
      </trkpt>
      <trkpt lat="45.9834" lon="4.81676">
        <ele>245</ele>
        <time>2017-06-24T09:16:12Z</time>
      </trkpt>
      <trkpt lat="45.98345" lon="4.81678">
        <ele>245</ele>
        <time>2017-06-24T09:16:13Z</time>
      </trkpt>
      <trkpt lat="45.9835" lon="4.81679">
        <ele>245</ele>
        <time>2017-06-24T09:16:14Z</time>
      </trkpt>
      <trkpt lat="45.98355" lon="4.81679">
        <ele>245</ele>
        <time>2017-06-24T09:16:15Z</time>
      </trkpt>
      <trkpt lat="45.9836" lon="4.81679">
        <ele>244</ele>
        <time>2017-06-24T09:16:16Z</time>
      </trkpt>
      <trkpt lat="45.98365" lon="4.81679">
        <ele>244</ele>
        <time>2017-06-24T09:16:17Z</time>
      </trkpt>
      <trkpt lat="45.98371" lon="4.81678">
        <ele>244</ele>
        <time>2017-06-24T09:16:18Z</time>
      </trkpt>
      <trkpt lat="45.98376" lon="4.81676">
        <ele>244</ele>
        <time>2017-06-24T09:16:19Z</time>
      </trkpt>
      <trkpt lat="45.98381" lon="4.81675">
        <ele>244</ele>
        <time>2017-06-24T09:16:20Z</time>
      </trkpt>
      <trkpt lat="45.98386" lon="4.81673">
        <ele>243</ele>
        <time>2017-06-24T09:16:21Z</time>
      </trkpt>
      <trkpt lat="45.98391" lon="4.81672">
        <ele>243</ele>
        <time>2017-06-24T09:16:22Z</time>
      </trkpt>
      <trkpt lat="45.98396" lon="4.81671">
        <ele>243</ele>
        <time>2017-06-24T09:16:23Z</time>
      </trkpt>
      <trkpt lat="45.98401" lon="4.8167">
        <ele>242</ele>
        <time>2017-06-24T09:16:24Z</time>
      </trkpt>
      <trkpt lat="45.98406" lon="4.81669">
        <ele>242</ele>
        <time>2017-06-24T09:16:25Z</time>
      </trkpt>
      <trkpt lat="45.98412" lon="4.81668">
        <ele>242</ele>
        <time>2017-06-24T09:16:26Z</time>
      </trkpt>
      <trkpt lat="45.98417" lon="4.81668">
        <ele>241</ele>
        <time>2017-06-24T09:16:27Z</time>
      </trkpt>
      <trkpt lat="45.98422" lon="4.81669">
        <ele>241</ele>
        <time>2017-06-24T09:16:28Z</time>
      </trkpt>
      <trkpt lat="45.98427" lon="4.81671">
        <ele>240</ele>
        <time>2017-06-24T09:16:29Z</time>
      </trkpt>
      <trkpt lat="45.98432" lon="4.81674">
        <ele>240</ele>
        <time>2017-06-24T09:16:30Z</time>
      </trkpt>
      <trkpt lat="45.98437" lon="4.81678">
        <ele>240</ele>
        <time>2017-06-24T09:16:31Z</time>
      </trkpt>
      <trkpt lat="45.98441" lon="4.81684">
        <ele>239</ele>
        <time>2017-06-24T09:16:32Z</time>
      </trkpt>
      <trkpt lat="45.98445" lon="4.81689">
        <ele>239</ele>
        <time>2017-06-24T09:16:33Z</time>
      </trkpt>
      <trkpt lat="45.98448" lon="4.81696">
        <ele>239</ele>
        <time>2017-06-24T09:16:34Z</time>
      </trkpt>
      <trkpt lat="45.98452" lon="4.81702">
        <ele>239</ele>
        <time>2017-06-24T09:16:35Z</time>
      </trkpt>
      <trkpt lat="45.98455" lon="4.81708">
        <ele>239</ele>
        <time>2017-06-24T09:16:36Z</time>
      </trkpt>
      <trkpt lat="45.98459" lon="4.81715">
        <ele>239</ele>
        <time>2017-06-24T09:16:37Z</time>
      </trkpt>
      <trkpt lat="45.98463" lon="4.81722">
        <ele>239</ele>
        <time>2017-06-24T09:16:38Z</time>
      </trkpt>
      <trkpt lat="45.98469" lon="4.81728">
        <ele>239</ele>
        <time>2017-06-24T09:16:39Z</time>
      </trkpt>
      <trkpt lat="45.98474" lon="4.81734">
        <ele>239</ele>
        <time>2017-06-24T09:16:40Z</time>
      </trkpt>
      <trkpt lat="45.9848" lon="4.81739">
        <ele>238</ele>
        <time>2017-06-24T09:16:41Z</time>
      </trkpt>
      <trkpt lat="45.98487" lon="4.81745">
        <ele>238</ele>
        <time>2017-06-24T09:16:42Z</time>
      </trkpt>
      <trkpt lat="45.98494" lon="4.81751">
        <ele>238</ele>
        <time>2017-06-24T09:16:43Z</time>
      </trkpt>
      <trkpt lat="45.985" lon="4.81758">
        <ele>238</ele>
        <time>2017-06-24T09:16:44Z</time>
      </trkpt>
      <trkpt lat="45.98505" lon="4.81765">
        <ele>237</ele>
        <time>2017-06-24T09:16:45Z</time>
      </trkpt>
      <trkpt lat="45.98511" lon="4.81773">
        <ele>238</ele>
        <time>2017-06-24T09:16:46Z</time>
      </trkpt>
      <trkpt lat="45.98516" lon="4.81781">
        <ele>238</ele>
        <time>2017-06-24T09:16:47Z</time>
      </trkpt>
      <trkpt lat="45.98522" lon="4.81788">
        <ele>238</ele>
        <time>2017-06-24T09:16:48Z</time>
      </trkpt>
      <trkpt lat="45.98526" lon="4.81795">
        <ele>238</ele>
        <time>2017-06-24T09:16:49Z</time>
      </trkpt>
      <trkpt lat="45.9853" lon="4.81801">
        <ele>238</ele>
        <time>2017-06-24T09:16:50Z</time>
      </trkpt>
      <trkpt lat="45.98534" lon="4.81805">
        <ele>238</ele>
        <time>2017-06-24T09:16:51Z</time>
      </trkpt>
      <trkpt lat="45.98538" lon="4.81808">
        <ele>238</ele>
        <time>2017-06-24T09:16:52Z</time>
      </trkpt>
      <trkpt lat="45.98543" lon="4.8181">
        <ele>238</ele>
        <time>2017-06-24T09:16:53Z</time>
      </trkpt>
      <trkpt lat="45.98547" lon="4.8181">
        <ele>238</ele>
        <time>2017-06-24T09:16:54Z</time>
      </trkpt>
      <trkpt lat="45.98552" lon="4.81808">
        <ele>238</ele>
        <time>2017-06-24T09:16:55Z</time>
      </trkpt>
      <trkpt lat="45.98556" lon="4.81806">
        <ele>238</ele>
        <time>2017-06-24T09:16:56Z</time>
      </trkpt>
      <trkpt lat="45.9856" lon="4.81802">
        <ele>238</ele>
        <time>2017-06-24T09:16:57Z</time>
      </trkpt>
      <trkpt lat="45.98564" lon="4.81797">
        <ele>238</ele>
        <time>2017-06-24T09:16:58Z</time>
      </trkpt>
      <trkpt lat="45.98567" lon="4.81791">
        <ele>238</ele>
        <time>2017-06-24T09:16:59Z</time>
      </trkpt>
      <trkpt lat="45.98571" lon="4.81786">
        <ele>238</ele>
        <time>2017-06-24T09:17:00Z</time>
      </trkpt>
      <trkpt lat="45.98574" lon="4.81781">
        <ele>238</ele>
        <time>2017-06-24T09:17:01Z</time>
      </trkpt>
      <trkpt lat="45.98577" lon="4.81777">
        <ele>238</ele>
        <time>2017-06-24T09:17:02Z</time>
      </trkpt>
      <trkpt lat="45.98584" lon="4.81769">
        <ele>238</ele>
        <time>2017-06-24T09:17:04Z</time>
      </trkpt>
      <trkpt lat="45.98588" lon="4.81767">
        <ele>237</ele>
        <time>2017-06-24T09:17:05Z</time>
      </trkpt>
      <trkpt lat="45.98597" lon="4.81764">
        <ele>238</ele>
        <time>2017-06-24T09:17:07Z</time>
      </trkpt>
      <trkpt lat="45.98601" lon="4.81763">
        <ele>238</ele>
        <time>2017-06-24T09:17:08Z</time>
      </trkpt>
      <trkpt lat="45.98606" lon="4.81761">
        <ele>238</ele>
        <time>2017-06-24T09:17:09Z</time>
      </trkpt>
      <trkpt lat="45.98611" lon="4.81759">
        <ele>238</ele>
        <time>2017-06-24T09:17:10Z</time>
      </trkpt>
      <trkpt lat="45.98617" lon="4.81758">
        <ele>238</ele>
        <time>2017-06-24T09:17:11Z</time>
      </trkpt>
      <trkpt lat="45.98622" lon="4.81756">
        <ele>238</ele>
        <time>2017-06-24T09:17:12Z</time>
      </trkpt>
      <trkpt lat="45.98628" lon="4.81755">
        <ele>238</ele>
        <time>2017-06-24T09:17:13Z</time>
      </trkpt>
      <trkpt lat="45.98634" lon="4.81753">
        <ele>238</ele>
        <time>2017-06-24T09:17:14Z</time>
      </trkpt>
      <trkpt lat="45.98638" lon="4.81752">
        <ele>238</ele>
        <time>2017-06-24T09:17:15Z</time>
      </trkpt>
      <trkpt lat="45.98643" lon="4.81751">
        <ele>238</ele>
        <time>2017-06-24T09:17:16Z</time>
      </trkpt>
      <trkpt lat="45.98648" lon="4.8175">
        <ele>237</ele>
        <time>2017-06-24T09:17:17Z</time>
      </trkpt>
      <trkpt lat="45.98653" lon="4.81749">
        <ele>237</ele>
        <time>2017-06-24T09:17:18Z</time>
      </trkpt>
      <trkpt lat="45.98661" lon="4.81747">
        <ele>238</ele>
        <time>2017-06-24T09:17:20Z</time>
      </trkpt>
      <trkpt lat="45.98666" lon="4.81746">
        <ele>238</ele>
        <time>2017-06-24T09:17:21Z</time>
      </trkpt>
      <trkpt lat="45.9867" lon="4.81745">
        <ele>238</ele>
        <time>2017-06-24T09:17:22Z</time>
      </trkpt>
      <trkpt lat="45.98675" lon="4.81744">
        <ele>238</ele>
        <time>2017-06-24T09:17:23Z</time>
      </trkpt>
      <trkpt lat="45.9868" lon="4.81743">
        <ele>238</ele>
        <time>2017-06-24T09:17:24Z</time>
      </trkpt>
      <trkpt lat="45.98684" lon="4.81742">
        <ele>238</ele>
        <time>2017-06-24T09:17:25Z</time>
      </trkpt>
      <trkpt lat="45.98693" lon="4.8174">
        <ele>238</ele>
        <time>2017-06-24T09:17:27Z</time>
      </trkpt>
      <trkpt lat="45.98697" lon="4.81738">
        <ele>239</ele>
        <time>2017-06-24T09:17:28Z</time>
      </trkpt>
      <trkpt lat="45.98702" lon="4.81737">
        <ele>239</ele>
        <time>2017-06-24T09:17:29Z</time>
      </trkpt>
      <trkpt lat="45.98707" lon="4.81737">
        <ele>239</ele>
        <time>2017-06-24T09:17:30Z</time>
      </trkpt>
      <trkpt lat="45.98711" lon="4.81736">
        <ele>239</ele>
        <time>2017-06-24T09:17:31Z</time>
      </trkpt>
      <trkpt lat="45.98716" lon="4.81736">
        <ele>239</ele>
        <time>2017-06-24T09:17:32Z</time>
      </trkpt>
      <trkpt lat="45.9872" lon="4.81737">
        <ele>239</ele>
        <time>2017-06-24T09:17:33Z</time>
      </trkpt>
      <trkpt lat="45.98725" lon="4.81739">
        <ele>239</ele>
        <time>2017-06-24T09:17:34Z</time>
      </trkpt>
      <trkpt lat="45.9873" lon="4.81742">
        <ele>240</ele>
        <time>2017-06-24T09:17:35Z</time>
      </trkpt>
      <trkpt lat="45.98733" lon="4.81746">
        <ele>240</ele>
        <time>2017-06-24T09:17:36Z</time>
      </trkpt>
      <trkpt lat="45.98736" lon="4.81752">
        <ele>240</ele>
        <time>2017-06-24T09:17:37Z</time>
      </trkpt>
      <trkpt lat="45.98739" lon="4.81758">
        <ele>240</ele>
        <time>2017-06-24T09:17:38Z</time>
      </trkpt>
      <trkpt lat="45.98741" lon="4.81764">
        <ele>240</ele>
        <time>2017-06-24T09:17:39Z</time>
      </trkpt>
      <trkpt lat="45.98744" lon="4.8177">
        <ele>240</ele>
        <time>2017-06-24T09:17:40Z</time>
      </trkpt>
      <trkpt lat="45.98746" lon="4.81775">
        <ele>240</ele>
        <time>2017-06-24T09:17:41Z</time>
      </trkpt>
      <trkpt lat="45.98749" lon="4.81781">
        <ele>240</ele>
        <time>2017-06-24T09:17:42Z</time>
      </trkpt>
      <trkpt lat="45.98752" lon="4.81786">
        <ele>241</ele>
        <time>2017-06-24T09:17:43Z</time>
      </trkpt>
      <trkpt lat="45.98754" lon="4.81792">
        <ele>240</ele>
        <time>2017-06-24T09:17:44Z</time>
      </trkpt>
      <trkpt lat="45.98757" lon="4.81798">
        <ele>240</ele>
        <time>2017-06-24T09:17:45Z</time>
      </trkpt>
      <trkpt lat="45.9876" lon="4.81804">
        <ele>240</ele>
        <time>2017-06-24T09:17:46Z</time>
      </trkpt>
      <trkpt lat="45.98762" lon="4.8181">
        <ele>240</ele>
        <time>2017-06-24T09:17:47Z</time>
      </trkpt>
      <trkpt lat="45.98765" lon="4.81816">
        <ele>240</ele>
        <time>2017-06-24T09:17:48Z</time>
      </trkpt>
      <trkpt lat="45.98768" lon="4.81823">
        <ele>240</ele>
        <time>2017-06-24T09:17:49Z</time>
      </trkpt>
      <trkpt lat="45.98772" lon="4.81828">
        <ele>240</ele>
        <time>2017-06-24T09:17:50Z</time>
      </trkpt>
      <trkpt lat="45.98775" lon="4.81835">
        <ele>239</ele>
        <time>2017-06-24T09:17:51Z</time>
      </trkpt>
      <trkpt lat="45.98779" lon="4.81842">
        <ele>239</ele>
        <time>2017-06-24T09:17:52Z</time>
      </trkpt>
      <trkpt lat="45.98782" lon="4.81848">
        <ele>239</ele>
        <time>2017-06-24T09:17:53Z</time>
      </trkpt>
      <trkpt lat="45.98785" lon="4.81855">
        <ele>239</ele>
        <time>2017-06-24T09:17:54Z</time>
      </trkpt>
      <trkpt lat="45.98788" lon="4.81862">
        <ele>239</ele>
        <time>2017-06-24T09:17:55Z</time>
      </trkpt>
      <trkpt lat="45.98792" lon="4.81869">
        <ele>239</ele>
        <time>2017-06-24T09:17:56Z</time>
      </trkpt>
      <trkpt lat="45.98794" lon="4.81876">
        <ele>239</ele>
        <time>2017-06-24T09:17:57Z</time>
      </trkpt>
      <trkpt lat="45.98796" lon="4.81884">
        <ele>239</ele>
        <time>2017-06-24T09:17:58Z</time>
      </trkpt>
      <trkpt lat="45.98799" lon="4.81891">
        <ele>239</ele>
        <time>2017-06-24T09:17:59Z</time>
      </trkpt>
      <trkpt lat="45.988" lon="4.81899">
        <ele>239</ele>
        <time>2017-06-24T09:18:00Z</time>
      </trkpt>
      <trkpt lat="45.98802" lon="4.81906">
        <ele>239</ele>
        <time>2017-06-24T09:18:01Z</time>
      </trkpt>
      <trkpt lat="45.98804" lon="4.81914">
        <ele>239</ele>
        <time>2017-06-24T09:18:02Z</time>
      </trkpt>
      <trkpt lat="45.98806" lon="4.81921">
        <ele>239</ele>
        <time>2017-06-24T09:18:03Z</time>
      </trkpt>
      <trkpt lat="45.98807" lon="4.81928">
        <ele>239</ele>
        <time>2017-06-24T09:18:04Z</time>
      </trkpt>
      <trkpt lat="45.98809" lon="4.81936">
        <ele>239</ele>
        <time>2017-06-24T09:18:05Z</time>
      </trkpt>
      <trkpt lat="45.9881" lon="4.81943">
        <ele>239</ele>
        <time>2017-06-24T09:18:06Z</time>
      </trkpt>
      <trkpt lat="45.98812" lon="4.81951">
        <ele>239</ele>
        <time>2017-06-24T09:18:07Z</time>
      </trkpt>
      <trkpt lat="45.98813" lon="4.81958">
        <ele>239</ele>
        <time>2017-06-24T09:18:08Z</time>
      </trkpt>
      <trkpt lat="45.98814" lon="4.81966">
        <ele>239</ele>
        <time>2017-06-24T09:18:09Z</time>
      </trkpt>
      <trkpt lat="45.98814" lon="4.81974">
        <ele>239</ele>
        <time>2017-06-24T09:18:10Z</time>
      </trkpt>
      <trkpt lat="45.98816" lon="4.81981">
        <ele>239</ele>
        <time>2017-06-24T09:18:11Z</time>
      </trkpt>
      <trkpt lat="45.98817" lon="4.81988">
        <ele>238</ele>
        <time>2017-06-24T09:18:12Z</time>
      </trkpt>
      <trkpt lat="45.98818" lon="4.81995">
        <ele>238</ele>
        <time>2017-06-24T09:18:13Z</time>
      </trkpt>
      <trkpt lat="45.98819" lon="4.82002">
        <ele>238</ele>
        <time>2017-06-24T09:18:14Z</time>
      </trkpt>
      <trkpt lat="45.9882" lon="4.82009">
        <ele>238</ele>
        <time>2017-06-24T09:18:15Z</time>
      </trkpt>
      <trkpt lat="45.9882" lon="4.82015">
        <ele>238</ele>
        <time>2017-06-24T09:18:16Z</time>
      </trkpt>
      <trkpt lat="45.98822" lon="4.82022">
        <ele>238</ele>
        <time>2017-06-24T09:18:17Z</time>
      </trkpt>
      <trkpt lat="45.98823" lon="4.82029">
        <ele>238</ele>
        <time>2017-06-24T09:18:18Z</time>
      </trkpt>
      <trkpt lat="45.98825" lon="4.82036">
        <ele>238</ele>
        <time>2017-06-24T09:18:19Z</time>
      </trkpt>
      <trkpt lat="45.98826" lon="4.82044">
        <ele>238</ele>
        <time>2017-06-24T09:18:20Z</time>
      </trkpt>
      <trkpt lat="45.98827" lon="4.82051">
        <ele>237</ele>
        <time>2017-06-24T09:18:21Z</time>
      </trkpt>
      <trkpt lat="45.98828" lon="4.82058">
        <ele>237</ele>
        <time>2017-06-24T09:18:22Z</time>
      </trkpt>
      <trkpt lat="45.98829" lon="4.82065">
        <ele>237</ele>
        <time>2017-06-24T09:18:23Z</time>
      </trkpt>
      <trkpt lat="45.9883" lon="4.82071">
        <ele>237</ele>
        <time>2017-06-24T09:18:24Z</time>
      </trkpt>
      <trkpt lat="45.98831" lon="4.82078">
        <ele>236</ele>
        <time>2017-06-24T09:18:25Z</time>
      </trkpt>
      <trkpt lat="45.98832" lon="4.82084">
        <ele>236</ele>
        <time>2017-06-24T09:18:26Z</time>
      </trkpt>
      <trkpt lat="45.98833" lon="4.8209">
        <ele>236</ele>
        <time>2017-06-24T09:18:27Z</time>
      </trkpt>
      <trkpt lat="45.98834" lon="4.82097">
        <ele>236</ele>
        <time>2017-06-24T09:18:28Z</time>
      </trkpt>
      <trkpt lat="45.98836" lon="4.82104">
        <ele>236</ele>
        <time>2017-06-24T09:18:29Z</time>
      </trkpt>
      <trkpt lat="45.98837" lon="4.82111">
        <ele>235</ele>
        <time>2017-06-24T09:18:30Z</time>
      </trkpt>
      <trkpt lat="45.98839" lon="4.82118">
        <ele>235</ele>
        <time>2017-06-24T09:18:31Z</time>
      </trkpt>
      <trkpt lat="45.9884" lon="4.82126">
        <ele>236</ele>
        <time>2017-06-24T09:18:32Z</time>
      </trkpt>
      <trkpt lat="45.98841" lon="4.82133">
        <ele>236</ele>
        <time>2017-06-24T09:18:33Z</time>
      </trkpt>
      <trkpt lat="45.98843" lon="4.8214">
        <ele>236</ele>
        <time>2017-06-24T09:18:34Z</time>
      </trkpt>
      <trkpt lat="45.98844" lon="4.82147">
        <ele>236</ele>
        <time>2017-06-24T09:18:35Z</time>
      </trkpt>
      <trkpt lat="45.98846" lon="4.82153">
        <ele>236</ele>
        <time>2017-06-24T09:18:36Z</time>
      </trkpt>
      <trkpt lat="45.98848" lon="4.82166">
        <ele>236</ele>
        <time>2017-06-24T09:18:38Z</time>
      </trkpt>
      <trkpt lat="45.9885" lon="4.82172">
        <ele>236</ele>
        <time>2017-06-24T09:18:39Z</time>
      </trkpt>
      <trkpt lat="45.98852" lon="4.82178">
        <ele>236</ele>
        <time>2017-06-24T09:18:40Z</time>
      </trkpt>
      <trkpt lat="45.98855" lon="4.82185">
        <ele>236</ele>
        <time>2017-06-24T09:18:41Z</time>
      </trkpt>
      <trkpt lat="45.98857" lon="4.82191">
        <ele>236</ele>
        <time>2017-06-24T09:18:42Z</time>
      </trkpt>
      <trkpt lat="45.9886" lon="4.82198">
        <ele>236</ele>
        <time>2017-06-24T09:18:43Z</time>
      </trkpt>
      <trkpt lat="45.98863" lon="4.82205">
        <ele>236</ele>
        <time>2017-06-24T09:18:44Z</time>
      </trkpt>
      <trkpt lat="45.98866" lon="4.82212">
        <ele>236</ele>
        <time>2017-06-24T09:18:45Z</time>
      </trkpt>
      <trkpt lat="45.98868" lon="4.82219">
        <ele>236</ele>
        <time>2017-06-24T09:18:46Z</time>
      </trkpt>
      <trkpt lat="45.98871" lon="4.82226">
        <ele>236</ele>
        <time>2017-06-24T09:18:47Z</time>
      </trkpt>
      <trkpt lat="45.98874" lon="4.82231">
        <ele>236</ele>
        <time>2017-06-24T09:18:48Z</time>
      </trkpt>
      <trkpt lat="45.98876" lon="4.82237">
        <ele>236</ele>
        <time>2017-06-24T09:18:49Z</time>
      </trkpt>
      <trkpt lat="45.98881" lon="4.82248">
        <ele>236</ele>
        <time>2017-06-24T09:18:51Z</time>
      </trkpt>
      <trkpt lat="45.98883" lon="4.82253">
        <ele>236</ele>
        <time>2017-06-24T09:18:52Z</time>
      </trkpt>
      <trkpt lat="45.98888" lon="4.82262">
        <ele>236</ele>
        <time>2017-06-24T09:18:54Z</time>
      </trkpt>
      <trkpt lat="45.9889" lon="4.82266">
        <ele>236</ele>
        <time>2017-06-24T09:18:55Z</time>
      </trkpt>
      <trkpt lat="45.98896" lon="4.82274">
        <ele>236</ele>
        <time>2017-06-24T09:18:57Z</time>
      </trkpt>
      <trkpt lat="45.98898" lon="4.82279">
        <ele>236</ele>
        <time>2017-06-24T09:18:58Z</time>
      </trkpt>
      <trkpt lat="45.98901" lon="4.82284">
        <ele>236</ele>
        <time>2017-06-24T09:18:59Z</time>
      </trkpt>
      <trkpt lat="45.98905" lon="4.82288">
        <ele>236</ele>
        <time>2017-06-24T09:19:00Z</time>
      </trkpt>
      <trkpt lat="45.98908" lon="4.82293">
        <ele>237</ele>
        <time>2017-06-24T09:19:01Z</time>
      </trkpt>
      <trkpt lat="45.98913" lon="4.82297">
        <ele>237</ele>
        <time>2017-06-24T09:19:02Z</time>
      </trkpt>
      <trkpt lat="45.98917" lon="4.82302">
        <ele>237</ele>
        <time>2017-06-24T09:19:03Z</time>
      </trkpt>
      <trkpt lat="45.9892" lon="4.82307">
        <ele>235</ele>
        <time>2017-06-24T09:19:04Z</time>
      </trkpt>
      <trkpt lat="45.98925" lon="4.82311">
        <ele>235</ele>
        <time>2017-06-24T09:19:05Z</time>
      </trkpt>
      <trkpt lat="45.98928" lon="4.82315">
        <ele>235</ele>
        <time>2017-06-24T09:19:06Z</time>
      </trkpt>
      <trkpt lat="45.98932" lon="4.8232">
        <ele>235</ele>
        <time>2017-06-24T09:19:07Z</time>
      </trkpt>
      <trkpt lat="45.98936" lon="4.82324">
        <ele>235</ele>
        <time>2017-06-24T09:19:08Z</time>
      </trkpt>
      <trkpt lat="45.98939" lon="4.82329">
        <ele>235</ele>
        <time>2017-06-24T09:19:09Z</time>
      </trkpt>
      <trkpt lat="45.98943" lon="4.82333">
        <ele>234</ele>
        <time>2017-06-24T09:19:10Z</time>
      </trkpt>
      <trkpt lat="45.98946" lon="4.82338">
        <ele>235</ele>
        <time>2017-06-24T09:19:11Z</time>
      </trkpt>
      <trkpt lat="45.98949" lon="4.82343">
        <ele>235</ele>
        <time>2017-06-24T09:19:12Z</time>
      </trkpt>
      <trkpt lat="45.98952" lon="4.82349">
        <ele>235</ele>
        <time>2017-06-24T09:19:13Z</time>
      </trkpt>
      <trkpt lat="45.98955" lon="4.82355">
        <ele>235</ele>
        <time>2017-06-24T09:19:14Z</time>
      </trkpt>
      <trkpt lat="45.98957" lon="4.82361">
        <ele>235</ele>
        <time>2017-06-24T09:19:15Z</time>
      </trkpt>
      <trkpt lat="45.98959" lon="4.82367">
        <ele>235</ele>
        <time>2017-06-24T09:19:16Z</time>
      </trkpt>
      <trkpt lat="45.98961" lon="4.82374">
        <ele>235</ele>
        <time>2017-06-24T09:19:17Z</time>
      </trkpt>
      <trkpt lat="45.98963" lon="4.82381">
        <ele>235</ele>
        <time>2017-06-24T09:19:18Z</time>
      </trkpt>
      <trkpt lat="45.98965" lon="4.82388">
        <ele>235</ele>
        <time>2017-06-24T09:19:19Z</time>
      </trkpt>
      <trkpt lat="45.98967" lon="4.82395">
        <ele>235</ele>
        <time>2017-06-24T09:19:20Z</time>
      </trkpt>
      <trkpt lat="45.98969" lon="4.82403">
        <ele>235</ele>
        <time>2017-06-24T09:19:21Z</time>
      </trkpt>
      <trkpt lat="45.98971" lon="4.82411">
        <ele>235</ele>
        <time>2017-06-24T09:19:22Z</time>
      </trkpt>
      <trkpt lat="45.98973" lon="4.82418">
        <ele>236</ele>
        <time>2017-06-24T09:19:23Z</time>
      </trkpt>
      <trkpt lat="45.98975" lon="4.82426">
        <ele>236</ele>
        <time>2017-06-24T09:19:24Z</time>
      </trkpt>
      <trkpt lat="45.98977" lon="4.82433">
        <ele>236</ele>
        <time>2017-06-24T09:19:25Z</time>
      </trkpt>
      <trkpt lat="45.98979" lon="4.8244">
        <ele>236</ele>
        <time>2017-06-24T09:19:26Z</time>
      </trkpt>
      <trkpt lat="45.98981" lon="4.82447">
        <ele>236</ele>
        <time>2017-06-24T09:19:27Z</time>
      </trkpt>
      <trkpt lat="45.98982" lon="4.82453">
        <ele>236</ele>
        <time>2017-06-24T09:19:28Z</time>
      </trkpt>
      <trkpt lat="45.98984" lon="4.8246">
        <ele>236</ele>
        <time>2017-06-24T09:19:29Z</time>
      </trkpt>
      <trkpt lat="45.98986" lon="4.82466">
        <ele>236</ele>
        <time>2017-06-24T09:19:30Z</time>
      </trkpt>
      <trkpt lat="45.98988" lon="4.82472">
        <ele>236</ele>
        <time>2017-06-24T09:19:31Z</time>
      </trkpt>
      <trkpt lat="45.9899" lon="4.82478">
        <ele>236</ele>
        <time>2017-06-24T09:19:32Z</time>
      </trkpt>
      <trkpt lat="45.98992" lon="4.82484">
        <ele>236</ele>
        <time>2017-06-24T09:19:33Z</time>
      </trkpt>
      <trkpt lat="45.98993" lon="4.82491">
        <ele>236</ele>
        <time>2017-06-24T09:19:34Z</time>
      </trkpt>
      <trkpt lat="45.98995" lon="4.82497">
        <ele>235</ele>
        <time>2017-06-24T09:19:35Z</time>
      </trkpt>
      <trkpt lat="45.98998" lon="4.82504">
        <ele>235</ele>
        <time>2017-06-24T09:19:36Z</time>
      </trkpt>
      <trkpt lat="45.99001" lon="4.8251">
        <ele>235</ele>
        <time>2017-06-24T09:19:37Z</time>
      </trkpt>
      <trkpt lat="45.99004" lon="4.82516">
        <ele>235</ele>
        <time>2017-06-24T09:19:38Z</time>
      </trkpt>
      <trkpt lat="45.99007" lon="4.82522">
        <ele>235</ele>
        <time>2017-06-24T09:19:39Z</time>
      </trkpt>
      <trkpt lat="45.9901" lon="4.82528">
        <ele>235</ele>
        <time>2017-06-24T09:19:40Z</time>
      </trkpt>
      <trkpt lat="45.99013" lon="4.82534">
        <ele>235</ele>
        <time>2017-06-24T09:19:41Z</time>
      </trkpt>
      <trkpt lat="45.99017" lon="4.82539">
        <ele>235</ele>
        <time>2017-06-24T09:19:42Z</time>
      </trkpt>
      <trkpt lat="45.9902" lon="4.82545">
        <ele>235</ele>
        <time>2017-06-24T09:19:43Z</time>
      </trkpt>
      <trkpt lat="45.99024" lon="4.82549">
        <ele>235</ele>
        <time>2017-06-24T09:19:44Z</time>
      </trkpt>
      <trkpt lat="45.99028" lon="4.82553">
        <ele>235</ele>
        <time>2017-06-24T09:19:45Z</time>
      </trkpt>
      <trkpt lat="45.99032" lon="4.82557">
        <ele>235</ele>
        <time>2017-06-24T09:19:46Z</time>
      </trkpt>
      <trkpt lat="45.99036" lon="4.82561">
        <ele>235</ele>
        <time>2017-06-24T09:19:47Z</time>
      </trkpt>
      <trkpt lat="45.99041" lon="4.82562">
        <ele>235</ele>
        <time>2017-06-24T09:19:48Z</time>
      </trkpt>
      <trkpt lat="45.99045" lon="4.82564">
        <ele>235</ele>
        <time>2017-06-24T09:19:49Z</time>
      </trkpt>
      <trkpt lat="45.99049" lon="4.82566">
        <ele>235</ele>
        <time>2017-06-24T09:19:50Z</time>
      </trkpt>
      <trkpt lat="45.99054" lon="4.82568">
        <ele>235</ele>
        <time>2017-06-24T09:19:51Z</time>
      </trkpt>
      <trkpt lat="45.99058" lon="4.82571">
        <ele>235</ele>
        <time>2017-06-24T09:19:52Z</time>
      </trkpt>
      <trkpt lat="45.99066" lon="4.82573">
        <ele>235</ele>
        <time>2017-06-24T09:19:54Z</time>
      </trkpt>
      <trkpt lat="45.99069" lon="4.82575">
        <ele>235</ele>
        <time>2017-06-24T09:19:55Z</time>
      </trkpt>
      <trkpt lat="45.99074" lon="4.82584">
        <ele>235</ele>
        <time>2017-06-24T09:19:58Z</time>
      </trkpt>
      <trkpt lat="45.99074" lon="4.82588">
        <ele>235</ele>
        <time>2017-06-24T09:19:59Z</time>
      </trkpt>
      <trkpt lat="45.99072" lon="4.82596">
        <ele>235</ele>
        <time>2017-06-24T09:20:01Z</time>
      </trkpt>
      <trkpt lat="45.9907" lon="4.826">
        <ele>235</ele>
        <time>2017-06-24T09:20:02Z</time>
      </trkpt>
      <trkpt lat="45.99067" lon="4.82607">
        <ele>236</ele>
        <time>2017-06-24T09:20:04Z</time>
      </trkpt>
      <trkpt lat="45.99065" lon="4.82612">
        <ele>236</ele>
        <time>2017-06-24T09:20:05Z</time>
      </trkpt>
      <trkpt lat="45.99061" lon="4.8262">
        <ele>236</ele>
        <time>2017-06-24T09:20:07Z</time>
      </trkpt>
      <trkpt lat="45.99059" lon="4.82624">
        <ele>236</ele>
        <time>2017-06-24T09:20:08Z</time>
      </trkpt>
      <trkpt lat="45.99056" lon="4.82633">
        <ele>236</ele>
        <time>2017-06-24T09:20:10Z</time>
      </trkpt>
      <trkpt lat="45.99054" lon="4.82636">
        <ele>236</ele>
        <time>2017-06-24T09:20:11Z</time>
      </trkpt>
      <trkpt lat="45.99051" lon="4.82644">
        <ele>236</ele>
        <time>2017-06-24T09:20:13Z</time>
      </trkpt>
      <trkpt lat="45.99049" lon="4.82649">
        <ele>236</ele>
        <time>2017-06-24T09:20:14Z</time>
      </trkpt>
      <trkpt lat="45.99045" lon="4.82657">
        <ele>236</ele>
        <time>2017-06-24T09:20:16Z</time>
      </trkpt>
      <trkpt lat="45.99043" lon="4.82661">
        <ele>236</ele>
        <time>2017-06-24T09:20:17Z</time>
      </trkpt>
      <trkpt lat="45.9904" lon="4.8267">
        <ele>238</ele>
        <time>2017-06-24T09:20:19Z</time>
      </trkpt>
      <trkpt lat="45.99038" lon="4.82674">
        <ele>238</ele>
        <time>2017-06-24T09:20:20Z</time>
      </trkpt>
      <trkpt lat="45.99034" lon="4.82683">
        <ele>238</ele>
        <time>2017-06-24T09:20:23Z</time>
      </trkpt>
      <trkpt lat="45.99032" lon="4.82687">
        <ele>238</ele>
        <time>2017-06-24T09:20:24Z</time>
      </trkpt>
      <trkpt lat="45.99029" lon="4.82697">
        <ele>238</ele>
        <time>2017-06-24T09:20:27Z</time>
      </trkpt>
      <trkpt lat="45.99027" lon="4.82701">
        <ele>238</ele>
        <time>2017-06-24T09:20:28Z</time>
      </trkpt>
      <trkpt lat="45.99024" lon="4.82708">
        <ele>238</ele>
        <time>2017-06-24T09:20:30Z</time>
      </trkpt>
      <trkpt lat="45.99022" lon="4.82712">
        <ele>238</ele>
        <time>2017-06-24T09:20:31Z</time>
      </trkpt>
      <trkpt lat="45.99018" lon="4.82722">
        <ele>239</ele>
        <time>2017-06-24T09:20:34Z</time>
      </trkpt>
      <trkpt lat="45.99017" lon="4.82725">
        <ele>239</ele>
        <time>2017-06-24T09:20:35Z</time>
      </trkpt>
      <trkpt lat="45.99012" lon="4.82735">
        <ele>239</ele>
        <time>2017-06-24T09:20:38Z</time>
      </trkpt>
      <trkpt lat="45.99011" lon="4.82738">
        <ele>240</ele>
        <time>2017-06-24T09:20:39Z</time>
      </trkpt>
      <trkpt lat="45.99006" lon="4.82747">
        <ele>240</ele>
        <time>2017-06-24T09:20:42Z</time>
      </trkpt>
      <trkpt lat="45.99005" lon="4.82751">
        <ele>241</ele>
        <time>2017-06-24T09:20:43Z</time>
      </trkpt>
      <trkpt lat="45.99" lon="4.8276">
        <ele>243</ele>
        <time>2017-06-24T09:20:46Z</time>
      </trkpt>
      <trkpt lat="45.98999" lon="4.82763">
        <ele>244</ele>
        <time>2017-06-24T09:20:47Z</time>
      </trkpt>
      <trkpt lat="45.98994" lon="4.82771">
        <ele>245</ele>
        <time>2017-06-24T09:20:50Z</time>
      </trkpt>
      <trkpt lat="45.98993" lon="4.82773">
        <ele>246</ele>
        <time>2017-06-24T09:20:51Z</time>
      </trkpt>
      <trkpt lat="45.98989" lon="4.82783">
        <ele>247</ele>
        <time>2017-06-24T09:20:54Z</time>
      </trkpt>
      <trkpt lat="45.98988" lon="4.82786">
        <ele>247</ele>
        <time>2017-06-24T09:20:55Z</time>
      </trkpt>
      <trkpt lat="45.98984" lon="4.82795">
        <ele>248</ele>
        <time>2017-06-24T09:20:58Z</time>
      </trkpt>
      <trkpt lat="45.98983" lon="4.82798">
        <ele>248</ele>
        <time>2017-06-24T09:20:59Z</time>
      </trkpt>
      <trkpt lat="45.98979" lon="4.82809">
        <ele>248</ele>
        <time>2017-06-24T09:21:03Z</time>
      </trkpt>
      <trkpt lat="45.98978" lon="4.82811">
        <ele>248</ele>
        <time>2017-06-24T09:21:04Z</time>
      </trkpt>
      <trkpt lat="45.98974" lon="4.8282">
        <ele>249</ele>
        <time>2017-06-24T09:21:07Z</time>
      </trkpt>
      <trkpt lat="45.98973" lon="4.82823">
        <ele>249</ele>
        <time>2017-06-24T09:21:08Z</time>
      </trkpt>
      <trkpt lat="45.98969" lon="4.82834">
        <ele>251</ele>
        <time>2017-06-24T09:21:12Z</time>
      </trkpt>
      <trkpt lat="45.98968" lon="4.82837">
        <ele>251</ele>
        <time>2017-06-24T09:21:13Z</time>
      </trkpt>
      <trkpt lat="45.98964" lon="4.82846">
        <ele>252</ele>
        <time>2017-06-24T09:21:16Z</time>
      </trkpt>
      <trkpt lat="45.98962" lon="4.82848">
        <ele>252</ele>
        <time>2017-06-24T09:21:17Z</time>
      </trkpt>
      <trkpt lat="45.98957" lon="4.82858">
        <ele>252</ele>
        <time>2017-06-24T09:21:21Z</time>
      </trkpt>
      <trkpt lat="45.98957" lon="4.8286">
        <ele>252</ele>
        <time>2017-06-24T09:21:22Z</time>
      </trkpt>
      <trkpt lat="45.98954" lon="4.82871">
        <ele>253</ele>
        <time>2017-06-24T09:21:26Z</time>
      </trkpt>
      <trkpt lat="45.98953" lon="4.82873">
        <ele>253</ele>
        <time>2017-06-24T09:21:27Z</time>
      </trkpt>
      <trkpt lat="45.98948" lon="4.82882">
        <ele>253</ele>
        <time>2017-06-24T09:21:30Z</time>
      </trkpt>
      <trkpt lat="45.98947" lon="4.82886">
        <ele>253</ele>
        <time>2017-06-24T09:21:31Z</time>
      </trkpt>
      <trkpt lat="45.98942" lon="4.82896">
        <ele>253</ele>
        <time>2017-06-24T09:21:35Z</time>
      </trkpt>
      <trkpt lat="45.98941" lon="4.82898">
        <ele>253</ele>
        <time>2017-06-24T09:21:36Z</time>
      </trkpt>
      <trkpt lat="45.98937" lon="4.82908">
        <ele>254</ele>
        <time>2017-06-24T09:21:40Z</time>
      </trkpt>
      <trkpt lat="45.98936" lon="4.8291">
        <ele>254</ele>
        <time>2017-06-24T09:21:41Z</time>
      </trkpt>
      <trkpt lat="45.98932" lon="4.82921">
        <ele>255</ele>
        <time>2017-06-24T09:21:45Z</time>
      </trkpt>
      <trkpt lat="45.9893" lon="4.82924">
        <ele>255</ele>
        <time>2017-06-24T09:21:46Z</time>
      </trkpt>
      <trkpt lat="45.98927" lon="4.82933">
        <ele>255</ele>
        <time>2017-06-24T09:21:49Z</time>
      </trkpt>
      <trkpt lat="45.98926" lon="4.82936">
        <ele>255</ele>
        <time>2017-06-24T09:21:50Z</time>
      </trkpt>
      <trkpt lat="45.98922" lon="4.82946">
        <ele>255</ele>
        <time>2017-06-24T09:21:54Z</time>
      </trkpt>
      <trkpt lat="45.9892" lon="4.82949">
        <ele>255</ele>
        <time>2017-06-24T09:21:55Z</time>
      </trkpt>
      <trkpt lat="45.98915" lon="4.82956">
        <ele>258</ele>
        <time>2017-06-24T09:21:58Z</time>
      </trkpt>
      <trkpt lat="45.98914" lon="4.82959">
        <ele>258</ele>
        <time>2017-06-24T09:21:59Z</time>
      </trkpt>
      <trkpt lat="45.98909" lon="4.82968">
        <ele>259</ele>
        <time>2017-06-24T09:22:03Z</time>
      </trkpt>
      <trkpt lat="45.98908" lon="4.8297">
        <ele>259</ele>
        <time>2017-06-24T09:22:04Z</time>
      </trkpt>
      <trkpt lat="45.989" lon="4.82975">
        <ele>259</ele>
        <time>2017-06-24T09:22:08Z</time>
      </trkpt>
      <trkpt lat="45.98899" lon="4.82977">
        <ele>259</ele>
        <time>2017-06-24T09:22:09Z</time>
      </trkpt>
      <trkpt lat="45.98892" lon="4.82983">
        <ele>259</ele>
        <time>2017-06-24T09:22:13Z</time>
      </trkpt>
      <trkpt lat="45.98889" lon="4.82984">
        <ele>259</ele>
        <time>2017-06-24T09:22:14Z</time>
      </trkpt>
      <trkpt lat="45.98881" lon="4.82989">
        <ele>260</ele>
        <time>2017-06-24T09:22:18Z</time>
      </trkpt>
      <trkpt lat="45.98879" lon="4.8299">
        <ele>260</ele>
        <time>2017-06-24T09:22:19Z</time>
      </trkpt>
      <trkpt lat="45.98871" lon="4.82994">
        <ele>260</ele>
        <time>2017-06-24T09:22:23Z</time>
      </trkpt>
      <trkpt lat="45.98869" lon="4.82995">
        <ele>260</ele>
        <time>2017-06-24T09:22:24Z</time>
      </trkpt>
      <trkpt lat="45.98862" lon="4.83001">
        <ele>260</ele>
        <time>2017-06-24T09:22:28Z</time>
      </trkpt>
      <trkpt lat="45.9886" lon="4.83002">
        <ele>261</ele>
        <time>2017-06-24T09:22:29Z</time>
      </trkpt>
      <trkpt lat="45.98853" lon="4.83006">
        <ele>261</ele>
        <time>2017-06-24T09:22:33Z</time>
      </trkpt>
      <trkpt lat="45.98852" lon="4.83008">
        <ele>261</ele>
        <time>2017-06-24T09:22:34Z</time>
      </trkpt>
      <trkpt lat="45.98846" lon="4.83013">
        <ele>261</ele>
        <time>2017-06-24T09:22:38Z</time>
      </trkpt>
      <trkpt lat="45.98844" lon="4.83015">
        <ele>261</ele>
        <time>2017-06-24T09:22:39Z</time>
      </trkpt>
      <trkpt lat="45.98837" lon="4.8302">
        <ele>261</ele>
        <time>2017-06-24T09:22:42Z</time>
      </trkpt>
      <trkpt lat="45.98835" lon="4.83021">
        <ele>261</ele>
        <time>2017-06-24T09:22:43Z</time>
      </trkpt>
      <trkpt lat="45.98827" lon="4.83025">
        <ele>264</ele>
        <time>2017-06-24T09:22:46Z</time>
      </trkpt>
      <trkpt lat="45.98824" lon="4.83026">
        <ele>264</ele>
        <time>2017-06-24T09:22:47Z</time>
      </trkpt>
      <trkpt lat="45.98816" lon="4.83031">
        <ele>264</ele>
        <time>2017-06-24T09:22:50Z</time>
      </trkpt>
      <trkpt lat="45.98814" lon="4.83034">
        <ele>264</ele>
        <time>2017-06-24T09:22:51Z</time>
      </trkpt>
      <trkpt lat="45.98809" lon="4.83038">
        <ele>264</ele>
        <time>2017-06-24T09:22:53Z</time>
      </trkpt>
      <trkpt lat="45.98806" lon="4.83041">
        <ele>264</ele>
        <time>2017-06-24T09:22:54Z</time>
      </trkpt>
      <trkpt lat="45.98799" lon="4.83048">
        <ele>264</ele>
        <time>2017-06-24T09:22:57Z</time>
      </trkpt>
      <trkpt lat="45.98796" lon="4.8305">
        <ele>265</ele>
        <time>2017-06-24T09:22:58Z</time>
      </trkpt>
      <trkpt lat="45.9879" lon="4.83056">
        <ele>265</ele>
        <time>2017-06-24T09:23:01Z</time>
      </trkpt>
      <trkpt lat="45.98788" lon="4.83058">
        <ele>265</ele>
        <time>2017-06-24T09:23:02Z</time>
      </trkpt>
      <trkpt lat="45.98781" lon="4.83065">
        <ele>265</ele>
        <time>2017-06-24T09:23:05Z</time>
      </trkpt>
      <trkpt lat="45.98779" lon="4.83067">
        <ele>265</ele>
        <time>2017-06-24T09:23:06Z</time>
      </trkpt>
      <trkpt lat="45.98771" lon="4.83073">
        <ele>265</ele>
        <time>2017-06-24T09:23:09Z</time>
      </trkpt>
      <trkpt lat="45.98769" lon="4.83075">
        <ele>266</ele>
        <time>2017-06-24T09:23:10Z</time>
      </trkpt>
      <trkpt lat="45.98762" lon="4.83081">
        <ele>266</ele>
        <time>2017-06-24T09:23:13Z</time>
      </trkpt>
      <trkpt lat="45.9876" lon="4.83083">
        <ele>266</ele>
        <time>2017-06-24T09:23:14Z</time>
      </trkpt>
      <trkpt lat="45.98754" lon="4.8309">
        <ele>266</ele>
        <time>2017-06-24T09:23:17Z</time>
      </trkpt>
      <trkpt lat="45.98752" lon="4.83091">
        <ele>266</ele>
        <time>2017-06-24T09:23:18Z</time>
      </trkpt>
      <trkpt lat="45.98744" lon="4.83098">
        <ele>267</ele>
        <time>2017-06-24T09:23:21Z</time>
      </trkpt>
      <trkpt lat="45.98742" lon="4.831">
        <ele>267</ele>
        <time>2017-06-24T09:23:22Z</time>
      </trkpt>
      <trkpt lat="45.98735" lon="4.83108">
        <ele>267</ele>
        <time>2017-06-24T09:23:25Z</time>
      </trkpt>
      <trkpt lat="45.98732" lon="4.8311">
        <ele>267</ele>
        <time>2017-06-24T09:23:26Z</time>
      </trkpt>
      <trkpt lat="45.98725" lon="4.83116">
        <ele>267</ele>
        <time>2017-06-24T09:23:29Z</time>
      </trkpt>
      <trkpt lat="45.98723" lon="4.83118">
        <ele>267</ele>
        <time>2017-06-24T09:23:30Z</time>
      </trkpt>
      <trkpt lat="45.98717" lon="4.83123">
        <ele>266</ele>
        <time>2017-06-24T09:23:32Z</time>
      </trkpt>
      <trkpt lat="45.98715" lon="4.83125">
        <ele>266</ele>
        <time>2017-06-24T09:23:33Z</time>
      </trkpt>
      <trkpt lat="45.98708" lon="4.83132">
        <ele>266</ele>
        <time>2017-06-24T09:23:36Z</time>
      </trkpt>
      <trkpt lat="45.98706" lon="4.83133">
        <ele>266</ele>
        <time>2017-06-24T09:23:37Z</time>
      </trkpt>
      <trkpt lat="45.98699" lon="4.83139">
        <ele>266</ele>
        <time>2017-06-24T09:23:40Z</time>
      </trkpt>
      <trkpt lat="45.98696" lon="4.83141">
        <ele>266</ele>
        <time>2017-06-24T09:23:41Z</time>
      </trkpt>
      <trkpt lat="45.98691" lon="4.83144">
        <ele>266</ele>
        <time>2017-06-24T09:23:43Z</time>
      </trkpt>
      <trkpt lat="45.98688" lon="4.83146">
        <ele>266</ele>
        <time>2017-06-24T09:23:44Z</time>
      </trkpt>
      <trkpt lat="45.98681" lon="4.8315">
        <ele>266</ele>
        <time>2017-06-24T09:23:46Z</time>
      </trkpt>
      <trkpt lat="45.98678" lon="4.83152">
        <ele>266</ele>
        <time>2017-06-24T09:23:47Z</time>
      </trkpt>
      <trkpt lat="45.98671" lon="4.83156">
        <ele>266</ele>
        <time>2017-06-24T09:23:49Z</time>
      </trkpt>
      <trkpt lat="45.98668" lon="4.83159">
        <ele>266</ele>
        <time>2017-06-24T09:23:50Z</time>
      </trkpt>
      <trkpt lat="45.98662" lon="4.83163">
        <ele>266</ele>
        <time>2017-06-24T09:23:52Z</time>
      </trkpt>
      <trkpt lat="45.98659" lon="4.83165">
        <ele>267</ele>
        <time>2017-06-24T09:23:53Z</time>
      </trkpt>
      <trkpt lat="45.98653" lon="4.8317">
        <ele>267</ele>
        <time>2017-06-24T09:23:55Z</time>
      </trkpt>
      <trkpt lat="45.98651" lon="4.83171">
        <ele>267</ele>
        <time>2017-06-24T09:23:56Z</time>
      </trkpt>
      <trkpt lat="45.98645" lon="4.83176">
        <ele>267</ele>
        <time>2017-06-24T09:23:58Z</time>
      </trkpt>
      <trkpt lat="45.98642" lon="4.83179">
        <ele>267</ele>
        <time>2017-06-24T09:23:59Z</time>
      </trkpt>
      <trkpt lat="45.98637" lon="4.83185">
        <ele>267</ele>
        <time>2017-06-24T09:24:01Z</time>
      </trkpt>
      <trkpt lat="45.98634" lon="4.83188">
        <ele>267</ele>
        <time>2017-06-24T09:24:02Z</time>
      </trkpt>
      <trkpt lat="45.98627" lon="4.83195">
        <ele>267</ele>
        <time>2017-06-24T09:24:04Z</time>
      </trkpt>
      <trkpt lat="45.98623" lon="4.83199">
        <ele>267</ele>
        <time>2017-06-24T09:24:05Z</time>
      </trkpt>
      <trkpt lat="45.98617" lon="4.83207">
        <ele>267</ele>
        <time>2017-06-24T09:24:07Z</time>
      </trkpt>
      <trkpt lat="45.98614" lon="4.83212">
        <ele>267</ele>
        <time>2017-06-24T09:24:08Z</time>
      </trkpt>
      <trkpt lat="45.98609" lon="4.83219">
        <ele>267</ele>
        <time>2017-06-24T09:24:10Z</time>
      </trkpt>
      <trkpt lat="45.98605" lon="4.83223">
        <ele>267</ele>
        <time>2017-06-24T09:24:11Z</time>
      </trkpt>
      <trkpt lat="45.98602" lon="4.83228">
        <ele>268</ele>
        <time>2017-06-24T09:24:12Z</time>
      </trkpt>
      <trkpt lat="45.98599" lon="4.83232">
        <ele>268</ele>
        <time>2017-06-24T09:24:13Z</time>
      </trkpt>
      <trkpt lat="45.98595" lon="4.83237">
        <ele>268</ele>
        <time>2017-06-24T09:24:14Z</time>
      </trkpt>
      <trkpt lat="45.98592" lon="4.83242">
        <ele>268</ele>
        <time>2017-06-24T09:24:15Z</time>
      </trkpt>
      <trkpt lat="45.98589" lon="4.83246">
        <ele>268</ele>
        <time>2017-06-24T09:24:16Z</time>
      </trkpt>
      <trkpt lat="45.98585" lon="4.83251">
        <ele>268</ele>
        <time>2017-06-24T09:24:17Z</time>
      </trkpt>
      <trkpt lat="45.98581" lon="4.83256">
        <ele>268</ele>
        <time>2017-06-24T09:24:18Z</time>
      </trkpt>
      <trkpt lat="45.98578" lon="4.83261">
        <ele>268</ele>
        <time>2017-06-24T09:24:19Z</time>
      </trkpt>
      <trkpt lat="45.98575" lon="4.83266">
        <ele>269</ele>
        <time>2017-06-24T09:24:20Z</time>
      </trkpt>
      <trkpt lat="45.98571" lon="4.8327">
        <ele>269</ele>
        <time>2017-06-24T09:24:21Z</time>
      </trkpt>
      <trkpt lat="45.98565" lon="4.83278">
        <ele>269</ele>
        <time>2017-06-24T09:24:23Z</time>
      </trkpt>
      <trkpt lat="45.98562" lon="4.83283">
        <ele>269</ele>
        <time>2017-06-24T09:24:24Z</time>
      </trkpt>
      <trkpt lat="45.98556" lon="4.83291">
        <ele>269</ele>
        <time>2017-06-24T09:24:26Z</time>
      </trkpt>
      <trkpt lat="45.98554" lon="4.83294">
        <ele>269</ele>
        <time>2017-06-24T09:24:27Z</time>
      </trkpt>
      <trkpt lat="45.98548" lon="4.83302">
        <ele>269</ele>
        <time>2017-06-24T09:24:29Z</time>
      </trkpt>
      <trkpt lat="45.98545" lon="4.83306">
        <ele>269</ele>
        <time>2017-06-24T09:24:30Z</time>
      </trkpt>
      <trkpt lat="45.98541" lon="4.8331">
        <ele>269</ele>
        <time>2017-06-24T09:24:31Z</time>
      </trkpt>
      <trkpt lat="45.98538" lon="4.83315">
        <ele>269</ele>
        <time>2017-06-24T09:24:32Z</time>
      </trkpt>
      <trkpt lat="45.98534" lon="4.83319">
        <ele>269</ele>
        <time>2017-06-24T09:24:33Z</time>
      </trkpt>
      <trkpt lat="45.98531" lon="4.83324">
        <ele>269</ele>
        <time>2017-06-24T09:24:34Z</time>
      </trkpt>
      <trkpt lat="45.98526" lon="4.83333">
        <ele>270</ele>
        <time>2017-06-24T09:24:36Z</time>
      </trkpt>
      <trkpt lat="45.98522" lon="4.83337">
        <ele>270</ele>
        <time>2017-06-24T09:24:37Z</time>
      </trkpt>
      <trkpt lat="45.98519" lon="4.83342">
        <ele>270</ele>
        <time>2017-06-24T09:24:38Z</time>
      </trkpt>
      <trkpt lat="45.98516" lon="4.83346">
        <ele>270</ele>
        <time>2017-06-24T09:24:39Z</time>
      </trkpt>
      <trkpt lat="45.98512" lon="4.83351">
        <ele>270</ele>
        <time>2017-06-24T09:24:40Z</time>
      </trkpt>
      <trkpt lat="45.98509" lon="4.83356">
        <ele>270</ele>
        <time>2017-06-24T09:24:41Z</time>
      </trkpt>
      <trkpt lat="45.98505" lon="4.83361">
        <ele>269</ele>
        <time>2017-06-24T09:24:42Z</time>
      </trkpt>
      <trkpt lat="45.98501" lon="4.83366">
        <ele>269</ele>
        <time>2017-06-24T09:24:43Z</time>
      </trkpt>
      <trkpt lat="45.98497" lon="4.83371">
        <ele>270</ele>
        <time>2017-06-24T09:24:44Z</time>
      </trkpt>
      <trkpt lat="45.98493" lon="4.83376">
        <ele>269</ele>
        <time>2017-06-24T09:24:45Z</time>
      </trkpt>
      <trkpt lat="45.98489" lon="4.83381">
        <ele>269</ele>
        <time>2017-06-24T09:24:46Z</time>
      </trkpt>
      <trkpt lat="45.98485" lon="4.83386">
        <ele>269</ele>
        <time>2017-06-24T09:24:47Z</time>
      </trkpt>
      <trkpt lat="45.98482" lon="4.83391">
        <ele>269</ele>
        <time>2017-06-24T09:24:48Z</time>
      </trkpt>
      <trkpt lat="45.98478" lon="4.83396">
        <ele>269</ele>
        <time>2017-06-24T09:24:49Z</time>
      </trkpt>
      <trkpt lat="45.98474" lon="4.83402">
        <ele>269</ele>
        <time>2017-06-24T09:24:50Z</time>
      </trkpt>
      <trkpt lat="45.9847" lon="4.83407">
        <ele>269</ele>
        <time>2017-06-24T09:24:51Z</time>
      </trkpt>
      <trkpt lat="45.98466" lon="4.83412">
        <ele>269</ele>
        <time>2017-06-24T09:24:52Z</time>
      </trkpt>
      <trkpt lat="45.98463" lon="4.83418">
        <ele>269</ele>
        <time>2017-06-24T09:24:53Z</time>
      </trkpt>
      <trkpt lat="45.98459" lon="4.83423">
        <ele>269</ele>
        <time>2017-06-24T09:24:54Z</time>
      </trkpt>
      <trkpt lat="45.98455" lon="4.83428">
        <ele>268</ele>
        <time>2017-06-24T09:24:55Z</time>
      </trkpt>
      <trkpt lat="45.98451" lon="4.83433">
        <ele>268</ele>
        <time>2017-06-24T09:24:56Z</time>
      </trkpt>
      <trkpt lat="45.98447" lon="4.83437">
        <ele>268</ele>
        <time>2017-06-24T09:24:57Z</time>
      </trkpt>
      <trkpt lat="45.98443" lon="4.83442">
        <ele>268</ele>
        <time>2017-06-24T09:24:58Z</time>
      </trkpt>
      <trkpt lat="45.9844" lon="4.83446">
        <ele>268</ele>
        <time>2017-06-24T09:24:59Z</time>
      </trkpt>
      <trkpt lat="45.98436" lon="4.83451">
        <ele>268</ele>
        <time>2017-06-24T09:25:00Z</time>
      </trkpt>
      <trkpt lat="45.98433" lon="4.83456">
        <ele>268</ele>
        <time>2017-06-24T09:25:01Z</time>
      </trkpt>
      <trkpt lat="45.98429" lon="4.83461">
        <ele>268</ele>
        <time>2017-06-24T09:25:02Z</time>
      </trkpt>
      <trkpt lat="45.98425" lon="4.83467">
        <ele>268</ele>
        <time>2017-06-24T09:25:03Z</time>
      </trkpt>
      <trkpt lat="45.98421" lon="4.83473">
        <ele>268</ele>
        <time>2017-06-24T09:25:04Z</time>
      </trkpt>
      <trkpt lat="45.98417" lon="4.83478">
        <ele>268</ele>
        <time>2017-06-24T09:25:05Z</time>
      </trkpt>
      <trkpt lat="45.98413" lon="4.83484">
        <ele>269</ele>
        <time>2017-06-24T09:25:06Z</time>
      </trkpt>
      <trkpt lat="45.98409" lon="4.8349">
        <ele>269</ele>
        <time>2017-06-24T09:25:07Z</time>
      </trkpt>
      <trkpt lat="45.98404" lon="4.83496">
        <ele>269</ele>
        <time>2017-06-24T09:25:08Z</time>
      </trkpt>
      <trkpt lat="45.984" lon="4.83502">
        <ele>269</ele>
        <time>2017-06-24T09:25:09Z</time>
      </trkpt>
      <trkpt lat="45.98396" lon="4.83508">
        <ele>269</ele>
        <time>2017-06-24T09:25:10Z</time>
      </trkpt>
      <trkpt lat="45.98392" lon="4.83514">
        <ele>269</ele>
        <time>2017-06-24T09:25:11Z</time>
      </trkpt>
      <trkpt lat="45.98388" lon="4.83519">
        <ele>269</ele>
        <time>2017-06-24T09:25:12Z</time>
      </trkpt>
      <trkpt lat="45.98384" lon="4.83525">
        <ele>269</ele>
        <time>2017-06-24T09:25:13Z</time>
      </trkpt>
      <trkpt lat="45.9838" lon="4.8353">
        <ele>269</ele>
        <time>2017-06-24T09:25:14Z</time>
      </trkpt>
      <trkpt lat="45.98377" lon="4.83535">
        <ele>269</ele>
        <time>2017-06-24T09:25:15Z</time>
      </trkpt>
      <trkpt lat="45.98373" lon="4.8354">
        <ele>269</ele>
        <time>2017-06-24T09:25:16Z</time>
      </trkpt>
      <trkpt lat="45.98368" lon="4.83545">
        <ele>269</ele>
        <time>2017-06-24T09:25:17Z</time>
      </trkpt>
      <trkpt lat="45.98364" lon="4.83551">
        <ele>269</ele>
        <time>2017-06-24T09:25:18Z</time>
      </trkpt>
      <trkpt lat="45.98359" lon="4.83557">
        <ele>269</ele>
        <time>2017-06-24T09:25:19Z</time>
      </trkpt>
      <trkpt lat="45.98355" lon="4.83563">
        <ele>269</ele>
        <time>2017-06-24T09:25:20Z</time>
      </trkpt>
      <trkpt lat="45.9835" lon="4.83569">
        <ele>269</ele>
        <time>2017-06-24T09:25:21Z</time>
      </trkpt>
      <trkpt lat="45.98346" lon="4.83575">
        <ele>270</ele>
        <time>2017-06-24T09:25:22Z</time>
      </trkpt>
      <trkpt lat="45.98342" lon="4.8358">
        <ele>270</ele>
        <time>2017-06-24T09:25:23Z</time>
      </trkpt>
      <trkpt lat="45.98338" lon="4.83586">
        <ele>270</ele>
        <time>2017-06-24T09:25:24Z</time>
      </trkpt>
      <trkpt lat="45.98334" lon="4.83591">
        <ele>270</ele>
        <time>2017-06-24T09:25:25Z</time>
      </trkpt>
      <trkpt lat="45.9833" lon="4.83595">
        <ele>270</ele>
        <time>2017-06-24T09:25:26Z</time>
      </trkpt>
      <trkpt lat="45.98327" lon="4.836">
        <ele>271</ele>
        <time>2017-06-24T09:25:27Z</time>
      </trkpt>
      <trkpt lat="45.98321" lon="4.83609">
        <ele>271</ele>
        <time>2017-06-24T09:25:29Z</time>
      </trkpt>
      <trkpt lat="45.98318" lon="4.83614">
        <ele>271</ele>
        <time>2017-06-24T09:25:30Z</time>
      </trkpt>
      <trkpt lat="45.98315" lon="4.83619">
        <ele>271</ele>
        <time>2017-06-24T09:25:31Z</time>
      </trkpt>
      <trkpt lat="45.98311" lon="4.83624">
        <ele>271</ele>
        <time>2017-06-24T09:25:32Z</time>
      </trkpt>
      <trkpt lat="45.98308" lon="4.8363">
        <ele>271</ele>
        <time>2017-06-24T09:25:33Z</time>
      </trkpt>
      <trkpt lat="45.98304" lon="4.83637">
        <ele>271</ele>
        <time>2017-06-24T09:25:34Z</time>
      </trkpt>
      <trkpt lat="45.98301" lon="4.83645">
        <ele>271</ele>
        <time>2017-06-24T09:25:35Z</time>
      </trkpt>
      <trkpt lat="45.98298" lon="4.83653">
        <ele>271</ele>
        <time>2017-06-24T09:25:36Z</time>
      </trkpt>
      <trkpt lat="45.98295" lon="4.83661">
        <ele>271</ele>
        <time>2017-06-24T09:25:37Z</time>
      </trkpt>
      <trkpt lat="45.98292" lon="4.83669">
        <ele>272</ele>
        <time>2017-06-24T09:25:38Z</time>
      </trkpt>
      <trkpt lat="45.98288" lon="4.83676">
        <ele>272</ele>
        <time>2017-06-24T09:25:39Z</time>
      </trkpt>
      <trkpt lat="45.98285" lon="4.83685">
        <ele>272</ele>
        <time>2017-06-24T09:25:40Z</time>
      </trkpt>
      <trkpt lat="45.98282" lon="4.83693">
        <ele>272</ele>
        <time>2017-06-24T09:25:41Z</time>
      </trkpt>
      <trkpt lat="45.98279" lon="4.83701">
        <ele>272</ele>
        <time>2017-06-24T09:25:42Z</time>
      </trkpt>
      <trkpt lat="45.98276" lon="4.83709">
        <ele>272</ele>
        <time>2017-06-24T09:25:43Z</time>
      </trkpt>
      <trkpt lat="45.98273" lon="4.83717">
        <ele>272</ele>
        <time>2017-06-24T09:25:44Z</time>
      </trkpt>
      <trkpt lat="45.98271" lon="4.83725">
        <ele>272</ele>
        <time>2017-06-24T09:25:45Z</time>
      </trkpt>
      <trkpt lat="45.98268" lon="4.83732">
        <ele>272</ele>
        <time>2017-06-24T09:25:46Z</time>
      </trkpt>
      <trkpt lat="45.98266" lon="4.8374">
        <ele>272</ele>
        <time>2017-06-24T09:25:47Z</time>
      </trkpt>
      <trkpt lat="45.98263" lon="4.83746">
        <ele>272</ele>
        <time>2017-06-24T09:25:48Z</time>
      </trkpt>
      <trkpt lat="45.98261" lon="4.83753">
        <ele>272</ele>
        <time>2017-06-24T09:25:49Z</time>
      </trkpt>
      <trkpt lat="45.98258" lon="4.8376">
        <ele>272</ele>
        <time>2017-06-24T09:25:50Z</time>
      </trkpt>
      <trkpt lat="45.98255" lon="4.83767">
        <ele>272</ele>
        <time>2017-06-24T09:25:51Z</time>
      </trkpt>
      <trkpt lat="45.98253" lon="4.83774">
        <ele>272</ele>
        <time>2017-06-24T09:25:52Z</time>
      </trkpt>
      <trkpt lat="45.9825" lon="4.83782">
        <ele>272</ele>
        <time>2017-06-24T09:25:53Z</time>
      </trkpt>
      <trkpt lat="45.98248" lon="4.83789">
        <ele>272</ele>
        <time>2017-06-24T09:25:54Z</time>
      </trkpt>
      <trkpt lat="45.98246" lon="4.83795">
        <ele>272</ele>
        <time>2017-06-24T09:25:55Z</time>
      </trkpt>
      <trkpt lat="45.98244" lon="4.83802">
        <ele>272</ele>
        <time>2017-06-24T09:25:56Z</time>
      </trkpt>
      <trkpt lat="45.98241" lon="4.83808">
        <ele>272</ele>
        <time>2017-06-24T09:25:57Z</time>
      </trkpt>
      <trkpt lat="45.98239" lon="4.83815">
        <ele>272</ele>
        <time>2017-06-24T09:25:58Z</time>
      </trkpt>
      <trkpt lat="45.98237" lon="4.83821">
        <ele>272</ele>
        <time>2017-06-24T09:25:59Z</time>
      </trkpt>
      <trkpt lat="45.98235" lon="4.83827">
        <ele>272</ele>
        <time>2017-06-24T09:26:00Z</time>
      </trkpt>
      <trkpt lat="45.98233" lon="4.83834">
        <ele>272</ele>
        <time>2017-06-24T09:26:01Z</time>
      </trkpt>
      <trkpt lat="45.98231" lon="4.8384">
        <ele>272</ele>
        <time>2017-06-24T09:26:02Z</time>
      </trkpt>
      <trkpt lat="45.98229" lon="4.83846">
        <ele>272</ele>
        <time>2017-06-24T09:26:03Z</time>
      </trkpt>
      <trkpt lat="45.98227" lon="4.83853">
        <ele>272</ele>
        <time>2017-06-24T09:26:04Z</time>
      </trkpt>
      <trkpt lat="45.98224" lon="4.83859">
        <ele>272</ele>
        <time>2017-06-24T09:26:05Z</time>
      </trkpt>
      <trkpt lat="45.98222" lon="4.83865">
        <ele>272</ele>
        <time>2017-06-24T09:26:06Z</time>
      </trkpt>
      <trkpt lat="45.9822" lon="4.83872">
        <ele>272</ele>
        <time>2017-06-24T09:26:07Z</time>
      </trkpt>
      <trkpt lat="45.98218" lon="4.83878">
        <ele>272</ele>
        <time>2017-06-24T09:26:08Z</time>
      </trkpt>
      <trkpt lat="45.98216" lon="4.83884">
        <ele>272</ele>
        <time>2017-06-24T09:26:09Z</time>
      </trkpt>
      <trkpt lat="45.98214" lon="4.8389">
        <ele>273</ele>
        <time>2017-06-24T09:26:10Z</time>
      </trkpt>
      <trkpt lat="45.98212" lon="4.83896">
        <ele>273</ele>
        <time>2017-06-24T09:26:11Z</time>
      </trkpt>
      <trkpt lat="45.98209" lon="4.83903">
        <ele>273</ele>
        <time>2017-06-24T09:26:12Z</time>
      </trkpt>
      <trkpt lat="45.98207" lon="4.83909">
        <ele>273</ele>
        <time>2017-06-24T09:26:13Z</time>
      </trkpt>
      <trkpt lat="45.98205" lon="4.83916">
        <ele>273</ele>
        <time>2017-06-24T09:26:14Z</time>
      </trkpt>
      <trkpt lat="45.98202" lon="4.83924">
        <ele>273</ele>
        <time>2017-06-24T09:26:15Z</time>
      </trkpt>
      <trkpt lat="45.982" lon="4.83932">
        <ele>273</ele>
        <time>2017-06-24T09:26:16Z</time>
      </trkpt>
      <trkpt lat="45.98197" lon="4.83939">
        <ele>273</ele>
        <time>2017-06-24T09:26:17Z</time>
      </trkpt>
      <trkpt lat="45.98194" lon="4.83947">
        <ele>273</ele>
        <time>2017-06-24T09:26:18Z</time>
      </trkpt>
      <trkpt lat="45.98192" lon="4.83954">
        <ele>273</ele>
        <time>2017-06-24T09:26:19Z</time>
      </trkpt>
      <trkpt lat="45.98189" lon="4.83961">
        <ele>273</ele>
        <time>2017-06-24T09:26:20Z</time>
      </trkpt>
      <trkpt lat="45.98187" lon="4.83968">
        <ele>273</ele>
        <time>2017-06-24T09:26:21Z</time>
      </trkpt>
      <trkpt lat="45.98184" lon="4.83974">
        <ele>273</ele>
        <time>2017-06-24T09:26:22Z</time>
      </trkpt>
      <trkpt lat="45.98181" lon="4.8398">
        <ele>273</ele>
        <time>2017-06-24T09:26:23Z</time>
      </trkpt>
      <trkpt lat="45.98179" lon="4.83987">
        <ele>273</ele>
        <time>2017-06-24T09:26:24Z</time>
      </trkpt>
      <trkpt lat="45.98177" lon="4.83992">
        <ele>273</ele>
        <time>2017-06-24T09:26:25Z</time>
      </trkpt>
      <trkpt lat="45.98174" lon="4.83998">
        <ele>273</ele>
        <time>2017-06-24T09:26:26Z</time>
      </trkpt>
      <trkpt lat="45.98172" lon="4.84004">
        <ele>273</ele>
        <time>2017-06-24T09:26:27Z</time>
      </trkpt>
      <trkpt lat="45.98169" lon="4.8401">
        <ele>273</ele>
        <time>2017-06-24T09:26:28Z</time>
      </trkpt>
      <trkpt lat="45.98166" lon="4.84016">
        <ele>273</ele>
        <time>2017-06-24T09:26:29Z</time>
      </trkpt>
      <trkpt lat="45.98163" lon="4.84021">
        <ele>273</ele>
        <time>2017-06-24T09:26:30Z</time>
      </trkpt>
      <trkpt lat="45.9816" lon="4.84027">
        <ele>273</ele>
        <time>2017-06-24T09:26:31Z</time>
      </trkpt>
      <trkpt lat="45.98156" lon="4.84033">
        <ele>273</ele>
        <time>2017-06-24T09:26:32Z</time>
      </trkpt>
      <trkpt lat="45.98152" lon="4.84039">
        <ele>273</ele>
        <time>2017-06-24T09:26:33Z</time>
      </trkpt>
      <trkpt lat="45.98148" lon="4.84046">
        <ele>273</ele>
        <time>2017-06-24T09:26:34Z</time>
      </trkpt>
      <trkpt lat="45.98144" lon="4.84052">
        <ele>273</ele>
        <time>2017-06-24T09:26:35Z</time>
      </trkpt>
      <trkpt lat="45.98141" lon="4.84057">
        <ele>273</ele>
        <time>2017-06-24T09:26:36Z</time>
      </trkpt>
      <trkpt lat="45.98137" lon="4.84062">
        <ele>273</ele>
        <time>2017-06-24T09:26:37Z</time>
      </trkpt>
      <trkpt lat="45.98133" lon="4.84067">
        <ele>273</ele>
        <time>2017-06-24T09:26:38Z</time>
      </trkpt>
      <trkpt lat="45.98129" lon="4.84072">
        <ele>273</ele>
        <time>2017-06-24T09:26:39Z</time>
      </trkpt>
      <trkpt lat="45.98126" lon="4.84077">
        <ele>273</ele>
        <time>2017-06-24T09:26:40Z</time>
      </trkpt>
      <trkpt lat="45.98122" lon="4.84081">
        <ele>273</ele>
        <time>2017-06-24T09:26:41Z</time>
      </trkpt>
      <trkpt lat="45.98118" lon="4.84085">
        <ele>273</ele>
        <time>2017-06-24T09:26:42Z</time>
      </trkpt>
      <trkpt lat="45.98114" lon="4.84089">
        <ele>273</ele>
        <time>2017-06-24T09:26:43Z</time>
      </trkpt>
      <trkpt lat="45.98109" lon="4.84094">
        <ele>273</ele>
        <time>2017-06-24T09:26:44Z</time>
      </trkpt>
      <trkpt lat="45.98104" lon="4.84098">
        <ele>273</ele>
        <time>2017-06-24T09:26:45Z</time>
      </trkpt>
      <trkpt lat="45.98099" lon="4.84103">
        <ele>273</ele>
        <time>2017-06-24T09:26:46Z</time>
      </trkpt>
      <trkpt lat="45.98094" lon="4.84109">
        <ele>273</ele>
        <time>2017-06-24T09:26:47Z</time>
      </trkpt>
      <trkpt lat="45.98089" lon="4.84114">
        <ele>273</ele>
        <time>2017-06-24T09:26:48Z</time>
      </trkpt>
      <trkpt lat="45.98084" lon="4.84118">
        <ele>273</ele>
        <time>2017-06-24T09:26:49Z</time>
      </trkpt>
      <trkpt lat="45.98079" lon="4.84123">
        <ele>273</ele>
        <time>2017-06-24T09:26:50Z</time>
      </trkpt>
      <trkpt lat="45.98074" lon="4.84127">
        <ele>273</ele>
        <time>2017-06-24T09:26:51Z</time>
      </trkpt>
      <trkpt lat="45.98069" lon="4.84132">
        <ele>273</ele>
        <time>2017-06-24T09:26:52Z</time>
      </trkpt>
      <trkpt lat="45.98065" lon="4.84136">
        <ele>273</ele>
        <time>2017-06-24T09:26:53Z</time>
      </trkpt>
      <trkpt lat="45.9806" lon="4.84141">
        <ele>273</ele>
        <time>2017-06-24T09:26:54Z</time>
      </trkpt>
      <trkpt lat="45.98056" lon="4.84145">
        <ele>273</ele>
        <time>2017-06-24T09:26:55Z</time>
      </trkpt>
      <trkpt lat="45.98051" lon="4.84149">
        <ele>273</ele>
        <time>2017-06-24T09:26:56Z</time>
      </trkpt>
      <trkpt lat="45.98047" lon="4.84153">
        <ele>273</ele>
        <time>2017-06-24T09:26:57Z</time>
      </trkpt>
      <trkpt lat="45.98043" lon="4.84157">
        <ele>273</ele>
        <time>2017-06-24T09:26:58Z</time>
      </trkpt>
      <trkpt lat="45.98039" lon="4.84161">
        <ele>273</ele>
        <time>2017-06-24T09:26:59Z</time>
      </trkpt>
      <trkpt lat="45.98035" lon="4.84165">
        <ele>273</ele>
        <time>2017-06-24T09:27:00Z</time>
      </trkpt>
      <trkpt lat="45.98031" lon="4.84169">
        <ele>273</ele>
        <time>2017-06-24T09:27:01Z</time>
      </trkpt>
      <trkpt lat="45.98026" lon="4.84174">
        <ele>274</ele>
        <time>2017-06-24T09:27:02Z</time>
      </trkpt>
      <trkpt lat="45.98021" lon="4.84177">
        <ele>274</ele>
        <time>2017-06-24T09:27:03Z</time>
      </trkpt>
      <trkpt lat="45.98016" lon="4.84182">
        <ele>274</ele>
        <time>2017-06-24T09:27:04Z</time>
      </trkpt>
      <trkpt lat="45.98011" lon="4.84186">
        <ele>274</ele>
        <time>2017-06-24T09:27:05Z</time>
      </trkpt>
      <trkpt lat="45.98006" lon="4.8419">
        <ele>274</ele>
        <time>2017-06-24T09:27:06Z</time>
      </trkpt>
      <trkpt lat="45.98001" lon="4.84195">
        <ele>274</ele>
        <time>2017-06-24T09:27:07Z</time>
      </trkpt>
      <trkpt lat="45.97996" lon="4.84199">
        <ele>274</ele>
        <time>2017-06-24T09:27:08Z</time>
      </trkpt>
      <trkpt lat="45.97991" lon="4.84204">
        <ele>274</ele>
        <time>2017-06-24T09:27:09Z</time>
      </trkpt>
      <trkpt lat="45.97986" lon="4.84209">
        <ele>274</ele>
        <time>2017-06-24T09:27:10Z</time>
      </trkpt>
      <trkpt lat="45.97981" lon="4.84213">
        <ele>274</ele>
        <time>2017-06-24T09:27:11Z</time>
      </trkpt>
      <trkpt lat="45.97977" lon="4.84217">
        <ele>274</ele>
        <time>2017-06-24T09:27:12Z</time>
      </trkpt>
      <trkpt lat="45.97972" lon="4.84221">
        <ele>274</ele>
        <time>2017-06-24T09:27:13Z</time>
      </trkpt>
      <trkpt lat="45.97968" lon="4.84225">
        <ele>274</ele>
        <time>2017-06-24T09:27:14Z</time>
      </trkpt>
      <trkpt lat="45.97964" lon="4.84229">
        <ele>274</ele>
        <time>2017-06-24T09:27:15Z</time>
      </trkpt>
      <trkpt lat="45.9796" lon="4.84233">
        <ele>274</ele>
        <time>2017-06-24T09:27:16Z</time>
      </trkpt>
      <trkpt lat="45.97956" lon="4.84237">
        <ele>275</ele>
        <time>2017-06-24T09:27:17Z</time>
      </trkpt>
      <trkpt lat="45.97952" lon="4.8424">
        <ele>275</ele>
        <time>2017-06-24T09:27:18Z</time>
      </trkpt>
      <trkpt lat="45.97948" lon="4.84244">
        <ele>275</ele>
        <time>2017-06-24T09:27:19Z</time>
      </trkpt>
      <trkpt lat="45.97944" lon="4.84248">
        <ele>275</ele>
        <time>2017-06-24T09:27:20Z</time>
      </trkpt>
      <trkpt lat="45.97941" lon="4.84252">
        <ele>275</ele>
        <time>2017-06-24T09:27:21Z</time>
      </trkpt>
      <trkpt lat="45.97937" lon="4.84256">
        <ele>275</ele>
        <time>2017-06-24T09:27:22Z</time>
      </trkpt>
      <trkpt lat="45.97932" lon="4.84261">
        <ele>275</ele>
        <time>2017-06-24T09:27:23Z</time>
      </trkpt>
      <trkpt lat="45.97929" lon="4.84266">
        <ele>275</ele>
        <time>2017-06-24T09:27:24Z</time>
      </trkpt>
      <trkpt lat="45.97925" lon="4.84271">
        <ele>275</ele>
        <time>2017-06-24T09:27:25Z</time>
      </trkpt>
      <trkpt lat="45.97923" lon="4.84278">
        <ele>275</ele>
        <time>2017-06-24T09:27:26Z</time>
      </trkpt>
      <trkpt lat="45.97922" lon="4.84284">
        <ele>275</ele>
        <time>2017-06-24T09:27:27Z</time>
      </trkpt>
      <trkpt lat="45.97922" lon="4.84291">
        <ele>275</ele>
        <time>2017-06-24T09:27:28Z</time>
      </trkpt>
      <trkpt lat="45.97923" lon="4.84298">
        <ele>275</ele>
        <time>2017-06-24T09:27:29Z</time>
      </trkpt>
      <trkpt lat="45.97924" lon="4.84304">
        <ele>275</ele>
        <time>2017-06-24T09:27:30Z</time>
      </trkpt>
      <trkpt lat="45.97925" lon="4.84311">
        <ele>275</ele>
        <time>2017-06-24T09:27:31Z</time>
      </trkpt>
      <trkpt lat="45.97926" lon="4.84318">
        <ele>275</ele>
        <time>2017-06-24T09:27:32Z</time>
      </trkpt>
      <trkpt lat="45.97928" lon="4.84326">
        <ele>275</ele>
        <time>2017-06-24T09:27:33Z</time>
      </trkpt>
      <trkpt lat="45.97929" lon="4.84333">
        <ele>275</ele>
        <time>2017-06-24T09:27:34Z</time>
      </trkpt>
      <trkpt lat="45.9793" lon="4.84339">
        <ele>275</ele>
        <time>2017-06-24T09:27:35Z</time>
      </trkpt>
      <trkpt lat="45.97932" lon="4.84346">
        <ele>275</ele>
        <time>2017-06-24T09:27:36Z</time>
      </trkpt>
      <trkpt lat="45.97933" lon="4.84353">
        <ele>275</ele>
        <time>2017-06-24T09:27:37Z</time>
      </trkpt>
      <trkpt lat="45.97934" lon="4.84359">
        <ele>275</ele>
        <time>2017-06-24T09:27:38Z</time>
      </trkpt>
      <trkpt lat="45.97936" lon="4.84371">
        <ele>275</ele>
        <time>2017-06-24T09:27:40Z</time>
      </trkpt>
      <trkpt lat="45.97937" lon="4.84376">
        <ele>275</ele>
        <time>2017-06-24T09:27:41Z</time>
      </trkpt>
      <trkpt lat="45.97938" lon="4.84382">
        <ele>275</ele>
        <time>2017-06-24T09:27:42Z</time>
      </trkpt>
      <trkpt lat="45.97939" lon="4.84389">
        <ele>275</ele>
        <time>2017-06-24T09:27:43Z</time>
      </trkpt>
      <trkpt lat="45.9794" lon="4.84396">
        <ele>275</ele>
        <time>2017-06-24T09:27:44Z</time>
      </trkpt>
      <trkpt lat="45.97941" lon="4.84403">
        <ele>275</ele>
        <time>2017-06-24T09:27:45Z</time>
      </trkpt>
      <trkpt lat="45.97943" lon="4.84409">
        <ele>275</ele>
        <time>2017-06-24T09:27:46Z</time>
      </trkpt>
      <trkpt lat="45.97944" lon="4.84417">
        <ele>275</ele>
        <time>2017-06-24T09:27:47Z</time>
      </trkpt>
      <trkpt lat="45.97945" lon="4.84423">
        <ele>275</ele>
        <time>2017-06-24T09:27:48Z</time>
      </trkpt>
      <trkpt lat="45.97946" lon="4.8443">
        <ele>275</ele>
        <time>2017-06-24T09:27:49Z</time>
      </trkpt>
      <trkpt lat="45.97947" lon="4.84437">
        <ele>275</ele>
        <time>2017-06-24T09:27:50Z</time>
      </trkpt>
      <trkpt lat="45.97948" lon="4.84443">
        <ele>275</ele>
        <time>2017-06-24T09:27:51Z</time>
      </trkpt>
      <trkpt lat="45.97949" lon="4.84449">
        <ele>275</ele>
        <time>2017-06-24T09:27:52Z</time>
      </trkpt>
      <trkpt lat="45.9795" lon="4.84456">
        <ele>275</ele>
        <time>2017-06-24T09:27:53Z</time>
      </trkpt>
      <trkpt lat="45.97951" lon="4.84463">
        <ele>275</ele>
        <time>2017-06-24T09:27:54Z</time>
      </trkpt>
      <trkpt lat="45.97952" lon="4.8447">
        <ele>275</ele>
        <time>2017-06-24T09:27:55Z</time>
      </trkpt>
      <trkpt lat="45.97953" lon="4.84477">
        <ele>275</ele>
        <time>2017-06-24T09:27:56Z</time>
      </trkpt>
      <trkpt lat="45.97954" lon="4.84485">
        <ele>275</ele>
        <time>2017-06-24T09:27:57Z</time>
      </trkpt>
      <trkpt lat="45.97955" lon="4.84492">
        <ele>275</ele>
        <time>2017-06-24T09:27:58Z</time>
      </trkpt>
      <trkpt lat="45.97957" lon="4.84499">
        <ele>275</ele>
        <time>2017-06-24T09:27:59Z</time>
      </trkpt>
      <trkpt lat="45.97958" lon="4.84506">
        <ele>275</ele>
        <time>2017-06-24T09:28:00Z</time>
      </trkpt>
      <trkpt lat="45.97959" lon="4.84513">
        <ele>275</ele>
        <time>2017-06-24T09:28:01Z</time>
      </trkpt>
      <trkpt lat="45.9796" lon="4.8452">
        <ele>275</ele>
        <time>2017-06-24T09:28:02Z</time>
      </trkpt>
      <trkpt lat="45.97961" lon="4.84526">
        <ele>275</ele>
        <time>2017-06-24T09:28:03Z</time>
      </trkpt>
      <trkpt lat="45.97962" lon="4.84533">
        <ele>275</ele>
        <time>2017-06-24T09:28:04Z</time>
      </trkpt>
      <trkpt lat="45.97963" lon="4.8454">
        <ele>275</ele>
        <time>2017-06-24T09:28:05Z</time>
      </trkpt>
      <trkpt lat="45.97965" lon="4.84547">
        <ele>275</ele>
        <time>2017-06-24T09:28:06Z</time>
      </trkpt>
      <trkpt lat="45.97966" lon="4.84554">
        <ele>275</ele>
        <time>2017-06-24T09:28:07Z</time>
      </trkpt>
      <trkpt lat="45.97967" lon="4.8456">
        <ele>275</ele>
        <time>2017-06-24T09:28:08Z</time>
      </trkpt>
      <trkpt lat="45.97968" lon="4.84567">
        <ele>275</ele>
        <time>2017-06-24T09:28:09Z</time>
      </trkpt>
      <trkpt lat="45.97969" lon="4.84574">
        <ele>275</ele>
        <time>2017-06-24T09:28:10Z</time>
      </trkpt>
      <trkpt lat="45.97969" lon="4.8458">
        <ele>275</ele>
        <time>2017-06-24T09:28:11Z</time>
      </trkpt>
      <trkpt lat="45.97971" lon="4.84587">
        <ele>275</ele>
        <time>2017-06-24T09:28:12Z</time>
      </trkpt>
      <trkpt lat="45.97972" lon="4.84593">
        <ele>275</ele>
        <time>2017-06-24T09:28:13Z</time>
      </trkpt>
      <trkpt lat="45.97973" lon="4.846">
        <ele>275</ele>
        <time>2017-06-24T09:28:14Z</time>
      </trkpt>
      <trkpt lat="45.97974" lon="4.84607">
        <ele>275</ele>
        <time>2017-06-24T09:28:15Z</time>
      </trkpt>
      <trkpt lat="45.97975" lon="4.84613">
        <ele>275</ele>
        <time>2017-06-24T09:28:16Z</time>
      </trkpt>
      <trkpt lat="45.97976" lon="4.8462">
        <ele>275</ele>
        <time>2017-06-24T09:28:17Z</time>
      </trkpt>
      <trkpt lat="45.97977" lon="4.84627">
        <ele>275</ele>
        <time>2017-06-24T09:28:18Z</time>
      </trkpt>
      <trkpt lat="45.97978" lon="4.84634">
        <ele>275</ele>
        <time>2017-06-24T09:28:19Z</time>
      </trkpt>
      <trkpt lat="45.97979" lon="4.84641">
        <ele>275</ele>
        <time>2017-06-24T09:28:20Z</time>
      </trkpt>
      <trkpt lat="45.9798" lon="4.84648">
        <ele>275</ele>
        <time>2017-06-24T09:28:21Z</time>
      </trkpt>
      <trkpt lat="45.97981" lon="4.84654">
        <ele>274</ele>
        <time>2017-06-24T09:28:22Z</time>
      </trkpt>
      <trkpt lat="45.97982" lon="4.8466">
        <ele>274</ele>
        <time>2017-06-24T09:28:23Z</time>
      </trkpt>
      <trkpt lat="45.97983" lon="4.84667">
        <ele>275</ele>
        <time>2017-06-24T09:28:24Z</time>
      </trkpt>
      <trkpt lat="45.97984" lon="4.84674">
        <ele>275</ele>
        <time>2017-06-24T09:28:25Z</time>
      </trkpt>
      <trkpt lat="45.97985" lon="4.84681">
        <ele>275</ele>
        <time>2017-06-24T09:28:26Z</time>
      </trkpt>
      <trkpt lat="45.97986" lon="4.84688">
        <ele>275</ele>
        <time>2017-06-24T09:28:27Z</time>
      </trkpt>
      <trkpt lat="45.97987" lon="4.84695">
        <ele>275</ele>
        <time>2017-06-24T09:28:28Z</time>
      </trkpt>
      <trkpt lat="45.97988" lon="4.84701">
        <ele>275</ele>
        <time>2017-06-24T09:28:29Z</time>
      </trkpt>
      <trkpt lat="45.97989" lon="4.84714">
        <ele>275</ele>
        <time>2017-06-24T09:28:31Z</time>
      </trkpt>
      <trkpt lat="45.97989" lon="4.84719">
        <ele>275</ele>
        <time>2017-06-24T09:28:32Z</time>
      </trkpt>
      <trkpt lat="45.9799" lon="4.84731">
        <ele>275</ele>
        <time>2017-06-24T09:28:34Z</time>
      </trkpt>
      <trkpt lat="45.9799" lon="4.84737">
        <ele>275</ele>
        <time>2017-06-24T09:28:35Z</time>
      </trkpt>
      <trkpt lat="45.97991" lon="4.84749">
        <ele>275</ele>
        <time>2017-06-24T09:28:37Z</time>
      </trkpt>
      <trkpt lat="45.97991" lon="4.84756">
        <ele>275</ele>
        <time>2017-06-24T09:28:38Z</time>
      </trkpt>
      <trkpt lat="45.97992" lon="4.84762">
        <ele>275</ele>
        <time>2017-06-24T09:28:39Z</time>
      </trkpt>
      <trkpt lat="45.97992" lon="4.84769">
        <ele>275</ele>
        <time>2017-06-24T09:28:40Z</time>
      </trkpt>
      <trkpt lat="45.97993" lon="4.84775">
        <ele>274</ele>
        <time>2017-06-24T09:28:41Z</time>
      </trkpt>
      <trkpt lat="45.97993" lon="4.84782">
        <ele>274</ele>
        <time>2017-06-24T09:28:42Z</time>
      </trkpt>
      <trkpt lat="45.97994" lon="4.84788">
        <ele>274</ele>
        <time>2017-06-24T09:28:43Z</time>
      </trkpt>
      <trkpt lat="45.97995" lon="4.84795">
        <ele>274</ele>
        <time>2017-06-24T09:28:44Z</time>
      </trkpt>
      <trkpt lat="45.97995" lon="4.84801">
        <ele>274</ele>
        <time>2017-06-24T09:28:45Z</time>
      </trkpt>
      <trkpt lat="45.97996" lon="4.84807">
        <ele>274</ele>
        <time>2017-06-24T09:28:46Z</time>
      </trkpt>
      <trkpt lat="45.97996" lon="4.84814">
        <ele>273</ele>
        <time>2017-06-24T09:28:47Z</time>
      </trkpt>
      <trkpt lat="45.97997" lon="4.84822">
        <ele>273</ele>
        <time>2017-06-24T09:28:48Z</time>
      </trkpt>
      <trkpt lat="45.97997" lon="4.84829">
        <ele>272</ele>
        <time>2017-06-24T09:28:49Z</time>
      </trkpt>
      <trkpt lat="45.97998" lon="4.84836">
        <ele>272</ele>
        <time>2017-06-24T09:28:50Z</time>
      </trkpt>
      <trkpt lat="45.97999" lon="4.84843">
        <ele>272</ele>
        <time>2017-06-24T09:28:51Z</time>
      </trkpt>
      <trkpt lat="45.97999" lon="4.8485">
        <ele>272</ele>
        <time>2017-06-24T09:28:52Z</time>
      </trkpt>
      <trkpt lat="45.98" lon="4.84862">
        <ele>272</ele>
        <time>2017-06-24T09:28:54Z</time>
      </trkpt>
      <trkpt lat="45.98001" lon="4.84869">
        <ele>272</ele>
        <time>2017-06-24T09:28:55Z</time>
      </trkpt>
      <trkpt lat="45.98002" lon="4.84876">
        <ele>272</ele>
        <time>2017-06-24T09:28:56Z</time>
      </trkpt>
      <trkpt lat="45.98003" lon="4.84882">
        <ele>272</ele>
        <time>2017-06-24T09:28:57Z</time>
      </trkpt>
      <trkpt lat="45.98004" lon="4.84894">
        <ele>272</ele>
        <time>2017-06-24T09:28:59Z</time>
      </trkpt>
      <trkpt lat="45.98004" lon="4.849">
        <ele>272</ele>
        <time>2017-06-24T09:29:00Z</time>
      </trkpt>
      <trkpt lat="45.98005" lon="4.84907">
        <ele>272</ele>
        <time>2017-06-24T09:29:01Z</time>
      </trkpt>
      <trkpt lat="45.98006" lon="4.84914">
        <ele>272</ele>
        <time>2017-06-24T09:29:02Z</time>
      </trkpt>
      <trkpt lat="45.98006" lon="4.84922">
        <ele>272</ele>
        <time>2017-06-24T09:29:03Z</time>
      </trkpt>
      <trkpt lat="45.98007" lon="4.8493">
        <ele>272</ele>
        <time>2017-06-24T09:29:04Z</time>
      </trkpt>
      <trkpt lat="45.98008" lon="4.84938">
        <ele>272</ele>
        <time>2017-06-24T09:29:05Z</time>
      </trkpt>
      <trkpt lat="45.98009" lon="4.84946">
        <ele>272</ele>
        <time>2017-06-24T09:29:06Z</time>
      </trkpt>
      <trkpt lat="45.9801" lon="4.84954">
        <ele>272</ele>
        <time>2017-06-24T09:29:07Z</time>
      </trkpt>
      <trkpt lat="45.98011" lon="4.84961">
        <ele>272</ele>
        <time>2017-06-24T09:29:08Z</time>
      </trkpt>
      <trkpt lat="45.98012" lon="4.84968">
        <ele>272</ele>
        <time>2017-06-24T09:29:09Z</time>
      </trkpt>
      <trkpt lat="45.98013" lon="4.84975">
        <ele>272</ele>
        <time>2017-06-24T09:29:10Z</time>
      </trkpt>
      <trkpt lat="45.98013" lon="4.84982">
        <ele>272</ele>
        <time>2017-06-24T09:29:11Z</time>
      </trkpt>
      <trkpt lat="45.98014" lon="4.84989">
        <ele>272</ele>
        <time>2017-06-24T09:29:12Z</time>
      </trkpt>
      <trkpt lat="45.98015" lon="4.85001">
        <ele>272</ele>
        <time>2017-06-24T09:29:14Z</time>
      </trkpt>
      <trkpt lat="45.98015" lon="4.85007">
        <ele>272</ele>
        <time>2017-06-24T09:29:15Z</time>
      </trkpt>
      <trkpt lat="45.98015" lon="4.85013">
        <ele>273</ele>
        <time>2017-06-24T09:29:16Z</time>
      </trkpt>
      <trkpt lat="45.98016" lon="4.8502">
        <ele>273</ele>
        <time>2017-06-24T09:29:17Z</time>
      </trkpt>
      <trkpt lat="45.98016" lon="4.85027">
        <ele>273</ele>
        <time>2017-06-24T09:29:18Z</time>
      </trkpt>
      <trkpt lat="45.98016" lon="4.85033">
        <ele>273</ele>
        <time>2017-06-24T09:29:19Z</time>
      </trkpt>
      <trkpt lat="45.98017" lon="4.8504">
        <ele>273</ele>
        <time>2017-06-24T09:29:20Z</time>
      </trkpt>
      <trkpt lat="45.98017" lon="4.85047">
        <ele>273</ele>
        <time>2017-06-24T09:29:21Z</time>
      </trkpt>
      <trkpt lat="45.98017" lon="4.8506">
        <ele>273</ele>
        <time>2017-06-24T09:29:23Z</time>
      </trkpt>
      <trkpt lat="45.98017" lon="4.85066">
        <ele>273</ele>
        <time>2017-06-24T09:29:24Z</time>
      </trkpt>
      <trkpt lat="45.98017" lon="4.85073">
        <ele>273</ele>
        <time>2017-06-24T09:29:25Z</time>
      </trkpt>
      <trkpt lat="45.98018" lon="4.8508">
        <ele>273</ele>
        <time>2017-06-24T09:29:26Z</time>
      </trkpt>
      <trkpt lat="45.98018" lon="4.85087">
        <ele>274</ele>
        <time>2017-06-24T09:29:27Z</time>
      </trkpt>
      <trkpt lat="45.98019" lon="4.85095">
        <ele>274</ele>
        <time>2017-06-24T09:29:28Z</time>
      </trkpt>
      <trkpt lat="45.9802" lon="4.85102">
        <ele>274</ele>
        <time>2017-06-24T09:29:29Z</time>
      </trkpt>
      <trkpt lat="45.98021" lon="4.85109">
        <ele>274</ele>
        <time>2017-06-24T09:29:30Z</time>
      </trkpt>
      <trkpt lat="45.98023" lon="4.85115">
        <ele>274</ele>
        <time>2017-06-24T09:29:31Z</time>
      </trkpt>
      <trkpt lat="45.98024" lon="4.85122">
        <ele>274</ele>
        <time>2017-06-24T09:29:32Z</time>
      </trkpt>
      <trkpt lat="45.98028" lon="4.85133">
        <ele>274</ele>
        <time>2017-06-24T09:29:34Z</time>
      </trkpt>
      <trkpt lat="45.9803" lon="4.85138">
        <ele>275</ele>
        <time>2017-06-24T09:29:35Z</time>
      </trkpt>
      <trkpt lat="45.98033" lon="4.85148">
        <ele>275</ele>
        <time>2017-06-24T09:29:37Z</time>
      </trkpt>
      <trkpt lat="45.98034" lon="4.85154">
        <ele>275</ele>
        <time>2017-06-24T09:29:38Z</time>
      </trkpt>
      <trkpt lat="45.98037" lon="4.85165">
        <ele>275</ele>
        <time>2017-06-24T09:29:40Z</time>
      </trkpt>
      <trkpt lat="45.98039" lon="4.8517">
        <ele>275</ele>
        <time>2017-06-24T09:29:41Z</time>
      </trkpt>
      <trkpt lat="45.98042" lon="4.8518">
        <ele>276</ele>
        <time>2017-06-24T09:29:43Z</time>
      </trkpt>
      <trkpt lat="45.98044" lon="4.85185">
        <ele>276</ele>
        <time>2017-06-24T09:29:44Z</time>
      </trkpt>
      <trkpt lat="45.98047" lon="4.85194">
        <ele>276</ele>
        <time>2017-06-24T09:29:46Z</time>
      </trkpt>
      <trkpt lat="45.98049" lon="4.85199">
        <ele>276</ele>
        <time>2017-06-24T09:29:47Z</time>
      </trkpt>
      <trkpt lat="45.98052" lon="4.85207">
        <ele>276</ele>
        <time>2017-06-24T09:29:49Z</time>
      </trkpt>
      <trkpt lat="45.98053" lon="4.85211">
        <ele>276</ele>
        <time>2017-06-24T09:29:50Z</time>
      </trkpt>
      <trkpt lat="45.98057" lon="4.8522">
        <ele>276</ele>
        <time>2017-06-24T09:29:52Z</time>
      </trkpt>
      <trkpt lat="45.98058" lon="4.85226">
        <ele>276</ele>
        <time>2017-06-24T09:29:53Z</time>
      </trkpt>
      <trkpt lat="45.98061" lon="4.85231">
        <ele>276</ele>
        <time>2017-06-24T09:29:54Z</time>
      </trkpt>
      <trkpt lat="45.98063" lon="4.85237">
        <ele>276</ele>
        <time>2017-06-24T09:29:55Z</time>
      </trkpt>
      <trkpt lat="45.98066" lon="4.85242">
        <ele>276</ele>
        <time>2017-06-24T09:29:56Z</time>
      </trkpt>
      <trkpt lat="45.98069" lon="4.85247">
        <ele>276</ele>
        <time>2017-06-24T09:29:57Z</time>
      </trkpt>
      <trkpt lat="45.98071" lon="4.85253">
        <ele>276</ele>
        <time>2017-06-24T09:29:58Z</time>
      </trkpt>
      <trkpt lat="45.98074" lon="4.85259">
        <ele>276</ele>
        <time>2017-06-24T09:29:59Z</time>
      </trkpt>
      <trkpt lat="45.98077" lon="4.85264">
        <ele>276</ele>
        <time>2017-06-24T09:30:00Z</time>
      </trkpt>
      <trkpt lat="45.9808" lon="4.85269">
        <ele>276</ele>
        <time>2017-06-24T09:30:01Z</time>
      </trkpt>
      <trkpt lat="45.98083" lon="4.85274">
        <ele>276</ele>
        <time>2017-06-24T09:30:02Z</time>
      </trkpt>
      <trkpt lat="45.98085" lon="4.85279">
        <ele>276</ele>
        <time>2017-06-24T09:30:03Z</time>
      </trkpt>
      <trkpt lat="45.98088" lon="4.85285">
        <ele>276</ele>
        <time>2017-06-24T09:30:04Z</time>
      </trkpt>
      <trkpt lat="45.9809" lon="4.85291">
        <ele>276</ele>
        <time>2017-06-24T09:30:05Z</time>
      </trkpt>
      <trkpt lat="45.98093" lon="4.85297">
        <ele>276</ele>
        <time>2017-06-24T09:30:06Z</time>
      </trkpt>
      <trkpt lat="45.98095" lon="4.85303">
        <ele>276</ele>
        <time>2017-06-24T09:30:07Z</time>
      </trkpt>
      <trkpt lat="45.98098" lon="4.8531">
        <ele>276</ele>
        <time>2017-06-24T09:30:08Z</time>
      </trkpt>
      <trkpt lat="45.981" lon="4.85316">
        <ele>276</ele>
        <time>2017-06-24T09:30:09Z</time>
      </trkpt>
      <trkpt lat="45.98104" lon="4.85327">
        <ele>276</ele>
        <time>2017-06-24T09:30:11Z</time>
      </trkpt>
      <trkpt lat="45.98106" lon="4.85332">
        <ele>276</ele>
        <time>2017-06-24T09:30:12Z</time>
      </trkpt>
      <trkpt lat="45.98109" lon="4.85342">
        <ele>276</ele>
        <time>2017-06-24T09:30:14Z</time>
      </trkpt>
      <trkpt lat="45.98112" lon="4.85347">
        <ele>276</ele>
        <time>2017-06-24T09:30:15Z</time>
      </trkpt>
      <trkpt lat="45.98114" lon="4.85353">
        <ele>276</ele>
        <time>2017-06-24T09:30:16Z</time>
      </trkpt>
      <trkpt lat="45.98116" lon="4.85359">
        <ele>276</ele>
        <time>2017-06-24T09:30:17Z</time>
      </trkpt>
      <trkpt lat="45.98119" lon="4.85364">
        <ele>276</ele>
        <time>2017-06-24T09:30:18Z</time>
      </trkpt>
      <trkpt lat="45.98122" lon="4.85369">
        <ele>276</ele>
        <time>2017-06-24T09:30:19Z</time>
      </trkpt>
      <trkpt lat="45.98124" lon="4.85374">
        <ele>276</ele>
        <time>2017-06-24T09:30:20Z</time>
      </trkpt>
      <trkpt lat="45.98127" lon="4.8538">
        <ele>276</ele>
        <time>2017-06-24T09:30:21Z</time>
      </trkpt>
      <trkpt lat="45.98129" lon="4.85386">
        <ele>276</ele>
        <time>2017-06-24T09:30:22Z</time>
      </trkpt>
      <trkpt lat="45.98132" lon="4.85392">
        <ele>276</ele>
        <time>2017-06-24T09:30:23Z</time>
      </trkpt>
      <trkpt lat="45.98134" lon="4.85398">
        <ele>276</ele>
        <time>2017-06-24T09:30:24Z</time>
      </trkpt>
      <trkpt lat="45.98137" lon="4.85403">
        <ele>276</ele>
        <time>2017-06-24T09:30:25Z</time>
      </trkpt>
      <trkpt lat="45.98139" lon="4.85409">
        <ele>276</ele>
        <time>2017-06-24T09:30:26Z</time>
      </trkpt>
      <trkpt lat="45.98142" lon="4.85415">
        <ele>276</ele>
        <time>2017-06-24T09:30:27Z</time>
      </trkpt>
      <trkpt lat="45.98144" lon="4.8542">
        <ele>276</ele>
        <time>2017-06-24T09:30:28Z</time>
      </trkpt>
      <trkpt lat="45.98146" lon="4.85426">
        <ele>276</ele>
        <time>2017-06-24T09:30:29Z</time>
      </trkpt>
      <trkpt lat="45.98148" lon="4.85432">
        <ele>276</ele>
        <time>2017-06-24T09:30:30Z</time>
      </trkpt>
      <trkpt lat="45.9815" lon="4.85438">
        <ele>276</ele>
        <time>2017-06-24T09:30:31Z</time>
      </trkpt>
      <trkpt lat="45.98155" lon="4.85447">
        <ele>276</ele>
        <time>2017-06-24T09:30:33Z</time>
      </trkpt>
      <trkpt lat="45.98157" lon="4.85453">
        <ele>276</ele>
        <time>2017-06-24T09:30:34Z</time>
      </trkpt>
      <trkpt lat="45.98162" lon="4.85463">
        <ele>275</ele>
        <time>2017-06-24T09:30:36Z</time>
      </trkpt>
      <trkpt lat="45.98164" lon="4.85469">
        <ele>275</ele>
        <time>2017-06-24T09:30:37Z</time>
      </trkpt>
      <trkpt lat="45.98167" lon="4.85476">
        <ele>275</ele>
        <time>2017-06-24T09:30:38Z</time>
      </trkpt>
      <trkpt lat="45.98169" lon="4.85482">
        <ele>275</ele>
        <time>2017-06-24T09:30:39Z</time>
      </trkpt>
      <trkpt lat="45.98172" lon="4.85488">
        <ele>275</ele>
        <time>2017-06-24T09:30:40Z</time>
      </trkpt>
      <trkpt lat="45.98174" lon="4.85494">
        <ele>275</ele>
        <time>2017-06-24T09:30:41Z</time>
      </trkpt>
      <trkpt lat="45.98179" lon="4.85504">
        <ele>275</ele>
        <time>2017-06-24T09:30:43Z</time>
      </trkpt>
      <trkpt lat="45.98181" lon="4.8551">
        <ele>275</ele>
        <time>2017-06-24T09:30:44Z</time>
      </trkpt>
      <trkpt lat="45.98183" lon="4.85515">
        <ele>275</ele>
        <time>2017-06-24T09:30:45Z</time>
      </trkpt>
      <trkpt lat="45.98185" lon="4.85521">
        <ele>275</ele>
        <time>2017-06-24T09:30:46Z</time>
      </trkpt>
      <trkpt lat="45.98188" lon="4.85528">
        <ele>276</ele>
        <time>2017-06-24T09:30:47Z</time>
      </trkpt>
      <trkpt lat="45.9819" lon="4.85534">
        <ele>276</ele>
        <time>2017-06-24T09:30:48Z</time>
      </trkpt>
      <trkpt lat="45.98192" lon="4.85541">
        <ele>276</ele>
        <time>2017-06-24T09:30:49Z</time>
      </trkpt>
      <trkpt lat="45.98195" lon="4.85547">
        <ele>276</ele>
        <time>2017-06-24T09:30:50Z</time>
      </trkpt>
      <trkpt lat="45.98199" lon="4.85558">
        <ele>276</ele>
        <time>2017-06-24T09:30:52Z</time>
      </trkpt>
      <trkpt lat="45.98201" lon="4.85563">
        <ele>276</ele>
        <time>2017-06-24T09:30:53Z</time>
      </trkpt>
      <trkpt lat="45.98205" lon="4.85573">
        <ele>276</ele>
        <time>2017-06-24T09:30:55Z</time>
      </trkpt>
      <trkpt lat="45.98208" lon="4.85579">
        <ele>276</ele>
        <time>2017-06-24T09:30:56Z</time>
      </trkpt>
      <trkpt lat="45.9821" lon="4.85584">
        <ele>277</ele>
        <time>2017-06-24T09:30:57Z</time>
      </trkpt>
      <trkpt lat="45.98212" lon="4.8559">
        <ele>277</ele>
        <time>2017-06-24T09:30:58Z</time>
      </trkpt>
      <trkpt lat="45.98215" lon="4.85596">
        <ele>277</ele>
        <time>2017-06-24T09:30:59Z</time>
      </trkpt>
      <trkpt lat="45.98217" lon="4.85602">
        <ele>277</ele>
        <time>2017-06-24T09:31:00Z</time>
      </trkpt>
      <trkpt lat="45.98219" lon="4.85608">
        <ele>277</ele>
        <time>2017-06-24T09:31:01Z</time>
      </trkpt>
      <trkpt lat="45.98222" lon="4.85614">
        <ele>277</ele>
        <time>2017-06-24T09:31:02Z</time>
      </trkpt>
      <trkpt lat="45.98226" lon="4.85625">
        <ele>277</ele>
        <time>2017-06-24T09:31:04Z</time>
      </trkpt>
      <trkpt lat="45.98228" lon="4.85629">
        <ele>277</ele>
        <time>2017-06-24T09:31:05Z</time>
      </trkpt>
      <trkpt lat="45.98232" lon="4.8564">
        <ele>277</ele>
        <time>2017-06-24T09:31:07Z</time>
      </trkpt>
      <trkpt lat="45.98234" lon="4.85646">
        <ele>277</ele>
        <time>2017-06-24T09:31:08Z</time>
      </trkpt>
      <trkpt lat="45.98236" lon="4.85652">
        <ele>276</ele>
        <time>2017-06-24T09:31:09Z</time>
      </trkpt>
      <trkpt lat="45.98238" lon="4.85657">
        <ele>276</ele>
        <time>2017-06-24T09:31:10Z</time>
      </trkpt>
      <trkpt lat="45.98241" lon="4.85663">
        <ele>276</ele>
        <time>2017-06-24T09:31:11Z</time>
      </trkpt>
      <trkpt lat="45.98243" lon="4.85669">
        <ele>276</ele>
        <time>2017-06-24T09:31:12Z</time>
      </trkpt>
      <trkpt lat="45.98245" lon="4.85675">
        <ele>276</ele>
        <time>2017-06-24T09:31:13Z</time>
      </trkpt>
      <trkpt lat="45.98248" lon="4.8568">
        <ele>276</ele>
        <time>2017-06-24T09:31:14Z</time>
      </trkpt>
      <trkpt lat="45.9825" lon="4.85686">
        <ele>275</ele>
        <time>2017-06-24T09:31:15Z</time>
      </trkpt>
      <trkpt lat="45.98253" lon="4.85692">
        <ele>275</ele>
        <time>2017-06-24T09:31:16Z</time>
      </trkpt>
      <trkpt lat="45.98257" lon="4.85703">
        <ele>275</ele>
        <time>2017-06-24T09:31:18Z</time>
      </trkpt>
      <trkpt lat="45.98259" lon="4.85708">
        <ele>275</ele>
        <time>2017-06-24T09:31:19Z</time>
      </trkpt>
      <trkpt lat="45.98263" lon="4.85719">
        <ele>275</ele>
        <time>2017-06-24T09:31:21Z</time>
      </trkpt>
      <trkpt lat="45.98265" lon="4.85724">
        <ele>275</ele>
        <time>2017-06-24T09:31:22Z</time>
      </trkpt>
      <trkpt lat="45.9827" lon="4.85734">
        <ele>275</ele>
        <time>2017-06-24T09:31:24Z</time>
      </trkpt>
      <trkpt lat="45.98272" lon="4.8574">
        <ele>274</ele>
        <time>2017-06-24T09:31:25Z</time>
      </trkpt>
      <trkpt lat="45.98275" lon="4.85746">
        <ele>274</ele>
        <time>2017-06-24T09:31:26Z</time>
      </trkpt>
      <trkpt lat="45.98278" lon="4.85752">
        <ele>275</ele>
        <time>2017-06-24T09:31:27Z</time>
      </trkpt>
      <trkpt lat="45.9828" lon="4.85758">
        <ele>275</ele>
        <time>2017-06-24T09:31:28Z</time>
      </trkpt>
      <trkpt lat="45.98283" lon="4.85765">
        <ele>275</ele>
        <time>2017-06-24T09:31:29Z</time>
      </trkpt>
      <trkpt lat="45.98286" lon="4.85772">
        <ele>275</ele>
        <time>2017-06-24T09:31:30Z</time>
      </trkpt>
      <trkpt lat="45.98289" lon="4.85779">
        <ele>275</ele>
        <time>2017-06-24T09:31:31Z</time>
      </trkpt>
      <trkpt lat="45.98292" lon="4.85786">
        <ele>275</ele>
        <time>2017-06-24T09:31:32Z</time>
      </trkpt>
      <trkpt lat="45.98294" lon="4.85793">
        <ele>275</ele>
        <time>2017-06-24T09:31:33Z</time>
      </trkpt>
      <trkpt lat="45.98297" lon="4.858">
        <ele>275</ele>
        <time>2017-06-24T09:31:34Z</time>
      </trkpt>
      <trkpt lat="45.98299" lon="4.85806">
        <ele>275</ele>
        <time>2017-06-24T09:31:35Z</time>
      </trkpt>
      <trkpt lat="45.98301" lon="4.85813">
        <ele>275</ele>
        <time>2017-06-24T09:31:36Z</time>
      </trkpt>
      <trkpt lat="45.98304" lon="4.85818">
        <ele>275</ele>
        <time>2017-06-24T09:31:37Z</time>
      </trkpt>
      <trkpt lat="45.98309" lon="4.85829">
        <ele>275</ele>
        <time>2017-06-24T09:31:39Z</time>
      </trkpt>
      <trkpt lat="45.98311" lon="4.85834">
        <ele>276</ele>
        <time>2017-06-24T09:31:40Z</time>
      </trkpt>
      <trkpt lat="45.98315" lon="4.85845">
        <ele>276</ele>
        <time>2017-06-24T09:31:42Z</time>
      </trkpt>
      <trkpt lat="45.98318" lon="4.85851">
        <ele>276</ele>
        <time>2017-06-24T09:31:43Z</time>
      </trkpt>
      <trkpt lat="45.98322" lon="4.85861">
        <ele>276</ele>
        <time>2017-06-24T09:31:45Z</time>
      </trkpt>
      <trkpt lat="45.98324" lon="4.85867">
        <ele>276</ele>
        <time>2017-06-24T09:31:46Z</time>
      </trkpt>
      <trkpt lat="45.98328" lon="4.85877">
        <ele>276</ele>
        <time>2017-06-24T09:31:48Z</time>
      </trkpt>
      <trkpt lat="45.9833" lon="4.85882">
        <ele>276</ele>
        <time>2017-06-24T09:31:49Z</time>
      </trkpt>
      <trkpt lat="45.98335" lon="4.85893">
        <ele>276</ele>
        <time>2017-06-24T09:31:51Z</time>
      </trkpt>
      <trkpt lat="45.98337" lon="4.85899">
        <ele>276</ele>
        <time>2017-06-24T09:31:52Z</time>
      </trkpt>
      <trkpt lat="45.98339" lon="4.85904">
        <ele>276</ele>
        <time>2017-06-24T09:31:53Z</time>
      </trkpt>
      <trkpt lat="45.98342" lon="4.8591">
        <ele>276</ele>
        <time>2017-06-24T09:31:54Z</time>
      </trkpt>
      <trkpt lat="45.98344" lon="4.85916">
        <ele>276</ele>
        <time>2017-06-24T09:31:55Z</time>
      </trkpt>
      <trkpt lat="45.98347" lon="4.85922">
        <ele>276</ele>
        <time>2017-06-24T09:31:56Z</time>
      </trkpt>
      <trkpt lat="45.98351" lon="4.85932">
        <ele>276</ele>
        <time>2017-06-24T09:31:58Z</time>
      </trkpt>
      <trkpt lat="45.98353" lon="4.85937">
        <ele>276</ele>
        <time>2017-06-24T09:31:59Z</time>
      </trkpt>
      <trkpt lat="45.98357" lon="4.85948">
        <ele>276</ele>
        <time>2017-06-24T09:32:01Z</time>
      </trkpt>
      <trkpt lat="45.98359" lon="4.85954">
        <ele>276</ele>
        <time>2017-06-24T09:32:02Z</time>
      </trkpt>
      <trkpt lat="45.98362" lon="4.85959">
        <ele>276</ele>
        <time>2017-06-24T09:32:03Z</time>
      </trkpt>
      <trkpt lat="45.98364" lon="4.85965">
        <ele>276</ele>
        <time>2017-06-24T09:32:04Z</time>
      </trkpt>
      <trkpt lat="45.98368" lon="4.85976">
        <ele>276</ele>
        <time>2017-06-24T09:32:06Z</time>
      </trkpt>
      <trkpt lat="45.98369" lon="4.85981">
        <ele>276</ele>
        <time>2017-06-24T09:32:07Z</time>
      </trkpt>
      <trkpt lat="45.98374" lon="4.85992">
        <ele>277</ele>
        <time>2017-06-24T09:32:09Z</time>
      </trkpt>
      <trkpt lat="45.98376" lon="4.85997">
        <ele>277</ele>
        <time>2017-06-24T09:32:10Z</time>
      </trkpt>
      <trkpt lat="45.9838" lon="4.86007">
        <ele>277</ele>
        <time>2017-06-24T09:32:12Z</time>
      </trkpt>
      <trkpt lat="45.98382" lon="4.86014">
        <ele>277</ele>
        <time>2017-06-24T09:32:13Z</time>
      </trkpt>
      <trkpt lat="45.98384" lon="4.8602">
        <ele>277</ele>
        <time>2017-06-24T09:32:14Z</time>
      </trkpt>
      <trkpt lat="45.98386" lon="4.86026">
        <ele>277</ele>
        <time>2017-06-24T09:32:15Z</time>
      </trkpt>
      <trkpt lat="45.98389" lon="4.86038">
        <ele>277</ele>
        <time>2017-06-24T09:32:17Z</time>
      </trkpt>
      <trkpt lat="45.98391" lon="4.86043">
        <ele>277</ele>
        <time>2017-06-24T09:32:18Z</time>
      </trkpt>
      <trkpt lat="45.98394" lon="4.86055">
        <ele>277</ele>
        <time>2017-06-24T09:32:20Z</time>
      </trkpt>
      <trkpt lat="45.98396" lon="4.86061">
        <ele>277</ele>
        <time>2017-06-24T09:32:21Z</time>
      </trkpt>
      <trkpt lat="45.98397" lon="4.86067">
        <ele>277</ele>
        <time>2017-06-24T09:32:22Z</time>
      </trkpt>
      <trkpt lat="45.98399" lon="4.86073">
        <ele>277</ele>
        <time>2017-06-24T09:32:23Z</time>
      </trkpt>
      <trkpt lat="45.98402" lon="4.86079">
        <ele>277</ele>
        <time>2017-06-24T09:32:24Z</time>
      </trkpt>
      <trkpt lat="45.98403" lon="4.86085">
        <ele>277</ele>
        <time>2017-06-24T09:32:25Z</time>
      </trkpt>
      <trkpt lat="45.98405" lon="4.86097">
        <ele>277</ele>
        <time>2017-06-24T09:32:27Z</time>
      </trkpt>
      <trkpt lat="45.98406" lon="4.86103">
        <ele>277</ele>
        <time>2017-06-24T09:32:28Z</time>
      </trkpt>
      <trkpt lat="45.98408" lon="4.86116">
        <ele>277</ele>
        <time>2017-06-24T09:32:30Z</time>
      </trkpt>
      <trkpt lat="45.9841" lon="4.86122">
        <ele>277</ele>
        <time>2017-06-24T09:32:31Z</time>
      </trkpt>
      <trkpt lat="45.98412" lon="4.86134">
        <ele>276</ele>
        <time>2017-06-24T09:32:33Z</time>
      </trkpt>
      <trkpt lat="45.98413" lon="4.86141">
        <ele>276</ele>
        <time>2017-06-24T09:32:34Z</time>
      </trkpt>
      <trkpt lat="45.98414" lon="4.86152">
        <ele>276</ele>
        <time>2017-06-24T09:32:36Z</time>
      </trkpt>
      <trkpt lat="45.98415" lon="4.86157">
        <ele>276</ele>
        <time>2017-06-24T09:32:37Z</time>
      </trkpt>
      <trkpt lat="45.98416" lon="4.86166">
        <ele>276</ele>
        <time>2017-06-24T09:32:39Z</time>
      </trkpt>
      <trkpt lat="45.98417" lon="4.86172">
        <ele>276</ele>
        <time>2017-06-24T09:32:40Z</time>
      </trkpt>
      <trkpt lat="45.98419" lon="4.86183">
        <ele>275</ele>
        <time>2017-06-24T09:32:42Z</time>
      </trkpt>
      <trkpt lat="45.9842" lon="4.86188">
        <ele>275</ele>
        <time>2017-06-24T09:32:43Z</time>
      </trkpt>
      <trkpt lat="45.98422" lon="4.86197">
        <ele>275</ele>
        <time>2017-06-24T09:32:45Z</time>
      </trkpt>
      <trkpt lat="45.98422" lon="4.86202">
        <ele>275</ele>
        <time>2017-06-24T09:32:46Z</time>
      </trkpt>
      <trkpt lat="45.98423" lon="4.86212">
        <ele>275</ele>
        <time>2017-06-24T09:32:48Z</time>
      </trkpt>
      <trkpt lat="45.98424" lon="4.86218">
        <ele>275</ele>
        <time>2017-06-24T09:32:49Z</time>
      </trkpt>
      <trkpt lat="45.98426" lon="4.86229">
        <ele>275</ele>
        <time>2017-06-24T09:32:51Z</time>
      </trkpt>
      <trkpt lat="45.98427" lon="4.86236">
        <ele>275</ele>
        <time>2017-06-24T09:32:52Z</time>
      </trkpt>
      <trkpt lat="45.98428" lon="4.86243">
        <ele>275</ele>
        <time>2017-06-24T09:32:53Z</time>
      </trkpt>
      <trkpt lat="45.98429" lon="4.8625">
        <ele>275</ele>
        <time>2017-06-24T09:32:54Z</time>
      </trkpt>
      <trkpt lat="45.98431" lon="4.86258">
        <ele>275</ele>
        <time>2017-06-24T09:32:55Z</time>
      </trkpt>
      <trkpt lat="45.98433" lon="4.86267">
        <ele>275</ele>
        <time>2017-06-24T09:32:56Z</time>
      </trkpt>
      <trkpt lat="45.98435" lon="4.86275">
        <ele>276</ele>
        <time>2017-06-24T09:32:57Z</time>
      </trkpt>
      <trkpt lat="45.98437" lon="4.86285">
        <ele>276</ele>
        <time>2017-06-24T09:32:58Z</time>
      </trkpt>
      <trkpt lat="45.98438" lon="4.86294">
        <ele>276</ele>
        <time>2017-06-24T09:32:59Z</time>
      </trkpt>
      <trkpt lat="45.98439" lon="4.86304">
        <ele>276</ele>
        <time>2017-06-24T09:33:00Z</time>
      </trkpt>
      <trkpt lat="45.98441" lon="4.86314">
        <ele>276</ele>
        <time>2017-06-24T09:33:01Z</time>
      </trkpt>
      <trkpt lat="45.98443" lon="4.86323">
        <ele>276</ele>
        <time>2017-06-24T09:33:02Z</time>
      </trkpt>
      <trkpt lat="45.98445" lon="4.86333">
        <ele>276</ele>
        <time>2017-06-24T09:33:03Z</time>
      </trkpt>
      <trkpt lat="45.98448" lon="4.86342">
        <ele>277</ele>
        <time>2017-06-24T09:33:04Z</time>
      </trkpt>
      <trkpt lat="45.9845" lon="4.86351">
        <ele>277</ele>
        <time>2017-06-24T09:33:05Z</time>
      </trkpt>
      <trkpt lat="45.98452" lon="4.8636">
        <ele>277</ele>
        <time>2017-06-24T09:33:06Z</time>
      </trkpt>
      <trkpt lat="45.98455" lon="4.86368">
        <ele>277</ele>
        <time>2017-06-24T09:33:07Z</time>
      </trkpt>
      <trkpt lat="45.98458" lon="4.86376">
        <ele>277</ele>
        <time>2017-06-24T09:33:08Z</time>
      </trkpt>
      <trkpt lat="45.98461" lon="4.86384">
        <ele>277</ele>
        <time>2017-06-24T09:33:09Z</time>
      </trkpt>
      <trkpt lat="45.98464" lon="4.86392">
        <ele>277</ele>
        <time>2017-06-24T09:33:10Z</time>
      </trkpt>
      <trkpt lat="45.98468" lon="4.864">
        <ele>277</ele>
        <time>2017-06-24T09:33:11Z</time>
      </trkpt>
      <trkpt lat="45.98471" lon="4.86407">
        <ele>277</ele>
        <time>2017-06-24T09:33:12Z</time>
      </trkpt>
      <trkpt lat="45.98475" lon="4.86413">
        <ele>277</ele>
        <time>2017-06-24T09:33:13Z</time>
      </trkpt>
      <trkpt lat="45.98479" lon="4.8642">
        <ele>278</ele>
        <time>2017-06-24T09:33:14Z</time>
      </trkpt>
      <trkpt lat="45.98482" lon="4.86427">
        <ele>278</ele>
        <time>2017-06-24T09:33:15Z</time>
      </trkpt>
      <trkpt lat="45.98485" lon="4.86434">
        <ele>278</ele>
        <time>2017-06-24T09:33:16Z</time>
      </trkpt>
      <trkpt lat="45.98488" lon="4.8644">
        <ele>278</ele>
        <time>2017-06-24T09:33:17Z</time>
      </trkpt>
      <trkpt lat="45.98491" lon="4.86446">
        <ele>278</ele>
        <time>2017-06-24T09:33:18Z</time>
      </trkpt>
      <trkpt lat="45.98494" lon="4.86452">
        <ele>278</ele>
        <time>2017-06-24T09:33:19Z</time>
      </trkpt>
      <trkpt lat="45.98496" lon="4.86458">
        <ele>278</ele>
        <time>2017-06-24T09:33:20Z</time>
      </trkpt>
      <trkpt lat="45.98499" lon="4.86465">
        <ele>278</ele>
        <time>2017-06-24T09:33:21Z</time>
      </trkpt>
      <trkpt lat="45.98501" lon="4.86472">
        <ele>278</ele>
        <time>2017-06-24T09:33:22Z</time>
      </trkpt>
      <trkpt lat="45.98504" lon="4.86478">
        <ele>278</ele>
        <time>2017-06-24T09:33:23Z</time>
      </trkpt>
      <trkpt lat="45.98506" lon="4.86485">
        <ele>279</ele>
        <time>2017-06-24T09:33:24Z</time>
      </trkpt>
      <trkpt lat="45.98509" lon="4.86491">
        <ele>279</ele>
        <time>2017-06-24T09:33:25Z</time>
      </trkpt>
      <trkpt lat="45.98512" lon="4.86497">
        <ele>279</ele>
        <time>2017-06-24T09:33:26Z</time>
      </trkpt>
      <trkpt lat="45.98515" lon="4.86504">
        <ele>279</ele>
        <time>2017-06-24T09:33:27Z</time>
      </trkpt>
      <trkpt lat="45.98518" lon="4.8651">
        <ele>279</ele>
        <time>2017-06-24T09:33:28Z</time>
      </trkpt>
      <trkpt lat="45.98521" lon="4.86516">
        <ele>279</ele>
        <time>2017-06-24T09:33:29Z</time>
      </trkpt>
      <trkpt lat="45.98524" lon="4.86522">
        <ele>279</ele>
        <time>2017-06-24T09:33:30Z</time>
      </trkpt>
      <trkpt lat="45.98527" lon="4.86528">
        <ele>279</ele>
        <time>2017-06-24T09:33:31Z</time>
      </trkpt>
      <trkpt lat="45.9853" lon="4.86534">
        <ele>279</ele>
        <time>2017-06-24T09:33:32Z</time>
      </trkpt>
      <trkpt lat="45.98533" lon="4.8654">
        <ele>279</ele>
        <time>2017-06-24T09:33:33Z</time>
      </trkpt>
      <trkpt lat="45.98536" lon="4.86545">
        <ele>278</ele>
        <time>2017-06-24T09:33:34Z</time>
      </trkpt>
      <trkpt lat="45.98539" lon="4.86551">
        <ele>278</ele>
        <time>2017-06-24T09:33:35Z</time>
      </trkpt>
      <trkpt lat="45.98542" lon="4.86557">
        <ele>278</ele>
        <time>2017-06-24T09:33:36Z</time>
      </trkpt>
      <trkpt lat="45.98544" lon="4.86564">
        <ele>278</ele>
        <time>2017-06-24T09:33:37Z</time>
      </trkpt>
      <trkpt lat="45.98547" lon="4.86571">
        <ele>278</ele>
        <time>2017-06-24T09:33:38Z</time>
      </trkpt>
      <trkpt lat="45.98549" lon="4.86578">
        <ele>278</ele>
        <time>2017-06-24T09:33:39Z</time>
      </trkpt>
      <trkpt lat="45.98551" lon="4.86585">
        <ele>278</ele>
        <time>2017-06-24T09:33:40Z</time>
      </trkpt>
      <trkpt lat="45.98553" lon="4.86592">
        <ele>278</ele>
        <time>2017-06-24T09:33:41Z</time>
      </trkpt>
      <trkpt lat="45.98554" lon="4.86599">
        <ele>278</ele>
        <time>2017-06-24T09:33:42Z</time>
      </trkpt>
      <trkpt lat="45.98556" lon="4.86605">
        <ele>278</ele>
        <time>2017-06-24T09:33:43Z</time>
      </trkpt>
      <trkpt lat="45.98557" lon="4.86611">
        <ele>278</ele>
        <time>2017-06-24T09:33:44Z</time>
      </trkpt>
      <trkpt lat="45.98559" lon="4.86619">
        <ele>278</ele>
        <time>2017-06-24T09:33:45Z</time>
      </trkpt>
      <trkpt lat="45.9856" lon="4.86626">
        <ele>278</ele>
        <time>2017-06-24T09:33:46Z</time>
      </trkpt>
      <trkpt lat="45.98561" lon="4.86633">
        <ele>278</ele>
        <time>2017-06-24T09:33:47Z</time>
      </trkpt>
      <trkpt lat="45.98562" lon="4.8664">
        <ele>277</ele>
        <time>2017-06-24T09:33:48Z</time>
      </trkpt>
      <trkpt lat="45.98563" lon="4.86646">
        <ele>277</ele>
        <time>2017-06-24T09:33:49Z</time>
      </trkpt>
      <trkpt lat="45.98564" lon="4.86652">
        <ele>277</ele>
        <time>2017-06-24T09:33:50Z</time>
      </trkpt>
      <trkpt lat="45.98564" lon="4.86663">
        <ele>277</ele>
        <time>2017-06-24T09:33:52Z</time>
      </trkpt>
      <trkpt lat="45.98564" lon="4.86669">
        <ele>276</ele>
        <time>2017-06-24T09:33:53Z</time>
      </trkpt>
      <trkpt lat="45.98566" lon="4.86681">
        <ele>277</ele>
        <time>2017-06-24T09:33:55Z</time>
      </trkpt>
      <trkpt lat="45.98566" lon="4.86687">
        <ele>277</ele>
        <time>2017-06-24T09:33:56Z</time>
      </trkpt>
      <trkpt lat="45.98566" lon="4.86693">
        <ele>277</ele>
        <time>2017-06-24T09:33:57Z</time>
      </trkpt>
      <trkpt lat="45.98567" lon="4.867">
        <ele>277</ele>
        <time>2017-06-24T09:33:58Z</time>
      </trkpt>
      <trkpt lat="45.98567" lon="4.86707">
        <ele>277</ele>
        <time>2017-06-24T09:33:59Z</time>
      </trkpt>
      <trkpt lat="45.98568" lon="4.86714">
        <ele>277</ele>
        <time>2017-06-24T09:34:00Z</time>
      </trkpt>
      <trkpt lat="45.98568" lon="4.86722">
        <ele>277</ele>
        <time>2017-06-24T09:34:01Z</time>
      </trkpt>
      <trkpt lat="45.98569" lon="4.86729">
        <ele>277</ele>
        <time>2017-06-24T09:34:02Z</time>
      </trkpt>
      <trkpt lat="45.9857" lon="4.86741">
        <ele>277</ele>
        <time>2017-06-24T09:34:04Z</time>
      </trkpt>
      <trkpt lat="45.98571" lon="4.86747">
        <ele>277</ele>
        <time>2017-06-24T09:34:05Z</time>
      </trkpt>
      <trkpt lat="45.98573" lon="4.86759">
        <ele>277</ele>
        <time>2017-06-24T09:34:07Z</time>
      </trkpt>
      <trkpt lat="45.98574" lon="4.86764">
        <ele>277</ele>
        <time>2017-06-24T09:34:08Z</time>
      </trkpt>
      <trkpt lat="45.98575" lon="4.86776">
        <ele>277</ele>
        <time>2017-06-24T09:34:10Z</time>
      </trkpt>
      <trkpt lat="45.98576" lon="4.86781">
        <ele>277</ele>
        <time>2017-06-24T09:34:11Z</time>
      </trkpt>
      <trkpt lat="45.98577" lon="4.86788">
        <ele>277</ele>
        <time>2017-06-24T09:34:12Z</time>
      </trkpt>
      <trkpt lat="45.98579" lon="4.86795">
        <ele>277</ele>
        <time>2017-06-24T09:34:13Z</time>
      </trkpt>
      <trkpt lat="45.9858" lon="4.86802">
        <ele>278</ele>
        <time>2017-06-24T09:34:14Z</time>
      </trkpt>
      <trkpt lat="45.98581" lon="4.86809">
        <ele>277</ele>
        <time>2017-06-24T09:34:15Z</time>
      </trkpt>
      <trkpt lat="45.98582" lon="4.86818">
        <ele>277</ele>
        <time>2017-06-24T09:34:16Z</time>
      </trkpt>
      <trkpt lat="45.98583" lon="4.86826">
        <ele>277</ele>
        <time>2017-06-24T09:34:17Z</time>
      </trkpt>
      <trkpt lat="45.98583" lon="4.86833">
        <ele>277</ele>
        <time>2017-06-24T09:34:18Z</time>
      </trkpt>
      <trkpt lat="45.98583" lon="4.8684">
        <ele>278</ele>
        <time>2017-06-24T09:34:19Z</time>
      </trkpt>
      <trkpt lat="45.98583" lon="4.86851">
        <ele>278</ele>
        <time>2017-06-24T09:34:21Z</time>
      </trkpt>
      <trkpt lat="45.98583" lon="4.86858">
        <ele>279</ele>
        <time>2017-06-24T09:34:22Z</time>
      </trkpt>
      <trkpt lat="45.98583" lon="4.86864">
        <ele>279</ele>
        <time>2017-06-24T09:34:23Z</time>
      </trkpt>
      <trkpt lat="45.98583" lon="4.86871">
        <ele>279</ele>
        <time>2017-06-24T09:34:24Z</time>
      </trkpt>
      <trkpt lat="45.98583" lon="4.86878">
        <ele>279</ele>
        <time>2017-06-24T09:34:25Z</time>
      </trkpt>
      <trkpt lat="45.98583" lon="4.86885">
        <ele>279</ele>
        <time>2017-06-24T09:34:26Z</time>
      </trkpt>
      <trkpt lat="45.98583" lon="4.86892">
        <ele>279</ele>
        <time>2017-06-24T09:34:27Z</time>
      </trkpt>
      <trkpt lat="45.98583" lon="4.869">
        <ele>279</ele>
        <time>2017-06-24T09:34:28Z</time>
      </trkpt>
      <trkpt lat="45.98582" lon="4.86907">
        <ele>279</ele>
        <time>2017-06-24T09:34:29Z</time>
      </trkpt>
      <trkpt lat="45.98582" lon="4.86915">
        <ele>279</ele>
        <time>2017-06-24T09:34:30Z</time>
      </trkpt>
      <trkpt lat="45.98582" lon="4.86923">
        <ele>280</ele>
        <time>2017-06-24T09:34:31Z</time>
      </trkpt>
      <trkpt lat="45.98583" lon="4.86931">
        <ele>280</ele>
        <time>2017-06-24T09:34:32Z</time>
      </trkpt>
      <trkpt lat="45.98583" lon="4.86939">
        <ele>280</ele>
        <time>2017-06-24T09:34:33Z</time>
      </trkpt>
      <trkpt lat="45.98583" lon="4.86946">
        <ele>281</ele>
        <time>2017-06-24T09:34:34Z</time>
      </trkpt>
      <trkpt lat="45.98583" lon="4.86954">
        <ele>281</ele>
        <time>2017-06-24T09:34:35Z</time>
      </trkpt>
      <trkpt lat="45.98583" lon="4.86963">
        <ele>281</ele>
        <time>2017-06-24T09:34:36Z</time>
      </trkpt>
      <trkpt lat="45.98584" lon="4.86971">
        <ele>279</ele>
        <time>2017-06-24T09:34:37Z</time>
      </trkpt>
      <trkpt lat="45.98584" lon="4.86979">
        <ele>279</ele>
        <time>2017-06-24T09:34:38Z</time>
      </trkpt>
      <trkpt lat="45.98586" lon="4.86987">
        <ele>279</ele>
        <time>2017-06-24T09:34:39Z</time>
      </trkpt>
      <trkpt lat="45.98587" lon="4.86995">
        <ele>280</ele>
        <time>2017-06-24T09:34:40Z</time>
      </trkpt>
      <trkpt lat="45.98588" lon="4.87003">
        <ele>280</ele>
        <time>2017-06-24T09:34:41Z</time>
      </trkpt>
      <trkpt lat="45.98589" lon="4.8701">
        <ele>279</ele>
        <time>2017-06-24T09:34:42Z</time>
      </trkpt>
      <trkpt lat="45.9859" lon="4.87017">
        <ele>279</ele>
        <time>2017-06-24T09:34:43Z</time>
      </trkpt>
      <trkpt lat="45.98592" lon="4.87025">
        <ele>279</ele>
        <time>2017-06-24T09:34:44Z</time>
      </trkpt>
      <trkpt lat="45.98593" lon="4.87032">
        <ele>279</ele>
        <time>2017-06-24T09:34:45Z</time>
      </trkpt>
      <trkpt lat="45.98595" lon="4.8704">
        <ele>279</ele>
        <time>2017-06-24T09:34:46Z</time>
      </trkpt>
      <trkpt lat="45.98596" lon="4.87048">
        <ele>279</ele>
        <time>2017-06-24T09:34:47Z</time>
      </trkpt>
      <trkpt lat="45.98598" lon="4.87055">
        <ele>279</ele>
        <time>2017-06-24T09:34:48Z</time>
      </trkpt>
      <trkpt lat="45.98599" lon="4.87062">
        <ele>279</ele>
        <time>2017-06-24T09:34:49Z</time>
      </trkpt>
      <trkpt lat="45.986" lon="4.87069">
        <ele>279</ele>
        <time>2017-06-24T09:34:50Z</time>
      </trkpt>
      <trkpt lat="45.98602" lon="4.87077">
        <ele>279</ele>
        <time>2017-06-24T09:34:51Z</time>
      </trkpt>
      <trkpt lat="45.98602" lon="4.87083">
        <ele>279</ele>
        <time>2017-06-24T09:34:52Z</time>
      </trkpt>
      <trkpt lat="45.98603" lon="4.8709">
        <ele>279</ele>
        <time>2017-06-24T09:34:53Z</time>
      </trkpt>
      <trkpt lat="45.98604" lon="4.87096">
        <ele>279</ele>
        <time>2017-06-24T09:34:54Z</time>
      </trkpt>
      <trkpt lat="45.98604" lon="4.87103">
        <ele>279</ele>
        <time>2017-06-24T09:34:55Z</time>
      </trkpt>
      <trkpt lat="45.98605" lon="4.8711">
        <ele>279</ele>
        <time>2017-06-24T09:34:56Z</time>
      </trkpt>
      <trkpt lat="45.98605" lon="4.87117">
        <ele>279</ele>
        <time>2017-06-24T09:34:57Z</time>
      </trkpt>
      <trkpt lat="45.98605" lon="4.87124">
        <ele>279</ele>
        <time>2017-06-24T09:34:58Z</time>
      </trkpt>
      <trkpt lat="45.98605" lon="4.87131">
        <ele>279</ele>
        <time>2017-06-24T09:34:59Z</time>
      </trkpt>
      <trkpt lat="45.98604" lon="4.87138">
        <ele>278</ele>
        <time>2017-06-24T09:35:00Z</time>
      </trkpt>
      <trkpt lat="45.98604" lon="4.87146">
        <ele>278</ele>
        <time>2017-06-24T09:35:01Z</time>
      </trkpt>
      <trkpt lat="45.98604" lon="4.87153">
        <ele>278</ele>
        <time>2017-06-24T09:35:02Z</time>
      </trkpt>
      <trkpt lat="45.98603" lon="4.87159">
        <ele>278</ele>
        <time>2017-06-24T09:35:03Z</time>
      </trkpt>
      <trkpt lat="45.98603" lon="4.87166">
        <ele>278</ele>
        <time>2017-06-24T09:35:04Z</time>
      </trkpt>
      <trkpt lat="45.98603" lon="4.87173">
        <ele>277</ele>
        <time>2017-06-24T09:35:05Z</time>
      </trkpt>
      <trkpt lat="45.98603" lon="4.87181">
        <ele>277</ele>
        <time>2017-06-24T09:35:06Z</time>
      </trkpt>
      <trkpt lat="45.98602" lon="4.87187">
        <ele>277</ele>
        <time>2017-06-24T09:35:07Z</time>
      </trkpt>
      <trkpt lat="45.98602" lon="4.87194">
        <ele>277</ele>
        <time>2017-06-24T09:35:08Z</time>
      </trkpt>
      <trkpt lat="45.98601" lon="4.87202">
        <ele>277</ele>
        <time>2017-06-24T09:35:09Z</time>
      </trkpt>
      <trkpt lat="45.98601" lon="4.87211">
        <ele>277</ele>
        <time>2017-06-24T09:35:10Z</time>
      </trkpt>
      <trkpt lat="45.986" lon="4.87219">
        <ele>277</ele>
        <time>2017-06-24T09:35:11Z</time>
      </trkpt>
      <trkpt lat="45.98599" lon="4.87227">
        <ele>277</ele>
        <time>2017-06-24T09:35:12Z</time>
      </trkpt>
      <trkpt lat="45.98598" lon="4.87235">
        <ele>277</ele>
        <time>2017-06-24T09:35:13Z</time>
      </trkpt>
      <trkpt lat="45.98598" lon="4.87244">
        <ele>277</ele>
        <time>2017-06-24T09:35:14Z</time>
      </trkpt>
      <trkpt lat="45.98597" lon="4.87253">
        <ele>275</ele>
        <time>2017-06-24T09:35:15Z</time>
      </trkpt>
      <trkpt lat="45.98597" lon="4.87262">
        <ele>275</ele>
        <time>2017-06-24T09:35:16Z</time>
      </trkpt>
      <trkpt lat="45.98596" lon="4.87271">
        <ele>275</ele>
        <time>2017-06-24T09:35:17Z</time>
      </trkpt>
      <trkpt lat="45.98595" lon="4.87282">
        <ele>275</ele>
        <time>2017-06-24T09:35:18Z</time>
      </trkpt>
      <trkpt lat="45.98595" lon="4.87293">
        <ele>275</ele>
        <time>2017-06-24T09:35:19Z</time>
      </trkpt>
      <trkpt lat="45.98595" lon="4.87303">
        <ele>274</ele>
        <time>2017-06-24T09:35:20Z</time>
      </trkpt>
      <trkpt lat="45.98596" lon="4.87312">
        <ele>274</ele>
        <time>2017-06-24T09:35:21Z</time>
      </trkpt>
      <trkpt lat="45.98597" lon="4.87322">
        <ele>274</ele>
        <time>2017-06-24T09:35:22Z</time>
      </trkpt>
      <trkpt lat="45.98599" lon="4.87332">
        <ele>274</ele>
        <time>2017-06-24T09:35:23Z</time>
      </trkpt>
      <trkpt lat="45.986" lon="4.87342">
        <ele>272</ele>
        <time>2017-06-24T09:35:24Z</time>
      </trkpt>
      <trkpt lat="45.98602" lon="4.87351">
        <ele>272</ele>
        <time>2017-06-24T09:35:25Z</time>
      </trkpt>
      <trkpt lat="45.98604" lon="4.87361">
        <ele>272</ele>
        <time>2017-06-24T09:35:26Z</time>
      </trkpt>
      <trkpt lat="45.98607" lon="4.87371">
        <ele>271</ele>
        <time>2017-06-24T09:35:27Z</time>
      </trkpt>
      <trkpt lat="45.98609" lon="4.87381">
        <ele>271</ele>
        <time>2017-06-24T09:35:28Z</time>
      </trkpt>
      <trkpt lat="45.98611" lon="4.87391">
        <ele>271</ele>
        <time>2017-06-24T09:35:29Z</time>
      </trkpt>
      <trkpt lat="45.98613" lon="4.874">
        <ele>271</ele>
        <time>2017-06-24T09:35:30Z</time>
      </trkpt>
      <trkpt lat="45.98615" lon="4.8741">
        <ele>271</ele>
        <time>2017-06-24T09:35:31Z</time>
      </trkpt>
      <trkpt lat="45.98617" lon="4.8742">
        <ele>269</ele>
        <time>2017-06-24T09:35:32Z</time>
      </trkpt>
      <trkpt lat="45.98619" lon="4.8743">
        <ele>269</ele>
        <time>2017-06-24T09:35:33Z</time>
      </trkpt>
      <trkpt lat="45.98621" lon="4.87441">
        <ele>269</ele>
        <time>2017-06-24T09:35:34Z</time>
      </trkpt>
      <trkpt lat="45.98623" lon="4.87451">
        <ele>268</ele>
        <time>2017-06-24T09:35:35Z</time>
      </trkpt>
      <trkpt lat="45.98625" lon="4.87462">
        <ele>268</ele>
        <time>2017-06-24T09:35:36Z</time>
      </trkpt>
      <trkpt lat="45.98627" lon="4.87472">
        <ele>268</ele>
        <time>2017-06-24T09:35:37Z</time>
      </trkpt>
      <trkpt lat="45.98629" lon="4.87482">
        <ele>268</ele>
        <time>2017-06-24T09:35:38Z</time>
      </trkpt>
      <trkpt lat="45.98631" lon="4.87493">
        <ele>268</ele>
        <time>2017-06-24T09:35:39Z</time>
      </trkpt>
      <trkpt lat="45.98633" lon="4.87503">
        <ele>267</ele>
        <time>2017-06-24T09:35:40Z</time>
      </trkpt>
      <trkpt lat="45.98635" lon="4.87514">
        <ele>267</ele>
        <time>2017-06-24T09:35:41Z</time>
      </trkpt>
      <trkpt lat="45.98636" lon="4.87524">
        <ele>267</ele>
        <time>2017-06-24T09:35:42Z</time>
      </trkpt>
      <trkpt lat="45.98639" lon="4.87534">
        <ele>267</ele>
        <time>2017-06-24T09:35:43Z</time>
      </trkpt>
      <trkpt lat="45.98642" lon="4.87544">
        <ele>267</ele>
        <time>2017-06-24T09:35:44Z</time>
      </trkpt>
      <trkpt lat="45.98645" lon="4.87553">
        <ele>267</ele>
        <time>2017-06-24T09:35:45Z</time>
      </trkpt>
      <trkpt lat="45.98649" lon="4.87561">
        <ele>267</ele>
        <time>2017-06-24T09:35:46Z</time>
      </trkpt>
      <trkpt lat="45.98655" lon="4.87567">
        <ele>267</ele>
        <time>2017-06-24T09:35:47Z</time>
      </trkpt>
      <trkpt lat="45.98661" lon="4.87571">
        <ele>267</ele>
        <time>2017-06-24T09:35:48Z</time>
      </trkpt>
      <trkpt lat="45.98667" lon="4.87573">
        <ele>267</ele>
        <time>2017-06-24T09:35:49Z</time>
      </trkpt>
      <trkpt lat="45.98672" lon="4.87572">
        <ele>267</ele>
        <time>2017-06-24T09:35:50Z</time>
      </trkpt>
      <trkpt lat="45.98677" lon="4.87572">
        <ele>267</ele>
        <time>2017-06-24T09:35:51Z</time>
      </trkpt>
      <trkpt lat="45.98683" lon="4.87571">
        <ele>267</ele>
        <time>2017-06-24T09:35:52Z</time>
      </trkpt>
      <trkpt lat="45.98688" lon="4.8757">
        <ele>267</ele>
        <time>2017-06-24T09:35:53Z</time>
      </trkpt>
      <trkpt lat="45.98692" lon="4.87568">
        <ele>267</ele>
        <time>2017-06-24T09:35:54Z</time>
      </trkpt>
      <trkpt lat="45.98701" lon="4.87565">
        <ele>267</ele>
        <time>2017-06-24T09:35:56Z</time>
      </trkpt>
      <trkpt lat="45.98706" lon="4.87563">
        <ele>267</ele>
        <time>2017-06-24T09:35:57Z</time>
      </trkpt>
      <trkpt lat="45.9871" lon="4.87562">
        <ele>267</ele>
        <time>2017-06-24T09:35:58Z</time>
      </trkpt>
      <trkpt lat="45.98716" lon="4.87562">
        <ele>267</ele>
        <time>2017-06-24T09:35:59Z</time>
      </trkpt>
      <trkpt lat="45.98721" lon="4.87561">
        <ele>267</ele>
        <time>2017-06-24T09:36:00Z</time>
      </trkpt>
      <trkpt lat="45.98725" lon="4.87562">
        <ele>267</ele>
        <time>2017-06-24T09:36:01Z</time>
      </trkpt>
      <trkpt lat="45.9873" lon="4.87561">
        <ele>267</ele>
        <time>2017-06-24T09:36:02Z</time>
      </trkpt>
      <trkpt lat="45.98735" lon="4.87561">
        <ele>267</ele>
        <time>2017-06-24T09:36:03Z</time>
      </trkpt>
      <trkpt lat="45.9874" lon="4.87562">
        <ele>267</ele>
        <time>2017-06-24T09:36:04Z</time>
      </trkpt>
      <trkpt lat="45.98745" lon="4.87564">
        <ele>267</ele>
        <time>2017-06-24T09:36:05Z</time>
      </trkpt>
      <trkpt lat="45.98749" lon="4.87566">
        <ele>267</ele>
        <time>2017-06-24T09:36:06Z</time>
      </trkpt>
      <trkpt lat="45.98753" lon="4.87567">
        <ele>268</ele>
        <time>2017-06-24T09:36:07Z</time>
      </trkpt>
      <trkpt lat="45.98758" lon="4.87569">
        <ele>269</ele>
        <time>2017-06-24T09:36:08Z</time>
      </trkpt>
      <trkpt lat="45.98762" lon="4.87571">
        <ele>269</ele>
        <time>2017-06-24T09:36:09Z</time>
      </trkpt>
      <trkpt lat="45.98769" lon="4.87575">
        <ele>269</ele>
        <time>2017-06-24T09:36:11Z</time>
      </trkpt>
      <trkpt lat="45.98772" lon="4.87578">
        <ele>269</ele>
        <time>2017-06-24T09:36:12Z</time>
      </trkpt>
      <trkpt lat="45.9878" lon="4.87585">
        <ele>270</ele>
        <time>2017-06-24T09:36:14Z</time>
      </trkpt>
      <trkpt lat="45.98783" lon="4.87589">
        <ele>270</ele>
        <time>2017-06-24T09:36:15Z</time>
      </trkpt>
      <trkpt lat="45.98789" lon="4.87597">
        <ele>271</ele>
        <time>2017-06-24T09:36:17Z</time>
      </trkpt>
      <trkpt lat="45.98793" lon="4.87601">
        <ele>271</ele>
        <time>2017-06-24T09:36:18Z</time>
      </trkpt>
      <trkpt lat="45.98796" lon="4.87605">
        <ele>271</ele>
        <time>2017-06-24T09:36:19Z</time>
      </trkpt>
      <trkpt lat="45.98799" lon="4.8761">
        <ele>271</ele>
        <time>2017-06-24T09:36:20Z</time>
      </trkpt>
      <trkpt lat="45.98803" lon="4.87615">
        <ele>271</ele>
        <time>2017-06-24T09:36:21Z</time>
      </trkpt>
      <trkpt lat="45.98806" lon="4.87621">
        <ele>271</ele>
        <time>2017-06-24T09:36:22Z</time>
      </trkpt>
      <trkpt lat="45.98809" lon="4.87628">
        <ele>271</ele>
        <time>2017-06-24T09:36:23Z</time>
      </trkpt>
      <trkpt lat="45.9881" lon="4.87634">
        <ele>271</ele>
        <time>2017-06-24T09:36:24Z</time>
      </trkpt>
      <trkpt lat="45.98814" lon="4.87645">
        <ele>272</ele>
        <time>2017-06-24T09:36:26Z</time>
      </trkpt>
      <trkpt lat="45.98815" lon="4.8765">
        <ele>272</ele>
        <time>2017-06-24T09:36:27Z</time>
      </trkpt>
      <trkpt lat="45.98819" lon="4.87661">
        <ele>272</ele>
        <time>2017-06-24T09:36:29Z</time>
      </trkpt>
      <trkpt lat="45.9882" lon="4.87667">
        <ele>272</ele>
        <time>2017-06-24T09:36:30Z</time>
      </trkpt>
      <trkpt lat="45.98822" lon="4.87673">
        <ele>273</ele>
        <time>2017-06-24T09:36:31Z</time>
      </trkpt>
      <trkpt lat="45.98823" lon="4.8768">
        <ele>273</ele>
        <time>2017-06-24T09:36:32Z</time>
      </trkpt>
      <trkpt lat="45.98824" lon="4.87686">
        <ele>273</ele>
        <time>2017-06-24T09:36:33Z</time>
      </trkpt>
      <trkpt lat="45.98826" lon="4.87693">
        <ele>273</ele>
        <time>2017-06-24T09:36:34Z</time>
      </trkpt>
      <trkpt lat="45.98827" lon="4.877">
        <ele>273</ele>
        <time>2017-06-24T09:36:35Z</time>
      </trkpt>
      <trkpt lat="45.98828" lon="4.87707">
        <ele>273</ele>
        <time>2017-06-24T09:36:36Z</time>
      </trkpt>
      <trkpt lat="45.9883" lon="4.87714">
        <ele>274</ele>
        <time>2017-06-24T09:36:37Z</time>
      </trkpt>
      <trkpt lat="45.98832" lon="4.87721">
        <ele>274</ele>
        <time>2017-06-24T09:36:38Z</time>
      </trkpt>
      <trkpt lat="45.98834" lon="4.87728">
        <ele>273</ele>
        <time>2017-06-24T09:36:39Z</time>
      </trkpt>
      <trkpt lat="45.98835" lon="4.87734">
        <ele>273</ele>
        <time>2017-06-24T09:36:40Z</time>
      </trkpt>
      <trkpt lat="45.98836" lon="4.87741">
        <ele>273</ele>
        <time>2017-06-24T09:36:41Z</time>
      </trkpt>
      <trkpt lat="45.98838" lon="4.87747">
        <ele>273</ele>
        <time>2017-06-24T09:36:42Z</time>
      </trkpt>
      <trkpt lat="45.9884" lon="4.87758">
        <ele>273</ele>
        <time>2017-06-24T09:36:44Z</time>
      </trkpt>
      <trkpt lat="45.98841" lon="4.87763">
        <ele>273</ele>
        <time>2017-06-24T09:36:45Z</time>
      </trkpt>
      <trkpt lat="45.98844" lon="4.87775">
        <ele>273</ele>
        <time>2017-06-24T09:36:47Z</time>
      </trkpt>
      <trkpt lat="45.98846" lon="4.87782">
        <ele>273</ele>
        <time>2017-06-24T09:36:48Z</time>
      </trkpt>
      <trkpt lat="45.98848" lon="4.87788">
        <ele>273</ele>
        <time>2017-06-24T09:36:49Z</time>
      </trkpt>
      <trkpt lat="45.9885" lon="4.87794">
        <ele>273</ele>
        <time>2017-06-24T09:36:50Z</time>
      </trkpt>
      <trkpt lat="45.98853" lon="4.87803">
        <ele>273</ele>
        <time>2017-06-24T09:36:51Z</time>
      </trkpt>
      <trkpt lat="45.98856" lon="4.8781">
        <ele>273</ele>
        <time>2017-06-24T09:36:52Z</time>
      </trkpt>
      <trkpt lat="45.98858" lon="4.87817">
        <ele>273</ele>
        <time>2017-06-24T09:36:53Z</time>
      </trkpt>
      <trkpt lat="45.9886" lon="4.87823">
        <ele>273</ele>
        <time>2017-06-24T09:36:54Z</time>
      </trkpt>
      <trkpt lat="45.98864" lon="4.87833">
        <ele>273</ele>
        <time>2017-06-24T09:36:56Z</time>
      </trkpt>
      <trkpt lat="45.98867" lon="4.87838">
        <ele>273</ele>
        <time>2017-06-24T09:36:57Z</time>
      </trkpt>
      <trkpt lat="45.98872" lon="4.87847">
        <ele>273</ele>
        <time>2017-06-24T09:36:59Z</time>
      </trkpt>
      <trkpt lat="45.98875" lon="4.87852">
        <ele>273</ele>
        <time>2017-06-24T09:37:00Z</time>
      </trkpt>
      <trkpt lat="45.9888" lon="4.87861">
        <ele>272</ele>
        <time>2017-06-24T09:37:02Z</time>
      </trkpt>
      <trkpt lat="45.98883" lon="4.87866">
        <ele>272</ele>
        <time>2017-06-24T09:37:03Z</time>
      </trkpt>
      <trkpt lat="45.98887" lon="4.87871">
        <ele>272</ele>
        <time>2017-06-24T09:37:04Z</time>
      </trkpt>
      <trkpt lat="45.9889" lon="4.87876">
        <ele>272</ele>
        <time>2017-06-24T09:37:05Z</time>
      </trkpt>
      <trkpt lat="45.98897" lon="4.87884">
        <ele>272</ele>
        <time>2017-06-24T09:37:07Z</time>
      </trkpt>
      <trkpt lat="45.989" lon="4.87889">
        <ele>272</ele>
        <time>2017-06-24T09:37:08Z</time>
      </trkpt>
      <trkpt lat="45.98906" lon="4.87897">
        <ele>272</ele>
        <time>2017-06-24T09:37:10Z</time>
      </trkpt>
      <trkpt lat="45.9891" lon="4.87901">
        <ele>272</ele>
        <time>2017-06-24T09:37:11Z</time>
      </trkpt>
      <trkpt lat="45.98915" lon="4.87908">
        <ele>271</ele>
        <time>2017-06-24T09:37:13Z</time>
      </trkpt>
      <trkpt lat="45.98918" lon="4.87911">
        <ele>272</ele>
        <time>2017-06-24T09:37:14Z</time>
      </trkpt>
      <trkpt lat="45.98926" lon="4.87917">
        <ele>272</ele>
        <time>2017-06-24T09:37:16Z</time>
      </trkpt>
      <trkpt lat="45.9893" lon="4.8792">
        <ele>272</ele>
        <time>2017-06-24T09:37:17Z</time>
      </trkpt>
      <trkpt lat="45.98937" lon="4.87926">
        <ele>272</ele>
        <time>2017-06-24T09:37:19Z</time>
      </trkpt>
      <trkpt lat="45.98941" lon="4.87928">
        <ele>273</ele>
        <time>2017-06-24T09:37:20Z</time>
      </trkpt>
      <trkpt lat="45.98948" lon="4.87933">
        <ele>273</ele>
        <time>2017-06-24T09:37:22Z</time>
      </trkpt>
      <trkpt lat="45.98952" lon="4.87935">
        <ele>273</ele>
        <time>2017-06-24T09:37:23Z</time>
      </trkpt>
      <trkpt lat="45.98956" lon="4.87938">
        <ele>273</ele>
        <time>2017-06-24T09:37:24Z</time>
      </trkpt>
      <trkpt lat="45.9896" lon="4.8794">
        <ele>273</ele>
        <time>2017-06-24T09:37:25Z</time>
      </trkpt>
      <trkpt lat="45.98965" lon="4.87943">
        <ele>273</ele>
        <time>2017-06-24T09:37:26Z</time>
      </trkpt>
      <trkpt lat="45.98969" lon="4.87945">
        <ele>274</ele>
        <time>2017-06-24T09:37:27Z</time>
      </trkpt>
      <trkpt lat="45.98974" lon="4.87948">
        <ele>274</ele>
        <time>2017-06-24T09:37:28Z</time>
      </trkpt>
      <trkpt lat="45.98978" lon="4.8795">
        <ele>274</ele>
        <time>2017-06-24T09:37:29Z</time>
      </trkpt>
      <trkpt lat="45.98984" lon="4.87954">
        <ele>274</ele>
        <time>2017-06-24T09:37:31Z</time>
      </trkpt>
      <trkpt lat="45.98988" lon="4.87956">
        <ele>274</ele>
        <time>2017-06-24T09:37:32Z</time>
      </trkpt>
      <trkpt lat="45.98995" lon="4.87959">
        <ele>274</ele>
        <time>2017-06-24T09:37:34Z</time>
      </trkpt>
      <trkpt lat="45.98998" lon="4.87961">
        <ele>274</ele>
        <time>2017-06-24T09:37:35Z</time>
      </trkpt>
      <trkpt lat="45.99006" lon="4.87965">
        <ele>276</ele>
        <time>2017-06-24T09:37:38Z</time>
      </trkpt>
      <trkpt lat="45.99008" lon="4.87966">
        <ele>276</ele>
        <time>2017-06-24T09:37:39Z</time>
      </trkpt>
      <trkpt lat="45.99016" lon="4.87971">
        <ele>276</ele>
        <time>2017-06-24T09:37:42Z</time>
      </trkpt>
      <trkpt lat="45.99019" lon="4.87973">
        <ele>276</ele>
        <time>2017-06-24T09:37:43Z</time>
      </trkpt>
      <trkpt lat="45.99025" lon="4.87976">
        <ele>276</ele>
        <time>2017-06-24T09:37:45Z</time>
      </trkpt>
      <trkpt lat="45.99027" lon="4.87978">
        <ele>276</ele>
        <time>2017-06-24T09:37:46Z</time>
      </trkpt>
      <trkpt lat="45.99035" lon="4.87982">
        <ele>276</ele>
        <time>2017-06-24T09:37:49Z</time>
      </trkpt>
      <trkpt lat="45.99038" lon="4.87984">
        <ele>276</ele>
        <time>2017-06-24T09:37:50Z</time>
      </trkpt>
      <trkpt lat="45.99044" lon="4.87988">
        <ele>277</ele>
        <time>2017-06-24T09:37:52Z</time>
      </trkpt>
      <trkpt lat="45.99048" lon="4.8799">
        <ele>277</ele>
        <time>2017-06-24T09:37:53Z</time>
      </trkpt>
      <trkpt lat="45.99055" lon="4.87993">
        <ele>277</ele>
        <time>2017-06-24T09:37:55Z</time>
      </trkpt>
      <trkpt lat="45.99058" lon="4.87995">
        <ele>277</ele>
        <time>2017-06-24T09:37:56Z</time>
      </trkpt>
      <trkpt lat="45.99065" lon="4.87997">
        <ele>277</ele>
        <time>2017-06-24T09:37:58Z</time>
      </trkpt>
      <trkpt lat="45.99068" lon="4.87998">
        <ele>277</ele>
        <time>2017-06-24T09:37:59Z</time>
      </trkpt>
      <trkpt lat="45.99074" lon="4.88002">
        <ele>278</ele>
        <time>2017-06-24T09:38:01Z</time>
      </trkpt>
      <trkpt lat="45.99077" lon="4.88004">
        <ele>278</ele>
        <time>2017-06-24T09:38:02Z</time>
      </trkpt>
      <trkpt lat="45.99083" lon="4.88008">
        <ele>278</ele>
        <time>2017-06-24T09:38:04Z</time>
      </trkpt>
      <trkpt lat="45.99086" lon="4.88009">
        <ele>278</ele>
        <time>2017-06-24T09:38:05Z</time>
      </trkpt>
      <trkpt lat="45.99092" lon="4.88013">
        <ele>278</ele>
        <time>2017-06-24T09:38:07Z</time>
      </trkpt>
      <trkpt lat="45.99095" lon="4.88015">
        <ele>278</ele>
        <time>2017-06-24T09:38:08Z</time>
      </trkpt>
      <trkpt lat="45.99104" lon="4.88018">
        <ele>278</ele>
        <time>2017-06-24T09:38:11Z</time>
      </trkpt>
      <trkpt lat="45.99107" lon="4.88019">
        <ele>278</ele>
        <time>2017-06-24T09:38:12Z</time>
      </trkpt>
      <trkpt lat="45.99114" lon="4.88023">
        <ele>278</ele>
        <time>2017-06-24T09:38:14Z</time>
      </trkpt>
      <trkpt lat="45.99117" lon="4.88025">
        <ele>278</ele>
        <time>2017-06-24T09:38:15Z</time>
      </trkpt>
      <trkpt lat="45.99123" lon="4.88029">
        <ele>278</ele>
        <time>2017-06-24T09:38:17Z</time>
      </trkpt>
      <trkpt lat="45.99126" lon="4.88032">
        <ele>279</ele>
        <time>2017-06-24T09:38:18Z</time>
      </trkpt>
      <trkpt lat="45.99132" lon="4.88035">
        <ele>279</ele>
        <time>2017-06-24T09:38:20Z</time>
      </trkpt>
      <trkpt lat="45.99135" lon="4.88037">
        <ele>279</ele>
        <time>2017-06-24T09:38:21Z</time>
      </trkpt>
      <trkpt lat="45.99141" lon="4.8804">
        <ele>279</ele>
        <time>2017-06-24T09:38:23Z</time>
      </trkpt>
      <trkpt lat="45.99144" lon="4.88042">
        <ele>279</ele>
        <time>2017-06-24T09:38:24Z</time>
      </trkpt>
      <trkpt lat="45.99149" lon="4.88046">
        <ele>279</ele>
        <time>2017-06-24T09:38:26Z</time>
      </trkpt>
      <trkpt lat="45.99152" lon="4.88048">
        <ele>279</ele>
        <time>2017-06-24T09:38:27Z</time>
      </trkpt>
      <trkpt lat="45.99158" lon="4.88052">
        <ele>279</ele>
        <time>2017-06-24T09:38:29Z</time>
      </trkpt>
      <trkpt lat="45.99161" lon="4.88054">
        <ele>279</ele>
        <time>2017-06-24T09:38:30Z</time>
      </trkpt>
      <trkpt lat="45.99166" lon="4.88058">
        <ele>279</ele>
        <time>2017-06-24T09:38:32Z</time>
      </trkpt>
      <trkpt lat="45.99169" lon="4.88061">
        <ele>279</ele>
        <time>2017-06-24T09:38:33Z</time>
      </trkpt>
      <trkpt lat="45.99175" lon="4.88066">
        <ele>279</ele>
        <time>2017-06-24T09:38:35Z</time>
      </trkpt>
      <trkpt lat="45.99178" lon="4.88068">
        <ele>279</ele>
        <time>2017-06-24T09:38:36Z</time>
      </trkpt>
      <trkpt lat="45.99184" lon="4.88074">
        <ele>279</ele>
        <time>2017-06-24T09:38:38Z</time>
      </trkpt>
      <trkpt lat="45.99187" lon="4.88076">
        <ele>279</ele>
        <time>2017-06-24T09:38:39Z</time>
      </trkpt>
      <trkpt lat="45.99192" lon="4.88081">
        <ele>280</ele>
        <time>2017-06-24T09:38:41Z</time>
      </trkpt>
      <trkpt lat="45.99195" lon="4.88084">
        <ele>280</ele>
        <time>2017-06-24T09:38:42Z</time>
      </trkpt>
      <trkpt lat="45.99201" lon="4.88089">
        <ele>280</ele>
        <time>2017-06-24T09:38:44Z</time>
      </trkpt>
      <trkpt lat="45.99204" lon="4.88091">
        <ele>280</ele>
        <time>2017-06-24T09:38:45Z</time>
      </trkpt>
      <trkpt lat="45.9921" lon="4.88096">
        <ele>280</ele>
        <time>2017-06-24T09:38:47Z</time>
      </trkpt>
      <trkpt lat="45.99213" lon="4.88099">
        <ele>280</ele>
        <time>2017-06-24T09:38:48Z</time>
      </trkpt>
      <trkpt lat="45.9922" lon="4.88105">
        <ele>280</ele>
        <time>2017-06-24T09:38:50Z</time>
      </trkpt>
      <trkpt lat="45.99223" lon="4.88108">
        <ele>280</ele>
        <time>2017-06-24T09:38:51Z</time>
      </trkpt>
      <trkpt lat="45.9923" lon="4.88115">
        <ele>280</ele>
        <time>2017-06-24T09:38:53Z</time>
      </trkpt>
      <trkpt lat="45.99233" lon="4.88118">
        <ele>280</ele>
        <time>2017-06-24T09:38:54Z</time>
      </trkpt>
      <trkpt lat="45.9924" lon="4.88124">
        <ele>280</ele>
        <time>2017-06-24T09:38:56Z</time>
      </trkpt>
      <trkpt lat="45.99243" lon="4.88126">
        <ele>280</ele>
        <time>2017-06-24T09:38:57Z</time>
      </trkpt>
      <trkpt lat="45.99249" lon="4.88132">
        <ele>280</ele>
        <time>2017-06-24T09:38:59Z</time>
      </trkpt>
      <trkpt lat="45.99252" lon="4.88135">
        <ele>283</ele>
        <time>2017-06-24T09:39:00Z</time>
      </trkpt>
      <trkpt lat="45.99258" lon="4.8814">
        <ele>283</ele>
        <time>2017-06-24T09:39:02Z</time>
      </trkpt>
      <trkpt lat="45.99261" lon="4.88143">
        <ele>283</ele>
        <time>2017-06-24T09:39:03Z</time>
      </trkpt>
      <trkpt lat="45.99267" lon="4.88149">
        <ele>283</ele>
        <time>2017-06-24T09:39:05Z</time>
      </trkpt>
      <trkpt lat="45.9927" lon="4.88151">
        <ele>283</ele>
        <time>2017-06-24T09:39:06Z</time>
      </trkpt>
      <trkpt lat="45.99276" lon="4.88156">
        <ele>283</ele>
        <time>2017-06-24T09:39:08Z</time>
      </trkpt>
      <trkpt lat="45.9928" lon="4.88159">
        <ele>283</ele>
        <time>2017-06-24T09:39:09Z</time>
      </trkpt>
      <trkpt lat="45.99286" lon="4.88165">
        <ele>284</ele>
        <time>2017-06-24T09:39:11Z</time>
      </trkpt>
      <trkpt lat="45.9929" lon="4.88167">
        <ele>284</ele>
        <time>2017-06-24T09:39:12Z</time>
      </trkpt>
      <trkpt lat="45.99297" lon="4.88173">
        <ele>284</ele>
        <time>2017-06-24T09:39:14Z</time>
      </trkpt>
      <trkpt lat="45.993" lon="4.88176">
        <ele>285</ele>
        <time>2017-06-24T09:39:15Z</time>
      </trkpt>
      <trkpt lat="45.99307" lon="4.88183">
        <ele>285</ele>
        <time>2017-06-24T09:39:17Z</time>
      </trkpt>
      <trkpt lat="45.9931" lon="4.88186">
        <ele>285</ele>
        <time>2017-06-24T09:39:18Z</time>
      </trkpt>
      <trkpt lat="45.99317" lon="4.88191">
        <ele>285</ele>
        <time>2017-06-24T09:39:20Z</time>
      </trkpt>
      <trkpt lat="45.9932" lon="4.88194">
        <ele>285</ele>
        <time>2017-06-24T09:39:21Z</time>
      </trkpt>
      <trkpt lat="45.99326" lon="4.882">
        <ele>285</ele>
        <time>2017-06-24T09:39:23Z</time>
      </trkpt>
      <trkpt lat="45.99329" lon="4.88203">
        <ele>285</ele>
        <time>2017-06-24T09:39:24Z</time>
      </trkpt>
      <trkpt lat="45.99335" lon="4.88209">
        <ele>287</ele>
        <time>2017-06-24T09:39:26Z</time>
      </trkpt>
      <trkpt lat="45.99338" lon="4.88212">
        <ele>287</ele>
        <time>2017-06-24T09:39:27Z</time>
      </trkpt>
      <trkpt lat="45.99344" lon="4.88218">
        <ele>287</ele>
        <time>2017-06-24T09:39:29Z</time>
      </trkpt>
      <trkpt lat="45.99347" lon="4.8822">
        <ele>287</ele>
        <time>2017-06-24T09:39:30Z</time>
      </trkpt>
      <trkpt lat="45.99353" lon="4.88226">
        <ele>287</ele>
        <time>2017-06-24T09:39:32Z</time>
      </trkpt>
      <trkpt lat="45.99356" lon="4.88229">
        <ele>287</ele>
        <time>2017-06-24T09:39:33Z</time>
      </trkpt>
      <trkpt lat="45.99363" lon="4.88235">
        <ele>287</ele>
        <time>2017-06-24T09:39:35Z</time>
      </trkpt>
      <trkpt lat="45.99366" lon="4.88238">
        <ele>287</ele>
        <time>2017-06-24T09:39:36Z</time>
      </trkpt>
      <trkpt lat="45.99371" lon="4.88244">
        <ele>287</ele>
        <time>2017-06-24T09:39:38Z</time>
      </trkpt>
      <trkpt lat="45.99373" lon="4.88248">
        <ele>287</ele>
        <time>2017-06-24T09:39:39Z</time>
      </trkpt>
      <trkpt lat="45.99378" lon="4.88256">
        <ele>285</ele>
        <time>2017-06-24T09:39:41Z</time>
      </trkpt>
      <trkpt lat="45.99379" lon="4.8826">
        <ele>285</ele>
        <time>2017-06-24T09:39:42Z</time>
      </trkpt>
      <trkpt lat="45.99383" lon="4.88267">
        <ele>285</ele>
        <time>2017-06-24T09:39:44Z</time>
      </trkpt>
      <trkpt lat="45.99385" lon="4.88272">
        <ele>284</ele>
        <time>2017-06-24T09:39:45Z</time>
      </trkpt>
      <trkpt lat="45.99388" lon="4.88277">
        <ele>284</ele>
        <time>2017-06-24T09:39:46Z</time>
      </trkpt>
      <trkpt lat="45.9939" lon="4.88283">
        <ele>284</ele>
        <time>2017-06-24T09:39:47Z</time>
      </trkpt>
      <trkpt lat="45.99393" lon="4.88289">
        <ele>284</ele>
        <time>2017-06-24T09:39:48Z</time>
      </trkpt>
      <trkpt lat="45.99396" lon="4.88296">
        <ele>284</ele>
        <time>2017-06-24T09:39:49Z</time>
      </trkpt>
      <trkpt lat="45.99398" lon="4.88302">
        <ele>284</ele>
        <time>2017-06-24T09:39:50Z</time>
      </trkpt>
      <trkpt lat="45.994" lon="4.88308">
        <ele>284</ele>
        <time>2017-06-24T09:39:51Z</time>
      </trkpt>
      <trkpt lat="45.99405" lon="4.88318">
        <ele>283</ele>
        <time>2017-06-24T09:39:53Z</time>
      </trkpt>
      <trkpt lat="45.99407" lon="4.88323">
        <ele>283</ele>
        <time>2017-06-24T09:39:54Z</time>
      </trkpt>
      <trkpt lat="45.99411" lon="4.88334">
        <ele>282</ele>
        <time>2017-06-24T09:39:56Z</time>
      </trkpt>
      <trkpt lat="45.99412" lon="4.8834">
        <ele>282</ele>
        <time>2017-06-24T09:39:57Z</time>
      </trkpt>
      <trkpt lat="45.99417" lon="4.8835">
        <ele>282</ele>
        <time>2017-06-24T09:39:59Z</time>
      </trkpt>
      <trkpt lat="45.99419" lon="4.88354">
        <ele>283</ele>
        <time>2017-06-24T09:40:00Z</time>
      </trkpt>
      <trkpt lat="45.99423" lon="4.88364">
        <ele>283</ele>
        <time>2017-06-24T09:40:02Z</time>
      </trkpt>
      <trkpt lat="45.99425" lon="4.88369">
        <ele>283</ele>
        <time>2017-06-24T09:40:03Z</time>
      </trkpt>
      <trkpt lat="45.99429" lon="4.88379">
        <ele>283</ele>
        <time>2017-06-24T09:40:05Z</time>
      </trkpt>
      <trkpt lat="45.99432" lon="4.88384">
        <ele>283</ele>
        <time>2017-06-24T09:40:06Z</time>
      </trkpt>
      <trkpt lat="45.99436" lon="4.88394">
        <ele>283</ele>
        <time>2017-06-24T09:40:08Z</time>
      </trkpt>
      <trkpt lat="45.99438" lon="4.88398">
        <ele>283</ele>
        <time>2017-06-24T09:40:09Z</time>
      </trkpt>
      <trkpt lat="45.99444" lon="4.88406">
        <ele>283</ele>
        <time>2017-06-24T09:40:11Z</time>
      </trkpt>
      <trkpt lat="45.99447" lon="4.8841">
        <ele>283</ele>
        <time>2017-06-24T09:40:12Z</time>
      </trkpt>
      <trkpt lat="45.99454" lon="4.88417">
        <ele>283</ele>
        <time>2017-06-24T09:40:14Z</time>
      </trkpt>
      <trkpt lat="45.99458" lon="4.88419">
        <ele>283</ele>
        <time>2017-06-24T09:40:15Z</time>
      </trkpt>
      <trkpt lat="45.99465" lon="4.88426">
        <ele>284</ele>
        <time>2017-06-24T09:40:17Z</time>
      </trkpt>
      <trkpt lat="45.99469" lon="4.88429">
        <ele>284</ele>
        <time>2017-06-24T09:40:18Z</time>
      </trkpt>
      <trkpt lat="45.99472" lon="4.88433">
        <ele>284</ele>
        <time>2017-06-24T09:40:19Z</time>
      </trkpt>
      <trkpt lat="45.99476" lon="4.88437">
        <ele>284</ele>
        <time>2017-06-24T09:40:20Z</time>
      </trkpt>
      <trkpt lat="45.99479" lon="4.88442">
        <ele>284</ele>
        <time>2017-06-24T09:40:21Z</time>
      </trkpt>
      <trkpt lat="45.99482" lon="4.88447">
        <ele>284</ele>
        <time>2017-06-24T09:40:22Z</time>
      </trkpt>
      <trkpt lat="45.99485" lon="4.88452">
        <ele>284</ele>
        <time>2017-06-24T09:40:23Z</time>
      </trkpt>
      <trkpt lat="45.99489" lon="4.88457">
        <ele>284</ele>
        <time>2017-06-24T09:40:24Z</time>
      </trkpt>
      <trkpt lat="45.99492" lon="4.88463">
        <ele>284</ele>
        <time>2017-06-24T09:40:25Z</time>
      </trkpt>
      <trkpt lat="45.99495" lon="4.88468">
        <ele>284</ele>
        <time>2017-06-24T09:40:26Z</time>
      </trkpt>
      <trkpt lat="45.99497" lon="4.88474">
        <ele>284</ele>
        <time>2017-06-24T09:40:27Z</time>
      </trkpt>
      <trkpt lat="45.995" lon="4.88479">
        <ele>284</ele>
        <time>2017-06-24T09:40:28Z</time>
      </trkpt>
      <trkpt lat="45.99506" lon="4.88489">
        <ele>284</ele>
        <time>2017-06-24T09:40:30Z</time>
      </trkpt>
      <trkpt lat="45.99508" lon="4.88494">
        <ele>284</ele>
        <time>2017-06-24T09:40:31Z</time>
      </trkpt>
      <trkpt lat="45.99512" lon="4.88503">
        <ele>284</ele>
        <time>2017-06-24T09:40:33Z</time>
      </trkpt>
      <trkpt lat="45.99514" lon="4.88507">
        <ele>285</ele>
        <time>2017-06-24T09:40:34Z</time>
      </trkpt>
      <trkpt lat="45.99519" lon="4.88516">
        <ele>285</ele>
        <time>2017-06-24T09:40:36Z</time>
      </trkpt>
      <trkpt lat="45.99521" lon="4.88521">
        <ele>285</ele>
        <time>2017-06-24T09:40:37Z</time>
      </trkpt>
      <trkpt lat="45.99526" lon="4.8853">
        <ele>285</ele>
        <time>2017-06-24T09:40:39Z</time>
      </trkpt>
      <trkpt lat="45.99529" lon="4.88536">
        <ele>285</ele>
        <time>2017-06-24T09:40:40Z</time>
      </trkpt>
      <trkpt lat="45.99534" lon="4.88546">
        <ele>285</ele>
        <time>2017-06-24T09:40:42Z</time>
      </trkpt>
      <trkpt lat="45.99535" lon="4.88551">
        <ele>285</ele>
        <time>2017-06-24T09:40:43Z</time>
      </trkpt>
      <trkpt lat="45.99539" lon="4.88561">
        <ele>285</ele>
        <time>2017-06-24T09:40:45Z</time>
      </trkpt>
      <trkpt lat="45.99541" lon="4.88566">
        <ele>285</ele>
        <time>2017-06-24T09:40:46Z</time>
      </trkpt>
      <trkpt lat="45.99543" lon="4.88572">
        <ele>286</ele>
        <time>2017-06-24T09:40:47Z</time>
      </trkpt>
      <trkpt lat="45.99545" lon="4.88578">
        <ele>286</ele>
        <time>2017-06-24T09:40:48Z</time>
      </trkpt>
      <trkpt lat="45.99547" lon="4.88586">
        <ele>286</ele>
        <time>2017-06-24T09:40:49Z</time>
      </trkpt>
      <trkpt lat="45.99548" lon="4.88593">
        <ele>286</ele>
        <time>2017-06-24T09:40:50Z</time>
      </trkpt>
      <trkpt lat="45.99549" lon="4.886">
        <ele>286</ele>
        <time>2017-06-24T09:40:51Z</time>
      </trkpt>
      <trkpt lat="45.9955" lon="4.88606">
        <ele>286</ele>
        <time>2017-06-24T09:40:52Z</time>
      </trkpt>
      <trkpt lat="45.9955" lon="4.88618">
        <ele>286</ele>
        <time>2017-06-24T09:40:54Z</time>
      </trkpt>
      <trkpt lat="45.99551" lon="4.88624">
        <ele>286</ele>
        <time>2017-06-24T09:40:55Z</time>
      </trkpt>
      <trkpt lat="45.99551" lon="4.88636">
        <ele>286</ele>
        <time>2017-06-24T09:40:57Z</time>
      </trkpt>
      <trkpt lat="45.99552" lon="4.88642">
        <ele>286</ele>
        <time>2017-06-24T09:40:58Z</time>
      </trkpt>
      <trkpt lat="45.99552" lon="4.88648">
        <ele>286</ele>
        <time>2017-06-24T09:40:59Z</time>
      </trkpt>
      <trkpt lat="45.99553" lon="4.88655">
        <ele>286</ele>
        <time>2017-06-24T09:41:00Z</time>
      </trkpt>
      <trkpt lat="45.99554" lon="4.88667">
        <ele>286</ele>
        <time>2017-06-24T09:41:02Z</time>
      </trkpt>
      <trkpt lat="45.99554" lon="4.88672">
        <ele>286</ele>
        <time>2017-06-24T09:41:03Z</time>
      </trkpt>
      <trkpt lat="45.99555" lon="4.88682">
        <ele>286</ele>
        <time>2017-06-24T09:41:05Z</time>
      </trkpt>
      <trkpt lat="45.99556" lon="4.88688">
        <ele>286</ele>
        <time>2017-06-24T09:41:06Z</time>
      </trkpt>
      <trkpt lat="45.99557" lon="4.88699">
        <ele>286</ele>
        <time>2017-06-24T09:41:08Z</time>
      </trkpt>
      <trkpt lat="45.99558" lon="4.88705">
        <ele>286</ele>
        <time>2017-06-24T09:41:09Z</time>
      </trkpt>
      <trkpt lat="45.99559" lon="4.88716">
        <ele>286</ele>
        <time>2017-06-24T09:41:11Z</time>
      </trkpt>
      <trkpt lat="45.9956" lon="4.88722">
        <ele>286</ele>
        <time>2017-06-24T09:41:12Z</time>
      </trkpt>
      <trkpt lat="45.99561" lon="4.88733">
        <ele>287</ele>
        <time>2017-06-24T09:41:14Z</time>
      </trkpt>
      <trkpt lat="45.99562" lon="4.88739">
        <ele>287</ele>
        <time>2017-06-24T09:41:15Z</time>
      </trkpt>
      <trkpt lat="45.99563" lon="4.88745">
        <ele>287</ele>
        <time>2017-06-24T09:41:16Z</time>
      </trkpt>
      <trkpt lat="45.99563" lon="4.88752">
        <ele>287</ele>
        <time>2017-06-24T09:41:17Z</time>
      </trkpt>
      <trkpt lat="45.99564" lon="4.8876">
        <ele>287</ele>
        <time>2017-06-24T09:41:18Z</time>
      </trkpt>
      <trkpt lat="45.99565" lon="4.88767">
        <ele>287</ele>
        <time>2017-06-24T09:41:19Z</time>
      </trkpt>
      <trkpt lat="45.99566" lon="4.88774">
        <ele>287</ele>
        <time>2017-06-24T09:41:20Z</time>
      </trkpt>
      <trkpt lat="45.99566" lon="4.88782">
        <ele>287</ele>
        <time>2017-06-24T09:41:21Z</time>
      </trkpt>
      <trkpt lat="45.99568" lon="4.88789">
        <ele>287</ele>
        <time>2017-06-24T09:41:22Z</time>
      </trkpt>
      <trkpt lat="45.99568" lon="4.88798">
        <ele>287</ele>
        <time>2017-06-24T09:41:23Z</time>
      </trkpt>
      <trkpt lat="45.99569" lon="4.88806">
        <ele>287</ele>
        <time>2017-06-24T09:41:24Z</time>
      </trkpt>
      <trkpt lat="45.9957" lon="4.88814">
        <ele>287</ele>
        <time>2017-06-24T09:41:25Z</time>
      </trkpt>
      <trkpt lat="45.99571" lon="4.88821">
        <ele>287</ele>
        <time>2017-06-24T09:41:26Z</time>
      </trkpt>
      <trkpt lat="45.99571" lon="4.88829">
        <ele>287</ele>
        <time>2017-06-24T09:41:27Z</time>
      </trkpt>
      <trkpt lat="45.99572" lon="4.88836">
        <ele>287</ele>
        <time>2017-06-24T09:41:28Z</time>
      </trkpt>
      <trkpt lat="45.99572" lon="4.88843">
        <ele>287</ele>
        <time>2017-06-24T09:41:29Z</time>
      </trkpt>
      <trkpt lat="45.99573" lon="4.8885">
        <ele>287</ele>
        <time>2017-06-24T09:41:30Z</time>
      </trkpt>
      <trkpt lat="45.99574" lon="4.88857">
        <ele>287</ele>
        <time>2017-06-24T09:41:31Z</time>
      </trkpt>
      <trkpt lat="45.99574" lon="4.88864">
        <ele>287</ele>
        <time>2017-06-24T09:41:32Z</time>
      </trkpt>
      <trkpt lat="45.99575" lon="4.8887">
        <ele>287</ele>
        <time>2017-06-24T09:41:33Z</time>
      </trkpt>
      <trkpt lat="45.99575" lon="4.88876">
        <ele>287</ele>
        <time>2017-06-24T09:41:34Z</time>
      </trkpt>
      <trkpt lat="45.99576" lon="4.88883">
        <ele>287</ele>
        <time>2017-06-24T09:41:35Z</time>
      </trkpt>
      <trkpt lat="45.99577" lon="4.8889">
        <ele>287</ele>
        <time>2017-06-24T09:41:36Z</time>
      </trkpt>
      <trkpt lat="45.99578" lon="4.88897">
        <ele>287</ele>
        <time>2017-06-24T09:41:37Z</time>
      </trkpt>
      <trkpt lat="45.99578" lon="4.88905">
        <ele>287</ele>
        <time>2017-06-24T09:41:38Z</time>
      </trkpt>
      <trkpt lat="45.99579" lon="4.88913">
        <ele>287</ele>
        <time>2017-06-24T09:41:39Z</time>
      </trkpt>
      <trkpt lat="45.9958" lon="4.88921">
        <ele>287</ele>
        <time>2017-06-24T09:41:40Z</time>
      </trkpt>
      <trkpt lat="45.9958" lon="4.88929">
        <ele>287</ele>
        <time>2017-06-24T09:41:41Z</time>
      </trkpt>
      <trkpt lat="45.99581" lon="4.88936">
        <ele>287</ele>
        <time>2017-06-24T09:41:42Z</time>
      </trkpt>
      <trkpt lat="45.99581" lon="4.88943">
        <ele>287</ele>
        <time>2017-06-24T09:41:43Z</time>
      </trkpt>
      <trkpt lat="45.99582" lon="4.8895">
        <ele>287</ele>
        <time>2017-06-24T09:41:44Z</time>
      </trkpt>
      <trkpt lat="45.99582" lon="4.88956">
        <ele>287</ele>
        <time>2017-06-24T09:41:45Z</time>
      </trkpt>
      <trkpt lat="45.99583" lon="4.88968">
        <ele>287</ele>
        <time>2017-06-24T09:41:47Z</time>
      </trkpt>
      <trkpt lat="45.99583" lon="4.88974">
        <ele>287</ele>
        <time>2017-06-24T09:41:48Z</time>
      </trkpt>
      <trkpt lat="45.99584" lon="4.88981">
        <ele>288</ele>
        <time>2017-06-24T09:41:49Z</time>
      </trkpt>
      <trkpt lat="45.99584" lon="4.88988">
        <ele>288</ele>
        <time>2017-06-24T09:41:50Z</time>
      </trkpt>
      <trkpt lat="45.99584" lon="4.89">
        <ele>288</ele>
        <time>2017-06-24T09:41:52Z</time>
      </trkpt>
      <trkpt lat="45.99584" lon="4.89006">
        <ele>288</ele>
        <time>2017-06-24T09:41:53Z</time>
      </trkpt>
      <trkpt lat="45.99584" lon="4.89018">
        <ele>288</ele>
        <time>2017-06-24T09:41:55Z</time>
      </trkpt>
      <trkpt lat="45.99583" lon="4.89024">
        <ele>288</ele>
        <time>2017-06-24T09:41:56Z</time>
      </trkpt>
      <trkpt lat="45.99583" lon="4.89031">
        <ele>288</ele>
        <time>2017-06-24T09:41:57Z</time>
      </trkpt>
      <trkpt lat="45.99582" lon="4.89037">
        <ele>288</ele>
        <time>2017-06-24T09:41:58Z</time>
      </trkpt>
      <trkpt lat="45.99581" lon="4.89049">
        <ele>288</ele>
        <time>2017-06-24T09:42:00Z</time>
      </trkpt>
      <trkpt lat="45.9958" lon="4.89055">
        <ele>288</ele>
        <time>2017-06-24T09:42:01Z</time>
      </trkpt>
      <trkpt lat="45.99579" lon="4.89067">
        <ele>289</ele>
        <time>2017-06-24T09:42:03Z</time>
      </trkpt>
      <trkpt lat="45.99578" lon="4.89073">
        <ele>289</ele>
        <time>2017-06-24T09:42:04Z</time>
      </trkpt>
      <trkpt lat="45.99577" lon="4.89085">
        <ele>289</ele>
        <time>2017-06-24T09:42:06Z</time>
      </trkpt>
      <trkpt lat="45.99577" lon="4.8909">
        <ele>289</ele>
        <time>2017-06-24T09:42:07Z</time>
      </trkpt>
      <trkpt lat="45.99576" lon="4.89102">
        <ele>289</ele>
        <time>2017-06-24T09:42:09Z</time>
      </trkpt>
      <trkpt lat="45.99576" lon="4.89108">
        <ele>289</ele>
        <time>2017-06-24T09:42:10Z</time>
      </trkpt>
      <trkpt lat="45.99576" lon="4.89121">
        <ele>289</ele>
        <time>2017-06-24T09:42:12Z</time>
      </trkpt>
      <trkpt lat="45.99576" lon="4.89128">
        <ele>289</ele>
        <time>2017-06-24T09:42:13Z</time>
      </trkpt>
      <trkpt lat="45.99576" lon="4.89135">
        <ele>289</ele>
        <time>2017-06-24T09:42:14Z</time>
      </trkpt>
      <trkpt lat="45.99576" lon="4.89141">
        <ele>289</ele>
        <time>2017-06-24T09:42:15Z</time>
      </trkpt>
      <trkpt lat="45.99577" lon="4.89149">
        <ele>289</ele>
        <time>2017-06-24T09:42:16Z</time>
      </trkpt>
      <trkpt lat="45.99576" lon="4.89155">
        <ele>288</ele>
        <time>2017-06-24T09:42:17Z</time>
      </trkpt>
      <trkpt lat="45.99577" lon="4.89168">
        <ele>288</ele>
        <time>2017-06-24T09:42:19Z</time>
      </trkpt>
      <trkpt lat="45.99577" lon="4.89174">
        <ele>288</ele>
        <time>2017-06-24T09:42:20Z</time>
      </trkpt>
      <trkpt lat="45.99578" lon="4.89186">
        <ele>288</ele>
        <time>2017-06-24T09:42:22Z</time>
      </trkpt>
      <trkpt lat="45.99579" lon="4.89191">
        <ele>288</ele>
        <time>2017-06-24T09:42:23Z</time>
      </trkpt>
      <trkpt lat="45.99579" lon="4.89198">
        <ele>288</ele>
        <time>2017-06-24T09:42:24Z</time>
      </trkpt>
      <trkpt lat="45.99579" lon="4.89205">
        <ele>288</ele>
        <time>2017-06-24T09:42:25Z</time>
      </trkpt>
      <trkpt lat="45.9958" lon="4.89213">
        <ele>288</ele>
        <time>2017-06-24T09:42:26Z</time>
      </trkpt>
      <trkpt lat="45.9958" lon="4.89221">
        <ele>288</ele>
        <time>2017-06-24T09:42:27Z</time>
      </trkpt>
      <trkpt lat="45.99581" lon="4.89229">
        <ele>288</ele>
        <time>2017-06-24T09:42:28Z</time>
      </trkpt>
      <trkpt lat="45.99581" lon="4.89236">
        <ele>288</ele>
        <time>2017-06-24T09:42:29Z</time>
      </trkpt>
      <trkpt lat="45.99581" lon="4.89243">
        <ele>288</ele>
        <time>2017-06-24T09:42:30Z</time>
      </trkpt>
      <trkpt lat="45.99582" lon="4.8925">
        <ele>288</ele>
        <time>2017-06-24T09:42:31Z</time>
      </trkpt>
      <trkpt lat="45.99582" lon="4.89257">
        <ele>288</ele>
        <time>2017-06-24T09:42:32Z</time>
      </trkpt>
      <trkpt lat="45.99582" lon="4.89264">
        <ele>288</ele>
        <time>2017-06-24T09:42:33Z</time>
      </trkpt>
      <trkpt lat="45.99583" lon="4.8927">
        <ele>288</ele>
        <time>2017-06-24T09:42:34Z</time>
      </trkpt>
      <trkpt lat="45.99583" lon="4.89277">
        <ele>288</ele>
        <time>2017-06-24T09:42:35Z</time>
      </trkpt>
      <trkpt lat="45.99584" lon="4.89284">
        <ele>289</ele>
        <time>2017-06-24T09:42:36Z</time>
      </trkpt>
      <trkpt lat="45.99584" lon="4.89292">
        <ele>289</ele>
        <time>2017-06-24T09:42:37Z</time>
      </trkpt>
      <trkpt lat="45.99584" lon="4.89299">
        <ele>289</ele>
        <time>2017-06-24T09:42:38Z</time>
      </trkpt>
      <trkpt lat="45.99584" lon="4.89305">
        <ele>289</ele>
        <time>2017-06-24T09:42:39Z</time>
      </trkpt>
      <trkpt lat="45.99585" lon="4.89318">
        <ele>289</ele>
        <time>2017-06-24T09:42:41Z</time>
      </trkpt>
      <trkpt lat="45.99586" lon="4.89324">
        <ele>289</ele>
        <time>2017-06-24T09:42:42Z</time>
      </trkpt>
      <trkpt lat="45.99587" lon="4.89335">
        <ele>289</ele>
        <time>2017-06-24T09:42:44Z</time>
      </trkpt>
      <trkpt lat="45.99587" lon="4.89341">
        <ele>289</ele>
        <time>2017-06-24T09:42:45Z</time>
      </trkpt>
      <trkpt lat="45.99588" lon="4.89348">
        <ele>289</ele>
        <time>2017-06-24T09:42:46Z</time>
      </trkpt>
      <trkpt lat="45.99588" lon="4.89355">
        <ele>289</ele>
        <time>2017-06-24T09:42:47Z</time>
      </trkpt>
      <trkpt lat="45.99589" lon="4.89362">
        <ele>289</ele>
        <time>2017-06-24T09:42:48Z</time>
      </trkpt>
      <trkpt lat="45.99589" lon="4.89369">
        <ele>289</ele>
        <time>2017-06-24T09:42:49Z</time>
      </trkpt>
      <trkpt lat="45.9959" lon="4.89377">
        <ele>290</ele>
        <time>2017-06-24T09:42:50Z</time>
      </trkpt>
      <trkpt lat="45.9959" lon="4.89384">
        <ele>290</ele>
        <time>2017-06-24T09:42:51Z</time>
      </trkpt>
      <trkpt lat="45.9959" lon="4.89391">
        <ele>290</ele>
        <time>2017-06-24T09:42:52Z</time>
      </trkpt>
      <trkpt lat="45.99591" lon="4.89397">
        <ele>290</ele>
        <time>2017-06-24T09:42:53Z</time>
      </trkpt>
      <trkpt lat="45.99591" lon="4.89409">
        <ele>290</ele>
        <time>2017-06-24T09:42:55Z</time>
      </trkpt>
      <trkpt lat="45.99591" lon="4.89415">
        <ele>290</ele>
        <time>2017-06-24T09:42:56Z</time>
      </trkpt>
      <trkpt lat="45.99592" lon="4.89426">
        <ele>290</ele>
        <time>2017-06-24T09:42:58Z</time>
      </trkpt>
      <trkpt lat="45.99593" lon="4.89432">
        <ele>290</ele>
        <time>2017-06-24T09:42:59Z</time>
      </trkpt>
      <trkpt lat="45.99593" lon="4.89444">
        <ele>290</ele>
        <time>2017-06-24T09:43:01Z</time>
      </trkpt>
      <trkpt lat="45.99594" lon="4.8945">
        <ele>290</ele>
        <time>2017-06-24T09:43:02Z</time>
      </trkpt>
      <trkpt lat="45.99594" lon="4.89457">
        <ele>290</ele>
        <time>2017-06-24T09:43:03Z</time>
      </trkpt>
      <trkpt lat="45.99595" lon="4.89463">
        <ele>290</ele>
        <time>2017-06-24T09:43:04Z</time>
      </trkpt>
      <trkpt lat="45.99595" lon="4.89476">
        <ele>290</ele>
        <time>2017-06-24T09:43:06Z</time>
      </trkpt>
      <trkpt lat="45.99595" lon="4.89482">
        <ele>290</ele>
        <time>2017-06-24T09:43:07Z</time>
      </trkpt>
      <trkpt lat="45.99596" lon="4.89493">
        <ele>290</ele>
        <time>2017-06-24T09:43:09Z</time>
      </trkpt>
      <trkpt lat="45.99596" lon="4.895">
        <ele>290</ele>
        <time>2017-06-24T09:43:10Z</time>
      </trkpt>
      <trkpt lat="45.99596" lon="4.89506">
        <ele>290</ele>
        <time>2017-06-24T09:43:11Z</time>
      </trkpt>
      <trkpt lat="45.99597" lon="4.89513">
        <ele>290</ele>
        <time>2017-06-24T09:43:12Z</time>
      </trkpt>
      <trkpt lat="45.99597" lon="4.8952">
        <ele>291</ele>
        <time>2017-06-24T09:43:13Z</time>
      </trkpt>
      <trkpt lat="45.99598" lon="4.89527">
        <ele>291</ele>
        <time>2017-06-24T09:43:14Z</time>
      </trkpt>
      <trkpt lat="45.99598" lon="4.89534">
        <ele>291</ele>
        <time>2017-06-24T09:43:15Z</time>
      </trkpt>
      <trkpt lat="45.99599" lon="4.89541">
        <ele>291</ele>
        <time>2017-06-24T09:43:16Z</time>
      </trkpt>
      <trkpt lat="45.996" lon="4.89554">
        <ele>291</ele>
        <time>2017-06-24T09:43:18Z</time>
      </trkpt>
      <trkpt lat="45.996" lon="4.89559">
        <ele>291</ele>
        <time>2017-06-24T09:43:19Z</time>
      </trkpt>
      <trkpt lat="45.99601" lon="4.8957">
        <ele>291</ele>
        <time>2017-06-24T09:43:21Z</time>
      </trkpt>
      <trkpt lat="45.99601" lon="4.89576">
        <ele>291</ele>
        <time>2017-06-24T09:43:22Z</time>
      </trkpt>
      <trkpt lat="45.99602" lon="4.89587">
        <ele>292</ele>
        <time>2017-06-24T09:43:24Z</time>
      </trkpt>
      <trkpt lat="45.99603" lon="4.89593">
        <ele>292</ele>
        <time>2017-06-24T09:43:25Z</time>
      </trkpt>
      <trkpt lat="45.99603" lon="4.89606">
        <ele>292</ele>
        <time>2017-06-24T09:43:27Z</time>
      </trkpt>
      <trkpt lat="45.99602" lon="4.89612">
        <ele>291</ele>
        <time>2017-06-24T09:43:28Z</time>
      </trkpt>
      <trkpt lat="45.99602" lon="4.89619">
        <ele>291</ele>
        <time>2017-06-24T09:43:29Z</time>
      </trkpt>
      <trkpt lat="45.99602" lon="4.89627">
        <ele>291</ele>
        <time>2017-06-24T09:43:30Z</time>
      </trkpt>
      <trkpt lat="45.99602" lon="4.89634">
        <ele>291</ele>
        <time>2017-06-24T09:43:31Z</time>
      </trkpt>
      <trkpt lat="45.99602" lon="4.89641">
        <ele>291</ele>
        <time>2017-06-24T09:43:32Z</time>
      </trkpt>
      <trkpt lat="45.99602" lon="4.89649">
        <ele>291</ele>
        <time>2017-06-24T09:43:33Z</time>
      </trkpt>
      <trkpt lat="45.99602" lon="4.89657">
        <ele>292</ele>
        <time>2017-06-24T09:43:34Z</time>
      </trkpt>
      <trkpt lat="45.99602" lon="4.89664">
        <ele>292</ele>
        <time>2017-06-24T09:43:35Z</time>
      </trkpt>
      <trkpt lat="45.99601" lon="4.8967">
        <ele>292</ele>
        <time>2017-06-24T09:43:36Z</time>
      </trkpt>
      <trkpt lat="45.99601" lon="4.89677">
        <ele>292</ele>
        <time>2017-06-24T09:43:37Z</time>
      </trkpt>
      <trkpt lat="45.99601" lon="4.89684">
        <ele>292</ele>
        <time>2017-06-24T09:43:38Z</time>
      </trkpt>
      <trkpt lat="45.99601" lon="4.89691">
        <ele>292</ele>
        <time>2017-06-24T09:43:39Z</time>
      </trkpt>
      <trkpt lat="45.99602" lon="4.89698">
        <ele>292</ele>
        <time>2017-06-24T09:43:40Z</time>
      </trkpt>
      <trkpt lat="45.99602" lon="4.89706">
        <ele>292</ele>
        <time>2017-06-24T09:43:41Z</time>
      </trkpt>
      <trkpt lat="45.99601" lon="4.89713">
        <ele>292</ele>
        <time>2017-06-24T09:43:42Z</time>
      </trkpt>
      <trkpt lat="45.99601" lon="4.89721">
        <ele>292</ele>
        <time>2017-06-24T09:43:43Z</time>
      </trkpt>
      <trkpt lat="45.99601" lon="4.89729">
        <ele>292</ele>
        <time>2017-06-24T09:43:44Z</time>
      </trkpt>
      <trkpt lat="45.99601" lon="4.89736">
        <ele>292</ele>
        <time>2017-06-24T09:43:45Z</time>
      </trkpt>
      <trkpt lat="45.99601" lon="4.89742">
        <ele>292</ele>
        <time>2017-06-24T09:43:46Z</time>
      </trkpt>
      <trkpt lat="45.99601" lon="4.89749">
        <ele>292</ele>
        <time>2017-06-24T09:43:47Z</time>
      </trkpt>
      <trkpt lat="45.99601" lon="4.89756">
        <ele>292</ele>
        <time>2017-06-24T09:43:48Z</time>
      </trkpt>
      <trkpt lat="45.99601" lon="4.89768">
        <ele>292</ele>
        <time>2017-06-24T09:43:50Z</time>
      </trkpt>
      <trkpt lat="45.99601" lon="4.89773">
        <ele>292</ele>
        <time>2017-06-24T09:43:51Z</time>
      </trkpt>
      <trkpt lat="45.996" lon="4.89785">
        <ele>292</ele>
        <time>2017-06-24T09:43:53Z</time>
      </trkpt>
      <trkpt lat="45.996" lon="4.89792">
        <ele>292</ele>
        <time>2017-06-24T09:43:54Z</time>
      </trkpt>
      <trkpt lat="45.996" lon="4.89804">
        <ele>292</ele>
        <time>2017-06-24T09:43:56Z</time>
      </trkpt>
      <trkpt lat="45.996" lon="4.89809">
        <ele>292</ele>
        <time>2017-06-24T09:43:57Z</time>
      </trkpt>
      <trkpt lat="45.996" lon="4.8982">
        <ele>292</ele>
        <time>2017-06-24T09:43:59Z</time>
      </trkpt>
      <trkpt lat="45.996" lon="4.89825">
        <ele>293</ele>
        <time>2017-06-24T09:44:00Z</time>
      </trkpt>
      <trkpt lat="45.996" lon="4.89836">
        <ele>293</ele>
        <time>2017-06-24T09:44:02Z</time>
      </trkpt>
      <trkpt lat="45.996" lon="4.89842">
        <ele>293</ele>
        <time>2017-06-24T09:44:03Z</time>
      </trkpt>
      <trkpt lat="45.996" lon="4.89849">
        <ele>293</ele>
        <time>2017-06-24T09:44:04Z</time>
      </trkpt>
      <trkpt lat="45.99599" lon="4.89858">
        <ele>293</ele>
        <time>2017-06-24T09:44:05Z</time>
      </trkpt>
      <trkpt lat="45.99599" lon="4.89866">
        <ele>293</ele>
        <time>2017-06-24T09:44:06Z</time>
      </trkpt>
      <trkpt lat="45.99599" lon="4.89873">
        <ele>293</ele>
        <time>2017-06-24T09:44:07Z</time>
      </trkpt>
      <trkpt lat="45.99599" lon="4.89885">
        <ele>292</ele>
        <time>2017-06-24T09:44:09Z</time>
      </trkpt>
      <trkpt lat="45.99599" lon="4.89891">
        <ele>292</ele>
        <time>2017-06-24T09:44:10Z</time>
      </trkpt>
      <trkpt lat="45.99599" lon="4.89902">
        <ele>292</ele>
        <time>2017-06-24T09:44:12Z</time>
      </trkpt>
      <trkpt lat="45.99599" lon="4.89908">
        <ele>292</ele>
        <time>2017-06-24T09:44:13Z</time>
      </trkpt>
      <trkpt lat="45.99599" lon="4.8992">
        <ele>293</ele>
        <time>2017-06-24T09:44:15Z</time>
      </trkpt>
      <trkpt lat="45.99599" lon="4.89927">
        <ele>293</ele>
        <time>2017-06-24T09:44:16Z</time>
      </trkpt>
      <trkpt lat="45.996" lon="4.8994">
        <ele>293</ele>
        <time>2017-06-24T09:44:18Z</time>
      </trkpt>
      <trkpt lat="45.996" lon="4.89946">
        <ele>294</ele>
        <time>2017-06-24T09:44:19Z</time>
      </trkpt>
      <trkpt lat="45.99601" lon="4.89953">
        <ele>294</ele>
        <time>2017-06-24T09:44:20Z</time>
      </trkpt>
      <trkpt lat="45.99602" lon="4.8996">
        <ele>294</ele>
        <time>2017-06-24T09:44:21Z</time>
      </trkpt>
      <trkpt lat="45.99602" lon="4.89972">
        <ele>294</ele>
        <time>2017-06-24T09:44:23Z</time>
      </trkpt>
      <trkpt lat="45.99603" lon="4.89978">
        <ele>294</ele>
        <time>2017-06-24T09:44:24Z</time>
      </trkpt>
      <trkpt lat="45.99603" lon="4.89985">
        <ele>294</ele>
        <time>2017-06-24T09:44:25Z</time>
      </trkpt>
      <trkpt lat="45.99604" lon="4.89991">
        <ele>294</ele>
        <time>2017-06-24T09:44:26Z</time>
      </trkpt>
      <trkpt lat="45.99606" lon="4.90003">
        <ele>296</ele>
        <time>2017-06-24T09:44:28Z</time>
      </trkpt>
      <trkpt lat="45.99607" lon="4.90008">
        <ele>296</ele>
        <time>2017-06-24T09:44:29Z</time>
      </trkpt>
      <trkpt lat="45.9961" lon="4.90018">
        <ele>296</ele>
        <time>2017-06-24T09:44:31Z</time>
      </trkpt>
      <trkpt lat="45.99611" lon="4.90023">
        <ele>296</ele>
        <time>2017-06-24T09:44:32Z</time>
      </trkpt>
      <trkpt lat="45.99615" lon="4.90033">
        <ele>296</ele>
        <time>2017-06-24T09:44:34Z</time>
      </trkpt>
      <trkpt lat="45.99617" lon="4.90038">
        <ele>296</ele>
        <time>2017-06-24T09:44:35Z</time>
      </trkpt>
      <trkpt lat="45.99622" lon="4.90049">
        <ele>297</ele>
        <time>2017-06-24T09:44:37Z</time>
      </trkpt>
      <trkpt lat="45.99624" lon="4.90054">
        <ele>297</ele>
        <time>2017-06-24T09:44:38Z</time>
      </trkpt>
      <trkpt lat="45.99628" lon="4.90063">
        <ele>297</ele>
        <time>2017-06-24T09:44:40Z</time>
      </trkpt>
      <trkpt lat="45.9963" lon="4.90067">
        <ele>297</ele>
        <time>2017-06-24T09:44:41Z</time>
      </trkpt>
      <trkpt lat="45.99634" lon="4.90076">
        <ele>297</ele>
        <time>2017-06-24T09:44:43Z</time>
      </trkpt>
      <trkpt lat="45.99635" lon="4.90081">
        <ele>297</ele>
        <time>2017-06-24T09:44:44Z</time>
      </trkpt>
      <trkpt lat="45.99637" lon="4.90092">
        <ele>299</ele>
        <time>2017-06-24T09:44:46Z</time>
      </trkpt>
      <trkpt lat="45.99638" lon="4.90097">
        <ele>299</ele>
        <time>2017-06-24T09:44:47Z</time>
      </trkpt>
      <trkpt lat="45.99641" lon="4.90107">
        <ele>299</ele>
        <time>2017-06-24T09:44:49Z</time>
      </trkpt>
      <trkpt lat="45.99642" lon="4.90111">
        <ele>299</ele>
        <time>2017-06-24T09:44:50Z</time>
      </trkpt>
      <trkpt lat="45.99645" lon="4.90121">
        <ele>299</ele>
        <time>2017-06-24T09:44:52Z</time>
      </trkpt>
      <trkpt lat="45.99647" lon="4.90126">
        <ele>299</ele>
        <time>2017-06-24T09:44:53Z</time>
      </trkpt>
      <trkpt lat="45.99651" lon="4.90136">
        <ele>299</ele>
        <time>2017-06-24T09:44:55Z</time>
      </trkpt>
      <trkpt lat="45.99653" lon="4.90141">
        <ele>300</ele>
        <time>2017-06-24T09:44:56Z</time>
      </trkpt>
      <trkpt lat="45.99655" lon="4.90151">
        <ele>300</ele>
        <time>2017-06-24T09:44:58Z</time>
      </trkpt>
      <trkpt lat="45.99656" lon="4.90157">
        <ele>300</ele>
        <time>2017-06-24T09:44:59Z</time>
      </trkpt>
      <trkpt lat="45.99659" lon="4.90169">
        <ele>301</ele>
        <time>2017-06-24T09:45:01Z</time>
      </trkpt>
      <trkpt lat="45.99661" lon="4.90174">
        <ele>301</ele>
        <time>2017-06-24T09:45:02Z</time>
      </trkpt>
      <trkpt lat="45.99664" lon="4.90186">
        <ele>301</ele>
        <time>2017-06-24T09:45:04Z</time>
      </trkpt>
      <trkpt lat="45.99666" lon="4.90191">
        <ele>301</ele>
        <time>2017-06-24T09:45:05Z</time>
      </trkpt>
      <trkpt lat="45.99668" lon="4.90198">
        <ele>303</ele>
        <time>2017-06-24T09:45:06Z</time>
      </trkpt>
      <trkpt lat="45.99669" lon="4.90205">
        <ele>303</ele>
        <time>2017-06-24T09:45:07Z</time>
      </trkpt>
      <trkpt lat="45.99672" lon="4.90215">
        <ele>303</ele>
        <time>2017-06-24T09:45:09Z</time>
      </trkpt>
      <trkpt lat="45.99673" lon="4.9022">
        <ele>303</ele>
        <time>2017-06-24T09:45:10Z</time>
      </trkpt>
      <trkpt lat="45.99675" lon="4.90228">
        <ele>304</ele>
        <time>2017-06-24T09:45:12Z</time>
      </trkpt>
      <trkpt lat="45.99676" lon="4.90232">
        <ele>304</ele>
        <time>2017-06-24T09:45:13Z</time>
      </trkpt>
      <trkpt lat="45.99678" lon="4.90241">
        <ele>304</ele>
        <time>2017-06-24T09:45:15Z</time>
      </trkpt>
      <trkpt lat="45.99678" lon="4.90245">
        <ele>304</ele>
        <time>2017-06-24T09:45:16Z</time>
      </trkpt>
      <trkpt lat="45.99678" lon="4.90256">
        <ele>304</ele>
        <time>2017-06-24T09:45:19Z</time>
      </trkpt>
      <trkpt lat="45.99677" lon="4.90259">
        <ele>304</ele>
        <time>2017-06-24T09:45:20Z</time>
      </trkpt>
      <trkpt lat="45.99677" lon="4.9027">
        <ele>304</ele>
        <time>2017-06-24T09:45:23Z</time>
      </trkpt>
      <trkpt lat="45.99677" lon="4.90274">
        <ele>304</ele>
        <time>2017-06-24T09:45:24Z</time>
      </trkpt>
      <trkpt lat="45.99675" lon="4.90286">
        <ele>304</ele>
        <time>2017-06-24T09:45:27Z</time>
      </trkpt>
      <trkpt lat="45.99674" lon="4.90291">
        <ele>304</ele>
        <time>2017-06-24T09:45:28Z</time>
      </trkpt>
      <trkpt lat="45.99673" lon="4.90301">
        <ele>304</ele>
        <time>2017-06-24T09:45:30Z</time>
      </trkpt>
      <trkpt lat="45.99672" lon="4.90306">
        <ele>304</ele>
        <time>2017-06-24T09:45:31Z</time>
      </trkpt>
      <trkpt lat="45.99671" lon="4.90316">
        <ele>304</ele>
        <time>2017-06-24T09:45:33Z</time>
      </trkpt>
      <trkpt lat="45.99671" lon="4.9032">
        <ele>303</ele>
        <time>2017-06-24T09:45:34Z</time>
      </trkpt>
      <trkpt lat="45.99668" lon="4.90331">
        <ele>302</ele>
        <time>2017-06-24T09:45:38Z</time>
      </trkpt>
      <trkpt lat="45.99665" lon="4.90332">
        <ele>302</ele>
        <time>2017-06-24T09:45:39Z</time>
      </trkpt>
      <trkpt lat="45.99657" lon="4.90332">
        <ele>302</ele>
        <time>2017-06-24T09:45:41Z</time>
      </trkpt>
      <trkpt lat="45.99652" lon="4.90331">
        <ele>302</ele>
        <time>2017-06-24T09:45:42Z</time>
      </trkpt>
      <trkpt lat="45.99646" lon="4.9033">
        <ele>302</ele>
        <time>2017-06-24T09:45:43Z</time>
      </trkpt>
      <trkpt lat="45.99641" lon="4.90328">
        <ele>302</ele>
        <time>2017-06-24T09:45:44Z</time>
      </trkpt>
      <trkpt lat="45.99635" lon="4.90327">
        <ele>302</ele>
        <time>2017-06-24T09:45:45Z</time>
      </trkpt>
      <trkpt lat="45.9963" lon="4.90326">
        <ele>302</ele>
        <time>2017-06-24T09:45:46Z</time>
      </trkpt>
      <trkpt lat="45.99624" lon="4.90325">
        <ele>302</ele>
        <time>2017-06-24T09:45:47Z</time>
      </trkpt>
      <trkpt lat="45.9962" lon="4.90325">
        <ele>302</ele>
        <time>2017-06-24T09:45:48Z</time>
      </trkpt>
      <trkpt lat="45.99615" lon="4.90324">
        <ele>302</ele>
        <time>2017-06-24T09:45:49Z</time>
      </trkpt>
      <trkpt lat="45.9961" lon="4.90323">
        <ele>301</ele>
        <time>2017-06-24T09:45:50Z</time>
      </trkpt>
      <trkpt lat="45.99605" lon="4.90323">
        <ele>301</ele>
        <time>2017-06-24T09:45:51Z</time>
      </trkpt>
      <trkpt lat="45.996" lon="4.90323">
        <ele>301</ele>
        <time>2017-06-24T09:45:52Z</time>
      </trkpt>
      <trkpt lat="45.99595" lon="4.90322">
        <ele>301</ele>
        <time>2017-06-24T09:45:53Z</time>
      </trkpt>
      <trkpt lat="45.9959" lon="4.90321">
        <ele>301</ele>
        <time>2017-06-24T09:45:54Z</time>
      </trkpt>
      <trkpt lat="45.99584" lon="4.9032">
        <ele>301</ele>
        <time>2017-06-24T09:45:55Z</time>
      </trkpt>
      <trkpt lat="45.99578" lon="4.90319">
        <ele>301</ele>
        <time>2017-06-24T09:45:56Z</time>
      </trkpt>
      <trkpt lat="45.99572" lon="4.90318">
        <ele>301</ele>
        <time>2017-06-24T09:45:57Z</time>
      </trkpt>
      <trkpt lat="45.99566" lon="4.90317">
        <ele>301</ele>
        <time>2017-06-24T09:45:58Z</time>
      </trkpt>
      <trkpt lat="45.9956" lon="4.90317">
        <ele>301</ele>
        <time>2017-06-24T09:45:59Z</time>
      </trkpt>
      <trkpt lat="45.99554" lon="4.90316">
        <ele>300</ele>
        <time>2017-06-24T09:46:00Z</time>
      </trkpt>
      <trkpt lat="45.99548" lon="4.90316">
        <ele>300</ele>
        <time>2017-06-24T09:46:01Z</time>
      </trkpt>
      <trkpt lat="45.99542" lon="4.90316">
        <ele>300</ele>
        <time>2017-06-24T09:46:02Z</time>
      </trkpt>
      <trkpt lat="45.99536" lon="4.90316">
        <ele>300</ele>
        <time>2017-06-24T09:46:03Z</time>
      </trkpt>
      <trkpt lat="45.9953" lon="4.90315">
        <ele>300</ele>
        <time>2017-06-24T09:46:04Z</time>
      </trkpt>
      <trkpt lat="45.99524" lon="4.90315">
        <ele>300</ele>
        <time>2017-06-24T09:46:05Z</time>
      </trkpt>
      <trkpt lat="45.99518" lon="4.90314">
        <ele>300</ele>
        <time>2017-06-24T09:46:06Z</time>
      </trkpt>
      <trkpt lat="45.99512" lon="4.90314">
        <ele>301</ele>
        <time>2017-06-24T09:46:07Z</time>
      </trkpt>
      <trkpt lat="45.99505" lon="4.90313">
        <ele>301</ele>
        <time>2017-06-24T09:46:08Z</time>
      </trkpt>
      <trkpt lat="45.99498" lon="4.90311">
        <ele>300</ele>
        <time>2017-06-24T09:46:09Z</time>
      </trkpt>
      <trkpt lat="45.99491" lon="4.9031">
        <ele>300</ele>
        <time>2017-06-24T09:46:10Z</time>
      </trkpt>
      <trkpt lat="45.99485" lon="4.90309">
        <ele>300</ele>
        <time>2017-06-24T09:46:11Z</time>
      </trkpt>
      <trkpt lat="45.9948" lon="4.90308">
        <ele>300</ele>
        <time>2017-06-24T09:46:12Z</time>
      </trkpt>
      <trkpt lat="45.99474" lon="4.90308">
        <ele>300</ele>
        <time>2017-06-24T09:46:13Z</time>
      </trkpt>
      <trkpt lat="45.99467" lon="4.90308">
        <ele>300</ele>
        <time>2017-06-24T09:46:14Z</time>
      </trkpt>
      <trkpt lat="45.99461" lon="4.90309">
        <ele>300</ele>
        <time>2017-06-24T09:46:15Z</time>
      </trkpt>
      <trkpt lat="45.99455" lon="4.90308">
        <ele>300</ele>
        <time>2017-06-24T09:46:16Z</time>
      </trkpt>
      <trkpt lat="45.99449" lon="4.90308">
        <ele>300</ele>
        <time>2017-06-24T09:46:17Z</time>
      </trkpt>
      <trkpt lat="45.99445" lon="4.90306">
        <ele>300</ele>
        <time>2017-06-24T09:46:18Z</time>
      </trkpt>
      <trkpt lat="45.9944" lon="4.90305">
        <ele>300</ele>
        <time>2017-06-24T09:46:19Z</time>
      </trkpt>
      <trkpt lat="45.99435" lon="4.90303">
        <ele>300</ele>
        <time>2017-06-24T09:46:20Z</time>
      </trkpt>
      <trkpt lat="45.99429" lon="4.90302">
        <ele>300</ele>
        <time>2017-06-24T09:46:21Z</time>
      </trkpt>
      <trkpt lat="45.99424" lon="4.90301">
        <ele>300</ele>
        <time>2017-06-24T09:46:22Z</time>
      </trkpt>
      <trkpt lat="45.99418" lon="4.903">
        <ele>300</ele>
        <time>2017-06-24T09:46:23Z</time>
      </trkpt>
      <trkpt lat="45.99413" lon="4.903">
        <ele>300</ele>
        <time>2017-06-24T09:46:24Z</time>
      </trkpt>
      <trkpt lat="45.99408" lon="4.90299">
        <ele>300</ele>
        <time>2017-06-24T09:46:25Z</time>
      </trkpt>
      <trkpt lat="45.99403" lon="4.90298">
        <ele>300</ele>
        <time>2017-06-24T09:46:26Z</time>
      </trkpt>
      <trkpt lat="45.99397" lon="4.90298">
        <ele>300</ele>
        <time>2017-06-24T09:46:27Z</time>
      </trkpt>
      <trkpt lat="45.99392" lon="4.90298">
        <ele>300</ele>
        <time>2017-06-24T09:46:28Z</time>
      </trkpt>
      <trkpt lat="45.99388" lon="4.90298">
        <ele>300</ele>
        <time>2017-06-24T09:46:29Z</time>
      </trkpt>
      <trkpt lat="45.99383" lon="4.90298">
        <ele>300</ele>
        <time>2017-06-24T09:46:30Z</time>
      </trkpt>
      <trkpt lat="45.99378" lon="4.90298">
        <ele>300</ele>
        <time>2017-06-24T09:46:31Z</time>
      </trkpt>
      <trkpt lat="45.99372" lon="4.90297">
        <ele>300</ele>
        <time>2017-06-24T09:46:32Z</time>
      </trkpt>
      <trkpt lat="45.99367" lon="4.90296">
        <ele>300</ele>
        <time>2017-06-24T09:46:33Z</time>
      </trkpt>
      <trkpt lat="45.99362" lon="4.90295">
        <ele>300</ele>
        <time>2017-06-24T09:46:34Z</time>
      </trkpt>
      <trkpt lat="45.99356" lon="4.90295">
        <ele>300</ele>
        <time>2017-06-24T09:46:35Z</time>
      </trkpt>
      <trkpt lat="45.99351" lon="4.90294">
        <ele>300</ele>
        <time>2017-06-24T09:46:36Z</time>
      </trkpt>
      <trkpt lat="45.99346" lon="4.90294">
        <ele>300</ele>
        <time>2017-06-24T09:46:37Z</time>
      </trkpt>
      <trkpt lat="45.99341" lon="4.90294">
        <ele>300</ele>
        <time>2017-06-24T09:46:38Z</time>
      </trkpt>
      <trkpt lat="45.99336" lon="4.90293">
        <ele>300</ele>
        <time>2017-06-24T09:46:39Z</time>
      </trkpt>
      <trkpt lat="45.99331" lon="4.90292">
        <ele>299</ele>
        <time>2017-06-24T09:46:40Z</time>
      </trkpt>
      <trkpt lat="45.99323" lon="4.90288">
        <ele>299</ele>
        <time>2017-06-24T09:46:42Z</time>
      </trkpt>
      <trkpt lat="45.99319" lon="4.90283">
        <ele>299</ele>
        <time>2017-06-24T09:46:43Z</time>
      </trkpt>
      <trkpt lat="45.99316" lon="4.90277">
        <ele>299</ele>
        <time>2017-06-24T09:46:44Z</time>
      </trkpt>
      <trkpt lat="45.99314" lon="4.90271">
        <ele>299</ele>
        <time>2017-06-24T09:46:45Z</time>
      </trkpt>
      <trkpt lat="45.99312" lon="4.90265">
        <ele>299</ele>
        <time>2017-06-24T09:46:46Z</time>
      </trkpt>
      <trkpt lat="45.99309" lon="4.90259">
        <ele>299</ele>
        <time>2017-06-24T09:46:47Z</time>
      </trkpt>
      <trkpt lat="45.99306" lon="4.90255">
        <ele>299</ele>
        <time>2017-06-24T09:46:48Z</time>
      </trkpt>
      <trkpt lat="45.99302" lon="4.9025">
        <ele>298</ele>
        <time>2017-06-24T09:46:49Z</time>
      </trkpt>
      <trkpt lat="45.99299" lon="4.90245">
        <ele>298</ele>
        <time>2017-06-24T09:46:50Z</time>
      </trkpt>
      <trkpt lat="45.99295" lon="4.9024">
        <ele>298</ele>
        <time>2017-06-24T09:46:51Z</time>
      </trkpt>
      <trkpt lat="45.99292" lon="4.90234">
        <ele>298</ele>
        <time>2017-06-24T09:46:52Z</time>
      </trkpt>
      <trkpt lat="45.99288" lon="4.90229">
        <ele>298</ele>
        <time>2017-06-24T09:46:53Z</time>
      </trkpt>
      <trkpt lat="45.99284" lon="4.90224">
        <ele>298</ele>
        <time>2017-06-24T09:46:54Z</time>
      </trkpt>
      <trkpt lat="45.9928" lon="4.90218">
        <ele>298</ele>
        <time>2017-06-24T09:46:55Z</time>
      </trkpt>
      <trkpt lat="45.99277" lon="4.90213">
        <ele>298</ele>
        <time>2017-06-24T09:46:56Z</time>
      </trkpt>
      <trkpt lat="45.99273" lon="4.90208">
        <ele>298</ele>
        <time>2017-06-24T09:46:57Z</time>
      </trkpt>
      <trkpt lat="45.99269" lon="4.90203">
        <ele>298</ele>
        <time>2017-06-24T09:46:58Z</time>
      </trkpt>
      <trkpt lat="45.99265" lon="4.90197">
        <ele>298</ele>
        <time>2017-06-24T09:46:59Z</time>
      </trkpt>
      <trkpt lat="45.99261" lon="4.90191">
        <ele>298</ele>
        <time>2017-06-24T09:47:00Z</time>
      </trkpt>
      <trkpt lat="45.99257" lon="4.90185">
        <ele>298</ele>
        <time>2017-06-24T09:47:01Z</time>
      </trkpt>
      <trkpt lat="45.99253" lon="4.90179">
        <ele>297</ele>
        <time>2017-06-24T09:47:02Z</time>
      </trkpt>
      <trkpt lat="45.99249" lon="4.90173">
        <ele>297</ele>
        <time>2017-06-24T09:47:03Z</time>
      </trkpt>
      <trkpt lat="45.99245" lon="4.90168">
        <ele>297</ele>
        <time>2017-06-24T09:47:04Z</time>
      </trkpt>
      <trkpt lat="45.9924" lon="4.90162">
        <ele>297</ele>
        <time>2017-06-24T09:47:05Z</time>
      </trkpt>
      <trkpt lat="45.99236" lon="4.90157">
        <ele>297</ele>
        <time>2017-06-24T09:47:06Z</time>
      </trkpt>
      <trkpt lat="45.99232" lon="4.90152">
        <ele>297</ele>
        <time>2017-06-24T09:47:07Z</time>
      </trkpt>
      <trkpt lat="45.99229" lon="4.90147">
        <ele>297</ele>
        <time>2017-06-24T09:47:08Z</time>
      </trkpt>
      <trkpt lat="45.99225" lon="4.90142">
        <ele>297</ele>
        <time>2017-06-24T09:47:09Z</time>
      </trkpt>
      <trkpt lat="45.99221" lon="4.90137">
        <ele>297</ele>
        <time>2017-06-24T09:47:10Z</time>
      </trkpt>
      <trkpt lat="45.99217" lon="4.90132">
        <ele>297</ele>
        <time>2017-06-24T09:47:11Z</time>
      </trkpt>
      <trkpt lat="45.99213" lon="4.90127">
        <ele>297</ele>
        <time>2017-06-24T09:47:12Z</time>
      </trkpt>
      <trkpt lat="45.99209" lon="4.90122">
        <ele>297</ele>
        <time>2017-06-24T09:47:13Z</time>
      </trkpt>
      <trkpt lat="45.99205" lon="4.90117">
        <ele>297</ele>
        <time>2017-06-24T09:47:14Z</time>
      </trkpt>
      <trkpt lat="45.99202" lon="4.90111">
        <ele>297</ele>
        <time>2017-06-24T09:47:15Z</time>
      </trkpt>
      <trkpt lat="45.99198" lon="4.90105">
        <ele>297</ele>
        <time>2017-06-24T09:47:16Z</time>
      </trkpt>
      <trkpt lat="45.99195" lon="4.901">
        <ele>297</ele>
        <time>2017-06-24T09:47:17Z</time>
      </trkpt>
      <trkpt lat="45.99191" lon="4.90095">
        <ele>297</ele>
        <time>2017-06-24T09:47:18Z</time>
      </trkpt>
      <trkpt lat="45.99187" lon="4.9009">
        <ele>297</ele>
        <time>2017-06-24T09:47:19Z</time>
      </trkpt>
      <trkpt lat="45.99183" lon="4.90085">
        <ele>297</ele>
        <time>2017-06-24T09:47:20Z</time>
      </trkpt>
      <trkpt lat="45.99179" lon="4.90079">
        <ele>297</ele>
        <time>2017-06-24T09:47:21Z</time>
      </trkpt>
      <trkpt lat="45.99176" lon="4.90073">
        <ele>297</ele>
        <time>2017-06-24T09:47:22Z</time>
      </trkpt>
      <trkpt lat="45.99171" lon="4.90067">
        <ele>297</ele>
        <time>2017-06-24T09:47:23Z</time>
      </trkpt>
      <trkpt lat="45.99167" lon="4.90061">
        <ele>297</ele>
        <time>2017-06-24T09:47:24Z</time>
      </trkpt>
      <trkpt lat="45.99163" lon="4.90054">
        <ele>297</ele>
        <time>2017-06-24T09:47:25Z</time>
      </trkpt>
      <trkpt lat="45.99158" lon="4.90048">
        <ele>297</ele>
        <time>2017-06-24T09:47:26Z</time>
      </trkpt>
      <trkpt lat="45.99153" lon="4.90043">
        <ele>297</ele>
        <time>2017-06-24T09:47:27Z</time>
      </trkpt>
      <trkpt lat="45.99149" lon="4.90037">
        <ele>297</ele>
        <time>2017-06-24T09:47:28Z</time>
      </trkpt>
      <trkpt lat="45.99144" lon="4.90031">
        <ele>297</ele>
        <time>2017-06-24T09:47:29Z</time>
      </trkpt>
      <trkpt lat="45.9914" lon="4.90026">
        <ele>297</ele>
        <time>2017-06-24T09:47:30Z</time>
      </trkpt>
      <trkpt lat="45.99135" lon="4.90021">
        <ele>297</ele>
        <time>2017-06-24T09:47:31Z</time>
      </trkpt>
      <trkpt lat="45.99131" lon="4.90016">
        <ele>296</ele>
        <time>2017-06-24T09:47:32Z</time>
      </trkpt>
      <trkpt lat="45.99126" lon="4.9001">
        <ele>296</ele>
        <time>2017-06-24T09:47:33Z</time>
      </trkpt>
      <trkpt lat="45.99122" lon="4.90006">
        <ele>296</ele>
        <time>2017-06-24T09:47:34Z</time>
      </trkpt>
      <trkpt lat="45.99117" lon="4.9">
        <ele>296</ele>
        <time>2017-06-24T09:47:35Z</time>
      </trkpt>
      <trkpt lat="45.99113" lon="4.89995">
        <ele>295</ele>
        <time>2017-06-24T09:47:36Z</time>
      </trkpt>
      <trkpt lat="45.99109" lon="4.8999">
        <ele>295</ele>
        <time>2017-06-24T09:47:37Z</time>
      </trkpt>
      <trkpt lat="45.99105" lon="4.89984">
        <ele>295</ele>
        <time>2017-06-24T09:47:38Z</time>
      </trkpt>
      <trkpt lat="45.99101" lon="4.89979">
        <ele>295</ele>
        <time>2017-06-24T09:47:39Z</time>
      </trkpt>
      <trkpt lat="45.99097" lon="4.89973">
        <ele>295</ele>
        <time>2017-06-24T09:47:40Z</time>
      </trkpt>
      <trkpt lat="45.99094" lon="4.89968">
        <ele>295</ele>
        <time>2017-06-24T09:47:41Z</time>
      </trkpt>
      <trkpt lat="45.9909" lon="4.89963">
        <ele>295</ele>
        <time>2017-06-24T09:47:42Z</time>
      </trkpt>
      <trkpt lat="45.99086" lon="4.89958">
        <ele>295</ele>
        <time>2017-06-24T09:47:43Z</time>
      </trkpt>
      <trkpt lat="45.99081" lon="4.89952">
        <ele>294</ele>
        <time>2017-06-24T09:47:44Z</time>
      </trkpt>
      <trkpt lat="45.99078" lon="4.89947">
        <ele>294</ele>
        <time>2017-06-24T09:47:45Z</time>
      </trkpt>
      <trkpt lat="45.99074" lon="4.89942">
        <ele>294</ele>
        <time>2017-06-24T09:47:46Z</time>
      </trkpt>
      <trkpt lat="45.99071" lon="4.89937">
        <ele>294</ele>
        <time>2017-06-24T09:47:47Z</time>
      </trkpt>
      <trkpt lat="45.99068" lon="4.89932">
        <ele>294</ele>
        <time>2017-06-24T09:47:48Z</time>
      </trkpt>
      <trkpt lat="45.99064" lon="4.89926">
        <ele>294</ele>
        <time>2017-06-24T09:47:49Z</time>
      </trkpt>
      <trkpt lat="45.9906" lon="4.89921">
        <ele>294</ele>
        <time>2017-06-24T09:47:50Z</time>
      </trkpt>
      <trkpt lat="45.99056" lon="4.89916">
        <ele>293</ele>
        <time>2017-06-24T09:47:51Z</time>
      </trkpt>
      <trkpt lat="45.99053" lon="4.89912">
        <ele>293</ele>
        <time>2017-06-24T09:47:52Z</time>
      </trkpt>
      <trkpt lat="45.99049" lon="4.89907">
        <ele>293</ele>
        <time>2017-06-24T09:47:53Z</time>
      </trkpt>
      <trkpt lat="45.99045" lon="4.89902">
        <ele>293</ele>
        <time>2017-06-24T09:47:54Z</time>
      </trkpt>
      <trkpt lat="45.99042" lon="4.89896">
        <ele>293</ele>
        <time>2017-06-24T09:47:55Z</time>
      </trkpt>
      <trkpt lat="45.99037" lon="4.89891">
        <ele>293</ele>
        <time>2017-06-24T09:47:56Z</time>
      </trkpt>
      <trkpt lat="45.99033" lon="4.89885">
        <ele>293</ele>
        <time>2017-06-24T09:47:57Z</time>
      </trkpt>
      <trkpt lat="45.99029" lon="4.8988">
        <ele>293</ele>
        <time>2017-06-24T09:47:58Z</time>
      </trkpt>
      <trkpt lat="45.99025" lon="4.89875">
        <ele>293</ele>
        <time>2017-06-24T09:47:59Z</time>
      </trkpt>
      <trkpt lat="45.99022" lon="4.89869">
        <ele>293</ele>
        <time>2017-06-24T09:48:00Z</time>
      </trkpt>
      <trkpt lat="45.99018" lon="4.89864">
        <ele>293</ele>
        <time>2017-06-24T09:48:01Z</time>
      </trkpt>
      <trkpt lat="45.99014" lon="4.89859">
        <ele>293</ele>
        <time>2017-06-24T09:48:02Z</time>
      </trkpt>
      <trkpt lat="45.9901" lon="4.89854">
        <ele>293</ele>
        <time>2017-06-24T09:48:03Z</time>
      </trkpt>
      <trkpt lat="45.99005" lon="4.89848">
        <ele>293</ele>
        <time>2017-06-24T09:48:04Z</time>
      </trkpt>
      <trkpt lat="45.99001" lon="4.89842">
        <ele>293</ele>
        <time>2017-06-24T09:48:05Z</time>
      </trkpt>
      <trkpt lat="45.98996" lon="4.89836">
        <ele>293</ele>
        <time>2017-06-24T09:48:06Z</time>
      </trkpt>
      <trkpt lat="45.98991" lon="4.89831">
        <ele>293</ele>
        <time>2017-06-24T09:48:07Z</time>
      </trkpt>
      <trkpt lat="45.98987" lon="4.89826">
        <ele>293</ele>
        <time>2017-06-24T09:48:08Z</time>
      </trkpt>
      <trkpt lat="45.98982" lon="4.8982">
        <ele>293</ele>
        <time>2017-06-24T09:48:09Z</time>
      </trkpt>
      <trkpt lat="45.98978" lon="4.89815">
        <ele>293</ele>
        <time>2017-06-24T09:48:10Z</time>
      </trkpt>
      <trkpt lat="45.98974" lon="4.8981">
        <ele>293</ele>
        <time>2017-06-24T09:48:11Z</time>
      </trkpt>
      <trkpt lat="45.9897" lon="4.89805">
        <ele>293</ele>
        <time>2017-06-24T09:48:12Z</time>
      </trkpt>
      <trkpt lat="45.98966" lon="4.89801">
        <ele>293</ele>
        <time>2017-06-24T09:48:13Z</time>
      </trkpt>
      <trkpt lat="45.98962" lon="4.89797">
        <ele>293</ele>
        <time>2017-06-24T09:48:14Z</time>
      </trkpt>
      <trkpt lat="45.98958" lon="4.89792">
        <ele>293</ele>
        <time>2017-06-24T09:48:15Z</time>
      </trkpt>
      <trkpt lat="45.98953" lon="4.89788">
        <ele>293</ele>
        <time>2017-06-24T09:48:16Z</time>
      </trkpt>
      <trkpt lat="45.98947" lon="4.89783">
        <ele>293</ele>
        <time>2017-06-24T09:48:17Z</time>
      </trkpt>
      <trkpt lat="45.98942" lon="4.89779">
        <ele>293</ele>
        <time>2017-06-24T09:48:18Z</time>
      </trkpt>
      <trkpt lat="45.98936" lon="4.89775">
        <ele>293</ele>
        <time>2017-06-24T09:48:19Z</time>
      </trkpt>
      <trkpt lat="45.9893" lon="4.89771">
        <ele>293</ele>
        <time>2017-06-24T09:48:20Z</time>
      </trkpt>
      <trkpt lat="45.98924" lon="4.89767">
        <ele>293</ele>
        <time>2017-06-24T09:48:21Z</time>
      </trkpt>
      <trkpt lat="45.98919" lon="4.89763">
        <ele>293</ele>
        <time>2017-06-24T09:48:22Z</time>
      </trkpt>
      <trkpt lat="45.98913" lon="4.89759">
        <ele>293</ele>
        <time>2017-06-24T09:48:23Z</time>
      </trkpt>
      <trkpt lat="45.98908" lon="4.89756">
        <ele>293</ele>
        <time>2017-06-24T09:48:24Z</time>
      </trkpt>
      <trkpt lat="45.98903" lon="4.89752">
        <ele>293</ele>
        <time>2017-06-24T09:48:25Z</time>
      </trkpt>
      <trkpt lat="45.98898" lon="4.89749">
        <ele>293</ele>
        <time>2017-06-24T09:48:26Z</time>
      </trkpt>
      <trkpt lat="45.98894" lon="4.89746">
        <ele>293</ele>
        <time>2017-06-24T09:48:27Z</time>
      </trkpt>
      <trkpt lat="45.98889" lon="4.89742">
        <ele>293</ele>
        <time>2017-06-24T09:48:28Z</time>
      </trkpt>
      <trkpt lat="45.98884" lon="4.89739">
        <ele>293</ele>
        <time>2017-06-24T09:48:29Z</time>
      </trkpt>
      <trkpt lat="45.98879" lon="4.89736">
        <ele>293</ele>
        <time>2017-06-24T09:48:30Z</time>
      </trkpt>
      <trkpt lat="45.98874" lon="4.89732">
        <ele>293</ele>
        <time>2017-06-24T09:48:31Z</time>
      </trkpt>
      <trkpt lat="45.98869" lon="4.89728">
        <ele>293</ele>
        <time>2017-06-24T09:48:32Z</time>
      </trkpt>
      <trkpt lat="45.98864" lon="4.89725">
        <ele>293</ele>
        <time>2017-06-24T09:48:33Z</time>
      </trkpt>
      <trkpt lat="45.9886" lon="4.89721">
        <ele>293</ele>
        <time>2017-06-24T09:48:34Z</time>
      </trkpt>
      <trkpt lat="45.98855" lon="4.89717">
        <ele>293</ele>
        <time>2017-06-24T09:48:35Z</time>
      </trkpt>
      <trkpt lat="45.98849" lon="4.89713">
        <ele>293</ele>
        <time>2017-06-24T09:48:36Z</time>
      </trkpt>
      <trkpt lat="45.98845" lon="4.89709">
        <ele>293</ele>
        <time>2017-06-24T09:48:37Z</time>
      </trkpt>
      <trkpt lat="45.9884" lon="4.89704">
        <ele>292</ele>
        <time>2017-06-24T09:48:38Z</time>
      </trkpt>
      <trkpt lat="45.98835" lon="4.897">
        <ele>292</ele>
        <time>2017-06-24T09:48:39Z</time>
      </trkpt>
      <trkpt lat="45.9883" lon="4.89695">
        <ele>292</ele>
        <time>2017-06-24T09:48:40Z</time>
      </trkpt>
      <trkpt lat="45.98825" lon="4.8969">
        <ele>292</ele>
        <time>2017-06-24T09:48:41Z</time>
      </trkpt>
      <trkpt lat="45.9882" lon="4.89686">
        <ele>292</ele>
        <time>2017-06-24T09:48:42Z</time>
      </trkpt>
      <trkpt lat="45.98815" lon="4.89681">
        <ele>292</ele>
        <time>2017-06-24T09:48:43Z</time>
      </trkpt>
      <trkpt lat="45.98811" lon="4.89676">
        <ele>292</ele>
        <time>2017-06-24T09:48:44Z</time>
      </trkpt>
      <trkpt lat="45.98806" lon="4.89671">
        <ele>292</ele>
        <time>2017-06-24T09:48:45Z</time>
      </trkpt>
      <trkpt lat="45.98802" lon="4.89666">
        <ele>291</ele>
        <time>2017-06-24T09:48:46Z</time>
      </trkpt>
      <trkpt lat="45.98797" lon="4.8966">
        <ele>291</ele>
        <time>2017-06-24T09:48:47Z</time>
      </trkpt>
      <trkpt lat="45.98792" lon="4.89655">
        <ele>291</ele>
        <time>2017-06-24T09:48:48Z</time>
      </trkpt>
      <trkpt lat="45.98788" lon="4.89649">
        <ele>291</ele>
        <time>2017-06-24T09:48:49Z</time>
      </trkpt>
      <trkpt lat="45.98783" lon="4.89643">
        <ele>291</ele>
        <time>2017-06-24T09:48:50Z</time>
      </trkpt>
      <trkpt lat="45.98779" lon="4.89636">
        <ele>291</ele>
        <time>2017-06-24T09:48:51Z</time>
      </trkpt>
      <trkpt lat="45.98774" lon="4.8963">
        <ele>291</ele>
        <time>2017-06-24T09:48:52Z</time>
      </trkpt>
      <trkpt lat="45.98769" lon="4.89623">
        <ele>291</ele>
        <time>2017-06-24T09:48:53Z</time>
      </trkpt>
      <trkpt lat="45.98764" lon="4.89616">
        <ele>291</ele>
        <time>2017-06-24T09:48:54Z</time>
      </trkpt>
      <trkpt lat="45.98759" lon="4.89609">
        <ele>291</ele>
        <time>2017-06-24T09:48:55Z</time>
      </trkpt>
      <trkpt lat="45.98754" lon="4.89602">
        <ele>291</ele>
        <time>2017-06-24T09:48:56Z</time>
      </trkpt>
      <trkpt lat="45.98749" lon="4.89595">
        <ele>291</ele>
        <time>2017-06-24T09:48:57Z</time>
      </trkpt>
      <trkpt lat="45.98745" lon="4.89588">
        <ele>291</ele>
        <time>2017-06-24T09:48:58Z</time>
      </trkpt>
      <trkpt lat="45.9874" lon="4.89581">
        <ele>290</ele>
        <time>2017-06-24T09:48:59Z</time>
      </trkpt>
      <trkpt lat="45.98735" lon="4.89573">
        <ele>290</ele>
        <time>2017-06-24T09:49:00Z</time>
      </trkpt>
      <trkpt lat="45.9873" lon="4.89566">
        <ele>290</ele>
        <time>2017-06-24T09:49:01Z</time>
      </trkpt>
      <trkpt lat="45.98725" lon="4.89559">
        <ele>290</ele>
        <time>2017-06-24T09:49:02Z</time>
      </trkpt>
      <trkpt lat="45.9872" lon="4.89553">
        <ele>290</ele>
        <time>2017-06-24T09:49:03Z</time>
      </trkpt>
      <trkpt lat="45.98716" lon="4.89546">
        <ele>290</ele>
        <time>2017-06-24T09:49:04Z</time>
      </trkpt>
      <trkpt lat="45.98711" lon="4.8954">
        <ele>289</ele>
        <time>2017-06-24T09:49:05Z</time>
      </trkpt>
      <trkpt lat="45.98706" lon="4.89533">
        <ele>289</ele>
        <time>2017-06-24T09:49:06Z</time>
      </trkpt>
      <trkpt lat="45.98702" lon="4.89527">
        <ele>289</ele>
        <time>2017-06-24T09:49:07Z</time>
      </trkpt>
      <trkpt lat="45.98697" lon="4.89521">
        <ele>289</ele>
        <time>2017-06-24T09:49:08Z</time>
      </trkpt>
      <trkpt lat="45.98693" lon="4.89514">
        <ele>289</ele>
        <time>2017-06-24T09:49:09Z</time>
      </trkpt>
      <trkpt lat="45.98688" lon="4.89508">
        <ele>289</ele>
        <time>2017-06-24T09:49:10Z</time>
      </trkpt>
      <trkpt lat="45.98683" lon="4.89502">
        <ele>289</ele>
        <time>2017-06-24T09:49:11Z</time>
      </trkpt>
      <trkpt lat="45.98679" lon="4.89495">
        <ele>289</ele>
        <time>2017-06-24T09:49:12Z</time>
      </trkpt>
      <trkpt lat="45.98674" lon="4.89489">
        <ele>289</ele>
        <time>2017-06-24T09:49:13Z</time>
      </trkpt>
      <trkpt lat="45.98669" lon="4.89482">
        <ele>289</ele>
        <time>2017-06-24T09:49:14Z</time>
      </trkpt>
      <trkpt lat="45.98664" lon="4.89476">
        <ele>290</ele>
        <time>2017-06-24T09:49:15Z</time>
      </trkpt>
      <trkpt lat="45.98659" lon="4.8947">
        <ele>290</ele>
        <time>2017-06-24T09:49:16Z</time>
      </trkpt>
      <trkpt lat="45.98654" lon="4.89464">
        <ele>290</ele>
        <time>2017-06-24T09:49:17Z</time>
      </trkpt>
      <trkpt lat="45.98649" lon="4.89459">
        <ele>291</ele>
        <time>2017-06-24T09:49:18Z</time>
      </trkpt>
      <trkpt lat="45.98644" lon="4.89453">
        <ele>291</ele>
        <time>2017-06-24T09:49:19Z</time>
      </trkpt>
      <trkpt lat="45.98639" lon="4.89448">
        <ele>291</ele>
        <time>2017-06-24T09:49:20Z</time>
      </trkpt>
      <trkpt lat="45.98634" lon="4.89443">
        <ele>291</ele>
        <time>2017-06-24T09:49:21Z</time>
      </trkpt>
      <trkpt lat="45.98628" lon="4.89438">
        <ele>291</ele>
        <time>2017-06-24T09:49:22Z</time>
      </trkpt>
      <trkpt lat="45.98623" lon="4.89433">
        <ele>291</ele>
        <time>2017-06-24T09:49:23Z</time>
      </trkpt>
      <trkpt lat="45.98618" lon="4.89428">
        <ele>292</ele>
        <time>2017-06-24T09:49:24Z</time>
      </trkpt>
      <trkpt lat="45.98614" lon="4.89423">
        <ele>292</ele>
        <time>2017-06-24T09:49:25Z</time>
      </trkpt>
      <trkpt lat="45.98609" lon="4.89417">
        <ele>292</ele>
        <time>2017-06-24T09:49:26Z</time>
      </trkpt>
      <trkpt lat="45.98604" lon="4.89412">
        <ele>292</ele>
        <time>2017-06-24T09:49:27Z</time>
      </trkpt>
      <trkpt lat="45.986" lon="4.89408">
        <ele>292</ele>
        <time>2017-06-24T09:49:28Z</time>
      </trkpt>
      <trkpt lat="45.98595" lon="4.89403">
        <ele>292</ele>
        <time>2017-06-24T09:49:29Z</time>
      </trkpt>
      <trkpt lat="45.9859" lon="4.89399">
        <ele>292</ele>
        <time>2017-06-24T09:49:30Z</time>
      </trkpt>
      <trkpt lat="45.98586" lon="4.89395">
        <ele>292</ele>
        <time>2017-06-24T09:49:31Z</time>
      </trkpt>
      <trkpt lat="45.98582" lon="4.89391">
        <ele>295</ele>
        <time>2017-06-24T09:49:32Z</time>
      </trkpt>
      <trkpt lat="45.98579" lon="4.89387">
        <ele>295</ele>
        <time>2017-06-24T09:49:33Z</time>
      </trkpt>
      <trkpt lat="45.98575" lon="4.89383">
        <ele>295</ele>
        <time>2017-06-24T09:49:34Z</time>
      </trkpt>
      <trkpt lat="45.98571" lon="4.89379">
        <ele>295</ele>
        <time>2017-06-24T09:49:35Z</time>
      </trkpt>
      <trkpt lat="45.98568" lon="4.89375">
        <ele>295</ele>
        <time>2017-06-24T09:49:36Z</time>
      </trkpt>
      <trkpt lat="45.98564" lon="4.8937">
        <ele>295</ele>
        <time>2017-06-24T09:49:37Z</time>
      </trkpt>
      <trkpt lat="45.9856" lon="4.89364">
        <ele>295</ele>
        <time>2017-06-24T09:49:38Z</time>
      </trkpt>
      <trkpt lat="45.98556" lon="4.89359">
        <ele>295</ele>
        <time>2017-06-24T09:49:39Z</time>
      </trkpt>
      <trkpt lat="45.98552" lon="4.89354">
        <ele>295</ele>
        <time>2017-06-24T09:49:40Z</time>
      </trkpt>
      <trkpt lat="45.98548" lon="4.89347">
        <ele>295</ele>
        <time>2017-06-24T09:49:41Z</time>
      </trkpt>
      <trkpt lat="45.98544" lon="4.89341">
        <ele>295</ele>
        <time>2017-06-24T09:49:42Z</time>
      </trkpt>
      <trkpt lat="45.9854" lon="4.89335">
        <ele>295</ele>
        <time>2017-06-24T09:49:43Z</time>
      </trkpt>
      <trkpt lat="45.98536" lon="4.8933">
        <ele>293</ele>
        <time>2017-06-24T09:49:44Z</time>
      </trkpt>
      <trkpt lat="45.98532" lon="4.89324">
        <ele>293</ele>
        <time>2017-06-24T09:49:45Z</time>
      </trkpt>
      <trkpt lat="45.98527" lon="4.89317">
        <ele>293</ele>
        <time>2017-06-24T09:49:46Z</time>
      </trkpt>
      <trkpt lat="45.98523" lon="4.89311">
        <ele>293</ele>
        <time>2017-06-24T09:49:47Z</time>
      </trkpt>
      <trkpt lat="45.98519" lon="4.89306">
        <ele>293</ele>
        <time>2017-06-24T09:49:48Z</time>
      </trkpt>
      <trkpt lat="45.98516" lon="4.893">
        <ele>293</ele>
        <time>2017-06-24T09:49:49Z</time>
      </trkpt>
      <trkpt lat="45.98512" lon="4.89295">
        <ele>292</ele>
        <time>2017-06-24T09:49:50Z</time>
      </trkpt>
      <trkpt lat="45.98509" lon="4.89289">
        <ele>292</ele>
        <time>2017-06-24T09:49:51Z</time>
      </trkpt>
      <trkpt lat="45.98506" lon="4.89284">
        <ele>292</ele>
        <time>2017-06-24T09:49:52Z</time>
      </trkpt>
      <trkpt lat="45.98502" lon="4.89279">
        <ele>292</ele>
        <time>2017-06-24T09:49:53Z</time>
      </trkpt>
      <trkpt lat="45.98496" lon="4.8927">
        <ele>292</ele>
        <time>2017-06-24T09:49:55Z</time>
      </trkpt>
      <trkpt lat="45.98493" lon="4.89266">
        <ele>291</ele>
        <time>2017-06-24T09:49:56Z</time>
      </trkpt>
      <trkpt lat="45.9849" lon="4.89261">
        <ele>291</ele>
        <time>2017-06-24T09:49:57Z</time>
      </trkpt>
      <trkpt lat="45.98486" lon="4.89256">
        <ele>291</ele>
        <time>2017-06-24T09:49:58Z</time>
      </trkpt>
      <trkpt lat="45.98484" lon="4.89251">
        <ele>291</ele>
        <time>2017-06-24T09:49:59Z</time>
      </trkpt>
      <trkpt lat="45.9848" lon="4.89245">
        <ele>289</ele>
        <time>2017-06-24T09:50:00Z</time>
      </trkpt>
      <trkpt lat="45.98476" lon="4.8924">
        <ele>289</ele>
        <time>2017-06-24T09:50:01Z</time>
      </trkpt>
      <trkpt lat="45.98473" lon="4.89232">
        <ele>289</ele>
        <time>2017-06-24T09:50:02Z</time>
      </trkpt>
      <trkpt lat="45.98469" lon="4.89226">
        <ele>289</ele>
        <time>2017-06-24T09:50:03Z</time>
      </trkpt>
      <trkpt lat="45.98465" lon="4.89218">
        <ele>289</ele>
        <time>2017-06-24T09:50:04Z</time>
      </trkpt>
      <trkpt lat="45.98461" lon="4.89211">
        <ele>289</ele>
        <time>2017-06-24T09:50:05Z</time>
      </trkpt>
      <trkpt lat="45.98457" lon="4.89204">
        <ele>289</ele>
        <time>2017-06-24T09:50:06Z</time>
      </trkpt>
      <trkpt lat="45.98453" lon="4.89196">
        <ele>289</ele>
        <time>2017-06-24T09:50:07Z</time>
      </trkpt>
      <trkpt lat="45.98448" lon="4.89189">
        <ele>288</ele>
        <time>2017-06-24T09:50:08Z</time>
      </trkpt>
      <trkpt lat="45.98444" lon="4.89182">
        <ele>288</ele>
        <time>2017-06-24T09:50:09Z</time>
      </trkpt>
      <trkpt lat="45.98439" lon="4.89174">
        <ele>288</ele>
        <time>2017-06-24T09:50:10Z</time>
      </trkpt>
      <trkpt lat="45.98434" lon="4.89166">
        <ele>288</ele>
        <time>2017-06-24T09:50:11Z</time>
      </trkpt>
      <trkpt lat="45.98429" lon="4.89158">
        <ele>288</ele>
        <time>2017-06-24T09:50:12Z</time>
      </trkpt>
      <trkpt lat="45.98424" lon="4.89151">
        <ele>288</ele>
        <time>2017-06-24T09:50:13Z</time>
      </trkpt>
      <trkpt lat="45.98419" lon="4.89143">
        <ele>288</ele>
        <time>2017-06-24T09:50:14Z</time>
      </trkpt>
      <trkpt lat="45.98414" lon="4.89135">
        <ele>285</ele>
        <time>2017-06-24T09:50:15Z</time>
      </trkpt>
      <trkpt lat="45.98408" lon="4.89127">
        <ele>285</ele>
        <time>2017-06-24T09:50:16Z</time>
      </trkpt>
      <trkpt lat="45.98403" lon="4.89117">
        <ele>285</ele>
        <time>2017-06-24T09:50:17Z</time>
      </trkpt>
      <trkpt lat="45.98399" lon="4.89107">
        <ele>285</ele>
        <time>2017-06-24T09:50:18Z</time>
      </trkpt>
      <trkpt lat="45.98394" lon="4.89099">
        <ele>285</ele>
        <time>2017-06-24T09:50:19Z</time>
      </trkpt>
      <trkpt lat="45.98389" lon="4.8909">
        <ele>285</ele>
        <time>2017-06-24T09:50:20Z</time>
      </trkpt>
      <trkpt lat="45.98386" lon="4.89081">
        <ele>285</ele>
        <time>2017-06-24T09:50:21Z</time>
      </trkpt>
      <trkpt lat="45.98383" lon="4.89071">
        <ele>285</ele>
        <time>2017-06-24T09:50:22Z</time>
      </trkpt>
      <trkpt lat="45.98379" lon="4.8906">
        <ele>284</ele>
        <time>2017-06-24T09:50:23Z</time>
      </trkpt>
      <trkpt lat="45.98377" lon="4.8905">
        <ele>284</ele>
        <time>2017-06-24T09:50:24Z</time>
      </trkpt>
      <trkpt lat="45.98375" lon="4.8904">
        <ele>284</ele>
        <time>2017-06-24T09:50:25Z</time>
      </trkpt>
      <trkpt lat="45.98372" lon="4.89029">
        <ele>284</ele>
        <time>2017-06-24T09:50:26Z</time>
      </trkpt>
      <trkpt lat="45.98369" lon="4.89017">
        <ele>284</ele>
        <time>2017-06-24T09:50:27Z</time>
      </trkpt>
      <trkpt lat="45.98367" lon="4.89006">
        <ele>283</ele>
        <time>2017-06-24T09:50:28Z</time>
      </trkpt>
      <trkpt lat="45.98365" lon="4.88994">
        <ele>282</ele>
        <time>2017-06-24T09:50:29Z</time>
      </trkpt>
      <trkpt lat="45.98363" lon="4.88982">
        <ele>282</ele>
        <time>2017-06-24T09:50:30Z</time>
      </trkpt>
      <trkpt lat="45.9836" lon="4.88971">
        <ele>282</ele>
        <time>2017-06-24T09:50:31Z</time>
      </trkpt>
      <trkpt lat="45.98358" lon="4.88961">
        <ele>282</ele>
        <time>2017-06-24T09:50:32Z</time>
      </trkpt>
      <trkpt lat="45.98355" lon="4.8895">
        <ele>282</ele>
        <time>2017-06-24T09:50:33Z</time>
      </trkpt>
      <trkpt lat="45.98353" lon="4.8894">
        <ele>282</ele>
        <time>2017-06-24T09:50:34Z</time>
      </trkpt>
      <trkpt lat="45.9835" lon="4.88929">
        <ele>281</ele>
        <time>2017-06-24T09:50:35Z</time>
      </trkpt>
      <trkpt lat="45.98347" lon="4.8892">
        <ele>281</ele>
        <time>2017-06-24T09:50:36Z</time>
      </trkpt>
      <trkpt lat="45.98345" lon="4.8891">
        <ele>280</ele>
        <time>2017-06-24T09:50:37Z</time>
      </trkpt>
      <trkpt lat="45.98343" lon="4.889">
        <ele>280</ele>
        <time>2017-06-24T09:50:38Z</time>
      </trkpt>
      <trkpt lat="45.9834" lon="4.88891">
        <ele>280</ele>
        <time>2017-06-24T09:50:39Z</time>
      </trkpt>
      <trkpt lat="45.98338" lon="4.88882">
        <ele>280</ele>
        <time>2017-06-24T09:50:40Z</time>
      </trkpt>
      <trkpt lat="45.98336" lon="4.88873">
        <ele>280</ele>
        <time>2017-06-24T09:50:41Z</time>
      </trkpt>
      <trkpt lat="45.98334" lon="4.88864">
        <ele>280</ele>
        <time>2017-06-24T09:50:42Z</time>
      </trkpt>
      <trkpt lat="45.98332" lon="4.88856">
        <ele>278</ele>
        <time>2017-06-24T09:50:43Z</time>
      </trkpt>
      <trkpt lat="45.9833" lon="4.88847">
        <ele>278</ele>
        <time>2017-06-24T09:50:44Z</time>
      </trkpt>
      <trkpt lat="45.98328" lon="4.88839">
        <ele>278</ele>
        <time>2017-06-24T09:50:45Z</time>
      </trkpt>
      <trkpt lat="45.98326" lon="4.88831">
        <ele>278</ele>
        <time>2017-06-24T09:50:46Z</time>
      </trkpt>
      <trkpt lat="45.98324" lon="4.88823">
        <ele>277</ele>
        <time>2017-06-24T09:50:47Z</time>
      </trkpt>
      <trkpt lat="45.98322" lon="4.88815">
        <ele>277</ele>
        <time>2017-06-24T09:50:48Z</time>
      </trkpt>
      <trkpt lat="45.9832" lon="4.88807">
        <ele>277</ele>
        <time>2017-06-24T09:50:49Z</time>
      </trkpt>
      <trkpt lat="45.98317" lon="4.88798">
        <ele>277</ele>
        <time>2017-06-24T09:50:50Z</time>
      </trkpt>
      <trkpt lat="45.98315" lon="4.8879">
        <ele>277</ele>
        <time>2017-06-24T09:50:51Z</time>
      </trkpt>
      <trkpt lat="45.98313" lon="4.88781">
        <ele>277</ele>
        <time>2017-06-24T09:50:52Z</time>
      </trkpt>
      <trkpt lat="45.98311" lon="4.88772">
        <ele>277</ele>
        <time>2017-06-24T09:50:53Z</time>
      </trkpt>
      <trkpt lat="45.98309" lon="4.88763">
        <ele>276</ele>
        <time>2017-06-24T09:50:54Z</time>
      </trkpt>
      <trkpt lat="45.98307" lon="4.88755">
        <ele>276</ele>
        <time>2017-06-24T09:50:55Z</time>
      </trkpt>
      <trkpt lat="45.98305" lon="4.88747">
        <ele>276</ele>
        <time>2017-06-24T09:50:56Z</time>
      </trkpt>
      <trkpt lat="45.98303" lon="4.88739">
        <ele>276</ele>
        <time>2017-06-24T09:50:57Z</time>
      </trkpt>
      <trkpt lat="45.98301" lon="4.8873">
        <ele>276</ele>
        <time>2017-06-24T09:50:58Z</time>
      </trkpt>
      <trkpt lat="45.98299" lon="4.88722">
        <ele>276</ele>
        <time>2017-06-24T09:50:59Z</time>
      </trkpt>
      <trkpt lat="45.98297" lon="4.88714">
        <ele>276</ele>
        <time>2017-06-24T09:51:00Z</time>
      </trkpt>
      <trkpt lat="45.98295" lon="4.88706">
        <ele>276</ele>
        <time>2017-06-24T09:51:01Z</time>
      </trkpt>
      <trkpt lat="45.98293" lon="4.88698">
        <ele>276</ele>
        <time>2017-06-24T09:51:02Z</time>
      </trkpt>
      <trkpt lat="45.98291" lon="4.8869">
        <ele>276</ele>
        <time>2017-06-24T09:51:03Z</time>
      </trkpt>
      <trkpt lat="45.98289" lon="4.88683">
        <ele>276</ele>
        <time>2017-06-24T09:51:04Z</time>
      </trkpt>
      <trkpt lat="45.98287" lon="4.88675">
        <ele>276</ele>
        <time>2017-06-24T09:51:05Z</time>
      </trkpt>
      <trkpt lat="45.98285" lon="4.88668">
        <ele>276</ele>
        <time>2017-06-24T09:51:06Z</time>
      </trkpt>
      <trkpt lat="45.98283" lon="4.8866">
        <ele>276</ele>
        <time>2017-06-24T09:51:07Z</time>
      </trkpt>
      <trkpt lat="45.98281" lon="4.88652">
        <ele>276</ele>
        <time>2017-06-24T09:51:08Z</time>
      </trkpt>
      <trkpt lat="45.98279" lon="4.88644">
        <ele>276</ele>
        <time>2017-06-24T09:51:09Z</time>
      </trkpt>
      <trkpt lat="45.98277" lon="4.88636">
        <ele>276</ele>
        <time>2017-06-24T09:51:10Z</time>
      </trkpt>
      <trkpt lat="45.98275" lon="4.88628">
        <ele>276</ele>
        <time>2017-06-24T09:51:11Z</time>
      </trkpt>
      <trkpt lat="45.98273" lon="4.88619">
        <ele>276</ele>
        <time>2017-06-24T09:51:12Z</time>
      </trkpt>
      <trkpt lat="45.98271" lon="4.8861">
        <ele>276</ele>
        <time>2017-06-24T09:51:13Z</time>
      </trkpt>
      <trkpt lat="45.98269" lon="4.88602">
        <ele>276</ele>
        <time>2017-06-24T09:51:14Z</time>
      </trkpt>
      <trkpt lat="45.98267" lon="4.88593">
        <ele>275</ele>
        <time>2017-06-24T09:51:15Z</time>
      </trkpt>
      <trkpt lat="45.98265" lon="4.88585">
        <ele>275</ele>
        <time>2017-06-24T09:51:16Z</time>
      </trkpt>
      <trkpt lat="45.98263" lon="4.88577">
        <ele>276</ele>
        <time>2017-06-24T09:51:17Z</time>
      </trkpt>
      <trkpt lat="45.98261" lon="4.88569">
        <ele>276</ele>
        <time>2017-06-24T09:51:18Z</time>
      </trkpt>
      <trkpt lat="45.9826" lon="4.88562">
        <ele>276</ele>
        <time>2017-06-24T09:51:19Z</time>
      </trkpt>
      <trkpt lat="45.98258" lon="4.88555">
        <ele>276</ele>
        <time>2017-06-24T09:51:20Z</time>
      </trkpt>
      <trkpt lat="45.98257" lon="4.88547">
        <ele>276</ele>
        <time>2017-06-24T09:51:21Z</time>
      </trkpt>
      <trkpt lat="45.98255" lon="4.8854">
        <ele>276</ele>
        <time>2017-06-24T09:51:22Z</time>
      </trkpt>
      <trkpt lat="45.98254" lon="4.88533">
        <ele>276</ele>
        <time>2017-06-24T09:51:23Z</time>
      </trkpt>
      <trkpt lat="45.98253" lon="4.88526">
        <ele>277</ele>
        <time>2017-06-24T09:51:24Z</time>
      </trkpt>
      <trkpt lat="45.98251" lon="4.88519">
        <ele>277</ele>
        <time>2017-06-24T09:51:25Z</time>
      </trkpt>
      <trkpt lat="45.9825" lon="4.88511">
        <ele>277</ele>
        <time>2017-06-24T09:51:26Z</time>
      </trkpt>
      <trkpt lat="45.98248" lon="4.88504">
        <ele>277</ele>
        <time>2017-06-24T09:51:27Z</time>
      </trkpt>
      <trkpt lat="45.98247" lon="4.88497">
        <ele>277</ele>
        <time>2017-06-24T09:51:28Z</time>
      </trkpt>
      <trkpt lat="45.98245" lon="4.8849">
        <ele>276</ele>
        <time>2017-06-24T09:51:29Z</time>
      </trkpt>
      <trkpt lat="45.98243" lon="4.88483">
        <ele>276</ele>
        <time>2017-06-24T09:51:30Z</time>
      </trkpt>
      <trkpt lat="45.98241" lon="4.88476">
        <ele>276</ele>
        <time>2017-06-24T09:51:31Z</time>
      </trkpt>
      <trkpt lat="45.9824" lon="4.88469">
        <ele>276</ele>
        <time>2017-06-24T09:51:32Z</time>
      </trkpt>
      <trkpt lat="45.98238" lon="4.88462">
        <ele>276</ele>
        <time>2017-06-24T09:51:33Z</time>
      </trkpt>
      <trkpt lat="45.98236" lon="4.88454">
        <ele>276</ele>
        <time>2017-06-24T09:51:34Z</time>
      </trkpt>
      <trkpt lat="45.98235" lon="4.88447">
        <ele>276</ele>
        <time>2017-06-24T09:51:35Z</time>
      </trkpt>
      <trkpt lat="45.98233" lon="4.8844">
        <ele>276</ele>
        <time>2017-06-24T09:51:36Z</time>
      </trkpt>
      <trkpt lat="45.98231" lon="4.88433">
        <ele>276</ele>
        <time>2017-06-24T09:51:37Z</time>
      </trkpt>
      <trkpt lat="45.9823" lon="4.88426">
        <ele>276</ele>
        <time>2017-06-24T09:51:38Z</time>
      </trkpt>
      <trkpt lat="45.98228" lon="4.88419">
        <ele>276</ele>
        <time>2017-06-24T09:51:39Z</time>
      </trkpt>
      <trkpt lat="45.98227" lon="4.88412">
        <ele>276</ele>
        <time>2017-06-24T09:51:40Z</time>
      </trkpt>
      <trkpt lat="45.98225" lon="4.88404">
        <ele>275</ele>
        <time>2017-06-24T09:51:41Z</time>
      </trkpt>
      <trkpt lat="45.98223" lon="4.88396">
        <ele>275</ele>
        <time>2017-06-24T09:51:42Z</time>
      </trkpt>
      <trkpt lat="45.98222" lon="4.88388">
        <ele>275</ele>
        <time>2017-06-24T09:51:43Z</time>
      </trkpt>
      <trkpt lat="45.9822" lon="4.8838">
        <ele>275</ele>
        <time>2017-06-24T09:51:44Z</time>
      </trkpt>
      <trkpt lat="45.98219" lon="4.88371">
        <ele>275</ele>
        <time>2017-06-24T09:51:45Z</time>
      </trkpt>
      <trkpt lat="45.98218" lon="4.88363">
        <ele>275</ele>
        <time>2017-06-24T09:51:46Z</time>
      </trkpt>
      <trkpt lat="45.98217" lon="4.88354">
        <ele>275</ele>
        <time>2017-06-24T09:51:47Z</time>
      </trkpt>
      <trkpt lat="45.98217" lon="4.88345">
        <ele>275</ele>
        <time>2017-06-24T09:51:48Z</time>
      </trkpt>
      <trkpt lat="45.98216" lon="4.88337">
        <ele>275</ele>
        <time>2017-06-24T09:51:49Z</time>
      </trkpt>
      <trkpt lat="45.98216" lon="4.88329">
        <ele>274</ele>
        <time>2017-06-24T09:51:50Z</time>
      </trkpt>
      <trkpt lat="45.98215" lon="4.8832">
        <ele>274</ele>
        <time>2017-06-24T09:51:51Z</time>
      </trkpt>
      <trkpt lat="45.98214" lon="4.88311">
        <ele>274</ele>
        <time>2017-06-24T09:51:52Z</time>
      </trkpt>
      <trkpt lat="45.98212" lon="4.88301">
        <ele>274</ele>
        <time>2017-06-24T09:51:53Z</time>
      </trkpt>
      <trkpt lat="45.9821" lon="4.88292">
        <ele>274</ele>
        <time>2017-06-24T09:51:54Z</time>
      </trkpt>
      <trkpt lat="45.98209" lon="4.88283">
        <ele>274</ele>
        <time>2017-06-24T09:51:55Z</time>
      </trkpt>
      <trkpt lat="45.98206" lon="4.88273">
        <ele>274</ele>
        <time>2017-06-24T09:51:56Z</time>
      </trkpt>
      <trkpt lat="45.98204" lon="4.88263">
        <ele>274</ele>
        <time>2017-06-24T09:51:57Z</time>
      </trkpt>
      <trkpt lat="45.98202" lon="4.88254">
        <ele>274</ele>
        <time>2017-06-24T09:51:58Z</time>
      </trkpt>
      <trkpt lat="45.98199" lon="4.88246">
        <ele>273</ele>
        <time>2017-06-24T09:51:59Z</time>
      </trkpt>
      <trkpt lat="45.98197" lon="4.88237">
        <ele>273</ele>
        <time>2017-06-24T09:52:00Z</time>
      </trkpt>
      <trkpt lat="45.98194" lon="4.88228">
        <ele>273</ele>
        <time>2017-06-24T09:52:01Z</time>
      </trkpt>
      <trkpt lat="45.98192" lon="4.8822">
        <ele>273</ele>
        <time>2017-06-24T09:52:02Z</time>
      </trkpt>
      <trkpt lat="45.9819" lon="4.88212">
        <ele>273</ele>
        <time>2017-06-24T09:52:03Z</time>
      </trkpt>
      <trkpt lat="45.98188" lon="4.88204">
        <ele>273</ele>
        <time>2017-06-24T09:52:04Z</time>
      </trkpt>
      <trkpt lat="45.98185" lon="4.88196">
        <ele>273</ele>
        <time>2017-06-24T09:52:05Z</time>
      </trkpt>
      <trkpt lat="45.98183" lon="4.88189">
        <ele>273</ele>
        <time>2017-06-24T09:52:06Z</time>
      </trkpt>
      <trkpt lat="45.98181" lon="4.88182">
        <ele>273</ele>
        <time>2017-06-24T09:52:07Z</time>
      </trkpt>
      <trkpt lat="45.98179" lon="4.88175">
        <ele>273</ele>
        <time>2017-06-24T09:52:08Z</time>
      </trkpt>
      <trkpt lat="45.98176" lon="4.88168">
        <ele>273</ele>
        <time>2017-06-24T09:52:09Z</time>
      </trkpt>
      <trkpt lat="45.98174" lon="4.88161">
        <ele>273</ele>
        <time>2017-06-24T09:52:10Z</time>
      </trkpt>
      <trkpt lat="45.98172" lon="4.88153">
        <ele>273</ele>
        <time>2017-06-24T09:52:11Z</time>
      </trkpt>
      <trkpt lat="45.98169" lon="4.88146">
        <ele>273</ele>
        <time>2017-06-24T09:52:12Z</time>
      </trkpt>
      <trkpt lat="45.98167" lon="4.88138">
        <ele>273</ele>
        <time>2017-06-24T09:52:13Z</time>
      </trkpt>
      <trkpt lat="45.98165" lon="4.8813">
        <ele>274</ele>
        <time>2017-06-24T09:52:14Z</time>
      </trkpt>
      <trkpt lat="45.98162" lon="4.88121">
        <ele>274</ele>
        <time>2017-06-24T09:52:15Z</time>
      </trkpt>
      <trkpt lat="45.9816" lon="4.88113">
        <ele>274</ele>
        <time>2017-06-24T09:52:16Z</time>
      </trkpt>
      <trkpt lat="45.98157" lon="4.88104">
        <ele>274</ele>
        <time>2017-06-24T09:52:17Z</time>
      </trkpt>
      <trkpt lat="45.98155" lon="4.88095">
        <ele>274</ele>
        <time>2017-06-24T09:52:18Z</time>
      </trkpt>
      <trkpt lat="45.98152" lon="4.88087">
        <ele>274</ele>
        <time>2017-06-24T09:52:19Z</time>
      </trkpt>
      <trkpt lat="45.98149" lon="4.88078">
        <ele>274</ele>
        <time>2017-06-24T09:52:20Z</time>
      </trkpt>
      <trkpt lat="45.98146" lon="4.88068">
        <ele>275</ele>
        <time>2017-06-24T09:52:21Z</time>
      </trkpt>
      <trkpt lat="45.98144" lon="4.88059">
        <ele>275</ele>
        <time>2017-06-24T09:52:22Z</time>
      </trkpt>
      <trkpt lat="45.98141" lon="4.8805">
        <ele>275</ele>
        <time>2017-06-24T09:52:23Z</time>
      </trkpt>
      <trkpt lat="45.98138" lon="4.88041">
        <ele>275</ele>
        <time>2017-06-24T09:52:24Z</time>
      </trkpt>
      <trkpt lat="45.98135" lon="4.88032">
        <ele>276</ele>
        <time>2017-06-24T09:52:25Z</time>
      </trkpt>
      <trkpt lat="45.98132" lon="4.88024">
        <ele>276</ele>
        <time>2017-06-24T09:52:26Z</time>
      </trkpt>
      <trkpt lat="45.9813" lon="4.88016">
        <ele>276</ele>
        <time>2017-06-24T09:52:27Z</time>
      </trkpt>
      <trkpt lat="45.98128" lon="4.88009">
        <ele>276</ele>
        <time>2017-06-24T09:52:28Z</time>
      </trkpt>
      <trkpt lat="45.98125" lon="4.88001">
        <ele>276</ele>
        <time>2017-06-24T09:52:29Z</time>
      </trkpt>
      <trkpt lat="45.98123" lon="4.87994">
        <ele>277</ele>
        <time>2017-06-24T09:52:30Z</time>
      </trkpt>
      <trkpt lat="45.9812" lon="4.87987">
        <ele>277</ele>
        <time>2017-06-24T09:52:31Z</time>
      </trkpt>
      <trkpt lat="45.98118" lon="4.8798">
        <ele>277</ele>
        <time>2017-06-24T09:52:32Z</time>
      </trkpt>
      <trkpt lat="45.98116" lon="4.87973">
        <ele>277</ele>
        <time>2017-06-24T09:52:33Z</time>
      </trkpt>
      <trkpt lat="45.98114" lon="4.87966">
        <ele>277</ele>
        <time>2017-06-24T09:52:34Z</time>
      </trkpt>
      <trkpt lat="45.98112" lon="4.87959">
        <ele>277</ele>
        <time>2017-06-24T09:52:35Z</time>
      </trkpt>
      <trkpt lat="45.98109" lon="4.87952">
        <ele>277</ele>
        <time>2017-06-24T09:52:36Z</time>
      </trkpt>
      <trkpt lat="45.98107" lon="4.87944">
        <ele>277</ele>
        <time>2017-06-24T09:52:37Z</time>
      </trkpt>
      <trkpt lat="45.98105" lon="4.87936">
        <ele>277</ele>
        <time>2017-06-24T09:52:38Z</time>
      </trkpt>
      <trkpt lat="45.98103" lon="4.87928">
        <ele>277</ele>
        <time>2017-06-24T09:52:39Z</time>
      </trkpt>
      <trkpt lat="45.981" lon="4.8792">
        <ele>278</ele>
        <time>2017-06-24T09:52:40Z</time>
      </trkpt>
      <trkpt lat="45.98098" lon="4.87912">
        <ele>278</ele>
        <time>2017-06-24T09:52:41Z</time>
      </trkpt>
      <trkpt lat="45.98095" lon="4.87904">
        <ele>278</ele>
        <time>2017-06-24T09:52:42Z</time>
      </trkpt>
      <trkpt lat="45.98093" lon="4.87897">
        <ele>278</ele>
        <time>2017-06-24T09:52:43Z</time>
      </trkpt>
      <trkpt lat="45.98091" lon="4.87889">
        <ele>278</ele>
        <time>2017-06-24T09:52:44Z</time>
      </trkpt>
      <trkpt lat="45.98089" lon="4.87882">
        <ele>278</ele>
        <time>2017-06-24T09:52:45Z</time>
      </trkpt>
      <trkpt lat="45.98086" lon="4.87875">
        <ele>278</ele>
        <time>2017-06-24T09:52:46Z</time>
      </trkpt>
      <trkpt lat="45.98084" lon="4.87869">
        <ele>278</ele>
        <time>2017-06-24T09:52:47Z</time>
      </trkpt>
      <trkpt lat="45.98083" lon="4.87862">
        <ele>280</ele>
        <time>2017-06-24T09:52:48Z</time>
      </trkpt>
      <trkpt lat="45.98081" lon="4.87856">
        <ele>280</ele>
        <time>2017-06-24T09:52:49Z</time>
      </trkpt>
      <trkpt lat="45.9808" lon="4.8785">
        <ele>280</ele>
        <time>2017-06-24T09:52:50Z</time>
      </trkpt>
      <trkpt lat="45.98078" lon="4.87844">
        <ele>279</ele>
        <time>2017-06-24T09:52:51Z</time>
      </trkpt>
      <trkpt lat="45.98076" lon="4.87838">
        <ele>279</ele>
        <time>2017-06-24T09:52:52Z</time>
      </trkpt>
      <trkpt lat="45.98072" lon="4.87826">
        <ele>279</ele>
        <time>2017-06-24T09:52:54Z</time>
      </trkpt>
      <trkpt lat="45.9807" lon="4.87821">
        <ele>279</ele>
        <time>2017-06-24T09:52:55Z</time>
      </trkpt>
      <trkpt lat="45.98067" lon="4.87809">
        <ele>280</ele>
        <time>2017-06-24T09:52:57Z</time>
      </trkpt>
      <trkpt lat="45.98066" lon="4.87803">
        <ele>280</ele>
        <time>2017-06-24T09:52:58Z</time>
      </trkpt>
      <trkpt lat="45.98062" lon="4.87792">
        <ele>280</ele>
        <time>2017-06-24T09:53:00Z</time>
      </trkpt>
      <trkpt lat="45.9806" lon="4.87786">
        <ele>280</ele>
        <time>2017-06-24T09:53:01Z</time>
      </trkpt>
      <trkpt lat="45.98057" lon="4.87774">
        <ele>280</ele>
        <time>2017-06-24T09:53:03Z</time>
      </trkpt>
      <trkpt lat="45.98055" lon="4.87769">
        <ele>280</ele>
        <time>2017-06-24T09:53:04Z</time>
      </trkpt>
      <trkpt lat="45.98052" lon="4.87758">
        <ele>280</ele>
        <time>2017-06-24T09:53:06Z</time>
      </trkpt>
      <trkpt lat="45.9805" lon="4.87753">
        <ele>280</ele>
        <time>2017-06-24T09:53:07Z</time>
      </trkpt>
      <trkpt lat="45.98048" lon="4.87746">
        <ele>280</ele>
        <time>2017-06-24T09:53:08Z</time>
      </trkpt>
      <trkpt lat="45.98046" lon="4.8774">
        <ele>280</ele>
        <time>2017-06-24T09:53:09Z</time>
      </trkpt>
      <trkpt lat="45.98044" lon="4.87733">
        <ele>280</ele>
        <time>2017-06-24T09:53:10Z</time>
      </trkpt>
      <trkpt lat="45.98042" lon="4.87726">
        <ele>280</ele>
        <time>2017-06-24T09:53:11Z</time>
      </trkpt>
      <trkpt lat="45.9804" lon="4.87719">
        <ele>279</ele>
        <time>2017-06-24T09:53:12Z</time>
      </trkpt>
      <trkpt lat="45.98038" lon="4.87712">
        <ele>279</ele>
        <time>2017-06-24T09:53:13Z</time>
      </trkpt>
      <trkpt lat="45.98036" lon="4.87706">
        <ele>280</ele>
        <time>2017-06-24T09:53:14Z</time>
      </trkpt>
      <trkpt lat="45.98035" lon="4.877">
        <ele>280</ele>
        <time>2017-06-24T09:53:15Z</time>
      </trkpt>
      <trkpt lat="45.98032" lon="4.87689">
        <ele>280</ele>
        <time>2017-06-24T09:53:17Z</time>
      </trkpt>
      <trkpt lat="45.9803" lon="4.87684">
        <ele>280</ele>
        <time>2017-06-24T09:53:18Z</time>
      </trkpt>
      <trkpt lat="45.98027" lon="4.87673">
        <ele>280</ele>
        <time>2017-06-24T09:53:20Z</time>
      </trkpt>
      <trkpt lat="45.98026" lon="4.87667">
        <ele>280</ele>
        <time>2017-06-24T09:53:21Z</time>
      </trkpt>
      <trkpt lat="45.98023" lon="4.87656">
        <ele>280</ele>
        <time>2017-06-24T09:53:23Z</time>
      </trkpt>
      <trkpt lat="45.98021" lon="4.87651">
        <ele>280</ele>
        <time>2017-06-24T09:53:24Z</time>
      </trkpt>
      <trkpt lat="45.98018" lon="4.8764">
        <ele>280</ele>
        <time>2017-06-24T09:53:26Z</time>
      </trkpt>
      <trkpt lat="45.98016" lon="4.87635">
        <ele>280</ele>
        <time>2017-06-24T09:53:27Z</time>
      </trkpt>
      <trkpt lat="45.98012" lon="4.87624">
        <ele>280</ele>
        <time>2017-06-24T09:53:29Z</time>
      </trkpt>
      <trkpt lat="45.9801" lon="4.87618">
        <ele>280</ele>
        <time>2017-06-24T09:53:30Z</time>
      </trkpt>
      <trkpt lat="45.98006" lon="4.87607">
        <ele>280</ele>
        <time>2017-06-24T09:53:32Z</time>
      </trkpt>
      <trkpt lat="45.98004" lon="4.87602">
        <ele>280</ele>
        <time>2017-06-24T09:53:33Z</time>
      </trkpt>
      <trkpt lat="45.98" lon="4.87591">
        <ele>280</ele>
        <time>2017-06-24T09:53:35Z</time>
      </trkpt>
      <trkpt lat="45.97997" lon="4.87586">
        <ele>280</ele>
        <time>2017-06-24T09:53:36Z</time>
      </trkpt>
      <trkpt lat="45.97994" lon="4.8758">
        <ele>280</ele>
        <time>2017-06-24T09:53:37Z</time>
      </trkpt>
      <trkpt lat="45.97991" lon="4.87575">
        <ele>280</ele>
        <time>2017-06-24T09:53:38Z</time>
      </trkpt>
      <trkpt lat="45.97985" lon="4.87566">
        <ele>279</ele>
        <time>2017-06-24T09:53:40Z</time>
      </trkpt>
      <trkpt lat="45.97982" lon="4.87561">
        <ele>279</ele>
        <time>2017-06-24T09:53:41Z</time>
      </trkpt>
      <trkpt lat="45.97974" lon="4.87554">
        <ele>279</ele>
        <time>2017-06-24T09:53:43Z</time>
      </trkpt>
      <trkpt lat="45.9797" lon="4.87551">
        <ele>279</ele>
        <time>2017-06-24T09:53:44Z</time>
      </trkpt>
      <trkpt lat="45.97965" lon="4.87549">
        <ele>279</ele>
        <time>2017-06-24T09:53:45Z</time>
      </trkpt>
      <trkpt lat="45.9796" lon="4.87546">
        <ele>279</ele>
        <time>2017-06-24T09:53:46Z</time>
      </trkpt>
      <trkpt lat="45.97955" lon="4.87544">
        <ele>279</ele>
        <time>2017-06-24T09:53:47Z</time>
      </trkpt>
      <trkpt lat="45.9795" lon="4.87541">
        <ele>279</ele>
        <time>2017-06-24T09:53:48Z</time>
      </trkpt>
      <trkpt lat="45.97946" lon="4.87538">
        <ele>279</ele>
        <time>2017-06-24T09:53:49Z</time>
      </trkpt>
      <trkpt lat="45.97942" lon="4.87536">
        <ele>279</ele>
        <time>2017-06-24T09:53:50Z</time>
      </trkpt>
      <trkpt lat="45.97933" lon="4.87533">
        <ele>279</ele>
        <time>2017-06-24T09:53:52Z</time>
      </trkpt>
      <trkpt lat="45.97929" lon="4.87531">
        <ele>279</ele>
        <time>2017-06-24T09:53:53Z</time>
      </trkpt>
      <trkpt lat="45.97924" lon="4.87529">
        <ele>279</ele>
        <time>2017-06-24T09:53:54Z</time>
      </trkpt>
      <trkpt lat="45.9792" lon="4.87527">
        <ele>279</ele>
        <time>2017-06-24T09:53:55Z</time>
      </trkpt>
      <trkpt lat="45.97915" lon="4.87525">
        <ele>280</ele>
        <time>2017-06-24T09:53:56Z</time>
      </trkpt>
      <trkpt lat="45.97911" lon="4.87524">
        <ele>280</ele>
        <time>2017-06-24T09:53:57Z</time>
      </trkpt>
      <trkpt lat="45.97906" lon="4.87522">
        <ele>280</ele>
        <time>2017-06-24T09:53:58Z</time>
      </trkpt>
      <trkpt lat="45.97901" lon="4.8752">
        <ele>280</ele>
        <time>2017-06-24T09:53:59Z</time>
      </trkpt>
      <trkpt lat="45.97893" lon="4.87516">
        <ele>280</ele>
        <time>2017-06-24T09:54:01Z</time>
      </trkpt>
      <trkpt lat="45.97889" lon="4.87514">
        <ele>281</ele>
        <time>2017-06-24T09:54:02Z</time>
      </trkpt>
      <trkpt lat="45.97881" lon="4.87509">
        <ele>281</ele>
        <time>2017-06-24T09:54:04Z</time>
      </trkpt>
      <trkpt lat="45.97877" lon="4.87507">
        <ele>281</ele>
        <time>2017-06-24T09:54:05Z</time>
      </trkpt>
      <trkpt lat="45.97873" lon="4.87504">
        <ele>281</ele>
        <time>2017-06-24T09:54:06Z</time>
      </trkpt>
      <trkpt lat="45.97869" lon="4.875">
        <ele>281</ele>
        <time>2017-06-24T09:54:07Z</time>
      </trkpt>
      <trkpt lat="45.97865" lon="4.87496">
        <ele>280</ele>
        <time>2017-06-24T09:54:08Z</time>
      </trkpt>
      <trkpt lat="45.97861" lon="4.87492">
        <ele>281</ele>
        <time>2017-06-24T09:54:09Z</time>
      </trkpt>
      <trkpt lat="45.97857" lon="4.87488">
        <ele>281</ele>
        <time>2017-06-24T09:54:10Z</time>
      </trkpt>
      <trkpt lat="45.97853" lon="4.87483">
        <ele>281</ele>
        <time>2017-06-24T09:54:11Z</time>
      </trkpt>
      <trkpt lat="45.97849" lon="4.87479">
        <ele>281</ele>
        <time>2017-06-24T09:54:12Z</time>
      </trkpt>
      <trkpt lat="45.97845" lon="4.87475">
        <ele>281</ele>
        <time>2017-06-24T09:54:13Z</time>
      </trkpt>
      <trkpt lat="45.97841" lon="4.87471">
        <ele>281</ele>
        <time>2017-06-24T09:54:14Z</time>
      </trkpt>
      <trkpt lat="45.97837" lon="4.87466">
        <ele>281</ele>
        <time>2017-06-24T09:54:15Z</time>
      </trkpt>
      <trkpt lat="45.97832" lon="4.87462">
        <ele>282</ele>
        <time>2017-06-24T09:54:16Z</time>
      </trkpt>
      <trkpt lat="45.97828" lon="4.87456">
        <ele>282</ele>
        <time>2017-06-24T09:54:17Z</time>
      </trkpt>
      <trkpt lat="45.97823" lon="4.87451">
        <ele>282</ele>
        <time>2017-06-24T09:54:18Z</time>
      </trkpt>
      <trkpt lat="45.97818" lon="4.87446">
        <ele>282</ele>
        <time>2017-06-24T09:54:19Z</time>
      </trkpt>
      <trkpt lat="45.97814" lon="4.87441">
        <ele>282</ele>
        <time>2017-06-24T09:54:20Z</time>
      </trkpt>
      <trkpt lat="45.9781" lon="4.87437">
        <ele>282</ele>
        <time>2017-06-24T09:54:21Z</time>
      </trkpt>
      <trkpt lat="45.97806" lon="4.87432">
        <ele>283</ele>
        <time>2017-06-24T09:54:22Z</time>
      </trkpt>
      <trkpt lat="45.97802" lon="4.87428">
        <ele>283</ele>
        <time>2017-06-24T09:54:23Z</time>
      </trkpt>
      <trkpt lat="45.97798" lon="4.87423">
        <ele>283</ele>
        <time>2017-06-24T09:54:24Z</time>
      </trkpt>
      <trkpt lat="45.97794" lon="4.87419">
        <ele>283</ele>
        <time>2017-06-24T09:54:25Z</time>
      </trkpt>
      <trkpt lat="45.9779" lon="4.87415">
        <ele>284</ele>
        <time>2017-06-24T09:54:26Z</time>
      </trkpt>
      <trkpt lat="45.97786" lon="4.87412">
        <ele>284</ele>
        <time>2017-06-24T09:54:27Z</time>
      </trkpt>
      <trkpt lat="45.97781" lon="4.87403">
        <ele>284</ele>
        <time>2017-06-24T09:54:29Z</time>
      </trkpt>
      <trkpt lat="45.97778" lon="4.87399">
        <ele>284</ele>
        <time>2017-06-24T09:54:30Z</time>
      </trkpt>
      <trkpt lat="45.97771" lon="4.87391">
        <ele>284</ele>
        <time>2017-06-24T09:54:32Z</time>
      </trkpt>
      <trkpt lat="45.97768" lon="4.87387">
        <ele>284</ele>
        <time>2017-06-24T09:54:33Z</time>
      </trkpt>
      <trkpt lat="45.97765" lon="4.87382">
        <ele>284</ele>
        <time>2017-06-24T09:54:34Z</time>
      </trkpt>
      <trkpt lat="45.97761" lon="4.87378">
        <ele>284</ele>
        <time>2017-06-24T09:54:35Z</time>
      </trkpt>
      <trkpt lat="45.97758" lon="4.87374">
        <ele>285</ele>
        <time>2017-06-24T09:54:36Z</time>
      </trkpt>
      <trkpt lat="45.97754" lon="4.87369">
        <ele>285</ele>
        <time>2017-06-24T09:54:37Z</time>
      </trkpt>
      <trkpt lat="45.97749" lon="4.8736">
        <ele>285</ele>
        <time>2017-06-24T09:54:39Z</time>
      </trkpt>
      <trkpt lat="45.97746" lon="4.87356">
        <ele>286</ele>
        <time>2017-06-24T09:54:40Z</time>
      </trkpt>
      <trkpt lat="45.9774" lon="4.87349">
        <ele>286</ele>
        <time>2017-06-24T09:54:42Z</time>
      </trkpt>
      <trkpt lat="45.97738" lon="4.87345">
        <ele>286</ele>
        <time>2017-06-24T09:54:43Z</time>
      </trkpt>
      <trkpt lat="45.97732" lon="4.87337">
        <ele>286</ele>
        <time>2017-06-24T09:54:45Z</time>
      </trkpt>
      <trkpt lat="45.97729" lon="4.87332">
        <ele>286</ele>
        <time>2017-06-24T09:54:46Z</time>
      </trkpt>
      <trkpt lat="45.97722" lon="4.87324">
        <ele>286</ele>
        <time>2017-06-24T09:54:48Z</time>
      </trkpt>
      <trkpt lat="45.97719" lon="4.8732">
        <ele>286</ele>
        <time>2017-06-24T09:54:49Z</time>
      </trkpt>
      <trkpt lat="45.97712" lon="4.87313">
        <ele>286</ele>
        <time>2017-06-24T09:54:51Z</time>
      </trkpt>
      <trkpt lat="45.97708" lon="4.87309">
        <ele>286</ele>
        <time>2017-06-24T09:54:52Z</time>
      </trkpt>
      <trkpt lat="45.97701" lon="4.87301">
        <ele>286</ele>
        <time>2017-06-24T09:54:54Z</time>
      </trkpt>
      <trkpt lat="45.97698" lon="4.87297">
        <ele>286</ele>
        <time>2017-06-24T09:54:55Z</time>
      </trkpt>
      <trkpt lat="45.97691" lon="4.8729">
        <ele>286</ele>
        <time>2017-06-24T09:54:57Z</time>
      </trkpt>
      <trkpt lat="45.97688" lon="4.87286">
        <ele>286</ele>
        <time>2017-06-24T09:54:58Z</time>
      </trkpt>
      <trkpt lat="45.97681" lon="4.87279">
        <ele>286</ele>
        <time>2017-06-24T09:55:00Z</time>
      </trkpt>
      <trkpt lat="45.97678" lon="4.87276">
        <ele>286</ele>
        <time>2017-06-24T09:55:01Z</time>
      </trkpt>
      <trkpt lat="45.97671" lon="4.8727">
        <ele>286</ele>
        <time>2017-06-24T09:55:03Z</time>
      </trkpt>
      <trkpt lat="45.97668" lon="4.87267">
        <ele>286</ele>
        <time>2017-06-24T09:55:04Z</time>
      </trkpt>
      <trkpt lat="45.97662" lon="4.87261">
        <ele>285</ele>
        <time>2017-06-24T09:55:06Z</time>
      </trkpt>
      <trkpt lat="45.97659" lon="4.87258">
        <ele>286</ele>
        <time>2017-06-24T09:55:07Z</time>
      </trkpt>
      <trkpt lat="45.97654" lon="4.87253">
        <ele>285</ele>
        <time>2017-06-24T09:55:09Z</time>
      </trkpt>
      <trkpt lat="45.9765" lon="4.8725">
        <ele>285</ele>
        <time>2017-06-24T09:55:10Z</time>
      </trkpt>
      <trkpt lat="45.97646" lon="4.87246">
        <ele>285</ele>
        <time>2017-06-24T09:55:11Z</time>
      </trkpt>
      <trkpt lat="45.97642" lon="4.87242">
        <ele>284</ele>
        <time>2017-06-24T09:55:12Z</time>
      </trkpt>
      <trkpt lat="45.97636" lon="4.87238">
        <ele>284</ele>
        <time>2017-06-24T09:55:13Z</time>
      </trkpt>
      <trkpt lat="45.97631" lon="4.87233">
        <ele>284</ele>
        <time>2017-06-24T09:55:14Z</time>
      </trkpt>
      <trkpt lat="45.97626" lon="4.87229">
        <ele>284</ele>
        <time>2017-06-24T09:55:15Z</time>
      </trkpt>
      <trkpt lat="45.97622" lon="4.87225">
        <ele>284</ele>
        <time>2017-06-24T09:55:16Z</time>
      </trkpt>
      <trkpt lat="45.97618" lon="4.87221">
        <ele>284</ele>
        <time>2017-06-24T09:55:17Z</time>
      </trkpt>
      <trkpt lat="45.97614" lon="4.87217">
        <ele>284</ele>
        <time>2017-06-24T09:55:18Z</time>
      </trkpt>
      <trkpt lat="45.9761" lon="4.87213">
        <ele>284</ele>
        <time>2017-06-24T09:55:19Z</time>
      </trkpt>
      <trkpt lat="45.97606" lon="4.87209">
        <ele>284</ele>
        <time>2017-06-24T09:55:20Z</time>
      </trkpt>
      <trkpt lat="45.97602" lon="4.87205">
        <ele>284</ele>
        <time>2017-06-24T09:55:21Z</time>
      </trkpt>
      <trkpt lat="45.97598" lon="4.87202">
        <ele>284</ele>
        <time>2017-06-24T09:55:22Z</time>
      </trkpt>
      <trkpt lat="45.97594" lon="4.87198">
        <ele>283</ele>
        <time>2017-06-24T09:55:23Z</time>
      </trkpt>
      <trkpt lat="45.9759" lon="4.87194">
        <ele>283</ele>
        <time>2017-06-24T09:55:24Z</time>
      </trkpt>
      <trkpt lat="45.97585" lon="4.8719">
        <ele>283</ele>
        <time>2017-06-24T09:55:25Z</time>
      </trkpt>
      <trkpt lat="45.97581" lon="4.87186">
        <ele>283</ele>
        <time>2017-06-24T09:55:26Z</time>
      </trkpt>
      <trkpt lat="45.97574" lon="4.87182">
        <ele>283</ele>
        <time>2017-06-24T09:55:27Z</time>
      </trkpt>
      <trkpt lat="45.97569" lon="4.87177">
        <ele>283</ele>
        <time>2017-06-24T09:55:28Z</time>
      </trkpt>
      <trkpt lat="45.97564" lon="4.87172">
        <ele>283</ele>
        <time>2017-06-24T09:55:29Z</time>
      </trkpt>
      <trkpt lat="45.97558" lon="4.87167">
        <ele>283</ele>
        <time>2017-06-24T09:55:30Z</time>
      </trkpt>
      <trkpt lat="45.97553" lon="4.87162">
        <ele>283</ele>
        <time>2017-06-24T09:55:31Z</time>
      </trkpt>
      <trkpt lat="45.97549" lon="4.87157">
        <ele>283</ele>
        <time>2017-06-24T09:55:32Z</time>
      </trkpt>
      <trkpt lat="45.97545" lon="4.87154">
        <ele>283</ele>
        <time>2017-06-24T09:55:33Z</time>
      </trkpt>
      <trkpt lat="45.97541" lon="4.8715">
        <ele>283</ele>
        <time>2017-06-24T09:55:34Z</time>
      </trkpt>
      <trkpt lat="45.97537" lon="4.87146">
        <ele>283</ele>
        <time>2017-06-24T09:55:35Z</time>
      </trkpt>
      <trkpt lat="45.97533" lon="4.87141">
        <ele>283</ele>
        <time>2017-06-24T09:55:36Z</time>
      </trkpt>
      <trkpt lat="45.97529" lon="4.87137">
        <ele>283</ele>
        <time>2017-06-24T09:55:37Z</time>
      </trkpt>
      <trkpt lat="45.97525" lon="4.87133">
        <ele>283</ele>
        <time>2017-06-24T09:55:38Z</time>
      </trkpt>
      <trkpt lat="45.97521" lon="4.87128">
        <ele>283</ele>
        <time>2017-06-24T09:55:39Z</time>
      </trkpt>
      <trkpt lat="45.97517" lon="4.87125">
        <ele>283</ele>
        <time>2017-06-24T09:55:40Z</time>
      </trkpt>
      <trkpt lat="45.97513" lon="4.87121">
        <ele>283</ele>
        <time>2017-06-24T09:55:41Z</time>
      </trkpt>
      <trkpt lat="45.97509" lon="4.87117">
        <ele>283</ele>
        <time>2017-06-24T09:55:42Z</time>
      </trkpt>
      <trkpt lat="45.97504" lon="4.87114">
        <ele>283</ele>
        <time>2017-06-24T09:55:43Z</time>
      </trkpt>
      <trkpt lat="45.975" lon="4.87109">
        <ele>283</ele>
        <time>2017-06-24T09:55:44Z</time>
      </trkpt>
      <trkpt lat="45.97496" lon="4.87105">
        <ele>283</ele>
        <time>2017-06-24T09:55:45Z</time>
      </trkpt>
      <trkpt lat="45.97492" lon="4.87101">
        <ele>283</ele>
        <time>2017-06-24T09:55:46Z</time>
      </trkpt>
      <trkpt lat="45.97488" lon="4.87097">
        <ele>283</ele>
        <time>2017-06-24T09:55:47Z</time>
      </trkpt>
      <trkpt lat="45.97484" lon="4.87093">
        <ele>283</ele>
        <time>2017-06-24T09:55:48Z</time>
      </trkpt>
      <trkpt lat="45.97478" lon="4.87085">
        <ele>283</ele>
        <time>2017-06-24T09:55:50Z</time>
      </trkpt>
      <trkpt lat="45.97474" lon="4.87082">
        <ele>284</ele>
        <time>2017-06-24T09:55:51Z</time>
      </trkpt>
      <trkpt lat="45.97468" lon="4.87075">
        <ele>284</ele>
        <time>2017-06-24T09:55:53Z</time>
      </trkpt>
      <trkpt lat="45.97465" lon="4.87071">
        <ele>284</ele>
        <time>2017-06-24T09:55:54Z</time>
      </trkpt>
      <trkpt lat="45.97458" lon="4.87063">
        <ele>284</ele>
        <time>2017-06-24T09:55:56Z</time>
      </trkpt>
      <trkpt lat="45.97454" lon="4.87059">
        <ele>284</ele>
        <time>2017-06-24T09:55:57Z</time>
      </trkpt>
      <trkpt lat="45.9745" lon="4.87054">
        <ele>284</ele>
        <time>2017-06-24T09:55:58Z</time>
      </trkpt>
      <trkpt lat="45.97445" lon="4.87049">
        <ele>284</ele>
        <time>2017-06-24T09:55:59Z</time>
      </trkpt>
      <trkpt lat="45.97441" lon="4.87044">
        <ele>284</ele>
        <time>2017-06-24T09:56:00Z</time>
      </trkpt>
      <trkpt lat="45.97437" lon="4.87039">
        <ele>284</ele>
        <time>2017-06-24T09:56:01Z</time>
      </trkpt>
      <trkpt lat="45.97432" lon="4.87034">
        <ele>284</ele>
        <time>2017-06-24T09:56:02Z</time>
      </trkpt>
      <trkpt lat="45.97428" lon="4.87029">
        <ele>284</ele>
        <time>2017-06-24T09:56:03Z</time>
      </trkpt>
      <trkpt lat="45.97423" lon="4.87024">
        <ele>284</ele>
        <time>2017-06-24T09:56:04Z</time>
      </trkpt>
      <trkpt lat="45.97418" lon="4.87019">
        <ele>284</ele>
        <time>2017-06-24T09:56:05Z</time>
      </trkpt>
      <trkpt lat="45.97414" lon="4.87014">
        <ele>285</ele>
        <time>2017-06-24T09:56:06Z</time>
      </trkpt>
      <trkpt lat="45.97409" lon="4.8701">
        <ele>285</ele>
        <time>2017-06-24T09:56:07Z</time>
      </trkpt>
      <trkpt lat="45.97405" lon="4.87006">
        <ele>285</ele>
        <time>2017-06-24T09:56:08Z</time>
      </trkpt>
      <trkpt lat="45.97401" lon="4.87002">
        <ele>285</ele>
        <time>2017-06-24T09:56:09Z</time>
      </trkpt>
      <trkpt lat="45.97396" lon="4.86998">
        <ele>285</ele>
        <time>2017-06-24T09:56:10Z</time>
      </trkpt>
      <trkpt lat="45.97392" lon="4.86994">
        <ele>285</ele>
        <time>2017-06-24T09:56:11Z</time>
      </trkpt>
      <trkpt lat="45.97389" lon="4.86991">
        <ele>285</ele>
        <time>2017-06-24T09:56:12Z</time>
      </trkpt>
      <trkpt lat="45.97384" lon="4.86987">
        <ele>285</ele>
        <time>2017-06-24T09:56:13Z</time>
      </trkpt>
      <trkpt lat="45.97377" lon="4.86978">
        <ele>285</ele>
        <time>2017-06-24T09:56:15Z</time>
      </trkpt>
      <trkpt lat="45.97373" lon="4.86974">
        <ele>285</ele>
        <time>2017-06-24T09:56:16Z</time>
      </trkpt>
      <trkpt lat="45.97369" lon="4.86969">
        <ele>285</ele>
        <time>2017-06-24T09:56:17Z</time>
      </trkpt>
      <trkpt lat="45.97365" lon="4.86964">
        <ele>285</ele>
        <time>2017-06-24T09:56:18Z</time>
      </trkpt>
      <trkpt lat="45.9736" lon="4.86959">
        <ele>285</ele>
        <time>2017-06-24T09:56:19Z</time>
      </trkpt>
      <trkpt lat="45.97356" lon="4.86954">
        <ele>284</ele>
        <time>2017-06-24T09:56:20Z</time>
      </trkpt>
      <trkpt lat="45.97352" lon="4.86949">
        <ele>284</ele>
        <time>2017-06-24T09:56:21Z</time>
      </trkpt>
      <trkpt lat="45.97348" lon="4.86944">
        <ele>284</ele>
        <time>2017-06-24T09:56:22Z</time>
      </trkpt>
      <trkpt lat="45.97344" lon="4.8694">
        <ele>284</ele>
        <time>2017-06-24T09:56:23Z</time>
      </trkpt>
      <trkpt lat="45.9734" lon="4.86934">
        <ele>284</ele>
        <time>2017-06-24T09:56:24Z</time>
      </trkpt>
      <trkpt lat="45.97335" lon="4.86929">
        <ele>284</ele>
        <time>2017-06-24T09:56:25Z</time>
      </trkpt>
      <trkpt lat="45.97331" lon="4.86924">
        <ele>284</ele>
        <time>2017-06-24T09:56:26Z</time>
      </trkpt>
      <trkpt lat="45.97327" lon="4.86918">
        <ele>284</ele>
        <time>2017-06-24T09:56:27Z</time>
      </trkpt>
      <trkpt lat="45.97323" lon="4.86913">
        <ele>284</ele>
        <time>2017-06-24T09:56:28Z</time>
      </trkpt>
      <trkpt lat="45.9732" lon="4.86907">
        <ele>284</ele>
        <time>2017-06-24T09:56:29Z</time>
      </trkpt>
      <trkpt lat="45.97316" lon="4.86902">
        <ele>284</ele>
        <time>2017-06-24T09:56:30Z</time>
      </trkpt>
      <trkpt lat="45.97312" lon="4.86897">
        <ele>284</ele>
        <time>2017-06-24T09:56:31Z</time>
      </trkpt>
      <trkpt lat="45.97309" lon="4.86892">
        <ele>284</ele>
        <time>2017-06-24T09:56:32Z</time>
      </trkpt>
      <trkpt lat="45.97306" lon="4.86887">
        <ele>284</ele>
        <time>2017-06-24T09:56:33Z</time>
      </trkpt>
      <trkpt lat="45.97302" lon="4.86882">
        <ele>284</ele>
        <time>2017-06-24T09:56:34Z</time>
      </trkpt>
      <trkpt lat="45.97299" lon="4.86877">
        <ele>284</ele>
        <time>2017-06-24T09:56:35Z</time>
      </trkpt>
      <trkpt lat="45.97295" lon="4.86872">
        <ele>284</ele>
        <time>2017-06-24T09:56:36Z</time>
      </trkpt>
      <trkpt lat="45.97291" lon="4.86867">
        <ele>285</ele>
        <time>2017-06-24T09:56:37Z</time>
      </trkpt>
      <trkpt lat="45.97288" lon="4.86863">
        <ele>285</ele>
        <time>2017-06-24T09:56:38Z</time>
      </trkpt>
      <trkpt lat="45.97285" lon="4.86858">
        <ele>285</ele>
        <time>2017-06-24T09:56:39Z</time>
      </trkpt>
      <trkpt lat="45.97281" lon="4.86852">
        <ele>285</ele>
        <time>2017-06-24T09:56:40Z</time>
      </trkpt>
      <trkpt lat="45.97278" lon="4.86847">
        <ele>285</ele>
        <time>2017-06-24T09:56:41Z</time>
      </trkpt>
      <trkpt lat="45.97275" lon="4.86841">
        <ele>285</ele>
        <time>2017-06-24T09:56:42Z</time>
      </trkpt>
      <trkpt lat="45.97272" lon="4.86835">
        <ele>285</ele>
        <time>2017-06-24T09:56:43Z</time>
      </trkpt>
      <trkpt lat="45.97269" lon="4.86829">
        <ele>285</ele>
        <time>2017-06-24T09:56:44Z</time>
      </trkpt>
      <trkpt lat="45.97265" lon="4.86823">
        <ele>285</ele>
        <time>2017-06-24T09:56:45Z</time>
      </trkpt>
      <trkpt lat="45.97262" lon="4.86817">
        <ele>285</ele>
        <time>2017-06-24T09:56:46Z</time>
      </trkpt>
      <trkpt lat="45.97258" lon="4.86813">
        <ele>285</ele>
        <time>2017-06-24T09:56:47Z</time>
      </trkpt>
      <trkpt lat="45.97255" lon="4.86808">
        <ele>285</ele>
        <time>2017-06-24T09:56:48Z</time>
      </trkpt>
      <trkpt lat="45.97252" lon="4.86804">
        <ele>285</ele>
        <time>2017-06-24T09:56:49Z</time>
      </trkpt>
      <trkpt lat="45.97248" lon="4.868">
        <ele>284</ele>
        <time>2017-06-24T09:56:50Z</time>
      </trkpt>
      <trkpt lat="45.97244" lon="4.86796">
        <ele>284</ele>
        <time>2017-06-24T09:56:51Z</time>
      </trkpt>
      <trkpt lat="45.97239" lon="4.86793">
        <ele>284</ele>
        <time>2017-06-24T09:56:52Z</time>
      </trkpt>
      <trkpt lat="45.97234" lon="4.86792">
        <ele>284</ele>
        <time>2017-06-24T09:56:53Z</time>
      </trkpt>
      <trkpt lat="45.97229" lon="4.8679">
        <ele>284</ele>
        <time>2017-06-24T09:56:54Z</time>
      </trkpt>
      <trkpt lat="45.97224" lon="4.86789">
        <ele>284</ele>
        <time>2017-06-24T09:56:55Z</time>
      </trkpt>
      <trkpt lat="45.97219" lon="4.86789">
        <ele>284</ele>
        <time>2017-06-24T09:56:56Z</time>
      </trkpt>
      <trkpt lat="45.97213" lon="4.8679">
        <ele>284</ele>
        <time>2017-06-24T09:56:57Z</time>
      </trkpt>
      <trkpt lat="45.97208" lon="4.86792">
        <ele>284</ele>
        <time>2017-06-24T09:56:58Z</time>
      </trkpt>
      <trkpt lat="45.97203" lon="4.86793">
        <ele>284</ele>
        <time>2017-06-24T09:56:59Z</time>
      </trkpt>
      <trkpt lat="45.97197" lon="4.86796">
        <ele>284</ele>
        <time>2017-06-24T09:57:00Z</time>
      </trkpt>
      <trkpt lat="45.97191" lon="4.86798">
        <ele>284</ele>
        <time>2017-06-24T09:57:01Z</time>
      </trkpt>
      <trkpt lat="45.97185" lon="4.868">
        <ele>284</ele>
        <time>2017-06-24T09:57:02Z</time>
      </trkpt>
      <trkpt lat="45.97179" lon="4.86802">
        <ele>284</ele>
        <time>2017-06-24T09:57:03Z</time>
      </trkpt>
      <trkpt lat="45.97174" lon="4.86804">
        <ele>283</ele>
        <time>2017-06-24T09:57:04Z</time>
      </trkpt>
      <trkpt lat="45.97169" lon="4.86806">
        <ele>283</ele>
        <time>2017-06-24T09:57:05Z</time>
      </trkpt>
      <trkpt lat="45.97164" lon="4.86809">
        <ele>283</ele>
        <time>2017-06-24T09:57:06Z</time>
      </trkpt>
      <trkpt lat="45.9716" lon="4.86811">
        <ele>283</ele>
        <time>2017-06-24T09:57:07Z</time>
      </trkpt>
      <trkpt lat="45.97155" lon="4.86814">
        <ele>283</ele>
        <time>2017-06-24T09:57:08Z</time>
      </trkpt>
      <trkpt lat="45.9715" lon="4.86816">
        <ele>283</ele>
        <time>2017-06-24T09:57:09Z</time>
      </trkpt>
      <trkpt lat="45.97146" lon="4.86818">
        <ele>283</ele>
        <time>2017-06-24T09:57:10Z</time>
      </trkpt>
      <trkpt lat="45.97141" lon="4.8682">
        <ele>283</ele>
        <time>2017-06-24T09:57:11Z</time>
      </trkpt>
      <trkpt lat="45.97136" lon="4.86822">
        <ele>283</ele>
        <time>2017-06-24T09:57:12Z</time>
      </trkpt>
      <trkpt lat="45.97131" lon="4.86824">
        <ele>283</ele>
        <time>2017-06-24T09:57:13Z</time>
      </trkpt>
      <trkpt lat="45.97127" lon="4.86825">
        <ele>283</ele>
        <time>2017-06-24T09:57:14Z</time>
      </trkpt>
      <trkpt lat="45.97122" lon="4.86827">
        <ele>283</ele>
        <time>2017-06-24T09:57:15Z</time>
      </trkpt>
      <trkpt lat="45.97117" lon="4.86829">
        <ele>283</ele>
        <time>2017-06-24T09:57:16Z</time>
      </trkpt>
      <trkpt lat="45.97113" lon="4.8683">
        <ele>283</ele>
        <time>2017-06-24T09:57:17Z</time>
      </trkpt>
      <trkpt lat="45.97108" lon="4.86832">
        <ele>284</ele>
        <time>2017-06-24T09:57:18Z</time>
      </trkpt>
      <trkpt lat="45.97103" lon="4.86833">
        <ele>284</ele>
        <time>2017-06-24T09:57:19Z</time>
      </trkpt>
      <trkpt lat="45.97098" lon="4.86834">
        <ele>284</ele>
        <time>2017-06-24T09:57:20Z</time>
      </trkpt>
      <trkpt lat="45.97094" lon="4.86835">
        <ele>284</ele>
        <time>2017-06-24T09:57:21Z</time>
      </trkpt>
      <trkpt lat="45.97089" lon="4.86836">
        <ele>284</ele>
        <time>2017-06-24T09:57:22Z</time>
      </trkpt>
      <trkpt lat="45.97084" lon="4.86837">
        <ele>284</ele>
        <time>2017-06-24T09:57:23Z</time>
      </trkpt>
      <trkpt lat="45.97079" lon="4.86838">
        <ele>284</ele>
        <time>2017-06-24T09:57:24Z</time>
      </trkpt>
      <trkpt lat="45.97071" lon="4.86839">
        <ele>284</ele>
        <time>2017-06-24T09:57:26Z</time>
      </trkpt>
      <trkpt lat="45.97066" lon="4.86839">
        <ele>284</ele>
        <time>2017-06-24T09:57:27Z</time>
      </trkpt>
      <trkpt lat="45.97061" lon="4.8684">
        <ele>284</ele>
        <time>2017-06-24T09:57:28Z</time>
      </trkpt>
      <trkpt lat="45.97057" lon="4.86841">
        <ele>285</ele>
        <time>2017-06-24T09:57:29Z</time>
      </trkpt>
      <trkpt lat="45.97052" lon="4.86841">
        <ele>285</ele>
        <time>2017-06-24T09:57:30Z</time>
      </trkpt>
      <trkpt lat="45.97046" lon="4.86842">
        <ele>285</ele>
        <time>2017-06-24T09:57:31Z</time>
      </trkpt>
      <trkpt lat="45.97041" lon="4.86843">
        <ele>285</ele>
        <time>2017-06-24T09:57:32Z</time>
      </trkpt>
      <trkpt lat="45.97037" lon="4.86844">
        <ele>285</ele>
        <time>2017-06-24T09:57:33Z</time>
      </trkpt>
      <trkpt lat="45.97028" lon="4.86845">
        <ele>285</ele>
        <time>2017-06-24T09:57:35Z</time>
      </trkpt>
      <trkpt lat="45.97024" lon="4.86845">
        <ele>285</ele>
        <time>2017-06-24T09:57:36Z</time>
      </trkpt>
      <trkpt lat="45.97016" lon="4.86845">
        <ele>285</ele>
        <time>2017-06-24T09:57:38Z</time>
      </trkpt>
      <trkpt lat="45.97012" lon="4.86845">
        <ele>285</ele>
        <time>2017-06-24T09:57:39Z</time>
      </trkpt>
      <trkpt lat="45.97003" lon="4.86846">
        <ele>285</ele>
        <time>2017-06-24T09:57:41Z</time>
      </trkpt>
      <trkpt lat="45.96998" lon="4.86845">
        <ele>286</ele>
        <time>2017-06-24T09:57:42Z</time>
      </trkpt>
      <trkpt lat="45.96993" lon="4.86845">
        <ele>286</ele>
        <time>2017-06-24T09:57:43Z</time>
      </trkpt>
      <trkpt lat="45.96988" lon="4.86844">
        <ele>286</ele>
        <time>2017-06-24T09:57:44Z</time>
      </trkpt>
      <trkpt lat="45.96982" lon="4.86843">
        <ele>286</ele>
        <time>2017-06-24T09:57:45Z</time>
      </trkpt>
      <trkpt lat="45.96976" lon="4.86841">
        <ele>286</ele>
        <time>2017-06-24T09:57:46Z</time>
      </trkpt>
      <trkpt lat="45.9697" lon="4.86839">
        <ele>286</ele>
        <time>2017-06-24T09:57:47Z</time>
      </trkpt>
      <trkpt lat="45.96964" lon="4.86837">
        <ele>287</ele>
        <time>2017-06-24T09:57:48Z</time>
      </trkpt>
      <trkpt lat="45.96959" lon="4.86835">
        <ele>287</ele>
        <time>2017-06-24T09:57:49Z</time>
      </trkpt>
      <trkpt lat="45.96954" lon="4.86833">
        <ele>286</ele>
        <time>2017-06-24T09:57:50Z</time>
      </trkpt>
      <trkpt lat="45.96949" lon="4.8683">
        <ele>287</ele>
        <time>2017-06-24T09:57:51Z</time>
      </trkpt>
      <trkpt lat="45.96944" lon="4.86828">
        <ele>287</ele>
        <time>2017-06-24T09:57:52Z</time>
      </trkpt>
      <trkpt lat="45.9694" lon="4.86825">
        <ele>287</ele>
        <time>2017-06-24T09:57:53Z</time>
      </trkpt>
      <trkpt lat="45.96935" lon="4.86822">
        <ele>287</ele>
        <time>2017-06-24T09:57:54Z</time>
      </trkpt>
      <trkpt lat="45.9693" lon="4.86819">
        <ele>287</ele>
        <time>2017-06-24T09:57:55Z</time>
      </trkpt>
      <trkpt lat="45.96925" lon="4.86815">
        <ele>287</ele>
        <time>2017-06-24T09:57:56Z</time>
      </trkpt>
      <trkpt lat="45.9692" lon="4.86812">
        <ele>287</ele>
        <time>2017-06-24T09:57:57Z</time>
      </trkpt>
      <trkpt lat="45.96915" lon="4.86808">
        <ele>288</ele>
        <time>2017-06-24T09:57:58Z</time>
      </trkpt>
      <trkpt lat="45.9691" lon="4.86804">
        <ele>288</ele>
        <time>2017-06-24T09:57:59Z</time>
      </trkpt>
      <trkpt lat="45.96905" lon="4.868">
        <ele>289</ele>
        <time>2017-06-24T09:58:00Z</time>
      </trkpt>
      <trkpt lat="45.96901" lon="4.86796">
        <ele>289</ele>
        <time>2017-06-24T09:58:01Z</time>
      </trkpt>
      <trkpt lat="45.96896" lon="4.86791">
        <ele>289</ele>
        <time>2017-06-24T09:58:02Z</time>
      </trkpt>
      <trkpt lat="45.96889" lon="4.86784">
        <ele>289</ele>
        <time>2017-06-24T09:58:04Z</time>
      </trkpt>
      <trkpt lat="45.96885" lon="4.86781">
        <ele>289</ele>
        <time>2017-06-24T09:58:05Z</time>
      </trkpt>
      <trkpt lat="45.96882" lon="4.86777">
        <ele>289</ele>
        <time>2017-06-24T09:58:06Z</time>
      </trkpt>
      <trkpt lat="45.96878" lon="4.86772">
        <ele>289</ele>
        <time>2017-06-24T09:58:07Z</time>
      </trkpt>
      <trkpt lat="45.96874" lon="4.86768">
        <ele>289</ele>
        <time>2017-06-24T09:58:08Z</time>
      </trkpt>
      <trkpt lat="45.96869" lon="4.86764">
        <ele>289</ele>
        <time>2017-06-24T09:58:09Z</time>
      </trkpt>
      <trkpt lat="45.96864" lon="4.8676">
        <ele>289</ele>
        <time>2017-06-24T09:58:10Z</time>
      </trkpt>
      <trkpt lat="45.9686" lon="4.86755">
        <ele>289</ele>
        <time>2017-06-24T09:58:11Z</time>
      </trkpt>
      <trkpt lat="45.96856" lon="4.86751">
        <ele>289</ele>
        <time>2017-06-24T09:58:12Z</time>
      </trkpt>
      <trkpt lat="45.96852" lon="4.86748">
        <ele>288</ele>
        <time>2017-06-24T09:58:13Z</time>
      </trkpt>
      <trkpt lat="45.96848" lon="4.86744">
        <ele>289</ele>
        <time>2017-06-24T09:58:14Z</time>
      </trkpt>
      <trkpt lat="45.96845" lon="4.8674">
        <ele>289</ele>
        <time>2017-06-24T09:58:15Z</time>
      </trkpt>
      <trkpt lat="45.96838" lon="4.86733">
        <ele>288</ele>
        <time>2017-06-24T09:58:17Z</time>
      </trkpt>
      <trkpt lat="45.96834" lon="4.8673">
        <ele>288</ele>
        <time>2017-06-24T09:58:18Z</time>
      </trkpt>
      <trkpt lat="45.96828" lon="4.86723">
        <ele>289</ele>
        <time>2017-06-24T09:58:20Z</time>
      </trkpt>
      <trkpt lat="45.96825" lon="4.8672">
        <ele>289</ele>
        <time>2017-06-24T09:58:21Z</time>
      </trkpt>
      <trkpt lat="45.96817" lon="4.86714">
        <ele>289</ele>
        <time>2017-06-24T09:58:23Z</time>
      </trkpt>
      <trkpt lat="45.96813" lon="4.86711">
        <ele>289</ele>
        <time>2017-06-24T09:58:24Z</time>
      </trkpt>
      <trkpt lat="45.96809" lon="4.86707">
        <ele>289</ele>
        <time>2017-06-24T09:58:25Z</time>
      </trkpt>
      <trkpt lat="45.96805" lon="4.86704">
        <ele>289</ele>
        <time>2017-06-24T09:58:26Z</time>
      </trkpt>
      <trkpt lat="45.96801" lon="4.867">
        <ele>289</ele>
        <time>2017-06-24T09:58:27Z</time>
      </trkpt>
      <trkpt lat="45.96797" lon="4.86696">
        <ele>289</ele>
        <time>2017-06-24T09:58:28Z</time>
      </trkpt>
      <trkpt lat="45.9679" lon="4.86689">
        <ele>289</ele>
        <time>2017-06-24T09:58:30Z</time>
      </trkpt>
      <trkpt lat="45.96786" lon="4.86686">
        <ele>289</ele>
        <time>2017-06-24T09:58:31Z</time>
      </trkpt>
      <trkpt lat="45.9678" lon="4.86679">
        <ele>289</ele>
        <time>2017-06-24T09:58:33Z</time>
      </trkpt>
      <trkpt lat="45.96778" lon="4.86675">
        <ele>289</ele>
        <time>2017-06-24T09:58:34Z</time>
      </trkpt>
      <trkpt lat="45.96773" lon="4.86667">
        <ele>289</ele>
        <time>2017-06-24T09:58:36Z</time>
      </trkpt>
      <trkpt lat="45.9677" lon="4.86663">
        <ele>290</ele>
        <time>2017-06-24T09:58:37Z</time>
      </trkpt>
      <trkpt lat="45.96766" lon="4.86654">
        <ele>290</ele>
        <time>2017-06-24T09:58:39Z</time>
      </trkpt>
      <trkpt lat="45.96764" lon="4.86651">
        <ele>290</ele>
        <time>2017-06-24T09:58:40Z</time>
      </trkpt>
      <trkpt lat="45.96759" lon="4.86645">
        <ele>290</ele>
        <time>2017-06-24T09:58:42Z</time>
      </trkpt>
      <trkpt lat="45.96755" lon="4.86644">
        <ele>290</ele>
        <time>2017-06-24T09:58:43Z</time>
      </trkpt>
      <trkpt lat="45.96747" lon="4.86649">
        <ele>290</ele>
        <time>2017-06-24T09:58:45Z</time>
      </trkpt>
      <trkpt lat="45.96745" lon="4.86654">
        <ele>290</ele>
        <time>2017-06-24T09:58:46Z</time>
      </trkpt>
      <trkpt lat="45.96742" lon="4.86659">
        <ele>290</ele>
        <time>2017-06-24T09:58:47Z</time>
      </trkpt>
      <trkpt lat="45.96739" lon="4.86664">
        <ele>290</ele>
        <time>2017-06-24T09:58:48Z</time>
      </trkpt>
      <trkpt lat="45.96736" lon="4.86669">
        <ele>290</ele>
        <time>2017-06-24T09:58:49Z</time>
      </trkpt>
      <trkpt lat="45.96733" lon="4.86675">
        <ele>290</ele>
        <time>2017-06-24T09:58:50Z</time>
      </trkpt>
      <trkpt lat="45.96729" lon="4.8668">
        <ele>289</ele>
        <time>2017-06-24T09:58:51Z</time>
      </trkpt>
      <trkpt lat="45.96726" lon="4.86686">
        <ele>289</ele>
        <time>2017-06-24T09:58:52Z</time>
      </trkpt>
      <trkpt lat="45.96722" lon="4.86691">
        <ele>289</ele>
        <time>2017-06-24T09:58:53Z</time>
      </trkpt>
      <trkpt lat="45.96719" lon="4.86696">
        <ele>289</ele>
        <time>2017-06-24T09:58:54Z</time>
      </trkpt>
      <trkpt lat="45.96715" lon="4.86702">
        <ele>289</ele>
        <time>2017-06-24T09:58:55Z</time>
      </trkpt>
      <trkpt lat="45.96712" lon="4.86708">
        <ele>289</ele>
        <time>2017-06-24T09:58:56Z</time>
      </trkpt>
      <trkpt lat="45.96709" lon="4.86713">
        <ele>289</ele>
        <time>2017-06-24T09:58:57Z</time>
      </trkpt>
      <trkpt lat="45.96705" lon="4.86719">
        <ele>289</ele>
        <time>2017-06-24T09:58:58Z</time>
      </trkpt>
      <trkpt lat="45.96701" lon="4.86724">
        <ele>289</ele>
        <time>2017-06-24T09:58:59Z</time>
      </trkpt>
      <trkpt lat="45.96698" lon="4.8673">
        <ele>289</ele>
        <time>2017-06-24T09:59:00Z</time>
      </trkpt>
      <trkpt lat="45.96694" lon="4.86736">
        <ele>289</ele>
        <time>2017-06-24T09:59:01Z</time>
      </trkpt>
      <trkpt lat="45.96691" lon="4.86741">
        <ele>289</ele>
        <time>2017-06-24T09:59:02Z</time>
      </trkpt>
      <trkpt lat="45.96687" lon="4.86747">
        <ele>289</ele>
        <time>2017-06-24T09:59:03Z</time>
      </trkpt>
      <trkpt lat="45.96684" lon="4.86753">
        <ele>289</ele>
        <time>2017-06-24T09:59:04Z</time>
      </trkpt>
      <trkpt lat="45.9668" lon="4.86759">
        <ele>289</ele>
        <time>2017-06-24T09:59:05Z</time>
      </trkpt>
      <trkpt lat="45.96677" lon="4.86765">
        <ele>289</ele>
        <time>2017-06-24T09:59:06Z</time>
      </trkpt>
      <trkpt lat="45.96673" lon="4.86771">
        <ele>289</ele>
        <time>2017-06-24T09:59:07Z</time>
      </trkpt>
      <trkpt lat="45.9667" lon="4.86777">
        <ele>289</ele>
        <time>2017-06-24T09:59:08Z</time>
      </trkpt>
      <trkpt lat="45.96667" lon="4.86783">
        <ele>288</ele>
        <time>2017-06-24T09:59:09Z</time>
      </trkpt>
      <trkpt lat="45.96663" lon="4.86788">
        <ele>288</ele>
        <time>2017-06-24T09:59:10Z</time>
      </trkpt>
      <trkpt lat="45.9666" lon="4.86795">
        <ele>288</ele>
        <time>2017-06-24T09:59:11Z</time>
      </trkpt>
      <trkpt lat="45.96656" lon="4.86801">
        <ele>288</ele>
        <time>2017-06-24T09:59:12Z</time>
      </trkpt>
      <trkpt lat="45.96652" lon="4.86807">
        <ele>288</ele>
        <time>2017-06-24T09:59:13Z</time>
      </trkpt>
      <trkpt lat="45.96649" lon="4.86812">
        <ele>288</ele>
        <time>2017-06-24T09:59:14Z</time>
      </trkpt>
      <trkpt lat="45.96646" lon="4.86818">
        <ele>288</ele>
        <time>2017-06-24T09:59:15Z</time>
      </trkpt>
      <trkpt lat="45.96642" lon="4.86824">
        <ele>288</ele>
        <time>2017-06-24T09:59:16Z</time>
      </trkpt>
      <trkpt lat="45.96639" lon="4.8683">
        <ele>288</ele>
        <time>2017-06-24T09:59:17Z</time>
      </trkpt>
      <trkpt lat="45.96635" lon="4.86836">
        <ele>287</ele>
        <time>2017-06-24T09:59:18Z</time>
      </trkpt>
      <trkpt lat="45.96632" lon="4.86842">
        <ele>287</ele>
        <time>2017-06-24T09:59:19Z</time>
      </trkpt>
      <trkpt lat="45.96628" lon="4.86848">
        <ele>287</ele>
        <time>2017-06-24T09:59:20Z</time>
      </trkpt>
      <trkpt lat="45.96625" lon="4.86854">
        <ele>287</ele>
        <time>2017-06-24T09:59:21Z</time>
      </trkpt>
      <trkpt lat="45.96621" lon="4.8686">
        <ele>287</ele>
        <time>2017-06-24T09:59:22Z</time>
      </trkpt>
      <trkpt lat="45.96617" lon="4.86865">
        <ele>287</ele>
        <time>2017-06-24T09:59:23Z</time>
      </trkpt>
      <trkpt lat="45.96613" lon="4.86871">
        <ele>287</ele>
        <time>2017-06-24T09:59:24Z</time>
      </trkpt>
      <trkpt lat="45.96609" lon="4.86877">
        <ele>287</ele>
        <time>2017-06-24T09:59:25Z</time>
      </trkpt>
      <trkpt lat="45.96605" lon="4.86883">
        <ele>287</ele>
        <time>2017-06-24T09:59:26Z</time>
      </trkpt>
      <trkpt lat="45.96602" lon="4.8689">
        <ele>287</ele>
        <time>2017-06-24T09:59:27Z</time>
      </trkpt>
      <trkpt lat="45.96598" lon="4.86896">
        <ele>286</ele>
        <time>2017-06-24T09:59:28Z</time>
      </trkpt>
      <trkpt lat="45.96594" lon="4.86901">
        <ele>286</ele>
        <time>2017-06-24T09:59:29Z</time>
      </trkpt>
      <trkpt lat="45.9659" lon="4.86908">
        <ele>286</ele>
        <time>2017-06-24T09:59:30Z</time>
      </trkpt>
      <trkpt lat="45.96586" lon="4.86915">
        <ele>285</ele>
        <time>2017-06-24T09:59:31Z</time>
      </trkpt>
      <trkpt lat="45.96583" lon="4.86922">
        <ele>285</ele>
        <time>2017-06-24T09:59:32Z</time>
      </trkpt>
      <trkpt lat="45.96579" lon="4.86928">
        <ele>284</ele>
        <time>2017-06-24T09:59:33Z</time>
      </trkpt>
      <trkpt lat="45.96575" lon="4.86935">
        <ele>284</ele>
        <time>2017-06-24T09:59:34Z</time>
      </trkpt>
      <trkpt lat="45.96571" lon="4.86943">
        <ele>284</ele>
        <time>2017-06-24T09:59:35Z</time>
      </trkpt>
      <trkpt lat="45.96566" lon="4.8695">
        <ele>284</ele>
        <time>2017-06-24T09:59:36Z</time>
      </trkpt>
      <trkpt lat="45.96562" lon="4.86957">
        <ele>283</ele>
        <time>2017-06-24T09:59:37Z</time>
      </trkpt>
      <trkpt lat="45.96557" lon="4.86964">
        <ele>283</ele>
        <time>2017-06-24T09:59:38Z</time>
      </trkpt>
      <trkpt lat="45.96553" lon="4.8697">
        <ele>283</ele>
        <time>2017-06-24T09:59:39Z</time>
      </trkpt>
      <trkpt lat="45.96549" lon="4.86976">
        <ele>283</ele>
        <time>2017-06-24T09:59:40Z</time>
      </trkpt>
      <trkpt lat="45.96543" lon="4.86985">
        <ele>283</ele>
        <time>2017-06-24T09:59:42Z</time>
      </trkpt>
      <trkpt lat="45.96541" lon="4.86989">
        <ele>283</ele>
        <time>2017-06-24T09:59:43Z</time>
      </trkpt>
      <trkpt lat="45.96539" lon="4.86999">
        <ele>283</ele>
        <time>2017-06-24T09:59:45Z</time>
      </trkpt>
      <trkpt lat="45.96539" lon="4.87005">
        <ele>283</ele>
        <time>2017-06-24T09:59:46Z</time>
      </trkpt>
      <trkpt lat="45.96542" lon="4.87013">
        <ele>283</ele>
        <time>2017-06-24T09:59:48Z</time>
      </trkpt>
      <trkpt lat="45.96543" lon="4.87016">
        <ele>283</ele>
        <time>2017-06-24T09:59:49Z</time>
      </trkpt>
      <trkpt lat="45.96548" lon="4.87027">
        <ele>283</ele>
        <time>2017-06-24T10:00:00Z</time>
      </trkpt>
      <trkpt lat="45.96548" lon="4.87028">
        <ele>283</ele>
        <time>2017-06-24T10:00:01Z</time>
      </trkpt>
      <trkpt lat="45.96548" lon="4.87029">
        <ele>283</ele>
        <time>2017-06-24T10:00:02Z</time>
      </trkpt>
      <trkpt lat="45.96549" lon="4.87031">
        <ele>283</ele>
        <time>2017-06-24T10:05:39Z</time>
      </trkpt>
      <trkpt lat="45.96548" lon="4.87025">
        <ele>283</ele>
        <time>2017-06-24T10:05:40Z</time>
      </trkpt>
      <trkpt lat="45.96556" lon="4.87032">
        <ele>283</ele>
        <time>2017-06-24T10:05:49Z</time>
      </trkpt>
      <trkpt lat="45.96557" lon="4.87033">
        <ele>283</ele>
        <time>2017-06-24T10:05:50Z</time>
      </trkpt>
      <trkpt lat="45.96559" lon="4.87045">
        <ele>283</ele>
        <time>2017-06-24T10:05:55Z</time>
      </trkpt>
      <trkpt lat="45.96559" lon="4.87048">
        <ele>283</ele>
        <time>2017-06-24T10:05:56Z</time>
      </trkpt>
      <trkpt lat="45.9656" lon="4.87058">
        <ele>283</ele>
        <time>2017-06-24T10:05:59Z</time>
      </trkpt>
      <trkpt lat="45.9656" lon="4.87061">
        <ele>283</ele>
        <time>2017-06-24T10:06:00Z</time>
      </trkpt>
      <trkpt lat="45.96555" lon="4.8707">
        <ele>283</ele>
        <time>2017-06-24T10:06:04Z</time>
      </trkpt>
      <trkpt lat="45.96553" lon="4.8707">
        <ele>283</ele>
        <time>2017-06-24T10:06:05Z</time>
      </trkpt>
      <trkpt lat="45.96545" lon="4.87068">
        <ele>283</ele>
        <time>2017-06-24T10:06:09Z</time>
      </trkpt>
      <trkpt lat="45.96543" lon="4.87067">
        <ele>283</ele>
        <time>2017-06-24T10:06:10Z</time>
      </trkpt>
      <trkpt lat="45.9654" lon="4.87056">
        <ele>283</ele>
        <time>2017-06-24T10:06:14Z</time>
      </trkpt>
      <trkpt lat="45.9654" lon="4.87054">
        <ele>283</ele>
        <time>2017-06-24T10:06:15Z</time>
      </trkpt>
      <trkpt lat="45.96539" lon="4.87043">
        <ele>283</ele>
        <time>2017-06-24T10:06:18Z</time>
      </trkpt>
      <trkpt lat="45.96538" lon="4.87039">
        <ele>283</ele>
        <time>2017-06-24T10:06:19Z</time>
      </trkpt>
      <trkpt lat="45.96534" lon="4.87028">
        <ele>283</ele>
        <time>2017-06-24T10:06:25Z</time>
      </trkpt>
      <trkpt lat="45.96533" lon="4.87027">
        <ele>283</ele>
        <time>2017-06-24T10:06:26Z</time>
      </trkpt>
      <trkpt lat="45.96533" lon="4.87027">
        <ele>283</ele>
        <time>2017-06-24T10:06:31Z</time>
      </trkpt>
      <trkpt lat="45.96533" lon="4.87026">
        <ele>283</ele>
        <time>2017-06-24T10:06:32Z</time>
      </trkpt>
      <trkpt lat="45.96533" lon="4.87025">
        <ele>283</ele>
        <time>2017-06-24T10:06:33Z</time>
      </trkpt>
      <trkpt lat="45.96533" lon="4.87024">
        <ele>283</ele>
        <time>2017-06-24T10:06:34Z</time>
      </trkpt>
      <trkpt lat="45.96536" lon="4.87013">
        <ele>283</ele>
        <time>2017-06-24T10:06:39Z</time>
      </trkpt>
      <trkpt lat="45.96537" lon="4.8701">
        <ele>283</ele>
        <time>2017-06-24T10:06:40Z</time>
      </trkpt>
      <trkpt lat="45.96541" lon="4.87">
        <ele>283</ele>
        <time>2017-06-24T10:06:43Z</time>
      </trkpt>
      <trkpt lat="45.96543" lon="4.86998">
        <ele>283</ele>
        <time>2017-06-24T10:06:44Z</time>
      </trkpt>
      <trkpt lat="45.96548" lon="4.8699">
        <ele>283</ele>
        <time>2017-06-24T10:06:47Z</time>
      </trkpt>
      <trkpt lat="45.96549" lon="4.86987">
        <ele>283</ele>
        <time>2017-06-24T10:06:48Z</time>
      </trkpt>
      <trkpt lat="45.96554" lon="4.86979">
        <ele>283</ele>
        <time>2017-06-24T10:06:50Z</time>
      </trkpt>
      <trkpt lat="45.96557" lon="4.86975">
        <ele>283</ele>
        <time>2017-06-24T10:06:51Z</time>
      </trkpt>
      <trkpt lat="45.96563" lon="4.86965">
        <ele>283</ele>
        <time>2017-06-24T10:06:53Z</time>
      </trkpt>
      <trkpt lat="45.96566" lon="4.8696">
        <ele>284</ele>
        <time>2017-06-24T10:06:54Z</time>
      </trkpt>
      <trkpt lat="45.96569" lon="4.86955">
        <ele>284</ele>
        <time>2017-06-24T10:06:55Z</time>
      </trkpt>
      <trkpt lat="45.96572" lon="4.86949">
        <ele>284</ele>
        <time>2017-06-24T10:06:56Z</time>
      </trkpt>
      <trkpt lat="45.96576" lon="4.86943">
        <ele>284</ele>
        <time>2017-06-24T10:06:57Z</time>
      </trkpt>
      <trkpt lat="45.96579" lon="4.86938">
        <ele>284</ele>
        <time>2017-06-24T10:06:58Z</time>
      </trkpt>
      <trkpt lat="45.96584" lon="4.86929">
        <ele>285</ele>
        <time>2017-06-24T10:07:00Z</time>
      </trkpt>
      <trkpt lat="45.96587" lon="4.86924">
        <ele>285</ele>
        <time>2017-06-24T10:07:01Z</time>
      </trkpt>
      <trkpt lat="45.96592" lon="4.86915">
        <ele>286</ele>
        <time>2017-06-24T10:07:03Z</time>
      </trkpt>
      <trkpt lat="45.96595" lon="4.86911">
        <ele>286</ele>
        <time>2017-06-24T10:07:04Z</time>
      </trkpt>
      <trkpt lat="45.966" lon="4.86903">
        <ele>286</ele>
        <time>2017-06-24T10:07:06Z</time>
      </trkpt>
      <trkpt lat="45.96601" lon="4.869">
        <ele>286</ele>
        <time>2017-06-24T10:07:07Z</time>
      </trkpt>
      <trkpt lat="45.96605" lon="4.86893">
        <ele>287</ele>
        <time>2017-06-24T10:07:09Z</time>
      </trkpt>
      <trkpt lat="45.96608" lon="4.86889">
        <ele>287</ele>
        <time>2017-06-24T10:07:10Z</time>
      </trkpt>
      <trkpt lat="45.96612" lon="4.86882">
        <ele>287</ele>
        <time>2017-06-24T10:07:12Z</time>
      </trkpt>
      <trkpt lat="45.96614" lon="4.86879">
        <ele>287</ele>
        <time>2017-06-24T10:07:13Z</time>
      </trkpt>
      <trkpt lat="45.96618" lon="4.86873">
        <ele>287</ele>
        <time>2017-06-24T10:07:15Z</time>
      </trkpt>
      <trkpt lat="45.9662" lon="4.86869">
        <ele>287</ele>
        <time>2017-06-24T10:07:16Z</time>
      </trkpt>
      <trkpt lat="45.96626" lon="4.86861">
        <ele>287</ele>
        <time>2017-06-24T10:07:18Z</time>
      </trkpt>
      <trkpt lat="45.96629" lon="4.86856">
        <ele>287</ele>
        <time>2017-06-24T10:07:19Z</time>
      </trkpt>
      <trkpt lat="45.96634" lon="4.86848">
        <ele>287</ele>
        <time>2017-06-24T10:07:21Z</time>
      </trkpt>
      <trkpt lat="45.96636" lon="4.86844">
        <ele>287</ele>
        <time>2017-06-24T10:07:22Z</time>
      </trkpt>
      <trkpt lat="45.96641" lon="4.86836">
        <ele>287</ele>
        <time>2017-06-24T10:07:24Z</time>
      </trkpt>
      <trkpt lat="45.96643" lon="4.86833">
        <ele>288</ele>
        <time>2017-06-24T10:07:25Z</time>
      </trkpt>
      <trkpt lat="45.96647" lon="4.86826">
        <ele>288</ele>
        <time>2017-06-24T10:07:27Z</time>
      </trkpt>
      <trkpt lat="45.9665" lon="4.86823">
        <ele>288</ele>
        <time>2017-06-24T10:07:28Z</time>
      </trkpt>
      <trkpt lat="45.96655" lon="4.86814">
        <ele>288</ele>
        <time>2017-06-24T10:07:30Z</time>
      </trkpt>
      <trkpt lat="45.96657" lon="4.8681">
        <ele>288</ele>
        <time>2017-06-24T10:07:31Z</time>
      </trkpt>
      <trkpt lat="45.96662" lon="4.86802">
        <ele>288</ele>
        <time>2017-06-24T10:07:33Z</time>
      </trkpt>
      <trkpt lat="45.96665" lon="4.86797">
        <ele>288</ele>
        <time>2017-06-24T10:07:34Z</time>
      </trkpt>
      <trkpt lat="45.9667" lon="4.86788">
        <ele>289</ele>
        <time>2017-06-24T10:07:36Z</time>
      </trkpt>
      <trkpt lat="45.96672" lon="4.86784">
        <ele>289</ele>
        <time>2017-06-24T10:07:37Z</time>
      </trkpt>
      <trkpt lat="45.96678" lon="4.86775">
        <ele>289</ele>
        <time>2017-06-24T10:07:39Z</time>
      </trkpt>
      <trkpt lat="45.96681" lon="4.8677">
        <ele>289</ele>
        <time>2017-06-24T10:07:40Z</time>
      </trkpt>
      <trkpt lat="45.96684" lon="4.86765">
        <ele>289</ele>
        <time>2017-06-24T10:07:41Z</time>
      </trkpt>
      <trkpt lat="45.96687" lon="4.8676">
        <ele>289</ele>
        <time>2017-06-24T10:07:42Z</time>
      </trkpt>
      <trkpt lat="45.96692" lon="4.86751">
        <ele>289</ele>
        <time>2017-06-24T10:07:44Z</time>
      </trkpt>
      <trkpt lat="45.96694" lon="4.86747">
        <ele>289</ele>
        <time>2017-06-24T10:07:45Z</time>
      </trkpt>
      <trkpt lat="45.967" lon="4.86738">
        <ele>289</ele>
        <time>2017-06-24T10:07:47Z</time>
      </trkpt>
      <trkpt lat="45.96703" lon="4.86732">
        <ele>289</ele>
        <time>2017-06-24T10:07:48Z</time>
      </trkpt>
      <trkpt lat="45.96706" lon="4.86726">
        <ele>289</ele>
        <time>2017-06-24T10:07:49Z</time>
      </trkpt>
      <trkpt lat="45.96709" lon="4.8672">
        <ele>289</ele>
        <time>2017-06-24T10:07:50Z</time>
      </trkpt>
      <trkpt lat="45.96712" lon="4.86714">
        <ele>289</ele>
        <time>2017-06-24T10:07:51Z</time>
      </trkpt>
      <trkpt lat="45.96715" lon="4.86709">
        <ele>289</ele>
        <time>2017-06-24T10:07:52Z</time>
      </trkpt>
      <trkpt lat="45.96721" lon="4.867">
        <ele>289</ele>
        <time>2017-06-24T10:07:54Z</time>
      </trkpt>
      <trkpt lat="45.96724" lon="4.86695">
        <ele>289</ele>
        <time>2017-06-24T10:07:55Z</time>
      </trkpt>
      <trkpt lat="45.96729" lon="4.86687">
        <ele>289</ele>
        <time>2017-06-24T10:07:57Z</time>
      </trkpt>
      <trkpt lat="45.96732" lon="4.86682">
        <ele>290</ele>
        <time>2017-06-24T10:07:58Z</time>
      </trkpt>
      <trkpt lat="45.96737" lon="4.86673">
        <ele>290</ele>
        <time>2017-06-24T10:08:00Z</time>
      </trkpt>
      <trkpt lat="45.9674" lon="4.86669">
        <ele>290</ele>
        <time>2017-06-24T10:08:01Z</time>
      </trkpt>
      <trkpt lat="45.96745" lon="4.86659">
        <ele>290</ele>
        <time>2017-06-24T10:08:03Z</time>
      </trkpt>
      <trkpt lat="45.96747" lon="4.86654">
        <ele>290</ele>
        <time>2017-06-24T10:08:04Z</time>
      </trkpt>
      <trkpt lat="45.96749" lon="4.86647">
        <ele>290</ele>
        <time>2017-06-24T10:08:05Z</time>
      </trkpt>
      <trkpt lat="45.96749" lon="4.8664">
        <ele>290</ele>
        <time>2017-06-24T10:08:06Z</time>
      </trkpt>
      <trkpt lat="45.96749" lon="4.86633">
        <ele>290</ele>
        <time>2017-06-24T10:08:07Z</time>
      </trkpt>
      <trkpt lat="45.96746" lon="4.86628">
        <ele>290</ele>
        <time>2017-06-24T10:08:08Z</time>
      </trkpt>
      <trkpt lat="45.96738" lon="4.86623">
        <ele>290</ele>
        <time>2017-06-24T10:08:10Z</time>
      </trkpt>
      <trkpt lat="45.96734" lon="4.86623">
        <ele>290</ele>
        <time>2017-06-24T10:08:11Z</time>
      </trkpt>
      <trkpt lat="45.96726" lon="4.86621">
        <ele>290</ele>
        <time>2017-06-24T10:08:13Z</time>
      </trkpt>
      <trkpt lat="45.96723" lon="4.8662">
        <ele>290</ele>
        <time>2017-06-24T10:08:14Z</time>
      </trkpt>
      <trkpt lat="45.96715" lon="4.86616">
        <ele>290</ele>
        <time>2017-06-24T10:08:16Z</time>
      </trkpt>
      <trkpt lat="45.96711" lon="4.86613">
        <ele>290</ele>
        <time>2017-06-24T10:08:17Z</time>
      </trkpt>
      <trkpt lat="45.96703" lon="4.86608">
        <ele>290</ele>
        <time>2017-06-24T10:08:19Z</time>
      </trkpt>
      <trkpt lat="45.967" lon="4.86605">
        <ele>290</ele>
        <time>2017-06-24T10:08:20Z</time>
      </trkpt>
      <trkpt lat="45.96696" lon="4.86601">
        <ele>290</ele>
        <time>2017-06-24T10:08:21Z</time>
      </trkpt>
      <trkpt lat="45.96693" lon="4.86597">
        <ele>290</ele>
        <time>2017-06-24T10:08:22Z</time>
      </trkpt>
      <trkpt lat="45.96685" lon="4.8659">
        <ele>290</ele>
        <time>2017-06-24T10:08:24Z</time>
      </trkpt>
      <trkpt lat="45.96682" lon="4.86586">
        <ele>290</ele>
        <time>2017-06-24T10:08:25Z</time>
      </trkpt>
      <trkpt lat="45.96675" lon="4.8658">
        <ele>290</ele>
        <time>2017-06-24T10:08:27Z</time>
      </trkpt>
      <trkpt lat="45.96672" lon="4.86577">
        <ele>290</ele>
        <time>2017-06-24T10:08:28Z</time>
      </trkpt>
      <trkpt lat="45.96665" lon="4.86571">
        <ele>290</ele>
        <time>2017-06-24T10:08:30Z</time>
      </trkpt>
      <trkpt lat="45.96662" lon="4.86567">
        <ele>290</ele>
        <time>2017-06-24T10:08:31Z</time>
      </trkpt>
      <trkpt lat="45.96656" lon="4.86561">
        <ele>290</ele>
        <time>2017-06-24T10:08:33Z</time>
      </trkpt>
      <trkpt lat="45.96653" lon="4.86557">
        <ele>291</ele>
        <time>2017-06-24T10:08:34Z</time>
      </trkpt>
      <trkpt lat="45.96647" lon="4.86552">
        <ele>291</ele>
        <time>2017-06-24T10:08:36Z</time>
      </trkpt>
      <trkpt lat="45.96644" lon="4.8655">
        <ele>291</ele>
        <time>2017-06-24T10:08:37Z</time>
      </trkpt>
      <trkpt lat="45.96638" lon="4.86545">
        <ele>291</ele>
        <time>2017-06-24T10:08:39Z</time>
      </trkpt>
      <trkpt lat="45.96635" lon="4.86543">
        <ele>291</ele>
        <time>2017-06-24T10:08:40Z</time>
      </trkpt>
      <trkpt lat="45.9663" lon="4.86538">
        <ele>291</ele>
        <time>2017-06-24T10:08:42Z</time>
      </trkpt>
      <trkpt lat="45.96628" lon="4.86536">
        <ele>291</ele>
        <time>2017-06-24T10:08:43Z</time>
      </trkpt>
      <trkpt lat="45.96621" lon="4.8653">
        <ele>291</ele>
        <time>2017-06-24T10:08:46Z</time>
      </trkpt>
      <trkpt lat="45.96618" lon="4.86528">
        <ele>291</ele>
        <time>2017-06-24T10:08:47Z</time>
      </trkpt>
      <trkpt lat="45.96611" lon="4.86521">
        <ele>291</ele>
        <time>2017-06-24T10:08:50Z</time>
      </trkpt>
      <trkpt lat="45.96609" lon="4.86519">
        <ele>291</ele>
        <time>2017-06-24T10:08:51Z</time>
      </trkpt>
      <trkpt lat="45.96602" lon="4.86511">
        <ele>291</ele>
        <time>2017-06-24T10:08:54Z</time>
      </trkpt>
      <trkpt lat="45.966" lon="4.86509">
        <ele>291</ele>
        <time>2017-06-24T10:08:55Z</time>
      </trkpt>
      <trkpt lat="45.96593" lon="4.86501">
        <ele>292</ele>
        <time>2017-06-24T10:08:58Z</time>
      </trkpt>
      <trkpt lat="45.96592" lon="4.86498">
        <ele>292</ele>
        <time>2017-06-24T10:08:59Z</time>
      </trkpt>
      <trkpt lat="45.96588" lon="4.8649">
        <ele>292</ele>
        <time>2017-06-24T10:09:01Z</time>
      </trkpt>
      <trkpt lat="45.96587" lon="4.86486">
        <ele>292</ele>
        <time>2017-06-24T10:09:02Z</time>
      </trkpt>
      <trkpt lat="45.96584" lon="4.86476">
        <ele>291</ele>
        <time>2017-06-24T10:09:04Z</time>
      </trkpt>
      <trkpt lat="45.96582" lon="4.86471">
        <ele>290</ele>
        <time>2017-06-24T10:09:05Z</time>
      </trkpt>
      <trkpt lat="45.96582" lon="4.86466">
        <ele>289</ele>
        <time>2017-06-24T10:09:07Z</time>
      </trkpt>
      <trkpt lat="45.96582" lon="4.86465">
        <ele>289</ele>
        <time>2017-06-24T10:09:08Z</time>
      </trkpt>
      <trkpt lat="45.96581" lon="4.86464">
        <ele>289</ele>
        <time>2017-06-24T10:09:33Z</time>
      </trkpt>
      <trkpt lat="45.96577" lon="4.86462">
        <ele>289</ele>
        <time>2017-06-24T10:09:34Z</time>
      </trkpt>
      <trkpt lat="45.96577" lon="4.8645">
        <ele>289</ele>
        <time>2017-06-24T10:09:38Z</time>
      </trkpt>
      <trkpt lat="45.96576" lon="4.86445">
        <ele>289</ele>
        <time>2017-06-24T10:09:39Z</time>
      </trkpt>
      <trkpt lat="45.96576" lon="4.86435">
        <ele>289</ele>
        <time>2017-06-24T10:09:41Z</time>
      </trkpt>
      <trkpt lat="45.96577" lon="4.86429">
        <ele>289</ele>
        <time>2017-06-24T10:09:42Z</time>
      </trkpt>
      <trkpt lat="45.96577" lon="4.86422">
        <ele>289</ele>
        <time>2017-06-24T10:09:43Z</time>
      </trkpt>
      <trkpt lat="45.96577" lon="4.86414">
        <ele>289</ele>
        <time>2017-06-24T10:09:44Z</time>
      </trkpt>
      <trkpt lat="45.96577" lon="4.86406">
        <ele>288</ele>
        <time>2017-06-24T10:09:45Z</time>
      </trkpt>
      <trkpt lat="45.96576" lon="4.86398">
        <ele>287</ele>
        <time>2017-06-24T10:09:46Z</time>
      </trkpt>
      <trkpt lat="45.96576" lon="4.8639">
        <ele>287</ele>
        <time>2017-06-24T10:09:47Z</time>
      </trkpt>
      <trkpt lat="45.96576" lon="4.86381">
        <ele>286</ele>
        <time>2017-06-24T10:09:48Z</time>
      </trkpt>
      <trkpt lat="45.96577" lon="4.86373">
        <ele>286</ele>
        <time>2017-06-24T10:09:49Z</time>
      </trkpt>
      <trkpt lat="45.96577" lon="4.86365">
        <ele>286</ele>
        <time>2017-06-24T10:09:50Z</time>
      </trkpt>
      <trkpt lat="45.96577" lon="4.86356">
        <ele>285</ele>
        <time>2017-06-24T10:09:51Z</time>
      </trkpt>
      <trkpt lat="45.96577" lon="4.86347">
        <ele>285</ele>
        <time>2017-06-24T10:09:52Z</time>
      </trkpt>
      <trkpt lat="45.96578" lon="4.86339">
        <ele>285</ele>
        <time>2017-06-24T10:09:53Z</time>
      </trkpt>
      <trkpt lat="45.96578" lon="4.86331">
        <ele>284</ele>
        <time>2017-06-24T10:09:54Z</time>
      </trkpt>
      <trkpt lat="45.96578" lon="4.86322">
        <ele>284</ele>
        <time>2017-06-24T10:09:55Z</time>
      </trkpt>
      <trkpt lat="45.96578" lon="4.86314">
        <ele>283</ele>
        <time>2017-06-24T10:09:56Z</time>
      </trkpt>
      <trkpt lat="45.96579" lon="4.86305">
        <ele>283</ele>
        <time>2017-06-24T10:09:57Z</time>
      </trkpt>
      <trkpt lat="45.96579" lon="4.86296">
        <ele>282</ele>
        <time>2017-06-24T10:09:58Z</time>
      </trkpt>
      <trkpt lat="45.96579" lon="4.86287">
        <ele>282</ele>
        <time>2017-06-24T10:09:59Z</time>
      </trkpt>
      <trkpt lat="45.9658" lon="4.86278">
        <ele>282</ele>
        <time>2017-06-24T10:10:00Z</time>
      </trkpt>
      <trkpt lat="45.96581" lon="4.86268">
        <ele>282</ele>
        <time>2017-06-24T10:10:01Z</time>
      </trkpt>
      <trkpt lat="45.96581" lon="4.86258">
        <ele>281</ele>
        <time>2017-06-24T10:10:02Z</time>
      </trkpt>
      <trkpt lat="45.96582" lon="4.86247">
        <ele>281</ele>
        <time>2017-06-24T10:10:03Z</time>
      </trkpt>
      <trkpt lat="45.96583" lon="4.86236">
        <ele>280</ele>
        <time>2017-06-24T10:10:04Z</time>
      </trkpt>
      <trkpt lat="45.96584" lon="4.86225">
        <ele>282</ele>
        <time>2017-06-24T10:10:05Z</time>
      </trkpt>
      <trkpt lat="45.96585" lon="4.86213">
        <ele>282</ele>
        <time>2017-06-24T10:10:06Z</time>
      </trkpt>
      <trkpt lat="45.96586" lon="4.86201">
        <ele>282</ele>
        <time>2017-06-24T10:10:07Z</time>
      </trkpt>
      <trkpt lat="45.96588" lon="4.86188">
        <ele>282</ele>
        <time>2017-06-24T10:10:08Z</time>
      </trkpt>
      <trkpt lat="45.96589" lon="4.86175">
        <ele>281</ele>
        <time>2017-06-24T10:10:09Z</time>
      </trkpt>
      <trkpt lat="45.96591" lon="4.86162">
        <ele>281</ele>
        <time>2017-06-24T10:10:10Z</time>
      </trkpt>
      <trkpt lat="45.96592" lon="4.86149">
        <ele>281</ele>
        <time>2017-06-24T10:10:11Z</time>
      </trkpt>
      <trkpt lat="45.96593" lon="4.86136">
        <ele>281</ele>
        <time>2017-06-24T10:10:12Z</time>
      </trkpt>
      <trkpt lat="45.96594" lon="4.86123">
        <ele>281</ele>
        <time>2017-06-24T10:10:13Z</time>
      </trkpt>
      <trkpt lat="45.96594" lon="4.86111">
        <ele>281</ele>
        <time>2017-06-24T10:10:14Z</time>
      </trkpt>
      <trkpt lat="45.96593" lon="4.86098">
        <ele>280</ele>
        <time>2017-06-24T10:10:15Z</time>
      </trkpt>
      <trkpt lat="45.96591" lon="4.86085">
        <ele>279</ele>
        <time>2017-06-24T10:10:16Z</time>
      </trkpt>
      <trkpt lat="45.96588" lon="4.86074">
        <ele>279</ele>
        <time>2017-06-24T10:10:17Z</time>
      </trkpt>
      <trkpt lat="45.96584" lon="4.86062">
        <ele>280</ele>
        <time>2017-06-24T10:10:18Z</time>
      </trkpt>
      <trkpt lat="45.96579" lon="4.86052">
        <ele>277</ele>
        <time>2017-06-24T10:10:19Z</time>
      </trkpt>
      <trkpt lat="45.96574" lon="4.86041">
        <ele>276</ele>
        <time>2017-06-24T10:10:20Z</time>
      </trkpt>
      <trkpt lat="45.96569" lon="4.86031">
        <ele>276</ele>
        <time>2017-06-24T10:10:21Z</time>
      </trkpt>
      <trkpt lat="45.96563" lon="4.8602">
        <ele>276</ele>
        <time>2017-06-24T10:10:22Z</time>
      </trkpt>
      <trkpt lat="45.96558" lon="4.8601">
        <ele>276</ele>
        <time>2017-06-24T10:10:23Z</time>
      </trkpt>
      <trkpt lat="45.96553" lon="4.85999">
        <ele>276</ele>
        <time>2017-06-24T10:10:24Z</time>
      </trkpt>
      <trkpt lat="45.96548" lon="4.85989">
        <ele>275</ele>
        <time>2017-06-24T10:10:25Z</time>
      </trkpt>
      <trkpt lat="45.96543" lon="4.85979">
        <ele>275</ele>
        <time>2017-06-24T10:10:26Z</time>
      </trkpt>
      <trkpt lat="45.96538" lon="4.85969">
        <ele>275</ele>
        <time>2017-06-24T10:10:27Z</time>
      </trkpt>
      <trkpt lat="45.96533" lon="4.85958">
        <ele>275</ele>
        <time>2017-06-24T10:10:28Z</time>
      </trkpt>
      <trkpt lat="45.96528" lon="4.85947">
        <ele>275</ele>
        <time>2017-06-24T10:10:29Z</time>
      </trkpt>
      <trkpt lat="45.96524" lon="4.85936">
        <ele>275</ele>
        <time>2017-06-24T10:10:30Z</time>
      </trkpt>
      <trkpt lat="45.9652" lon="4.85925">
        <ele>275</ele>
        <time>2017-06-24T10:10:31Z</time>
      </trkpt>
      <trkpt lat="45.96516" lon="4.85914">
        <ele>275</ele>
        <time>2017-06-24T10:10:32Z</time>
      </trkpt>
      <trkpt lat="45.96513" lon="4.85903">
        <ele>275</ele>
        <time>2017-06-24T10:10:33Z</time>
      </trkpt>
      <trkpt lat="45.96511" lon="4.85892">
        <ele>275</ele>
        <time>2017-06-24T10:10:34Z</time>
      </trkpt>
      <trkpt lat="45.96508" lon="4.8588">
        <ele>275</ele>
        <time>2017-06-24T10:10:35Z</time>
      </trkpt>
      <trkpt lat="45.96507" lon="4.85869">
        <ele>275</ele>
        <time>2017-06-24T10:10:36Z</time>
      </trkpt>
      <trkpt lat="45.96505" lon="4.85858">
        <ele>275</ele>
        <time>2017-06-24T10:10:37Z</time>
      </trkpt>
      <trkpt lat="45.96503" lon="4.85848">
        <ele>275</ele>
        <time>2017-06-24T10:10:38Z</time>
      </trkpt>
      <trkpt lat="45.96501" lon="4.85837">
        <ele>275</ele>
        <time>2017-06-24T10:10:39Z</time>
      </trkpt>
      <trkpt lat="45.96499" lon="4.85827">
        <ele>275</ele>
        <time>2017-06-24T10:10:40Z</time>
      </trkpt>
      <trkpt lat="45.96498" lon="4.85817">
        <ele>274</ele>
        <time>2017-06-24T10:10:41Z</time>
      </trkpt>
      <trkpt lat="45.96497" lon="4.85807">
        <ele>274</ele>
        <time>2017-06-24T10:10:42Z</time>
      </trkpt>
      <trkpt lat="45.96495" lon="4.85798">
        <ele>274</ele>
        <time>2017-06-24T10:10:43Z</time>
      </trkpt>
      <trkpt lat="45.96494" lon="4.85789">
        <ele>274</ele>
        <time>2017-06-24T10:10:44Z</time>
      </trkpt>
      <trkpt lat="45.96493" lon="4.8578">
        <ele>274</ele>
        <time>2017-06-24T10:10:45Z</time>
      </trkpt>
      <trkpt lat="45.96492" lon="4.85771">
        <ele>274</ele>
        <time>2017-06-24T10:10:46Z</time>
      </trkpt>
      <trkpt lat="45.96491" lon="4.85762">
        <ele>274</ele>
        <time>2017-06-24T10:10:47Z</time>
      </trkpt>
      <trkpt lat="45.96489" lon="4.85754">
        <ele>274</ele>
        <time>2017-06-24T10:10:48Z</time>
      </trkpt>
      <trkpt lat="45.96488" lon="4.85745">
        <ele>273</ele>
        <time>2017-06-24T10:10:49Z</time>
      </trkpt>
      <trkpt lat="45.96487" lon="4.85735">
        <ele>273</ele>
        <time>2017-06-24T10:10:50Z</time>
      </trkpt>
      <trkpt lat="45.96486" lon="4.85726">
        <ele>273</ele>
        <time>2017-06-24T10:10:51Z</time>
      </trkpt>
      <trkpt lat="45.96485" lon="4.85717">
        <ele>272</ele>
        <time>2017-06-24T10:10:52Z</time>
      </trkpt>
      <trkpt lat="45.96484" lon="4.85708">
        <ele>272</ele>
        <time>2017-06-24T10:10:53Z</time>
      </trkpt>
      <trkpt lat="45.96483" lon="4.85699">
        <ele>272</ele>
        <time>2017-06-24T10:10:54Z</time>
      </trkpt>
      <trkpt lat="45.96482" lon="4.8569">
        <ele>272</ele>
        <time>2017-06-24T10:10:55Z</time>
      </trkpt>
      <trkpt lat="45.96481" lon="4.85682">
        <ele>272</ele>
        <time>2017-06-24T10:10:56Z</time>
      </trkpt>
      <trkpt lat="45.9648" lon="4.85673">
        <ele>272</ele>
        <time>2017-06-24T10:10:57Z</time>
      </trkpt>
      <trkpt lat="45.96479" lon="4.85665">
        <ele>271</ele>
        <time>2017-06-24T10:10:58Z</time>
      </trkpt>
      <trkpt lat="45.96478" lon="4.85656">
        <ele>271</ele>
        <time>2017-06-24T10:10:59Z</time>
      </trkpt>
      <trkpt lat="45.96477" lon="4.85648">
        <ele>271</ele>
        <time>2017-06-24T10:11:00Z</time>
      </trkpt>
      <trkpt lat="45.96476" lon="4.85638">
        <ele>271</ele>
        <time>2017-06-24T10:11:01Z</time>
      </trkpt>
      <trkpt lat="45.96475" lon="4.85628">
        <ele>271</ele>
        <time>2017-06-24T10:11:02Z</time>
      </trkpt>
      <trkpt lat="45.96474" lon="4.85618">
        <ele>271</ele>
        <time>2017-06-24T10:11:03Z</time>
      </trkpt>
      <trkpt lat="45.96473" lon="4.85608">
        <ele>271</ele>
        <time>2017-06-24T10:11:04Z</time>
      </trkpt>
      <trkpt lat="45.96472" lon="4.85598">
        <ele>271</ele>
        <time>2017-06-24T10:11:05Z</time>
      </trkpt>
      <trkpt lat="45.96471" lon="4.85589">
        <ele>271</ele>
        <time>2017-06-24T10:11:06Z</time>
      </trkpt>
      <trkpt lat="45.9647" lon="4.85579">
        <ele>272</ele>
        <time>2017-06-24T10:11:07Z</time>
      </trkpt>
      <trkpt lat="45.96469" lon="4.8557">
        <ele>272</ele>
        <time>2017-06-24T10:11:08Z</time>
      </trkpt>
      <trkpt lat="45.96468" lon="4.85561">
        <ele>272</ele>
        <time>2017-06-24T10:11:09Z</time>
      </trkpt>
      <trkpt lat="45.96467" lon="4.85551">
        <ele>272</ele>
        <time>2017-06-24T10:11:10Z</time>
      </trkpt>
      <trkpt lat="45.96467" lon="4.85541">
        <ele>272</ele>
        <time>2017-06-24T10:11:11Z</time>
      </trkpt>
      <trkpt lat="45.96466" lon="4.85531">
        <ele>272</ele>
        <time>2017-06-24T10:11:12Z</time>
      </trkpt>
      <trkpt lat="45.96466" lon="4.85521">
        <ele>272</ele>
        <time>2017-06-24T10:11:13Z</time>
      </trkpt>
      <trkpt lat="45.96466" lon="4.85511">
        <ele>272</ele>
        <time>2017-06-24T10:11:14Z</time>
      </trkpt>
      <trkpt lat="45.96466" lon="4.85501">
        <ele>272</ele>
        <time>2017-06-24T10:11:15Z</time>
      </trkpt>
      <trkpt lat="45.96466" lon="4.85492">
        <ele>272</ele>
        <time>2017-06-24T10:11:16Z</time>
      </trkpt>
      <trkpt lat="45.96466" lon="4.85482">
        <ele>272</ele>
        <time>2017-06-24T10:11:17Z</time>
      </trkpt>
      <trkpt lat="45.96466" lon="4.85472">
        <ele>272</ele>
        <time>2017-06-24T10:11:18Z</time>
      </trkpt>
      <trkpt lat="45.96466" lon="4.85463">
        <ele>272</ele>
        <time>2017-06-24T10:11:19Z</time>
      </trkpt>
      <trkpt lat="45.96466" lon="4.85454">
        <ele>272</ele>
        <time>2017-06-24T10:11:20Z</time>
      </trkpt>
      <trkpt lat="45.96466" lon="4.85445">
        <ele>272</ele>
        <time>2017-06-24T10:11:21Z</time>
      </trkpt>
      <trkpt lat="45.96466" lon="4.85437">
        <ele>272</ele>
        <time>2017-06-24T10:11:22Z</time>
      </trkpt>
      <trkpt lat="45.96466" lon="4.8543">
        <ele>272</ele>
        <time>2017-06-24T10:11:23Z</time>
      </trkpt>
      <trkpt lat="45.96465" lon="4.85422">
        <ele>272</ele>
        <time>2017-06-24T10:11:24Z</time>
      </trkpt>
      <trkpt lat="45.96465" lon="4.85415">
        <ele>272</ele>
        <time>2017-06-24T10:11:25Z</time>
      </trkpt>
      <trkpt lat="45.96465" lon="4.85407">
        <ele>272</ele>
        <time>2017-06-24T10:11:26Z</time>
      </trkpt>
      <trkpt lat="45.96464" lon="4.85398">
        <ele>272</ele>
        <time>2017-06-24T10:11:27Z</time>
      </trkpt>
      <trkpt lat="45.96463" lon="4.85389">
        <ele>272</ele>
        <time>2017-06-24T10:11:28Z</time>
      </trkpt>
      <trkpt lat="45.96462" lon="4.8538">
        <ele>272</ele>
        <time>2017-06-24T10:11:29Z</time>
      </trkpt>
      <trkpt lat="45.96462" lon="4.85371">
        <ele>272</ele>
        <time>2017-06-24T10:11:30Z</time>
      </trkpt>
      <trkpt lat="45.96461" lon="4.85362">
        <ele>272</ele>
        <time>2017-06-24T10:11:31Z</time>
      </trkpt>
      <trkpt lat="45.9646" lon="4.85353">
        <ele>272</ele>
        <time>2017-06-24T10:11:32Z</time>
      </trkpt>
      <trkpt lat="45.96459" lon="4.85344">
        <ele>272</ele>
        <time>2017-06-24T10:11:33Z</time>
      </trkpt>
      <trkpt lat="45.96458" lon="4.85335">
        <ele>272</ele>
        <time>2017-06-24T10:11:34Z</time>
      </trkpt>
      <trkpt lat="45.96457" lon="4.85326">
        <ele>271</ele>
        <time>2017-06-24T10:11:35Z</time>
      </trkpt>
      <trkpt lat="45.96456" lon="4.85318">
        <ele>271</ele>
        <time>2017-06-24T10:11:36Z</time>
      </trkpt>
      <trkpt lat="45.96456" lon="4.85309">
        <ele>271</ele>
        <time>2017-06-24T10:11:37Z</time>
      </trkpt>
      <trkpt lat="45.96455" lon="4.85301">
        <ele>271</ele>
        <time>2017-06-24T10:11:38Z</time>
      </trkpt>
      <trkpt lat="45.96455" lon="4.85293">
        <ele>270</ele>
        <time>2017-06-24T10:11:39Z</time>
      </trkpt>
      <trkpt lat="45.96454" lon="4.85285">
        <ele>270</ele>
        <time>2017-06-24T10:11:40Z</time>
      </trkpt>
      <trkpt lat="45.96453" lon="4.85278">
        <ele>270</ele>
        <time>2017-06-24T10:11:41Z</time>
      </trkpt>
      <trkpt lat="45.96454" lon="4.8527">
        <ele>270</ele>
        <time>2017-06-24T10:11:42Z</time>
      </trkpt>
      <trkpt lat="45.96454" lon="4.85261">
        <ele>270</ele>
        <time>2017-06-24T10:11:43Z</time>
      </trkpt>
      <trkpt lat="45.96454" lon="4.85253">
        <ele>270</ele>
        <time>2017-06-24T10:11:44Z</time>
      </trkpt>
      <trkpt lat="45.96454" lon="4.85244">
        <ele>269</ele>
        <time>2017-06-24T10:11:45Z</time>
      </trkpt>
      <trkpt lat="45.96454" lon="4.85234">
        <ele>269</ele>
        <time>2017-06-24T10:11:46Z</time>
      </trkpt>
      <trkpt lat="45.96455" lon="4.85225">
        <ele>269</ele>
        <time>2017-06-24T10:11:47Z</time>
      </trkpt>
      <trkpt lat="45.96455" lon="4.85217">
        <ele>269</ele>
        <time>2017-06-24T10:11:48Z</time>
      </trkpt>
      <trkpt lat="45.96455" lon="4.85207">
        <ele>269</ele>
        <time>2017-06-24T10:11:49Z</time>
      </trkpt>
      <trkpt lat="45.96455" lon="4.85198">
        <ele>269</ele>
        <time>2017-06-24T10:11:50Z</time>
      </trkpt>
      <trkpt lat="45.96455" lon="4.85189">
        <ele>269</ele>
        <time>2017-06-24T10:11:51Z</time>
      </trkpt>
      <trkpt lat="45.96456" lon="4.8518">
        <ele>269</ele>
        <time>2017-06-24T10:11:52Z</time>
      </trkpt>
      <trkpt lat="45.96457" lon="4.85171">
        <ele>269</ele>
        <time>2017-06-24T10:11:53Z</time>
      </trkpt>
      <trkpt lat="45.96459" lon="4.85162">
        <ele>268</ele>
        <time>2017-06-24T10:11:54Z</time>
      </trkpt>
      <trkpt lat="45.96461" lon="4.85153">
        <ele>268</ele>
        <time>2017-06-24T10:11:55Z</time>
      </trkpt>
      <trkpt lat="45.96463" lon="4.85145">
        <ele>268</ele>
        <time>2017-06-24T10:11:56Z</time>
      </trkpt>
      <trkpt lat="45.96465" lon="4.85135">
        <ele>268</ele>
        <time>2017-06-24T10:11:57Z</time>
      </trkpt>
      <trkpt lat="45.96467" lon="4.85126">
        <ele>268</ele>
        <time>2017-06-24T10:11:58Z</time>
      </trkpt>
      <trkpt lat="45.96468" lon="4.85116">
        <ele>268</ele>
        <time>2017-06-24T10:11:59Z</time>
      </trkpt>
      <trkpt lat="45.96469" lon="4.85106">
        <ele>268</ele>
        <time>2017-06-24T10:12:00Z</time>
      </trkpt>
      <trkpt lat="45.96469" lon="4.85096">
        <ele>268</ele>
        <time>2017-06-24T10:12:01Z</time>
      </trkpt>
      <trkpt lat="45.96469" lon="4.85084">
        <ele>268</ele>
        <time>2017-06-24T10:12:02Z</time>
      </trkpt>
      <trkpt lat="45.96469" lon="4.85073">
        <ele>267</ele>
        <time>2017-06-24T10:12:03Z</time>
      </trkpt>
      <trkpt lat="45.9647" lon="4.85062">
        <ele>266</ele>
        <time>2017-06-24T10:12:04Z</time>
      </trkpt>
      <trkpt lat="45.9647" lon="4.8505">
        <ele>266</ele>
        <time>2017-06-24T10:12:05Z</time>
      </trkpt>
      <trkpt lat="45.9647" lon="4.85038">
        <ele>266</ele>
        <time>2017-06-24T10:12:06Z</time>
      </trkpt>
      <trkpt lat="45.9647" lon="4.85026">
        <ele>266</ele>
        <time>2017-06-24T10:12:07Z</time>
      </trkpt>
      <trkpt lat="45.96471" lon="4.85014">
        <ele>266</ele>
        <time>2017-06-24T10:12:08Z</time>
      </trkpt>
      <trkpt lat="45.96472" lon="4.85002">
        <ele>266</ele>
        <time>2017-06-24T10:12:09Z</time>
      </trkpt>
      <trkpt lat="45.96473" lon="4.84989">
        <ele>262</ele>
        <time>2017-06-24T10:12:10Z</time>
      </trkpt>
      <trkpt lat="45.96476" lon="4.84976">
        <ele>262</ele>
        <time>2017-06-24T10:12:11Z</time>
      </trkpt>
      <trkpt lat="45.96478" lon="4.84963">
        <ele>261</ele>
        <time>2017-06-24T10:12:12Z</time>
      </trkpt>
      <trkpt lat="45.9648" lon="4.8495">
        <ele>260</ele>
        <time>2017-06-24T10:12:13Z</time>
      </trkpt>
      <trkpt lat="45.96483" lon="4.84937">
        <ele>260</ele>
        <time>2017-06-24T10:12:14Z</time>
      </trkpt>
      <trkpt lat="45.96486" lon="4.84923">
        <ele>259</ele>
        <time>2017-06-24T10:12:15Z</time>
      </trkpt>
      <trkpt lat="45.9649" lon="4.8491">
        <ele>256</ele>
        <time>2017-06-24T10:12:16Z</time>
      </trkpt>
      <trkpt lat="45.96492" lon="4.84896">
        <ele>256</ele>
        <time>2017-06-24T10:12:17Z</time>
      </trkpt>
      <trkpt lat="45.96496" lon="4.84883">
        <ele>255</ele>
        <time>2017-06-24T10:12:18Z</time>
      </trkpt>
      <trkpt lat="45.96498" lon="4.84869">
        <ele>255</ele>
        <time>2017-06-24T10:12:19Z</time>
      </trkpt>
      <trkpt lat="45.96501" lon="4.84855">
        <ele>256</ele>
        <time>2017-06-24T10:12:20Z</time>
      </trkpt>
      <trkpt lat="45.96504" lon="4.84842">
        <ele>255</ele>
        <time>2017-06-24T10:12:21Z</time>
      </trkpt>
      <trkpt lat="45.96507" lon="4.84829">
        <ele>253</ele>
        <time>2017-06-24T10:12:22Z</time>
      </trkpt>
      <trkpt lat="45.9651" lon="4.84815">
        <ele>254</ele>
        <time>2017-06-24T10:12:23Z</time>
      </trkpt>
      <trkpt lat="45.96513" lon="4.84801">
        <ele>254</ele>
        <time>2017-06-24T10:12:24Z</time>
      </trkpt>
      <trkpt lat="45.96516" lon="4.84788">
        <ele>254</ele>
        <time>2017-06-24T10:12:25Z</time>
      </trkpt>
      <trkpt lat="45.96519" lon="4.84775">
        <ele>253</ele>
        <time>2017-06-24T10:12:26Z</time>
      </trkpt>
      <trkpt lat="45.96522" lon="4.84761">
        <ele>253</ele>
        <time>2017-06-24T10:12:27Z</time>
      </trkpt>
      <trkpt lat="45.96525" lon="4.84748">
        <ele>252</ele>
        <time>2017-06-24T10:12:28Z</time>
      </trkpt>
      <trkpt lat="45.96527" lon="4.84734">
        <ele>253</ele>
        <time>2017-06-24T10:12:29Z</time>
      </trkpt>
      <trkpt lat="45.96529" lon="4.8472">
        <ele>253</ele>
        <time>2017-06-24T10:12:30Z</time>
      </trkpt>
      <trkpt lat="45.9653" lon="4.84706">
        <ele>253</ele>
        <time>2017-06-24T10:12:31Z</time>
      </trkpt>
      <trkpt lat="45.96529" lon="4.84693">
        <ele>253</ele>
        <time>2017-06-24T10:12:32Z</time>
      </trkpt>
      <trkpt lat="45.96526" lon="4.84681">
        <ele>252</ele>
        <time>2017-06-24T10:12:33Z</time>
      </trkpt>
      <trkpt lat="45.96524" lon="4.84669">
        <ele>252</ele>
        <time>2017-06-24T10:12:34Z</time>
      </trkpt>
      <trkpt lat="45.96522" lon="4.84657">
        <ele>252</ele>
        <time>2017-06-24T10:12:35Z</time>
      </trkpt>
      <trkpt lat="45.96521" lon="4.84646">
        <ele>252</ele>
        <time>2017-06-24T10:12:36Z</time>
      </trkpt>
      <trkpt lat="45.96521" lon="4.84634">
        <ele>252</ele>
        <time>2017-06-24T10:12:37Z</time>
      </trkpt>
      <trkpt lat="45.96521" lon="4.84622">
        <ele>252</ele>
        <time>2017-06-24T10:12:38Z</time>
      </trkpt>
      <trkpt lat="45.96522" lon="4.84611">
        <ele>252</ele>
        <time>2017-06-24T10:12:39Z</time>
      </trkpt>
      <trkpt lat="45.96523" lon="4.846">
        <ele>252</ele>
        <time>2017-06-24T10:12:40Z</time>
      </trkpt>
      <trkpt lat="45.96524" lon="4.84589">
        <ele>252</ele>
        <time>2017-06-24T10:12:41Z</time>
      </trkpt>
      <trkpt lat="45.96524" lon="4.84579">
        <ele>253</ele>
        <time>2017-06-24T10:12:42Z</time>
      </trkpt>
      <trkpt lat="45.96524" lon="4.84569">
        <ele>253</ele>
        <time>2017-06-24T10:12:43Z</time>
      </trkpt>
      <trkpt lat="45.96524" lon="4.84559">
        <ele>253</ele>
        <time>2017-06-24T10:12:44Z</time>
      </trkpt>
      <trkpt lat="45.96525" lon="4.8455">
        <ele>253</ele>
        <time>2017-06-24T10:12:45Z</time>
      </trkpt>
      <trkpt lat="45.96525" lon="4.8454">
        <ele>253</ele>
        <time>2017-06-24T10:12:46Z</time>
      </trkpt>
      <trkpt lat="45.96526" lon="4.8453">
        <ele>253</ele>
        <time>2017-06-24T10:12:47Z</time>
      </trkpt>
      <trkpt lat="45.96526" lon="4.84519">
        <ele>253</ele>
        <time>2017-06-24T10:12:48Z</time>
      </trkpt>
      <trkpt lat="45.96527" lon="4.84509">
        <ele>253</ele>
        <time>2017-06-24T10:12:49Z</time>
      </trkpt>
      <trkpt lat="45.96527" lon="4.84498">
        <ele>253</ele>
        <time>2017-06-24T10:12:50Z</time>
      </trkpt>
      <trkpt lat="45.96528" lon="4.84487">
        <ele>253</ele>
        <time>2017-06-24T10:12:51Z</time>
      </trkpt>
      <trkpt lat="45.96528" lon="4.84476">
        <ele>253</ele>
        <time>2017-06-24T10:12:52Z</time>
      </trkpt>
      <trkpt lat="45.96528" lon="4.84465">
        <ele>253</ele>
        <time>2017-06-24T10:12:53Z</time>
      </trkpt>
      <trkpt lat="45.96529" lon="4.84455">
        <ele>253</ele>
        <time>2017-06-24T10:12:54Z</time>
      </trkpt>
      <trkpt lat="45.9653" lon="4.84444">
        <ele>253</ele>
        <time>2017-06-24T10:12:55Z</time>
      </trkpt>
      <trkpt lat="45.9653" lon="4.84434">
        <ele>253</ele>
        <time>2017-06-24T10:12:56Z</time>
      </trkpt>
      <trkpt lat="45.9653" lon="4.84424">
        <ele>253</ele>
        <time>2017-06-24T10:12:57Z</time>
      </trkpt>
      <trkpt lat="45.96531" lon="4.84413">
        <ele>252</ele>
        <time>2017-06-24T10:12:58Z</time>
      </trkpt>
      <trkpt lat="45.96531" lon="4.84404">
        <ele>252</ele>
        <time>2017-06-24T10:12:59Z</time>
      </trkpt>
      <trkpt lat="45.96532" lon="4.84394">
        <ele>252</ele>
        <time>2017-06-24T10:13:00Z</time>
      </trkpt>
      <trkpt lat="45.96531" lon="4.84384">
        <ele>252</ele>
        <time>2017-06-24T10:13:01Z</time>
      </trkpt>
      <trkpt lat="45.96531" lon="4.84374">
        <ele>251</ele>
        <time>2017-06-24T10:13:02Z</time>
      </trkpt>
      <trkpt lat="45.96529" lon="4.84364">
        <ele>251</ele>
        <time>2017-06-24T10:13:03Z</time>
      </trkpt>
      <trkpt lat="45.96527" lon="4.84354">
        <ele>251</ele>
        <time>2017-06-24T10:13:04Z</time>
      </trkpt>
      <trkpt lat="45.96524" lon="4.84343">
        <ele>251</ele>
        <time>2017-06-24T10:13:05Z</time>
      </trkpt>
      <trkpt lat="45.96522" lon="4.84334">
        <ele>251</ele>
        <time>2017-06-24T10:13:06Z</time>
      </trkpt>
      <trkpt lat="45.9652" lon="4.84324">
        <ele>250</ele>
        <time>2017-06-24T10:13:07Z</time>
      </trkpt>
      <trkpt lat="45.96518" lon="4.84314">
        <ele>250</ele>
        <time>2017-06-24T10:13:08Z</time>
      </trkpt>
      <trkpt lat="45.96516" lon="4.84304">
        <ele>250</ele>
        <time>2017-06-24T10:13:09Z</time>
      </trkpt>
      <trkpt lat="45.96514" lon="4.84294">
        <ele>250</ele>
        <time>2017-06-24T10:13:10Z</time>
      </trkpt>
      <trkpt lat="45.96512" lon="4.84283">
        <ele>250</ele>
        <time>2017-06-24T10:13:11Z</time>
      </trkpt>
      <trkpt lat="45.96509" lon="4.84273">
        <ele>250</ele>
        <time>2017-06-24T10:13:12Z</time>
      </trkpt>
      <trkpt lat="45.96506" lon="4.84263">
        <ele>251</ele>
        <time>2017-06-24T10:13:13Z</time>
      </trkpt>
      <trkpt lat="45.96504" lon="4.84252">
        <ele>251</ele>
        <time>2017-06-24T10:13:14Z</time>
      </trkpt>
      <trkpt lat="45.96502" lon="4.84242">
        <ele>250</ele>
        <time>2017-06-24T10:13:15Z</time>
      </trkpt>
      <trkpt lat="45.965" lon="4.84232">
        <ele>250</ele>
        <time>2017-06-24T10:13:16Z</time>
      </trkpt>
      <trkpt lat="45.96498" lon="4.84222">
        <ele>252</ele>
        <time>2017-06-24T10:13:17Z</time>
      </trkpt>
      <trkpt lat="45.96496" lon="4.84212">
        <ele>251</ele>
        <time>2017-06-24T10:13:18Z</time>
      </trkpt>
      <trkpt lat="45.96494" lon="4.84203">
        <ele>251</ele>
        <time>2017-06-24T10:13:19Z</time>
      </trkpt>
      <trkpt lat="45.96493" lon="4.84194">
        <ele>251</ele>
        <time>2017-06-24T10:13:20Z</time>
      </trkpt>
      <trkpt lat="45.96491" lon="4.84185">
        <ele>251</ele>
        <time>2017-06-24T10:13:21Z</time>
      </trkpt>
      <trkpt lat="45.96489" lon="4.84177">
        <ele>251</ele>
        <time>2017-06-24T10:13:22Z</time>
      </trkpt>
      <trkpt lat="45.96487" lon="4.84169">
        <ele>250</ele>
        <time>2017-06-24T10:13:23Z</time>
      </trkpt>
      <trkpt lat="45.96485" lon="4.84161">
        <ele>250</ele>
        <time>2017-06-24T10:13:24Z</time>
      </trkpt>
      <trkpt lat="45.96484" lon="4.84153">
        <ele>251</ele>
        <time>2017-06-24T10:13:25Z</time>
      </trkpt>
      <trkpt lat="45.96481" lon="4.84145">
        <ele>251</ele>
        <time>2017-06-24T10:13:26Z</time>
      </trkpt>
      <trkpt lat="45.96479" lon="4.84137">
        <ele>251</ele>
        <time>2017-06-24T10:13:27Z</time>
      </trkpt>
      <trkpt lat="45.96477" lon="4.84129">
        <ele>251</ele>
        <time>2017-06-24T10:13:28Z</time>
      </trkpt>
      <trkpt lat="45.96474" lon="4.84121">
        <ele>251</ele>
        <time>2017-06-24T10:13:29Z</time>
      </trkpt>
      <trkpt lat="45.96472" lon="4.84114">
        <ele>251</ele>
        <time>2017-06-24T10:13:30Z</time>
      </trkpt>
      <trkpt lat="45.96469" lon="4.84106">
        <ele>251</ele>
        <time>2017-06-24T10:13:31Z</time>
      </trkpt>
      <trkpt lat="45.96466" lon="4.84097">
        <ele>251</ele>
        <time>2017-06-24T10:13:32Z</time>
      </trkpt>
      <trkpt lat="45.96463" lon="4.84088">
        <ele>251</ele>
        <time>2017-06-24T10:13:33Z</time>
      </trkpt>
      <trkpt lat="45.96459" lon="4.84079">
        <ele>251</ele>
        <time>2017-06-24T10:13:34Z</time>
      </trkpt>
      <trkpt lat="45.96456" lon="4.8407">
        <ele>251</ele>
        <time>2017-06-24T10:13:35Z</time>
      </trkpt>
      <trkpt lat="45.96453" lon="4.84061">
        <ele>251</ele>
        <time>2017-06-24T10:13:36Z</time>
      </trkpt>
      <trkpt lat="45.9645" lon="4.84053">
        <ele>251</ele>
        <time>2017-06-24T10:13:37Z</time>
      </trkpt>
      <trkpt lat="45.96446" lon="4.84044">
        <ele>251</ele>
        <time>2017-06-24T10:13:38Z</time>
      </trkpt>
      <trkpt lat="45.96443" lon="4.84035">
        <ele>251</ele>
        <time>2017-06-24T10:13:39Z</time>
      </trkpt>
      <trkpt lat="45.9644" lon="4.84027">
        <ele>251</ele>
        <time>2017-06-24T10:13:40Z</time>
      </trkpt>
      <trkpt lat="45.96437" lon="4.84018">
        <ele>251</ele>
        <time>2017-06-24T10:13:41Z</time>
      </trkpt>
      <trkpt lat="45.96433" lon="4.84008">
        <ele>252</ele>
        <time>2017-06-24T10:13:42Z</time>
      </trkpt>
      <trkpt lat="45.96429" lon="4.83998">
        <ele>251</ele>
        <time>2017-06-24T10:13:43Z</time>
      </trkpt>
      <trkpt lat="45.96425" lon="4.83989">
        <ele>251</ele>
        <time>2017-06-24T10:13:44Z</time>
      </trkpt>
      <trkpt lat="45.96421" lon="4.83979">
        <ele>251</ele>
        <time>2017-06-24T10:13:45Z</time>
      </trkpt>
      <trkpt lat="45.96417" lon="4.83969">
        <ele>250</ele>
        <time>2017-06-24T10:13:46Z</time>
      </trkpt>
      <trkpt lat="45.96413" lon="4.83959">
        <ele>252</ele>
        <time>2017-06-24T10:13:47Z</time>
      </trkpt>
      <trkpt lat="45.96408" lon="4.83949">
        <ele>252</ele>
        <time>2017-06-24T10:13:48Z</time>
      </trkpt>
      <trkpt lat="45.96404" lon="4.83939">
        <ele>251</ele>
        <time>2017-06-24T10:13:49Z</time>
      </trkpt>
      <trkpt lat="45.964" lon="4.83929">
        <ele>250</ele>
        <time>2017-06-24T10:13:50Z</time>
      </trkpt>
      <trkpt lat="45.96395" lon="4.83919">
        <ele>250</ele>
        <time>2017-06-24T10:13:51Z</time>
      </trkpt>
      <trkpt lat="45.96391" lon="4.83909">
        <ele>248</ele>
        <time>2017-06-24T10:13:52Z</time>
      </trkpt>
      <trkpt lat="45.96387" lon="4.83899">
        <ele>248</ele>
        <time>2017-06-24T10:13:53Z</time>
      </trkpt>
      <trkpt lat="45.96383" lon="4.83888">
        <ele>247</ele>
        <time>2017-06-24T10:13:54Z</time>
      </trkpt>
      <trkpt lat="45.96379" lon="4.83878">
        <ele>247</ele>
        <time>2017-06-24T10:13:55Z</time>
      </trkpt>
      <trkpt lat="45.96374" lon="4.83869">
        <ele>247</ele>
        <time>2017-06-24T10:13:56Z</time>
      </trkpt>
      <trkpt lat="45.96369" lon="4.83859">
        <ele>247</ele>
        <time>2017-06-24T10:13:57Z</time>
      </trkpt>
      <trkpt lat="45.96364" lon="4.8385">
        <ele>246</ele>
        <time>2017-06-24T10:13:58Z</time>
      </trkpt>
      <trkpt lat="45.96359" lon="4.83842">
        <ele>246</ele>
        <time>2017-06-24T10:13:59Z</time>
      </trkpt>
      <trkpt lat="45.96353" lon="4.83833">
        <ele>246</ele>
        <time>2017-06-24T10:14:00Z</time>
      </trkpt>
      <trkpt lat="45.96347" lon="4.83826">
        <ele>245</ele>
        <time>2017-06-24T10:14:01Z</time>
      </trkpt>
      <trkpt lat="45.96341" lon="4.83819">
        <ele>245</ele>
        <time>2017-06-24T10:14:02Z</time>
      </trkpt>
      <trkpt lat="45.96335" lon="4.83813">
        <ele>246</ele>
        <time>2017-06-24T10:14:03Z</time>
      </trkpt>
      <trkpt lat="45.96328" lon="4.83808">
        <ele>244</ele>
        <time>2017-06-24T10:14:04Z</time>
      </trkpt>
      <trkpt lat="45.96322" lon="4.83802">
        <ele>245</ele>
        <time>2017-06-24T10:14:05Z</time>
      </trkpt>
      <trkpt lat="45.96316" lon="4.83797">
        <ele>245</ele>
        <time>2017-06-24T10:14:06Z</time>
      </trkpt>
      <trkpt lat="45.9631" lon="4.83792">
        <ele>245</ele>
        <time>2017-06-24T10:14:07Z</time>
      </trkpt>
      <trkpt lat="45.96303" lon="4.83788">
        <ele>245</ele>
        <time>2017-06-24T10:14:08Z</time>
      </trkpt>
      <trkpt lat="45.96297" lon="4.83783">
        <ele>245</ele>
        <time>2017-06-24T10:14:09Z</time>
      </trkpt>
      <trkpt lat="45.96292" lon="4.83778">
        <ele>245</ele>
        <time>2017-06-24T10:14:10Z</time>
      </trkpt>
      <trkpt lat="45.96287" lon="4.83773">
        <ele>245</ele>
        <time>2017-06-24T10:14:11Z</time>
      </trkpt>
      <trkpt lat="45.96281" lon="4.83769">
        <ele>245</ele>
        <time>2017-06-24T10:14:12Z</time>
      </trkpt>
      <trkpt lat="45.96276" lon="4.83765">
        <ele>245</ele>
        <time>2017-06-24T10:14:13Z</time>
      </trkpt>
      <trkpt lat="45.96271" lon="4.8376">
        <ele>245</ele>
        <time>2017-06-24T10:14:14Z</time>
      </trkpt>
      <trkpt lat="45.96266" lon="4.83755">
        <ele>245</ele>
        <time>2017-06-24T10:14:15Z</time>
      </trkpt>
      <trkpt lat="45.9626" lon="4.83749">
        <ele>245</ele>
        <time>2017-06-24T10:14:16Z</time>
      </trkpt>
      <trkpt lat="45.96255" lon="4.83743">
        <ele>245</ele>
        <time>2017-06-24T10:14:17Z</time>
      </trkpt>
      <trkpt lat="45.9625" lon="4.83737">
        <ele>244</ele>
        <time>2017-06-24T10:14:18Z</time>
      </trkpt>
      <trkpt lat="45.96244" lon="4.83731">
        <ele>244</ele>
        <time>2017-06-24T10:14:19Z</time>
      </trkpt>
      <trkpt lat="45.96238" lon="4.83726">
        <ele>244</ele>
        <time>2017-06-24T10:14:20Z</time>
      </trkpt>
      <trkpt lat="45.96233" lon="4.83719">
        <ele>244</ele>
        <time>2017-06-24T10:14:21Z</time>
      </trkpt>
      <trkpt lat="45.96228" lon="4.83713">
        <ele>244</ele>
        <time>2017-06-24T10:14:22Z</time>
      </trkpt>
      <trkpt lat="45.96223" lon="4.83707">
        <ele>244</ele>
        <time>2017-06-24T10:14:23Z</time>
      </trkpt>
      <trkpt lat="45.96218" lon="4.83702">
        <ele>244</ele>
        <time>2017-06-24T10:14:24Z</time>
      </trkpt>
      <trkpt lat="45.96213" lon="4.83696">
        <ele>243</ele>
        <time>2017-06-24T10:14:25Z</time>
      </trkpt>
      <trkpt lat="45.96209" lon="4.83691">
        <ele>243</ele>
        <time>2017-06-24T10:14:26Z</time>
      </trkpt>
      <trkpt lat="45.96204" lon="4.83686">
        <ele>243</ele>
        <time>2017-06-24T10:14:27Z</time>
      </trkpt>
      <trkpt lat="45.962" lon="4.83681">
        <ele>243</ele>
        <time>2017-06-24T10:14:28Z</time>
      </trkpt>
      <trkpt lat="45.96195" lon="4.83676">
        <ele>243</ele>
        <time>2017-06-24T10:14:29Z</time>
      </trkpt>
      <trkpt lat="45.9619" lon="4.83671">
        <ele>243</ele>
        <time>2017-06-24T10:14:30Z</time>
      </trkpt>
      <trkpt lat="45.96185" lon="4.83665">
        <ele>242</ele>
        <time>2017-06-24T10:14:31Z</time>
      </trkpt>
      <trkpt lat="45.9618" lon="4.83659">
        <ele>242</ele>
        <time>2017-06-24T10:14:32Z</time>
      </trkpt>
      <trkpt lat="45.96175" lon="4.83652">
        <ele>242</ele>
        <time>2017-06-24T10:14:33Z</time>
      </trkpt>
      <trkpt lat="45.9617" lon="4.83645">
        <ele>242</ele>
        <time>2017-06-24T10:14:34Z</time>
      </trkpt>
      <trkpt lat="45.96165" lon="4.83636">
        <ele>243</ele>
        <time>2017-06-24T10:14:35Z</time>
      </trkpt>
      <trkpt lat="45.96162" lon="4.83626">
        <ele>242</ele>
        <time>2017-06-24T10:14:36Z</time>
      </trkpt>
      <trkpt lat="45.96159" lon="4.83616">
        <ele>242</ele>
        <time>2017-06-24T10:14:37Z</time>
      </trkpt>
      <trkpt lat="45.96157" lon="4.83606">
        <ele>242</ele>
        <time>2017-06-24T10:14:38Z</time>
      </trkpt>
      <trkpt lat="45.96155" lon="4.83596">
        <ele>242</ele>
        <time>2017-06-24T10:14:39Z</time>
      </trkpt>
      <trkpt lat="45.96153" lon="4.83586">
        <ele>241</ele>
        <time>2017-06-24T10:14:40Z</time>
      </trkpt>
      <trkpt lat="45.96151" lon="4.83578">
        <ele>241</ele>
        <time>2017-06-24T10:14:41Z</time>
      </trkpt>
      <trkpt lat="45.96149" lon="4.83569">
        <ele>241</ele>
        <time>2017-06-24T10:14:42Z</time>
      </trkpt>
      <trkpt lat="45.96147" lon="4.8356">
        <ele>241</ele>
        <time>2017-06-24T10:14:43Z</time>
      </trkpt>
      <trkpt lat="45.96145" lon="4.83552">
        <ele>242</ele>
        <time>2017-06-24T10:14:44Z</time>
      </trkpt>
      <trkpt lat="45.96143" lon="4.83544">
        <ele>242</ele>
        <time>2017-06-24T10:14:45Z</time>
      </trkpt>
      <trkpt lat="45.96141" lon="4.83536">
        <ele>242</ele>
        <time>2017-06-24T10:14:46Z</time>
      </trkpt>
      <trkpt lat="45.96139" lon="4.83528">
        <ele>242</ele>
        <time>2017-06-24T10:14:47Z</time>
      </trkpt>
      <trkpt lat="45.96138" lon="4.83519">
        <ele>242</ele>
        <time>2017-06-24T10:14:48Z</time>
      </trkpt>
      <trkpt lat="45.96136" lon="4.83511">
        <ele>242</ele>
        <time>2017-06-24T10:14:49Z</time>
      </trkpt>
      <trkpt lat="45.96135" lon="4.83502">
        <ele>242</ele>
        <time>2017-06-24T10:14:50Z</time>
      </trkpt>
      <trkpt lat="45.96133" lon="4.83494">
        <ele>242</ele>
        <time>2017-06-24T10:14:51Z</time>
      </trkpt>
      <trkpt lat="45.96131" lon="4.83485">
        <ele>242</ele>
        <time>2017-06-24T10:14:52Z</time>
      </trkpt>
      <trkpt lat="45.9613" lon="4.83476">
        <ele>242</ele>
        <time>2017-06-24T10:14:53Z</time>
      </trkpt>
      <trkpt lat="45.96128" lon="4.83468">
        <ele>242</ele>
        <time>2017-06-24T10:14:54Z</time>
      </trkpt>
      <trkpt lat="45.96127" lon="4.83458">
        <ele>242</ele>
        <time>2017-06-24T10:14:55Z</time>
      </trkpt>
      <trkpt lat="45.96126" lon="4.83449">
        <ele>242</ele>
        <time>2017-06-24T10:14:56Z</time>
      </trkpt>
      <trkpt lat="45.96125" lon="4.8344">
        <ele>242</ele>
        <time>2017-06-24T10:14:57Z</time>
      </trkpt>
      <trkpt lat="45.96123" lon="4.83431">
        <ele>242</ele>
        <time>2017-06-24T10:14:58Z</time>
      </trkpt>
      <trkpt lat="45.96121" lon="4.83421">
        <ele>243</ele>
        <time>2017-06-24T10:14:59Z</time>
      </trkpt>
      <trkpt lat="45.9612" lon="4.83412">
        <ele>243</ele>
        <time>2017-06-24T10:15:00Z</time>
      </trkpt>
      <trkpt lat="45.96118" lon="4.83403">
        <ele>243</ele>
        <time>2017-06-24T10:15:01Z</time>
      </trkpt>
      <trkpt lat="45.96117" lon="4.83393">
        <ele>243</ele>
        <time>2017-06-24T10:15:02Z</time>
      </trkpt>
      <trkpt lat="45.96115" lon="4.83384">
        <ele>243</ele>
        <time>2017-06-24T10:15:03Z</time>
      </trkpt>
      <trkpt lat="45.96113" lon="4.83375">
        <ele>242</ele>
        <time>2017-06-24T10:15:04Z</time>
      </trkpt>
      <trkpt lat="45.96112" lon="4.83366">
        <ele>242</ele>
        <time>2017-06-24T10:15:05Z</time>
      </trkpt>
      <trkpt lat="45.9611" lon="4.83356">
        <ele>242</ele>
        <time>2017-06-24T10:15:06Z</time>
      </trkpt>
      <trkpt lat="45.96107" lon="4.83347">
        <ele>242</ele>
        <time>2017-06-24T10:15:07Z</time>
      </trkpt>
      <trkpt lat="45.96105" lon="4.83337">
        <ele>242</ele>
        <time>2017-06-24T10:15:08Z</time>
      </trkpt>
      <trkpt lat="45.96103" lon="4.83327">
        <ele>241</ele>
        <time>2017-06-24T10:15:09Z</time>
      </trkpt>
      <trkpt lat="45.96101" lon="4.83318">
        <ele>241</ele>
        <time>2017-06-24T10:15:10Z</time>
      </trkpt>
      <trkpt lat="45.96099" lon="4.83308">
        <ele>241</ele>
        <time>2017-06-24T10:15:11Z</time>
      </trkpt>
      <trkpt lat="45.96098" lon="4.83299">
        <ele>241</ele>
        <time>2017-06-24T10:15:12Z</time>
      </trkpt>
      <trkpt lat="45.96097" lon="4.8329">
        <ele>241</ele>
        <time>2017-06-24T10:15:13Z</time>
      </trkpt>
      <trkpt lat="45.96097" lon="4.83281">
        <ele>241</ele>
        <time>2017-06-24T10:15:14Z</time>
      </trkpt>
      <trkpt lat="45.96096" lon="4.83273">
        <ele>241</ele>
        <time>2017-06-24T10:15:15Z</time>
      </trkpt>
      <trkpt lat="45.96095" lon="4.83264">
        <ele>241</ele>
        <time>2017-06-24T10:15:16Z</time>
      </trkpt>
      <trkpt lat="45.96093" lon="4.83255">
        <ele>241</ele>
        <time>2017-06-24T10:15:17Z</time>
      </trkpt>
      <trkpt lat="45.96092" lon="4.83246">
        <ele>240</ele>
        <time>2017-06-24T10:15:18Z</time>
      </trkpt>
      <trkpt lat="45.96092" lon="4.83236">
        <ele>240</ele>
        <time>2017-06-24T10:15:19Z</time>
      </trkpt>
      <trkpt lat="45.96092" lon="4.83228">
        <ele>240</ele>
        <time>2017-06-24T10:15:20Z</time>
      </trkpt>
      <trkpt lat="45.96092" lon="4.83219">
        <ele>240</ele>
        <time>2017-06-24T10:15:21Z</time>
      </trkpt>
      <trkpt lat="45.96092" lon="4.8321">
        <ele>240</ele>
        <time>2017-06-24T10:15:22Z</time>
      </trkpt>
      <trkpt lat="45.96092" lon="4.83202">
        <ele>240</ele>
        <time>2017-06-24T10:15:23Z</time>
      </trkpt>
      <trkpt lat="45.96092" lon="4.83194">
        <ele>240</ele>
        <time>2017-06-24T10:15:24Z</time>
      </trkpt>
      <trkpt lat="45.96091" lon="4.83187">
        <ele>240</ele>
        <time>2017-06-24T10:15:25Z</time>
      </trkpt>
      <trkpt lat="45.9609" lon="4.83178">
        <ele>240</ele>
        <time>2017-06-24T10:15:26Z</time>
      </trkpt>
      <trkpt lat="45.9609" lon="4.83169">
        <ele>240</ele>
        <time>2017-06-24T10:15:27Z</time>
      </trkpt>
      <trkpt lat="45.9609" lon="4.8316">
        <ele>240</ele>
        <time>2017-06-24T10:15:28Z</time>
      </trkpt>
      <trkpt lat="45.9609" lon="4.83151">
        <ele>240</ele>
        <time>2017-06-24T10:15:29Z</time>
      </trkpt>
      <trkpt lat="45.96089" lon="4.83142">
        <ele>240</ele>
        <time>2017-06-24T10:15:30Z</time>
      </trkpt>
      <trkpt lat="45.96089" lon="4.83133">
        <ele>240</ele>
        <time>2017-06-24T10:15:31Z</time>
      </trkpt>
      <trkpt lat="45.96088" lon="4.83125">
        <ele>240</ele>
        <time>2017-06-24T10:15:32Z</time>
      </trkpt>
      <trkpt lat="45.96088" lon="4.83116">
        <ele>240</ele>
        <time>2017-06-24T10:15:33Z</time>
      </trkpt>
      <trkpt lat="45.96087" lon="4.83108">
        <ele>240</ele>
        <time>2017-06-24T10:15:34Z</time>
      </trkpt>
      <trkpt lat="45.96086" lon="4.83099">
        <ele>240</ele>
        <time>2017-06-24T10:15:35Z</time>
      </trkpt>
      <trkpt lat="45.96085" lon="4.83091">
        <ele>240</ele>
        <time>2017-06-24T10:15:36Z</time>
      </trkpt>
      <trkpt lat="45.96084" lon="4.83084">
        <ele>240</ele>
        <time>2017-06-24T10:15:37Z</time>
      </trkpt>
      <trkpt lat="45.96081" lon="4.83076">
        <ele>241</ele>
        <time>2017-06-24T10:15:38Z</time>
      </trkpt>
      <trkpt lat="45.96079" lon="4.83069">
        <ele>242</ele>
        <time>2017-06-24T10:15:39Z</time>
      </trkpt>
      <trkpt lat="45.96077" lon="4.83061">
        <ele>242</ele>
        <time>2017-06-24T10:15:40Z</time>
      </trkpt>
      <trkpt lat="45.96075" lon="4.83053">
        <ele>242</ele>
        <time>2017-06-24T10:15:41Z</time>
      </trkpt>
      <trkpt lat="45.96074" lon="4.83044">
        <ele>243</ele>
        <time>2017-06-24T10:15:42Z</time>
      </trkpt>
      <trkpt lat="45.96072" lon="4.83035">
        <ele>242</ele>
        <time>2017-06-24T10:15:43Z</time>
      </trkpt>
      <trkpt lat="45.96071" lon="4.83026">
        <ele>242</ele>
        <time>2017-06-24T10:15:44Z</time>
      </trkpt>
      <trkpt lat="45.9607" lon="4.83018">
        <ele>242</ele>
        <time>2017-06-24T10:15:45Z</time>
      </trkpt>
      <trkpt lat="45.96069" lon="4.83008">
        <ele>241</ele>
        <time>2017-06-24T10:15:46Z</time>
      </trkpt>
      <trkpt lat="45.96068" lon="4.82999">
        <ele>241</ele>
        <time>2017-06-24T10:15:47Z</time>
      </trkpt>
      <trkpt lat="45.96069" lon="4.8299">
        <ele>241</ele>
        <time>2017-06-24T10:15:48Z</time>
      </trkpt>
      <trkpt lat="45.9607" lon="4.82982">
        <ele>241</ele>
        <time>2017-06-24T10:15:49Z</time>
      </trkpt>
      <trkpt lat="45.96072" lon="4.82973">
        <ele>241</ele>
        <time>2017-06-24T10:15:50Z</time>
      </trkpt>
      <trkpt lat="45.96074" lon="4.82965">
        <ele>241</ele>
        <time>2017-06-24T10:15:51Z</time>
      </trkpt>
      <trkpt lat="45.96077" lon="4.82957">
        <ele>241</ele>
        <time>2017-06-24T10:15:52Z</time>
      </trkpt>
      <trkpt lat="45.96079" lon="4.82948">
        <ele>241</ele>
        <time>2017-06-24T10:15:53Z</time>
      </trkpt>
      <trkpt lat="45.9608" lon="4.8294">
        <ele>240</ele>
        <time>2017-06-24T10:15:54Z</time>
      </trkpt>
      <trkpt lat="45.96082" lon="4.82931">
        <ele>240</ele>
        <time>2017-06-24T10:15:55Z</time>
      </trkpt>
      <trkpt lat="45.96084" lon="4.82922">
        <ele>238</ele>
        <time>2017-06-24T10:15:56Z</time>
      </trkpt>
      <trkpt lat="45.96086" lon="4.82914">
        <ele>238</ele>
        <time>2017-06-24T10:15:57Z</time>
      </trkpt>
      <trkpt lat="45.96088" lon="4.82906">
        <ele>238</ele>
        <time>2017-06-24T10:15:58Z</time>
      </trkpt>
      <trkpt lat="45.9609" lon="4.82898">
        <ele>238</ele>
        <time>2017-06-24T10:15:59Z</time>
      </trkpt>
      <trkpt lat="45.96091" lon="4.8289">
        <ele>237</ele>
        <time>2017-06-24T10:16:00Z</time>
      </trkpt>
      <trkpt lat="45.96093" lon="4.82883">
        <ele>237</ele>
        <time>2017-06-24T10:16:01Z</time>
      </trkpt>
      <trkpt lat="45.96094" lon="4.82876">
        <ele>237</ele>
        <time>2017-06-24T10:16:02Z</time>
      </trkpt>
      <trkpt lat="45.96096" lon="4.82868">
        <ele>237</ele>
        <time>2017-06-24T10:16:03Z</time>
      </trkpt>
      <trkpt lat="45.96097" lon="4.82861">
        <ele>237</ele>
        <time>2017-06-24T10:16:04Z</time>
      </trkpt>
      <trkpt lat="45.96097" lon="4.82853">
        <ele>237</ele>
        <time>2017-06-24T10:16:05Z</time>
      </trkpt>
      <trkpt lat="45.96097" lon="4.82845">
        <ele>237</ele>
        <time>2017-06-24T10:16:06Z</time>
      </trkpt>
      <trkpt lat="45.96097" lon="4.82837">
        <ele>237</ele>
        <time>2017-06-24T10:16:07Z</time>
      </trkpt>
      <trkpt lat="45.96096" lon="4.82829">
        <ele>237</ele>
        <time>2017-06-24T10:16:08Z</time>
      </trkpt>
      <trkpt lat="45.96094" lon="4.82821">
        <ele>237</ele>
        <time>2017-06-24T10:16:09Z</time>
      </trkpt>
      <trkpt lat="45.96093" lon="4.82813">
        <ele>237</ele>
        <time>2017-06-24T10:16:10Z</time>
      </trkpt>
      <trkpt lat="45.96092" lon="4.82806">
        <ele>237</ele>
        <time>2017-06-24T10:16:11Z</time>
      </trkpt>
      <trkpt lat="45.9609" lon="4.82798">
        <ele>237</ele>
        <time>2017-06-24T10:16:12Z</time>
      </trkpt>
      <trkpt lat="45.96089" lon="4.8279">
        <ele>237</ele>
        <time>2017-06-24T10:16:13Z</time>
      </trkpt>
      <trkpt lat="45.96088" lon="4.82782">
        <ele>237</ele>
        <time>2017-06-24T10:16:14Z</time>
      </trkpt>
      <trkpt lat="45.96086" lon="4.82774">
        <ele>237</ele>
        <time>2017-06-24T10:16:15Z</time>
      </trkpt>
      <trkpt lat="45.96083" lon="4.82767">
        <ele>238</ele>
        <time>2017-06-24T10:16:16Z</time>
      </trkpt>
      <trkpt lat="45.96081" lon="4.82759">
        <ele>237</ele>
        <time>2017-06-24T10:16:17Z</time>
      </trkpt>
      <trkpt lat="45.96078" lon="4.8275">
        <ele>237</ele>
        <time>2017-06-24T10:16:18Z</time>
      </trkpt>
      <trkpt lat="45.96076" lon="4.82743">
        <ele>237</ele>
        <time>2017-06-24T10:16:19Z</time>
      </trkpt>
      <trkpt lat="45.96073" lon="4.82735">
        <ele>237</ele>
        <time>2017-06-24T10:16:20Z</time>
      </trkpt>
      <trkpt lat="45.9607" lon="4.82729">
        <ele>237</ele>
        <time>2017-06-24T10:16:21Z</time>
      </trkpt>
      <trkpt lat="45.96069" lon="4.82723">
        <ele>237</ele>
        <time>2017-06-24T10:16:22Z</time>
      </trkpt>
      <trkpt lat="45.96067" lon="4.82715">
        <ele>237</ele>
        <time>2017-06-24T10:16:23Z</time>
      </trkpt>
      <trkpt lat="45.96064" lon="4.82708">
        <ele>237</ele>
        <time>2017-06-24T10:16:24Z</time>
      </trkpt>
      <trkpt lat="45.96061" lon="4.82701">
        <ele>237</ele>
        <time>2017-06-24T10:16:25Z</time>
      </trkpt>
      <trkpt lat="45.96058" lon="4.82693">
        <ele>237</ele>
        <time>2017-06-24T10:16:26Z</time>
      </trkpt>
      <trkpt lat="45.96055" lon="4.82686">
        <ele>236</ele>
        <time>2017-06-24T10:16:27Z</time>
      </trkpt>
      <trkpt lat="45.96052" lon="4.82678">
        <ele>236</ele>
        <time>2017-06-24T10:16:28Z</time>
      </trkpt>
      <trkpt lat="45.96051" lon="4.8267">
        <ele>236</ele>
        <time>2017-06-24T10:16:29Z</time>
      </trkpt>
      <trkpt lat="45.96049" lon="4.82662">
        <ele>235</ele>
        <time>2017-06-24T10:16:30Z</time>
      </trkpt>
      <trkpt lat="45.96046" lon="4.82655">
        <ele>235</ele>
        <time>2017-06-24T10:16:31Z</time>
      </trkpt>
      <trkpt lat="45.96043" lon="4.82647">
        <ele>235</ele>
        <time>2017-06-24T10:16:32Z</time>
      </trkpt>
      <trkpt lat="45.96041" lon="4.8264">
        <ele>235</ele>
        <time>2017-06-24T10:16:33Z</time>
      </trkpt>
      <trkpt lat="45.96038" lon="4.82632">
        <ele>235</ele>
        <time>2017-06-24T10:16:34Z</time>
      </trkpt>
      <trkpt lat="45.96035" lon="4.82625">
        <ele>235</ele>
        <time>2017-06-24T10:16:35Z</time>
      </trkpt>
      <trkpt lat="45.96032" lon="4.82618">
        <ele>235</ele>
        <time>2017-06-24T10:16:36Z</time>
      </trkpt>
      <trkpt lat="45.9603" lon="4.8261">
        <ele>235</ele>
        <time>2017-06-24T10:16:37Z</time>
      </trkpt>
      <trkpt lat="45.96026" lon="4.82603">
        <ele>235</ele>
        <time>2017-06-24T10:16:38Z</time>
      </trkpt>
      <trkpt lat="45.96023" lon="4.82595">
        <ele>235</ele>
        <time>2017-06-24T10:16:39Z</time>
      </trkpt>
      <trkpt lat="45.96021" lon="4.82588">
        <ele>235</ele>
        <time>2017-06-24T10:16:40Z</time>
      </trkpt>
      <trkpt lat="45.96019" lon="4.82581">
        <ele>234</ele>
        <time>2017-06-24T10:16:41Z</time>
      </trkpt>
      <trkpt lat="45.96016" lon="4.82574">
        <ele>234</ele>
        <time>2017-06-24T10:16:42Z</time>
      </trkpt>
      <trkpt lat="45.96015" lon="4.82567">
        <ele>235</ele>
        <time>2017-06-24T10:16:43Z</time>
      </trkpt>
      <trkpt lat="45.96013" lon="4.82559">
        <ele>235</ele>
        <time>2017-06-24T10:16:44Z</time>
      </trkpt>
      <trkpt lat="45.96013" lon="4.82552">
        <ele>235</ele>
        <time>2017-06-24T10:16:45Z</time>
      </trkpt>
      <trkpt lat="45.96011" lon="4.82545">
        <ele>235</ele>
        <time>2017-06-24T10:16:46Z</time>
      </trkpt>
      <trkpt lat="45.96011" lon="4.82538">
        <ele>235</ele>
        <time>2017-06-24T10:16:47Z</time>
      </trkpt>
      <trkpt lat="45.96013" lon="4.82532">
        <ele>235</ele>
        <time>2017-06-24T10:16:48Z</time>
      </trkpt>
      <trkpt lat="45.96014" lon="4.82525">
        <ele>235</ele>
        <time>2017-06-24T10:16:49Z</time>
      </trkpt>
      <trkpt lat="45.96014" lon="4.82517">
        <ele>235</ele>
        <time>2017-06-24T10:16:50Z</time>
      </trkpt>
      <trkpt lat="45.96015" lon="4.82509">
        <ele>235</ele>
        <time>2017-06-24T10:16:51Z</time>
      </trkpt>
      <trkpt lat="45.96014" lon="4.82501">
        <ele>235</ele>
        <time>2017-06-24T10:16:52Z</time>
      </trkpt>
      <trkpt lat="45.96015" lon="4.82493">
        <ele>235</ele>
        <time>2017-06-24T10:16:53Z</time>
      </trkpt>
      <trkpt lat="45.96015" lon="4.82485">
        <ele>235</ele>
        <time>2017-06-24T10:16:54Z</time>
      </trkpt>
      <trkpt lat="45.96015" lon="4.82477">
        <ele>235</ele>
        <time>2017-06-24T10:16:55Z</time>
      </trkpt>
      <trkpt lat="45.96016" lon="4.82468">
        <ele>235</ele>
        <time>2017-06-24T10:16:56Z</time>
      </trkpt>
      <trkpt lat="45.96017" lon="4.82461">
        <ele>235</ele>
        <time>2017-06-24T10:16:57Z</time>
      </trkpt>
      <trkpt lat="45.96018" lon="4.82453">
        <ele>235</ele>
        <time>2017-06-24T10:16:58Z</time>
      </trkpt>
      <trkpt lat="45.96018" lon="4.82445">
        <ele>235</ele>
        <time>2017-06-24T10:16:59Z</time>
      </trkpt>
      <trkpt lat="45.9602" lon="4.82437">
        <ele>235</ele>
        <time>2017-06-24T10:17:00Z</time>
      </trkpt>
      <trkpt lat="45.96021" lon="4.8243">
        <ele>235</ele>
        <time>2017-06-24T10:17:01Z</time>
      </trkpt>
      <trkpt lat="45.96022" lon="4.82422">
        <ele>235</ele>
        <time>2017-06-24T10:17:02Z</time>
      </trkpt>
      <trkpt lat="45.96024" lon="4.82414">
        <ele>235</ele>
        <time>2017-06-24T10:17:03Z</time>
      </trkpt>
      <trkpt lat="45.96025" lon="4.82407">
        <ele>235</ele>
        <time>2017-06-24T10:17:04Z</time>
      </trkpt>
      <trkpt lat="45.96025" lon="4.82399">
        <ele>235</ele>
        <time>2017-06-24T10:17:05Z</time>
      </trkpt>
      <trkpt lat="45.96027" lon="4.82392">
        <ele>235</ele>
        <time>2017-06-24T10:17:06Z</time>
      </trkpt>
      <trkpt lat="45.96029" lon="4.82385">
        <ele>235</ele>
        <time>2017-06-24T10:17:07Z</time>
      </trkpt>
      <trkpt lat="45.96031" lon="4.82379">
        <ele>235</ele>
        <time>2017-06-24T10:17:08Z</time>
      </trkpt>
      <trkpt lat="45.96032" lon="4.82373">
        <ele>235</ele>
        <time>2017-06-24T10:17:09Z</time>
      </trkpt>
      <trkpt lat="45.9603" lon="4.82362">
        <ele>235</ele>
        <time>2017-06-24T10:17:11Z</time>
      </trkpt>
      <trkpt lat="45.96026" lon="4.8236">
        <ele>235</ele>
        <time>2017-06-24T10:17:12Z</time>
      </trkpt>
      <trkpt lat="45.96017" lon="4.82359">
        <ele>235</ele>
        <time>2017-06-24T10:17:14Z</time>
      </trkpt>
      <trkpt lat="45.96013" lon="4.82358">
        <ele>235</ele>
        <time>2017-06-24T10:17:15Z</time>
      </trkpt>
      <trkpt lat="45.96009" lon="4.82356">
        <ele>235</ele>
        <time>2017-06-24T10:17:16Z</time>
      </trkpt>
      <trkpt lat="45.96004" lon="4.82356">
        <ele>235</ele>
        <time>2017-06-24T10:17:17Z</time>
      </trkpt>
      <trkpt lat="45.95996" lon="4.82357">
        <ele>236</ele>
        <time>2017-06-24T10:17:19Z</time>
      </trkpt>
      <trkpt lat="45.95992" lon="4.82358">
        <ele>236</ele>
        <time>2017-06-24T10:17:20Z</time>
      </trkpt>
      <trkpt lat="45.95987" lon="4.82358">
        <ele>236</ele>
        <time>2017-06-24T10:17:21Z</time>
      </trkpt>
      <trkpt lat="45.95983" lon="4.82359">
        <ele>237</ele>
        <time>2017-06-24T10:17:22Z</time>
      </trkpt>
      <trkpt lat="45.95975" lon="4.82359">
        <ele>237</ele>
        <time>2017-06-24T10:17:24Z</time>
      </trkpt>
      <trkpt lat="45.9597" lon="4.82359">
        <ele>237</ele>
        <time>2017-06-24T10:17:25Z</time>
      </trkpt>
      <trkpt lat="45.95962" lon="4.8236">
        <ele>237</ele>
        <time>2017-06-24T10:17:27Z</time>
      </trkpt>
      <trkpt lat="45.95958" lon="4.8236">
        <ele>237</ele>
        <time>2017-06-24T10:17:28Z</time>
      </trkpt>
      <trkpt lat="45.95949" lon="4.82362">
        <ele>237</ele>
        <time>2017-06-24T10:17:30Z</time>
      </trkpt>
      <trkpt lat="45.95945" lon="4.82362">
        <ele>237</ele>
        <time>2017-06-24T10:17:31Z</time>
      </trkpt>
      <trkpt lat="45.95937" lon="4.82363">
        <ele>238</ele>
        <time>2017-06-24T10:17:33Z</time>
      </trkpt>
      <trkpt lat="45.95932" lon="4.82364">
        <ele>238</ele>
        <time>2017-06-24T10:17:34Z</time>
      </trkpt>
      <trkpt lat="45.95924" lon="4.82366">
        <ele>238</ele>
        <time>2017-06-24T10:17:36Z</time>
      </trkpt>
      <trkpt lat="45.9592" lon="4.82366">
        <ele>238</ele>
        <time>2017-06-24T10:17:37Z</time>
      </trkpt>
      <trkpt lat="45.95915" lon="4.82367">
        <ele>242</ele>
        <time>2017-06-24T10:17:38Z</time>
      </trkpt>
      <trkpt lat="45.95911" lon="4.82367">
        <ele>242</ele>
        <time>2017-06-24T10:17:39Z</time>
      </trkpt>
      <trkpt lat="45.95902" lon="4.82368">
        <ele>243</ele>
        <time>2017-06-24T10:17:41Z</time>
      </trkpt>
      <trkpt lat="45.95897" lon="4.82369">
        <ele>243</ele>
        <time>2017-06-24T10:17:42Z</time>
      </trkpt>
      <trkpt lat="45.95889" lon="4.8237">
        <ele>243</ele>
        <time>2017-06-24T10:17:44Z</time>
      </trkpt>
      <trkpt lat="45.95885" lon="4.82369">
        <ele>244</ele>
        <time>2017-06-24T10:17:45Z</time>
      </trkpt>
      <trkpt lat="45.95877" lon="4.8237">
        <ele>244</ele>
        <time>2017-06-24T10:17:47Z</time>
      </trkpt>
      <trkpt lat="45.95873" lon="4.8237">
        <ele>244</ele>
        <time>2017-06-24T10:17:48Z</time>
      </trkpt>
      <trkpt lat="45.95866" lon="4.8237">
        <ele>245</ele>
        <time>2017-06-24T10:17:50Z</time>
      </trkpt>
      <trkpt lat="45.95862" lon="4.82369">
        <ele>245</ele>
        <time>2017-06-24T10:17:51Z</time>
      </trkpt>
      <trkpt lat="45.95854" lon="4.82369">
        <ele>245</ele>
        <time>2017-06-24T10:17:53Z</time>
      </trkpt>
      <trkpt lat="45.9585" lon="4.82368">
        <ele>245</ele>
        <time>2017-06-24T10:17:54Z</time>
      </trkpt>
      <trkpt lat="45.95842" lon="4.82368">
        <ele>246</ele>
        <time>2017-06-24T10:17:56Z</time>
      </trkpt>
      <trkpt lat="45.95839" lon="4.82367">
        <ele>246</ele>
        <time>2017-06-24T10:17:57Z</time>
      </trkpt>
      <trkpt lat="45.95832" lon="4.82367">
        <ele>251</ele>
        <time>2017-06-24T10:17:59Z</time>
      </trkpt>
      <trkpt lat="45.95829" lon="4.82366">
        <ele>251</ele>
        <time>2017-06-24T10:18:00Z</time>
      </trkpt>
      <trkpt lat="45.9582" lon="4.82366">
        <ele>251</ele>
        <time>2017-06-24T10:18:03Z</time>
      </trkpt>
      <trkpt lat="45.95818" lon="4.82365">
        <ele>251</ele>
        <time>2017-06-24T10:18:04Z</time>
      </trkpt>
      <trkpt lat="45.9581" lon="4.82363">
        <ele>252</ele>
        <time>2017-06-24T10:18:07Z</time>
      </trkpt>
      <trkpt lat="45.95807" lon="4.82362">
        <ele>252</ele>
        <time>2017-06-24T10:18:08Z</time>
      </trkpt>
      <trkpt lat="45.95799" lon="4.82359">
        <ele>252</ele>
        <time>2017-06-24T10:18:11Z</time>
      </trkpt>
      <trkpt lat="45.95796" lon="4.82357">
        <ele>252</ele>
        <time>2017-06-24T10:18:12Z</time>
      </trkpt>
      <trkpt lat="45.9579" lon="4.82352">
        <ele>253</ele>
        <time>2017-06-24T10:18:15Z</time>
      </trkpt>
      <trkpt lat="45.95788" lon="4.8235">
        <ele>253</ele>
        <time>2017-06-24T10:18:16Z</time>
      </trkpt>
      <trkpt lat="45.95781" lon="4.82343">
        <ele>253</ele>
        <time>2017-06-24T10:18:19Z</time>
      </trkpt>
      <trkpt lat="45.95778" lon="4.82341">
        <ele>253</ele>
        <time>2017-06-24T10:18:20Z</time>
      </trkpt>
      <trkpt lat="45.95772" lon="4.82335">
        <ele>254</ele>
        <time>2017-06-24T10:18:22Z</time>
      </trkpt>
      <trkpt lat="45.95769" lon="4.82332">
        <ele>252</ele>
        <time>2017-06-24T10:18:23Z</time>
      </trkpt>
      <trkpt lat="45.95763" lon="4.82326">
        <ele>253</ele>
        <time>2017-06-24T10:18:26Z</time>
      </trkpt>
      <trkpt lat="45.9576" lon="4.82324">
        <ele>253</ele>
        <time>2017-06-24T10:18:27Z</time>
      </trkpt>
      <trkpt lat="45.95754" lon="4.82317">
        <ele>253</ele>
        <time>2017-06-24T10:18:30Z</time>
      </trkpt>
      <trkpt lat="45.95752" lon="4.82314">
        <ele>253</ele>
        <time>2017-06-24T10:18:31Z</time>
      </trkpt>
      <trkpt lat="45.95747" lon="4.82306">
        <ele>255</ele>
        <time>2017-06-24T10:18:34Z</time>
      </trkpt>
      <trkpt lat="45.95745" lon="4.82304">
        <ele>255</ele>
        <time>2017-06-24T10:18:35Z</time>
      </trkpt>
      <trkpt lat="45.9574" lon="4.82297">
        <ele>255</ele>
        <time>2017-06-24T10:18:38Z</time>
      </trkpt>
      <trkpt lat="45.95737" lon="4.82295">
        <ele>255</ele>
        <time>2017-06-24T10:18:39Z</time>
      </trkpt>
      <trkpt lat="45.95731" lon="4.82287">
        <ele>255</ele>
        <time>2017-06-24T10:18:42Z</time>
      </trkpt>
      <trkpt lat="45.95729" lon="4.82285">
        <ele>255</ele>
        <time>2017-06-24T10:18:43Z</time>
      </trkpt>
      <trkpt lat="45.95724" lon="4.82278">
        <ele>255</ele>
        <time>2017-06-24T10:18:46Z</time>
      </trkpt>
      <trkpt lat="45.95722" lon="4.82276">
        <ele>255</ele>
        <time>2017-06-24T10:18:47Z</time>
      </trkpt>
      <trkpt lat="45.95715" lon="4.82269">
        <ele>255</ele>
        <time>2017-06-24T10:18:51Z</time>
      </trkpt>
      <trkpt lat="45.95711" lon="4.82266">
        <ele>255</ele>
        <time>2017-06-24T10:18:52Z</time>
      </trkpt>
      <trkpt lat="45.95705" lon="4.8226">
        <ele>255</ele>
        <time>2017-06-24T10:18:54Z</time>
      </trkpt>
      <trkpt lat="45.95704" lon="4.82257">
        <ele>255</ele>
        <time>2017-06-24T10:18:55Z</time>
      </trkpt>
      <trkpt lat="45.95699" lon="4.82251">
        <ele>255</ele>
        <time>2017-06-24T10:18:57Z</time>
      </trkpt>
      <trkpt lat="45.95696" lon="4.82248">
        <ele>254</ele>
        <time>2017-06-24T10:18:58Z</time>
      </trkpt>
      <trkpt lat="45.9569" lon="4.82241">
        <ele>255</ele>
        <time>2017-06-24T10:19:01Z</time>
      </trkpt>
      <trkpt lat="45.95688" lon="4.82239">
        <ele>255</ele>
        <time>2017-06-24T10:19:02Z</time>
      </trkpt>
      <trkpt lat="45.95682" lon="4.82237">
        <ele>255</ele>
        <time>2017-06-24T10:19:04Z</time>
      </trkpt>
      <trkpt lat="45.95679" lon="4.82235">
        <ele>255</ele>
        <time>2017-06-24T10:19:05Z</time>
      </trkpt>
      <trkpt lat="45.95672" lon="4.8223">
        <ele>255</ele>
        <time>2017-06-24T10:19:07Z</time>
      </trkpt>
      <trkpt lat="45.95669" lon="4.82228">
        <ele>255</ele>
        <time>2017-06-24T10:19:08Z</time>
      </trkpt>
      <trkpt lat="45.95661" lon="4.82226">
        <ele>257</ele>
        <time>2017-06-24T10:19:10Z</time>
      </trkpt>
      <trkpt lat="45.95658" lon="4.82225">
        <ele>257</ele>
        <time>2017-06-24T10:19:11Z</time>
      </trkpt>
      <trkpt lat="45.9565" lon="4.82224">
        <ele>257</ele>
        <time>2017-06-24T10:19:13Z</time>
      </trkpt>
      <trkpt lat="45.95646" lon="4.82223">
        <ele>257</ele>
        <time>2017-06-24T10:19:14Z</time>
      </trkpt>
      <trkpt lat="45.95639" lon="4.82222">
        <ele>257</ele>
        <time>2017-06-24T10:19:16Z</time>
      </trkpt>
      <trkpt lat="45.95635" lon="4.82223">
        <ele>257</ele>
        <time>2017-06-24T10:19:17Z</time>
      </trkpt>
      <trkpt lat="45.95629" lon="4.82224">
        <ele>257</ele>
        <time>2017-06-24T10:19:19Z</time>
      </trkpt>
      <trkpt lat="45.95626" lon="4.82224">
        <ele>257</ele>
        <time>2017-06-24T10:19:20Z</time>
      </trkpt>
      <trkpt lat="45.9562" lon="4.82225">
        <ele>257</ele>
        <time>2017-06-24T10:19:22Z</time>
      </trkpt>
      <trkpt lat="45.95616" lon="4.82225">
        <ele>257</ele>
        <time>2017-06-24T10:19:23Z</time>
      </trkpt>
      <trkpt lat="45.95607" lon="4.82226">
        <ele>257</ele>
        <time>2017-06-24T10:19:26Z</time>
      </trkpt>
      <trkpt lat="45.95605" lon="4.82225">
        <ele>257</ele>
        <time>2017-06-24T10:19:27Z</time>
      </trkpt>
      <trkpt lat="45.95599" lon="4.82222">
        <ele>257</ele>
        <time>2017-06-24T10:19:29Z</time>
      </trkpt>
      <trkpt lat="45.95595" lon="4.8222">
        <ele>257</ele>
        <time>2017-06-24T10:19:30Z</time>
      </trkpt>
      <trkpt lat="45.95589" lon="4.82216">
        <ele>257</ele>
        <time>2017-06-24T10:19:32Z</time>
      </trkpt>
      <trkpt lat="45.95586" lon="4.82214">
        <ele>257</ele>
        <time>2017-06-24T10:19:33Z</time>
      </trkpt>
      <trkpt lat="45.95579" lon="4.8221">
        <ele>258</ele>
        <time>2017-06-24T10:19:35Z</time>
      </trkpt>
      <trkpt lat="45.95576" lon="4.82208">
        <ele>258</ele>
        <time>2017-06-24T10:19:36Z</time>
      </trkpt>
      <trkpt lat="45.9557" lon="4.82204">
        <ele>258</ele>
        <time>2017-06-24T10:19:38Z</time>
      </trkpt>
      <trkpt lat="45.95567" lon="4.82201">
        <ele>258</ele>
        <time>2017-06-24T10:19:39Z</time>
      </trkpt>
      <trkpt lat="45.95561" lon="4.82196">
        <ele>259</ele>
        <time>2017-06-24T10:19:41Z</time>
      </trkpt>
      <trkpt lat="45.95557" lon="4.82193">
        <ele>259</ele>
        <time>2017-06-24T10:19:42Z</time>
      </trkpt>
      <trkpt lat="45.9555" lon="4.82188">
        <ele>259</ele>
        <time>2017-06-24T10:19:44Z</time>
      </trkpt>
      <trkpt lat="45.95547" lon="4.82185">
        <ele>259</ele>
        <time>2017-06-24T10:19:45Z</time>
      </trkpt>
      <trkpt lat="45.95541" lon="4.82179">
        <ele>259</ele>
        <time>2017-06-24T10:19:47Z</time>
      </trkpt>
      <trkpt lat="45.95537" lon="4.82176">
        <ele>259</ele>
        <time>2017-06-24T10:19:48Z</time>
      </trkpt>
      <trkpt lat="45.95532" lon="4.8217">
        <ele>259</ele>
        <time>2017-06-24T10:19:50Z</time>
      </trkpt>
      <trkpt lat="45.95529" lon="4.82167">
        <ele>259</ele>
        <time>2017-06-24T10:19:51Z</time>
      </trkpt>
      <trkpt lat="45.95523" lon="4.8216">
        <ele>259</ele>
        <time>2017-06-24T10:19:53Z</time>
      </trkpt>
      <trkpt lat="45.9552" lon="4.82157">
        <ele>259</ele>
        <time>2017-06-24T10:19:54Z</time>
      </trkpt>
      <trkpt lat="45.95513" lon="4.8215">
        <ele>259</ele>
        <time>2017-06-24T10:19:56Z</time>
      </trkpt>
      <trkpt lat="45.9551" lon="4.82147">
        <ele>259</ele>
        <time>2017-06-24T10:19:57Z</time>
      </trkpt>
      <trkpt lat="45.95505" lon="4.82141">
        <ele>259</ele>
        <time>2017-06-24T10:19:59Z</time>
      </trkpt>
      <trkpt lat="45.95503" lon="4.82138">
        <ele>259</ele>
        <time>2017-06-24T10:20:00Z</time>
      </trkpt>
      <trkpt lat="45.95497" lon="4.82132">
        <ele>260</ele>
        <time>2017-06-24T10:20:02Z</time>
      </trkpt>
      <trkpt lat="45.95493" lon="4.82129">
        <ele>260</ele>
        <time>2017-06-24T10:20:03Z</time>
      </trkpt>
      <trkpt lat="45.95487" lon="4.82123">
        <ele>260</ele>
        <time>2017-06-24T10:20:05Z</time>
      </trkpt>
      <trkpt lat="45.95484" lon="4.82119">
        <ele>260</ele>
        <time>2017-06-24T10:20:06Z</time>
      </trkpt>
      <trkpt lat="45.95478" lon="4.82114">
        <ele>260</ele>
        <time>2017-06-24T10:20:08Z</time>
      </trkpt>
      <trkpt lat="45.95476" lon="4.82111">
        <ele>260</ele>
        <time>2017-06-24T10:20:09Z</time>
      </trkpt>
      <trkpt lat="45.95471" lon="4.82106">
        <ele>260</ele>
        <time>2017-06-24T10:20:11Z</time>
      </trkpt>
      <trkpt lat="45.95468" lon="4.82104">
        <ele>260</ele>
        <time>2017-06-24T10:20:12Z</time>
      </trkpt>
      <trkpt lat="45.95462" lon="4.82099">
        <ele>260</ele>
        <time>2017-06-24T10:20:14Z</time>
      </trkpt>
      <trkpt lat="45.9546" lon="4.82096">
        <ele>260</ele>
        <time>2017-06-24T10:20:15Z</time>
      </trkpt>
      <trkpt lat="45.95454" lon="4.82088">
        <ele>260</ele>
        <time>2017-06-24T10:20:17Z</time>
      </trkpt>
      <trkpt lat="45.95451" lon="4.82084">
        <ele>260</ele>
        <time>2017-06-24T10:20:18Z</time>
      </trkpt>
      <trkpt lat="45.95445" lon="4.82078">
        <ele>260</ele>
        <time>2017-06-24T10:20:20Z</time>
      </trkpt>
      <trkpt lat="45.95441" lon="4.82076">
        <ele>260</ele>
        <time>2017-06-24T10:20:21Z</time>
      </trkpt>
      <trkpt lat="45.95434" lon="4.82069">
        <ele>260</ele>
        <time>2017-06-24T10:20:23Z</time>
      </trkpt>
      <trkpt lat="45.9543" lon="4.82065">
        <ele>260</ele>
        <time>2017-06-24T10:20:24Z</time>
      </trkpt>
      <trkpt lat="45.95424" lon="4.82056">
        <ele>260</ele>
        <time>2017-06-24T10:20:26Z</time>
      </trkpt>
      <trkpt lat="45.95421" lon="4.82052">
        <ele>260</ele>
        <time>2017-06-24T10:20:27Z</time>
      </trkpt>
      <trkpt lat="45.95415" lon="4.82046">
        <ele>261</ele>
        <time>2017-06-24T10:20:29Z</time>
      </trkpt>
      <trkpt lat="45.95412" lon="4.82042">
        <ele>261</ele>
        <time>2017-06-24T10:20:30Z</time>
      </trkpt>
      <trkpt lat="45.95408" lon="4.82038">
        <ele>261</ele>
        <time>2017-06-24T10:20:31Z</time>
      </trkpt>
      <trkpt lat="45.95403" lon="4.82034">
        <ele>261</ele>
        <time>2017-06-24T10:20:32Z</time>
      </trkpt>
      <trkpt lat="45.95399" lon="4.82031">
        <ele>261</ele>
        <time>2017-06-24T10:20:33Z</time>
      </trkpt>
      <trkpt lat="45.95394" lon="4.82027">
        <ele>261</ele>
        <time>2017-06-24T10:20:34Z</time>
      </trkpt>
      <trkpt lat="45.95389" lon="4.82022">
        <ele>261</ele>
        <time>2017-06-24T10:20:35Z</time>
      </trkpt>
      <trkpt lat="45.95384" lon="4.82018">
        <ele>261</ele>
        <time>2017-06-24T10:20:36Z</time>
      </trkpt>
      <trkpt lat="45.9538" lon="4.82014">
        <ele>262</ele>
        <time>2017-06-24T10:20:37Z</time>
      </trkpt>
      <trkpt lat="45.95376" lon="4.82009">
        <ele>262</ele>
        <time>2017-06-24T10:20:38Z</time>
      </trkpt>
      <trkpt lat="45.95373" lon="4.82005">
        <ele>262</ele>
        <time>2017-06-24T10:20:39Z</time>
      </trkpt>
      <trkpt lat="45.95369" lon="4.82001">
        <ele>262</ele>
        <time>2017-06-24T10:20:40Z</time>
      </trkpt>
      <trkpt lat="45.95362" lon="4.81993">
        <ele>261</ele>
        <time>2017-06-24T10:20:42Z</time>
      </trkpt>
      <trkpt lat="45.95359" lon="4.81989">
        <ele>261</ele>
        <time>2017-06-24T10:20:43Z</time>
      </trkpt>
      <trkpt lat="45.95352" lon="4.81983">
        <ele>262</ele>
        <time>2017-06-24T10:20:45Z</time>
      </trkpt>
      <trkpt lat="45.95349" lon="4.8198">
        <ele>262</ele>
        <time>2017-06-24T10:20:46Z</time>
      </trkpt>
      <trkpt lat="45.95343" lon="4.81974">
        <ele>261</ele>
        <time>2017-06-24T10:20:48Z</time>
      </trkpt>
      <trkpt lat="45.9534" lon="4.8197">
        <ele>261</ele>
        <time>2017-06-24T10:20:49Z</time>
      </trkpt>
      <trkpt lat="45.95332" lon="4.81963">
        <ele>262</ele>
        <time>2017-06-24T10:20:51Z</time>
      </trkpt>
      <trkpt lat="45.95328" lon="4.8196">
        <ele>262</ele>
        <time>2017-06-24T10:20:52Z</time>
      </trkpt>
      <trkpt lat="45.95325" lon="4.81956">
        <ele>262</ele>
        <time>2017-06-24T10:20:53Z</time>
      </trkpt>
      <trkpt lat="45.95321" lon="4.81952">
        <ele>262</ele>
        <time>2017-06-24T10:20:54Z</time>
      </trkpt>
      <trkpt lat="45.95316" lon="4.81947">
        <ele>261</ele>
        <time>2017-06-24T10:20:55Z</time>
      </trkpt>
      <trkpt lat="45.95313" lon="4.81943">
        <ele>261</ele>
        <time>2017-06-24T10:20:56Z</time>
      </trkpt>
      <trkpt lat="45.95309" lon="4.81938">
        <ele>261</ele>
        <time>2017-06-24T10:20:57Z</time>
      </trkpt>
      <trkpt lat="45.95306" lon="4.81933">
        <ele>261</ele>
        <time>2017-06-24T10:20:58Z</time>
      </trkpt>
      <trkpt lat="45.95303" lon="4.81928">
        <ele>261</ele>
        <time>2017-06-24T10:20:59Z</time>
      </trkpt>
      <trkpt lat="45.953" lon="4.81923">
        <ele>261</ele>
        <time>2017-06-24T10:21:00Z</time>
      </trkpt>
      <trkpt lat="45.95297" lon="4.81918">
        <ele>261</ele>
        <time>2017-06-24T10:21:01Z</time>
      </trkpt>
      <trkpt lat="45.95293" lon="4.81914">
        <ele>260</ele>
        <time>2017-06-24T10:21:02Z</time>
      </trkpt>
      <trkpt lat="45.95287" lon="4.81905">
        <ele>260</ele>
        <time>2017-06-24T10:21:04Z</time>
      </trkpt>
      <trkpt lat="45.95284" lon="4.819">
        <ele>260</ele>
        <time>2017-06-24T10:21:05Z</time>
      </trkpt>
      <trkpt lat="45.9528" lon="4.81895">
        <ele>260</ele>
        <time>2017-06-24T10:21:06Z</time>
      </trkpt>
      <trkpt lat="45.95276" lon="4.81889">
        <ele>260</ele>
        <time>2017-06-24T10:21:07Z</time>
      </trkpt>
      <trkpt lat="45.95272" lon="4.81883">
        <ele>260</ele>
        <time>2017-06-24T10:21:08Z</time>
      </trkpt>
      <trkpt lat="45.95268" lon="4.81877">
        <ele>260</ele>
        <time>2017-06-24T10:21:09Z</time>
      </trkpt>
      <trkpt lat="45.95264" lon="4.81871">
        <ele>260</ele>
        <time>2017-06-24T10:21:10Z</time>
      </trkpt>
      <trkpt lat="45.9526" lon="4.81865">
        <ele>260</ele>
        <time>2017-06-24T10:21:11Z</time>
      </trkpt>
      <trkpt lat="45.95257" lon="4.81859">
        <ele>260</ele>
        <time>2017-06-24T10:21:12Z</time>
      </trkpt>
      <trkpt lat="45.95253" lon="4.81853">
        <ele>259</ele>
        <time>2017-06-24T10:21:13Z</time>
      </trkpt>
      <trkpt lat="45.9525" lon="4.81848">
        <ele>260</ele>
        <time>2017-06-24T10:21:14Z</time>
      </trkpt>
      <trkpt lat="45.95246" lon="4.81842">
        <ele>259</ele>
        <time>2017-06-24T10:21:15Z</time>
      </trkpt>
      <trkpt lat="45.95242" lon="4.81836">
        <ele>259</ele>
        <time>2017-06-24T10:21:16Z</time>
      </trkpt>
      <trkpt lat="45.95238" lon="4.81831">
        <ele>259</ele>
        <time>2017-06-24T10:21:17Z</time>
      </trkpt>
      <trkpt lat="45.95234" lon="4.81825">
        <ele>259</ele>
        <time>2017-06-24T10:21:18Z</time>
      </trkpt>
      <trkpt lat="45.9523" lon="4.8182">
        <ele>259</ele>
        <time>2017-06-24T10:21:19Z</time>
      </trkpt>
      <trkpt lat="45.95226" lon="4.81814">
        <ele>259</ele>
        <time>2017-06-24T10:21:20Z</time>
      </trkpt>
      <trkpt lat="45.95223" lon="4.81808">
        <ele>259</ele>
        <time>2017-06-24T10:21:21Z</time>
      </trkpt>
      <trkpt lat="45.95219" lon="4.81802">
        <ele>259</ele>
        <time>2017-06-24T10:21:22Z</time>
      </trkpt>
      <trkpt lat="45.95215" lon="4.81796">
        <ele>259</ele>
        <time>2017-06-24T10:21:23Z</time>
      </trkpt>
      <trkpt lat="45.95211" lon="4.8179">
        <ele>258</ele>
        <time>2017-06-24T10:21:24Z</time>
      </trkpt>
      <trkpt lat="45.95206" lon="4.81785">
        <ele>258</ele>
        <time>2017-06-24T10:21:25Z</time>
      </trkpt>
      <trkpt lat="45.95201" lon="4.81778">
        <ele>258</ele>
        <time>2017-06-24T10:21:26Z</time>
      </trkpt>
      <trkpt lat="45.95196" lon="4.81771">
        <ele>258</ele>
        <time>2017-06-24T10:21:27Z</time>
      </trkpt>
      <trkpt lat="45.95192" lon="4.81764">
        <ele>258</ele>
        <time>2017-06-24T10:21:28Z</time>
      </trkpt>
      <trkpt lat="45.95187" lon="4.81756">
        <ele>258</ele>
        <time>2017-06-24T10:21:29Z</time>
      </trkpt>
      <trkpt lat="45.95182" lon="4.81748">
        <ele>257</ele>
        <time>2017-06-24T10:21:30Z</time>
      </trkpt>
      <trkpt lat="45.95177" lon="4.81739">
        <ele>257</ele>
        <time>2017-06-24T10:21:31Z</time>
      </trkpt>
      <trkpt lat="45.95172" lon="4.8173">
        <ele>257</ele>
        <time>2017-06-24T10:21:32Z</time>
      </trkpt>
      <trkpt lat="45.95168" lon="4.8172">
        <ele>257</ele>
        <time>2017-06-24T10:21:33Z</time>
      </trkpt>
      <trkpt lat="45.95164" lon="4.81709">
        <ele>256</ele>
        <time>2017-06-24T10:21:34Z</time>
      </trkpt>
      <trkpt lat="45.9516" lon="4.81697">
        <ele>255</ele>
        <time>2017-06-24T10:21:35Z</time>
      </trkpt>
      <trkpt lat="45.95157" lon="4.81685">
        <ele>255</ele>
        <time>2017-06-24T10:21:36Z</time>
      </trkpt>
      <trkpt lat="45.95152" lon="4.81672">
        <ele>255</ele>
        <time>2017-06-24T10:21:37Z</time>
      </trkpt>
      <trkpt lat="45.95149" lon="4.81659">
        <ele>253</ele>
        <time>2017-06-24T10:21:38Z</time>
      </trkpt>
      <trkpt lat="45.95144" lon="4.81646">
        <ele>253</ele>
        <time>2017-06-24T10:21:39Z</time>
      </trkpt>
      <trkpt lat="45.9514" lon="4.81633">
        <ele>253</ele>
        <time>2017-06-24T10:21:40Z</time>
      </trkpt>
      <trkpt lat="45.95135" lon="4.8162">
        <ele>252</ele>
        <time>2017-06-24T10:21:41Z</time>
      </trkpt>
      <trkpt lat="45.95131" lon="4.81607">
        <ele>252</ele>
        <time>2017-06-24T10:21:42Z</time>
      </trkpt>
      <trkpt lat="45.95126" lon="4.81594">
        <ele>252</ele>
        <time>2017-06-24T10:21:43Z</time>
      </trkpt>
      <trkpt lat="45.95121" lon="4.81581">
        <ele>251</ele>
        <time>2017-06-24T10:21:44Z</time>
      </trkpt>
      <trkpt lat="45.95117" lon="4.81569">
        <ele>251</ele>
        <time>2017-06-24T10:21:45Z</time>
      </trkpt>
      <trkpt lat="45.95113" lon="4.81557">
        <ele>251</ele>
        <time>2017-06-24T10:21:46Z</time>
      </trkpt>
      <trkpt lat="45.95109" lon="4.81545">
        <ele>251</ele>
        <time>2017-06-24T10:21:47Z</time>
      </trkpt>
      <trkpt lat="45.95105" lon="4.81534">
        <ele>251</ele>
        <time>2017-06-24T10:21:48Z</time>
      </trkpt>
      <trkpt lat="45.95102" lon="4.81524">
        <ele>251</ele>
        <time>2017-06-24T10:21:49Z</time>
      </trkpt>
      <trkpt lat="45.95098" lon="4.81514">
        <ele>251</ele>
        <time>2017-06-24T10:21:50Z</time>
      </trkpt>
      <trkpt lat="45.95095" lon="4.81504">
        <ele>252</ele>
        <time>2017-06-24T10:21:51Z</time>
      </trkpt>
      <trkpt lat="45.95091" lon="4.81495">
        <ele>251</ele>
        <time>2017-06-24T10:21:52Z</time>
      </trkpt>
      <trkpt lat="45.95088" lon="4.81486">
        <ele>251</ele>
        <time>2017-06-24T10:21:53Z</time>
      </trkpt>
      <trkpt lat="45.95084" lon="4.81478">
        <ele>251</ele>
        <time>2017-06-24T10:21:54Z</time>
      </trkpt>
      <trkpt lat="45.95081" lon="4.81471">
        <ele>253</ele>
        <time>2017-06-24T10:21:55Z</time>
      </trkpt>
      <trkpt lat="45.95078" lon="4.81465">
        <ele>253</ele>
        <time>2017-06-24T10:21:56Z</time>
      </trkpt>
      <trkpt lat="45.95076" lon="4.81459">
        <ele>253</ele>
        <time>2017-06-24T10:21:57Z</time>
      </trkpt>
      <trkpt lat="45.95073" lon="4.81453">
        <ele>253</ele>
        <time>2017-06-24T10:21:58Z</time>
      </trkpt>
      <trkpt lat="45.9507" lon="4.81447">
        <ele>253</ele>
        <time>2017-06-24T10:21:59Z</time>
      </trkpt>
      <trkpt lat="45.95068" lon="4.81441">
        <ele>253</ele>
        <time>2017-06-24T10:22:00Z</time>
      </trkpt>
      <trkpt lat="45.95066" lon="4.81433">
        <ele>252</ele>
        <time>2017-06-24T10:22:01Z</time>
      </trkpt>
      <trkpt lat="45.95063" lon="4.81426">
        <ele>252</ele>
        <time>2017-06-24T10:22:02Z</time>
      </trkpt>
      <trkpt lat="45.9506" lon="4.81419">
        <ele>252</ele>
        <time>2017-06-24T10:22:03Z</time>
      </trkpt>
      <trkpt lat="45.95057" lon="4.81412">
        <ele>253</ele>
        <time>2017-06-24T10:22:04Z</time>
      </trkpt>
      <trkpt lat="45.95054" lon="4.81404">
        <ele>253</ele>
        <time>2017-06-24T10:22:05Z</time>
      </trkpt>
      <trkpt lat="45.95052" lon="4.81397">
        <ele>253</ele>
        <time>2017-06-24T10:22:06Z</time>
      </trkpt>
      <trkpt lat="45.95049" lon="4.81391">
        <ele>253</ele>
        <time>2017-06-24T10:22:07Z</time>
      </trkpt>
      <trkpt lat="45.95047" lon="4.81384">
        <ele>254</ele>
        <time>2017-06-24T10:22:08Z</time>
      </trkpt>
      <trkpt lat="45.95045" lon="4.81378">
        <ele>254</ele>
        <time>2017-06-24T10:22:09Z</time>
      </trkpt>
      <trkpt lat="45.95043" lon="4.81372">
        <ele>254</ele>
        <time>2017-06-24T10:22:10Z</time>
      </trkpt>
      <trkpt lat="45.95042" lon="4.81365">
        <ele>254</ele>
        <time>2017-06-24T10:22:11Z</time>
      </trkpt>
      <trkpt lat="45.9504" lon="4.81359">
        <ele>254</ele>
        <time>2017-06-24T10:22:12Z</time>
      </trkpt>
      <trkpt lat="45.95038" lon="4.81353">
        <ele>254</ele>
        <time>2017-06-24T10:22:13Z</time>
      </trkpt>
      <trkpt lat="45.95037" lon="4.81347">
        <ele>254</ele>
        <time>2017-06-24T10:22:14Z</time>
      </trkpt>
      <trkpt lat="45.95035" lon="4.81341">
        <ele>254</ele>
        <time>2017-06-24T10:22:15Z</time>
      </trkpt>
      <trkpt lat="45.95033" lon="4.81334">
        <ele>254</ele>
        <time>2017-06-24T10:22:16Z</time>
      </trkpt>
      <trkpt lat="45.95031" lon="4.81323">
        <ele>255</ele>
        <time>2017-06-24T10:22:18Z</time>
      </trkpt>
      <trkpt lat="45.9503" lon="4.81318">
        <ele>255</ele>
        <time>2017-06-24T10:22:19Z</time>
      </trkpt>
      <trkpt lat="45.95027" lon="4.81307">
        <ele>255</ele>
        <time>2017-06-24T10:22:21Z</time>
      </trkpt>
      <trkpt lat="45.95026" lon="4.81301">
        <ele>255</ele>
        <time>2017-06-24T10:22:22Z</time>
      </trkpt>
      <trkpt lat="45.95024" lon="4.81295">
        <ele>255</ele>
        <time>2017-06-24T10:22:23Z</time>
      </trkpt>
      <trkpt lat="45.95023" lon="4.81288">
        <ele>255</ele>
        <time>2017-06-24T10:22:24Z</time>
      </trkpt>
      <trkpt lat="45.95022" lon="4.81281">
        <ele>255</ele>
        <time>2017-06-24T10:22:25Z</time>
      </trkpt>
      <trkpt lat="45.9502" lon="4.81275">
        <ele>255</ele>
        <time>2017-06-24T10:22:26Z</time>
      </trkpt>
      <trkpt lat="45.95018" lon="4.81268">
        <ele>255</ele>
        <time>2017-06-24T10:22:27Z</time>
      </trkpt>
      <trkpt lat="45.95017" lon="4.81261">
        <ele>255</ele>
        <time>2017-06-24T10:22:28Z</time>
      </trkpt>
      <trkpt lat="45.95016" lon="4.81254">
        <ele>256</ele>
        <time>2017-06-24T10:22:29Z</time>
      </trkpt>
      <trkpt lat="45.95015" lon="4.81247">
        <ele>256</ele>
        <time>2017-06-24T10:22:30Z</time>
      </trkpt>
      <trkpt lat="45.95014" lon="4.8124">
        <ele>256</ele>
        <time>2017-06-24T10:22:31Z</time>
      </trkpt>
      <trkpt lat="45.95013" lon="4.81232">
        <ele>256</ele>
        <time>2017-06-24T10:22:32Z</time>
      </trkpt>
      <trkpt lat="45.95012" lon="4.81226">
        <ele>256</ele>
        <time>2017-06-24T10:22:33Z</time>
      </trkpt>
      <trkpt lat="45.95011" lon="4.81219">
        <ele>256</ele>
        <time>2017-06-24T10:22:34Z</time>
      </trkpt>
      <trkpt lat="45.9501" lon="4.81213">
        <ele>256</ele>
        <time>2017-06-24T10:22:35Z</time>
      </trkpt>
      <trkpt lat="45.9501" lon="4.81206">
        <ele>256</ele>
        <time>2017-06-24T10:22:36Z</time>
      </trkpt>
      <trkpt lat="45.95009" lon="4.81199">
        <ele>256</ele>
        <time>2017-06-24T10:22:37Z</time>
      </trkpt>
      <trkpt lat="45.95008" lon="4.81192">
        <ele>256</ele>
        <time>2017-06-24T10:22:38Z</time>
      </trkpt>
      <trkpt lat="45.95008" lon="4.81185">
        <ele>256</ele>
        <time>2017-06-24T10:22:39Z</time>
      </trkpt>
      <trkpt lat="45.95007" lon="4.81177">
        <ele>256</ele>
        <time>2017-06-24T10:22:40Z</time>
      </trkpt>
      <trkpt lat="45.95006" lon="4.81171">
        <ele>256</ele>
        <time>2017-06-24T10:22:41Z</time>
      </trkpt>
      <trkpt lat="45.95005" lon="4.81164">
        <ele>256</ele>
        <time>2017-06-24T10:22:42Z</time>
      </trkpt>
      <trkpt lat="45.95004" lon="4.81157">
        <ele>256</ele>
        <time>2017-06-24T10:22:43Z</time>
      </trkpt>
      <trkpt lat="45.95003" lon="4.81151">
        <ele>256</ele>
        <time>2017-06-24T10:22:44Z</time>
      </trkpt>
      <trkpt lat="45.95002" lon="4.81144">
        <ele>256</ele>
        <time>2017-06-24T10:22:45Z</time>
      </trkpt>
      <trkpt lat="45.95001" lon="4.81137">
        <ele>256</ele>
        <time>2017-06-24T10:22:46Z</time>
      </trkpt>
      <trkpt lat="45.95" lon="4.81131">
        <ele>256</ele>
        <time>2017-06-24T10:22:47Z</time>
      </trkpt>
      <trkpt lat="45.95" lon="4.81124">
        <ele>257</ele>
        <time>2017-06-24T10:22:48Z</time>
      </trkpt>
      <trkpt lat="45.94999" lon="4.81117">
        <ele>257</ele>
        <time>2017-06-24T10:22:49Z</time>
      </trkpt>
      <trkpt lat="45.94998" lon="4.8111">
        <ele>257</ele>
        <time>2017-06-24T10:22:50Z</time>
      </trkpt>
      <trkpt lat="45.94997" lon="4.81098">
        <ele>257</ele>
        <time>2017-06-24T10:22:52Z</time>
      </trkpt>
      <trkpt lat="45.94997" lon="4.81093">
        <ele>257</ele>
        <time>2017-06-24T10:22:53Z</time>
      </trkpt>
      <trkpt lat="45.94996" lon="4.81081">
        <ele>257</ele>
        <time>2017-06-24T10:22:55Z</time>
      </trkpt>
      <trkpt lat="45.94995" lon="4.81075">
        <ele>257</ele>
        <time>2017-06-24T10:22:56Z</time>
      </trkpt>
      <trkpt lat="45.94995" lon="4.81063">
        <ele>257</ele>
        <time>2017-06-24T10:22:58Z</time>
      </trkpt>
      <trkpt lat="45.94994" lon="4.81057">
        <ele>257</ele>
        <time>2017-06-24T10:22:59Z</time>
      </trkpt>
      <trkpt lat="45.94992" lon="4.81045">
        <ele>257</ele>
        <time>2017-06-24T10:23:01Z</time>
      </trkpt>
      <trkpt lat="45.94992" lon="4.81039">
        <ele>257</ele>
        <time>2017-06-24T10:23:02Z</time>
      </trkpt>
      <trkpt lat="45.94992" lon="4.81028">
        <ele>257</ele>
        <time>2017-06-24T10:23:04Z</time>
      </trkpt>
      <trkpt lat="45.94993" lon="4.81022">
        <ele>257</ele>
        <time>2017-06-24T10:23:05Z</time>
      </trkpt>
      <trkpt lat="45.94992" lon="4.81015">
        <ele>257</ele>
        <time>2017-06-24T10:23:06Z</time>
      </trkpt>
      <trkpt lat="45.94992" lon="4.81008">
        <ele>257</ele>
        <time>2017-06-24T10:23:07Z</time>
      </trkpt>
      <trkpt lat="45.94991" lon="4.80996">
        <ele>257</ele>
        <time>2017-06-24T10:23:09Z</time>
      </trkpt>
      <trkpt lat="45.94991" lon="4.8099">
        <ele>257</ele>
        <time>2017-06-24T10:23:10Z</time>
      </trkpt>
      <trkpt lat="45.9499" lon="4.80978">
        <ele>258</ele>
        <time>2017-06-24T10:23:12Z</time>
      </trkpt>
      <trkpt lat="45.94989" lon="4.80973">
        <ele>258</ele>
        <time>2017-06-24T10:23:13Z</time>
      </trkpt>
      <trkpt lat="45.94988" lon="4.80961">
        <ele>258</ele>
        <time>2017-06-24T10:23:15Z</time>
      </trkpt>
      <trkpt lat="45.94987" lon="4.80955">
        <ele>258</ele>
        <time>2017-06-24T10:23:16Z</time>
      </trkpt>
      <trkpt lat="45.94985" lon="4.80948">
        <ele>258</ele>
        <time>2017-06-24T10:23:17Z</time>
      </trkpt>
      <trkpt lat="45.94984" lon="4.80942">
        <ele>258</ele>
        <time>2017-06-24T10:23:18Z</time>
      </trkpt>
      <trkpt lat="45.94982" lon="4.80935">
        <ele>258</ele>
        <time>2017-06-24T10:23:19Z</time>
      </trkpt>
      <trkpt lat="45.94981" lon="4.80929">
        <ele>258</ele>
        <time>2017-06-24T10:23:20Z</time>
      </trkpt>
      <trkpt lat="45.94979" lon="4.80917">
        <ele>258</ele>
        <time>2017-06-24T10:23:22Z</time>
      </trkpt>
      <trkpt lat="45.94977" lon="4.80911">
        <ele>258</ele>
        <time>2017-06-24T10:23:23Z</time>
      </trkpt>
      <trkpt lat="45.94976" lon="4.80904">
        <ele>258</ele>
        <time>2017-06-24T10:23:24Z</time>
      </trkpt>
      <trkpt lat="45.94974" lon="4.80897">
        <ele>258</ele>
        <time>2017-06-24T10:23:25Z</time>
      </trkpt>
      <trkpt lat="45.94973" lon="4.8089">
        <ele>258</ele>
        <time>2017-06-24T10:23:26Z</time>
      </trkpt>
      <trkpt lat="45.94972" lon="4.80882">
        <ele>258</ele>
        <time>2017-06-24T10:23:27Z</time>
      </trkpt>
      <trkpt lat="45.9497" lon="4.80875">
        <ele>258</ele>
        <time>2017-06-24T10:23:28Z</time>
      </trkpt>
      <trkpt lat="45.94969" lon="4.80868">
        <ele>259</ele>
        <time>2017-06-24T10:23:29Z</time>
      </trkpt>
      <trkpt lat="45.94968" lon="4.80862">
        <ele>259</ele>
        <time>2017-06-24T10:23:30Z</time>
      </trkpt>
      <trkpt lat="45.94966" lon="4.80855">
        <ele>259</ele>
        <time>2017-06-24T10:23:31Z</time>
      </trkpt>
      <trkpt lat="45.94963" lon="4.80843">
        <ele>259</ele>
        <time>2017-06-24T10:23:33Z</time>
      </trkpt>
      <trkpt lat="45.94962" lon="4.80837">
        <ele>259</ele>
        <time>2017-06-24T10:23:34Z</time>
      </trkpt>
      <trkpt lat="45.9496" lon="4.80825">
        <ele>259</ele>
        <time>2017-06-24T10:23:36Z</time>
      </trkpt>
      <trkpt lat="45.94958" lon="4.8082">
        <ele>258</ele>
        <time>2017-06-24T10:23:37Z</time>
      </trkpt>
      <trkpt lat="45.94956" lon="4.80808">
        <ele>258</ele>
        <time>2017-06-24T10:23:40Z</time>
      </trkpt>
      <trkpt lat="45.94956" lon="4.80806">
        <ele>259</ele>
        <time>2017-06-24T10:23:41Z</time>
      </trkpt>
      <trkpt lat="45.94957" lon="4.80801">
        <ele>259</ele>
        <time>2017-06-24T10:23:46Z</time>
      </trkpt>
      <trkpt lat="45.94957" lon="4.808">
        <ele>259</ele>
        <time>2017-06-24T10:23:47Z</time>
      </trkpt>
      <trkpt lat="45.94957" lon="4.80795">
        <ele>259</ele>
        <time>2017-06-24T10:23:50Z</time>
      </trkpt>
      <trkpt lat="45.94957" lon="4.80793">
        <ele>259</ele>
        <time>2017-06-24T10:23:51Z</time>
      </trkpt>
      <trkpt lat="45.94955" lon="4.80782">
        <ele>259</ele>
        <time>2017-06-24T10:23:54Z</time>
      </trkpt>
      <trkpt lat="45.94955" lon="4.80777">
        <ele>259</ele>
        <time>2017-06-24T10:23:55Z</time>
      </trkpt>
      <trkpt lat="45.94954" lon="4.80765">
        <ele>259</ele>
        <time>2017-06-24T10:23:57Z</time>
      </trkpt>
      <trkpt lat="45.94954" lon="4.80757">
        <ele>259</ele>
        <time>2017-06-24T10:23:58Z</time>
      </trkpt>
      <trkpt lat="45.94955" lon="4.80749">
        <ele>259</ele>
        <time>2017-06-24T10:23:59Z</time>
      </trkpt>
      <trkpt lat="45.94955" lon="4.80741">
        <ele>259</ele>
        <time>2017-06-24T10:24:00Z</time>
      </trkpt>
      <trkpt lat="45.94955" lon="4.80733">
        <ele>259</ele>
        <time>2017-06-24T10:24:01Z</time>
      </trkpt>
      <trkpt lat="45.94955" lon="4.80725">
        <ele>259</ele>
        <time>2017-06-24T10:24:02Z</time>
      </trkpt>
      <trkpt lat="45.94955" lon="4.80717">
        <ele>259</ele>
        <time>2017-06-24T10:24:03Z</time>
      </trkpt>
      <trkpt lat="45.94955" lon="4.80709">
        <ele>259</ele>
        <time>2017-06-24T10:24:04Z</time>
      </trkpt>
      <trkpt lat="45.94954" lon="4.80702">
        <ele>259</ele>
        <time>2017-06-24T10:24:05Z</time>
      </trkpt>
      <trkpt lat="45.94955" lon="4.80695">
        <ele>259</ele>
        <time>2017-06-24T10:24:06Z</time>
      </trkpt>
      <trkpt lat="45.94954" lon="4.80688">
        <ele>259</ele>
        <time>2017-06-24T10:24:07Z</time>
      </trkpt>
      <trkpt lat="45.94954" lon="4.80681">
        <ele>259</ele>
        <time>2017-06-24T10:24:08Z</time>
      </trkpt>
      <trkpt lat="45.94953" lon="4.80673">
        <ele>259</ele>
        <time>2017-06-24T10:24:09Z</time>
      </trkpt>
      <trkpt lat="45.94953" lon="4.80666">
        <ele>259</ele>
        <time>2017-06-24T10:24:10Z</time>
      </trkpt>
      <trkpt lat="45.94953" lon="4.80658">
        <ele>259</ele>
        <time>2017-06-24T10:24:11Z</time>
      </trkpt>
      <trkpt lat="45.94952" lon="4.8065">
        <ele>259</ele>
        <time>2017-06-24T10:24:12Z</time>
      </trkpt>
      <trkpt lat="45.94952" lon="4.80643">
        <ele>258</ele>
        <time>2017-06-24T10:24:13Z</time>
      </trkpt>
      <trkpt lat="45.94952" lon="4.80635">
        <ele>258</ele>
        <time>2017-06-24T10:24:14Z</time>
      </trkpt>
      <trkpt lat="45.94951" lon="4.80628">
        <ele>258</ele>
        <time>2017-06-24T10:24:15Z</time>
      </trkpt>
      <trkpt lat="45.9495" lon="4.80621">
        <ele>258</ele>
        <time>2017-06-24T10:24:16Z</time>
      </trkpt>
      <trkpt lat="45.9495" lon="4.80613">
        <ele>258</ele>
        <time>2017-06-24T10:24:17Z</time>
      </trkpt>
      <trkpt lat="45.9495" lon="4.80606">
        <ele>258</ele>
        <time>2017-06-24T10:24:18Z</time>
      </trkpt>
      <trkpt lat="45.9495" lon="4.80599">
        <ele>258</ele>
        <time>2017-06-24T10:24:19Z</time>
      </trkpt>
      <trkpt lat="45.9495" lon="4.80592">
        <ele>258</ele>
        <time>2017-06-24T10:24:20Z</time>
      </trkpt>
      <trkpt lat="45.9495" lon="4.80585">
        <ele>258</ele>
        <time>2017-06-24T10:24:21Z</time>
      </trkpt>
      <trkpt lat="45.94949" lon="4.80577">
        <ele>257</ele>
        <time>2017-06-24T10:24:22Z</time>
      </trkpt>
      <trkpt lat="45.94949" lon="4.8057">
        <ele>257</ele>
        <time>2017-06-24T10:24:23Z</time>
      </trkpt>
      <trkpt lat="45.9495" lon="4.80563">
        <ele>257</ele>
        <time>2017-06-24T10:24:24Z</time>
      </trkpt>
      <trkpt lat="45.9495" lon="4.80555">
        <ele>258</ele>
        <time>2017-06-24T10:24:25Z</time>
      </trkpt>
      <trkpt lat="45.94949" lon="4.80547">
        <ele>258</ele>
        <time>2017-06-24T10:24:26Z</time>
      </trkpt>
      <trkpt lat="45.94949" lon="4.80539">
        <ele>258</ele>
        <time>2017-06-24T10:24:27Z</time>
      </trkpt>
      <trkpt lat="45.94949" lon="4.8053">
        <ele>258</ele>
        <time>2017-06-24T10:24:28Z</time>
      </trkpt>
      <trkpt lat="45.94948" lon="4.80522">
        <ele>258</ele>
        <time>2017-06-24T10:24:29Z</time>
      </trkpt>
      <trkpt lat="45.94948" lon="4.80513">
        <ele>258</ele>
        <time>2017-06-24T10:24:30Z</time>
      </trkpt>
      <trkpt lat="45.94948" lon="4.80505">
        <ele>258</ele>
        <time>2017-06-24T10:24:31Z</time>
      </trkpt>
      <trkpt lat="45.94948" lon="4.80497">
        <ele>258</ele>
        <time>2017-06-24T10:24:32Z</time>
      </trkpt>
      <trkpt lat="45.94948" lon="4.80488">
        <ele>258</ele>
        <time>2017-06-24T10:24:33Z</time>
      </trkpt>
      <trkpt lat="45.94949" lon="4.8048">
        <ele>258</ele>
        <time>2017-06-24T10:24:34Z</time>
      </trkpt>
      <trkpt lat="45.94949" lon="4.80472">
        <ele>258</ele>
        <time>2017-06-24T10:24:35Z</time>
      </trkpt>
      <trkpt lat="45.9495" lon="4.80464">
        <ele>258</ele>
        <time>2017-06-24T10:24:36Z</time>
      </trkpt>
      <trkpt lat="45.9495" lon="4.80456">
        <ele>258</ele>
        <time>2017-06-24T10:24:37Z</time>
      </trkpt>
      <trkpt lat="45.9495" lon="4.80448">
        <ele>258</ele>
        <time>2017-06-24T10:24:38Z</time>
      </trkpt>
      <trkpt lat="45.94949" lon="4.80441">
        <ele>259</ele>
        <time>2017-06-24T10:24:39Z</time>
      </trkpt>
      <trkpt lat="45.9495" lon="4.80432">
        <ele>259</ele>
        <time>2017-06-24T10:24:40Z</time>
      </trkpt>
      <trkpt lat="45.94949" lon="4.80424">
        <ele>259</ele>
        <time>2017-06-24T10:24:41Z</time>
      </trkpt>
      <trkpt lat="45.94949" lon="4.80416">
        <ele>258</ele>
        <time>2017-06-24T10:24:42Z</time>
      </trkpt>
      <trkpt lat="45.94949" lon="4.80409">
        <ele>258</ele>
        <time>2017-06-24T10:24:43Z</time>
      </trkpt>
      <trkpt lat="45.94949" lon="4.80401">
        <ele>258</ele>
        <time>2017-06-24T10:24:44Z</time>
      </trkpt>
      <trkpt lat="45.94949" lon="4.80393">
        <ele>258</ele>
        <time>2017-06-24T10:24:45Z</time>
      </trkpt>
      <trkpt lat="45.94949" lon="4.80385">
        <ele>258</ele>
        <time>2017-06-24T10:24:46Z</time>
      </trkpt>
      <trkpt lat="45.94949" lon="4.80378">
        <ele>258</ele>
        <time>2017-06-24T10:24:47Z</time>
      </trkpt>
      <trkpt lat="45.94949" lon="4.8037">
        <ele>258</ele>
        <time>2017-06-24T10:24:48Z</time>
      </trkpt>
      <trkpt lat="45.94948" lon="4.80363">
        <ele>258</ele>
        <time>2017-06-24T10:24:49Z</time>
      </trkpt>
      <trkpt lat="45.94948" lon="4.80355">
        <ele>258</ele>
        <time>2017-06-24T10:24:50Z</time>
      </trkpt>
      <trkpt lat="45.94947" lon="4.80347">
        <ele>258</ele>
        <time>2017-06-24T10:24:51Z</time>
      </trkpt>
      <trkpt lat="45.94947" lon="4.80339">
        <ele>258</ele>
        <time>2017-06-24T10:24:52Z</time>
      </trkpt>
      <trkpt lat="45.94947" lon="4.8033">
        <ele>257</ele>
        <time>2017-06-24T10:24:53Z</time>
      </trkpt>
      <trkpt lat="45.94947" lon="4.80322">
        <ele>257</ele>
        <time>2017-06-24T10:24:54Z</time>
      </trkpt>
      <trkpt lat="45.94946" lon="4.80313">
        <ele>257</ele>
        <time>2017-06-24T10:24:55Z</time>
      </trkpt>
      <trkpt lat="45.94945" lon="4.80304">
        <ele>257</ele>
        <time>2017-06-24T10:24:56Z</time>
      </trkpt>
      <trkpt lat="45.94945" lon="4.80295">
        <ele>257</ele>
        <time>2017-06-24T10:24:57Z</time>
      </trkpt>
      <trkpt lat="45.94944" lon="4.80287">
        <ele>257</ele>
        <time>2017-06-24T10:24:58Z</time>
      </trkpt>
      <trkpt lat="45.94945" lon="4.80279">
        <ele>257</ele>
        <time>2017-06-24T10:24:59Z</time>
      </trkpt>
      <trkpt lat="45.94944" lon="4.80271">
        <ele>257</ele>
        <time>2017-06-24T10:25:00Z</time>
      </trkpt>
      <trkpt lat="45.94943" lon="4.80264">
        <ele>257</ele>
        <time>2017-06-24T10:25:01Z</time>
      </trkpt>
      <trkpt lat="45.94942" lon="4.80256">
        <ele>257</ele>
        <time>2017-06-24T10:25:02Z</time>
      </trkpt>
      <trkpt lat="45.94942" lon="4.80248">
        <ele>256</ele>
        <time>2017-06-24T10:25:03Z</time>
      </trkpt>
      <trkpt lat="45.94942" lon="4.80239">
        <ele>256</ele>
        <time>2017-06-24T10:25:04Z</time>
      </trkpt>
      <trkpt lat="45.94941" lon="4.80229">
        <ele>256</ele>
        <time>2017-06-24T10:25:05Z</time>
      </trkpt>
      <trkpt lat="45.9494" lon="4.8022">
        <ele>256</ele>
        <time>2017-06-24T10:25:06Z</time>
      </trkpt>
      <trkpt lat="45.94939" lon="4.8021">
        <ele>256</ele>
        <time>2017-06-24T10:25:07Z</time>
      </trkpt>
      <trkpt lat="45.94938" lon="4.80201">
        <ele>256</ele>
        <time>2017-06-24T10:25:08Z</time>
      </trkpt>
      <trkpt lat="45.94937" lon="4.80193">
        <ele>256</ele>
        <time>2017-06-24T10:25:09Z</time>
      </trkpt>
      <trkpt lat="45.94936" lon="4.80184">
        <ele>256</ele>
        <time>2017-06-24T10:25:10Z</time>
      </trkpt>
      <trkpt lat="45.94935" lon="4.80176">
        <ele>256</ele>
        <time>2017-06-24T10:25:11Z</time>
      </trkpt>
      <trkpt lat="45.94933" lon="4.80167">
        <ele>255</ele>
        <time>2017-06-24T10:25:12Z</time>
      </trkpt>
      <trkpt lat="45.94932" lon="4.80159">
        <ele>255</ele>
        <time>2017-06-24T10:25:13Z</time>
      </trkpt>
      <trkpt lat="45.9493" lon="4.80151">
        <ele>255</ele>
        <time>2017-06-24T10:25:14Z</time>
      </trkpt>
      <trkpt lat="45.94928" lon="4.80142">
        <ele>256</ele>
        <time>2017-06-24T10:25:15Z</time>
      </trkpt>
      <trkpt lat="45.94927" lon="4.80134">
        <ele>256</ele>
        <time>2017-06-24T10:25:16Z</time>
      </trkpt>
      <trkpt lat="45.94925" lon="4.80127">
        <ele>256</ele>
        <time>2017-06-24T10:25:17Z</time>
      </trkpt>
      <trkpt lat="45.94923" lon="4.80118">
        <ele>256</ele>
        <time>2017-06-24T10:25:18Z</time>
      </trkpt>
      <trkpt lat="45.94921" lon="4.8011">
        <ele>256</ele>
        <time>2017-06-24T10:25:19Z</time>
      </trkpt>
      <trkpt lat="45.94919" lon="4.80101">
        <ele>256</ele>
        <time>2017-06-24T10:25:20Z</time>
      </trkpt>
      <trkpt lat="45.94917" lon="4.80092">
        <ele>257</ele>
        <time>2017-06-24T10:25:21Z</time>
      </trkpt>
      <trkpt lat="45.94915" lon="4.80082">
        <ele>257</ele>
        <time>2017-06-24T10:25:22Z</time>
      </trkpt>
      <trkpt lat="45.94913" lon="4.80073">
        <ele>257</ele>
        <time>2017-06-24T10:25:23Z</time>
      </trkpt>
      <trkpt lat="45.94911" lon="4.80065">
        <ele>256</ele>
        <time>2017-06-24T10:25:24Z</time>
      </trkpt>
      <trkpt lat="45.94909" lon="4.80056">
        <ele>256</ele>
        <time>2017-06-24T10:25:25Z</time>
      </trkpt>
      <trkpt lat="45.94906" lon="4.80048">
        <ele>256</ele>
        <time>2017-06-24T10:25:26Z</time>
      </trkpt>
      <trkpt lat="45.94903" lon="4.8004">
        <ele>256</ele>
        <time>2017-06-24T10:25:27Z</time>
      </trkpt>
      <trkpt lat="45.94901" lon="4.80032">
        <ele>256</ele>
        <time>2017-06-24T10:25:28Z</time>
      </trkpt>
      <trkpt lat="45.94898" lon="4.80024">
        <ele>256</ele>
        <time>2017-06-24T10:25:29Z</time>
      </trkpt>
      <trkpt lat="45.94896" lon="4.80016">
        <ele>256</ele>
        <time>2017-06-24T10:25:30Z</time>
      </trkpt>
      <trkpt lat="45.94893" lon="4.80008">
        <ele>256</ele>
        <time>2017-06-24T10:25:31Z</time>
      </trkpt>
      <trkpt lat="45.94891" lon="4.79999">
        <ele>256</ele>
        <time>2017-06-24T10:25:32Z</time>
      </trkpt>
      <trkpt lat="45.94888" lon="4.79991">
        <ele>256</ele>
        <time>2017-06-24T10:25:33Z</time>
      </trkpt>
      <trkpt lat="45.94885" lon="4.79984">
        <ele>256</ele>
        <time>2017-06-24T10:25:34Z</time>
      </trkpt>
      <trkpt lat="45.94882" lon="4.79976">
        <ele>256</ele>
        <time>2017-06-24T10:25:35Z</time>
      </trkpt>
      <trkpt lat="45.94878" lon="4.79968">
        <ele>256</ele>
        <time>2017-06-24T10:25:36Z</time>
      </trkpt>
      <trkpt lat="45.94875" lon="4.79961">
        <ele>256</ele>
        <time>2017-06-24T10:25:37Z</time>
      </trkpt>
      <trkpt lat="45.94872" lon="4.79954">
        <ele>256</ele>
        <time>2017-06-24T10:25:38Z</time>
      </trkpt>
      <trkpt lat="45.94869" lon="4.79948">
        <ele>256</ele>
        <time>2017-06-24T10:25:39Z</time>
      </trkpt>
      <trkpt lat="45.94867" lon="4.79941">
        <ele>256</ele>
        <time>2017-06-24T10:25:40Z</time>
      </trkpt>
      <trkpt lat="45.94863" lon="4.79934">
        <ele>256</ele>
        <time>2017-06-24T10:25:41Z</time>
      </trkpt>
      <trkpt lat="45.9486" lon="4.79927">
        <ele>256</ele>
        <time>2017-06-24T10:25:42Z</time>
      </trkpt>
      <trkpt lat="45.94857" lon="4.79919">
        <ele>256</ele>
        <time>2017-06-24T10:25:43Z</time>
      </trkpt>
      <trkpt lat="45.94854" lon="4.79912">
        <ele>255</ele>
        <time>2017-06-24T10:25:44Z</time>
      </trkpt>
      <trkpt lat="45.94851" lon="4.79905">
        <ele>255</ele>
        <time>2017-06-24T10:25:45Z</time>
      </trkpt>
      <trkpt lat="45.94848" lon="4.79897">
        <ele>255</ele>
        <time>2017-06-24T10:25:46Z</time>
      </trkpt>
      <trkpt lat="45.94845" lon="4.79889">
        <ele>255</ele>
        <time>2017-06-24T10:25:47Z</time>
      </trkpt>
      <trkpt lat="45.94842" lon="4.79881">
        <ele>255</ele>
        <time>2017-06-24T10:25:48Z</time>
      </trkpt>
      <trkpt lat="45.94839" lon="4.79872">
        <ele>255</ele>
        <time>2017-06-24T10:25:49Z</time>
      </trkpt>
      <trkpt lat="45.94836" lon="4.79863">
        <ele>255</ele>
        <time>2017-06-24T10:25:50Z</time>
      </trkpt>
      <trkpt lat="45.94833" lon="4.79853">
        <ele>254</ele>
        <time>2017-06-24T10:25:51Z</time>
      </trkpt>
      <trkpt lat="45.94831" lon="4.79844">
        <ele>254</ele>
        <time>2017-06-24T10:25:52Z</time>
      </trkpt>
      <trkpt lat="45.94829" lon="4.79834">
        <ele>254</ele>
        <time>2017-06-24T10:25:53Z</time>
      </trkpt>
      <trkpt lat="45.94827" lon="4.79825">
        <ele>254</ele>
        <time>2017-06-24T10:25:54Z</time>
      </trkpt>
      <trkpt lat="45.94824" lon="4.79816">
        <ele>254</ele>
        <time>2017-06-24T10:25:55Z</time>
      </trkpt>
      <trkpt lat="45.94821" lon="4.79806">
        <ele>254</ele>
        <time>2017-06-24T10:25:56Z</time>
      </trkpt>
      <trkpt lat="45.94819" lon="4.79797">
        <ele>254</ele>
        <time>2017-06-24T10:25:57Z</time>
      </trkpt>
      <trkpt lat="45.94816" lon="4.79789">
        <ele>254</ele>
        <time>2017-06-24T10:25:58Z</time>
      </trkpt>
      <trkpt lat="45.94813" lon="4.7978">
        <ele>254</ele>
        <time>2017-06-24T10:25:59Z</time>
      </trkpt>
      <trkpt lat="45.94811" lon="4.79773">
        <ele>254</ele>
        <time>2017-06-24T10:26:00Z</time>
      </trkpt>
      <trkpt lat="45.94809" lon="4.79765">
        <ele>254</ele>
        <time>2017-06-24T10:26:01Z</time>
      </trkpt>
      <trkpt lat="45.94806" lon="4.79757">
        <ele>254</ele>
        <time>2017-06-24T10:26:02Z</time>
      </trkpt>
      <trkpt lat="45.94805" lon="4.79749">
        <ele>254</ele>
        <time>2017-06-24T10:26:03Z</time>
      </trkpt>
      <trkpt lat="45.94803" lon="4.79741">
        <ele>254</ele>
        <time>2017-06-24T10:26:04Z</time>
      </trkpt>
      <trkpt lat="45.94801" lon="4.79734">
        <ele>254</ele>
        <time>2017-06-24T10:26:05Z</time>
      </trkpt>
      <trkpt lat="45.948" lon="4.79727">
        <ele>254</ele>
        <time>2017-06-24T10:26:06Z</time>
      </trkpt>
      <trkpt lat="45.94799" lon="4.79719">
        <ele>254</ele>
        <time>2017-06-24T10:26:07Z</time>
      </trkpt>
      <trkpt lat="45.94797" lon="4.79711">
        <ele>254</ele>
        <time>2017-06-24T10:26:08Z</time>
      </trkpt>
      <trkpt lat="45.94795" lon="4.79704">
        <ele>254</ele>
        <time>2017-06-24T10:26:09Z</time>
      </trkpt>
      <trkpt lat="45.94793" lon="4.79696">
        <ele>254</ele>
        <time>2017-06-24T10:26:10Z</time>
      </trkpt>
      <trkpt lat="45.94791" lon="4.79688">
        <ele>254</ele>
        <time>2017-06-24T10:26:11Z</time>
      </trkpt>
      <trkpt lat="45.94788" lon="4.79681">
        <ele>254</ele>
        <time>2017-06-24T10:26:12Z</time>
      </trkpt>
      <trkpt lat="45.94786" lon="4.79673">
        <ele>254</ele>
        <time>2017-06-24T10:26:13Z</time>
      </trkpt>
      <trkpt lat="45.94784" lon="4.79665">
        <ele>254</ele>
        <time>2017-06-24T10:26:14Z</time>
      </trkpt>
      <trkpt lat="45.94781" lon="4.79658">
        <ele>254</ele>
        <time>2017-06-24T10:26:15Z</time>
      </trkpt>
      <trkpt lat="45.94779" lon="4.7965">
        <ele>254</ele>
        <time>2017-06-24T10:26:16Z</time>
      </trkpt>
      <trkpt lat="45.94777" lon="4.79642">
        <ele>254</ele>
        <time>2017-06-24T10:26:17Z</time>
      </trkpt>
      <trkpt lat="45.94776" lon="4.79634">
        <ele>253</ele>
        <time>2017-06-24T10:26:18Z</time>
      </trkpt>
      <trkpt lat="45.94774" lon="4.79625">
        <ele>253</ele>
        <time>2017-06-24T10:26:19Z</time>
      </trkpt>
      <trkpt lat="45.94772" lon="4.79617">
        <ele>253</ele>
        <time>2017-06-24T10:26:20Z</time>
      </trkpt>
      <trkpt lat="45.9477" lon="4.79609">
        <ele>253</ele>
        <time>2017-06-24T10:26:21Z</time>
      </trkpt>
      <trkpt lat="45.94768" lon="4.79601">
        <ele>253</ele>
        <time>2017-06-24T10:26:22Z</time>
      </trkpt>
      <trkpt lat="45.94769" lon="4.79591">
        <ele>253</ele>
        <time>2017-06-24T10:26:24Z</time>
      </trkpt>
      <trkpt lat="45.94769" lon="4.79587">
        <ele>253</ele>
        <time>2017-06-24T10:26:25Z</time>
      </trkpt>
      <trkpt lat="45.9477" lon="4.79578">
        <ele>252</ele>
        <time>2017-06-24T10:26:27Z</time>
      </trkpt>
      <trkpt lat="45.9477" lon="4.79572">
        <ele>252</ele>
        <time>2017-06-24T10:26:28Z</time>
      </trkpt>
      <trkpt lat="45.94768" lon="4.79566">
        <ele>252</ele>
        <time>2017-06-24T10:26:29Z</time>
      </trkpt>
      <trkpt lat="45.94766" lon="4.79558">
        <ele>252</ele>
        <time>2017-06-24T10:26:30Z</time>
      </trkpt>
      <trkpt lat="45.94764" lon="4.79551">
        <ele>252</ele>
        <time>2017-06-24T10:26:31Z</time>
      </trkpt>
      <trkpt lat="45.94761" lon="4.79543">
        <ele>252</ele>
        <time>2017-06-24T10:26:32Z</time>
      </trkpt>
      <trkpt lat="45.94758" lon="4.79536">
        <ele>252</ele>
        <time>2017-06-24T10:26:33Z</time>
      </trkpt>
      <trkpt lat="45.94755" lon="4.79528">
        <ele>252</ele>
        <time>2017-06-24T10:26:34Z</time>
      </trkpt>
      <trkpt lat="45.94753" lon="4.79521">
        <ele>252</ele>
        <time>2017-06-24T10:26:35Z</time>
      </trkpt>
      <trkpt lat="45.9475" lon="4.79514">
        <ele>252</ele>
        <time>2017-06-24T10:26:36Z</time>
      </trkpt>
      <trkpt lat="45.94748" lon="4.79507">
        <ele>252</ele>
        <time>2017-06-24T10:26:37Z</time>
      </trkpt>
      <trkpt lat="45.94744" lon="4.795">
        <ele>252</ele>
        <time>2017-06-24T10:26:38Z</time>
      </trkpt>
      <trkpt lat="45.94741" lon="4.79493">
        <ele>252</ele>
        <time>2017-06-24T10:26:39Z</time>
      </trkpt>
      <trkpt lat="45.94739" lon="4.79486">
        <ele>253</ele>
        <time>2017-06-24T10:26:40Z</time>
      </trkpt>
      <trkpt lat="45.94736" lon="4.79479">
        <ele>253</ele>
        <time>2017-06-24T10:26:41Z</time>
      </trkpt>
      <trkpt lat="45.94733" lon="4.79473">
        <ele>253</ele>
        <time>2017-06-24T10:26:42Z</time>
      </trkpt>
      <trkpt lat="45.9473" lon="4.79465">
        <ele>253</ele>
        <time>2017-06-24T10:26:43Z</time>
      </trkpt>
      <trkpt lat="45.94727" lon="4.79457">
        <ele>253</ele>
        <time>2017-06-24T10:26:44Z</time>
      </trkpt>
      <trkpt lat="45.94724" lon="4.79449">
        <ele>253</ele>
        <time>2017-06-24T10:26:45Z</time>
      </trkpt>
      <trkpt lat="45.9472" lon="4.79442">
        <ele>253</ele>
        <time>2017-06-24T10:26:46Z</time>
      </trkpt>
      <trkpt lat="45.94717" lon="4.79436">
        <ele>253</ele>
        <time>2017-06-24T10:26:47Z</time>
      </trkpt>
      <trkpt lat="45.94714" lon="4.79429">
        <ele>253</ele>
        <time>2017-06-24T10:26:48Z</time>
      </trkpt>
      <trkpt lat="45.94711" lon="4.79422">
        <ele>253</ele>
        <time>2017-06-24T10:26:49Z</time>
      </trkpt>
      <trkpt lat="45.94708" lon="4.79415">
        <ele>253</ele>
        <time>2017-06-24T10:26:50Z</time>
      </trkpt>
      <trkpt lat="45.94704" lon="4.79408">
        <ele>253</ele>
        <time>2017-06-24T10:26:51Z</time>
      </trkpt>
      <trkpt lat="45.94701" lon="4.79401">
        <ele>253</ele>
        <time>2017-06-24T10:26:52Z</time>
      </trkpt>
      <trkpt lat="45.94697" lon="4.79394">
        <ele>253</ele>
        <time>2017-06-24T10:26:53Z</time>
      </trkpt>
      <trkpt lat="45.94694" lon="4.79387">
        <ele>253</ele>
        <time>2017-06-24T10:26:54Z</time>
      </trkpt>
      <trkpt lat="45.94691" lon="4.7938">
        <ele>253</ele>
        <time>2017-06-24T10:26:55Z</time>
      </trkpt>
      <trkpt lat="45.94688" lon="4.79374">
        <ele>253</ele>
        <time>2017-06-24T10:26:56Z</time>
      </trkpt>
      <trkpt lat="45.94685" lon="4.79368">
        <ele>253</ele>
        <time>2017-06-24T10:26:57Z</time>
      </trkpt>
      <trkpt lat="45.94682" lon="4.79362">
        <ele>253</ele>
        <time>2017-06-24T10:26:58Z</time>
      </trkpt>
      <trkpt lat="45.94679" lon="4.79356">
        <ele>253</ele>
        <time>2017-06-24T10:26:59Z</time>
      </trkpt>
      <trkpt lat="45.94675" lon="4.7935">
        <ele>253</ele>
        <time>2017-06-24T10:27:00Z</time>
      </trkpt>
      <trkpt lat="45.94672" lon="4.79343">
        <ele>254</ele>
        <time>2017-06-24T10:27:01Z</time>
      </trkpt>
      <trkpt lat="45.94669" lon="4.79336">
        <ele>254</ele>
        <time>2017-06-24T10:27:02Z</time>
      </trkpt>
      <trkpt lat="45.94665" lon="4.79329">
        <ele>254</ele>
        <time>2017-06-24T10:27:03Z</time>
      </trkpt>
      <trkpt lat="45.94662" lon="4.79321">
        <ele>254</ele>
        <time>2017-06-24T10:27:04Z</time>
      </trkpt>
      <trkpt lat="45.94659" lon="4.79313">
        <ele>254</ele>
        <time>2017-06-24T10:27:05Z</time>
      </trkpt>
      <trkpt lat="45.94655" lon="4.79306">
        <ele>254</ele>
        <time>2017-06-24T10:27:06Z</time>
      </trkpt>
      <trkpt lat="45.94652" lon="4.79298">
        <ele>254</ele>
        <time>2017-06-24T10:27:07Z</time>
      </trkpt>
      <trkpt lat="45.94648" lon="4.79291">
        <ele>254</ele>
        <time>2017-06-24T10:27:08Z</time>
      </trkpt>
      <trkpt lat="45.94645" lon="4.79284">
        <ele>254</ele>
        <time>2017-06-24T10:27:09Z</time>
      </trkpt>
      <trkpt lat="45.94642" lon="4.79277">
        <ele>254</ele>
        <time>2017-06-24T10:27:10Z</time>
      </trkpt>
      <trkpt lat="45.94638" lon="4.7927">
        <ele>254</ele>
        <time>2017-06-24T10:27:11Z</time>
      </trkpt>
      <trkpt lat="45.94634" lon="4.79262">
        <ele>254</ele>
        <time>2017-06-24T10:27:12Z</time>
      </trkpt>
      <trkpt lat="45.94631" lon="4.79255">
        <ele>254</ele>
        <time>2017-06-24T10:27:13Z</time>
      </trkpt>
      <trkpt lat="45.94627" lon="4.79248">
        <ele>256</ele>
        <time>2017-06-24T10:27:14Z</time>
      </trkpt>
      <trkpt lat="45.94624" lon="4.7924">
        <ele>256</ele>
        <time>2017-06-24T10:27:15Z</time>
      </trkpt>
      <trkpt lat="45.9462" lon="4.79233">
        <ele>256</ele>
        <time>2017-06-24T10:27:16Z</time>
      </trkpt>
      <trkpt lat="45.94617" lon="4.79226">
        <ele>256</ele>
        <time>2017-06-24T10:27:17Z</time>
      </trkpt>
      <trkpt lat="45.94615" lon="4.79219">
        <ele>257</ele>
        <time>2017-06-24T10:27:18Z</time>
      </trkpt>
      <trkpt lat="45.94611" lon="4.79212">
        <ele>257</ele>
        <time>2017-06-24T10:27:19Z</time>
      </trkpt>
      <trkpt lat="45.94608" lon="4.79204">
        <ele>257</ele>
        <time>2017-06-24T10:27:20Z</time>
      </trkpt>
      <trkpt lat="45.94604" lon="4.79197">
        <ele>257</ele>
        <time>2017-06-24T10:27:21Z</time>
      </trkpt>
      <trkpt lat="45.94601" lon="4.79189">
        <ele>257</ele>
        <time>2017-06-24T10:27:22Z</time>
      </trkpt>
      <trkpt lat="45.94598" lon="4.79182">
        <ele>258</ele>
        <time>2017-06-24T10:27:23Z</time>
      </trkpt>
      <trkpt lat="45.94595" lon="4.79175">
        <ele>258</ele>
        <time>2017-06-24T10:27:24Z</time>
      </trkpt>
      <trkpt lat="45.9459" lon="4.79167">
        <ele>258</ele>
        <time>2017-06-24T10:27:25Z</time>
      </trkpt>
      <trkpt lat="45.94587" lon="4.79159">
        <ele>259</ele>
        <time>2017-06-24T10:27:26Z</time>
      </trkpt>
      <trkpt lat="45.94583" lon="4.79151">
        <ele>258</ele>
        <time>2017-06-24T10:27:27Z</time>
      </trkpt>
      <trkpt lat="45.94578" lon="4.79144">
        <ele>257</ele>
        <time>2017-06-24T10:27:28Z</time>
      </trkpt>
      <trkpt lat="45.94574" lon="4.79136">
        <ele>257</ele>
        <time>2017-06-24T10:27:29Z</time>
      </trkpt>
      <trkpt lat="45.9457" lon="4.79128">
        <ele>257</ele>
        <time>2017-06-24T10:27:30Z</time>
      </trkpt>
      <trkpt lat="45.94565" lon="4.7912">
        <ele>257</ele>
        <time>2017-06-24T10:27:31Z</time>
      </trkpt>
      <trkpt lat="45.94561" lon="4.79113">
        <ele>257</ele>
        <time>2017-06-24T10:27:32Z</time>
      </trkpt>
      <trkpt lat="45.94558" lon="4.79106">
        <ele>257</ele>
        <time>2017-06-24T10:27:33Z</time>
      </trkpt>
      <trkpt lat="45.94553" lon="4.79097">
        <ele>257</ele>
        <time>2017-06-24T10:27:34Z</time>
      </trkpt>
      <trkpt lat="45.94549" lon="4.79088">
        <ele>256</ele>
        <time>2017-06-24T10:27:35Z</time>
      </trkpt>
      <trkpt lat="45.94544" lon="4.7908">
        <ele>256</ele>
        <time>2017-06-24T10:27:36Z</time>
      </trkpt>
      <trkpt lat="45.94539" lon="4.7907">
        <ele>256</ele>
        <time>2017-06-24T10:27:37Z</time>
      </trkpt>
      <trkpt lat="45.94534" lon="4.79062">
        <ele>255</ele>
        <time>2017-06-24T10:27:38Z</time>
      </trkpt>
      <trkpt lat="45.94529" lon="4.79053">
        <ele>255</ele>
        <time>2017-06-24T10:27:39Z</time>
      </trkpt>
      <trkpt lat="45.94525" lon="4.79046">
        <ele>255</ele>
        <time>2017-06-24T10:27:40Z</time>
      </trkpt>
      <trkpt lat="45.94519" lon="4.79039">
        <ele>255</ele>
        <time>2017-06-24T10:27:41Z</time>
      </trkpt>
      <trkpt lat="45.94515" lon="4.79032">
        <ele>255</ele>
        <time>2017-06-24T10:27:42Z</time>
      </trkpt>
      <trkpt lat="45.94512" lon="4.79024">
        <ele>255</ele>
        <time>2017-06-24T10:27:43Z</time>
      </trkpt>
      <trkpt lat="45.94508" lon="4.79017">
        <ele>255</ele>
        <time>2017-06-24T10:27:44Z</time>
      </trkpt>
      <trkpt lat="45.94504" lon="4.79009">
        <ele>254</ele>
        <time>2017-06-24T10:27:45Z</time>
      </trkpt>
      <trkpt lat="45.945" lon="4.79002">
        <ele>254</ele>
        <time>2017-06-24T10:27:46Z</time>
      </trkpt>
      <trkpt lat="45.94497" lon="4.78994">
        <ele>254</ele>
        <time>2017-06-24T10:27:47Z</time>
      </trkpt>
      <trkpt lat="45.94493" lon="4.78985">
        <ele>254</ele>
        <time>2017-06-24T10:27:48Z</time>
      </trkpt>
      <trkpt lat="45.94488" lon="4.78976">
        <ele>254</ele>
        <time>2017-06-24T10:27:49Z</time>
      </trkpt>
      <trkpt lat="45.94484" lon="4.78967">
        <ele>254</ele>
        <time>2017-06-24T10:27:50Z</time>
      </trkpt>
      <trkpt lat="45.9448" lon="4.78958">
        <ele>254</ele>
        <time>2017-06-24T10:27:51Z</time>
      </trkpt>
      <trkpt lat="45.94475" lon="4.78948">
        <ele>254</ele>
        <time>2017-06-24T10:27:52Z</time>
      </trkpt>
      <trkpt lat="45.94471" lon="4.78938">
        <ele>254</ele>
        <time>2017-06-24T10:27:53Z</time>
      </trkpt>
      <trkpt lat="45.94468" lon="4.78927">
        <ele>254</ele>
        <time>2017-06-24T10:27:54Z</time>
      </trkpt>
      <trkpt lat="45.94465" lon="4.78915">
        <ele>253</ele>
        <time>2017-06-24T10:27:55Z</time>
      </trkpt>
      <trkpt lat="45.94463" lon="4.78902">
        <ele>253</ele>
        <time>2017-06-24T10:27:56Z</time>
      </trkpt>
      <trkpt lat="45.94463" lon="4.78889">
        <ele>253</ele>
        <time>2017-06-24T10:27:57Z</time>
      </trkpt>
      <trkpt lat="45.94463" lon="4.78875">
        <ele>253</ele>
        <time>2017-06-24T10:27:58Z</time>
      </trkpt>
      <trkpt lat="45.94464" lon="4.7886">
        <ele>253</ele>
        <time>2017-06-24T10:27:59Z</time>
      </trkpt>
      <trkpt lat="45.94466" lon="4.78847">
        <ele>253</ele>
        <time>2017-06-24T10:28:00Z</time>
      </trkpt>
      <trkpt lat="45.94468" lon="4.78833">
        <ele>251</ele>
        <time>2017-06-24T10:28:01Z</time>
      </trkpt>
      <trkpt lat="45.9447" lon="4.7882">
        <ele>251</ele>
        <time>2017-06-24T10:28:02Z</time>
      </trkpt>
      <trkpt lat="45.94473" lon="4.78808">
        <ele>251</ele>
        <time>2017-06-24T10:28:03Z</time>
      </trkpt>
      <trkpt lat="45.94477" lon="4.78795">
        <ele>250</ele>
        <time>2017-06-24T10:28:04Z</time>
      </trkpt>
      <trkpt lat="45.9448" lon="4.78781">
        <ele>250</ele>
        <time>2017-06-24T10:28:05Z</time>
      </trkpt>
      <trkpt lat="45.94481" lon="4.78765">
        <ele>249</ele>
        <time>2017-06-24T10:28:06Z</time>
      </trkpt>
      <trkpt lat="45.94482" lon="4.78748">
        <ele>246</ele>
        <time>2017-06-24T10:28:07Z</time>
      </trkpt>
      <trkpt lat="45.94481" lon="4.78731">
        <ele>246</ele>
        <time>2017-06-24T10:28:08Z</time>
      </trkpt>
      <trkpt lat="45.9448" lon="4.78714">
        <ele>245</ele>
        <time>2017-06-24T10:28:09Z</time>
      </trkpt>
      <trkpt lat="45.94479" lon="4.78697">
        <ele>244</ele>
        <time>2017-06-24T10:28:10Z</time>
      </trkpt>
      <trkpt lat="45.94477" lon="4.78679">
        <ele>244</ele>
        <time>2017-06-24T10:28:11Z</time>
      </trkpt>
      <trkpt lat="45.94475" lon="4.78661">
        <ele>241</ele>
        <time>2017-06-24T10:28:12Z</time>
      </trkpt>
      <trkpt lat="45.94472" lon="4.78644">
        <ele>241</ele>
        <time>2017-06-24T10:28:13Z</time>
      </trkpt>
      <trkpt lat="45.94468" lon="4.78628">
        <ele>241</ele>
        <time>2017-06-24T10:28:14Z</time>
      </trkpt>
      <trkpt lat="45.94464" lon="4.78611">
        <ele>241</ele>
        <time>2017-06-24T10:28:15Z</time>
      </trkpt>
      <trkpt lat="45.94459" lon="4.78596">
        <ele>240</ele>
        <time>2017-06-24T10:28:16Z</time>
      </trkpt>
      <trkpt lat="45.94452" lon="4.78581">
        <ele>240</ele>
        <time>2017-06-24T10:28:17Z</time>
      </trkpt>
      <trkpt lat="45.94445" lon="4.78568">
        <ele>239</ele>
        <time>2017-06-24T10:28:18Z</time>
      </trkpt>
      <trkpt lat="45.94438" lon="4.78555">
        <ele>239</ele>
        <time>2017-06-24T10:28:19Z</time>
      </trkpt>
      <trkpt lat="45.94431" lon="4.78542">
        <ele>239</ele>
        <time>2017-06-24T10:28:20Z</time>
      </trkpt>
      <trkpt lat="45.94423" lon="4.78529">
        <ele>238</ele>
        <time>2017-06-24T10:28:21Z</time>
      </trkpt>
      <trkpt lat="45.94415" lon="4.78517">
        <ele>236</ele>
        <time>2017-06-24T10:28:22Z</time>
      </trkpt>
      <trkpt lat="45.94406" lon="4.78507">
        <ele>236</ele>
        <time>2017-06-24T10:28:23Z</time>
      </trkpt>
      <trkpt lat="45.94397" lon="4.78498">
        <ele>235</ele>
        <time>2017-06-24T10:28:24Z</time>
      </trkpt>
      <trkpt lat="45.94388" lon="4.78488">
        <ele>236</ele>
        <time>2017-06-24T10:28:25Z</time>
      </trkpt>
      <trkpt lat="45.94378" lon="4.78477">
        <ele>236</ele>
        <time>2017-06-24T10:28:26Z</time>
      </trkpt>
      <trkpt lat="45.94369" lon="4.78466">
        <ele>236</ele>
        <time>2017-06-24T10:28:27Z</time>
      </trkpt>
      <trkpt lat="45.9436" lon="4.78454">
        <ele>235</ele>
        <time>2017-06-24T10:28:28Z</time>
      </trkpt>
      <trkpt lat="45.94351" lon="4.78442">
        <ele>234</ele>
        <time>2017-06-24T10:28:29Z</time>
      </trkpt>
      <trkpt lat="45.94343" lon="4.78429">
        <ele>232</ele>
        <time>2017-06-24T10:28:30Z</time>
      </trkpt>
      <trkpt lat="45.94335" lon="4.78416">
        <ele>229</ele>
        <time>2017-06-24T10:28:31Z</time>
      </trkpt>
      <trkpt lat="45.94328" lon="4.78403">
        <ele>230</ele>
        <time>2017-06-24T10:28:32Z</time>
      </trkpt>
      <trkpt lat="45.94322" lon="4.78389">
        <ele>230</ele>
        <time>2017-06-24T10:28:33Z</time>
      </trkpt>
      <trkpt lat="45.94315" lon="4.78375">
        <ele>229</ele>
        <time>2017-06-24T10:28:34Z</time>
      </trkpt>
      <trkpt lat="45.94308" lon="4.78362">
        <ele>229</ele>
        <time>2017-06-24T10:28:35Z</time>
      </trkpt>
      <trkpt lat="45.94301" lon="4.78349">
        <ele>229</ele>
        <time>2017-06-24T10:28:36Z</time>
      </trkpt>
      <trkpt lat="45.94293" lon="4.78337">
        <ele>228</ele>
        <time>2017-06-24T10:28:37Z</time>
      </trkpt>
      <trkpt lat="45.94285" lon="4.78326">
        <ele>228</ele>
        <time>2017-06-24T10:28:38Z</time>
      </trkpt>
      <trkpt lat="45.94275" lon="4.78318">
        <ele>227</ele>
        <time>2017-06-24T10:28:39Z</time>
      </trkpt>
      <trkpt lat="45.94265" lon="4.78311">
        <ele>227</ele>
        <time>2017-06-24T10:28:40Z</time>
      </trkpt>
      <trkpt lat="45.94255" lon="4.78305">
        <ele>227</ele>
        <time>2017-06-24T10:28:41Z</time>
      </trkpt>
      <trkpt lat="45.94244" lon="4.78301">
        <ele>222</ele>
        <time>2017-06-24T10:28:42Z</time>
      </trkpt>
      <trkpt lat="45.94234" lon="4.78298">
        <ele>222</ele>
        <time>2017-06-24T10:28:43Z</time>
      </trkpt>
      <trkpt lat="45.94223" lon="4.78296">
        <ele>222</ele>
        <time>2017-06-24T10:28:44Z</time>
      </trkpt>
      <trkpt lat="45.94212" lon="4.78294">
        <ele>222</ele>
        <time>2017-06-24T10:28:45Z</time>
      </trkpt>
      <trkpt lat="45.94202" lon="4.78291">
        <ele>221</ele>
        <time>2017-06-24T10:28:46Z</time>
      </trkpt>
      <trkpt lat="45.94192" lon="4.78288">
        <ele>221</ele>
        <time>2017-06-24T10:28:47Z</time>
      </trkpt>
      <trkpt lat="45.94182" lon="4.78284">
        <ele>221</ele>
        <time>2017-06-24T10:28:48Z</time>
      </trkpt>
      <trkpt lat="45.94172" lon="4.78279">
        <ele>220</ele>
        <time>2017-06-24T10:28:49Z</time>
      </trkpt>
      <trkpt lat="45.94163" lon="4.78274">
        <ele>216</ele>
        <time>2017-06-24T10:28:50Z</time>
      </trkpt>
      <trkpt lat="45.94154" lon="4.78268">
        <ele>216</ele>
        <time>2017-06-24T10:28:51Z</time>
      </trkpt>
      <trkpt lat="45.94146" lon="4.78262">
        <ele>216</ele>
        <time>2017-06-24T10:28:52Z</time>
      </trkpt>
      <trkpt lat="45.94137" lon="4.78256">
        <ele>215</ele>
        <time>2017-06-24T10:28:53Z</time>
      </trkpt>
      <trkpt lat="45.94128" lon="4.7825">
        <ele>214</ele>
        <time>2017-06-24T10:28:54Z</time>
      </trkpt>
      <trkpt lat="45.94119" lon="4.78244">
        <ele>214</ele>
        <time>2017-06-24T10:28:55Z</time>
      </trkpt>
      <trkpt lat="45.9411" lon="4.78239">
        <ele>213</ele>
        <time>2017-06-24T10:28:56Z</time>
      </trkpt>
      <trkpt lat="45.94101" lon="4.78234">
        <ele>213</ele>
        <time>2017-06-24T10:28:57Z</time>
      </trkpt>
      <trkpt lat="45.94092" lon="4.78229">
        <ele>212</ele>
        <time>2017-06-24T10:28:58Z</time>
      </trkpt>
      <trkpt lat="45.94083" lon="4.78224">
        <ele>206</ele>
        <time>2017-06-24T10:28:59Z</time>
      </trkpt>
      <trkpt lat="45.94074" lon="4.78218">
        <ele>206</ele>
        <time>2017-06-24T10:29:00Z</time>
      </trkpt>
      <trkpt lat="45.94066" lon="4.78212">
        <ele>206</ele>
        <time>2017-06-24T10:29:01Z</time>
      </trkpt>
      <trkpt lat="45.94057" lon="4.78207">
        <ele>206</ele>
        <time>2017-06-24T10:29:02Z</time>
      </trkpt>
      <trkpt lat="45.94049" lon="4.78202">
        <ele>205</ele>
        <time>2017-06-24T10:29:03Z</time>
      </trkpt>
      <trkpt lat="45.94041" lon="4.78198">
        <ele>205</ele>
        <time>2017-06-24T10:29:04Z</time>
      </trkpt>
      <trkpt lat="45.94033" lon="4.78194">
        <ele>204</ele>
        <time>2017-06-24T10:29:05Z</time>
      </trkpt>
      <trkpt lat="45.94026" lon="4.7819">
        <ele>204</ele>
        <time>2017-06-24T10:29:06Z</time>
      </trkpt>
      <trkpt lat="45.94018" lon="4.78186">
        <ele>203</ele>
        <time>2017-06-24T10:29:07Z</time>
      </trkpt>
      <trkpt lat="45.94011" lon="4.78182">
        <ele>203</ele>
        <time>2017-06-24T10:29:08Z</time>
      </trkpt>
      <trkpt lat="45.94005" lon="4.78179">
        <ele>202</ele>
        <time>2017-06-24T10:29:09Z</time>
      </trkpt>
      <trkpt lat="45.94" lon="4.78177">
        <ele>199</ele>
        <time>2017-06-24T10:29:10Z</time>
      </trkpt>
      <trkpt lat="45.93996" lon="4.78168">
        <ele>200</ele>
        <time>2017-06-24T10:29:12Z</time>
      </trkpt>
      <trkpt lat="45.93996" lon="4.78162">
        <ele>200</ele>
        <time>2017-06-24T10:29:13Z</time>
      </trkpt>
      <trkpt lat="45.93991" lon="4.78152">
        <ele>199</ele>
        <time>2017-06-24T10:29:15Z</time>
      </trkpt>
      <trkpt lat="45.9399" lon="4.78147">
        <ele>198</ele>
        <time>2017-06-24T10:29:16Z</time>
      </trkpt>
      <trkpt lat="45.93991" lon="4.7814">
        <ele>198</ele>
        <time>2017-06-24T10:29:17Z</time>
      </trkpt>
      <trkpt lat="45.93993" lon="4.78133">
        <ele>197</ele>
        <time>2017-06-24T10:29:18Z</time>
      </trkpt>
      <trkpt lat="45.93996" lon="4.78126">
        <ele>197</ele>
        <time>2017-06-24T10:29:19Z</time>
      </trkpt>
      <trkpt lat="45.93997" lon="4.78119">
        <ele>197</ele>
        <time>2017-06-24T10:29:20Z</time>
      </trkpt>
      <trkpt lat="45.93999" lon="4.78111">
        <ele>197</ele>
        <time>2017-06-24T10:29:21Z</time>
      </trkpt>
      <trkpt lat="45.94001" lon="4.78103">
        <ele>202</ele>
        <time>2017-06-24T10:29:22Z</time>
      </trkpt>
      <trkpt lat="45.94002" lon="4.78096">
        <ele>201</ele>
        <time>2017-06-24T10:29:23Z</time>
      </trkpt>
      <trkpt lat="45.94004" lon="4.78088">
        <ele>200</ele>
        <time>2017-06-24T10:29:24Z</time>
      </trkpt>
      <trkpt lat="45.94006" lon="4.7808">
        <ele>200</ele>
        <time>2017-06-24T10:29:25Z</time>
      </trkpt>
      <trkpt lat="45.94007" lon="4.78072">
        <ele>201</ele>
        <time>2017-06-24T10:29:26Z</time>
      </trkpt>
      <trkpt lat="45.94009" lon="4.78064">
        <ele>201</ele>
        <time>2017-06-24T10:29:27Z</time>
      </trkpt>
      <trkpt lat="45.94011" lon="4.78056">
        <ele>201</ele>
        <time>2017-06-24T10:29:28Z</time>
      </trkpt>
      <trkpt lat="45.94012" lon="4.78049">
        <ele>201</ele>
        <time>2017-06-24T10:29:29Z</time>
      </trkpt>
      <trkpt lat="45.94014" lon="4.78042">
        <ele>201</ele>
        <time>2017-06-24T10:29:30Z</time>
      </trkpt>
      <trkpt lat="45.94016" lon="4.78035">
        <ele>201</ele>
        <time>2017-06-24T10:29:31Z</time>
      </trkpt>
      <trkpt lat="45.94017" lon="4.78027">
        <ele>201</ele>
        <time>2017-06-24T10:29:32Z</time>
      </trkpt>
      <trkpt lat="45.94018" lon="4.78019">
        <ele>201</ele>
        <time>2017-06-24T10:29:33Z</time>
      </trkpt>
      <trkpt lat="45.94019" lon="4.78011">
        <ele>200</ele>
        <time>2017-06-24T10:29:34Z</time>
      </trkpt>
      <trkpt lat="45.9402" lon="4.78003">
        <ele>200</ele>
        <time>2017-06-24T10:29:35Z</time>
      </trkpt>
      <trkpt lat="45.94022" lon="4.77995">
        <ele>200</ele>
        <time>2017-06-24T10:29:36Z</time>
      </trkpt>
      <trkpt lat="45.94023" lon="4.77987">
        <ele>200</ele>
        <time>2017-06-24T10:29:37Z</time>
      </trkpt>
      <trkpt lat="45.94024" lon="4.77978">
        <ele>200</ele>
        <time>2017-06-24T10:29:38Z</time>
      </trkpt>
      <trkpt lat="45.94024" lon="4.77968">
        <ele>200</ele>
        <time>2017-06-24T10:29:39Z</time>
      </trkpt>
      <trkpt lat="45.94026" lon="4.7796">
        <ele>200</ele>
        <time>2017-06-24T10:29:40Z</time>
      </trkpt>
      <trkpt lat="45.94028" lon="4.77953">
        <ele>200</ele>
        <time>2017-06-24T10:29:41Z</time>
      </trkpt>
      <trkpt lat="45.9403" lon="4.77947">
        <ele>200</ele>
        <time>2017-06-24T10:29:42Z</time>
      </trkpt>
      <trkpt lat="45.94032" lon="4.7794">
        <ele>200</ele>
        <time>2017-06-24T10:29:43Z</time>
      </trkpt>
      <trkpt lat="45.94033" lon="4.77933">
        <ele>200</ele>
        <time>2017-06-24T10:29:44Z</time>
      </trkpt>
      <trkpt lat="45.94029" lon="4.77928">
        <ele>200</ele>
        <time>2017-06-24T10:29:45Z</time>
      </trkpt>
      <trkpt lat="45.94024" lon="4.77925">
        <ele>199</ele>
        <time>2017-06-24T10:29:46Z</time>
      </trkpt>
      <trkpt lat="45.94017" lon="4.77924">
        <ele>198</ele>
        <time>2017-06-24T10:29:47Z</time>
      </trkpt>
      <trkpt lat="45.9401" lon="4.77924">
        <ele>197</ele>
        <time>2017-06-24T10:29:48Z</time>
      </trkpt>
      <trkpt lat="45.94003" lon="4.77925">
        <ele>196</ele>
        <time>2017-06-24T10:29:49Z</time>
      </trkpt>
      <trkpt lat="45.93996" lon="4.77927">
        <ele>193</ele>
        <time>2017-06-24T10:29:50Z</time>
      </trkpt>
      <trkpt lat="45.93988" lon="4.77931">
        <ele>192</ele>
        <time>2017-06-24T10:29:51Z</time>
      </trkpt>
      <trkpt lat="45.93979" lon="4.77936">
        <ele>191</ele>
        <time>2017-06-24T10:29:52Z</time>
      </trkpt>
      <trkpt lat="45.93971" lon="4.7794">
        <ele>191</ele>
        <time>2017-06-24T10:29:53Z</time>
      </trkpt>
      <trkpt lat="45.93963" lon="4.77945">
        <ele>190</ele>
        <time>2017-06-24T10:29:54Z</time>
      </trkpt>
      <trkpt lat="45.93956" lon="4.77951">
        <ele>190</ele>
        <time>2017-06-24T10:29:55Z</time>
      </trkpt>
      <trkpt lat="45.93947" lon="4.77957">
        <ele>189</ele>
        <time>2017-06-24T10:29:56Z</time>
      </trkpt>
      <trkpt lat="45.9394" lon="4.77963">
        <ele>189</ele>
        <time>2017-06-24T10:29:57Z</time>
      </trkpt>
      <trkpt lat="45.93931" lon="4.77969">
        <ele>189</ele>
        <time>2017-06-24T10:29:58Z</time>
      </trkpt>
      <trkpt lat="45.93923" lon="4.77976">
        <ele>188</ele>
        <time>2017-06-24T10:29:59Z</time>
      </trkpt>
      <trkpt lat="45.93916" lon="4.77982">
        <ele>183</ele>
        <time>2017-06-24T10:30:00Z</time>
      </trkpt>
      <trkpt lat="45.93908" lon="4.77989">
        <ele>183</ele>
        <time>2017-06-24T10:30:01Z</time>
      </trkpt>
      <trkpt lat="45.93902" lon="4.77997">
        <ele>183</ele>
        <time>2017-06-24T10:30:02Z</time>
      </trkpt>
      <trkpt lat="45.93895" lon="4.78004">
        <ele>185</ele>
        <time>2017-06-24T10:30:03Z</time>
      </trkpt>
      <trkpt lat="45.9389" lon="4.78011">
        <ele>184</ele>
        <time>2017-06-24T10:30:04Z</time>
      </trkpt>
      <trkpt lat="45.93884" lon="4.78015">
        <ele>184</ele>
        <time>2017-06-24T10:30:05Z</time>
      </trkpt>
      <trkpt lat="45.93878" lon="4.78015">
        <ele>184</ele>
        <time>2017-06-24T10:30:06Z</time>
      </trkpt>
      <trkpt lat="45.93872" lon="4.78011">
        <ele>183</ele>
        <time>2017-06-24T10:30:07Z</time>
      </trkpt>
      <trkpt lat="45.93866" lon="4.78005">
        <ele>183</ele>
        <time>2017-06-24T10:30:08Z</time>
      </trkpt>
      <trkpt lat="45.93861" lon="4.78">
        <ele>179</ele>
        <time>2017-06-24T10:30:09Z</time>
      </trkpt>
      <trkpt lat="45.93855" lon="4.77995">
        <ele>179</ele>
        <time>2017-06-24T10:30:10Z</time>
      </trkpt>
      <trkpt lat="45.93848" lon="4.7799">
        <ele>179</ele>
        <time>2017-06-24T10:30:11Z</time>
      </trkpt>
      <trkpt lat="45.93843" lon="4.77984">
        <ele>178</ele>
        <time>2017-06-24T10:30:12Z</time>
      </trkpt>
      <trkpt lat="45.93839" lon="4.77978">
        <ele>178</ele>
        <time>2017-06-24T10:30:13Z</time>
      </trkpt>
      <trkpt lat="45.93835" lon="4.77972">
        <ele>178</ele>
        <time>2017-06-24T10:30:14Z</time>
      </trkpt>
      <trkpt lat="45.9383" lon="4.77967">
        <ele>171</ele>
        <time>2017-06-24T10:30:15Z</time>
      </trkpt>
      <trkpt lat="45.93826" lon="4.77962">
        <ele>171</ele>
        <time>2017-06-24T10:30:16Z</time>
      </trkpt>
      <trkpt lat="45.93821" lon="4.77956">
        <ele>170</ele>
        <time>2017-06-24T10:30:17Z</time>
      </trkpt>
      <trkpt lat="45.93817" lon="4.77949">
        <ele>169</ele>
        <time>2017-06-24T10:30:18Z</time>
      </trkpt>
      <trkpt lat="45.93813" lon="4.77943">
        <ele>169</ele>
        <time>2017-06-24T10:30:19Z</time>
      </trkpt>
      <trkpt lat="45.93808" lon="4.77938">
        <ele>169</ele>
        <time>2017-06-24T10:30:20Z</time>
      </trkpt>
      <trkpt lat="45.93803" lon="4.77932">
        <ele>168</ele>
        <time>2017-06-24T10:30:21Z</time>
      </trkpt>
      <trkpt lat="45.93798" lon="4.77926">
        <ele>168</ele>
        <time>2017-06-24T10:30:22Z</time>
      </trkpt>
      <trkpt lat="45.93793" lon="4.77919">
        <ele>168</ele>
        <time>2017-06-24T10:30:23Z</time>
      </trkpt>
      <trkpt lat="45.93788" lon="4.77913">
        <ele>166</ele>
        <time>2017-06-24T10:30:24Z</time>
      </trkpt>
      <trkpt lat="45.93783" lon="4.77906">
        <ele>166</ele>
        <time>2017-06-24T10:30:25Z</time>
      </trkpt>
      <trkpt lat="45.93778" lon="4.779">
        <ele>166</ele>
        <time>2017-06-24T10:30:26Z</time>
      </trkpt>
      <trkpt lat="45.93773" lon="4.77894">
        <ele>166</ele>
        <time>2017-06-24T10:30:27Z</time>
      </trkpt>
      <trkpt lat="45.93769" lon="4.77888">
        <ele>166</ele>
        <time>2017-06-24T10:30:28Z</time>
      </trkpt>
      <trkpt lat="45.93764" lon="4.77882">
        <ele>166</ele>
        <time>2017-06-24T10:30:29Z</time>
      </trkpt>
      <trkpt lat="45.9376" lon="4.77876">
        <ele>166</ele>
        <time>2017-06-24T10:30:30Z</time>
      </trkpt>
      <trkpt lat="45.93756" lon="4.77871">
        <ele>166</ele>
        <time>2017-06-24T10:30:31Z</time>
      </trkpt>
      <trkpt lat="45.93752" lon="4.77866">
        <ele>166</ele>
        <time>2017-06-24T10:30:32Z</time>
      </trkpt>
      <trkpt lat="45.93748" lon="4.77861">
        <ele>167</ele>
        <time>2017-06-24T10:30:33Z</time>
      </trkpt>
      <trkpt lat="45.93744" lon="4.77855">
        <ele>167</ele>
        <time>2017-06-24T10:30:34Z</time>
      </trkpt>
      <trkpt lat="45.9374" lon="4.7785">
        <ele>167</ele>
        <time>2017-06-24T10:30:35Z</time>
      </trkpt>
      <trkpt lat="45.93736" lon="4.77844">
        <ele>167</ele>
        <time>2017-06-24T10:30:36Z</time>
      </trkpt>
      <trkpt lat="45.93732" lon="4.77839">
        <ele>167</ele>
        <time>2017-06-24T10:30:37Z</time>
      </trkpt>
      <trkpt lat="45.93727" lon="4.77833">
        <ele>168</ele>
        <time>2017-06-24T10:30:38Z</time>
      </trkpt>
      <trkpt lat="45.93723" lon="4.77828">
        <ele>168</ele>
        <time>2017-06-24T10:30:39Z</time>
      </trkpt>
      <trkpt lat="45.9372" lon="4.77822">
        <ele>168</ele>
        <time>2017-06-24T10:30:40Z</time>
      </trkpt>
      <trkpt lat="45.93716" lon="4.77816">
        <ele>169</ele>
        <time>2017-06-24T10:30:41Z</time>
      </trkpt>
      <trkpt lat="45.93712" lon="4.7781">
        <ele>169</ele>
        <time>2017-06-24T10:30:42Z</time>
      </trkpt>
      <trkpt lat="45.93708" lon="4.77804">
        <ele>169</ele>
        <time>2017-06-24T10:30:43Z</time>
      </trkpt>
      <trkpt lat="45.93704" lon="4.77798">
        <ele>169</ele>
        <time>2017-06-24T10:30:44Z</time>
      </trkpt>
      <trkpt lat="45.937" lon="4.77792">
        <ele>169</ele>
        <time>2017-06-24T10:30:45Z</time>
      </trkpt>
      <trkpt lat="45.93695" lon="4.77785">
        <ele>170</ele>
        <time>2017-06-24T10:30:46Z</time>
      </trkpt>
      <trkpt lat="45.9369" lon="4.77779">
        <ele>170</ele>
        <time>2017-06-24T10:30:47Z</time>
      </trkpt>
      <trkpt lat="45.93686" lon="4.77772">
        <ele>170</ele>
        <time>2017-06-24T10:30:48Z</time>
      </trkpt>
      <trkpt lat="45.93681" lon="4.77765">
        <ele>170</ele>
        <time>2017-06-24T10:30:49Z</time>
      </trkpt>
      <trkpt lat="45.93676" lon="4.77758">
        <ele>170</ele>
        <time>2017-06-24T10:30:50Z</time>
      </trkpt>
      <trkpt lat="45.93671" lon="4.7775">
        <ele>171</ele>
        <time>2017-06-24T10:30:51Z</time>
      </trkpt>
      <trkpt lat="45.93666" lon="4.77742">
        <ele>171</ele>
        <time>2017-06-24T10:30:52Z</time>
      </trkpt>
      <trkpt lat="45.9366" lon="4.77733">
        <ele>170</ele>
        <time>2017-06-24T10:30:53Z</time>
      </trkpt>
      <trkpt lat="45.93655" lon="4.77724">
        <ele>170</ele>
        <time>2017-06-24T10:30:54Z</time>
      </trkpt>
      <trkpt lat="45.93649" lon="4.77715">
        <ele>170</ele>
        <time>2017-06-24T10:30:55Z</time>
      </trkpt>
      <trkpt lat="45.93644" lon="4.77705">
        <ele>170</ele>
        <time>2017-06-24T10:30:56Z</time>
      </trkpt>
      <trkpt lat="45.93638" lon="4.77695">
        <ele>169</ele>
        <time>2017-06-24T10:30:57Z</time>
      </trkpt>
      <trkpt lat="45.93633" lon="4.77685">
        <ele>169</ele>
        <time>2017-06-24T10:30:58Z</time>
      </trkpt>
      <trkpt lat="45.93628" lon="4.77675">
        <ele>169</ele>
        <time>2017-06-24T10:30:59Z</time>
      </trkpt>
      <trkpt lat="45.93623" lon="4.77664">
        <ele>169</ele>
        <time>2017-06-24T10:31:00Z</time>
      </trkpt>
      <trkpt lat="45.93618" lon="4.77653">
        <ele>169</ele>
        <time>2017-06-24T10:31:01Z</time>
      </trkpt>
      <trkpt lat="45.93614" lon="4.77643">
        <ele>169</ele>
        <time>2017-06-24T10:31:02Z</time>
      </trkpt>
      <trkpt lat="45.93609" lon="4.77632">
        <ele>169</ele>
        <time>2017-06-24T10:31:03Z</time>
      </trkpt>
      <trkpt lat="45.93605" lon="4.77622">
        <ele>170</ele>
        <time>2017-06-24T10:31:04Z</time>
      </trkpt>
      <trkpt lat="45.93602" lon="4.77612">
        <ele>170</ele>
        <time>2017-06-24T10:31:05Z</time>
      </trkpt>
      <trkpt lat="45.93598" lon="4.77602">
        <ele>170</ele>
        <time>2017-06-24T10:31:06Z</time>
      </trkpt>
      <trkpt lat="45.93595" lon="4.77592">
        <ele>170</ele>
        <time>2017-06-24T10:31:07Z</time>
      </trkpt>
      <trkpt lat="45.93592" lon="4.77583">
        <ele>170</ele>
        <time>2017-06-24T10:31:08Z</time>
      </trkpt>
      <trkpt lat="45.93589" lon="4.77574">
        <ele>170</ele>
        <time>2017-06-24T10:31:09Z</time>
      </trkpt>
      <trkpt lat="45.93586" lon="4.77564">
        <ele>170</ele>
        <time>2017-06-24T10:31:10Z</time>
      </trkpt>
      <trkpt lat="45.93583" lon="4.77555">
        <ele>169</ele>
        <time>2017-06-24T10:31:11Z</time>
      </trkpt>
      <trkpt lat="45.93581" lon="4.77546">
        <ele>169</ele>
        <time>2017-06-24T10:31:12Z</time>
      </trkpt>
      <trkpt lat="45.93578" lon="4.77537">
        <ele>169</ele>
        <time>2017-06-24T10:31:13Z</time>
      </trkpt>
      <trkpt lat="45.93576" lon="4.77528">
        <ele>169</ele>
        <time>2017-06-24T10:31:14Z</time>
      </trkpt>
      <trkpt lat="45.93574" lon="4.77519">
        <ele>169</ele>
        <time>2017-06-24T10:31:15Z</time>
      </trkpt>
      <trkpt lat="45.93572" lon="4.7751">
        <ele>169</ele>
        <time>2017-06-24T10:31:16Z</time>
      </trkpt>
      <trkpt lat="45.9357" lon="4.77502">
        <ele>169</ele>
        <time>2017-06-24T10:31:17Z</time>
      </trkpt>
      <trkpt lat="45.93568" lon="4.77493">
        <ele>169</ele>
        <time>2017-06-24T10:31:18Z</time>
      </trkpt>
      <trkpt lat="45.93566" lon="4.77485">
        <ele>169</ele>
        <time>2017-06-24T10:31:19Z</time>
      </trkpt>
      <trkpt lat="45.93564" lon="4.77476">
        <ele>169</ele>
        <time>2017-06-24T10:31:20Z</time>
      </trkpt>
      <trkpt lat="45.93562" lon="4.77468">
        <ele>169</ele>
        <time>2017-06-24T10:31:21Z</time>
      </trkpt>
      <trkpt lat="45.9356" lon="4.77459">
        <ele>169</ele>
        <time>2017-06-24T10:31:22Z</time>
      </trkpt>
      <trkpt lat="45.93558" lon="4.7745">
        <ele>169</ele>
        <time>2017-06-24T10:31:23Z</time>
      </trkpt>
      <trkpt lat="45.93557" lon="4.77442">
        <ele>169</ele>
        <time>2017-06-24T10:31:24Z</time>
      </trkpt>
      <trkpt lat="45.93555" lon="4.77434">
        <ele>169</ele>
        <time>2017-06-24T10:31:25Z</time>
      </trkpt>
      <trkpt lat="45.93553" lon="4.77427">
        <ele>170</ele>
        <time>2017-06-24T10:31:26Z</time>
      </trkpt>
      <trkpt lat="45.93551" lon="4.77419">
        <ele>170</ele>
        <time>2017-06-24T10:31:27Z</time>
      </trkpt>
      <trkpt lat="45.9355" lon="4.77411">
        <ele>170</ele>
        <time>2017-06-24T10:31:28Z</time>
      </trkpt>
      <trkpt lat="45.93548" lon="4.77403">
        <ele>170</ele>
        <time>2017-06-24T10:31:29Z</time>
      </trkpt>
      <trkpt lat="45.93546" lon="4.77395">
        <ele>170</ele>
        <time>2017-06-24T10:31:30Z</time>
      </trkpt>
      <trkpt lat="45.93544" lon="4.77387">
        <ele>170</ele>
        <time>2017-06-24T10:31:31Z</time>
      </trkpt>
      <trkpt lat="45.93542" lon="4.77379">
        <ele>170</ele>
        <time>2017-06-24T10:31:32Z</time>
      </trkpt>
      <trkpt lat="45.9354" lon="4.77372">
        <ele>170</ele>
        <time>2017-06-24T10:31:33Z</time>
      </trkpt>
      <trkpt lat="45.93539" lon="4.77364">
        <ele>170</ele>
        <time>2017-06-24T10:31:34Z</time>
      </trkpt>
      <trkpt lat="45.93537" lon="4.77356">
        <ele>170</ele>
        <time>2017-06-24T10:31:35Z</time>
      </trkpt>
      <trkpt lat="45.93535" lon="4.77349">
        <ele>170</ele>
        <time>2017-06-24T10:31:36Z</time>
      </trkpt>
      <trkpt lat="45.93533" lon="4.77341">
        <ele>170</ele>
        <time>2017-06-24T10:31:37Z</time>
      </trkpt>
      <trkpt lat="45.93531" lon="4.77333">
        <ele>170</ele>
        <time>2017-06-24T10:31:38Z</time>
      </trkpt>
      <trkpt lat="45.9353" lon="4.77326">
        <ele>170</ele>
        <time>2017-06-24T10:31:39Z</time>
      </trkpt>
      <trkpt lat="45.93528" lon="4.77318">
        <ele>170</ele>
        <time>2017-06-24T10:31:40Z</time>
      </trkpt>
      <trkpt lat="45.93526" lon="4.77311">
        <ele>170</ele>
        <time>2017-06-24T10:31:41Z</time>
      </trkpt>
      <trkpt lat="45.93524" lon="4.77303">
        <ele>170</ele>
        <time>2017-06-24T10:31:42Z</time>
      </trkpt>
      <trkpt lat="45.93523" lon="4.77296">
        <ele>170</ele>
        <time>2017-06-24T10:31:43Z</time>
      </trkpt>
      <trkpt lat="45.93522" lon="4.7729">
        <ele>170</ele>
        <time>2017-06-24T10:31:44Z</time>
      </trkpt>
      <trkpt lat="45.93521" lon="4.77283">
        <ele>170</ele>
        <time>2017-06-24T10:31:45Z</time>
      </trkpt>
      <trkpt lat="45.9352" lon="4.77276">
        <ele>170</ele>
        <time>2017-06-24T10:31:46Z</time>
      </trkpt>
      <trkpt lat="45.93518" lon="4.7727">
        <ele>170</ele>
        <time>2017-06-24T10:31:47Z</time>
      </trkpt>
      <trkpt lat="45.93516" lon="4.77263">
        <ele>170</ele>
        <time>2017-06-24T10:31:48Z</time>
      </trkpt>
      <trkpt lat="45.93515" lon="4.77256">
        <ele>170</ele>
        <time>2017-06-24T10:31:49Z</time>
      </trkpt>
      <trkpt lat="45.93513" lon="4.77248">
        <ele>169</ele>
        <time>2017-06-24T10:31:50Z</time>
      </trkpt>
      <trkpt lat="45.93512" lon="4.77241">
        <ele>169</ele>
        <time>2017-06-24T10:31:51Z</time>
      </trkpt>
      <trkpt lat="45.9351" lon="4.77234">
        <ele>169</ele>
        <time>2017-06-24T10:31:52Z</time>
      </trkpt>
      <trkpt lat="45.93508" lon="4.77226">
        <ele>169</ele>
        <time>2017-06-24T10:31:53Z</time>
      </trkpt>
      <trkpt lat="45.93507" lon="4.77219">
        <ele>169</ele>
        <time>2017-06-24T10:31:54Z</time>
      </trkpt>
      <trkpt lat="45.93505" lon="4.77211">
        <ele>169</ele>
        <time>2017-06-24T10:31:55Z</time>
      </trkpt>
      <trkpt lat="45.93504" lon="4.77204">
        <ele>169</ele>
        <time>2017-06-24T10:31:56Z</time>
      </trkpt>
      <trkpt lat="45.93502" lon="4.77197">
        <ele>169</ele>
        <time>2017-06-24T10:31:57Z</time>
      </trkpt>
      <trkpt lat="45.93501" lon="4.7719">
        <ele>169</ele>
        <time>2017-06-24T10:31:58Z</time>
      </trkpt>
      <trkpt lat="45.93499" lon="4.77183">
        <ele>169</ele>
        <time>2017-06-24T10:31:59Z</time>
      </trkpt>
      <trkpt lat="45.93498" lon="4.77176">
        <ele>169</ele>
        <time>2017-06-24T10:32:00Z</time>
      </trkpt>
      <trkpt lat="45.93496" lon="4.77169">
        <ele>169</ele>
        <time>2017-06-24T10:32:01Z</time>
      </trkpt>
      <trkpt lat="45.93494" lon="4.77161">
        <ele>169</ele>
        <time>2017-06-24T10:32:02Z</time>
      </trkpt>
      <trkpt lat="45.93493" lon="4.77153">
        <ele>169</ele>
        <time>2017-06-24T10:32:03Z</time>
      </trkpt>
      <trkpt lat="45.93491" lon="4.77145">
        <ele>169</ele>
        <time>2017-06-24T10:32:04Z</time>
      </trkpt>
      <trkpt lat="45.93489" lon="4.77136">
        <ele>169</ele>
        <time>2017-06-24T10:32:05Z</time>
      </trkpt>
      <trkpt lat="45.93487" lon="4.77127">
        <ele>169</ele>
        <time>2017-06-24T10:32:06Z</time>
      </trkpt>
      <trkpt lat="45.93486" lon="4.77118">
        <ele>169</ele>
        <time>2017-06-24T10:32:07Z</time>
      </trkpt>
      <trkpt lat="45.93484" lon="4.77109">
        <ele>169</ele>
        <time>2017-06-24T10:32:08Z</time>
      </trkpt>
      <trkpt lat="45.93482" lon="4.77101">
        <ele>169</ele>
        <time>2017-06-24T10:32:09Z</time>
      </trkpt>
      <trkpt lat="45.93481" lon="4.77092">
        <ele>169</ele>
        <time>2017-06-24T10:32:10Z</time>
      </trkpt>
      <trkpt lat="45.93479" lon="4.77085">
        <ele>169</ele>
        <time>2017-06-24T10:32:11Z</time>
      </trkpt>
      <trkpt lat="45.93478" lon="4.77077">
        <ele>170</ele>
        <time>2017-06-24T10:32:12Z</time>
      </trkpt>
      <trkpt lat="45.93476" lon="4.77069">
        <ele>170</ele>
        <time>2017-06-24T10:32:13Z</time>
      </trkpt>
      <trkpt lat="45.93474" lon="4.77062">
        <ele>170</ele>
        <time>2017-06-24T10:32:14Z</time>
      </trkpt>
      <trkpt lat="45.93472" lon="4.77054">
        <ele>170</ele>
        <time>2017-06-24T10:32:15Z</time>
      </trkpt>
      <trkpt lat="45.93471" lon="4.77046">
        <ele>170</ele>
        <time>2017-06-24T10:32:16Z</time>
      </trkpt>
      <trkpt lat="45.93471" lon="4.77038">
        <ele>170</ele>
        <time>2017-06-24T10:32:17Z</time>
      </trkpt>
      <trkpt lat="45.9347" lon="4.77031">
        <ele>170</ele>
        <time>2017-06-24T10:32:18Z</time>
      </trkpt>
      <trkpt lat="45.93469" lon="4.77024">
        <ele>170</ele>
        <time>2017-06-24T10:32:19Z</time>
      </trkpt>
      <trkpt lat="45.93468" lon="4.77016">
        <ele>170</ele>
        <time>2017-06-24T10:32:20Z</time>
      </trkpt>
      <trkpt lat="45.93468" lon="4.77008">
        <ele>170</ele>
        <time>2017-06-24T10:32:21Z</time>
      </trkpt>
      <trkpt lat="45.93466" lon="4.77">
        <ele>170</ele>
        <time>2017-06-24T10:32:22Z</time>
      </trkpt>
      <trkpt lat="45.93465" lon="4.76992">
        <ele>170</ele>
        <time>2017-06-24T10:32:23Z</time>
      </trkpt>
      <trkpt lat="45.93464" lon="4.76984">
        <ele>170</ele>
        <time>2017-06-24T10:32:24Z</time>
      </trkpt>
      <trkpt lat="45.93463" lon="4.76976">
        <ele>170</ele>
        <time>2017-06-24T10:32:25Z</time>
      </trkpt>
      <trkpt lat="45.93462" lon="4.76968">
        <ele>170</ele>
        <time>2017-06-24T10:32:26Z</time>
      </trkpt>
      <trkpt lat="45.9346" lon="4.76959">
        <ele>170</ele>
        <time>2017-06-24T10:32:27Z</time>
      </trkpt>
      <trkpt lat="45.93458" lon="4.76951">
        <ele>170</ele>
        <time>2017-06-24T10:32:28Z</time>
      </trkpt>
      <trkpt lat="45.93457" lon="4.76943">
        <ele>170</ele>
        <time>2017-06-24T10:32:29Z</time>
      </trkpt>
      <trkpt lat="45.93456" lon="4.76936">
        <ele>170</ele>
        <time>2017-06-24T10:32:30Z</time>
      </trkpt>
      <trkpt lat="45.93455" lon="4.76928">
        <ele>170</ele>
        <time>2017-06-24T10:32:31Z</time>
      </trkpt>
      <trkpt lat="45.93453" lon="4.76921">
        <ele>170</ele>
        <time>2017-06-24T10:32:32Z</time>
      </trkpt>
      <trkpt lat="45.93452" lon="4.76913">
        <ele>170</ele>
        <time>2017-06-24T10:32:33Z</time>
      </trkpt>
      <trkpt lat="45.9345" lon="4.76905">
        <ele>170</ele>
        <time>2017-06-24T10:32:34Z</time>
      </trkpt>
      <trkpt lat="45.93448" lon="4.76898">
        <ele>170</ele>
        <time>2017-06-24T10:32:35Z</time>
      </trkpt>
      <trkpt lat="45.93445" lon="4.7689">
        <ele>170</ele>
        <time>2017-06-24T10:32:36Z</time>
      </trkpt>
      <trkpt lat="45.93443" lon="4.76882">
        <ele>170</ele>
        <time>2017-06-24T10:32:37Z</time>
      </trkpt>
      <trkpt lat="45.9344" lon="4.76874">
        <ele>171</ele>
        <time>2017-06-24T10:32:38Z</time>
      </trkpt>
      <trkpt lat="45.93438" lon="4.76867">
        <ele>171</ele>
        <time>2017-06-24T10:32:39Z</time>
      </trkpt>
      <trkpt lat="45.93435" lon="4.76859">
        <ele>171</ele>
        <time>2017-06-24T10:32:40Z</time>
      </trkpt>
      <trkpt lat="45.93432" lon="4.76853">
        <ele>171</ele>
        <time>2017-06-24T10:32:41Z</time>
      </trkpt>
      <trkpt lat="45.93429" lon="4.76846">
        <ele>171</ele>
        <time>2017-06-24T10:32:42Z</time>
      </trkpt>
      <trkpt lat="45.93425" lon="4.7684">
        <ele>171</ele>
        <time>2017-06-24T10:32:43Z</time>
      </trkpt>
      <trkpt lat="45.93422" lon="4.76834">
        <ele>172</ele>
        <time>2017-06-24T10:32:44Z</time>
      </trkpt>
      <trkpt lat="45.93419" lon="4.76828">
        <ele>172</ele>
        <time>2017-06-24T10:32:45Z</time>
      </trkpt>
      <trkpt lat="45.93415" lon="4.76822">
        <ele>172</ele>
        <time>2017-06-24T10:32:46Z</time>
      </trkpt>
      <trkpt lat="45.93412" lon="4.76817">
        <ele>172</ele>
        <time>2017-06-24T10:32:47Z</time>
      </trkpt>
      <trkpt lat="45.93409" lon="4.76812">
        <ele>172</ele>
        <time>2017-06-24T10:32:48Z</time>
      </trkpt>
      <trkpt lat="45.93406" lon="4.76806">
        <ele>172</ele>
        <time>2017-06-24T10:32:49Z</time>
      </trkpt>
      <trkpt lat="45.93402" lon="4.76801">
        <ele>172</ele>
        <time>2017-06-24T10:32:50Z</time>
      </trkpt>
      <trkpt lat="45.93398" lon="4.76796">
        <ele>172</ele>
        <time>2017-06-24T10:32:51Z</time>
      </trkpt>
      <trkpt lat="45.93394" lon="4.76791">
        <ele>172</ele>
        <time>2017-06-24T10:32:52Z</time>
      </trkpt>
      <trkpt lat="45.93389" lon="4.76786">
        <ele>172</ele>
        <time>2017-06-24T10:32:53Z</time>
      </trkpt>
      <trkpt lat="45.93385" lon="4.7678">
        <ele>172</ele>
        <time>2017-06-24T10:32:54Z</time>
      </trkpt>
      <trkpt lat="45.9338" lon="4.76775">
        <ele>172</ele>
        <time>2017-06-24T10:32:55Z</time>
      </trkpt>
      <trkpt lat="45.93376" lon="4.7677">
        <ele>172</ele>
        <time>2017-06-24T10:32:56Z</time>
      </trkpt>
      <trkpt lat="45.93372" lon="4.76765">
        <ele>172</ele>
        <time>2017-06-24T10:32:57Z</time>
      </trkpt>
      <trkpt lat="45.93367" lon="4.76761">
        <ele>172</ele>
        <time>2017-06-24T10:32:58Z</time>
      </trkpt>
      <trkpt lat="45.93362" lon="4.76757">
        <ele>172</ele>
        <time>2017-06-24T10:32:59Z</time>
      </trkpt>
      <trkpt lat="45.93358" lon="4.76752">
        <ele>172</ele>
        <time>2017-06-24T10:33:00Z</time>
      </trkpt>
      <trkpt lat="45.93354" lon="4.76748">
        <ele>172</ele>
        <time>2017-06-24T10:33:01Z</time>
      </trkpt>
      <trkpt lat="45.9335" lon="4.76744">
        <ele>172</ele>
        <time>2017-06-24T10:33:02Z</time>
      </trkpt>
      <trkpt lat="45.93346" lon="4.7674">
        <ele>172</ele>
        <time>2017-06-24T10:33:03Z</time>
      </trkpt>
      <trkpt lat="45.93342" lon="4.76735">
        <ele>172</ele>
        <time>2017-06-24T10:33:04Z</time>
      </trkpt>
      <trkpt lat="45.93338" lon="4.76731">
        <ele>172</ele>
        <time>2017-06-24T10:33:05Z</time>
      </trkpt>
      <trkpt lat="45.93333" lon="4.76726">
        <ele>172</ele>
        <time>2017-06-24T10:33:06Z</time>
      </trkpt>
      <trkpt lat="45.93328" lon="4.76721">
        <ele>172</ele>
        <time>2017-06-24T10:33:07Z</time>
      </trkpt>
      <trkpt lat="45.93323" lon="4.76716">
        <ele>172</ele>
        <time>2017-06-24T10:33:08Z</time>
      </trkpt>
      <trkpt lat="45.93318" lon="4.76712">
        <ele>172</ele>
        <time>2017-06-24T10:33:09Z</time>
      </trkpt>
      <trkpt lat="45.93313" lon="4.76707">
        <ele>172</ele>
        <time>2017-06-24T10:33:10Z</time>
      </trkpt>
      <trkpt lat="45.93309" lon="4.76703">
        <ele>172</ele>
        <time>2017-06-24T10:33:11Z</time>
      </trkpt>
      <trkpt lat="45.93304" lon="4.76698">
        <ele>172</ele>
        <time>2017-06-24T10:33:12Z</time>
      </trkpt>
      <trkpt lat="45.933" lon="4.76694">
        <ele>172</ele>
        <time>2017-06-24T10:33:13Z</time>
      </trkpt>
      <trkpt lat="45.93296" lon="4.76689">
        <ele>172</ele>
        <time>2017-06-24T10:33:14Z</time>
      </trkpt>
      <trkpt lat="45.9329" lon="4.76685">
        <ele>172</ele>
        <time>2017-06-24T10:33:15Z</time>
      </trkpt>
      <trkpt lat="45.93286" lon="4.76681">
        <ele>172</ele>
        <time>2017-06-24T10:33:16Z</time>
      </trkpt>
      <trkpt lat="45.93282" lon="4.76677">
        <ele>172</ele>
        <time>2017-06-24T10:33:17Z</time>
      </trkpt>
      <trkpt lat="45.93278" lon="4.76673">
        <ele>172</ele>
        <time>2017-06-24T10:33:18Z</time>
      </trkpt>
      <trkpt lat="45.93274" lon="4.76669">
        <ele>172</ele>
        <time>2017-06-24T10:33:19Z</time>
      </trkpt>
      <trkpt lat="45.93269" lon="4.76665">
        <ele>171</ele>
        <time>2017-06-24T10:33:20Z</time>
      </trkpt>
      <trkpt lat="45.93266" lon="4.7666">
        <ele>171</ele>
        <time>2017-06-24T10:33:21Z</time>
      </trkpt>
      <trkpt lat="45.93262" lon="4.76657">
        <ele>171</ele>
        <time>2017-06-24T10:33:22Z</time>
      </trkpt>
      <trkpt lat="45.93257" lon="4.76653">
        <ele>171</ele>
        <time>2017-06-24T10:33:23Z</time>
      </trkpt>
      <trkpt lat="45.93253" lon="4.76648">
        <ele>171</ele>
        <time>2017-06-24T10:33:24Z</time>
      </trkpt>
      <trkpt lat="45.93248" lon="4.76643">
        <ele>171</ele>
        <time>2017-06-24T10:33:25Z</time>
      </trkpt>
      <trkpt lat="45.93243" lon="4.76638">
        <ele>171</ele>
        <time>2017-06-24T10:33:26Z</time>
      </trkpt>
      <trkpt lat="45.93238" lon="4.76633">
        <ele>170</ele>
        <time>2017-06-24T10:33:27Z</time>
      </trkpt>
      <trkpt lat="45.93233" lon="4.76628">
        <ele>170</ele>
        <time>2017-06-24T10:33:28Z</time>
      </trkpt>
      <trkpt lat="45.93227" lon="4.76623">
        <ele>170</ele>
        <time>2017-06-24T10:33:29Z</time>
      </trkpt>
      <trkpt lat="45.93222" lon="4.76617">
        <ele>170</ele>
        <time>2017-06-24T10:33:30Z</time>
      </trkpt>
      <trkpt lat="45.93217" lon="4.76612">
        <ele>170</ele>
        <time>2017-06-24T10:33:31Z</time>
      </trkpt>
      <trkpt lat="45.93211" lon="4.76607">
        <ele>170</ele>
        <time>2017-06-24T10:33:32Z</time>
      </trkpt>
      <trkpt lat="45.93206" lon="4.76602">
        <ele>170</ele>
        <time>2017-06-24T10:33:33Z</time>
      </trkpt>
      <trkpt lat="45.93201" lon="4.76597">
        <ele>170</ele>
        <time>2017-06-24T10:33:34Z</time>
      </trkpt>
      <trkpt lat="45.93196" lon="4.76592">
        <ele>170</ele>
        <time>2017-06-24T10:33:35Z</time>
      </trkpt>
      <trkpt lat="45.93191" lon="4.76587">
        <ele>170</ele>
        <time>2017-06-24T10:33:36Z</time>
      </trkpt>
      <trkpt lat="45.93187" lon="4.76582">
        <ele>170</ele>
        <time>2017-06-24T10:33:37Z</time>
      </trkpt>
      <trkpt lat="45.93182" lon="4.76578">
        <ele>170</ele>
        <time>2017-06-24T10:33:38Z</time>
      </trkpt>
      <trkpt lat="45.93178" lon="4.76574">
        <ele>170</ele>
        <time>2017-06-24T10:33:39Z</time>
      </trkpt>
      <trkpt lat="45.93174" lon="4.7657">
        <ele>170</ele>
        <time>2017-06-24T10:33:40Z</time>
      </trkpt>
      <trkpt lat="45.93169" lon="4.76566">
        <ele>170</ele>
        <time>2017-06-24T10:33:41Z</time>
      </trkpt>
      <trkpt lat="45.93164" lon="4.76561">
        <ele>170</ele>
        <time>2017-06-24T10:33:42Z</time>
      </trkpt>
      <trkpt lat="45.93159" lon="4.76556">
        <ele>170</ele>
        <time>2017-06-24T10:33:43Z</time>
      </trkpt>
      <trkpt lat="45.93154" lon="4.76551">
        <ele>170</ele>
        <time>2017-06-24T10:33:44Z</time>
      </trkpt>
      <trkpt lat="45.9315" lon="4.76547">
        <ele>170</ele>
        <time>2017-06-24T10:33:45Z</time>
      </trkpt>
      <trkpt lat="45.93146" lon="4.76543">
        <ele>170</ele>
        <time>2017-06-24T10:33:46Z</time>
      </trkpt>
      <trkpt lat="45.93141" lon="4.76538">
        <ele>170</ele>
        <time>2017-06-24T10:33:47Z</time>
      </trkpt>
      <trkpt lat="45.93136" lon="4.76534">
        <ele>170</ele>
        <time>2017-06-24T10:33:48Z</time>
      </trkpt>
      <trkpt lat="45.93132" lon="4.7653">
        <ele>170</ele>
        <time>2017-06-24T10:33:49Z</time>
      </trkpt>
      <trkpt lat="45.93128" lon="4.76525">
        <ele>170</ele>
        <time>2017-06-24T10:33:50Z</time>
      </trkpt>
      <trkpt lat="45.93123" lon="4.7652">
        <ele>170</ele>
        <time>2017-06-24T10:33:51Z</time>
      </trkpt>
      <trkpt lat="45.93119" lon="4.76516">
        <ele>170</ele>
        <time>2017-06-24T10:33:52Z</time>
      </trkpt>
      <trkpt lat="45.93114" lon="4.76511">
        <ele>170</ele>
        <time>2017-06-24T10:33:53Z</time>
      </trkpt>
      <trkpt lat="45.93109" lon="4.76506">
        <ele>170</ele>
        <time>2017-06-24T10:33:54Z</time>
      </trkpt>
      <trkpt lat="45.93104" lon="4.76502">
        <ele>170</ele>
        <time>2017-06-24T10:33:55Z</time>
      </trkpt>
      <trkpt lat="45.931" lon="4.76498">
        <ele>170</ele>
        <time>2017-06-24T10:33:56Z</time>
      </trkpt>
      <trkpt lat="45.93096" lon="4.76494">
        <ele>170</ele>
        <time>2017-06-24T10:33:57Z</time>
      </trkpt>
      <trkpt lat="45.93091" lon="4.7649">
        <ele>170</ele>
        <time>2017-06-24T10:33:58Z</time>
      </trkpt>
      <trkpt lat="45.93087" lon="4.76486">
        <ele>170</ele>
        <time>2017-06-24T10:33:59Z</time>
      </trkpt>
      <trkpt lat="45.93082" lon="4.76481">
        <ele>169</ele>
        <time>2017-06-24T10:34:00Z</time>
      </trkpt>
      <trkpt lat="45.93077" lon="4.76476">
        <ele>169</ele>
        <time>2017-06-24T10:34:01Z</time>
      </trkpt>
      <trkpt lat="45.93072" lon="4.76471">
        <ele>169</ele>
        <time>2017-06-24T10:34:02Z</time>
      </trkpt>
      <trkpt lat="45.93068" lon="4.76466">
        <ele>169</ele>
        <time>2017-06-24T10:34:03Z</time>
      </trkpt>
      <trkpt lat="45.93062" lon="4.76462">
        <ele>169</ele>
        <time>2017-06-24T10:34:04Z</time>
      </trkpt>
      <trkpt lat="45.93058" lon="4.76456">
        <ele>169</ele>
        <time>2017-06-24T10:34:05Z</time>
      </trkpt>
      <trkpt lat="45.93053" lon="4.76451">
        <ele>169</ele>
        <time>2017-06-24T10:34:06Z</time>
      </trkpt>
      <trkpt lat="45.93048" lon="4.76446">
        <ele>169</ele>
        <time>2017-06-24T10:34:07Z</time>
      </trkpt>
      <trkpt lat="45.93042" lon="4.76441">
        <ele>169</ele>
        <time>2017-06-24T10:34:08Z</time>
      </trkpt>
      <trkpt lat="45.93037" lon="4.76436">
        <ele>169</ele>
        <time>2017-06-24T10:34:09Z</time>
      </trkpt>
      <trkpt lat="45.93032" lon="4.76431">
        <ele>169</ele>
        <time>2017-06-24T10:34:10Z</time>
      </trkpt>
      <trkpt lat="45.93027" lon="4.76427">
        <ele>169</ele>
        <time>2017-06-24T10:34:11Z</time>
      </trkpt>
      <trkpt lat="45.93022" lon="4.76422">
        <ele>169</ele>
        <time>2017-06-24T10:34:12Z</time>
      </trkpt>
      <trkpt lat="45.93017" lon="4.76417">
        <ele>169</ele>
        <time>2017-06-24T10:34:13Z</time>
      </trkpt>
      <trkpt lat="45.93013" lon="4.76413">
        <ele>169</ele>
        <time>2017-06-24T10:34:14Z</time>
      </trkpt>
      <trkpt lat="45.93009" lon="4.76409">
        <ele>169</ele>
        <time>2017-06-24T10:34:15Z</time>
      </trkpt>
      <trkpt lat="45.93005" lon="4.76406">
        <ele>169</ele>
        <time>2017-06-24T10:34:16Z</time>
      </trkpt>
      <trkpt lat="45.93" lon="4.76402">
        <ele>169</ele>
        <time>2017-06-24T10:34:17Z</time>
      </trkpt>
      <trkpt lat="45.92996" lon="4.76398">
        <ele>169</ele>
        <time>2017-06-24T10:34:18Z</time>
      </trkpt>
      <trkpt lat="45.92992" lon="4.76393">
        <ele>169</ele>
        <time>2017-06-24T10:34:19Z</time>
      </trkpt>
      <trkpt lat="45.92989" lon="4.76389">
        <ele>169</ele>
        <time>2017-06-24T10:34:20Z</time>
      </trkpt>
      <trkpt lat="45.92985" lon="4.76384">
        <ele>169</ele>
        <time>2017-06-24T10:34:21Z</time>
      </trkpt>
      <trkpt lat="45.92981" lon="4.7638">
        <ele>169</ele>
        <time>2017-06-24T10:34:22Z</time>
      </trkpt>
      <trkpt lat="45.92976" lon="4.76375">
        <ele>169</ele>
        <time>2017-06-24T10:34:23Z</time>
      </trkpt>
      <trkpt lat="45.9297" lon="4.76371">
        <ele>169</ele>
        <time>2017-06-24T10:34:24Z</time>
      </trkpt>
      <trkpt lat="45.92964" lon="4.76366">
        <ele>169</ele>
        <time>2017-06-24T10:34:25Z</time>
      </trkpt>
      <trkpt lat="45.92959" lon="4.76361">
        <ele>169</ele>
        <time>2017-06-24T10:34:26Z</time>
      </trkpt>
      <trkpt lat="45.92955" lon="4.76356">
        <ele>169</ele>
        <time>2017-06-24T10:34:27Z</time>
      </trkpt>
      <trkpt lat="45.92949" lon="4.76351">
        <ele>169</ele>
        <time>2017-06-24T10:34:28Z</time>
      </trkpt>
      <trkpt lat="45.92945" lon="4.76346">
        <ele>169</ele>
        <time>2017-06-24T10:34:29Z</time>
      </trkpt>
      <trkpt lat="45.92941" lon="4.76342">
        <ele>169</ele>
        <time>2017-06-24T10:34:30Z</time>
      </trkpt>
      <trkpt lat="45.92937" lon="4.76337">
        <ele>169</ele>
        <time>2017-06-24T10:34:31Z</time>
      </trkpt>
      <trkpt lat="45.92933" lon="4.76333">
        <ele>169</ele>
        <time>2017-06-24T10:34:32Z</time>
      </trkpt>
      <trkpt lat="45.92929" lon="4.76329">
        <ele>169</ele>
        <time>2017-06-24T10:34:33Z</time>
      </trkpt>
      <trkpt lat="45.92925" lon="4.76325">
        <ele>169</ele>
        <time>2017-06-24T10:34:34Z</time>
      </trkpt>
      <trkpt lat="45.92921" lon="4.76321">
        <ele>169</ele>
        <time>2017-06-24T10:34:35Z</time>
      </trkpt>
      <trkpt lat="45.92917" lon="4.76317">
        <ele>169</ele>
        <time>2017-06-24T10:34:36Z</time>
      </trkpt>
      <trkpt lat="45.92913" lon="4.76313">
        <ele>169</ele>
        <time>2017-06-24T10:34:37Z</time>
      </trkpt>
      <trkpt lat="45.92909" lon="4.76308">
        <ele>169</ele>
        <time>2017-06-24T10:34:38Z</time>
      </trkpt>
      <trkpt lat="45.92905" lon="4.76304">
        <ele>169</ele>
        <time>2017-06-24T10:34:39Z</time>
      </trkpt>
      <trkpt lat="45.92899" lon="4.763">
        <ele>169</ele>
        <time>2017-06-24T10:34:40Z</time>
      </trkpt>
      <trkpt lat="45.92894" lon="4.76296">
        <ele>169</ele>
        <time>2017-06-24T10:34:41Z</time>
      </trkpt>
      <trkpt lat="45.92889" lon="4.76292">
        <ele>169</ele>
        <time>2017-06-24T10:34:42Z</time>
      </trkpt>
      <trkpt lat="45.92883" lon="4.76287">
        <ele>169</ele>
        <time>2017-06-24T10:34:43Z</time>
      </trkpt>
      <trkpt lat="45.92879" lon="4.76282">
        <ele>169</ele>
        <time>2017-06-24T10:34:44Z</time>
      </trkpt>
      <trkpt lat="45.92873" lon="4.76277">
        <ele>169</ele>
        <time>2017-06-24T10:34:45Z</time>
      </trkpt>
      <trkpt lat="45.92869" lon="4.76273">
        <ele>169</ele>
        <time>2017-06-24T10:34:46Z</time>
      </trkpt>
      <trkpt lat="45.92865" lon="4.76268">
        <ele>169</ele>
        <time>2017-06-24T10:34:47Z</time>
      </trkpt>
      <trkpt lat="45.9286" lon="4.76263">
        <ele>169</ele>
        <time>2017-06-24T10:34:48Z</time>
      </trkpt>
      <trkpt lat="45.92856" lon="4.76259">
        <ele>169</ele>
        <time>2017-06-24T10:34:49Z</time>
      </trkpt>
      <trkpt lat="45.92851" lon="4.76255">
        <ele>169</ele>
        <time>2017-06-24T10:34:50Z</time>
      </trkpt>
      <trkpt lat="45.92848" lon="4.76251">
        <ele>169</ele>
        <time>2017-06-24T10:34:51Z</time>
      </trkpt>
      <trkpt lat="45.92844" lon="4.76246">
        <ele>169</ele>
        <time>2017-06-24T10:34:52Z</time>
      </trkpt>
      <trkpt lat="45.92838" lon="4.76241">
        <ele>169</ele>
        <time>2017-06-24T10:34:53Z</time>
      </trkpt>
      <trkpt lat="45.92833" lon="4.76236">
        <ele>168</ele>
        <time>2017-06-24T10:34:54Z</time>
      </trkpt>
      <trkpt lat="45.92828" lon="4.76231">
        <ele>168</ele>
        <time>2017-06-24T10:34:55Z</time>
      </trkpt>
      <trkpt lat="45.92823" lon="4.76226">
        <ele>168</ele>
        <time>2017-06-24T10:34:56Z</time>
      </trkpt>
      <trkpt lat="45.92818" lon="4.76221">
        <ele>168</ele>
        <time>2017-06-24T10:34:57Z</time>
      </trkpt>
      <trkpt lat="45.92813" lon="4.76216">
        <ele>168</ele>
        <time>2017-06-24T10:34:58Z</time>
      </trkpt>
      <trkpt lat="45.92809" lon="4.76211">
        <ele>168</ele>
        <time>2017-06-24T10:34:59Z</time>
      </trkpt>
      <trkpt lat="45.92805" lon="4.76206">
        <ele>168</ele>
        <time>2017-06-24T10:35:00Z</time>
      </trkpt>
      <trkpt lat="45.92801" lon="4.76202">
        <ele>168</ele>
        <time>2017-06-24T10:35:01Z</time>
      </trkpt>
      <trkpt lat="45.92797" lon="4.76197">
        <ele>168</ele>
        <time>2017-06-24T10:35:02Z</time>
      </trkpt>
      <trkpt lat="45.92793" lon="4.76193">
        <ele>168</ele>
        <time>2017-06-24T10:35:03Z</time>
      </trkpt>
      <trkpt lat="45.92788" lon="4.76188">
        <ele>168</ele>
        <time>2017-06-24T10:35:04Z</time>
      </trkpt>
      <trkpt lat="45.92784" lon="4.76184">
        <ele>168</ele>
        <time>2017-06-24T10:35:05Z</time>
      </trkpt>
      <trkpt lat="45.9278" lon="4.7618">
        <ele>167</ele>
        <time>2017-06-24T10:35:06Z</time>
      </trkpt>
      <trkpt lat="45.92776" lon="4.76176">
        <ele>167</ele>
        <time>2017-06-24T10:35:07Z</time>
      </trkpt>
      <trkpt lat="45.92772" lon="4.76172">
        <ele>167</ele>
        <time>2017-06-24T10:35:08Z</time>
      </trkpt>
      <trkpt lat="45.92767" lon="4.76168">
        <ele>167</ele>
        <time>2017-06-24T10:35:09Z</time>
      </trkpt>
      <trkpt lat="45.92762" lon="4.76164">
        <ele>167</ele>
        <time>2017-06-24T10:35:10Z</time>
      </trkpt>
      <trkpt lat="45.92757" lon="4.76159">
        <ele>167</ele>
        <time>2017-06-24T10:35:11Z</time>
      </trkpt>
      <trkpt lat="45.92752" lon="4.76155">
        <ele>167</ele>
        <time>2017-06-24T10:35:12Z</time>
      </trkpt>
      <trkpt lat="45.92748" lon="4.76152">
        <ele>168</ele>
        <time>2017-06-24T10:35:13Z</time>
      </trkpt>
      <trkpt lat="45.92743" lon="4.76148">
        <ele>168</ele>
        <time>2017-06-24T10:35:14Z</time>
      </trkpt>
      <trkpt lat="45.92738" lon="4.76145">
        <ele>168</ele>
        <time>2017-06-24T10:35:15Z</time>
      </trkpt>
      <trkpt lat="45.92733" lon="4.76141">
        <ele>168</ele>
        <time>2017-06-24T10:35:16Z</time>
      </trkpt>
      <trkpt lat="45.92728" lon="4.76137">
        <ele>168</ele>
        <time>2017-06-24T10:35:17Z</time>
      </trkpt>
      <trkpt lat="45.92722" lon="4.76133">
        <ele>168</ele>
        <time>2017-06-24T10:35:18Z</time>
      </trkpt>
      <trkpt lat="45.92716" lon="4.76129">
        <ele>168</ele>
        <time>2017-06-24T10:35:19Z</time>
      </trkpt>
      <trkpt lat="45.92711" lon="4.76125">
        <ele>168</ele>
        <time>2017-06-24T10:35:20Z</time>
      </trkpt>
      <trkpt lat="45.92705" lon="4.76121">
        <ele>169</ele>
        <time>2017-06-24T10:35:21Z</time>
      </trkpt>
      <trkpt lat="45.927" lon="4.76118">
        <ele>169</ele>
        <time>2017-06-24T10:35:22Z</time>
      </trkpt>
      <trkpt lat="45.92694" lon="4.76113">
        <ele>169</ele>
        <time>2017-06-24T10:35:23Z</time>
      </trkpt>
      <trkpt lat="45.92689" lon="4.76109">
        <ele>169</ele>
        <time>2017-06-24T10:35:24Z</time>
      </trkpt>
      <trkpt lat="45.92683" lon="4.76104">
        <ele>169</ele>
        <time>2017-06-24T10:35:25Z</time>
      </trkpt>
      <trkpt lat="45.92678" lon="4.761">
        <ele>169</ele>
        <time>2017-06-24T10:35:26Z</time>
      </trkpt>
      <trkpt lat="45.92673" lon="4.76095">
        <ele>169</ele>
        <time>2017-06-24T10:35:27Z</time>
      </trkpt>
      <trkpt lat="45.92667" lon="4.76091">
        <ele>170</ele>
        <time>2017-06-24T10:35:28Z</time>
      </trkpt>
      <trkpt lat="45.92662" lon="4.76086">
        <ele>170</ele>
        <time>2017-06-24T10:35:29Z</time>
      </trkpt>
      <trkpt lat="45.92657" lon="4.76082">
        <ele>170</ele>
        <time>2017-06-24T10:35:30Z</time>
      </trkpt>
      <trkpt lat="45.92651" lon="4.76078">
        <ele>170</ele>
        <time>2017-06-24T10:35:31Z</time>
      </trkpt>
      <trkpt lat="45.92646" lon="4.76075">
        <ele>170</ele>
        <time>2017-06-24T10:35:32Z</time>
      </trkpt>
      <trkpt lat="45.92641" lon="4.76071">
        <ele>170</ele>
        <time>2017-06-24T10:35:33Z</time>
      </trkpt>
      <trkpt lat="45.92635" lon="4.76067">
        <ele>170</ele>
        <time>2017-06-24T10:35:34Z</time>
      </trkpt>
      <trkpt lat="45.9263" lon="4.76063">
        <ele>170</ele>
        <time>2017-06-24T10:35:35Z</time>
      </trkpt>
      <trkpt lat="45.92625" lon="4.7606">
        <ele>170</ele>
        <time>2017-06-24T10:35:36Z</time>
      </trkpt>
      <trkpt lat="45.92621" lon="4.76056">
        <ele>171</ele>
        <time>2017-06-24T10:35:37Z</time>
      </trkpt>
      <trkpt lat="45.92616" lon="4.76053">
        <ele>171</ele>
        <time>2017-06-24T10:35:38Z</time>
      </trkpt>
      <trkpt lat="45.92611" lon="4.7605">
        <ele>171</ele>
        <time>2017-06-24T10:35:39Z</time>
      </trkpt>
      <trkpt lat="45.92607" lon="4.76047">
        <ele>171</ele>
        <time>2017-06-24T10:35:40Z</time>
      </trkpt>
      <trkpt lat="45.92603" lon="4.76043">
        <ele>171</ele>
        <time>2017-06-24T10:35:41Z</time>
      </trkpt>
      <trkpt lat="45.92598" lon="4.7604">
        <ele>171</ele>
        <time>2017-06-24T10:35:42Z</time>
      </trkpt>
      <trkpt lat="45.92593" lon="4.76037">
        <ele>171</ele>
        <time>2017-06-24T10:35:43Z</time>
      </trkpt>
      <trkpt lat="45.92588" lon="4.76034">
        <ele>171</ele>
        <time>2017-06-24T10:35:44Z</time>
      </trkpt>
      <trkpt lat="45.92584" lon="4.76031">
        <ele>171</ele>
        <time>2017-06-24T10:35:45Z</time>
      </trkpt>
      <trkpt lat="45.92579" lon="4.76027">
        <ele>172</ele>
        <time>2017-06-24T10:35:46Z</time>
      </trkpt>
      <trkpt lat="45.92574" lon="4.76024">
        <ele>172</ele>
        <time>2017-06-24T10:35:47Z</time>
      </trkpt>
      <trkpt lat="45.9257" lon="4.76021">
        <ele>172</ele>
        <time>2017-06-24T10:35:48Z</time>
      </trkpt>
      <trkpt lat="45.92566" lon="4.76018">
        <ele>172</ele>
        <time>2017-06-24T10:35:49Z</time>
      </trkpt>
      <trkpt lat="45.92562" lon="4.76015">
        <ele>172</ele>
        <time>2017-06-24T10:35:50Z</time>
      </trkpt>
      <trkpt lat="45.92554" lon="4.7601">
        <ele>172</ele>
        <time>2017-06-24T10:35:52Z</time>
      </trkpt>
      <trkpt lat="45.9255" lon="4.76007">
        <ele>172</ele>
        <time>2017-06-24T10:35:53Z</time>
      </trkpt>
      <trkpt lat="45.92543" lon="4.76003">
        <ele>172</ele>
        <time>2017-06-24T10:35:55Z</time>
      </trkpt>
      <trkpt lat="45.9254" lon="4.76001">
        <ele>172</ele>
        <time>2017-06-24T10:35:56Z</time>
      </trkpt>
      <trkpt lat="45.92532" lon="4.75996">
        <ele>172</ele>
        <time>2017-06-24T10:35:58Z</time>
      </trkpt>
      <trkpt lat="45.92528" lon="4.75993">
        <ele>172</ele>
        <time>2017-06-24T10:35:59Z</time>
      </trkpt>
      <trkpt lat="45.92521" lon="4.75988">
        <ele>172</ele>
        <time>2017-06-24T10:36:01Z</time>
      </trkpt>
      <trkpt lat="45.92517" lon="4.75985">
        <ele>172</ele>
        <time>2017-06-24T10:36:02Z</time>
      </trkpt>
      <trkpt lat="45.9251" lon="4.7598">
        <ele>172</ele>
        <time>2017-06-24T10:36:04Z</time>
      </trkpt>
      <trkpt lat="45.92506" lon="4.75977">
        <ele>172</ele>
        <time>2017-06-24T10:36:05Z</time>
      </trkpt>
      <trkpt lat="45.92498" lon="4.75972">
        <ele>172</ele>
        <time>2017-06-24T10:36:07Z</time>
      </trkpt>
      <trkpt lat="45.92494" lon="4.75969">
        <ele>172</ele>
        <time>2017-06-24T10:36:08Z</time>
      </trkpt>
      <trkpt lat="45.9249" lon="4.75966">
        <ele>172</ele>
        <time>2017-06-24T10:36:09Z</time>
      </trkpt>
      <trkpt lat="45.92485" lon="4.75963">
        <ele>172</ele>
        <time>2017-06-24T10:36:10Z</time>
      </trkpt>
      <trkpt lat="45.92481" lon="4.75961">
        <ele>172</ele>
        <time>2017-06-24T10:36:11Z</time>
      </trkpt>
      <trkpt lat="45.92477" lon="4.75957">
        <ele>172</ele>
        <time>2017-06-24T10:36:12Z</time>
      </trkpt>
      <trkpt lat="45.92473" lon="4.75954">
        <ele>172</ele>
        <time>2017-06-24T10:36:13Z</time>
      </trkpt>
      <trkpt lat="45.92468" lon="4.75951">
        <ele>172</ele>
        <time>2017-06-24T10:36:14Z</time>
      </trkpt>
      <trkpt lat="45.92464" lon="4.75948">
        <ele>172</ele>
        <time>2017-06-24T10:36:15Z</time>
      </trkpt>
      <trkpt lat="45.92459" lon="4.75945">
        <ele>172</ele>
        <time>2017-06-24T10:36:16Z</time>
      </trkpt>
      <trkpt lat="45.92454" lon="4.75941">
        <ele>172</ele>
        <time>2017-06-24T10:36:17Z</time>
      </trkpt>
      <trkpt lat="45.92449" lon="4.75938">
        <ele>172</ele>
        <time>2017-06-24T10:36:18Z</time>
      </trkpt>
      <trkpt lat="45.92444" lon="4.75934">
        <ele>172</ele>
        <time>2017-06-24T10:36:19Z</time>
      </trkpt>
      <trkpt lat="45.92439" lon="4.75931">
        <ele>172</ele>
        <time>2017-06-24T10:36:20Z</time>
      </trkpt>
      <trkpt lat="45.92433" lon="4.75927">
        <ele>172</ele>
        <time>2017-06-24T10:36:21Z</time>
      </trkpt>
      <trkpt lat="45.92428" lon="4.75923">
        <ele>172</ele>
        <time>2017-06-24T10:36:22Z</time>
      </trkpt>
      <trkpt lat="45.92422" lon="4.75919">
        <ele>172</ele>
        <time>2017-06-24T10:36:23Z</time>
      </trkpt>
      <trkpt lat="45.92416" lon="4.75915">
        <ele>172</ele>
        <time>2017-06-24T10:36:24Z</time>
      </trkpt>
      <trkpt lat="45.9241" lon="4.75911">
        <ele>172</ele>
        <time>2017-06-24T10:36:25Z</time>
      </trkpt>
      <trkpt lat="45.92405" lon="4.75907">
        <ele>172</ele>
        <time>2017-06-24T10:36:26Z</time>
      </trkpt>
      <trkpt lat="45.92399" lon="4.75903">
        <ele>173</ele>
        <time>2017-06-24T10:36:27Z</time>
      </trkpt>
      <trkpt lat="45.92393" lon="4.75899">
        <ele>173</ele>
        <time>2017-06-24T10:36:28Z</time>
      </trkpt>
      <trkpt lat="45.92388" lon="4.75894">
        <ele>173</ele>
        <time>2017-06-24T10:36:29Z</time>
      </trkpt>
      <trkpt lat="45.92382" lon="4.7589">
        <ele>173</ele>
        <time>2017-06-24T10:36:30Z</time>
      </trkpt>
      <trkpt lat="45.92376" lon="4.75886">
        <ele>173</ele>
        <time>2017-06-24T10:36:31Z</time>
      </trkpt>
      <trkpt lat="45.92371" lon="4.75882">
        <ele>173</ele>
        <time>2017-06-24T10:36:32Z</time>
      </trkpt>
      <trkpt lat="45.92366" lon="4.75878">
        <ele>173</ele>
        <time>2017-06-24T10:36:33Z</time>
      </trkpt>
      <trkpt lat="45.9236" lon="4.75875">
        <ele>173</ele>
        <time>2017-06-24T10:36:34Z</time>
      </trkpt>
      <trkpt lat="45.92355" lon="4.75872">
        <ele>173</ele>
        <time>2017-06-24T10:36:35Z</time>
      </trkpt>
      <trkpt lat="45.9235" lon="4.75869">
        <ele>173</ele>
        <time>2017-06-24T10:36:36Z</time>
      </trkpt>
      <trkpt lat="45.92346" lon="4.75865">
        <ele>173</ele>
        <time>2017-06-24T10:36:37Z</time>
      </trkpt>
      <trkpt lat="45.92341" lon="4.75862">
        <ele>173</ele>
        <time>2017-06-24T10:36:38Z</time>
      </trkpt>
      <trkpt lat="45.92336" lon="4.75859">
        <ele>173</ele>
        <time>2017-06-24T10:36:39Z</time>
      </trkpt>
      <trkpt lat="45.92331" lon="4.75856">
        <ele>174</ele>
        <time>2017-06-24T10:36:40Z</time>
      </trkpt>
      <trkpt lat="45.92326" lon="4.75853">
        <ele>174</ele>
        <time>2017-06-24T10:36:41Z</time>
      </trkpt>
      <trkpt lat="45.92321" lon="4.7585">
        <ele>174</ele>
        <time>2017-06-24T10:36:42Z</time>
      </trkpt>
      <trkpt lat="45.92315" lon="4.75847">
        <ele>174</ele>
        <time>2017-06-24T10:36:43Z</time>
      </trkpt>
      <trkpt lat="45.9231" lon="4.75843">
        <ele>173</ele>
        <time>2017-06-24T10:36:44Z</time>
      </trkpt>
      <trkpt lat="45.92304" lon="4.7584">
        <ele>173</ele>
        <time>2017-06-24T10:36:45Z</time>
      </trkpt>
      <trkpt lat="45.92299" lon="4.75837">
        <ele>173</ele>
        <time>2017-06-24T10:36:46Z</time>
      </trkpt>
      <trkpt lat="45.92293" lon="4.75834">
        <ele>173</ele>
        <time>2017-06-24T10:36:47Z</time>
      </trkpt>
      <trkpt lat="45.92287" lon="4.75831">
        <ele>174</ele>
        <time>2017-06-24T10:36:48Z</time>
      </trkpt>
      <trkpt lat="45.92281" lon="4.75826">
        <ele>174</ele>
        <time>2017-06-24T10:36:49Z</time>
      </trkpt>
      <trkpt lat="45.92276" lon="4.7582">
        <ele>174</ele>
        <time>2017-06-24T10:36:50Z</time>
      </trkpt>
      <trkpt lat="45.92272" lon="4.75814">
        <ele>174</ele>
        <time>2017-06-24T10:36:51Z</time>
      </trkpt>
      <trkpt lat="45.92268" lon="4.75807">
        <ele>174</ele>
        <time>2017-06-24T10:36:52Z</time>
      </trkpt>
      <trkpt lat="45.92265" lon="4.75801">
        <ele>174</ele>
        <time>2017-06-24T10:36:53Z</time>
      </trkpt>
      <trkpt lat="45.92263" lon="4.75794">
        <ele>174</ele>
        <time>2017-06-24T10:36:54Z</time>
      </trkpt>
      <trkpt lat="45.92261" lon="4.75787">
        <ele>174</ele>
        <time>2017-06-24T10:36:55Z</time>
      </trkpt>
      <trkpt lat="45.9226" lon="4.7578">
        <ele>174</ele>
        <time>2017-06-24T10:36:56Z</time>
      </trkpt>
      <trkpt lat="45.92259" lon="4.75774">
        <ele>174</ele>
        <time>2017-06-24T10:36:57Z</time>
      </trkpt>
      <trkpt lat="45.92258" lon="4.75767">
        <ele>174</ele>
        <time>2017-06-24T10:36:58Z</time>
      </trkpt>
      <trkpt lat="45.92256" lon="4.75755">
        <ele>174</ele>
        <time>2017-06-24T10:37:00Z</time>
      </trkpt>
      <trkpt lat="45.92255" lon="4.75748">
        <ele>174</ele>
        <time>2017-06-24T10:37:01Z</time>
      </trkpt>
      <trkpt lat="45.92253" lon="4.75742">
        <ele>174</ele>
        <time>2017-06-24T10:37:02Z</time>
      </trkpt>
      <trkpt lat="45.92252" lon="4.75734">
        <ele>174</ele>
        <time>2017-06-24T10:37:03Z</time>
      </trkpt>
      <trkpt lat="45.9225" lon="4.75727">
        <ele>174</ele>
        <time>2017-06-24T10:37:04Z</time>
      </trkpt>
      <trkpt lat="45.92248" lon="4.7572">
        <ele>174</ele>
        <time>2017-06-24T10:37:05Z</time>
      </trkpt>
      <trkpt lat="45.92245" lon="4.75714">
        <ele>174</ele>
        <time>2017-06-24T10:37:06Z</time>
      </trkpt>
      <trkpt lat="45.92242" lon="4.75708">
        <ele>174</ele>
        <time>2017-06-24T10:37:07Z</time>
      </trkpt>
      <trkpt lat="45.92239" lon="4.75702">
        <ele>174</ele>
        <time>2017-06-24T10:37:08Z</time>
      </trkpt>
      <trkpt lat="45.92236" lon="4.75697">
        <ele>174</ele>
        <time>2017-06-24T10:37:09Z</time>
      </trkpt>
      <trkpt lat="45.92232" lon="4.75693">
        <ele>174</ele>
        <time>2017-06-24T10:37:10Z</time>
      </trkpt>
      <trkpt lat="45.92227" lon="4.75688">
        <ele>174</ele>
        <time>2017-06-24T10:37:11Z</time>
      </trkpt>
      <trkpt lat="45.92223" lon="4.75684">
        <ele>174</ele>
        <time>2017-06-24T10:37:12Z</time>
      </trkpt>
      <trkpt lat="45.92218" lon="4.75679">
        <ele>174</ele>
        <time>2017-06-24T10:37:13Z</time>
      </trkpt>
      <trkpt lat="45.92213" lon="4.75674">
        <ele>174</ele>
        <time>2017-06-24T10:37:14Z</time>
      </trkpt>
      <trkpt lat="45.92208" lon="4.7567">
        <ele>174</ele>
        <time>2017-06-24T10:37:15Z</time>
      </trkpt>
      <trkpt lat="45.92203" lon="4.75665">
        <ele>174</ele>
        <time>2017-06-24T10:37:16Z</time>
      </trkpt>
      <trkpt lat="45.92198" lon="4.75661">
        <ele>174</ele>
        <time>2017-06-24T10:37:17Z</time>
      </trkpt>
      <trkpt lat="45.92194" lon="4.75656">
        <ele>174</ele>
        <time>2017-06-24T10:37:18Z</time>
      </trkpt>
      <trkpt lat="45.92189" lon="4.75652">
        <ele>174</ele>
        <time>2017-06-24T10:37:19Z</time>
      </trkpt>
      <trkpt lat="45.92185" lon="4.75647">
        <ele>174</ele>
        <time>2017-06-24T10:37:20Z</time>
      </trkpt>
      <trkpt lat="45.9218" lon="4.75642">
        <ele>174</ele>
        <time>2017-06-24T10:37:21Z</time>
      </trkpt>
      <trkpt lat="45.92175" lon="4.75638">
        <ele>174</ele>
        <time>2017-06-24T10:37:22Z</time>
      </trkpt>
      <trkpt lat="45.92171" lon="4.75634">
        <ele>174</ele>
        <time>2017-06-24T10:37:23Z</time>
      </trkpt>
      <trkpt lat="45.92166" lon="4.75629">
        <ele>174</ele>
        <time>2017-06-24T10:37:24Z</time>
      </trkpt>
      <trkpt lat="45.92161" lon="4.75625">
        <ele>174</ele>
        <time>2017-06-24T10:37:25Z</time>
      </trkpt>
      <trkpt lat="45.92157" lon="4.7562">
        <ele>174</ele>
        <time>2017-06-24T10:37:26Z</time>
      </trkpt>
      <trkpt lat="45.92152" lon="4.75616">
        <ele>174</ele>
        <time>2017-06-24T10:37:27Z</time>
      </trkpt>
      <trkpt lat="45.92148" lon="4.75612">
        <ele>174</ele>
        <time>2017-06-24T10:37:28Z</time>
      </trkpt>
      <trkpt lat="45.92143" lon="4.75608">
        <ele>174</ele>
        <time>2017-06-24T10:37:29Z</time>
      </trkpt>
      <trkpt lat="45.92139" lon="4.75604">
        <ele>174</ele>
        <time>2017-06-24T10:37:30Z</time>
      </trkpt>
      <trkpt lat="45.92136" lon="4.75599">
        <ele>174</ele>
        <time>2017-06-24T10:37:31Z</time>
      </trkpt>
      <trkpt lat="45.92128" lon="4.75592">
        <ele>174</ele>
        <time>2017-06-24T10:37:33Z</time>
      </trkpt>
      <trkpt lat="45.92125" lon="4.75588">
        <ele>174</ele>
        <time>2017-06-24T10:37:34Z</time>
      </trkpt>
      <trkpt lat="45.9212" lon="4.7558">
        <ele>174</ele>
        <time>2017-06-24T10:37:36Z</time>
      </trkpt>
      <trkpt lat="45.92118" lon="4.75577">
        <ele>174</ele>
        <time>2017-06-24T10:37:37Z</time>
      </trkpt>
      <trkpt lat="45.92117" lon="4.75567">
        <ele>174</ele>
        <time>2017-06-24T10:37:41Z</time>
      </trkpt>
      <trkpt lat="45.92117" lon="4.75563">
        <ele>174</ele>
        <time>2017-06-24T10:37:42Z</time>
      </trkpt>
      <trkpt lat="45.92118" lon="4.75555">
        <ele>174</ele>
        <time>2017-06-24T10:37:44Z</time>
      </trkpt>
      <trkpt lat="45.92121" lon="4.75551">
        <ele>174</ele>
        <time>2017-06-24T10:37:45Z</time>
      </trkpt>
      <trkpt lat="45.92124" lon="4.75547">
        <ele>174</ele>
        <time>2017-06-24T10:37:46Z</time>
      </trkpt>
      <trkpt lat="45.92127" lon="4.75542">
        <ele>174</ele>
        <time>2017-06-24T10:37:47Z</time>
      </trkpt>
      <trkpt lat="45.92131" lon="4.75536">
        <ele>174</ele>
        <time>2017-06-24T10:37:48Z</time>
      </trkpt>
      <trkpt lat="45.92134" lon="4.7553">
        <ele>174</ele>
        <time>2017-06-24T10:37:49Z</time>
      </trkpt>
      <trkpt lat="45.92137" lon="4.75524">
        <ele>174</ele>
        <time>2017-06-24T10:37:50Z</time>
      </trkpt>
      <trkpt lat="45.92141" lon="4.75517">
        <ele>174</ele>
        <time>2017-06-24T10:37:51Z</time>
      </trkpt>
      <trkpt lat="45.92144" lon="4.75512">
        <ele>174</ele>
        <time>2017-06-24T10:37:52Z</time>
      </trkpt>
      <trkpt lat="45.92148" lon="4.75506">
        <ele>175</ele>
        <time>2017-06-24T10:37:53Z</time>
      </trkpt>
      <trkpt lat="45.9215" lon="4.75499">
        <ele>175</ele>
        <time>2017-06-24T10:37:54Z</time>
      </trkpt>
      <trkpt lat="45.92153" lon="4.75493">
        <ele>175</ele>
        <time>2017-06-24T10:37:55Z</time>
      </trkpt>
      <trkpt lat="45.92156" lon="4.75487">
        <ele>176</ele>
        <time>2017-06-24T10:37:56Z</time>
      </trkpt>
      <trkpt lat="45.92158" lon="4.75481">
        <ele>176</ele>
        <time>2017-06-24T10:37:57Z</time>
      </trkpt>
      <trkpt lat="45.92161" lon="4.75474">
        <ele>176</ele>
        <time>2017-06-24T10:37:58Z</time>
      </trkpt>
      <trkpt lat="45.92164" lon="4.75467">
        <ele>176</ele>
        <time>2017-06-24T10:37:59Z</time>
      </trkpt>
      <trkpt lat="45.92167" lon="4.7546">
        <ele>176</ele>
        <time>2017-06-24T10:38:00Z</time>
      </trkpt>
      <trkpt lat="45.92169" lon="4.75453">
        <ele>176</ele>
        <time>2017-06-24T10:38:01Z</time>
      </trkpt>
      <trkpt lat="45.92172" lon="4.75447">
        <ele>176</ele>
        <time>2017-06-24T10:38:02Z</time>
      </trkpt>
      <trkpt lat="45.92174" lon="4.75441">
        <ele>177</ele>
        <time>2017-06-24T10:38:03Z</time>
      </trkpt>
      <trkpt lat="45.92177" lon="4.75435">
        <ele>177</ele>
        <time>2017-06-24T10:38:04Z</time>
      </trkpt>
      <trkpt lat="45.92179" lon="4.7543">
        <ele>177</ele>
        <time>2017-06-24T10:38:05Z</time>
      </trkpt>
      <trkpt lat="45.92182" lon="4.75424">
        <ele>177</ele>
        <time>2017-06-24T10:38:06Z</time>
      </trkpt>
      <trkpt lat="45.92184" lon="4.75417">
        <ele>177</ele>
        <time>2017-06-24T10:38:07Z</time>
      </trkpt>
      <trkpt lat="45.92186" lon="4.75411">
        <ele>177</ele>
        <time>2017-06-24T10:38:08Z</time>
      </trkpt>
      <trkpt lat="45.92189" lon="4.75404">
        <ele>177</ele>
        <time>2017-06-24T10:38:09Z</time>
      </trkpt>
      <trkpt lat="45.92192" lon="4.75397">
        <ele>177</ele>
        <time>2017-06-24T10:38:10Z</time>
      </trkpt>
      <trkpt lat="45.92195" lon="4.7539">
        <ele>177</ele>
        <time>2017-06-24T10:38:11Z</time>
      </trkpt>
      <trkpt lat="45.92197" lon="4.75382">
        <ele>177</ele>
        <time>2017-06-24T10:38:12Z</time>
      </trkpt>
      <trkpt lat="45.92199" lon="4.75376">
        <ele>177</ele>
        <time>2017-06-24T10:38:13Z</time>
      </trkpt>
      <trkpt lat="45.92202" lon="4.75368">
        <ele>177</ele>
        <time>2017-06-24T10:38:14Z</time>
      </trkpt>
      <trkpt lat="45.92205" lon="4.75361">
        <ele>177</ele>
        <time>2017-06-24T10:38:15Z</time>
      </trkpt>
      <trkpt lat="45.92208" lon="4.75354">
        <ele>177</ele>
        <time>2017-06-24T10:38:16Z</time>
      </trkpt>
      <trkpt lat="45.9221" lon="4.75346">
        <ele>177</ele>
        <time>2017-06-24T10:38:17Z</time>
      </trkpt>
      <trkpt lat="45.92211" lon="4.75338">
        <ele>177</ele>
        <time>2017-06-24T10:38:18Z</time>
      </trkpt>
      <trkpt lat="45.92213" lon="4.75329">
        <ele>176</ele>
        <time>2017-06-24T10:38:19Z</time>
      </trkpt>
      <trkpt lat="45.92214" lon="4.7532">
        <ele>176</ele>
        <time>2017-06-24T10:38:20Z</time>
      </trkpt>
      <trkpt lat="45.92214" lon="4.75311">
        <ele>176</ele>
        <time>2017-06-24T10:38:21Z</time>
      </trkpt>
      <trkpt lat="45.92215" lon="4.75302">
        <ele>176</ele>
        <time>2017-06-24T10:38:22Z</time>
      </trkpt>
      <trkpt lat="45.92216" lon="4.75293">
        <ele>176</ele>
        <time>2017-06-24T10:38:23Z</time>
      </trkpt>
      <trkpt lat="45.92216" lon="4.75284">
        <ele>176</ele>
        <time>2017-06-24T10:38:24Z</time>
      </trkpt>
      <trkpt lat="45.92216" lon="4.75275">
        <ele>176</ele>
        <time>2017-06-24T10:38:25Z</time>
      </trkpt>
      <trkpt lat="45.92216" lon="4.75266">
        <ele>176</ele>
        <time>2017-06-24T10:38:26Z</time>
      </trkpt>
      <trkpt lat="45.92216" lon="4.75256">
        <ele>175</ele>
        <time>2017-06-24T10:38:27Z</time>
      </trkpt>
      <trkpt lat="45.92217" lon="4.75247">
        <ele>175</ele>
        <time>2017-06-24T10:38:28Z</time>
      </trkpt>
      <trkpt lat="45.92218" lon="4.75237">
        <ele>175</ele>
        <time>2017-06-24T10:38:29Z</time>
      </trkpt>
      <trkpt lat="45.92219" lon="4.75228">
        <ele>175</ele>
        <time>2017-06-24T10:38:30Z</time>
      </trkpt>
      <trkpt lat="45.92219" lon="4.75218">
        <ele>175</ele>
        <time>2017-06-24T10:38:31Z</time>
      </trkpt>
      <trkpt lat="45.9222" lon="4.75208">
        <ele>175</ele>
        <time>2017-06-24T10:38:32Z</time>
      </trkpt>
      <trkpt lat="45.92221" lon="4.75199">
        <ele>175</ele>
        <time>2017-06-24T10:38:33Z</time>
      </trkpt>
      <trkpt lat="45.92223" lon="4.75189">
        <ele>175</ele>
        <time>2017-06-24T10:38:34Z</time>
      </trkpt>
      <trkpt lat="45.92224" lon="4.7518">
        <ele>175</ele>
        <time>2017-06-24T10:38:35Z</time>
      </trkpt>
      <trkpt lat="45.92227" lon="4.75171">
        <ele>175</ele>
        <time>2017-06-24T10:38:36Z</time>
      </trkpt>
      <trkpt lat="45.92231" lon="4.75162">
        <ele>174</ele>
        <time>2017-06-24T10:38:37Z</time>
      </trkpt>
      <trkpt lat="45.92234" lon="4.75155">
        <ele>174</ele>
        <time>2017-06-24T10:38:38Z</time>
      </trkpt>
      <trkpt lat="45.92238" lon="4.75148">
        <ele>174</ele>
        <time>2017-06-24T10:38:39Z</time>
      </trkpt>
      <trkpt lat="45.92241" lon="4.75141">
        <ele>174</ele>
        <time>2017-06-24T10:38:40Z</time>
      </trkpt>
      <trkpt lat="45.92245" lon="4.75135">
        <ele>174</ele>
        <time>2017-06-24T10:38:41Z</time>
      </trkpt>
      <trkpt lat="45.9225" lon="4.75129">
        <ele>174</ele>
        <time>2017-06-24T10:38:42Z</time>
      </trkpt>
      <trkpt lat="45.92254" lon="4.75124">
        <ele>174</ele>
        <time>2017-06-24T10:38:43Z</time>
      </trkpt>
      <trkpt lat="45.92259" lon="4.75118">
        <ele>174</ele>
        <time>2017-06-24T10:38:44Z</time>
      </trkpt>
      <trkpt lat="45.92264" lon="4.75113">
        <ele>174</ele>
        <time>2017-06-24T10:38:45Z</time>
      </trkpt>
      <trkpt lat="45.92269" lon="4.75108">
        <ele>174</ele>
        <time>2017-06-24T10:38:46Z</time>
      </trkpt>
      <trkpt lat="45.92273" lon="4.75103">
        <ele>173</ele>
        <time>2017-06-24T10:38:47Z</time>
      </trkpt>
      <trkpt lat="45.92277" lon="4.75099">
        <ele>173</ele>
        <time>2017-06-24T10:38:48Z</time>
      </trkpt>
      <trkpt lat="45.92283" lon="4.75094">
        <ele>173</ele>
        <time>2017-06-24T10:38:49Z</time>
      </trkpt>
      <trkpt lat="45.92287" lon="4.7509">
        <ele>173</ele>
        <time>2017-06-24T10:38:50Z</time>
      </trkpt>
      <trkpt lat="45.92291" lon="4.75085">
        <ele>173</ele>
        <time>2017-06-24T10:38:51Z</time>
      </trkpt>
      <trkpt lat="45.92296" lon="4.7508">
        <ele>172</ele>
        <time>2017-06-24T10:38:52Z</time>
      </trkpt>
      <trkpt lat="45.92301" lon="4.75074">
        <ele>172</ele>
        <time>2017-06-24T10:38:53Z</time>
      </trkpt>
      <trkpt lat="45.92305" lon="4.75069">
        <ele>172</ele>
        <time>2017-06-24T10:38:54Z</time>
      </trkpt>
      <trkpt lat="45.9231" lon="4.75063">
        <ele>172</ele>
        <time>2017-06-24T10:38:55Z</time>
      </trkpt>
      <trkpt lat="45.92316" lon="4.75055">
        <ele>172</ele>
        <time>2017-06-24T10:38:56Z</time>
      </trkpt>
      <trkpt lat="45.9232" lon="4.75049">
        <ele>172</ele>
        <time>2017-06-24T10:38:57Z</time>
      </trkpt>
      <trkpt lat="45.92325" lon="4.75043">
        <ele>172</ele>
        <time>2017-06-24T10:38:58Z</time>
      </trkpt>
      <trkpt lat="45.92329" lon="4.75037">
        <ele>171</ele>
        <time>2017-06-24T10:38:59Z</time>
      </trkpt>
      <trkpt lat="45.92333" lon="4.75031">
        <ele>171</ele>
        <time>2017-06-24T10:39:00Z</time>
      </trkpt>
      <trkpt lat="45.92336" lon="4.75024">
        <ele>170</ele>
        <time>2017-06-24T10:39:01Z</time>
      </trkpt>
      <trkpt lat="45.9234" lon="4.75017">
        <ele>170</ele>
        <time>2017-06-24T10:39:02Z</time>
      </trkpt>
      <trkpt lat="45.92343" lon="4.75009">
        <ele>170</ele>
        <time>2017-06-24T10:39:03Z</time>
      </trkpt>
      <trkpt lat="45.92347" lon="4.75">
        <ele>170</ele>
        <time>2017-06-24T10:39:04Z</time>
      </trkpt>
      <trkpt lat="45.9235" lon="4.74991">
        <ele>170</ele>
        <time>2017-06-24T10:39:05Z</time>
      </trkpt>
      <trkpt lat="45.92354" lon="4.74983">
        <ele>170</ele>
        <time>2017-06-24T10:39:06Z</time>
      </trkpt>
      <trkpt lat="45.92357" lon="4.74974">
        <ele>170</ele>
        <time>2017-06-24T10:39:07Z</time>
      </trkpt>
      <trkpt lat="45.9236" lon="4.74966">
        <ele>170</ele>
        <time>2017-06-24T10:39:08Z</time>
      </trkpt>
      <trkpt lat="45.92363" lon="4.74957">
        <ele>170</ele>
        <time>2017-06-24T10:39:09Z</time>
      </trkpt>
      <trkpt lat="45.92366" lon="4.74949">
        <ele>170</ele>
        <time>2017-06-24T10:39:10Z</time>
      </trkpt>
      <trkpt lat="45.92369" lon="4.74942">
        <ele>170</ele>
        <time>2017-06-24T10:39:11Z</time>
      </trkpt>
      <trkpt lat="45.92371" lon="4.74934">
        <ele>170</ele>
        <time>2017-06-24T10:39:12Z</time>
      </trkpt>
      <trkpt lat="45.92374" lon="4.74927">
        <ele>170</ele>
        <time>2017-06-24T10:39:13Z</time>
      </trkpt>
      <trkpt lat="45.92377" lon="4.7492">
        <ele>170</ele>
        <time>2017-06-24T10:39:14Z</time>
      </trkpt>
      <trkpt lat="45.92379" lon="4.74914">
        <ele>171</ele>
        <time>2017-06-24T10:39:15Z</time>
      </trkpt>
      <trkpt lat="45.92382" lon="4.74908">
        <ele>171</ele>
        <time>2017-06-24T10:39:16Z</time>
      </trkpt>
      <trkpt lat="45.92385" lon="4.74901">
        <ele>171</ele>
        <time>2017-06-24T10:39:17Z</time>
      </trkpt>
      <trkpt lat="45.92387" lon="4.74894">
        <ele>171</ele>
        <time>2017-06-24T10:39:18Z</time>
      </trkpt>
      <trkpt lat="45.9239" lon="4.74886">
        <ele>171</ele>
        <time>2017-06-24T10:39:19Z</time>
      </trkpt>
      <trkpt lat="45.92393" lon="4.74879">
        <ele>171</ele>
        <time>2017-06-24T10:39:20Z</time>
      </trkpt>
      <trkpt lat="45.92395" lon="4.74872">
        <ele>171</ele>
        <time>2017-06-24T10:39:21Z</time>
      </trkpt>
      <trkpt lat="45.92398" lon="4.74865">
        <ele>171</ele>
        <time>2017-06-24T10:39:22Z</time>
      </trkpt>
      <trkpt lat="45.924" lon="4.74858">
        <ele>171</ele>
        <time>2017-06-24T10:39:23Z</time>
      </trkpt>
      <trkpt lat="45.92402" lon="4.74852">
        <ele>171</ele>
        <time>2017-06-24T10:39:24Z</time>
      </trkpt>
      <trkpt lat="45.92403" lon="4.74846">
        <ele>171</ele>
        <time>2017-06-24T10:39:25Z</time>
      </trkpt>
      <trkpt lat="45.92405" lon="4.7484">
        <ele>171</ele>
        <time>2017-06-24T10:39:26Z</time>
      </trkpt>
      <trkpt lat="45.92407" lon="4.74833">
        <ele>171</ele>
        <time>2017-06-24T10:39:27Z</time>
      </trkpt>
      <trkpt lat="45.92408" lon="4.74826">
        <ele>171</ele>
        <time>2017-06-24T10:39:28Z</time>
      </trkpt>
      <trkpt lat="45.9241" lon="4.74819">
        <ele>171</ele>
        <time>2017-06-24T10:39:29Z</time>
      </trkpt>
      <trkpt lat="45.92411" lon="4.74812">
        <ele>171</ele>
        <time>2017-06-24T10:39:30Z</time>
      </trkpt>
      <trkpt lat="45.92413" lon="4.74805">
        <ele>171</ele>
        <time>2017-06-24T10:39:31Z</time>
      </trkpt>
      <trkpt lat="45.92414" lon="4.74798">
        <ele>171</ele>
        <time>2017-06-24T10:39:32Z</time>
      </trkpt>
      <trkpt lat="45.92416" lon="4.7479">
        <ele>171</ele>
        <time>2017-06-24T10:39:33Z</time>
      </trkpt>
      <trkpt lat="45.92417" lon="4.74782">
        <ele>171</ele>
        <time>2017-06-24T10:39:34Z</time>
      </trkpt>
      <trkpt lat="45.92419" lon="4.74774">
        <ele>171</ele>
        <time>2017-06-24T10:39:35Z</time>
      </trkpt>
      <trkpt lat="45.92421" lon="4.74766">
        <ele>171</ele>
        <time>2017-06-24T10:39:36Z</time>
      </trkpt>
      <trkpt lat="45.92423" lon="4.74757">
        <ele>172</ele>
        <time>2017-06-24T10:39:37Z</time>
      </trkpt>
      <trkpt lat="45.92426" lon="4.74749">
        <ele>172</ele>
        <time>2017-06-24T10:39:38Z</time>
      </trkpt>
      <trkpt lat="45.92428" lon="4.7474">
        <ele>171</ele>
        <time>2017-06-24T10:39:39Z</time>
      </trkpt>
      <trkpt lat="45.92431" lon="4.74731">
        <ele>171</ele>
        <time>2017-06-24T10:39:40Z</time>
      </trkpt>
      <trkpt lat="45.92433" lon="4.74723">
        <ele>171</ele>
        <time>2017-06-24T10:39:41Z</time>
      </trkpt>
      <trkpt lat="45.92436" lon="4.74716">
        <ele>171</ele>
        <time>2017-06-24T10:39:42Z</time>
      </trkpt>
      <trkpt lat="45.92439" lon="4.74709">
        <ele>171</ele>
        <time>2017-06-24T10:39:43Z</time>
      </trkpt>
      <trkpt lat="45.92441" lon="4.74702">
        <ele>171</ele>
        <time>2017-06-24T10:39:44Z</time>
      </trkpt>
      <trkpt lat="45.92444" lon="4.74695">
        <ele>171</ele>
        <time>2017-06-24T10:39:45Z</time>
      </trkpt>
      <trkpt lat="45.92446" lon="4.74689">
        <ele>171</ele>
        <time>2017-06-24T10:39:46Z</time>
      </trkpt>
      <trkpt lat="45.92448" lon="4.74683">
        <ele>171</ele>
        <time>2017-06-24T10:39:47Z</time>
      </trkpt>
      <trkpt lat="45.92451" lon="4.74678">
        <ele>171</ele>
        <time>2017-06-24T10:39:48Z</time>
      </trkpt>
      <trkpt lat="45.92454" lon="4.74672">
        <ele>171</ele>
        <time>2017-06-24T10:39:49Z</time>
      </trkpt>
      <trkpt lat="45.92457" lon="4.74666">
        <ele>171</ele>
        <time>2017-06-24T10:39:50Z</time>
      </trkpt>
      <trkpt lat="45.9246" lon="4.74661">
        <ele>171</ele>
        <time>2017-06-24T10:39:51Z</time>
      </trkpt>
      <trkpt lat="45.92464" lon="4.74654">
        <ele>171</ele>
        <time>2017-06-24T10:39:52Z</time>
      </trkpt>
      <trkpt lat="45.92468" lon="4.74648">
        <ele>171</ele>
        <time>2017-06-24T10:39:53Z</time>
      </trkpt>
      <trkpt lat="45.92472" lon="4.74642">
        <ele>171</ele>
        <time>2017-06-24T10:39:54Z</time>
      </trkpt>
      <trkpt lat="45.92477" lon="4.74637">
        <ele>171</ele>
        <time>2017-06-24T10:39:55Z</time>
      </trkpt>
      <trkpt lat="45.92481" lon="4.74631">
        <ele>171</ele>
        <time>2017-06-24T10:39:56Z</time>
      </trkpt>
      <trkpt lat="45.92485" lon="4.74626">
        <ele>171</ele>
        <time>2017-06-24T10:39:57Z</time>
      </trkpt>
      <trkpt lat="45.92488" lon="4.74621">
        <ele>171</ele>
        <time>2017-06-24T10:39:58Z</time>
      </trkpt>
      <trkpt lat="45.92492" lon="4.74617">
        <ele>171</ele>
        <time>2017-06-24T10:39:59Z</time>
      </trkpt>
      <trkpt lat="45.92495" lon="4.74612">
        <ele>171</ele>
        <time>2017-06-24T10:40:00Z</time>
      </trkpt>
      <trkpt lat="45.92499" lon="4.74607">
        <ele>171</ele>
        <time>2017-06-24T10:40:01Z</time>
      </trkpt>
      <trkpt lat="45.92503" lon="4.74603">
        <ele>171</ele>
        <time>2017-06-24T10:40:02Z</time>
      </trkpt>
      <trkpt lat="45.92507" lon="4.74598">
        <ele>171</ele>
        <time>2017-06-24T10:40:03Z</time>
      </trkpt>
      <trkpt lat="45.92512" lon="4.74593">
        <ele>171</ele>
        <time>2017-06-24T10:40:04Z</time>
      </trkpt>
      <trkpt lat="45.92516" lon="4.74588">
        <ele>171</ele>
        <time>2017-06-24T10:40:05Z</time>
      </trkpt>
      <trkpt lat="45.9252" lon="4.74583">
        <ele>171</ele>
        <time>2017-06-24T10:40:06Z</time>
      </trkpt>
      <trkpt lat="45.92523" lon="4.74578">
        <ele>171</ele>
        <time>2017-06-24T10:40:07Z</time>
      </trkpt>
      <trkpt lat="45.92527" lon="4.74574">
        <ele>171</ele>
        <time>2017-06-24T10:40:08Z</time>
      </trkpt>
      <trkpt lat="45.92531" lon="4.74568">
        <ele>171</ele>
        <time>2017-06-24T10:40:09Z</time>
      </trkpt>
      <trkpt lat="45.92535" lon="4.74562">
        <ele>171</ele>
        <time>2017-06-24T10:40:10Z</time>
      </trkpt>
      <trkpt lat="45.92539" lon="4.74557">
        <ele>171</ele>
        <time>2017-06-24T10:40:11Z</time>
      </trkpt>
      <trkpt lat="45.92543" lon="4.74551">
        <ele>170</ele>
        <time>2017-06-24T10:40:12Z</time>
      </trkpt>
      <trkpt lat="45.92547" lon="4.74545">
        <ele>170</ele>
        <time>2017-06-24T10:40:13Z</time>
      </trkpt>
      <trkpt lat="45.9255" lon="4.74539">
        <ele>170</ele>
        <time>2017-06-24T10:40:14Z</time>
      </trkpt>
      <trkpt lat="45.92553" lon="4.74532">
        <ele>170</ele>
        <time>2017-06-24T10:40:15Z</time>
      </trkpt>
      <trkpt lat="45.92556" lon="4.74526">
        <ele>170</ele>
        <time>2017-06-24T10:40:16Z</time>
      </trkpt>
      <trkpt lat="45.92559" lon="4.7452">
        <ele>170</ele>
        <time>2017-06-24T10:40:17Z</time>
      </trkpt>
      <trkpt lat="45.92562" lon="4.74515">
        <ele>170</ele>
        <time>2017-06-24T10:40:18Z</time>
      </trkpt>
      <trkpt lat="45.92565" lon="4.7451">
        <ele>170</ele>
        <time>2017-06-24T10:40:19Z</time>
      </trkpt>
      <trkpt lat="45.92569" lon="4.74504">
        <ele>170</ele>
        <time>2017-06-24T10:40:20Z</time>
      </trkpt>
      <trkpt lat="45.92571" lon="4.74499">
        <ele>170</ele>
        <time>2017-06-24T10:40:21Z</time>
      </trkpt>
      <trkpt lat="45.92574" lon="4.74494">
        <ele>170</ele>
        <time>2017-06-24T10:40:22Z</time>
      </trkpt>
      <trkpt lat="45.92578" lon="4.74488">
        <ele>170</ele>
        <time>2017-06-24T10:40:23Z</time>
      </trkpt>
      <trkpt lat="45.92581" lon="4.74482">
        <ele>170</ele>
        <time>2017-06-24T10:40:24Z</time>
      </trkpt>
      <trkpt lat="45.92584" lon="4.74477">
        <ele>170</ele>
        <time>2017-06-24T10:40:25Z</time>
      </trkpt>
      <trkpt lat="45.92587" lon="4.74471">
        <ele>170</ele>
        <time>2017-06-24T10:40:26Z</time>
      </trkpt>
      <trkpt lat="45.9259" lon="4.74464">
        <ele>170</ele>
        <time>2017-06-24T10:40:27Z</time>
      </trkpt>
      <trkpt lat="45.92593" lon="4.74458">
        <ele>170</ele>
        <time>2017-06-24T10:40:28Z</time>
      </trkpt>
      <trkpt lat="45.92596" lon="4.74452">
        <ele>170</ele>
        <time>2017-06-24T10:40:29Z</time>
      </trkpt>
      <trkpt lat="45.926" lon="4.74445">
        <ele>170</ele>
        <time>2017-06-24T10:40:30Z</time>
      </trkpt>
      <trkpt lat="45.92603" lon="4.74439">
        <ele>170</ele>
        <time>2017-06-24T10:40:31Z</time>
      </trkpt>
      <trkpt lat="45.92607" lon="4.74432">
        <ele>170</ele>
        <time>2017-06-24T10:40:32Z</time>
      </trkpt>
      <trkpt lat="45.92611" lon="4.74425">
        <ele>170</ele>
        <time>2017-06-24T10:40:33Z</time>
      </trkpt>
      <trkpt lat="45.92615" lon="4.74419">
        <ele>170</ele>
        <time>2017-06-24T10:40:34Z</time>
      </trkpt>
      <trkpt lat="45.92618" lon="4.74412">
        <ele>170</ele>
        <time>2017-06-24T10:40:35Z</time>
      </trkpt>
      <trkpt lat="45.92621" lon="4.74405">
        <ele>170</ele>
        <time>2017-06-24T10:40:36Z</time>
      </trkpt>
      <trkpt lat="45.92625" lon="4.74399">
        <ele>170</ele>
        <time>2017-06-24T10:40:37Z</time>
      </trkpt>
      <trkpt lat="45.92628" lon="4.74393">
        <ele>170</ele>
        <time>2017-06-24T10:40:38Z</time>
      </trkpt>
      <trkpt lat="45.92631" lon="4.74387">
        <ele>170</ele>
        <time>2017-06-24T10:40:39Z</time>
      </trkpt>
      <trkpt lat="45.92634" lon="4.74382">
        <ele>170</ele>
        <time>2017-06-24T10:40:40Z</time>
      </trkpt>
      <trkpt lat="45.92638" lon="4.74376">
        <ele>170</ele>
        <time>2017-06-24T10:40:41Z</time>
      </trkpt>
      <trkpt lat="45.92641" lon="4.74369">
        <ele>171</ele>
        <time>2017-06-24T10:40:42Z</time>
      </trkpt>
      <trkpt lat="45.92645" lon="4.74363">
        <ele>171</ele>
        <time>2017-06-24T10:40:43Z</time>
      </trkpt>
      <trkpt lat="45.92648" lon="4.74356">
        <ele>171</ele>
        <time>2017-06-24T10:40:44Z</time>
      </trkpt>
      <trkpt lat="45.92652" lon="4.74349">
        <ele>171</ele>
        <time>2017-06-24T10:40:45Z</time>
      </trkpt>
      <trkpt lat="45.92656" lon="4.74342">
        <ele>171</ele>
        <time>2017-06-24T10:40:46Z</time>
      </trkpt>
      <trkpt lat="45.9266" lon="4.74335">
        <ele>171</ele>
        <time>2017-06-24T10:40:47Z</time>
      </trkpt>
      <trkpt lat="45.92664" lon="4.74328">
        <ele>171</ele>
        <time>2017-06-24T10:40:48Z</time>
      </trkpt>
      <trkpt lat="45.92668" lon="4.7432">
        <ele>171</ele>
        <time>2017-06-24T10:40:49Z</time>
      </trkpt>
      <trkpt lat="45.92672" lon="4.74314">
        <ele>171</ele>
        <time>2017-06-24T10:40:50Z</time>
      </trkpt>
      <trkpt lat="45.92675" lon="4.74307">
        <ele>171</ele>
        <time>2017-06-24T10:40:51Z</time>
      </trkpt>
      <trkpt lat="45.92678" lon="4.74301">
        <ele>171</ele>
        <time>2017-06-24T10:40:52Z</time>
      </trkpt>
      <trkpt lat="45.92682" lon="4.74295">
        <ele>171</ele>
        <time>2017-06-24T10:40:53Z</time>
      </trkpt>
      <trkpt lat="45.92685" lon="4.74289">
        <ele>171</ele>
        <time>2017-06-24T10:40:54Z</time>
      </trkpt>
      <trkpt lat="45.92688" lon="4.74283">
        <ele>171</ele>
        <time>2017-06-24T10:40:55Z</time>
      </trkpt>
      <trkpt lat="45.92691" lon="4.74277">
        <ele>171</ele>
        <time>2017-06-24T10:40:56Z</time>
      </trkpt>
      <trkpt lat="45.92694" lon="4.74272">
        <ele>171</ele>
        <time>2017-06-24T10:40:57Z</time>
      </trkpt>
      <trkpt lat="45.92698" lon="4.74266">
        <ele>171</ele>
        <time>2017-06-24T10:40:58Z</time>
      </trkpt>
      <trkpt lat="45.92701" lon="4.74261">
        <ele>171</ele>
        <time>2017-06-24T10:40:59Z</time>
      </trkpt>
      <trkpt lat="45.92704" lon="4.74256">
        <ele>171</ele>
        <time>2017-06-24T10:41:00Z</time>
      </trkpt>
      <trkpt lat="45.92707" lon="4.74251">
        <ele>171</ele>
        <time>2017-06-24T10:41:01Z</time>
      </trkpt>
      <trkpt lat="45.9271" lon="4.74246">
        <ele>171</ele>
        <time>2017-06-24T10:41:02Z</time>
      </trkpt>
      <trkpt lat="45.92714" lon="4.74241">
        <ele>171</ele>
        <time>2017-06-24T10:41:03Z</time>
      </trkpt>
      <trkpt lat="45.92717" lon="4.74235">
        <ele>171</ele>
        <time>2017-06-24T10:41:04Z</time>
      </trkpt>
      <trkpt lat="45.92721" lon="4.7423">
        <ele>171</ele>
        <time>2017-06-24T10:41:05Z</time>
      </trkpt>
      <trkpt lat="45.92725" lon="4.74225">
        <ele>171</ele>
        <time>2017-06-24T10:41:06Z</time>
      </trkpt>
      <trkpt lat="45.92729" lon="4.74219">
        <ele>171</ele>
        <time>2017-06-24T10:41:07Z</time>
      </trkpt>
      <trkpt lat="45.92733" lon="4.74214">
        <ele>171</ele>
        <time>2017-06-24T10:41:08Z</time>
      </trkpt>
      <trkpt lat="45.92737" lon="4.74209">
        <ele>171</ele>
        <time>2017-06-24T10:41:09Z</time>
      </trkpt>
      <trkpt lat="45.92741" lon="4.74204">
        <ele>171</ele>
        <time>2017-06-24T10:41:10Z</time>
      </trkpt>
      <trkpt lat="45.92744" lon="4.74199">
        <ele>171</ele>
        <time>2017-06-24T10:41:11Z</time>
      </trkpt>
      <trkpt lat="45.92749" lon="4.74194">
        <ele>171</ele>
        <time>2017-06-24T10:41:12Z</time>
      </trkpt>
      <trkpt lat="45.92753" lon="4.74189">
        <ele>172</ele>
        <time>2017-06-24T10:41:13Z</time>
      </trkpt>
      <trkpt lat="45.92757" lon="4.74184">
        <ele>172</ele>
        <time>2017-06-24T10:41:14Z</time>
      </trkpt>
      <trkpt lat="45.92761" lon="4.74179">
        <ele>172</ele>
        <time>2017-06-24T10:41:15Z</time>
      </trkpt>
      <trkpt lat="45.92766" lon="4.74174">
        <ele>172</ele>
        <time>2017-06-24T10:41:16Z</time>
      </trkpt>
      <trkpt lat="45.9277" lon="4.74169">
        <ele>172</ele>
        <time>2017-06-24T10:41:17Z</time>
      </trkpt>
      <trkpt lat="45.92774" lon="4.74165">
        <ele>172</ele>
        <time>2017-06-24T10:41:18Z</time>
      </trkpt>
      <trkpt lat="45.92779" lon="4.7416">
        <ele>172</ele>
        <time>2017-06-24T10:41:19Z</time>
      </trkpt>
      <trkpt lat="45.92783" lon="4.74155">
        <ele>172</ele>
        <time>2017-06-24T10:41:20Z</time>
      </trkpt>
      <trkpt lat="45.92788" lon="4.7415">
        <ele>172</ele>
        <time>2017-06-24T10:41:21Z</time>
      </trkpt>
      <trkpt lat="45.92792" lon="4.74146">
        <ele>172</ele>
        <time>2017-06-24T10:41:22Z</time>
      </trkpt>
      <trkpt lat="45.92796" lon="4.74141">
        <ele>172</ele>
        <time>2017-06-24T10:41:23Z</time>
      </trkpt>
      <trkpt lat="45.928" lon="4.74136">
        <ele>172</ele>
        <time>2017-06-24T10:41:24Z</time>
      </trkpt>
      <trkpt lat="45.92804" lon="4.74132">
        <ele>172</ele>
        <time>2017-06-24T10:41:25Z</time>
      </trkpt>
      <trkpt lat="45.92809" lon="4.74127">
        <ele>172</ele>
        <time>2017-06-24T10:41:26Z</time>
      </trkpt>
      <trkpt lat="45.92813" lon="4.74123">
        <ele>172</ele>
        <time>2017-06-24T10:41:27Z</time>
      </trkpt>
      <trkpt lat="45.92818" lon="4.74118">
        <ele>172</ele>
        <time>2017-06-24T10:41:28Z</time>
      </trkpt>
      <trkpt lat="45.92823" lon="4.74113">
        <ele>171</ele>
        <time>2017-06-24T10:41:29Z</time>
      </trkpt>
      <trkpt lat="45.92827" lon="4.74108">
        <ele>171</ele>
        <time>2017-06-24T10:41:30Z</time>
      </trkpt>
      <trkpt lat="45.92831" lon="4.74104">
        <ele>171</ele>
        <time>2017-06-24T10:41:31Z</time>
      </trkpt>
      <trkpt lat="45.92836" lon="4.74099">
        <ele>171</ele>
        <time>2017-06-24T10:41:32Z</time>
      </trkpt>
      <trkpt lat="45.92841" lon="4.74093">
        <ele>171</ele>
        <time>2017-06-24T10:41:33Z</time>
      </trkpt>
      <trkpt lat="45.92845" lon="4.74088">
        <ele>171</ele>
        <time>2017-06-24T10:41:34Z</time>
      </trkpt>
      <trkpt lat="45.92849" lon="4.74083">
        <ele>172</ele>
        <time>2017-06-24T10:41:35Z</time>
      </trkpt>
      <trkpt lat="45.92853" lon="4.74078">
        <ele>172</ele>
        <time>2017-06-24T10:41:36Z</time>
      </trkpt>
      <trkpt lat="45.92857" lon="4.74073">
        <ele>172</ele>
        <time>2017-06-24T10:41:37Z</time>
      </trkpt>
      <trkpt lat="45.92861" lon="4.74068">
        <ele>172</ele>
        <time>2017-06-24T10:41:38Z</time>
      </trkpt>
      <trkpt lat="45.92866" lon="4.74063">
        <ele>172</ele>
        <time>2017-06-24T10:41:39Z</time>
      </trkpt>
      <trkpt lat="45.92871" lon="4.74058">
        <ele>172</ele>
        <time>2017-06-24T10:41:40Z</time>
      </trkpt>
      <trkpt lat="45.92877" lon="4.74053">
        <ele>172</ele>
        <time>2017-06-24T10:41:41Z</time>
      </trkpt>
      <trkpt lat="45.92882" lon="4.7405">
        <ele>172</ele>
        <time>2017-06-24T10:41:42Z</time>
      </trkpt>
      <trkpt lat="45.92889" lon="4.74049">
        <ele>172</ele>
        <time>2017-06-24T10:41:43Z</time>
      </trkpt>
      <trkpt lat="45.92894" lon="4.7405">
        <ele>172</ele>
        <time>2017-06-24T10:41:44Z</time>
      </trkpt>
      <trkpt lat="45.92899" lon="4.7405">
        <ele>172</ele>
        <time>2017-06-24T10:41:45Z</time>
      </trkpt>
      <trkpt lat="45.92905" lon="4.7405">
        <ele>172</ele>
        <time>2017-06-24T10:41:46Z</time>
      </trkpt>
      <trkpt lat="45.9291" lon="4.74047">
        <ele>172</ele>
        <time>2017-06-24T10:41:47Z</time>
      </trkpt>
      <trkpt lat="45.92914" lon="4.74042">
        <ele>172</ele>
        <time>2017-06-24T10:41:48Z</time>
      </trkpt>
      <trkpt lat="45.92917" lon="4.74036">
        <ele>172</ele>
        <time>2017-06-24T10:41:49Z</time>
      </trkpt>
      <trkpt lat="45.92919" lon="4.74029">
        <ele>172</ele>
        <time>2017-06-24T10:41:50Z</time>
      </trkpt>
      <trkpt lat="45.9292" lon="4.74022">
        <ele>172</ele>
        <time>2017-06-24T10:41:51Z</time>
      </trkpt>
      <trkpt lat="45.9292" lon="4.74015">
        <ele>172</ele>
        <time>2017-06-24T10:41:52Z</time>
      </trkpt>
      <trkpt lat="45.92919" lon="4.74008">
        <ele>172</ele>
        <time>2017-06-24T10:41:53Z</time>
      </trkpt>
      <trkpt lat="45.92918" lon="4.74001">
        <ele>172</ele>
        <time>2017-06-24T10:41:54Z</time>
      </trkpt>
      <trkpt lat="45.92915" lon="4.73994">
        <ele>172</ele>
        <time>2017-06-24T10:41:55Z</time>
      </trkpt>
      <trkpt lat="45.92912" lon="4.73989">
        <ele>172</ele>
        <time>2017-06-24T10:41:56Z</time>
      </trkpt>
      <trkpt lat="45.92906" lon="4.73986">
        <ele>172</ele>
        <time>2017-06-24T10:41:57Z</time>
      </trkpt>
      <trkpt lat="45.92901" lon="4.73982">
        <ele>172</ele>
        <time>2017-06-24T10:41:58Z</time>
      </trkpt>
      <trkpt lat="45.92896" lon="4.73976">
        <ele>172</ele>
        <time>2017-06-24T10:41:59Z</time>
      </trkpt>
      <trkpt lat="45.92893" lon="4.73969">
        <ele>172</ele>
        <time>2017-06-24T10:42:00Z</time>
      </trkpt>
      <trkpt lat="45.9289" lon="4.7396">
        <ele>172</ele>
        <time>2017-06-24T10:42:01Z</time>
      </trkpt>
      <trkpt lat="45.92888" lon="4.7395">
        <ele>172</ele>
        <time>2017-06-24T10:42:02Z</time>
      </trkpt>
      <trkpt lat="45.92887" lon="4.73939">
        <ele>172</ele>
        <time>2017-06-24T10:42:03Z</time>
      </trkpt>
      <trkpt lat="45.92886" lon="4.7393">
        <ele>172</ele>
        <time>2017-06-24T10:42:04Z</time>
      </trkpt>
      <trkpt lat="45.92884" lon="4.7392">
        <ele>172</ele>
        <time>2017-06-24T10:42:05Z</time>
      </trkpt>
      <trkpt lat="45.92883" lon="4.73911">
        <ele>173</ele>
        <time>2017-06-24T10:42:06Z</time>
      </trkpt>
      <trkpt lat="45.92882" lon="4.73901">
        <ele>173</ele>
        <time>2017-06-24T10:42:07Z</time>
      </trkpt>
      <trkpt lat="45.92881" lon="4.73892">
        <ele>173</ele>
        <time>2017-06-24T10:42:08Z</time>
      </trkpt>
      <trkpt lat="45.92879" lon="4.73882">
        <ele>173</ele>
        <time>2017-06-24T10:42:09Z</time>
      </trkpt>
      <trkpt lat="45.92877" lon="4.73873">
        <ele>173</ele>
        <time>2017-06-24T10:42:10Z</time>
      </trkpt>
      <trkpt lat="45.92875" lon="4.73864">
        <ele>173</ele>
        <time>2017-06-24T10:42:11Z</time>
      </trkpt>
      <trkpt lat="45.92873" lon="4.73856">
        <ele>173</ele>
        <time>2017-06-24T10:42:12Z</time>
      </trkpt>
      <trkpt lat="45.92871" lon="4.73847">
        <ele>173</ele>
        <time>2017-06-24T10:42:13Z</time>
      </trkpt>
      <trkpt lat="45.92869" lon="4.73838">
        <ele>173</ele>
        <time>2017-06-24T10:42:14Z</time>
      </trkpt>
      <trkpt lat="45.92867" lon="4.73831">
        <ele>173</ele>
        <time>2017-06-24T10:42:15Z</time>
      </trkpt>
      <trkpt lat="45.92865" lon="4.73823">
        <ele>173</ele>
        <time>2017-06-24T10:42:16Z</time>
      </trkpt>
      <trkpt lat="45.92863" lon="4.73816">
        <ele>173</ele>
        <time>2017-06-24T10:42:17Z</time>
      </trkpt>
      <trkpt lat="45.92861" lon="4.73809">
        <ele>173</ele>
        <time>2017-06-24T10:42:18Z</time>
      </trkpt>
      <trkpt lat="45.92859" lon="4.73803">
        <ele>173</ele>
        <time>2017-06-24T10:42:19Z</time>
      </trkpt>
      <trkpt lat="45.92856" lon="4.73797">
        <ele>173</ele>
        <time>2017-06-24T10:42:20Z</time>
      </trkpt>
      <trkpt lat="45.92853" lon="4.73793">
        <ele>173</ele>
        <time>2017-06-24T10:42:21Z</time>
      </trkpt>
      <trkpt lat="45.92849" lon="4.73789">
        <ele>173</ele>
        <time>2017-06-24T10:42:22Z</time>
      </trkpt>
      <trkpt lat="45.92844" lon="4.73785">
        <ele>173</ele>
        <time>2017-06-24T10:42:23Z</time>
      </trkpt>
      <trkpt lat="45.92839" lon="4.73782">
        <ele>173</ele>
        <time>2017-06-24T10:42:24Z</time>
      </trkpt>
      <trkpt lat="45.92834" lon="4.73779">
        <ele>172</ele>
        <time>2017-06-24T10:42:25Z</time>
      </trkpt>
      <trkpt lat="45.9283" lon="4.73776">
        <ele>173</ele>
        <time>2017-06-24T10:42:26Z</time>
      </trkpt>
      <trkpt lat="45.92824" lon="4.73772">
        <ele>173</ele>
        <time>2017-06-24T10:42:27Z</time>
      </trkpt>
      <trkpt lat="45.92818" lon="4.73769">
        <ele>173</ele>
        <time>2017-06-24T10:42:28Z</time>
      </trkpt>
      <trkpt lat="45.92812" lon="4.73766">
        <ele>173</ele>
        <time>2017-06-24T10:42:29Z</time>
      </trkpt>
      <trkpt lat="45.92807" lon="4.73763">
        <ele>173</ele>
        <time>2017-06-24T10:42:30Z</time>
      </trkpt>
      <trkpt lat="45.92803" lon="4.73761">
        <ele>173</ele>
        <time>2017-06-24T10:42:31Z</time>
      </trkpt>
      <trkpt lat="45.92796" lon="4.73757">
        <ele>173</ele>
        <time>2017-06-24T10:42:33Z</time>
      </trkpt>
      <trkpt lat="45.92792" lon="4.73755">
        <ele>173</ele>
        <time>2017-06-24T10:42:34Z</time>
      </trkpt>
      <trkpt lat="45.92787" lon="4.73747">
        <ele>172</ele>
        <time>2017-06-24T10:42:36Z</time>
      </trkpt>
      <trkpt lat="45.92785" lon="4.73742">
        <ele>172</ele>
        <time>2017-06-24T10:42:37Z</time>
      </trkpt>
      <trkpt lat="45.92779" lon="4.73732">
        <ele>172</ele>
        <time>2017-06-24T10:42:39Z</time>
      </trkpt>
      <trkpt lat="45.92775" lon="4.73729">
        <ele>172</ele>
        <time>2017-06-24T10:42:40Z</time>
      </trkpt>
      <trkpt lat="45.92767" lon="4.73727">
        <ele>172</ele>
        <time>2017-06-24T10:42:42Z</time>
      </trkpt>
      <trkpt lat="45.92762" lon="4.73725">
        <ele>172</ele>
        <time>2017-06-24T10:42:43Z</time>
      </trkpt>
      <trkpt lat="45.92754" lon="4.73723">
        <ele>172</ele>
        <time>2017-06-24T10:42:45Z</time>
      </trkpt>
      <trkpt lat="45.9275" lon="4.73722">
        <ele>173</ele>
        <time>2017-06-24T10:42:46Z</time>
      </trkpt>
      <trkpt lat="45.92745" lon="4.7372">
        <ele>173</ele>
        <time>2017-06-24T10:42:47Z</time>
      </trkpt>
      <trkpt lat="45.9274" lon="4.7372">
        <ele>173</ele>
        <time>2017-06-24T10:42:48Z</time>
      </trkpt>
      <trkpt lat="45.92735" lon="4.73718">
        <ele>173</ele>
        <time>2017-06-24T10:42:49Z</time>
      </trkpt>
      <trkpt lat="45.92731" lon="4.73717">
        <ele>173</ele>
        <time>2017-06-24T10:42:50Z</time>
      </trkpt>
      <trkpt lat="45.92725" lon="4.73716">
        <ele>173</ele>
        <time>2017-06-24T10:42:51Z</time>
      </trkpt>
      <trkpt lat="45.9272" lon="4.73713">
        <ele>173</ele>
        <time>2017-06-24T10:42:52Z</time>
      </trkpt>
      <trkpt lat="45.92715" lon="4.73712">
        <ele>173</ele>
        <time>2017-06-24T10:42:53Z</time>
      </trkpt>
      <trkpt lat="45.9271" lon="4.7371">
        <ele>173</ele>
        <time>2017-06-24T10:42:54Z</time>
      </trkpt>
      <trkpt lat="45.92705" lon="4.73709">
        <ele>173</ele>
        <time>2017-06-24T10:42:55Z</time>
      </trkpt>
      <trkpt lat="45.927" lon="4.73709">
        <ele>173</ele>
        <time>2017-06-24T10:42:56Z</time>
      </trkpt>
      <trkpt lat="45.92695" lon="4.73708">
        <ele>173</ele>
        <time>2017-06-24T10:42:57Z</time>
      </trkpt>
      <trkpt lat="45.9269" lon="4.73707">
        <ele>173</ele>
        <time>2017-06-24T10:42:58Z</time>
      </trkpt>
      <trkpt lat="45.92684" lon="4.73705">
        <ele>173</ele>
        <time>2017-06-24T10:42:59Z</time>
      </trkpt>
      <trkpt lat="45.92679" lon="4.73703">
        <ele>173</ele>
        <time>2017-06-24T10:43:00Z</time>
      </trkpt>
      <trkpt lat="45.92674" lon="4.73701">
        <ele>174</ele>
        <time>2017-06-24T10:43:01Z</time>
      </trkpt>
      <trkpt lat="45.9267" lon="4.73699">
        <ele>174</ele>
        <time>2017-06-24T10:43:02Z</time>
      </trkpt>
      <trkpt lat="45.92662" lon="4.73693">
        <ele>173</ele>
        <time>2017-06-24T10:43:04Z</time>
      </trkpt>
      <trkpt lat="45.92658" lon="4.7369">
        <ele>173</ele>
        <time>2017-06-24T10:43:05Z</time>
      </trkpt>
      <trkpt lat="45.92654" lon="4.73686">
        <ele>173</ele>
        <time>2017-06-24T10:43:06Z</time>
      </trkpt>
      <trkpt lat="45.9265" lon="4.73682">
        <ele>173</ele>
        <time>2017-06-24T10:43:07Z</time>
      </trkpt>
      <trkpt lat="45.92647" lon="4.73676">
        <ele>173</ele>
        <time>2017-06-24T10:43:08Z</time>
      </trkpt>
      <trkpt lat="45.92643" lon="4.7367">
        <ele>173</ele>
        <time>2017-06-24T10:43:09Z</time>
      </trkpt>
      <trkpt lat="45.9264" lon="4.73663">
        <ele>173</ele>
        <time>2017-06-24T10:43:10Z</time>
      </trkpt>
      <trkpt lat="45.92637" lon="4.73655">
        <ele>173</ele>
        <time>2017-06-24T10:43:11Z</time>
      </trkpt>
      <trkpt lat="45.92634" lon="4.73647">
        <ele>173</ele>
        <time>2017-06-24T10:43:12Z</time>
      </trkpt>
      <trkpt lat="45.9263" lon="4.7364">
        <ele>173</ele>
        <time>2017-06-24T10:43:13Z</time>
      </trkpt>
      <trkpt lat="45.92625" lon="4.73633">
        <ele>173</ele>
        <time>2017-06-24T10:43:14Z</time>
      </trkpt>
      <trkpt lat="45.9262" lon="4.73628">
        <ele>173</ele>
        <time>2017-06-24T10:43:15Z</time>
      </trkpt>
      <trkpt lat="45.92614" lon="4.73624">
        <ele>173</ele>
        <time>2017-06-24T10:43:16Z</time>
      </trkpt>
      <trkpt lat="45.92607" lon="4.73623">
        <ele>173</ele>
        <time>2017-06-24T10:43:17Z</time>
      </trkpt>
      <trkpt lat="45.92601" lon="4.73622">
        <ele>173</ele>
        <time>2017-06-24T10:43:18Z</time>
      </trkpt>
      <trkpt lat="45.92596" lon="4.73622">
        <ele>173</ele>
        <time>2017-06-24T10:43:19Z</time>
      </trkpt>
      <trkpt lat="45.9259" lon="4.73623">
        <ele>173</ele>
        <time>2017-06-24T10:43:20Z</time>
      </trkpt>
      <trkpt lat="45.92585" lon="4.73623">
        <ele>172</ele>
        <time>2017-06-24T10:43:21Z</time>
      </trkpt>
      <trkpt lat="45.9258" lon="4.73624">
        <ele>173</ele>
        <time>2017-06-24T10:43:22Z</time>
      </trkpt>
      <trkpt lat="45.92575" lon="4.73625">
        <ele>173</ele>
        <time>2017-06-24T10:43:23Z</time>
      </trkpt>
      <trkpt lat="45.92571" lon="4.73627">
        <ele>173</ele>
        <time>2017-06-24T10:43:24Z</time>
      </trkpt>
      <trkpt lat="45.92566" lon="4.73628">
        <ele>173</ele>
        <time>2017-06-24T10:43:25Z</time>
      </trkpt>
      <trkpt lat="45.92561" lon="4.7363">
        <ele>173</ele>
        <time>2017-06-24T10:43:26Z</time>
      </trkpt>
      <trkpt lat="45.92556" lon="4.73631">
        <ele>173</ele>
        <time>2017-06-24T10:43:27Z</time>
      </trkpt>
      <trkpt lat="45.92551" lon="4.73633">
        <ele>173</ele>
        <time>2017-06-24T10:43:28Z</time>
      </trkpt>
      <trkpt lat="45.92546" lon="4.73634">
        <ele>173</ele>
        <time>2017-06-24T10:43:29Z</time>
      </trkpt>
      <trkpt lat="45.92541" lon="4.73634">
        <ele>173</ele>
        <time>2017-06-24T10:43:30Z</time>
      </trkpt>
      <trkpt lat="45.92536" lon="4.73635">
        <ele>173</ele>
        <time>2017-06-24T10:43:31Z</time>
      </trkpt>
      <trkpt lat="45.92531" lon="4.73636">
        <ele>173</ele>
        <time>2017-06-24T10:43:32Z</time>
      </trkpt>
      <trkpt lat="45.92526" lon="4.73637">
        <ele>173</ele>
        <time>2017-06-24T10:43:33Z</time>
      </trkpt>
      <trkpt lat="45.92517" lon="4.73637">
        <ele>173</ele>
        <time>2017-06-24T10:43:35Z</time>
      </trkpt>
      <trkpt lat="45.92513" lon="4.73638">
        <ele>173</ele>
        <time>2017-06-24T10:43:36Z</time>
      </trkpt>
      <trkpt lat="45.92505" lon="4.73639">
        <ele>174</ele>
        <time>2017-06-24T10:43:38Z</time>
      </trkpt>
      <trkpt lat="45.92501" lon="4.73639">
        <ele>174</ele>
        <time>2017-06-24T10:43:39Z</time>
      </trkpt>
      <trkpt lat="45.92494" lon="4.73638">
        <ele>174</ele>
        <time>2017-06-24T10:43:41Z</time>
      </trkpt>
      <trkpt lat="45.9249" lon="4.73638">
        <ele>174</ele>
        <time>2017-06-24T10:43:42Z</time>
      </trkpt>
      <trkpt lat="45.92483" lon="4.73639">
        <ele>174</ele>
        <time>2017-06-24T10:43:44Z</time>
      </trkpt>
      <trkpt lat="45.92479" lon="4.7364">
        <ele>174</ele>
        <time>2017-06-24T10:43:45Z</time>
      </trkpt>
      <trkpt lat="45.92473" lon="4.73647">
        <ele>174</ele>
        <time>2017-06-24T10:43:47Z</time>
      </trkpt>
      <trkpt lat="45.92472" lon="4.73652">
        <ele>174</ele>
        <time>2017-06-24T10:43:48Z</time>
      </trkpt>
      <trkpt lat="45.9247" lon="4.73663">
        <ele>174</ele>
        <time>2017-06-24T10:43:50Z</time>
      </trkpt>
      <trkpt lat="45.9247" lon="4.73668">
        <ele>174</ele>
        <time>2017-06-24T10:43:51Z</time>
      </trkpt>
      <trkpt lat="45.9247" lon="4.73678">
        <ele>174</ele>
        <time>2017-06-24T10:43:53Z</time>
      </trkpt>
      <trkpt lat="45.9247" lon="4.73683">
        <ele>174</ele>
        <time>2017-06-24T10:43:54Z</time>
      </trkpt>
      <trkpt lat="45.92468" lon="4.73691">
        <ele>174</ele>
        <time>2017-06-24T10:43:56Z</time>
      </trkpt>
      <trkpt lat="45.92468" lon="4.73695">
        <ele>174</ele>
        <time>2017-06-24T10:43:57Z</time>
      </trkpt>
      <trkpt lat="45.92467" lon="4.737">
        <ele>174</ele>
        <time>2017-06-24T10:43:59Z</time>
      </trkpt>
      <trkpt lat="45.92467" lon="4.73701">
        <ele>174</ele>
        <time>2017-06-24T10:44:00Z</time>
      </trkpt>
      <trkpt lat="45.92464" lon="4.73706">
        <ele>174</ele>
        <time>2017-06-24T10:44:09Z</time>
      </trkpt>
      <trkpt lat="45.92463" lon="4.73706">
        <ele>174</ele>
        <time>2017-06-24T10:44:10Z</time>
      </trkpt>
      <trkpt lat="45.92458" lon="4.73707">
        <ele>174</ele>
        <time>2017-06-24T10:44:28.257Z</time>
      </trkpt>
    </trkseg>
  </trk>
</gpx>